<?xml version="1.0" encoding="UTF-8" standalone="no" ?>
<gpx xmlns="http://www.topografix.com/GPX/1/1" xmlns:xsi="http://www.w3.org/2001/XMLSchema-instance" xsi:schemaLocation="http://www.topografix.com/GPX/1/1 http://www.topografix.com/GPX/1/1/gpx.xsd" version="1.1" creator="VisuGPX - https://www.visugpx.com">
  <metadata>
    <name>Tatoo</name>
  </metadata>
  <trk>
    <name><![CDATA[Sortie vélo dans l'après-midi_1]]></name>
    <extensions>
      <line xmlns="http://www.topografix.com/GPX/gpx_style/0/2">
        <color>0000FF</color>
        <width>4</width>
      </line>
    </extensions>
    <trkseg>
      <trkpt lat="48.62254" lon="2.01832">
        <ele>128</ele>
        <time>2024-03-14T15:29:56Z</time>
      </trkpt>
      <trkpt lat="48.62254" lon="2.01832">
        <ele>127</ele>
        <time>2024-03-14T15:29:57Z</time>
      </trkpt>
      <trkpt lat="48.62251" lon="2.01835">
        <ele>127</ele>
        <time>2024-03-14T15:29:58Z</time>
      </trkpt>
      <trkpt lat="48.62249" lon="2.01839">
        <ele>127</ele>
        <time>2024-03-14T15:29:59Z</time>
      </trkpt>
      <trkpt lat="48.62248" lon="2.01843">
        <ele>127</ele>
        <time>2024-03-14T15:30:00Z</time>
      </trkpt>
      <trkpt lat="48.62248" lon="2.01847">
        <ele>127.6</ele>
        <time>2024-03-14T15:30:01Z</time>
      </trkpt>
      <trkpt lat="48.62248" lon="2.01851">
        <ele>127.6</ele>
        <time>2024-03-14T15:30:02Z</time>
      </trkpt>
      <trkpt lat="48.62249" lon="2.01856">
        <ele>127.6</ele>
        <time>2024-03-14T15:30:03Z</time>
      </trkpt>
      <trkpt lat="48.62251" lon="2.01861">
        <ele>127.4</ele>
        <time>2024-03-14T15:30:04Z</time>
      </trkpt>
      <trkpt lat="48.62252" lon="2.01866">
        <ele>126.8</ele>
        <time>2024-03-14T15:30:05Z</time>
      </trkpt>
      <trkpt lat="48.62251" lon="2.01872">
        <ele>126.8</ele>
        <time>2024-03-14T15:30:06Z</time>
      </trkpt>
      <trkpt lat="48.62249" lon="2.01876">
        <ele>126.8</ele>
        <time>2024-03-14T15:30:07Z</time>
      </trkpt>
      <trkpt lat="48.62246" lon="2.01877">
        <ele>126.8</ele>
        <time>2024-03-14T15:30:08Z</time>
      </trkpt>
      <trkpt lat="48.62242" lon="2.01877">
        <ele>127</ele>
        <time>2024-03-14T15:30:09Z</time>
      </trkpt>
      <trkpt lat="48.62239" lon="2.01874">
        <ele>127</ele>
        <time>2024-03-14T15:30:10Z</time>
      </trkpt>
      <trkpt lat="48.62237" lon="2.01869">
        <ele>127</ele>
        <time>2024-03-14T15:30:11Z</time>
      </trkpt>
      <trkpt lat="48.62236" lon="2.01864">
        <ele>126.6</ele>
        <time>2024-03-14T15:30:12Z</time>
      </trkpt>
      <trkpt lat="48.62236" lon="2.01858">
        <ele>126.8</ele>
        <time>2024-03-14T15:30:13Z</time>
      </trkpt>
      <trkpt lat="48.62236" lon="2.01853">
        <ele>126.8</ele>
        <time>2024-03-14T15:30:14Z</time>
      </trkpt>
      <trkpt lat="48.62237" lon="2.01847">
        <ele>126.8</ele>
        <time>2024-03-14T15:30:15Z</time>
      </trkpt>
      <trkpt lat="48.62238" lon="2.01841">
        <ele>126.8</ele>
        <time>2024-03-14T15:30:16Z</time>
      </trkpt>
      <trkpt lat="48.62238" lon="2.01834">
        <ele>126.4</ele>
        <time>2024-03-14T15:30:17Z</time>
      </trkpt>
      <trkpt lat="48.62239" lon="2.01828">
        <ele>126.4</ele>
        <time>2024-03-14T15:30:18Z</time>
      </trkpt>
      <trkpt lat="48.62239" lon="2.01821">
        <ele>126.4</ele>
        <time>2024-03-14T15:30:19Z</time>
      </trkpt>
      <trkpt lat="48.6224" lon="2.01814">
        <ele>127</ele>
        <time>2024-03-14T15:30:20Z</time>
      </trkpt>
      <trkpt lat="48.6224" lon="2.01806">
        <ele>126.6</ele>
        <time>2024-03-14T15:30:21Z</time>
      </trkpt>
      <trkpt lat="48.6224" lon="2.01799">
        <ele>126.6</ele>
        <time>2024-03-14T15:30:22Z</time>
      </trkpt>
      <trkpt lat="48.62241" lon="2.01793">
        <ele>126.6</ele>
        <time>2024-03-14T15:30:23Z</time>
      </trkpt>
      <trkpt lat="48.62242" lon="2.01786">
        <ele>126.6</ele>
        <time>2024-03-14T15:30:24Z</time>
      </trkpt>
      <trkpt lat="48.62242" lon="2.0178">
        <ele>126.2</ele>
        <time>2024-03-14T15:30:25Z</time>
      </trkpt>
      <trkpt lat="48.62243" lon="2.01773">
        <ele>126.2</ele>
        <time>2024-03-14T15:30:26Z</time>
      </trkpt>
      <trkpt lat="48.62244" lon="2.01766">
        <ele>126.2</ele>
        <time>2024-03-14T15:30:27Z</time>
      </trkpt>
      <trkpt lat="48.62245" lon="2.01759">
        <ele>126.6</ele>
        <time>2024-03-14T15:30:28Z</time>
      </trkpt>
      <trkpt lat="48.62246" lon="2.01753">
        <ele>126.2</ele>
        <time>2024-03-14T15:30:29Z</time>
      </trkpt>
      <trkpt lat="48.62247" lon="2.01746">
        <ele>126.2</ele>
        <time>2024-03-14T15:30:30Z</time>
      </trkpt>
      <trkpt lat="48.62248" lon="2.0174">
        <ele>126.2</ele>
        <time>2024-03-14T15:30:31Z</time>
      </trkpt>
      <trkpt lat="48.62248" lon="2.01734">
        <ele>125.2</ele>
        <time>2024-03-14T15:30:32Z</time>
      </trkpt>
      <trkpt lat="48.62249" lon="2.01727">
        <ele>125.6</ele>
        <time>2024-03-14T15:30:33Z</time>
      </trkpt>
      <trkpt lat="48.62251" lon="2.0172">
        <ele>125.6</ele>
        <time>2024-03-14T15:30:34Z</time>
      </trkpt>
      <trkpt lat="48.62252" lon="2.01713">
        <ele>125.6</ele>
        <time>2024-03-14T15:30:35Z</time>
      </trkpt>
      <trkpt lat="48.62254" lon="2.01706">
        <ele>125.6</ele>
        <time>2024-03-14T15:30:36Z</time>
      </trkpt>
      <trkpt lat="48.62254" lon="2.01701">
        <ele>125.6</ele>
        <time>2024-03-14T15:30:37Z</time>
      </trkpt>
      <trkpt lat="48.62255" lon="2.01695">
        <ele>125.6</ele>
        <time>2024-03-14T15:30:38Z</time>
      </trkpt>
      <trkpt lat="48.62255" lon="2.0169">
        <ele>125.6</ele>
        <time>2024-03-14T15:30:39Z</time>
      </trkpt>
      <trkpt lat="48.62256" lon="2.01685">
        <ele>126.2</ele>
        <time>2024-03-14T15:30:40Z</time>
      </trkpt>
      <trkpt lat="48.62256" lon="2.0168">
        <ele>126.6</ele>
        <time>2024-03-14T15:30:41Z</time>
      </trkpt>
      <trkpt lat="48.62256" lon="2.01674">
        <ele>126.6</ele>
        <time>2024-03-14T15:30:42Z</time>
      </trkpt>
      <trkpt lat="48.62256" lon="2.01668">
        <ele>126.6</ele>
        <time>2024-03-14T15:30:43Z</time>
      </trkpt>
      <trkpt lat="48.62256" lon="2.01661">
        <ele>126.6</ele>
        <time>2024-03-14T15:30:44Z</time>
      </trkpt>
      <trkpt lat="48.62256" lon="2.01655">
        <ele>126</ele>
        <time>2024-03-14T15:30:45Z</time>
      </trkpt>
      <trkpt lat="48.62255" lon="2.01648">
        <ele>126</ele>
        <time>2024-03-14T15:30:46Z</time>
      </trkpt>
      <trkpt lat="48.62255" lon="2.01639">
        <ele>126</ele>
        <time>2024-03-14T15:30:47Z</time>
      </trkpt>
      <trkpt lat="48.62255" lon="2.01631">
        <ele>126.4</ele>
        <time>2024-03-14T15:30:48Z</time>
      </trkpt>
      <trkpt lat="48.62255" lon="2.01622">
        <ele>127.2</ele>
        <time>2024-03-14T15:30:49Z</time>
      </trkpt>
      <trkpt lat="48.62255" lon="2.01612">
        <ele>127.2</ele>
        <time>2024-03-14T15:30:50Z</time>
      </trkpt>
      <trkpt lat="48.62256" lon="2.01603">
        <ele>127.2</ele>
        <time>2024-03-14T15:30:51Z</time>
      </trkpt>
      <trkpt lat="48.62256" lon="2.01594">
        <ele>127.2</ele>
        <time>2024-03-14T15:30:52Z</time>
      </trkpt>
      <trkpt lat="48.62256" lon="2.01586">
        <ele>127.2</ele>
        <time>2024-03-14T15:30:53Z</time>
      </trkpt>
      <trkpt lat="48.62256" lon="2.01577">
        <ele>127.2</ele>
        <time>2024-03-14T15:30:54Z</time>
      </trkpt>
      <trkpt lat="48.62256" lon="2.01569">
        <ele>127.2</ele>
        <time>2024-03-14T15:30:55Z</time>
      </trkpt>
      <trkpt lat="48.62256" lon="2.01561">
        <ele>127.2</ele>
        <time>2024-03-14T15:30:56Z</time>
      </trkpt>
      <trkpt lat="48.62256" lon="2.01553">
        <ele>128</ele>
        <time>2024-03-14T15:30:57Z</time>
      </trkpt>
      <trkpt lat="48.62256" lon="2.01545">
        <ele>128</ele>
        <time>2024-03-14T15:30:58Z</time>
      </trkpt>
      <trkpt lat="48.62256" lon="2.01537">
        <ele>128</ele>
        <time>2024-03-14T15:30:59Z</time>
      </trkpt>
      <trkpt lat="48.62256" lon="2.01529">
        <ele>128</ele>
        <time>2024-03-14T15:31:00Z</time>
      </trkpt>
      <trkpt lat="48.62256" lon="2.01521">
        <ele>129</ele>
        <time>2024-03-14T15:31:01Z</time>
      </trkpt>
      <trkpt lat="48.62256" lon="2.01514">
        <ele>129</ele>
        <time>2024-03-14T15:31:02Z</time>
      </trkpt>
      <trkpt lat="48.62256" lon="2.01506">
        <ele>129</ele>
        <time>2024-03-14T15:31:03Z</time>
      </trkpt>
      <trkpt lat="48.62256" lon="2.01498">
        <ele>128</ele>
        <time>2024-03-14T15:31:04Z</time>
      </trkpt>
      <trkpt lat="48.62256" lon="2.0149">
        <ele>127.6</ele>
        <time>2024-03-14T15:31:05Z</time>
      </trkpt>
      <trkpt lat="48.62256" lon="2.01482">
        <ele>127.6</ele>
        <time>2024-03-14T15:31:06Z</time>
      </trkpt>
      <trkpt lat="48.62256" lon="2.01475">
        <ele>127.6</ele>
        <time>2024-03-14T15:31:07Z</time>
      </trkpt>
      <trkpt lat="48.62256" lon="2.01467">
        <ele>127.6</ele>
        <time>2024-03-14T15:31:08Z</time>
      </trkpt>
      <trkpt lat="48.62256" lon="2.0146">
        <ele>129.8</ele>
        <time>2024-03-14T15:31:09Z</time>
      </trkpt>
      <trkpt lat="48.62256" lon="2.01452">
        <ele>129.8</ele>
        <time>2024-03-14T15:31:10Z</time>
      </trkpt>
      <trkpt lat="48.62256" lon="2.01444">
        <ele>129.8</ele>
        <time>2024-03-14T15:31:11Z</time>
      </trkpt>
      <trkpt lat="48.62256" lon="2.01437">
        <ele>129.8</ele>
        <time>2024-03-14T15:31:12Z</time>
      </trkpt>
      <trkpt lat="48.62256" lon="2.01429">
        <ele>128.6</ele>
        <time>2024-03-14T15:31:13Z</time>
      </trkpt>
      <trkpt lat="48.62257" lon="2.01421">
        <ele>128.6</ele>
        <time>2024-03-14T15:31:14Z</time>
      </trkpt>
      <trkpt lat="48.62257" lon="2.01414">
        <ele>128.6</ele>
        <time>2024-03-14T15:31:15Z</time>
      </trkpt>
      <trkpt lat="48.62257" lon="2.01406">
        <ele>128.6</ele>
        <time>2024-03-14T15:31:16Z</time>
      </trkpt>
      <trkpt lat="48.62257" lon="2.01399">
        <ele>130.8</ele>
        <time>2024-03-14T15:31:17Z</time>
      </trkpt>
      <trkpt lat="48.62257" lon="2.01392">
        <ele>130.8</ele>
        <time>2024-03-14T15:31:18Z</time>
      </trkpt>
      <trkpt lat="48.62257" lon="2.01384">
        <ele>130.8</ele>
        <time>2024-03-14T15:31:19Z</time>
      </trkpt>
      <trkpt lat="48.62257" lon="2.01377">
        <ele>129.8</ele>
        <time>2024-03-14T15:31:20Z</time>
      </trkpt>
      <trkpt lat="48.62257" lon="2.0137">
        <ele>129.8</ele>
        <time>2024-03-14T15:31:21Z</time>
      </trkpt>
      <trkpt lat="48.62257" lon="2.01363">
        <ele>129.8</ele>
        <time>2024-03-14T15:31:22Z</time>
      </trkpt>
      <trkpt lat="48.62257" lon="2.01356">
        <ele>129.8</ele>
        <time>2024-03-14T15:31:23Z</time>
      </trkpt>
      <trkpt lat="48.62257" lon="2.01349">
        <ele>129.8</ele>
        <time>2024-03-14T15:31:24Z</time>
      </trkpt>
      <trkpt lat="48.62257" lon="2.01342">
        <ele>131.2</ele>
        <time>2024-03-14T15:31:25Z</time>
      </trkpt>
      <trkpt lat="48.62257" lon="2.01335">
        <ele>131.2</ele>
        <time>2024-03-14T15:31:26Z</time>
      </trkpt>
      <trkpt lat="48.62257" lon="2.01328">
        <ele>131.2</ele>
        <time>2024-03-14T15:31:27Z</time>
      </trkpt>
      <trkpt lat="48.62257" lon="2.01321">
        <ele>131.4</ele>
        <time>2024-03-14T15:31:28Z</time>
      </trkpt>
      <trkpt lat="48.62257" lon="2.01314">
        <ele>132</ele>
        <time>2024-03-14T15:31:29Z</time>
      </trkpt>
      <trkpt lat="48.62257" lon="2.01307">
        <ele>132</ele>
        <time>2024-03-14T15:31:30Z</time>
      </trkpt>
      <trkpt lat="48.62257" lon="2.013">
        <ele>132</ele>
        <time>2024-03-14T15:31:31Z</time>
      </trkpt>
      <trkpt lat="48.62257" lon="2.01293">
        <ele>132</ele>
        <time>2024-03-14T15:31:32Z</time>
      </trkpt>
      <trkpt lat="48.62257" lon="2.01286">
        <ele>130.6</ele>
        <time>2024-03-14T15:31:33Z</time>
      </trkpt>
      <trkpt lat="48.62257" lon="2.01279">
        <ele>130.6</ele>
        <time>2024-03-14T15:31:34Z</time>
      </trkpt>
      <trkpt lat="48.62257" lon="2.01272">
        <ele>130.6</ele>
        <time>2024-03-14T15:31:35Z</time>
      </trkpt>
      <trkpt lat="48.62257" lon="2.01265">
        <ele>131.6</ele>
        <time>2024-03-14T15:31:36Z</time>
      </trkpt>
      <trkpt lat="48.62257" lon="2.01258">
        <ele>132.6</ele>
        <time>2024-03-14T15:31:37Z</time>
      </trkpt>
      <trkpt lat="48.62257" lon="2.01252">
        <ele>132.6</ele>
        <time>2024-03-14T15:31:38Z</time>
      </trkpt>
      <trkpt lat="48.62258" lon="2.01245">
        <ele>132.6</ele>
        <time>2024-03-14T15:31:39Z</time>
      </trkpt>
      <trkpt lat="48.62258" lon="2.01239">
        <ele>133.2</ele>
        <time>2024-03-14T15:31:40Z</time>
      </trkpt>
      <trkpt lat="48.62258" lon="2.01232">
        <ele>134.2</ele>
        <time>2024-03-14T15:31:41Z</time>
      </trkpt>
      <trkpt lat="48.62258" lon="2.01226">
        <ele>134.2</ele>
        <time>2024-03-14T15:31:42Z</time>
      </trkpt>
      <trkpt lat="48.62259" lon="2.0122">
        <ele>134.2</ele>
        <time>2024-03-14T15:31:43Z</time>
      </trkpt>
      <trkpt lat="48.62259" lon="2.01214">
        <ele>133.6</ele>
        <time>2024-03-14T15:31:44Z</time>
      </trkpt>
      <trkpt lat="48.62259" lon="2.01208">
        <ele>133.6</ele>
        <time>2024-03-14T15:31:45Z</time>
      </trkpt>
      <trkpt lat="48.6226" lon="2.01202">
        <ele>133.6</ele>
        <time>2024-03-14T15:31:46Z</time>
      </trkpt>
      <trkpt lat="48.6226" lon="2.01195">
        <ele>133.6</ele>
        <time>2024-03-14T15:31:47Z</time>
      </trkpt>
      <trkpt lat="48.62261" lon="2.01189">
        <ele>134.4</ele>
        <time>2024-03-14T15:31:48Z</time>
      </trkpt>
      <trkpt lat="48.62261" lon="2.01182">
        <ele>134.2</ele>
        <time>2024-03-14T15:31:49Z</time>
      </trkpt>
      <trkpt lat="48.62262" lon="2.01176">
        <ele>134.2</ele>
        <time>2024-03-14T15:31:50Z</time>
      </trkpt>
      <trkpt lat="48.62262" lon="2.01169">
        <ele>134.2</ele>
        <time>2024-03-14T15:31:51Z</time>
      </trkpt>
      <trkpt lat="48.62262" lon="2.01162">
        <ele>134.2</ele>
        <time>2024-03-14T15:31:52Z</time>
      </trkpt>
      <trkpt lat="48.62262" lon="2.01156">
        <ele>134.2</ele>
        <time>2024-03-14T15:31:53Z</time>
      </trkpt>
      <trkpt lat="48.62262" lon="2.01149">
        <ele>134.2</ele>
        <time>2024-03-14T15:31:54Z</time>
      </trkpt>
      <trkpt lat="48.62262" lon="2.01142">
        <ele>134.2</ele>
        <time>2024-03-14T15:31:55Z</time>
      </trkpt>
      <trkpt lat="48.62262" lon="2.01135">
        <ele>134.2</ele>
        <time>2024-03-14T15:31:56Z</time>
      </trkpt>
      <trkpt lat="48.62261" lon="2.01127">
        <ele>134.2</ele>
        <time>2024-03-14T15:31:57Z</time>
      </trkpt>
      <trkpt lat="48.62261" lon="2.01119">
        <ele>134.2</ele>
        <time>2024-03-14T15:31:58Z</time>
      </trkpt>
      <trkpt lat="48.6226" lon="2.0111">
        <ele>134.2</ele>
        <time>2024-03-14T15:31:59Z</time>
      </trkpt>
      <trkpt lat="48.62259" lon="2.01101">
        <ele>133.2</ele>
        <time>2024-03-14T15:32:00Z</time>
      </trkpt>
      <trkpt lat="48.62259" lon="2.01093">
        <ele>131.8</ele>
        <time>2024-03-14T15:32:01Z</time>
      </trkpt>
      <trkpt lat="48.62258" lon="2.01084">
        <ele>131.8</ele>
        <time>2024-03-14T15:32:02Z</time>
      </trkpt>
      <trkpt lat="48.62257" lon="2.01074">
        <ele>131.8</ele>
        <time>2024-03-14T15:32:03Z</time>
      </trkpt>
      <trkpt lat="48.62255" lon="2.01063">
        <ele>131.8</ele>
        <time>2024-03-14T15:32:04Z</time>
      </trkpt>
      <trkpt lat="48.62255" lon="2.01053">
        <ele>129.2</ele>
        <time>2024-03-14T15:32:05Z</time>
      </trkpt>
      <trkpt lat="48.62254" lon="2.01042">
        <ele>129.2</ele>
        <time>2024-03-14T15:32:06Z</time>
      </trkpt>
      <trkpt lat="48.62252" lon="2.0103">
        <ele>129.2</ele>
        <time>2024-03-14T15:32:07Z</time>
      </trkpt>
      <trkpt lat="48.62251" lon="2.01019">
        <ele>128.2</ele>
        <time>2024-03-14T15:32:08Z</time>
      </trkpt>
      <trkpt lat="48.62249" lon="2.01006">
        <ele>127</ele>
        <time>2024-03-14T15:32:09Z</time>
      </trkpt>
      <trkpt lat="48.62247" lon="2.00995">
        <ele>127</ele>
        <time>2024-03-14T15:32:10Z</time>
      </trkpt>
      <trkpt lat="48.62245" lon="2.00982">
        <ele>127</ele>
        <time>2024-03-14T15:32:11Z</time>
      </trkpt>
      <trkpt lat="48.62243" lon="2.00966">
        <ele>126</ele>
        <time>2024-03-14T15:32:12Z</time>
      </trkpt>
      <trkpt lat="48.62241" lon="2.00953">
        <ele>124</ele>
        <time>2024-03-14T15:32:13Z</time>
      </trkpt>
      <trkpt lat="48.62239" lon="2.00938">
        <ele>124</ele>
        <time>2024-03-14T15:32:14Z</time>
      </trkpt>
      <trkpt lat="48.62237" lon="2.00924">
        <ele>124</ele>
        <time>2024-03-14T15:32:15Z</time>
      </trkpt>
      <trkpt lat="48.62235" lon="2.0091">
        <ele>123</ele>
        <time>2024-03-14T15:32:16Z</time>
      </trkpt>
      <trkpt lat="48.62232" lon="2.00894">
        <ele>120.8</ele>
        <time>2024-03-14T15:32:17Z</time>
      </trkpt>
      <trkpt lat="48.6223" lon="2.00878">
        <ele>120.8</ele>
        <time>2024-03-14T15:32:18Z</time>
      </trkpt>
      <trkpt lat="48.62228" lon="2.00863">
        <ele>120.8</ele>
        <time>2024-03-14T15:32:19Z</time>
      </trkpt>
      <trkpt lat="48.62227" lon="2.00846">
        <ele>119.8</ele>
        <time>2024-03-14T15:32:20Z</time>
      </trkpt>
      <trkpt lat="48.62225" lon="2.00829">
        <ele>118.2</ele>
        <time>2024-03-14T15:32:21Z</time>
      </trkpt>
      <trkpt lat="48.62224" lon="2.00813">
        <ele>118.2</ele>
        <time>2024-03-14T15:32:22Z</time>
      </trkpt>
      <trkpt lat="48.62222" lon="2.00796">
        <ele>118.2</ele>
        <time>2024-03-14T15:32:23Z</time>
      </trkpt>
      <trkpt lat="48.62219" lon="2.0078">
        <ele>118.2</ele>
        <time>2024-03-14T15:32:24Z</time>
      </trkpt>
      <trkpt lat="48.62217" lon="2.00765">
        <ele>117.2</ele>
        <time>2024-03-14T15:32:25Z</time>
      </trkpt>
      <trkpt lat="48.62216" lon="2.0075">
        <ele>117.2</ele>
        <time>2024-03-14T15:32:26Z</time>
      </trkpt>
      <trkpt lat="48.62214" lon="2.00734">
        <ele>117.2</ele>
        <time>2024-03-14T15:32:27Z</time>
      </trkpt>
      <trkpt lat="48.62213" lon="2.0072">
        <ele>116.2</ele>
        <time>2024-03-14T15:32:28Z</time>
      </trkpt>
      <trkpt lat="48.62211" lon="2.00706">
        <ele>116.6</ele>
        <time>2024-03-14T15:32:29Z</time>
      </trkpt>
      <trkpt lat="48.62209" lon="2.00693">
        <ele>116.6</ele>
        <time>2024-03-14T15:32:30Z</time>
      </trkpt>
      <trkpt lat="48.62208" lon="2.00679">
        <ele>116.6</ele>
        <time>2024-03-14T15:32:31Z</time>
      </trkpt>
      <trkpt lat="48.62207" lon="2.00666">
        <ele>116.6</ele>
        <time>2024-03-14T15:32:32Z</time>
      </trkpt>
      <trkpt lat="48.62205" lon="2.00652">
        <ele>116.4</ele>
        <time>2024-03-14T15:32:33Z</time>
      </trkpt>
      <trkpt lat="48.62203" lon="2.0064">
        <ele>116.4</ele>
        <time>2024-03-14T15:32:34Z</time>
      </trkpt>
      <trkpt lat="48.62201" lon="2.00626">
        <ele>116.4</ele>
        <time>2024-03-14T15:32:35Z</time>
      </trkpt>
      <trkpt lat="48.622" lon="2.00614">
        <ele>116.4</ele>
        <time>2024-03-14T15:32:36Z</time>
      </trkpt>
      <trkpt lat="48.62198" lon="2.00601">
        <ele>116.2</ele>
        <time>2024-03-14T15:32:37Z</time>
      </trkpt>
      <trkpt lat="48.62197" lon="2.00589">
        <ele>116.2</ele>
        <time>2024-03-14T15:32:38Z</time>
      </trkpt>
      <trkpt lat="48.62195" lon="2.00577">
        <ele>116.2</ele>
        <time>2024-03-14T15:32:39Z</time>
      </trkpt>
      <trkpt lat="48.62194" lon="2.00566">
        <ele>117.2</ele>
        <time>2024-03-14T15:32:40Z</time>
      </trkpt>
      <trkpt lat="48.62193" lon="2.00553">
        <ele>118</ele>
        <time>2024-03-14T15:32:41Z</time>
      </trkpt>
      <trkpt lat="48.62191" lon="2.00542">
        <ele>118</ele>
        <time>2024-03-14T15:32:42Z</time>
      </trkpt>
      <trkpt lat="48.6219" lon="2.0053">
        <ele>118</ele>
        <time>2024-03-14T15:32:43Z</time>
      </trkpt>
      <trkpt lat="48.62188" lon="2.00518">
        <ele>118</ele>
        <time>2024-03-14T15:32:44Z</time>
      </trkpt>
      <trkpt lat="48.62186" lon="2.00508">
        <ele>117.2</ele>
        <time>2024-03-14T15:32:45Z</time>
      </trkpt>
      <trkpt lat="48.62185" lon="2.00497">
        <ele>117.2</ele>
        <time>2024-03-14T15:32:46Z</time>
      </trkpt>
      <trkpt lat="48.62184" lon="2.00485">
        <ele>117.2</ele>
        <time>2024-03-14T15:32:47Z</time>
      </trkpt>
      <trkpt lat="48.62182" lon="2.00471">
        <ele>117.2</ele>
        <time>2024-03-14T15:32:48Z</time>
      </trkpt>
      <trkpt lat="48.62181" lon="2.00459">
        <ele>117.2</ele>
        <time>2024-03-14T15:32:49Z</time>
      </trkpt>
      <trkpt lat="48.6218" lon="2.00448">
        <ele>117.2</ele>
        <time>2024-03-14T15:32:50Z</time>
      </trkpt>
      <trkpt lat="48.62179" lon="2.00436">
        <ele>117.2</ele>
        <time>2024-03-14T15:32:51Z</time>
      </trkpt>
      <trkpt lat="48.62178" lon="2.00425">
        <ele>117.2</ele>
        <time>2024-03-14T15:32:52Z</time>
      </trkpt>
      <trkpt lat="48.62177" lon="2.00414">
        <ele>117</ele>
        <time>2024-03-14T15:32:53Z</time>
      </trkpt>
      <trkpt lat="48.62175" lon="2.00402">
        <ele>117</ele>
        <time>2024-03-14T15:32:54Z</time>
      </trkpt>
      <trkpt lat="48.62174" lon="2.00392">
        <ele>117</ele>
        <time>2024-03-14T15:32:55Z</time>
      </trkpt>
      <trkpt lat="48.62172" lon="2.00381">
        <ele>116.6</ele>
        <time>2024-03-14T15:32:56Z</time>
      </trkpt>
      <trkpt lat="48.62171" lon="2.00369">
        <ele>116.6</ele>
        <time>2024-03-14T15:32:57Z</time>
      </trkpt>
      <trkpt lat="48.62169" lon="2.00358">
        <ele>116.6</ele>
        <time>2024-03-14T15:32:58Z</time>
      </trkpt>
      <trkpt lat="48.62168" lon="2.00347">
        <ele>116.6</ele>
        <time>2024-03-14T15:32:59Z</time>
      </trkpt>
      <trkpt lat="48.62166" lon="2.00338">
        <ele>116.6</ele>
        <time>2024-03-14T15:33:00Z</time>
      </trkpt>
      <trkpt lat="48.62165" lon="2.00328">
        <ele>115.8</ele>
        <time>2024-03-14T15:33:01Z</time>
      </trkpt>
      <trkpt lat="48.62163" lon="2.00317">
        <ele>115.8</ele>
        <time>2024-03-14T15:33:02Z</time>
      </trkpt>
      <trkpt lat="48.62162" lon="2.00306">
        <ele>115.8</ele>
        <time>2024-03-14T15:33:03Z</time>
      </trkpt>
      <trkpt lat="48.6216" lon="2.00296">
        <ele>116.6</ele>
        <time>2024-03-14T15:33:04Z</time>
      </trkpt>
      <trkpt lat="48.6216" lon="2.00286">
        <ele>117.6</ele>
        <time>2024-03-14T15:33:05Z</time>
      </trkpt>
      <trkpt lat="48.62159" lon="2.00276">
        <ele>117.6</ele>
        <time>2024-03-14T15:33:06Z</time>
      </trkpt>
      <trkpt lat="48.62157" lon="2.00267">
        <ele>117.6</ele>
        <time>2024-03-14T15:33:07Z</time>
      </trkpt>
      <trkpt lat="48.62153" lon="2.00261">
        <ele>118</ele>
        <time>2024-03-14T15:33:08Z</time>
      </trkpt>
      <trkpt lat="48.62148" lon="2.00261">
        <ele>118</ele>
        <time>2024-03-14T15:33:09Z</time>
      </trkpt>
      <trkpt lat="48.62144" lon="2.00263">
        <ele>118</ele>
        <time>2024-03-14T15:33:10Z</time>
      </trkpt>
      <trkpt lat="48.62144" lon="2.00267">
        <ele>118</ele>
        <time>2024-03-14T15:33:11Z</time>
      </trkpt>
      <trkpt lat="48.62145" lon="2.00272">
        <ele>118</ele>
        <time>2024-03-14T15:33:12Z</time>
      </trkpt>
      <trkpt lat="48.62147" lon="2.00277">
        <ele>118.4</ele>
        <time>2024-03-14T15:33:13Z</time>
      </trkpt>
      <trkpt lat="48.62148" lon="2.00283">
        <ele>118.4</ele>
        <time>2024-03-14T15:33:14Z</time>
      </trkpt>
      <trkpt lat="48.6215" lon="2.00289">
        <ele>118.4</ele>
        <time>2024-03-14T15:33:15Z</time>
      </trkpt>
      <trkpt lat="48.62152" lon="2.00296">
        <ele>118.4</ele>
        <time>2024-03-14T15:33:16Z</time>
      </trkpt>
      <trkpt lat="48.62154" lon="2.00304">
        <ele>118</ele>
        <time>2024-03-14T15:33:17Z</time>
      </trkpt>
      <trkpt lat="48.62156" lon="2.00312">
        <ele>118</ele>
        <time>2024-03-14T15:33:18Z</time>
      </trkpt>
      <trkpt lat="48.62158" lon="2.00321">
        <ele>118</ele>
        <time>2024-03-14T15:33:19Z</time>
      </trkpt>
      <trkpt lat="48.6216" lon="2.00329">
        <ele>117.6</ele>
        <time>2024-03-14T15:33:20Z</time>
      </trkpt>
      <trkpt lat="48.62161" lon="2.00338">
        <ele>117.6</ele>
        <time>2024-03-14T15:33:21Z</time>
      </trkpt>
      <trkpt lat="48.62162" lon="2.00347">
        <ele>117.6</ele>
        <time>2024-03-14T15:33:22Z</time>
      </trkpt>
      <trkpt lat="48.62163" lon="2.00355">
        <ele>117.6</ele>
        <time>2024-03-14T15:33:23Z</time>
      </trkpt>
      <trkpt lat="48.62164" lon="2.00365">
        <ele>117.6</ele>
        <time>2024-03-14T15:33:24Z</time>
      </trkpt>
      <trkpt lat="48.62165" lon="2.00374">
        <ele>117.8</ele>
        <time>2024-03-14T15:33:25Z</time>
      </trkpt>
      <trkpt lat="48.62165" lon="2.00383">
        <ele>117.8</ele>
        <time>2024-03-14T15:33:26Z</time>
      </trkpt>
      <trkpt lat="48.62166" lon="2.00391">
        <ele>117.8</ele>
        <time>2024-03-14T15:33:27Z</time>
      </trkpt>
      <trkpt lat="48.62166" lon="2.004">
        <ele>117.8</ele>
        <time>2024-03-14T15:33:28Z</time>
      </trkpt>
      <trkpt lat="48.62167" lon="2.00409">
        <ele>117.8</ele>
        <time>2024-03-14T15:33:29Z</time>
      </trkpt>
      <trkpt lat="48.62168" lon="2.00418">
        <ele>117.8</ele>
        <time>2024-03-14T15:33:30Z</time>
      </trkpt>
      <trkpt lat="48.62169" lon="2.00427">
        <ele>117.8</ele>
        <time>2024-03-14T15:33:31Z</time>
      </trkpt>
      <trkpt lat="48.6217" lon="2.00435">
        <ele>117.8</ele>
        <time>2024-03-14T15:33:32Z</time>
      </trkpt>
      <trkpt lat="48.62171" lon="2.00444">
        <ele>116.6</ele>
        <time>2024-03-14T15:33:33Z</time>
      </trkpt>
      <trkpt lat="48.62172" lon="2.00452">
        <ele>116.6</ele>
        <time>2024-03-14T15:33:34Z</time>
      </trkpt>
      <trkpt lat="48.62173" lon="2.00461">
        <ele>116.6</ele>
        <time>2024-03-14T15:33:35Z</time>
      </trkpt>
      <trkpt lat="48.62174" lon="2.0047">
        <ele>117.6</ele>
        <time>2024-03-14T15:33:36Z</time>
      </trkpt>
      <trkpt lat="48.62175" lon="2.00478">
        <ele>118.2</ele>
        <time>2024-03-14T15:33:37Z</time>
      </trkpt>
      <trkpt lat="48.62176" lon="2.00487">
        <ele>118.2</ele>
        <time>2024-03-14T15:33:38Z</time>
      </trkpt>
      <trkpt lat="48.62177" lon="2.00495">
        <ele>118.2</ele>
        <time>2024-03-14T15:33:39Z</time>
      </trkpt>
      <trkpt lat="48.62178" lon="2.00503">
        <ele>118.2</ele>
        <time>2024-03-14T15:33:40Z</time>
      </trkpt>
      <trkpt lat="48.62178" lon="2.00511">
        <ele>117.8</ele>
        <time>2024-03-14T15:33:41Z</time>
      </trkpt>
      <trkpt lat="48.62178" lon="2.0052">
        <ele>117.8</ele>
        <time>2024-03-14T15:33:42Z</time>
      </trkpt>
      <trkpt lat="48.6218" lon="2.00528">
        <ele>117.8</ele>
        <time>2024-03-14T15:33:43Z</time>
      </trkpt>
      <trkpt lat="48.6218" lon="2.00537">
        <ele>118.8</ele>
        <time>2024-03-14T15:33:44Z</time>
      </trkpt>
      <trkpt lat="48.62181" lon="2.00545">
        <ele>118.8</ele>
        <time>2024-03-14T15:33:45Z</time>
      </trkpt>
      <trkpt lat="48.62181" lon="2.00553">
        <ele>118.8</ele>
        <time>2024-03-14T15:33:46Z</time>
      </trkpt>
      <trkpt lat="48.62181" lon="2.00561">
        <ele>118.8</ele>
        <time>2024-03-14T15:33:47Z</time>
      </trkpt>
      <trkpt lat="48.62181" lon="2.00569">
        <ele>118.8</ele>
        <time>2024-03-14T15:33:48Z</time>
      </trkpt>
      <trkpt lat="48.62182" lon="2.00578">
        <ele>119.4</ele>
        <time>2024-03-14T15:33:49Z</time>
      </trkpt>
      <trkpt lat="48.62182" lon="2.00586">
        <ele>119.4</ele>
        <time>2024-03-14T15:33:50Z</time>
      </trkpt>
      <trkpt lat="48.62181" lon="2.00595">
        <ele>119.4</ele>
        <time>2024-03-14T15:33:51Z</time>
      </trkpt>
      <trkpt lat="48.62182" lon="2.00604">
        <ele>119.4</ele>
        <time>2024-03-14T15:33:52Z</time>
      </trkpt>
      <trkpt lat="48.62183" lon="2.00613">
        <ele>119.8</ele>
        <time>2024-03-14T15:33:53Z</time>
      </trkpt>
      <trkpt lat="48.62184" lon="2.00622">
        <ele>119.8</ele>
        <time>2024-03-14T15:33:54Z</time>
      </trkpt>
      <trkpt lat="48.62186" lon="2.00632">
        <ele>119.8</ele>
        <time>2024-03-14T15:33:55Z</time>
      </trkpt>
      <trkpt lat="48.62187" lon="2.00641">
        <ele>119.8</ele>
        <time>2024-03-14T15:33:56Z</time>
      </trkpt>
      <trkpt lat="48.62189" lon="2.0065">
        <ele>119.8</ele>
        <time>2024-03-14T15:33:57Z</time>
      </trkpt>
      <trkpt lat="48.6219" lon="2.0066">
        <ele>119.8</ele>
        <time>2024-03-14T15:33:58Z</time>
      </trkpt>
      <trkpt lat="48.62191" lon="2.00669">
        <ele>119.8</ele>
        <time>2024-03-14T15:33:59Z</time>
      </trkpt>
      <trkpt lat="48.62193" lon="2.00678">
        <ele>119.8</ele>
        <time>2024-03-14T15:34:00Z</time>
      </trkpt>
      <trkpt lat="48.62193" lon="2.00687">
        <ele>119.6</ele>
        <time>2024-03-14T15:34:01Z</time>
      </trkpt>
      <trkpt lat="48.62193" lon="2.00695">
        <ele>119.6</ele>
        <time>2024-03-14T15:34:02Z</time>
      </trkpt>
      <trkpt lat="48.62194" lon="2.00704">
        <ele>119.6</ele>
        <time>2024-03-14T15:34:03Z</time>
      </trkpt>
      <trkpt lat="48.62195" lon="2.00713">
        <ele>119.6</ele>
        <time>2024-03-14T15:34:04Z</time>
      </trkpt>
      <trkpt lat="48.62196" lon="2.00722">
        <ele>120.2</ele>
        <time>2024-03-14T15:34:05Z</time>
      </trkpt>
      <trkpt lat="48.62197" lon="2.00731">
        <ele>120.2</ele>
        <time>2024-03-14T15:34:06Z</time>
      </trkpt>
      <trkpt lat="48.62198" lon="2.0074">
        <ele>120.2</ele>
        <time>2024-03-14T15:34:07Z</time>
      </trkpt>
      <trkpt lat="48.62199" lon="2.00748">
        <ele>121.2</ele>
        <time>2024-03-14T15:34:08Z</time>
      </trkpt>
      <trkpt lat="48.62199" lon="2.00756">
        <ele>121.2</ele>
        <time>2024-03-14T15:34:09Z</time>
      </trkpt>
      <trkpt lat="48.622" lon="2.00765">
        <ele>121.2</ele>
        <time>2024-03-14T15:34:10Z</time>
      </trkpt>
      <trkpt lat="48.62202" lon="2.00773">
        <ele>121.2</ele>
        <time>2024-03-14T15:34:11Z</time>
      </trkpt>
      <trkpt lat="48.62203" lon="2.00782">
        <ele>122</ele>
        <time>2024-03-14T15:34:12Z</time>
      </trkpt>
      <trkpt lat="48.62205" lon="2.0079">
        <ele>122.4</ele>
        <time>2024-03-14T15:34:13Z</time>
      </trkpt>
      <trkpt lat="48.62206" lon="2.00798">
        <ele>122.4</ele>
        <time>2024-03-14T15:34:14Z</time>
      </trkpt>
      <trkpt lat="48.62207" lon="2.00805">
        <ele>122.4</ele>
        <time>2024-03-14T15:34:15Z</time>
      </trkpt>
      <trkpt lat="48.62209" lon="2.00813">
        <ele>123.2</ele>
        <time>2024-03-14T15:34:16Z</time>
      </trkpt>
      <trkpt lat="48.6221" lon="2.00819">
        <ele>123.8</ele>
        <time>2024-03-14T15:34:17Z</time>
      </trkpt>
      <trkpt lat="48.62211" lon="2.00826">
        <ele>123.8</ele>
        <time>2024-03-14T15:34:18Z</time>
      </trkpt>
      <trkpt lat="48.62212" lon="2.00832">
        <ele>123.8</ele>
        <time>2024-03-14T15:34:19Z</time>
      </trkpt>
      <trkpt lat="48.62213" lon="2.00839">
        <ele>124.6</ele>
        <time>2024-03-14T15:34:20Z</time>
      </trkpt>
      <trkpt lat="48.62214" lon="2.00845">
        <ele>124.6</ele>
        <time>2024-03-14T15:34:21Z</time>
      </trkpt>
      <trkpt lat="48.62215" lon="2.00851">
        <ele>124.6</ele>
        <time>2024-03-14T15:34:22Z</time>
      </trkpt>
      <trkpt lat="48.62215" lon="2.00857">
        <ele>124.6</ele>
        <time>2024-03-14T15:34:23Z</time>
      </trkpt>
      <trkpt lat="48.62216" lon="2.00863">
        <ele>125.2</ele>
        <time>2024-03-14T15:34:24Z</time>
      </trkpt>
      <trkpt lat="48.62217" lon="2.00868">
        <ele>125.2</ele>
        <time>2024-03-14T15:34:25Z</time>
      </trkpt>
      <trkpt lat="48.62218" lon="2.00874">
        <ele>125.2</ele>
        <time>2024-03-14T15:34:26Z</time>
      </trkpt>
      <trkpt lat="48.6222" lon="2.0088">
        <ele>125.2</ele>
        <time>2024-03-14T15:34:27Z</time>
      </trkpt>
      <trkpt lat="48.62221" lon="2.00886">
        <ele>126.2</ele>
        <time>2024-03-14T15:34:28Z</time>
      </trkpt>
      <trkpt lat="48.62221" lon="2.00892">
        <ele>126.6</ele>
        <time>2024-03-14T15:34:29Z</time>
      </trkpt>
      <trkpt lat="48.62222" lon="2.00897">
        <ele>126.6</ele>
        <time>2024-03-14T15:34:30Z</time>
      </trkpt>
      <trkpt lat="48.62223" lon="2.00903">
        <ele>126.6</ele>
        <time>2024-03-14T15:34:31Z</time>
      </trkpt>
      <trkpt lat="48.62224" lon="2.00908">
        <ele>127.4</ele>
        <time>2024-03-14T15:34:32Z</time>
      </trkpt>
      <trkpt lat="48.62225" lon="2.00914">
        <ele>127.8</ele>
        <time>2024-03-14T15:34:33Z</time>
      </trkpt>
      <trkpt lat="48.62225" lon="2.00919">
        <ele>127.8</ele>
        <time>2024-03-14T15:34:34Z</time>
      </trkpt>
      <trkpt lat="48.62225" lon="2.00925">
        <ele>127.8</ele>
        <time>2024-03-14T15:34:35Z</time>
      </trkpt>
      <trkpt lat="48.62225" lon="2.0093">
        <ele>128.6</ele>
        <time>2024-03-14T15:34:36Z</time>
      </trkpt>
      <trkpt lat="48.62224" lon="2.00935">
        <ele>128.8</ele>
        <time>2024-03-14T15:34:37Z</time>
      </trkpt>
      <trkpt lat="48.62225" lon="2.0094">
        <ele>128.8</ele>
        <time>2024-03-14T15:34:38Z</time>
      </trkpt>
      <trkpt lat="48.62224" lon="2.00945">
        <ele>128.8</ele>
        <time>2024-03-14T15:34:39Z</time>
      </trkpt>
      <trkpt lat="48.62224" lon="2.0095">
        <ele>128.6</ele>
        <time>2024-03-14T15:34:40Z</time>
      </trkpt>
      <trkpt lat="48.62225" lon="2.00955">
        <ele>129.4</ele>
        <time>2024-03-14T15:34:41Z</time>
      </trkpt>
      <trkpt lat="48.62225" lon="2.0096">
        <ele>129.4</ele>
        <time>2024-03-14T15:34:42Z</time>
      </trkpt>
      <trkpt lat="48.62225" lon="2.00966">
        <ele>129.4</ele>
        <time>2024-03-14T15:34:43Z</time>
      </trkpt>
      <trkpt lat="48.62225" lon="2.00971">
        <ele>129.4</ele>
        <time>2024-03-14T15:34:44Z</time>
      </trkpt>
      <trkpt lat="48.62226" lon="2.00975">
        <ele>130.6</ele>
        <time>2024-03-14T15:34:45Z</time>
      </trkpt>
      <trkpt lat="48.62227" lon="2.0098">
        <ele>130.6</ele>
        <time>2024-03-14T15:34:46Z</time>
      </trkpt>
      <trkpt lat="48.62228" lon="2.00985">
        <ele>130.6</ele>
        <time>2024-03-14T15:34:47Z</time>
      </trkpt>
      <trkpt lat="48.62227" lon="2.0099">
        <ele>130.6</ele>
        <time>2024-03-14T15:34:48Z</time>
      </trkpt>
      <trkpt lat="48.62228" lon="2.00995">
        <ele>131</ele>
        <time>2024-03-14T15:34:49Z</time>
      </trkpt>
      <trkpt lat="48.62228" lon="2.01001">
        <ele>131</ele>
        <time>2024-03-14T15:34:50Z</time>
      </trkpt>
      <trkpt lat="48.62229" lon="2.01006">
        <ele>131</ele>
        <time>2024-03-14T15:34:51Z</time>
      </trkpt>
      <trkpt lat="48.62229" lon="2.01012">
        <ele>131.8</ele>
        <time>2024-03-14T15:34:52Z</time>
      </trkpt>
      <trkpt lat="48.6223" lon="2.01018">
        <ele>132</ele>
        <time>2024-03-14T15:34:53Z</time>
      </trkpt>
      <trkpt lat="48.6223" lon="2.01023">
        <ele>132</ele>
        <time>2024-03-14T15:34:54Z</time>
      </trkpt>
      <trkpt lat="48.62231" lon="2.01028">
        <ele>132</ele>
        <time>2024-03-14T15:34:55Z</time>
      </trkpt>
      <trkpt lat="48.62232" lon="2.01032">
        <ele>133</ele>
        <time>2024-03-14T15:34:56Z</time>
      </trkpt>
      <trkpt lat="48.62233" lon="2.01038">
        <ele>132.8</ele>
        <time>2024-03-14T15:34:57Z</time>
      </trkpt>
      <trkpt lat="48.62235" lon="2.01043">
        <ele>132.8</ele>
        <time>2024-03-14T15:34:58Z</time>
      </trkpt>
      <trkpt lat="48.62235" lon="2.01049">
        <ele>132.8</ele>
        <time>2024-03-14T15:34:59Z</time>
      </trkpt>
      <trkpt lat="48.62234" lon="2.01054">
        <ele>133.8</ele>
        <time>2024-03-14T15:35:00Z</time>
      </trkpt>
      <trkpt lat="48.62234" lon="2.0106">
        <ele>134.2</ele>
        <time>2024-03-14T15:35:01Z</time>
      </trkpt>
      <trkpt lat="48.62235" lon="2.01066">
        <ele>134.2</ele>
        <time>2024-03-14T15:35:02Z</time>
      </trkpt>
      <trkpt lat="48.62236" lon="2.01072">
        <ele>134.2</ele>
        <time>2024-03-14T15:35:03Z</time>
      </trkpt>
      <trkpt lat="48.62236" lon="2.01078">
        <ele>134.2</ele>
        <time>2024-03-14T15:35:04Z</time>
      </trkpt>
      <trkpt lat="48.62236" lon="2.01084">
        <ele>134.8</ele>
        <time>2024-03-14T15:35:05Z</time>
      </trkpt>
      <trkpt lat="48.62236" lon="2.0109">
        <ele>134.8</ele>
        <time>2024-03-14T15:35:06Z</time>
      </trkpt>
      <trkpt lat="48.62236" lon="2.01096">
        <ele>134.8</ele>
        <time>2024-03-14T15:35:07Z</time>
      </trkpt>
      <trkpt lat="48.62238" lon="2.01102">
        <ele>135.6</ele>
        <time>2024-03-14T15:35:08Z</time>
      </trkpt>
      <trkpt lat="48.62238" lon="2.01109">
        <ele>135.2</ele>
        <time>2024-03-14T15:35:09Z</time>
      </trkpt>
      <trkpt lat="48.62238" lon="2.01115">
        <ele>135.2</ele>
        <time>2024-03-14T15:35:10Z</time>
      </trkpt>
      <trkpt lat="48.62239" lon="2.01123">
        <ele>135.2</ele>
        <time>2024-03-14T15:35:11Z</time>
      </trkpt>
      <trkpt lat="48.62242" lon="2.01131">
        <ele>136</ele>
        <time>2024-03-14T15:35:12Z</time>
      </trkpt>
      <trkpt lat="48.62243" lon="2.01139">
        <ele>135.8</ele>
        <time>2024-03-14T15:35:13Z</time>
      </trkpt>
      <trkpt lat="48.62245" lon="2.01147">
        <ele>135.8</ele>
        <time>2024-03-14T15:35:14Z</time>
      </trkpt>
      <trkpt lat="48.62247" lon="2.01156">
        <ele>135.8</ele>
        <time>2024-03-14T15:35:15Z</time>
      </trkpt>
      <trkpt lat="48.62248" lon="2.01165">
        <ele>135.2</ele>
        <time>2024-03-14T15:35:16Z</time>
      </trkpt>
      <trkpt lat="48.62248" lon="2.01173">
        <ele>135.4</ele>
        <time>2024-03-14T15:35:17Z</time>
      </trkpt>
      <trkpt lat="48.62249" lon="2.01183">
        <ele>135.4</ele>
        <time>2024-03-14T15:35:18Z</time>
      </trkpt>
      <trkpt lat="48.62249" lon="2.01192">
        <ele>135.4</ele>
        <time>2024-03-14T15:35:19Z</time>
      </trkpt>
      <trkpt lat="48.62249" lon="2.01201">
        <ele>134.4</ele>
        <time>2024-03-14T15:35:20Z</time>
      </trkpt>
      <trkpt lat="48.62249" lon="2.01212">
        <ele>133.6</ele>
        <time>2024-03-14T15:35:21Z</time>
      </trkpt>
      <trkpt lat="48.62249" lon="2.01222">
        <ele>133.6</ele>
        <time>2024-03-14T15:35:22Z</time>
      </trkpt>
      <trkpt lat="48.62249" lon="2.01233">
        <ele>133.6</ele>
        <time>2024-03-14T15:35:23Z</time>
      </trkpt>
      <trkpt lat="48.62249" lon="2.01244">
        <ele>132.6</ele>
        <time>2024-03-14T15:35:24Z</time>
      </trkpt>
      <trkpt lat="48.62249" lon="2.01255">
        <ele>131.8</ele>
        <time>2024-03-14T15:35:25Z</time>
      </trkpt>
      <trkpt lat="48.62249" lon="2.01266">
        <ele>131.8</ele>
        <time>2024-03-14T15:35:26Z</time>
      </trkpt>
      <trkpt lat="48.62249" lon="2.01277">
        <ele>131.8</ele>
        <time>2024-03-14T15:35:27Z</time>
      </trkpt>
      <trkpt lat="48.62249" lon="2.01289">
        <ele>130.8</ele>
        <time>2024-03-14T15:35:28Z</time>
      </trkpt>
      <trkpt lat="48.62249" lon="2.01301">
        <ele>130</ele>
        <time>2024-03-14T15:35:29Z</time>
      </trkpt>
      <trkpt lat="48.62249" lon="2.01312">
        <ele>130</ele>
        <time>2024-03-14T15:35:30Z</time>
      </trkpt>
      <trkpt lat="48.62249" lon="2.01324">
        <ele>130</ele>
        <time>2024-03-14T15:35:31Z</time>
      </trkpt>
      <trkpt lat="48.62249" lon="2.01336">
        <ele>129.6</ele>
        <time>2024-03-14T15:35:32Z</time>
      </trkpt>
      <trkpt lat="48.62249" lon="2.01348">
        <ele>129.2</ele>
        <time>2024-03-14T15:35:33Z</time>
      </trkpt>
      <trkpt lat="48.62249" lon="2.01361">
        <ele>129.2</ele>
        <time>2024-03-14T15:35:34Z</time>
      </trkpt>
      <trkpt lat="48.62249" lon="2.01373">
        <ele>129.2</ele>
        <time>2024-03-14T15:35:35Z</time>
      </trkpt>
      <trkpt lat="48.62249" lon="2.01385">
        <ele>128.6</ele>
        <time>2024-03-14T15:35:36Z</time>
      </trkpt>
      <trkpt lat="48.62248" lon="2.01398">
        <ele>128.4</ele>
        <time>2024-03-14T15:35:37Z</time>
      </trkpt>
      <trkpt lat="48.62248" lon="2.0141">
        <ele>128.4</ele>
        <time>2024-03-14T15:35:38Z</time>
      </trkpt>
      <trkpt lat="48.62248" lon="2.01423">
        <ele>128.4</ele>
        <time>2024-03-14T15:35:39Z</time>
      </trkpt>
      <trkpt lat="48.62248" lon="2.01435">
        <ele>128.4</ele>
        <time>2024-03-14T15:35:40Z</time>
      </trkpt>
      <trkpt lat="48.62248" lon="2.01447">
        <ele>128.4</ele>
        <time>2024-03-14T15:35:41Z</time>
      </trkpt>
      <trkpt lat="48.62248" lon="2.0146">
        <ele>128.4</ele>
        <time>2024-03-14T15:35:42Z</time>
      </trkpt>
      <trkpt lat="48.62248" lon="2.01472">
        <ele>128.4</ele>
        <time>2024-03-14T15:35:43Z</time>
      </trkpt>
      <trkpt lat="48.62248" lon="2.01484">
        <ele>128.4</ele>
        <time>2024-03-14T15:35:44Z</time>
      </trkpt>
      <trkpt lat="48.62248" lon="2.01497">
        <ele>128.4</ele>
        <time>2024-03-14T15:35:45Z</time>
      </trkpt>
      <trkpt lat="48.62248" lon="2.01509">
        <ele>128.4</ele>
        <time>2024-03-14T15:35:46Z</time>
      </trkpt>
      <trkpt lat="48.62248" lon="2.01521">
        <ele>128.4</ele>
        <time>2024-03-14T15:35:47Z</time>
      </trkpt>
      <trkpt lat="48.62248" lon="2.01533">
        <ele>128.2</ele>
        <time>2024-03-14T15:35:48Z</time>
      </trkpt>
      <trkpt lat="48.62248" lon="2.01545">
        <ele>128</ele>
        <time>2024-03-14T15:35:49Z</time>
      </trkpt>
      <trkpt lat="48.62248" lon="2.01558">
        <ele>128</ele>
        <time>2024-03-14T15:35:50Z</time>
      </trkpt>
      <trkpt lat="48.62248" lon="2.0157">
        <ele>128</ele>
        <time>2024-03-14T15:35:51Z</time>
      </trkpt>
      <trkpt lat="48.62248" lon="2.01582">
        <ele>128</ele>
        <time>2024-03-14T15:35:52Z</time>
      </trkpt>
      <trkpt lat="48.62248" lon="2.01594">
        <ele>128</ele>
        <time>2024-03-14T15:35:53Z</time>
      </trkpt>
      <trkpt lat="48.62248" lon="2.01606">
        <ele>128</ele>
        <time>2024-03-14T15:35:54Z</time>
      </trkpt>
      <trkpt lat="48.62248" lon="2.01618">
        <ele>128</ele>
        <time>2024-03-14T15:35:55Z</time>
      </trkpt>
      <trkpt lat="48.62247" lon="2.01629">
        <ele>127.8</ele>
        <time>2024-03-14T15:35:56Z</time>
      </trkpt>
      <trkpt lat="48.62247" lon="2.01641">
        <ele>127.4</ele>
        <time>2024-03-14T15:35:57Z</time>
      </trkpt>
      <trkpt lat="48.62246" lon="2.01653">
        <ele>127.4</ele>
        <time>2024-03-14T15:35:58Z</time>
      </trkpt>
      <trkpt lat="48.62245" lon="2.01664">
        <ele>127.4</ele>
        <time>2024-03-14T15:35:59Z</time>
      </trkpt>
      <trkpt lat="48.62242" lon="2.01674">
        <ele>127.4</ele>
        <time>2024-03-14T15:36:00Z</time>
      </trkpt>
      <trkpt lat="48.62241" lon="2.01687">
        <ele>125.8</ele>
        <time>2024-03-14T15:36:01Z</time>
      </trkpt>
      <trkpt lat="48.62239" lon="2.01696">
        <ele>125.8</ele>
        <time>2024-03-14T15:36:02Z</time>
      </trkpt>
      <trkpt lat="48.62239" lon="2.01706">
        <ele>125.8</ele>
        <time>2024-03-14T15:36:03Z</time>
      </trkpt>
      <trkpt lat="48.62238" lon="2.01717">
        <ele>125.8</ele>
        <time>2024-03-14T15:36:04Z</time>
      </trkpt>
      <trkpt lat="48.62238" lon="2.01728">
        <ele>127</ele>
        <time>2024-03-14T15:36:05Z</time>
      </trkpt>
      <trkpt lat="48.62236" lon="2.01739">
        <ele>127</ele>
        <time>2024-03-14T15:36:06Z</time>
      </trkpt>
      <trkpt lat="48.62236" lon="2.01751">
        <ele>127</ele>
        <time>2024-03-14T15:36:07Z</time>
      </trkpt>
      <trkpt lat="48.62235" lon="2.01761">
        <ele>126.2</ele>
        <time>2024-03-14T15:36:08Z</time>
      </trkpt>
      <trkpt lat="48.62234" lon="2.01773">
        <ele>126</ele>
        <time>2024-03-14T15:36:09Z</time>
      </trkpt>
      <trkpt lat="48.62232" lon="2.01784">
        <ele>126</ele>
        <time>2024-03-14T15:36:10Z</time>
      </trkpt>
      <trkpt lat="48.62232" lon="2.01796">
        <ele>126</ele>
        <time>2024-03-14T15:36:11Z</time>
      </trkpt>
      <trkpt lat="48.62232" lon="2.01807">
        <ele>126.4</ele>
        <time>2024-03-14T15:36:12Z</time>
      </trkpt>
      <trkpt lat="48.62232" lon="2.01818">
        <ele>126.2</ele>
        <time>2024-03-14T15:36:13Z</time>
      </trkpt>
      <trkpt lat="48.62231" lon="2.01829">
        <ele>126.2</ele>
        <time>2024-03-14T15:36:14Z</time>
      </trkpt>
      <trkpt lat="48.6223" lon="2.01839">
        <ele>126.2</ele>
        <time>2024-03-14T15:36:15Z</time>
      </trkpt>
      <trkpt lat="48.62229" lon="2.01848">
        <ele>126.2</ele>
        <time>2024-03-14T15:36:16Z</time>
      </trkpt>
      <trkpt lat="48.62231" lon="2.01856">
        <ele>126</ele>
        <time>2024-03-14T15:36:17Z</time>
      </trkpt>
      <trkpt lat="48.62233" lon="2.01864">
        <ele>126</ele>
        <time>2024-03-14T15:36:18Z</time>
      </trkpt>
      <trkpt lat="48.62237" lon="2.01869">
        <ele>126</ele>
        <time>2024-03-14T15:36:19Z</time>
      </trkpt>
      <trkpt lat="48.62242" lon="2.0187">
        <ele>127</ele>
        <time>2024-03-14T15:36:20Z</time>
      </trkpt>
      <trkpt lat="48.62246" lon="2.01867">
        <ele>128</ele>
        <time>2024-03-14T15:36:21Z</time>
      </trkpt>
      <trkpt lat="48.62248" lon="2.01861">
        <ele>128</ele>
        <time>2024-03-14T15:36:22Z</time>
      </trkpt>
      <trkpt lat="48.62247" lon="2.01856">
        <ele>128</ele>
        <time>2024-03-14T15:36:23Z</time>
      </trkpt>
      <trkpt lat="48.62245" lon="2.01851">
        <ele>128</ele>
        <time>2024-03-14T15:36:24Z</time>
      </trkpt>
      <trkpt lat="48.62245" lon="2.01846">
        <ele>128.2</ele>
        <time>2024-03-14T15:36:25Z</time>
      </trkpt>
      <trkpt lat="48.62247" lon="2.0184">
        <ele>128.2</ele>
        <time>2024-03-14T15:36:26Z</time>
      </trkpt>
      <trkpt lat="48.62251" lon="2.01837">
        <ele>128.2</ele>
        <time>2024-03-14T15:36:27Z</time>
      </trkpt>
      <trkpt lat="48.62255" lon="2.01835">
        <ele>127.2</ele>
        <time>2024-03-14T15:36:28Z</time>
      </trkpt>
      <trkpt lat="48.62257" lon="2.01833">
        <ele>128.4</ele>
        <time>2024-03-14T15:36:29Z</time>
      </trkpt>
      <trkpt lat="48.62259" lon="2.01832">
        <ele>128.4</ele>
        <time>2024-03-14T15:36:30Z</time>
      </trkpt>
      <trkpt lat="48.6226" lon="2.01831">
        <ele>128.4</ele>
        <time>2024-03-14T15:36:31Z</time>
      </trkpt>
      <trkpt lat="48.6226" lon="2.0183">
        <ele>128.6</ele>
        <time>2024-03-14T15:36:32Z</time>
      </trkpt>
      <trkpt lat="48.6226" lon="2.01828">
        <ele>127.4</ele>
        <time>2024-03-14T15:36:33Z</time>
      </trkpt>
      <trkpt lat="48.6226" lon="2.01827">
        <ele>127.4</ele>
        <time>2024-03-14T15:36:34Z</time>
      </trkpt>
      <trkpt lat="48.62259" lon="2.01827">
        <ele>127.4</ele>
        <time>2024-03-14T15:36:35Z</time>
      </trkpt>
      <trkpt lat="48.62259" lon="2.01827">
        <ele>128.4</ele>
        <time>2024-03-14T15:36:36Z</time>
      </trkpt>
      <trkpt lat="48.62259" lon="2.01827">
        <ele>128.8</ele>
        <time>2024-03-14T15:36:37Z</time>
      </trkpt>
      <trkpt lat="48.62257" lon="2.01838">
        <ele>128</ele>
        <time>2024-03-14T15:38:41Z</time>
      </trkpt>
      <trkpt lat="48.62254" lon="2.0184">
        <ele>128</ele>
        <time>2024-03-14T15:38:42Z</time>
      </trkpt>
      <trkpt lat="48.62252" lon="2.01843">
        <ele>128</ele>
        <time>2024-03-14T15:38:43Z</time>
      </trkpt>
      <trkpt lat="48.6225" lon="2.01846">
        <ele>128</ele>
        <time>2024-03-14T15:38:44Z</time>
      </trkpt>
      <trkpt lat="48.62249" lon="2.0185">
        <ele>128.2</ele>
        <time>2024-03-14T15:38:45Z</time>
      </trkpt>
      <trkpt lat="48.62249" lon="2.01854">
        <ele>128.2</ele>
        <time>2024-03-14T15:38:46Z</time>
      </trkpt>
      <trkpt lat="48.62249" lon="2.01859">
        <ele>128.2</ele>
        <time>2024-03-14T15:38:47Z</time>
      </trkpt>
      <trkpt lat="48.6225" lon="2.01864">
        <ele>128.8</ele>
        <time>2024-03-14T15:38:48Z</time>
      </trkpt>
      <trkpt lat="48.62252" lon="2.01869">
        <ele>128.6</ele>
        <time>2024-03-14T15:38:49Z</time>
      </trkpt>
      <trkpt lat="48.62254" lon="2.01874">
        <ele>128.6</ele>
        <time>2024-03-14T15:38:50Z</time>
      </trkpt>
      <trkpt lat="48.62257" lon="2.01879">
        <ele>128.6</ele>
        <time>2024-03-14T15:38:51Z</time>
      </trkpt>
      <trkpt lat="48.6226" lon="2.01883">
        <ele>128.6</ele>
        <time>2024-03-14T15:38:52Z</time>
      </trkpt>
      <trkpt lat="48.62263" lon="2.01888">
        <ele>128.8</ele>
        <time>2024-03-14T15:38:53Z</time>
      </trkpt>
      <trkpt lat="48.62267" lon="2.01893">
        <ele>128.8</ele>
        <time>2024-03-14T15:38:54Z</time>
      </trkpt>
      <trkpt lat="48.6227" lon="2.01898">
        <ele>128.8</ele>
        <time>2024-03-14T15:38:55Z</time>
      </trkpt>
      <trkpt lat="48.62272" lon="2.01903">
        <ele>128.8</ele>
        <time>2024-03-14T15:38:56Z</time>
      </trkpt>
      <trkpt lat="48.62275" lon="2.01908">
        <ele>129.2</ele>
        <time>2024-03-14T15:38:57Z</time>
      </trkpt>
      <trkpt lat="48.62277" lon="2.01914">
        <ele>129.2</ele>
        <time>2024-03-14T15:38:58Z</time>
      </trkpt>
      <trkpt lat="48.62279" lon="2.01919">
        <ele>129.2</ele>
        <time>2024-03-14T15:38:59Z</time>
      </trkpt>
      <trkpt lat="48.62281" lon="2.01924">
        <ele>129.2</ele>
        <time>2024-03-14T15:39:00Z</time>
      </trkpt>
      <trkpt lat="48.62284" lon="2.0193">
        <ele>130.2</ele>
        <time>2024-03-14T15:39:01Z</time>
      </trkpt>
      <trkpt lat="48.62287" lon="2.01934">
        <ele>130.2</ele>
        <time>2024-03-14T15:39:02Z</time>
      </trkpt>
      <trkpt lat="48.6229" lon="2.01939">
        <ele>130.2</ele>
        <time>2024-03-14T15:39:03Z</time>
      </trkpt>
      <trkpt lat="48.62293" lon="2.01944">
        <ele>129.8</ele>
        <time>2024-03-14T15:39:04Z</time>
      </trkpt>
      <trkpt lat="48.62295" lon="2.01948">
        <ele>130.2</ele>
        <time>2024-03-14T15:39:05Z</time>
      </trkpt>
      <trkpt lat="48.62298" lon="2.01953">
        <ele>130.2</ele>
        <time>2024-03-14T15:39:06Z</time>
      </trkpt>
      <trkpt lat="48.623" lon="2.01958">
        <ele>130.2</ele>
        <time>2024-03-14T15:39:07Z</time>
      </trkpt>
      <trkpt lat="48.62302" lon="2.01962">
        <ele>131.2</ele>
        <time>2024-03-14T15:39:08Z</time>
      </trkpt>
      <trkpt lat="48.62304" lon="2.01966">
        <ele>131.2</ele>
        <time>2024-03-14T15:39:09Z</time>
      </trkpt>
      <trkpt lat="48.62306" lon="2.01971">
        <ele>131.2</ele>
        <time>2024-03-14T15:39:10Z</time>
      </trkpt>
      <trkpt lat="48.62308" lon="2.01975">
        <ele>131.2</ele>
        <time>2024-03-14T15:39:11Z</time>
      </trkpt>
      <trkpt lat="48.6231" lon="2.01979">
        <ele>131.2</ele>
        <time>2024-03-14T15:39:12Z</time>
      </trkpt>
      <trkpt lat="48.62312" lon="2.01983">
        <ele>132.2</ele>
        <time>2024-03-14T15:39:13Z</time>
      </trkpt>
      <trkpt lat="48.62314" lon="2.01988">
        <ele>132.2</ele>
        <time>2024-03-14T15:39:14Z</time>
      </trkpt>
      <trkpt lat="48.62316" lon="2.01992">
        <ele>132.2</ele>
        <time>2024-03-14T15:39:15Z</time>
      </trkpt>
      <trkpt lat="48.62318" lon="2.01997">
        <ele>132.2</ele>
        <time>2024-03-14T15:39:16Z</time>
      </trkpt>
      <trkpt lat="48.6232" lon="2.02002">
        <ele>132.6</ele>
        <time>2024-03-14T15:39:17Z</time>
      </trkpt>
      <trkpt lat="48.62322" lon="2.02006">
        <ele>132.6</ele>
        <time>2024-03-14T15:39:18Z</time>
      </trkpt>
      <trkpt lat="48.62325" lon="2.02011">
        <ele>132.6</ele>
        <time>2024-03-14T15:39:19Z</time>
      </trkpt>
      <trkpt lat="48.62328" lon="2.02015">
        <ele>133</ele>
        <time>2024-03-14T15:39:20Z</time>
      </trkpt>
      <trkpt lat="48.62331" lon="2.02019">
        <ele>133.6</ele>
        <time>2024-03-14T15:39:21Z</time>
      </trkpt>
      <trkpt lat="48.62334" lon="2.02025">
        <ele>133.6</ele>
        <time>2024-03-14T15:39:22Z</time>
      </trkpt>
      <trkpt lat="48.62336" lon="2.0203">
        <ele>133.6</ele>
        <time>2024-03-14T15:39:23Z</time>
      </trkpt>
      <trkpt lat="48.62339" lon="2.02034">
        <ele>134.2</ele>
        <time>2024-03-14T15:39:24Z</time>
      </trkpt>
      <trkpt lat="48.6234" lon="2.02039">
        <ele>134.2</ele>
        <time>2024-03-14T15:39:25Z</time>
      </trkpt>
      <trkpt lat="48.62343" lon="2.02043">
        <ele>134.2</ele>
        <time>2024-03-14T15:39:26Z</time>
      </trkpt>
      <trkpt lat="48.62345" lon="2.02048">
        <ele>134.2</ele>
        <time>2024-03-14T15:39:27Z</time>
      </trkpt>
      <trkpt lat="48.62348" lon="2.02052">
        <ele>135</ele>
        <time>2024-03-14T15:39:28Z</time>
      </trkpt>
      <trkpt lat="48.6235" lon="2.02056">
        <ele>135</ele>
        <time>2024-03-14T15:39:29Z</time>
      </trkpt>
      <trkpt lat="48.62352" lon="2.0206">
        <ele>135</ele>
        <time>2024-03-14T15:39:30Z</time>
      </trkpt>
      <trkpt lat="48.62354" lon="2.02064">
        <ele>135</ele>
        <time>2024-03-14T15:39:31Z</time>
      </trkpt>
      <trkpt lat="48.62355" lon="2.02068">
        <ele>135.4</ele>
        <time>2024-03-14T15:39:32Z</time>
      </trkpt>
      <trkpt lat="48.62358" lon="2.02071">
        <ele>135.4</ele>
        <time>2024-03-14T15:39:33Z</time>
      </trkpt>
      <trkpt lat="48.6236" lon="2.02075">
        <ele>135.4</ele>
        <time>2024-03-14T15:39:34Z</time>
      </trkpt>
      <trkpt lat="48.62361" lon="2.0208">
        <ele>135.4</ele>
        <time>2024-03-14T15:39:35Z</time>
      </trkpt>
      <trkpt lat="48.62364" lon="2.02086">
        <ele>135.4</ele>
        <time>2024-03-14T15:39:36Z</time>
      </trkpt>
      <trkpt lat="48.62366" lon="2.02091">
        <ele>135.8</ele>
        <time>2024-03-14T15:39:37Z</time>
      </trkpt>
      <trkpt lat="48.62367" lon="2.02095">
        <ele>135.8</ele>
        <time>2024-03-14T15:39:38Z</time>
      </trkpt>
      <trkpt lat="48.62367" lon="2.02099">
        <ele>135.8</ele>
        <time>2024-03-14T15:39:39Z</time>
      </trkpt>
      <trkpt lat="48.62368" lon="2.02102">
        <ele>136.2</ele>
        <time>2024-03-14T15:39:40Z</time>
      </trkpt>
      <trkpt lat="48.6237" lon="2.02107">
        <ele>136.2</ele>
        <time>2024-03-14T15:39:41Z</time>
      </trkpt>
      <trkpt lat="48.62371" lon="2.02112">
        <ele>136.2</ele>
        <time>2024-03-14T15:39:42Z</time>
      </trkpt>
      <trkpt lat="48.62373" lon="2.02118">
        <ele>136.2</ele>
        <time>2024-03-14T15:39:43Z</time>
      </trkpt>
      <trkpt lat="48.62376" lon="2.02124">
        <ele>136.8</ele>
        <time>2024-03-14T15:39:44Z</time>
      </trkpt>
      <trkpt lat="48.62378" lon="2.0213">
        <ele>137.4</ele>
        <time>2024-03-14T15:39:45Z</time>
      </trkpt>
      <trkpt lat="48.6238" lon="2.02135">
        <ele>137.4</ele>
        <time>2024-03-14T15:39:46Z</time>
      </trkpt>
      <trkpt lat="48.62383" lon="2.0214">
        <ele>137.4</ele>
        <time>2024-03-14T15:39:47Z</time>
      </trkpt>
      <trkpt lat="48.62386" lon="2.02146">
        <ele>137.4</ele>
        <time>2024-03-14T15:39:48Z</time>
      </trkpt>
      <trkpt lat="48.62389" lon="2.02151">
        <ele>137.8</ele>
        <time>2024-03-14T15:39:49Z</time>
      </trkpt>
      <trkpt lat="48.62391" lon="2.02157">
        <ele>137.8</ele>
        <time>2024-03-14T15:39:50Z</time>
      </trkpt>
      <trkpt lat="48.62394" lon="2.02162">
        <ele>137.8</ele>
        <time>2024-03-14T15:39:51Z</time>
      </trkpt>
      <trkpt lat="48.62396" lon="2.02167">
        <ele>138.4</ele>
        <time>2024-03-14T15:39:52Z</time>
      </trkpt>
      <trkpt lat="48.62398" lon="2.02172">
        <ele>138.6</ele>
        <time>2024-03-14T15:39:53Z</time>
      </trkpt>
      <trkpt lat="48.62402" lon="2.02178">
        <ele>138.6</ele>
        <time>2024-03-14T15:39:54Z</time>
      </trkpt>
      <trkpt lat="48.62406" lon="2.02184">
        <ele>138.6</ele>
        <time>2024-03-14T15:39:55Z</time>
      </trkpt>
      <trkpt lat="48.6241" lon="2.0219">
        <ele>139.4</ele>
        <time>2024-03-14T15:39:56Z</time>
      </trkpt>
      <trkpt lat="48.62412" lon="2.02196">
        <ele>138.8</ele>
        <time>2024-03-14T15:39:57Z</time>
      </trkpt>
      <trkpt lat="48.62412" lon="2.02203">
        <ele>138.8</ele>
        <time>2024-03-14T15:39:58Z</time>
      </trkpt>
      <trkpt lat="48.62411" lon="2.02209">
        <ele>138.8</ele>
        <time>2024-03-14T15:39:59Z</time>
      </trkpt>
      <trkpt lat="48.62411" lon="2.02216">
        <ele>138.8</ele>
        <time>2024-03-14T15:40:00Z</time>
      </trkpt>
      <trkpt lat="48.62411" lon="2.02223">
        <ele>138</ele>
        <time>2024-03-14T15:40:01Z</time>
      </trkpt>
      <trkpt lat="48.62411" lon="2.02232">
        <ele>138</ele>
        <time>2024-03-14T15:40:02Z</time>
      </trkpt>
      <trkpt lat="48.62414" lon="2.02241">
        <ele>138</ele>
        <time>2024-03-14T15:40:03Z</time>
      </trkpt>
      <trkpt lat="48.62416" lon="2.0225">
        <ele>137</ele>
        <time>2024-03-14T15:40:04Z</time>
      </trkpt>
      <trkpt lat="48.62419" lon="2.0226">
        <ele>137</ele>
        <time>2024-03-14T15:40:05Z</time>
      </trkpt>
      <trkpt lat="48.62422" lon="2.02271">
        <ele>137</ele>
        <time>2024-03-14T15:40:06Z</time>
      </trkpt>
      <trkpt lat="48.62424" lon="2.0228">
        <ele>137</ele>
        <time>2024-03-14T15:40:07Z</time>
      </trkpt>
      <trkpt lat="48.62428" lon="2.02288">
        <ele>137</ele>
        <time>2024-03-14T15:40:08Z</time>
      </trkpt>
      <trkpt lat="48.62431" lon="2.02296">
        <ele>138.2</ele>
        <time>2024-03-14T15:40:09Z</time>
      </trkpt>
      <trkpt lat="48.62433" lon="2.02304">
        <ele>138.2</ele>
        <time>2024-03-14T15:40:10Z</time>
      </trkpt>
      <trkpt lat="48.62436" lon="2.02312">
        <ele>138.2</ele>
        <time>2024-03-14T15:40:11Z</time>
      </trkpt>
      <trkpt lat="48.62439" lon="2.02319">
        <ele>138.6</ele>
        <time>2024-03-14T15:40:12Z</time>
      </trkpt>
      <trkpt lat="48.62442" lon="2.02326">
        <ele>138.6</ele>
        <time>2024-03-14T15:40:13Z</time>
      </trkpt>
      <trkpt lat="48.62446" lon="2.02333">
        <ele>138.6</ele>
        <time>2024-03-14T15:40:14Z</time>
      </trkpt>
      <trkpt lat="48.6245" lon="2.02339">
        <ele>138.6</ele>
        <time>2024-03-14T15:40:15Z</time>
      </trkpt>
      <trkpt lat="48.62455" lon="2.02345">
        <ele>138.6</ele>
        <time>2024-03-14T15:40:16Z</time>
      </trkpt>
      <trkpt lat="48.6246" lon="2.02351">
        <ele>139.4</ele>
        <time>2024-03-14T15:40:17Z</time>
      </trkpt>
      <trkpt lat="48.62464" lon="2.02356">
        <ele>139.4</ele>
        <time>2024-03-14T15:40:18Z</time>
      </trkpt>
      <trkpt lat="48.62468" lon="2.02361">
        <ele>139.4</ele>
        <time>2024-03-14T15:40:19Z</time>
      </trkpt>
      <trkpt lat="48.62472" lon="2.02366">
        <ele>140</ele>
        <time>2024-03-14T15:40:20Z</time>
      </trkpt>
      <trkpt lat="48.62475" lon="2.02371">
        <ele>140.2</ele>
        <time>2024-03-14T15:40:21Z</time>
      </trkpt>
      <trkpt lat="48.62479" lon="2.02376">
        <ele>140.2</ele>
        <time>2024-03-14T15:40:22Z</time>
      </trkpt>
      <trkpt lat="48.62482" lon="2.0238">
        <ele>140.2</ele>
        <time>2024-03-14T15:40:23Z</time>
      </trkpt>
      <trkpt lat="48.62486" lon="2.02385">
        <ele>140.2</ele>
        <time>2024-03-14T15:40:24Z</time>
      </trkpt>
      <trkpt lat="48.6249" lon="2.02389">
        <ele>140.8</ele>
        <time>2024-03-14T15:40:25Z</time>
      </trkpt>
      <trkpt lat="48.62494" lon="2.02394">
        <ele>140.8</ele>
        <time>2024-03-14T15:40:26Z</time>
      </trkpt>
      <trkpt lat="48.62497" lon="2.02399">
        <ele>140.8</ele>
        <time>2024-03-14T15:40:27Z</time>
      </trkpt>
      <trkpt lat="48.62501" lon="2.02404">
        <ele>140.8</ele>
        <time>2024-03-14T15:40:28Z</time>
      </trkpt>
      <trkpt lat="48.62504" lon="2.02409">
        <ele>141</ele>
        <time>2024-03-14T15:40:29Z</time>
      </trkpt>
      <trkpt lat="48.62507" lon="2.02414">
        <ele>141</ele>
        <time>2024-03-14T15:40:30Z</time>
      </trkpt>
      <trkpt lat="48.6251" lon="2.02419">
        <ele>141</ele>
        <time>2024-03-14T15:40:31Z</time>
      </trkpt>
      <trkpt lat="48.62512" lon="2.02425">
        <ele>142</ele>
        <time>2024-03-14T15:40:32Z</time>
      </trkpt>
      <trkpt lat="48.62515" lon="2.0243">
        <ele>142.4</ele>
        <time>2024-03-14T15:40:33Z</time>
      </trkpt>
      <trkpt lat="48.62518" lon="2.02436">
        <ele>142.4</ele>
        <time>2024-03-14T15:40:34Z</time>
      </trkpt>
      <trkpt lat="48.62521" lon="2.02441">
        <ele>142.4</ele>
        <time>2024-03-14T15:40:35Z</time>
      </trkpt>
      <trkpt lat="48.62524" lon="2.02447">
        <ele>142.2</ele>
        <time>2024-03-14T15:40:36Z</time>
      </trkpt>
      <trkpt lat="48.62526" lon="2.02453">
        <ele>142.6</ele>
        <time>2024-03-14T15:40:37Z</time>
      </trkpt>
      <trkpt lat="48.62529" lon="2.02459">
        <ele>142.6</ele>
        <time>2024-03-14T15:40:38Z</time>
      </trkpt>
      <trkpt lat="48.62531" lon="2.02465">
        <ele>142.6</ele>
        <time>2024-03-14T15:40:39Z</time>
      </trkpt>
      <trkpt lat="48.62533" lon="2.0247">
        <ele>142.6</ele>
        <time>2024-03-14T15:40:40Z</time>
      </trkpt>
      <trkpt lat="48.62536" lon="2.02476">
        <ele>143.8</ele>
        <time>2024-03-14T15:40:41Z</time>
      </trkpt>
      <trkpt lat="48.62537" lon="2.02482">
        <ele>143.8</ele>
        <time>2024-03-14T15:40:42Z</time>
      </trkpt>
      <trkpt lat="48.62539" lon="2.02488">
        <ele>143.8</ele>
        <time>2024-03-14T15:40:43Z</time>
      </trkpt>
      <trkpt lat="48.6254" lon="2.02494">
        <ele>144.8</ele>
        <time>2024-03-14T15:40:44Z</time>
      </trkpt>
      <trkpt lat="48.62541" lon="2.02501">
        <ele>145</ele>
        <time>2024-03-14T15:40:45Z</time>
      </trkpt>
      <trkpt lat="48.62542" lon="2.02507">
        <ele>145</ele>
        <time>2024-03-14T15:40:46Z</time>
      </trkpt>
      <trkpt lat="48.62541" lon="2.02513">
        <ele>145</ele>
        <time>2024-03-14T15:40:47Z</time>
      </trkpt>
      <trkpt lat="48.6254" lon="2.02519">
        <ele>146</ele>
        <time>2024-03-14T15:40:48Z</time>
      </trkpt>
      <trkpt lat="48.62539" lon="2.02525">
        <ele>146.4</ele>
        <time>2024-03-14T15:40:49Z</time>
      </trkpt>
      <trkpt lat="48.62537" lon="2.0253">
        <ele>146.4</ele>
        <time>2024-03-14T15:40:50Z</time>
      </trkpt>
      <trkpt lat="48.62534" lon="2.02536">
        <ele>146.4</ele>
        <time>2024-03-14T15:40:51Z</time>
      </trkpt>
      <trkpt lat="48.62531" lon="2.02541">
        <ele>145.4</ele>
        <time>2024-03-14T15:40:52Z</time>
      </trkpt>
      <trkpt lat="48.62527" lon="2.02545">
        <ele>144</ele>
        <time>2024-03-14T15:40:53Z</time>
      </trkpt>
      <trkpt lat="48.62523" lon="2.02547">
        <ele>144</ele>
        <time>2024-03-14T15:40:54Z</time>
      </trkpt>
      <trkpt lat="48.62518" lon="2.02549">
        <ele>144</ele>
        <time>2024-03-14T15:40:55Z</time>
      </trkpt>
      <trkpt lat="48.62513" lon="2.02551">
        <ele>144</ele>
        <time>2024-03-14T15:40:56Z</time>
      </trkpt>
      <trkpt lat="48.62508" lon="2.02554">
        <ele>143.6</ele>
        <time>2024-03-14T15:40:57Z</time>
      </trkpt>
      <trkpt lat="48.62504" lon="2.02559">
        <ele>143.6</ele>
        <time>2024-03-14T15:40:58Z</time>
      </trkpt>
      <trkpt lat="48.62499" lon="2.02564">
        <ele>143.6</ele>
        <time>2024-03-14T15:40:59Z</time>
      </trkpt>
      <trkpt lat="48.62495" lon="2.02569">
        <ele>142.8</ele>
        <time>2024-03-14T15:41:00Z</time>
      </trkpt>
      <trkpt lat="48.62491" lon="2.02575">
        <ele>142.8</ele>
        <time>2024-03-14T15:41:01Z</time>
      </trkpt>
      <trkpt lat="48.62487" lon="2.0258">
        <ele>142.8</ele>
        <time>2024-03-14T15:41:02Z</time>
      </trkpt>
      <trkpt lat="48.62482" lon="2.02585">
        <ele>142.8</ele>
        <time>2024-03-14T15:41:03Z</time>
      </trkpt>
      <trkpt lat="48.62478" lon="2.0259">
        <ele>142</ele>
        <time>2024-03-14T15:41:04Z</time>
      </trkpt>
      <trkpt lat="48.62473" lon="2.02596">
        <ele>142.6</ele>
        <time>2024-03-14T15:41:05Z</time>
      </trkpt>
      <trkpt lat="48.62469" lon="2.02602">
        <ele>142.6</ele>
        <time>2024-03-14T15:41:06Z</time>
      </trkpt>
      <trkpt lat="48.62464" lon="2.02607">
        <ele>142.6</ele>
        <time>2024-03-14T15:41:07Z</time>
      </trkpt>
      <trkpt lat="48.6246" lon="2.02613">
        <ele>142.6</ele>
        <time>2024-03-14T15:41:08Z</time>
      </trkpt>
      <trkpt lat="48.62455" lon="2.02618">
        <ele>142.2</ele>
        <time>2024-03-14T15:41:09Z</time>
      </trkpt>
      <trkpt lat="48.62451" lon="2.02623">
        <ele>142.2</ele>
        <time>2024-03-14T15:41:10Z</time>
      </trkpt>
      <trkpt lat="48.62446" lon="2.02628">
        <ele>142.2</ele>
        <time>2024-03-14T15:41:11Z</time>
      </trkpt>
      <trkpt lat="48.62441" lon="2.02633">
        <ele>141.2</ele>
        <time>2024-03-14T15:41:12Z</time>
      </trkpt>
      <trkpt lat="48.62436" lon="2.02638">
        <ele>141</ele>
        <time>2024-03-14T15:41:13Z</time>
      </trkpt>
      <trkpt lat="48.62431" lon="2.02642">
        <ele>141</ele>
        <time>2024-03-14T15:41:14Z</time>
      </trkpt>
      <trkpt lat="48.62426" lon="2.02646">
        <ele>141</ele>
        <time>2024-03-14T15:41:15Z</time>
      </trkpt>
      <trkpt lat="48.62421" lon="2.02649">
        <ele>141</ele>
        <time>2024-03-14T15:41:16Z</time>
      </trkpt>
      <trkpt lat="48.62416" lon="2.02653">
        <ele>141.6</ele>
        <time>2024-03-14T15:41:17Z</time>
      </trkpt>
      <trkpt lat="48.62411" lon="2.02657">
        <ele>141.6</ele>
        <time>2024-03-14T15:41:18Z</time>
      </trkpt>
      <trkpt lat="48.62406" lon="2.02662">
        <ele>141.6</ele>
        <time>2024-03-14T15:41:19Z</time>
      </trkpt>
      <trkpt lat="48.62402" lon="2.02666">
        <ele>141.8</ele>
        <time>2024-03-14T15:41:20Z</time>
      </trkpt>
      <trkpt lat="48.62397" lon="2.02671">
        <ele>141.6</ele>
        <time>2024-03-14T15:41:21Z</time>
      </trkpt>
      <trkpt lat="48.62393" lon="2.02676">
        <ele>141.6</ele>
        <time>2024-03-14T15:41:22Z</time>
      </trkpt>
      <trkpt lat="48.62389" lon="2.0268">
        <ele>141.6</ele>
        <time>2024-03-14T15:41:23Z</time>
      </trkpt>
      <trkpt lat="48.62384" lon="2.02685">
        <ele>141.6</ele>
        <time>2024-03-14T15:41:24Z</time>
      </trkpt>
      <trkpt lat="48.62379" lon="2.02689">
        <ele>141.8</ele>
        <time>2024-03-14T15:41:25Z</time>
      </trkpt>
      <trkpt lat="48.62374" lon="2.02693">
        <ele>141.8</ele>
        <time>2024-03-14T15:41:26Z</time>
      </trkpt>
      <trkpt lat="48.62369" lon="2.02697">
        <ele>141.8</ele>
        <time>2024-03-14T15:41:27Z</time>
      </trkpt>
      <trkpt lat="48.62363" lon="2.027">
        <ele>141</ele>
        <time>2024-03-14T15:41:28Z</time>
      </trkpt>
      <trkpt lat="48.62358" lon="2.02703">
        <ele>140.2</ele>
        <time>2024-03-14T15:41:29Z</time>
      </trkpt>
      <trkpt lat="48.62352" lon="2.02703">
        <ele>140.2</ele>
        <time>2024-03-14T15:41:30Z</time>
      </trkpt>
      <trkpt lat="48.62345" lon="2.02702">
        <ele>140.2</ele>
        <time>2024-03-14T15:41:31Z</time>
      </trkpt>
      <trkpt lat="48.62339" lon="2.027">
        <ele>140.2</ele>
        <time>2024-03-14T15:41:32Z</time>
      </trkpt>
      <trkpt lat="48.62334" lon="2.02699">
        <ele>139</ele>
        <time>2024-03-14T15:41:33Z</time>
      </trkpt>
      <trkpt lat="48.62328" lon="2.02698">
        <ele>139</ele>
        <time>2024-03-14T15:41:34Z</time>
      </trkpt>
      <trkpt lat="48.62323" lon="2.027">
        <ele>139</ele>
        <time>2024-03-14T15:41:35Z</time>
      </trkpt>
      <trkpt lat="48.62318" lon="2.02703">
        <ele>138.6</ele>
        <time>2024-03-14T15:41:36Z</time>
      </trkpt>
      <trkpt lat="48.62314" lon="2.02708">
        <ele>139.2</ele>
        <time>2024-03-14T15:41:37Z</time>
      </trkpt>
      <trkpt lat="48.62312" lon="2.02714">
        <ele>139.2</ele>
        <time>2024-03-14T15:41:38Z</time>
      </trkpt>
      <trkpt lat="48.62311" lon="2.02721">
        <ele>139.2</ele>
        <time>2024-03-14T15:41:39Z</time>
      </trkpt>
      <trkpt lat="48.62312" lon="2.02726">
        <ele>140.2</ele>
        <time>2024-03-14T15:41:40Z</time>
      </trkpt>
      <trkpt lat="48.62313" lon="2.0273">
        <ele>141.8</ele>
        <time>2024-03-14T15:41:41Z</time>
      </trkpt>
      <trkpt lat="48.62312" lon="2.02732">
        <ele>141.8</ele>
        <time>2024-03-14T15:41:42Z</time>
      </trkpt>
      <trkpt lat="48.62311" lon="2.02733">
        <ele>141.8</ele>
        <time>2024-03-14T15:41:43Z</time>
      </trkpt>
      <trkpt lat="48.62311" lon="2.02735">
        <ele>141.8</ele>
        <time>2024-03-14T15:41:44Z</time>
      </trkpt>
      <trkpt lat="48.6231" lon="2.02737">
        <ele>141.6</ele>
        <time>2024-03-14T15:41:45Z</time>
      </trkpt>
      <trkpt lat="48.6231" lon="2.02741">
        <ele>141.6</ele>
        <time>2024-03-14T15:41:46Z</time>
      </trkpt>
      <trkpt lat="48.62312" lon="2.02743">
        <ele>141.6</ele>
        <time>2024-03-14T15:41:47Z</time>
      </trkpt>
      <trkpt lat="48.62315" lon="2.02742">
        <ele>141.6</ele>
        <time>2024-03-14T15:41:48Z</time>
      </trkpt>
      <trkpt lat="48.62317" lon="2.02741">
        <ele>142.2</ele>
        <time>2024-03-14T15:41:49Z</time>
      </trkpt>
      <trkpt lat="48.6232" lon="2.0274">
        <ele>142.2</ele>
        <time>2024-03-14T15:41:50Z</time>
      </trkpt>
      <trkpt lat="48.62323" lon="2.02739">
        <ele>142.2</ele>
        <time>2024-03-14T15:41:51Z</time>
      </trkpt>
      <trkpt lat="48.62326" lon="2.02738">
        <ele>142.2</ele>
        <time>2024-03-14T15:41:52Z</time>
      </trkpt>
      <trkpt lat="48.62328" lon="2.02737">
        <ele>143.2</ele>
        <time>2024-03-14T15:41:53Z</time>
      </trkpt>
      <trkpt lat="48.62331" lon="2.02736">
        <ele>143.2</ele>
        <time>2024-03-14T15:41:54Z</time>
      </trkpt>
      <trkpt lat="48.62334" lon="2.02736">
        <ele>143.2</ele>
        <time>2024-03-14T15:41:55Z</time>
      </trkpt>
      <trkpt lat="48.62337" lon="2.02736">
        <ele>144.2</ele>
        <time>2024-03-14T15:41:56Z</time>
      </trkpt>
      <trkpt lat="48.6234" lon="2.02735">
        <ele>144.4</ele>
        <time>2024-03-14T15:41:57Z</time>
      </trkpt>
      <trkpt lat="48.62342" lon="2.02735">
        <ele>144.4</ele>
        <time>2024-03-14T15:41:58Z</time>
      </trkpt>
      <trkpt lat="48.62345" lon="2.02735">
        <ele>144.4</ele>
        <time>2024-03-14T15:41:59Z</time>
      </trkpt>
      <trkpt lat="48.62348" lon="2.02735">
        <ele>144.4</ele>
        <time>2024-03-14T15:42:00Z</time>
      </trkpt>
      <trkpt lat="48.62351" lon="2.02735">
        <ele>144.8</ele>
        <time>2024-03-14T15:42:01Z</time>
      </trkpt>
      <trkpt lat="48.62353" lon="2.02735">
        <ele>144.8</ele>
        <time>2024-03-14T15:42:02Z</time>
      </trkpt>
      <trkpt lat="48.62356" lon="2.02735">
        <ele>144.8</ele>
        <time>2024-03-14T15:42:03Z</time>
      </trkpt>
      <trkpt lat="48.62359" lon="2.02735">
        <ele>144.8</ele>
        <time>2024-03-14T15:42:04Z</time>
      </trkpt>
      <trkpt lat="48.62362" lon="2.02735">
        <ele>145.6</ele>
        <time>2024-03-14T15:42:05Z</time>
      </trkpt>
      <trkpt lat="48.62365" lon="2.02735">
        <ele>145.6</ele>
        <time>2024-03-14T15:42:06Z</time>
      </trkpt>
      <trkpt lat="48.62368" lon="2.02735">
        <ele>145.6</ele>
        <time>2024-03-14T15:42:07Z</time>
      </trkpt>
      <trkpt lat="48.62371" lon="2.02736">
        <ele>145.6</ele>
        <time>2024-03-14T15:42:08Z</time>
      </trkpt>
      <trkpt lat="48.62373" lon="2.02736">
        <ele>146.2</ele>
        <time>2024-03-14T15:42:09Z</time>
      </trkpt>
      <trkpt lat="48.62376" lon="2.02736">
        <ele>146.2</ele>
        <time>2024-03-14T15:42:10Z</time>
      </trkpt>
      <trkpt lat="48.62379" lon="2.02736">
        <ele>146.2</ele>
        <time>2024-03-14T15:42:11Z</time>
      </trkpt>
      <trkpt lat="48.62382" lon="2.02736">
        <ele>146.4</ele>
        <time>2024-03-14T15:42:12Z</time>
      </trkpt>
      <trkpt lat="48.62385" lon="2.02736">
        <ele>146.8</ele>
        <time>2024-03-14T15:42:13Z</time>
      </trkpt>
      <trkpt lat="48.62388" lon="2.02736">
        <ele>146.8</ele>
        <time>2024-03-14T15:42:14Z</time>
      </trkpt>
      <trkpt lat="48.62391" lon="2.02736">
        <ele>146.8</ele>
        <time>2024-03-14T15:42:15Z</time>
      </trkpt>
      <trkpt lat="48.62394" lon="2.02736">
        <ele>146.8</ele>
        <time>2024-03-14T15:42:16Z</time>
      </trkpt>
      <trkpt lat="48.62398" lon="2.02736">
        <ele>147.4</ele>
        <time>2024-03-14T15:42:17Z</time>
      </trkpt>
      <trkpt lat="48.62401" lon="2.02736">
        <ele>147.4</ele>
        <time>2024-03-14T15:42:18Z</time>
      </trkpt>
      <trkpt lat="48.62403" lon="2.02736">
        <ele>147.4</ele>
        <time>2024-03-14T15:42:19Z</time>
      </trkpt>
      <trkpt lat="48.62406" lon="2.02735">
        <ele>147.4</ele>
        <time>2024-03-14T15:42:20Z</time>
      </trkpt>
      <trkpt lat="48.62409" lon="2.02736">
        <ele>147.6</ele>
        <time>2024-03-14T15:42:21Z</time>
      </trkpt>
      <trkpt lat="48.62411" lon="2.02735">
        <ele>147.6</ele>
        <time>2024-03-14T15:42:22Z</time>
      </trkpt>
      <trkpt lat="48.62414" lon="2.02735">
        <ele>147.6</ele>
        <time>2024-03-14T15:42:23Z</time>
      </trkpt>
      <trkpt lat="48.62416" lon="2.02735">
        <ele>148.6</ele>
        <time>2024-03-14T15:42:24Z</time>
      </trkpt>
      <trkpt lat="48.62419" lon="2.02735">
        <ele>148.6</ele>
        <time>2024-03-14T15:42:25Z</time>
      </trkpt>
      <trkpt lat="48.62422" lon="2.02735">
        <ele>148.6</ele>
        <time>2024-03-14T15:42:26Z</time>
      </trkpt>
      <trkpt lat="48.62424" lon="2.02735">
        <ele>148.6</ele>
        <time>2024-03-14T15:42:27Z</time>
      </trkpt>
      <trkpt lat="48.62427" lon="2.02735">
        <ele>149</ele>
        <time>2024-03-14T15:42:28Z</time>
      </trkpt>
      <trkpt lat="48.62429" lon="2.02737">
        <ele>148.8</ele>
        <time>2024-03-14T15:42:29Z</time>
      </trkpt>
      <trkpt lat="48.62431" lon="2.02737">
        <ele>148.8</ele>
        <time>2024-03-14T15:42:30Z</time>
      </trkpt>
      <trkpt lat="48.62434" lon="2.02738">
        <ele>148.8</ele>
        <time>2024-03-14T15:42:31Z</time>
      </trkpt>
      <trkpt lat="48.62436" lon="2.02738">
        <ele>149.6</ele>
        <time>2024-03-14T15:42:32Z</time>
      </trkpt>
      <trkpt lat="48.62438" lon="2.02738">
        <ele>150.4</ele>
        <time>2024-03-14T15:42:33Z</time>
      </trkpt>
      <trkpt lat="48.62441" lon="2.02739">
        <ele>150.4</ele>
        <time>2024-03-14T15:42:34Z</time>
      </trkpt>
      <trkpt lat="48.62444" lon="2.02739">
        <ele>150.4</ele>
        <time>2024-03-14T15:42:35Z</time>
      </trkpt>
      <trkpt lat="48.62446" lon="2.02739">
        <ele>150.4</ele>
        <time>2024-03-14T15:42:36Z</time>
      </trkpt>
      <trkpt lat="48.62449" lon="2.02739">
        <ele>150.6</ele>
        <time>2024-03-14T15:42:37Z</time>
      </trkpt>
      <trkpt lat="48.62451" lon="2.02739">
        <ele>150.6</ele>
        <time>2024-03-14T15:42:38Z</time>
      </trkpt>
      <trkpt lat="48.62454" lon="2.02738">
        <ele>150.6</ele>
        <time>2024-03-14T15:42:39Z</time>
      </trkpt>
      <trkpt lat="48.62456" lon="2.02737">
        <ele>151.6</ele>
        <time>2024-03-14T15:42:40Z</time>
      </trkpt>
      <trkpt lat="48.62459" lon="2.02737">
        <ele>152.6</ele>
        <time>2024-03-14T15:42:41Z</time>
      </trkpt>
      <trkpt lat="48.62462" lon="2.02738">
        <ele>152.6</ele>
        <time>2024-03-14T15:42:42Z</time>
      </trkpt>
      <trkpt lat="48.62465" lon="2.02738">
        <ele>152.6</ele>
        <time>2024-03-14T15:42:43Z</time>
      </trkpt>
      <trkpt lat="48.62468" lon="2.02739">
        <ele>152.6</ele>
        <time>2024-03-14T15:42:44Z</time>
      </trkpt>
      <trkpt lat="48.6247" lon="2.02739">
        <ele>153.4</ele>
        <time>2024-03-14T15:42:45Z</time>
      </trkpt>
      <trkpt lat="48.62474" lon="2.0274">
        <ele>153.4</ele>
        <time>2024-03-14T15:42:46Z</time>
      </trkpt>
      <trkpt lat="48.62478" lon="2.02741">
        <ele>153.4</ele>
        <time>2024-03-14T15:42:47Z</time>
      </trkpt>
      <trkpt lat="48.62481" lon="2.02741">
        <ele>154.4</ele>
        <time>2024-03-14T15:42:48Z</time>
      </trkpt>
      <trkpt lat="48.62484" lon="2.02741">
        <ele>155</ele>
        <time>2024-03-14T15:42:49Z</time>
      </trkpt>
      <trkpt lat="48.62486" lon="2.02742">
        <ele>155</ele>
        <time>2024-03-14T15:42:50Z</time>
      </trkpt>
      <trkpt lat="48.62489" lon="2.02742">
        <ele>155</ele>
        <time>2024-03-14T15:42:51Z</time>
      </trkpt>
      <trkpt lat="48.62492" lon="2.02742">
        <ele>155</ele>
        <time>2024-03-14T15:42:52Z</time>
      </trkpt>
      <trkpt lat="48.62495" lon="2.02742">
        <ele>155.8</ele>
        <time>2024-03-14T15:42:53Z</time>
      </trkpt>
      <trkpt lat="48.62498" lon="2.02743">
        <ele>155.8</ele>
        <time>2024-03-14T15:42:54Z</time>
      </trkpt>
      <trkpt lat="48.625" lon="2.02743">
        <ele>155.8</ele>
        <time>2024-03-14T15:42:55Z</time>
      </trkpt>
      <trkpt lat="48.62503" lon="2.02743">
        <ele>156.6</ele>
        <time>2024-03-14T15:42:56Z</time>
      </trkpt>
      <trkpt lat="48.62506" lon="2.02744">
        <ele>156.4</ele>
        <time>2024-03-14T15:42:57Z</time>
      </trkpt>
      <trkpt lat="48.6251" lon="2.02744">
        <ele>156.4</ele>
        <time>2024-03-14T15:42:58Z</time>
      </trkpt>
      <trkpt lat="48.62513" lon="2.02744">
        <ele>156.4</ele>
        <time>2024-03-14T15:42:59Z</time>
      </trkpt>
      <trkpt lat="48.62516" lon="2.02744">
        <ele>157.4</ele>
        <time>2024-03-14T15:43:00Z</time>
      </trkpt>
      <trkpt lat="48.62519" lon="2.02745">
        <ele>157.8</ele>
        <time>2024-03-14T15:43:01Z</time>
      </trkpt>
      <trkpt lat="48.62522" lon="2.02745">
        <ele>157.8</ele>
        <time>2024-03-14T15:43:02Z</time>
      </trkpt>
      <trkpt lat="48.62525" lon="2.02746">
        <ele>157.8</ele>
        <time>2024-03-14T15:43:03Z</time>
      </trkpt>
      <trkpt lat="48.62529" lon="2.02747">
        <ele>158.6</ele>
        <time>2024-03-14T15:43:04Z</time>
      </trkpt>
      <trkpt lat="48.62531" lon="2.02747">
        <ele>159.2</ele>
        <time>2024-03-14T15:43:05Z</time>
      </trkpt>
      <trkpt lat="48.62534" lon="2.02749">
        <ele>159.2</ele>
        <time>2024-03-14T15:43:06Z</time>
      </trkpt>
      <trkpt lat="48.62538" lon="2.0275">
        <ele>159.2</ele>
        <time>2024-03-14T15:43:07Z</time>
      </trkpt>
      <trkpt lat="48.62541" lon="2.02751">
        <ele>160.2</ele>
        <time>2024-03-14T15:43:08Z</time>
      </trkpt>
      <trkpt lat="48.62544" lon="2.02753">
        <ele>160.4</ele>
        <time>2024-03-14T15:43:09Z</time>
      </trkpt>
      <trkpt lat="48.62547" lon="2.02755">
        <ele>160.4</ele>
        <time>2024-03-14T15:43:10Z</time>
      </trkpt>
      <trkpt lat="48.6255" lon="2.02757">
        <ele>160.4</ele>
        <time>2024-03-14T15:43:11Z</time>
      </trkpt>
      <trkpt lat="48.62553" lon="2.02758">
        <ele>161.4</ele>
        <time>2024-03-14T15:43:12Z</time>
      </trkpt>
      <trkpt lat="48.62557" lon="2.0276">
        <ele>161.8</ele>
        <time>2024-03-14T15:43:13Z</time>
      </trkpt>
      <trkpt lat="48.6256" lon="2.02762">
        <ele>161.8</ele>
        <time>2024-03-14T15:43:14Z</time>
      </trkpt>
      <trkpt lat="48.62563" lon="2.02763">
        <ele>161.8</ele>
        <time>2024-03-14T15:43:15Z</time>
      </trkpt>
      <trkpt lat="48.62566" lon="2.02765">
        <ele>162.8</ele>
        <time>2024-03-14T15:43:16Z</time>
      </trkpt>
      <trkpt lat="48.6257" lon="2.02766">
        <ele>162.6</ele>
        <time>2024-03-14T15:43:17Z</time>
      </trkpt>
      <trkpt lat="48.62573" lon="2.02768">
        <ele>162.6</ele>
        <time>2024-03-14T15:43:18Z</time>
      </trkpt>
      <trkpt lat="48.62576" lon="2.02769">
        <ele>162.6</ele>
        <time>2024-03-14T15:43:19Z</time>
      </trkpt>
      <trkpt lat="48.62579" lon="2.02771">
        <ele>162.6</ele>
        <time>2024-03-14T15:43:20Z</time>
      </trkpt>
      <trkpt lat="48.62581" lon="2.02772">
        <ele>162.8</ele>
        <time>2024-03-14T15:43:21Z</time>
      </trkpt>
      <trkpt lat="48.62584" lon="2.02773">
        <ele>162.8</ele>
        <time>2024-03-14T15:43:22Z</time>
      </trkpt>
      <trkpt lat="48.62587" lon="2.02775">
        <ele>162.8</ele>
        <time>2024-03-14T15:43:23Z</time>
      </trkpt>
      <trkpt lat="48.6259" lon="2.02777">
        <ele>162</ele>
        <time>2024-03-14T15:43:24Z</time>
      </trkpt>
      <trkpt lat="48.62595" lon="2.02779">
        <ele>161.8</ele>
        <time>2024-03-14T15:43:25Z</time>
      </trkpt>
      <trkpt lat="48.62599" lon="2.02781">
        <ele>161.8</ele>
        <time>2024-03-14T15:43:26Z</time>
      </trkpt>
      <trkpt lat="48.62604" lon="2.02783">
        <ele>161.8</ele>
        <time>2024-03-14T15:43:27Z</time>
      </trkpt>
      <trkpt lat="48.62609" lon="2.02784">
        <ele>161.6</ele>
        <time>2024-03-14T15:43:28Z</time>
      </trkpt>
      <trkpt lat="48.62614" lon="2.02785">
        <ele>160.8</ele>
        <time>2024-03-14T15:43:29Z</time>
      </trkpt>
      <trkpt lat="48.6262" lon="2.02785">
        <ele>160.8</ele>
        <time>2024-03-14T15:43:30Z</time>
      </trkpt>
      <trkpt lat="48.62625" lon="2.02785">
        <ele>160.8</ele>
        <time>2024-03-14T15:43:31Z</time>
      </trkpt>
      <trkpt lat="48.6263" lon="2.02784">
        <ele>160.8</ele>
        <time>2024-03-14T15:43:32Z</time>
      </trkpt>
      <trkpt lat="48.62636" lon="2.02784">
        <ele>160.4</ele>
        <time>2024-03-14T15:43:33Z</time>
      </trkpt>
      <trkpt lat="48.62641" lon="2.02783">
        <ele>160.4</ele>
        <time>2024-03-14T15:43:34Z</time>
      </trkpt>
      <trkpt lat="48.62647" lon="2.02782">
        <ele>160.4</ele>
        <time>2024-03-14T15:43:35Z</time>
      </trkpt>
      <trkpt lat="48.62653" lon="2.0278">
        <ele>159.8</ele>
        <time>2024-03-14T15:43:36Z</time>
      </trkpt>
      <trkpt lat="48.62659" lon="2.02777">
        <ele>159.6</ele>
        <time>2024-03-14T15:43:37Z</time>
      </trkpt>
      <trkpt lat="48.62665" lon="2.02775">
        <ele>159.6</ele>
        <time>2024-03-14T15:43:38Z</time>
      </trkpt>
      <trkpt lat="48.62672" lon="2.02773">
        <ele>159.6</ele>
        <time>2024-03-14T15:43:39Z</time>
      </trkpt>
      <trkpt lat="48.62679" lon="2.02771">
        <ele>159.6</ele>
        <time>2024-03-14T15:43:40Z</time>
      </trkpt>
      <trkpt lat="48.62686" lon="2.02769">
        <ele>159.4</ele>
        <time>2024-03-14T15:43:41Z</time>
      </trkpt>
      <trkpt lat="48.62693" lon="2.02767">
        <ele>159.4</ele>
        <time>2024-03-14T15:43:42Z</time>
      </trkpt>
      <trkpt lat="48.62699" lon="2.02766">
        <ele>159.4</ele>
        <time>2024-03-14T15:43:43Z</time>
      </trkpt>
      <trkpt lat="48.62706" lon="2.02764">
        <ele>158.8</ele>
        <time>2024-03-14T15:43:44Z</time>
      </trkpt>
      <trkpt lat="48.62712" lon="2.02762">
        <ele>159.4</ele>
        <time>2024-03-14T15:43:45Z</time>
      </trkpt>
      <trkpt lat="48.62719" lon="2.0276">
        <ele>159.4</ele>
        <time>2024-03-14T15:43:46Z</time>
      </trkpt>
      <trkpt lat="48.62725" lon="2.02758">
        <ele>159.4</ele>
        <time>2024-03-14T15:43:47Z</time>
      </trkpt>
      <trkpt lat="48.6273" lon="2.02755">
        <ele>159.2</ele>
        <time>2024-03-14T15:43:48Z</time>
      </trkpt>
      <trkpt lat="48.62735" lon="2.02752">
        <ele>159</ele>
        <time>2024-03-14T15:43:49Z</time>
      </trkpt>
      <trkpt lat="48.6274" lon="2.02747">
        <ele>159</ele>
        <time>2024-03-14T15:43:50Z</time>
      </trkpt>
      <trkpt lat="48.62744" lon="2.02742">
        <ele>159</ele>
        <time>2024-03-14T15:43:51Z</time>
      </trkpt>
      <trkpt lat="48.62747" lon="2.02736">
        <ele>159</ele>
        <time>2024-03-14T15:43:52Z</time>
      </trkpt>
      <trkpt lat="48.62748" lon="2.02731">
        <ele>160</ele>
        <time>2024-03-14T15:43:53Z</time>
      </trkpt>
      <trkpt lat="48.6275" lon="2.02724">
        <ele>160</ele>
        <time>2024-03-14T15:43:54Z</time>
      </trkpt>
      <trkpt lat="48.62751" lon="2.02718">
        <ele>160</ele>
        <time>2024-03-14T15:43:55Z</time>
      </trkpt>
      <trkpt lat="48.62751" lon="2.02713">
        <ele>160</ele>
        <time>2024-03-14T15:43:56Z</time>
      </trkpt>
      <trkpt lat="48.62752" lon="2.02707">
        <ele>160.2</ele>
        <time>2024-03-14T15:43:57Z</time>
      </trkpt>
      <trkpt lat="48.62752" lon="2.02702">
        <ele>160.2</ele>
        <time>2024-03-14T15:43:58Z</time>
      </trkpt>
      <trkpt lat="48.62752" lon="2.02697">
        <ele>160.2</ele>
        <time>2024-03-14T15:43:59Z</time>
      </trkpt>
      <trkpt lat="48.62751" lon="2.02693">
        <ele>160.2</ele>
        <time>2024-03-14T15:44:00Z</time>
      </trkpt>
      <trkpt lat="48.62751" lon="2.02688">
        <ele>160.6</ele>
        <time>2024-03-14T15:44:01Z</time>
      </trkpt>
      <trkpt lat="48.6275" lon="2.02685">
        <ele>160.6</ele>
        <time>2024-03-14T15:44:02Z</time>
      </trkpt>
      <trkpt lat="48.6275" lon="2.0268">
        <ele>160.6</ele>
        <time>2024-03-14T15:44:03Z</time>
      </trkpt>
      <trkpt lat="48.6275" lon="2.02675">
        <ele>161</ele>
        <time>2024-03-14T15:44:04Z</time>
      </trkpt>
      <trkpt lat="48.6275" lon="2.02669">
        <ele>161.6</ele>
        <time>2024-03-14T15:44:05Z</time>
      </trkpt>
      <trkpt lat="48.6275" lon="2.02664">
        <ele>161.6</ele>
        <time>2024-03-14T15:44:06Z</time>
      </trkpt>
      <trkpt lat="48.6275" lon="2.02658">
        <ele>161.6</ele>
        <time>2024-03-14T15:44:07Z</time>
      </trkpt>
      <trkpt lat="48.62752" lon="2.02654">
        <ele>162.6</ele>
        <time>2024-03-14T15:44:08Z</time>
      </trkpt>
      <trkpt lat="48.62753" lon="2.02648">
        <ele>163.2</ele>
        <time>2024-03-14T15:44:09Z</time>
      </trkpt>
      <trkpt lat="48.62755" lon="2.02642">
        <ele>163.2</ele>
        <time>2024-03-14T15:44:10Z</time>
      </trkpt>
      <trkpt lat="48.62757" lon="2.02637">
        <ele>163.2</ele>
        <time>2024-03-14T15:44:11Z</time>
      </trkpt>
      <trkpt lat="48.62759" lon="2.0263">
        <ele>163.2</ele>
        <time>2024-03-14T15:44:12Z</time>
      </trkpt>
      <trkpt lat="48.62762" lon="2.02625">
        <ele>164.2</ele>
        <time>2024-03-14T15:44:13Z</time>
      </trkpt>
      <trkpt lat="48.62765" lon="2.02621">
        <ele>164.2</ele>
        <time>2024-03-14T15:44:14Z</time>
      </trkpt>
      <trkpt lat="48.62768" lon="2.02617">
        <ele>164.2</ele>
        <time>2024-03-14T15:44:15Z</time>
      </trkpt>
      <trkpt lat="48.62772" lon="2.02613">
        <ele>164.4</ele>
        <time>2024-03-14T15:44:16Z</time>
      </trkpt>
      <trkpt lat="48.62775" lon="2.02609">
        <ele>164.2</ele>
        <time>2024-03-14T15:44:17Z</time>
      </trkpt>
      <trkpt lat="48.62778" lon="2.02605">
        <ele>164.2</ele>
        <time>2024-03-14T15:44:18Z</time>
      </trkpt>
      <trkpt lat="48.62782" lon="2.02601">
        <ele>164.2</ele>
        <time>2024-03-14T15:44:19Z</time>
      </trkpt>
      <trkpt lat="48.62785" lon="2.02597">
        <ele>164.2</ele>
        <time>2024-03-14T15:44:20Z</time>
      </trkpt>
      <trkpt lat="48.62789" lon="2.02593">
        <ele>164.4</ele>
        <time>2024-03-14T15:44:21Z</time>
      </trkpt>
      <trkpt lat="48.62792" lon="2.02588">
        <ele>164.4</ele>
        <time>2024-03-14T15:44:22Z</time>
      </trkpt>
      <trkpt lat="48.62796" lon="2.02583">
        <ele>164.4</ele>
        <time>2024-03-14T15:44:23Z</time>
      </trkpt>
      <trkpt lat="48.62799" lon="2.02578">
        <ele>164.8</ele>
        <time>2024-03-14T15:44:24Z</time>
      </trkpt>
      <trkpt lat="48.62803" lon="2.02574">
        <ele>165.2</ele>
        <time>2024-03-14T15:44:25Z</time>
      </trkpt>
      <trkpt lat="48.62807" lon="2.02569">
        <ele>165.2</ele>
        <time>2024-03-14T15:44:26Z</time>
      </trkpt>
      <trkpt lat="48.62811" lon="2.02564">
        <ele>165.2</ele>
        <time>2024-03-14T15:44:27Z</time>
      </trkpt>
      <trkpt lat="48.62814" lon="2.02559">
        <ele>165.2</ele>
        <time>2024-03-14T15:44:28Z</time>
      </trkpt>
      <trkpt lat="48.62818" lon="2.02553">
        <ele>165.8</ele>
        <time>2024-03-14T15:44:29Z</time>
      </trkpt>
      <trkpt lat="48.62822" lon="2.02547">
        <ele>165.8</ele>
        <time>2024-03-14T15:44:30Z</time>
      </trkpt>
      <trkpt lat="48.62826" lon="2.02542">
        <ele>165.8</ele>
        <time>2024-03-14T15:44:31Z</time>
      </trkpt>
      <trkpt lat="48.6283" lon="2.02537">
        <ele>165.8</ele>
        <time>2024-03-14T15:44:32Z</time>
      </trkpt>
      <trkpt lat="48.62833" lon="2.02531">
        <ele>166.2</ele>
        <time>2024-03-14T15:44:33Z</time>
      </trkpt>
      <trkpt lat="48.62837" lon="2.02526">
        <ele>166.2</ele>
        <time>2024-03-14T15:44:34Z</time>
      </trkpt>
      <trkpt lat="48.6284" lon="2.02522">
        <ele>166.2</ele>
        <time>2024-03-14T15:44:35Z</time>
      </trkpt>
      <trkpt lat="48.62844" lon="2.02518">
        <ele>166.4</ele>
        <time>2024-03-14T15:44:36Z</time>
      </trkpt>
      <trkpt lat="48.62847" lon="2.02514">
        <ele>165.8</ele>
        <time>2024-03-14T15:44:37Z</time>
      </trkpt>
      <trkpt lat="48.62851" lon="2.0251">
        <ele>165.8</ele>
        <time>2024-03-14T15:44:38Z</time>
      </trkpt>
      <trkpt lat="48.62854" lon="2.02505">
        <ele>165.8</ele>
        <time>2024-03-14T15:44:39Z</time>
      </trkpt>
      <trkpt lat="48.62857" lon="2.025">
        <ele>166</ele>
        <time>2024-03-14T15:44:40Z</time>
      </trkpt>
      <trkpt lat="48.62861" lon="2.02496">
        <ele>166.8</ele>
        <time>2024-03-14T15:44:41Z</time>
      </trkpt>
      <trkpt lat="48.62864" lon="2.02491">
        <ele>166.8</ele>
        <time>2024-03-14T15:44:42Z</time>
      </trkpt>
      <trkpt lat="48.62867" lon="2.02487">
        <ele>166.8</ele>
        <time>2024-03-14T15:44:43Z</time>
      </trkpt>
      <trkpt lat="48.62871" lon="2.02482">
        <ele>166.8</ele>
        <time>2024-03-14T15:44:44Z</time>
      </trkpt>
      <trkpt lat="48.62874" lon="2.02478">
        <ele>167.4</ele>
        <time>2024-03-14T15:44:45Z</time>
      </trkpt>
      <trkpt lat="48.62877" lon="2.02473">
        <ele>167.4</ele>
        <time>2024-03-14T15:44:46Z</time>
      </trkpt>
      <trkpt lat="48.6288" lon="2.02468">
        <ele>167.4</ele>
        <time>2024-03-14T15:44:47Z</time>
      </trkpt>
      <trkpt lat="48.62883" lon="2.02462">
        <ele>167.8</ele>
        <time>2024-03-14T15:44:48Z</time>
      </trkpt>
      <trkpt lat="48.62885" lon="2.02457">
        <ele>168.4</ele>
        <time>2024-03-14T15:44:49Z</time>
      </trkpt>
      <trkpt lat="48.62887" lon="2.02451">
        <ele>168.4</ele>
        <time>2024-03-14T15:44:50Z</time>
      </trkpt>
      <trkpt lat="48.62889" lon="2.02446">
        <ele>168.4</ele>
        <time>2024-03-14T15:44:51Z</time>
      </trkpt>
      <trkpt lat="48.62891" lon="2.0244">
        <ele>169.4</ele>
        <time>2024-03-14T15:44:52Z</time>
      </trkpt>
      <trkpt lat="48.62892" lon="2.02434">
        <ele>170</ele>
        <time>2024-03-14T15:44:53Z</time>
      </trkpt>
      <trkpt lat="48.62893" lon="2.02428">
        <ele>170</ele>
        <time>2024-03-14T15:44:54Z</time>
      </trkpt>
      <trkpt lat="48.62895" lon="2.02422">
        <ele>170</ele>
        <time>2024-03-14T15:44:55Z</time>
      </trkpt>
      <trkpt lat="48.62896" lon="2.02416">
        <ele>171</ele>
        <time>2024-03-14T15:44:56Z</time>
      </trkpt>
      <trkpt lat="48.62897" lon="2.02409">
        <ele>171.6</ele>
        <time>2024-03-14T15:44:57Z</time>
      </trkpt>
      <trkpt lat="48.62898" lon="2.02401">
        <ele>171.6</ele>
        <time>2024-03-14T15:44:58Z</time>
      </trkpt>
      <trkpt lat="48.62899" lon="2.02393">
        <ele>171.6</ele>
        <time>2024-03-14T15:44:59Z</time>
      </trkpt>
      <trkpt lat="48.629" lon="2.02386">
        <ele>171.6</ele>
        <time>2024-03-14T15:45:00Z</time>
      </trkpt>
      <trkpt lat="48.62901" lon="2.02378">
        <ele>171.8</ele>
        <time>2024-03-14T15:45:01Z</time>
      </trkpt>
      <trkpt lat="48.62902" lon="2.02372">
        <ele>171.8</ele>
        <time>2024-03-14T15:45:02Z</time>
      </trkpt>
      <trkpt lat="48.62903" lon="2.02365">
        <ele>171.8</ele>
        <time>2024-03-14T15:45:03Z</time>
      </trkpt>
      <trkpt lat="48.62904" lon="2.02358">
        <ele>172.8</ele>
        <time>2024-03-14T15:45:04Z</time>
      </trkpt>
      <trkpt lat="48.62905" lon="2.02351">
        <ele>173</ele>
        <time>2024-03-14T15:45:05Z</time>
      </trkpt>
      <trkpt lat="48.62906" lon="2.02345">
        <ele>173</ele>
        <time>2024-03-14T15:45:06Z</time>
      </trkpt>
      <trkpt lat="48.62907" lon="2.02338">
        <ele>173</ele>
        <time>2024-03-14T15:45:07Z</time>
      </trkpt>
      <trkpt lat="48.62908" lon="2.02332">
        <ele>173.6</ele>
        <time>2024-03-14T15:45:08Z</time>
      </trkpt>
      <trkpt lat="48.62909" lon="2.02325">
        <ele>173.6</ele>
        <time>2024-03-14T15:45:09Z</time>
      </trkpt>
      <trkpt lat="48.6291" lon="2.02318">
        <ele>173.6</ele>
        <time>2024-03-14T15:45:10Z</time>
      </trkpt>
      <trkpt lat="48.6291" lon="2.02312">
        <ele>173.6</ele>
        <time>2024-03-14T15:45:11Z</time>
      </trkpt>
      <trkpt lat="48.62911" lon="2.02305">
        <ele>173.6</ele>
        <time>2024-03-14T15:45:12Z</time>
      </trkpt>
      <trkpt lat="48.62912" lon="2.02298">
        <ele>174</ele>
        <time>2024-03-14T15:45:13Z</time>
      </trkpt>
      <trkpt lat="48.62913" lon="2.02292">
        <ele>174</ele>
        <time>2024-03-14T15:45:14Z</time>
      </trkpt>
      <trkpt lat="48.62913" lon="2.02284">
        <ele>174</ele>
        <time>2024-03-14T15:45:15Z</time>
      </trkpt>
      <trkpt lat="48.62914" lon="2.02277">
        <ele>175</ele>
        <time>2024-03-14T15:45:16Z</time>
      </trkpt>
      <trkpt lat="48.62915" lon="2.0227">
        <ele>175.6</ele>
        <time>2024-03-14T15:45:17Z</time>
      </trkpt>
      <trkpt lat="48.62916" lon="2.02263">
        <ele>175.6</ele>
        <time>2024-03-14T15:45:18Z</time>
      </trkpt>
      <trkpt lat="48.62917" lon="2.02255">
        <ele>175.6</ele>
        <time>2024-03-14T15:45:19Z</time>
      </trkpt>
      <trkpt lat="48.62918" lon="2.02248">
        <ele>175.6</ele>
        <time>2024-03-14T15:45:20Z</time>
      </trkpt>
      <trkpt lat="48.62919" lon="2.02241">
        <ele>175.2</ele>
        <time>2024-03-14T15:45:21Z</time>
      </trkpt>
      <trkpt lat="48.6292" lon="2.02234">
        <ele>175.2</ele>
        <time>2024-03-14T15:45:22Z</time>
      </trkpt>
      <trkpt lat="48.62921" lon="2.02227">
        <ele>175.2</ele>
        <time>2024-03-14T15:45:23Z</time>
      </trkpt>
      <trkpt lat="48.62922" lon="2.02219">
        <ele>175.8</ele>
        <time>2024-03-14T15:45:24Z</time>
      </trkpt>
      <trkpt lat="48.62923" lon="2.02212">
        <ele>176.8</ele>
        <time>2024-03-14T15:45:25Z</time>
      </trkpt>
      <trkpt lat="48.62924" lon="2.02205">
        <ele>176.8</ele>
        <time>2024-03-14T15:45:26Z</time>
      </trkpt>
      <trkpt lat="48.62925" lon="2.02197">
        <ele>176.8</ele>
        <time>2024-03-14T15:45:27Z</time>
      </trkpt>
      <trkpt lat="48.62926" lon="2.0219">
        <ele>175.8</ele>
        <time>2024-03-14T15:45:28Z</time>
      </trkpt>
      <trkpt lat="48.62927" lon="2.02182">
        <ele>175.6</ele>
        <time>2024-03-14T15:45:29Z</time>
      </trkpt>
      <trkpt lat="48.62928" lon="2.02174">
        <ele>175.6</ele>
        <time>2024-03-14T15:45:30Z</time>
      </trkpt>
      <trkpt lat="48.62929" lon="2.02167">
        <ele>175.6</ele>
        <time>2024-03-14T15:45:31Z</time>
      </trkpt>
      <trkpt lat="48.6293" lon="2.02159">
        <ele>176.6</ele>
        <time>2024-03-14T15:45:32Z</time>
      </trkpt>
      <trkpt lat="48.62931" lon="2.02151">
        <ele>177</ele>
        <time>2024-03-14T15:45:33Z</time>
      </trkpt>
      <trkpt lat="48.62932" lon="2.02144">
        <ele>177</ele>
        <time>2024-03-14T15:45:34Z</time>
      </trkpt>
      <trkpt lat="48.62933" lon="2.02136">
        <ele>177</ele>
        <time>2024-03-14T15:45:35Z</time>
      </trkpt>
      <trkpt lat="48.62934" lon="2.02128">
        <ele>176.2</ele>
        <time>2024-03-14T15:45:36Z</time>
      </trkpt>
      <trkpt lat="48.62935" lon="2.02121">
        <ele>176.6</ele>
        <time>2024-03-14T15:45:37Z</time>
      </trkpt>
      <trkpt lat="48.62936" lon="2.02113">
        <ele>176.6</ele>
        <time>2024-03-14T15:45:38Z</time>
      </trkpt>
      <trkpt lat="48.62937" lon="2.02105">
        <ele>176.6</ele>
        <time>2024-03-14T15:45:39Z</time>
      </trkpt>
      <trkpt lat="48.62938" lon="2.02097">
        <ele>176.6</ele>
        <time>2024-03-14T15:45:40Z</time>
      </trkpt>
      <trkpt lat="48.62939" lon="2.02089">
        <ele>176.2</ele>
        <time>2024-03-14T15:45:41Z</time>
      </trkpt>
      <trkpt lat="48.6294" lon="2.02081">
        <ele>176.2</ele>
        <time>2024-03-14T15:45:42Z</time>
      </trkpt>
      <trkpt lat="48.6294" lon="2.02074">
        <ele>176.2</ele>
        <time>2024-03-14T15:45:43Z</time>
      </trkpt>
      <trkpt lat="48.62941" lon="2.02066">
        <ele>176.2</ele>
        <time>2024-03-14T15:45:44Z</time>
      </trkpt>
      <trkpt lat="48.62942" lon="2.02057">
        <ele>177</ele>
        <time>2024-03-14T15:45:45Z</time>
      </trkpt>
      <trkpt lat="48.62943" lon="2.02049">
        <ele>177</ele>
        <time>2024-03-14T15:45:46Z</time>
      </trkpt>
      <trkpt lat="48.62945" lon="2.02041">
        <ele>177</ele>
        <time>2024-03-14T15:45:47Z</time>
      </trkpt>
      <trkpt lat="48.62946" lon="2.02033">
        <ele>177</ele>
        <time>2024-03-14T15:45:48Z</time>
      </trkpt>
      <trkpt lat="48.62948" lon="2.02025">
        <ele>176.2</ele>
        <time>2024-03-14T15:45:49Z</time>
      </trkpt>
      <trkpt lat="48.62949" lon="2.02017">
        <ele>176.2</ele>
        <time>2024-03-14T15:45:50Z</time>
      </trkpt>
      <trkpt lat="48.62951" lon="2.02009">
        <ele>176.2</ele>
        <time>2024-03-14T15:45:51Z</time>
      </trkpt>
      <trkpt lat="48.62953" lon="2.02001">
        <ele>176.2</ele>
        <time>2024-03-14T15:45:52Z</time>
      </trkpt>
      <trkpt lat="48.62955" lon="2.01993">
        <ele>176.8</ele>
        <time>2024-03-14T15:45:53Z</time>
      </trkpt>
      <trkpt lat="48.62957" lon="2.01985">
        <ele>176.8</ele>
        <time>2024-03-14T15:45:54Z</time>
      </trkpt>
      <trkpt lat="48.6296" lon="2.01977">
        <ele>176.8</ele>
        <time>2024-03-14T15:45:55Z</time>
      </trkpt>
      <trkpt lat="48.62962" lon="2.01969">
        <ele>177.6</ele>
        <time>2024-03-14T15:45:56Z</time>
      </trkpt>
      <trkpt lat="48.62965" lon="2.01962">
        <ele>176.8</ele>
        <time>2024-03-14T15:45:57Z</time>
      </trkpt>
      <trkpt lat="48.62968" lon="2.01955">
        <ele>176.8</ele>
        <time>2024-03-14T15:45:58Z</time>
      </trkpt>
      <trkpt lat="48.62972" lon="2.01947">
        <ele>176.8</ele>
        <time>2024-03-14T15:45:59Z</time>
      </trkpt>
      <trkpt lat="48.62975" lon="2.0194">
        <ele>176.8</ele>
        <time>2024-03-14T15:46:00Z</time>
      </trkpt>
      <trkpt lat="48.62978" lon="2.01933">
        <ele>176.2</ele>
        <time>2024-03-14T15:46:01Z</time>
      </trkpt>
      <trkpt lat="48.62982" lon="2.01926">
        <ele>176.2</ele>
        <time>2024-03-14T15:46:02Z</time>
      </trkpt>
      <trkpt lat="48.62985" lon="2.01919">
        <ele>176.2</ele>
        <time>2024-03-14T15:46:03Z</time>
      </trkpt>
      <trkpt lat="48.62989" lon="2.01913">
        <ele>177.2</ele>
        <time>2024-03-14T15:46:04Z</time>
      </trkpt>
      <trkpt lat="48.62993" lon="2.01906">
        <ele>177.4</ele>
        <time>2024-03-14T15:46:05Z</time>
      </trkpt>
      <trkpt lat="48.62996" lon="2.01898">
        <ele>177.4</ele>
        <time>2024-03-14T15:46:06Z</time>
      </trkpt>
      <trkpt lat="48.62999" lon="2.01891">
        <ele>177.4</ele>
        <time>2024-03-14T15:46:07Z</time>
      </trkpt>
      <trkpt lat="48.63003" lon="2.01884">
        <ele>178.2</ele>
        <time>2024-03-14T15:46:08Z</time>
      </trkpt>
      <trkpt lat="48.63006" lon="2.01877">
        <ele>178.4</ele>
        <time>2024-03-14T15:46:09Z</time>
      </trkpt>
      <trkpt lat="48.6301" lon="2.0187">
        <ele>178.4</ele>
        <time>2024-03-14T15:46:10Z</time>
      </trkpt>
      <trkpt lat="48.63014" lon="2.01863">
        <ele>178.4</ele>
        <time>2024-03-14T15:46:11Z</time>
      </trkpt>
      <trkpt lat="48.63018" lon="2.01856">
        <ele>177.4</ele>
        <time>2024-03-14T15:46:12Z</time>
      </trkpt>
      <trkpt lat="48.63022" lon="2.01848">
        <ele>177</ele>
        <time>2024-03-14T15:46:13Z</time>
      </trkpt>
      <trkpt lat="48.63026" lon="2.01841">
        <ele>177</ele>
        <time>2024-03-14T15:46:14Z</time>
      </trkpt>
      <trkpt lat="48.63029" lon="2.01833">
        <ele>177</ele>
        <time>2024-03-14T15:46:15Z</time>
      </trkpt>
      <trkpt lat="48.63033" lon="2.01826">
        <ele>177.8</ele>
        <time>2024-03-14T15:46:16Z</time>
      </trkpt>
      <trkpt lat="48.63037" lon="2.01819">
        <ele>176.8</ele>
        <time>2024-03-14T15:46:17Z</time>
      </trkpt>
      <trkpt lat="48.63041" lon="2.01811">
        <ele>176.8</ele>
        <time>2024-03-14T15:46:18Z</time>
      </trkpt>
      <trkpt lat="48.63045" lon="2.01804">
        <ele>176.8</ele>
        <time>2024-03-14T15:46:19Z</time>
      </trkpt>
      <trkpt lat="48.63048" lon="2.01797">
        <ele>177.2</ele>
        <time>2024-03-14T15:46:20Z</time>
      </trkpt>
      <trkpt lat="48.63052" lon="2.01789">
        <ele>177</ele>
        <time>2024-03-14T15:46:21Z</time>
      </trkpt>
      <trkpt lat="48.63056" lon="2.01782">
        <ele>177</ele>
        <time>2024-03-14T15:46:22Z</time>
      </trkpt>
      <trkpt lat="48.6306" lon="2.01774">
        <ele>177</ele>
        <time>2024-03-14T15:46:23Z</time>
      </trkpt>
      <trkpt lat="48.63063" lon="2.01767">
        <ele>176.8</ele>
        <time>2024-03-14T15:46:24Z</time>
      </trkpt>
      <trkpt lat="48.63067" lon="2.0176">
        <ele>176.8</ele>
        <time>2024-03-14T15:46:25Z</time>
      </trkpt>
      <trkpt lat="48.63071" lon="2.01753">
        <ele>176.8</ele>
        <time>2024-03-14T15:46:26Z</time>
      </trkpt>
      <trkpt lat="48.63075" lon="2.01746">
        <ele>176.8</ele>
        <time>2024-03-14T15:46:27Z</time>
      </trkpt>
      <trkpt lat="48.63079" lon="2.01739">
        <ele>176.8</ele>
        <time>2024-03-14T15:46:28Z</time>
      </trkpt>
      <trkpt lat="48.63083" lon="2.01733">
        <ele>178</ele>
        <time>2024-03-14T15:46:29Z</time>
      </trkpt>
      <trkpt lat="48.63086" lon="2.01726">
        <ele>178</ele>
        <time>2024-03-14T15:46:30Z</time>
      </trkpt>
      <trkpt lat="48.6309" lon="2.01719">
        <ele>178</ele>
        <time>2024-03-14T15:46:31Z</time>
      </trkpt>
      <trkpt lat="48.63094" lon="2.01711">
        <ele>177.6</ele>
        <time>2024-03-14T15:46:32Z</time>
      </trkpt>
      <trkpt lat="48.63098" lon="2.01704">
        <ele>178</ele>
        <time>2024-03-14T15:46:33Z</time>
      </trkpt>
      <trkpt lat="48.63102" lon="2.01697">
        <ele>178</ele>
        <time>2024-03-14T15:46:34Z</time>
      </trkpt>
      <trkpt lat="48.63106" lon="2.0169">
        <ele>178</ele>
        <time>2024-03-14T15:46:35Z</time>
      </trkpt>
      <trkpt lat="48.6311" lon="2.01682">
        <ele>177</ele>
        <time>2024-03-14T15:46:36Z</time>
      </trkpt>
      <trkpt lat="48.63114" lon="2.01674">
        <ele>176.8</ele>
        <time>2024-03-14T15:46:37Z</time>
      </trkpt>
      <trkpt lat="48.63118" lon="2.01666">
        <ele>176.8</ele>
        <time>2024-03-14T15:46:38Z</time>
      </trkpt>
      <trkpt lat="48.63122" lon="2.01659">
        <ele>176.8</ele>
        <time>2024-03-14T15:46:39Z</time>
      </trkpt>
      <trkpt lat="48.63126" lon="2.01651">
        <ele>176.8</ele>
        <time>2024-03-14T15:46:40Z</time>
      </trkpt>
      <trkpt lat="48.6313" lon="2.01643">
        <ele>177.6</ele>
        <time>2024-03-14T15:46:41Z</time>
      </trkpt>
      <trkpt lat="48.63134" lon="2.01636">
        <ele>177.6</ele>
        <time>2024-03-14T15:46:42Z</time>
      </trkpt>
      <trkpt lat="48.63138" lon="2.01629">
        <ele>177.6</ele>
        <time>2024-03-14T15:46:43Z</time>
      </trkpt>
      <trkpt lat="48.63142" lon="2.01621">
        <ele>178.6</ele>
        <time>2024-03-14T15:46:44Z</time>
      </trkpt>
      <trkpt lat="48.63146" lon="2.01614">
        <ele>178.4</ele>
        <time>2024-03-14T15:46:45Z</time>
      </trkpt>
      <trkpt lat="48.63149" lon="2.01606">
        <ele>178.4</ele>
        <time>2024-03-14T15:46:46Z</time>
      </trkpt>
      <trkpt lat="48.63153" lon="2.01599">
        <ele>178.4</ele>
        <time>2024-03-14T15:46:47Z</time>
      </trkpt>
      <trkpt lat="48.63157" lon="2.01591">
        <ele>177.6</ele>
        <time>2024-03-14T15:46:48Z</time>
      </trkpt>
      <trkpt lat="48.63161" lon="2.01584">
        <ele>179.2</ele>
        <time>2024-03-14T15:46:49Z</time>
      </trkpt>
      <trkpt lat="48.63165" lon="2.01577">
        <ele>179.2</ele>
        <time>2024-03-14T15:46:50Z</time>
      </trkpt>
      <trkpt lat="48.63169" lon="2.0157">
        <ele>179.2</ele>
        <time>2024-03-14T15:46:51Z</time>
      </trkpt>
      <trkpt lat="48.63173" lon="2.01563">
        <ele>179.2</ele>
        <time>2024-03-14T15:46:52Z</time>
      </trkpt>
      <trkpt lat="48.63178" lon="2.01556">
        <ele>178.2</ele>
        <time>2024-03-14T15:46:53Z</time>
      </trkpt>
      <trkpt lat="48.63181" lon="2.01548">
        <ele>178.2</ele>
        <time>2024-03-14T15:46:54Z</time>
      </trkpt>
      <trkpt lat="48.63184" lon="2.0154">
        <ele>178.2</ele>
        <time>2024-03-14T15:46:55Z</time>
      </trkpt>
      <trkpt lat="48.63188" lon="2.01532">
        <ele>178.2</ele>
        <time>2024-03-14T15:46:56Z</time>
      </trkpt>
      <trkpt lat="48.63191" lon="2.01523">
        <ele>177.8</ele>
        <time>2024-03-14T15:46:57Z</time>
      </trkpt>
      <trkpt lat="48.63193" lon="2.01514">
        <ele>177.8</ele>
        <time>2024-03-14T15:46:58Z</time>
      </trkpt>
      <trkpt lat="48.63196" lon="2.01505">
        <ele>177.8</ele>
        <time>2024-03-14T15:46:59Z</time>
      </trkpt>
      <trkpt lat="48.63198" lon="2.01496">
        <ele>177.4</ele>
        <time>2024-03-14T15:47:00Z</time>
      </trkpt>
      <trkpt lat="48.63201" lon="2.01487">
        <ele>176.8</ele>
        <time>2024-03-14T15:47:01Z</time>
      </trkpt>
      <trkpt lat="48.63204" lon="2.01478">
        <ele>176.8</ele>
        <time>2024-03-14T15:47:02Z</time>
      </trkpt>
      <trkpt lat="48.63207" lon="2.01469">
        <ele>176.8</ele>
        <time>2024-03-14T15:47:03Z</time>
      </trkpt>
      <trkpt lat="48.6321" lon="2.0146">
        <ele>177.4</ele>
        <time>2024-03-14T15:47:04Z</time>
      </trkpt>
      <trkpt lat="48.63213" lon="2.01451">
        <ele>178</ele>
        <time>2024-03-14T15:47:05Z</time>
      </trkpt>
      <trkpt lat="48.63216" lon="2.01441">
        <ele>178</ele>
        <time>2024-03-14T15:47:06Z</time>
      </trkpt>
      <trkpt lat="48.63218" lon="2.01432">
        <ele>178</ele>
        <time>2024-03-14T15:47:07Z</time>
      </trkpt>
      <trkpt lat="48.63221" lon="2.01422">
        <ele>178</ele>
        <time>2024-03-14T15:47:08Z</time>
      </trkpt>
      <trkpt lat="48.63224" lon="2.01413">
        <ele>177.2</ele>
        <time>2024-03-14T15:47:09Z</time>
      </trkpt>
      <trkpt lat="48.63226" lon="2.01403">
        <ele>177.2</ele>
        <time>2024-03-14T15:47:10Z</time>
      </trkpt>
      <trkpt lat="48.63229" lon="2.01394">
        <ele>177.2</ele>
        <time>2024-03-14T15:47:11Z</time>
      </trkpt>
      <trkpt lat="48.63232" lon="2.01385">
        <ele>177.4</ele>
        <time>2024-03-14T15:47:12Z</time>
      </trkpt>
      <trkpt lat="48.63235" lon="2.01376">
        <ele>176.8</ele>
        <time>2024-03-14T15:47:13Z</time>
      </trkpt>
      <trkpt lat="48.63239" lon="2.01367">
        <ele>176.8</ele>
        <time>2024-03-14T15:47:14Z</time>
      </trkpt>
      <trkpt lat="48.63242" lon="2.01358">
        <ele>176.8</ele>
        <time>2024-03-14T15:47:15Z</time>
      </trkpt>
      <trkpt lat="48.63246" lon="2.0135">
        <ele>177.6</ele>
        <time>2024-03-14T15:47:16Z</time>
      </trkpt>
      <trkpt lat="48.63251" lon="2.01343">
        <ele>177.6</ele>
        <time>2024-03-14T15:47:17Z</time>
      </trkpt>
      <trkpt lat="48.63256" lon="2.01337">
        <ele>177.6</ele>
        <time>2024-03-14T15:47:18Z</time>
      </trkpt>
      <trkpt lat="48.63262" lon="2.01332">
        <ele>177.6</ele>
        <time>2024-03-14T15:47:19Z</time>
      </trkpt>
      <trkpt lat="48.63268" lon="2.01327">
        <ele>177.6</ele>
        <time>2024-03-14T15:47:20Z</time>
      </trkpt>
      <trkpt lat="48.63274" lon="2.01323">
        <ele>177.6</ele>
        <time>2024-03-14T15:47:21Z</time>
      </trkpt>
      <trkpt lat="48.6328" lon="2.01319">
        <ele>177.6</ele>
        <time>2024-03-14T15:47:22Z</time>
      </trkpt>
      <trkpt lat="48.63285" lon="2.01315">
        <ele>177.6</ele>
        <time>2024-03-14T15:47:23Z</time>
      </trkpt>
      <trkpt lat="48.63291" lon="2.01311">
        <ele>178</ele>
        <time>2024-03-14T15:47:24Z</time>
      </trkpt>
      <trkpt lat="48.63297" lon="2.01306">
        <ele>178</ele>
        <time>2024-03-14T15:47:25Z</time>
      </trkpt>
      <trkpt lat="48.63303" lon="2.01302">
        <ele>178</ele>
        <time>2024-03-14T15:47:26Z</time>
      </trkpt>
      <trkpt lat="48.63308" lon="2.01298">
        <ele>178</ele>
        <time>2024-03-14T15:47:27Z</time>
      </trkpt>
      <trkpt lat="48.63314" lon="2.01293">
        <ele>178</ele>
        <time>2024-03-14T15:47:28Z</time>
      </trkpt>
      <trkpt lat="48.63319" lon="2.01288">
        <ele>178.4</ele>
        <time>2024-03-14T15:47:29Z</time>
      </trkpt>
      <trkpt lat="48.63324" lon="2.01281">
        <ele>178.4</ele>
        <time>2024-03-14T15:47:30Z</time>
      </trkpt>
      <trkpt lat="48.63329" lon="2.01275">
        <ele>178.4</ele>
        <time>2024-03-14T15:47:31Z</time>
      </trkpt>
      <trkpt lat="48.63334" lon="2.01268">
        <ele>178.4</ele>
        <time>2024-03-14T15:47:32Z</time>
      </trkpt>
      <trkpt lat="48.63338" lon="2.01261">
        <ele>178.6</ele>
        <time>2024-03-14T15:47:33Z</time>
      </trkpt>
      <trkpt lat="48.63343" lon="2.01255">
        <ele>178.6</ele>
        <time>2024-03-14T15:47:34Z</time>
      </trkpt>
      <trkpt lat="48.63347" lon="2.01248">
        <ele>178.6</ele>
        <time>2024-03-14T15:47:35Z</time>
      </trkpt>
      <trkpt lat="48.63352" lon="2.0124">
        <ele>178</ele>
        <time>2024-03-14T15:47:36Z</time>
      </trkpt>
      <trkpt lat="48.63356" lon="2.01233">
        <ele>178.2</ele>
        <time>2024-03-14T15:47:37Z</time>
      </trkpt>
      <trkpt lat="48.63361" lon="2.01226">
        <ele>178.2</ele>
        <time>2024-03-14T15:47:38Z</time>
      </trkpt>
      <trkpt lat="48.63365" lon="2.01218">
        <ele>178.2</ele>
        <time>2024-03-14T15:47:39Z</time>
      </trkpt>
      <trkpt lat="48.6337" lon="2.01211">
        <ele>178.2</ele>
        <time>2024-03-14T15:47:40Z</time>
      </trkpt>
      <trkpt lat="48.63374" lon="2.01203">
        <ele>177.2</ele>
        <time>2024-03-14T15:47:41Z</time>
      </trkpt>
      <trkpt lat="48.63379" lon="2.01196">
        <ele>177.2</ele>
        <time>2024-03-14T15:47:42Z</time>
      </trkpt>
      <trkpt lat="48.63383" lon="2.01189">
        <ele>177.2</ele>
        <time>2024-03-14T15:47:43Z</time>
      </trkpt>
      <trkpt lat="48.63387" lon="2.01182">
        <ele>177.2</ele>
        <time>2024-03-14T15:47:44Z</time>
      </trkpt>
      <trkpt lat="48.63391" lon="2.01176">
        <ele>177.6</ele>
        <time>2024-03-14T15:47:45Z</time>
      </trkpt>
      <trkpt lat="48.63396" lon="2.01169">
        <ele>177.6</ele>
        <time>2024-03-14T15:47:46Z</time>
      </trkpt>
      <trkpt lat="48.634" lon="2.01163">
        <ele>177.6</ele>
        <time>2024-03-14T15:47:47Z</time>
      </trkpt>
      <trkpt lat="48.63405" lon="2.01157">
        <ele>178.6</ele>
        <time>2024-03-14T15:47:48Z</time>
      </trkpt>
      <trkpt lat="48.6341" lon="2.01151">
        <ele>178.8</ele>
        <time>2024-03-14T15:47:49Z</time>
      </trkpt>
      <trkpt lat="48.63415" lon="2.01145">
        <ele>178.8</ele>
        <time>2024-03-14T15:47:50Z</time>
      </trkpt>
      <trkpt lat="48.6342" lon="2.01138">
        <ele>178.8</ele>
        <time>2024-03-14T15:47:51Z</time>
      </trkpt>
      <trkpt lat="48.63425" lon="2.01132">
        <ele>178</ele>
        <time>2024-03-14T15:47:52Z</time>
      </trkpt>
      <trkpt lat="48.6343" lon="2.01126">
        <ele>178.6</ele>
        <time>2024-03-14T15:47:53Z</time>
      </trkpt>
      <trkpt lat="48.63435" lon="2.01121">
        <ele>178.6</ele>
        <time>2024-03-14T15:47:54Z</time>
      </trkpt>
      <trkpt lat="48.6344" lon="2.01115">
        <ele>178.6</ele>
        <time>2024-03-14T15:47:55Z</time>
      </trkpt>
      <trkpt lat="48.63446" lon="2.01109">
        <ele>177.6</ele>
        <time>2024-03-14T15:47:56Z</time>
      </trkpt>
      <trkpt lat="48.63451" lon="2.01103">
        <ele>177.4</ele>
        <time>2024-03-14T15:47:57Z</time>
      </trkpt>
      <trkpt lat="48.63456" lon="2.01097">
        <ele>177.4</ele>
        <time>2024-03-14T15:47:58Z</time>
      </trkpt>
      <trkpt lat="48.63462" lon="2.0109">
        <ele>177.4</ele>
        <time>2024-03-14T15:47:59Z</time>
      </trkpt>
      <trkpt lat="48.63467" lon="2.01084">
        <ele>177.4</ele>
        <time>2024-03-14T15:48:00Z</time>
      </trkpt>
      <trkpt lat="48.63472" lon="2.01078">
        <ele>177.4</ele>
        <time>2024-03-14T15:48:01Z</time>
      </trkpt>
      <trkpt lat="48.63477" lon="2.01072">
        <ele>177.4</ele>
        <time>2024-03-14T15:48:02Z</time>
      </trkpt>
      <trkpt lat="48.63483" lon="2.01066">
        <ele>177.4</ele>
        <time>2024-03-14T15:48:03Z</time>
      </trkpt>
      <trkpt lat="48.63488" lon="2.0106">
        <ele>177.6</ele>
        <time>2024-03-14T15:48:04Z</time>
      </trkpt>
      <trkpt lat="48.63493" lon="2.01054">
        <ele>177.2</ele>
        <time>2024-03-14T15:48:05Z</time>
      </trkpt>
      <trkpt lat="48.63499" lon="2.01047">
        <ele>177.2</ele>
        <time>2024-03-14T15:48:06Z</time>
      </trkpt>
      <trkpt lat="48.63504" lon="2.01041">
        <ele>177.2</ele>
        <time>2024-03-14T15:48:07Z</time>
      </trkpt>
      <trkpt lat="48.6351" lon="2.01036">
        <ele>177.2</ele>
        <time>2024-03-14T15:48:08Z</time>
      </trkpt>
      <trkpt lat="48.63515" lon="2.01031">
        <ele>177.8</ele>
        <time>2024-03-14T15:48:09Z</time>
      </trkpt>
      <trkpt lat="48.6352" lon="2.01024">
        <ele>177.8</ele>
        <time>2024-03-14T15:48:10Z</time>
      </trkpt>
      <trkpt lat="48.63525" lon="2.01018">
        <ele>177.8</ele>
        <time>2024-03-14T15:48:11Z</time>
      </trkpt>
      <trkpt lat="48.6353" lon="2.01013">
        <ele>177.4</ele>
        <time>2024-03-14T15:48:12Z</time>
      </trkpt>
      <trkpt lat="48.63536" lon="2.01007">
        <ele>176</ele>
        <time>2024-03-14T15:48:13Z</time>
      </trkpt>
      <trkpt lat="48.63541" lon="2.01001">
        <ele>176</ele>
        <time>2024-03-14T15:48:14Z</time>
      </trkpt>
      <trkpt lat="48.63546" lon="2.00996">
        <ele>176</ele>
        <time>2024-03-14T15:48:15Z</time>
      </trkpt>
      <trkpt lat="48.63551" lon="2.0099">
        <ele>176</ele>
        <time>2024-03-14T15:48:16Z</time>
      </trkpt>
      <trkpt lat="48.63556" lon="2.00983">
        <ele>176.6</ele>
        <time>2024-03-14T15:48:17Z</time>
      </trkpt>
      <trkpt lat="48.6356" lon="2.00976">
        <ele>176.6</ele>
        <time>2024-03-14T15:48:18Z</time>
      </trkpt>
      <trkpt lat="48.63564" lon="2.00969">
        <ele>176.6</ele>
        <time>2024-03-14T15:48:19Z</time>
      </trkpt>
      <trkpt lat="48.63568" lon="2.00962">
        <ele>176.6</ele>
        <time>2024-03-14T15:48:20Z</time>
      </trkpt>
      <trkpt lat="48.63571" lon="2.00955">
        <ele>176.6</ele>
        <time>2024-03-14T15:48:21Z</time>
      </trkpt>
      <trkpt lat="48.63574" lon="2.00947">
        <ele>176.6</ele>
        <time>2024-03-14T15:48:22Z</time>
      </trkpt>
      <trkpt lat="48.63578" lon="2.0094">
        <ele>176.6</ele>
        <time>2024-03-14T15:48:23Z</time>
      </trkpt>
      <trkpt lat="48.63582" lon="2.00933">
        <ele>176.6</ele>
        <time>2024-03-14T15:48:24Z</time>
      </trkpt>
      <trkpt lat="48.63585" lon="2.00927">
        <ele>176.2</ele>
        <time>2024-03-14T15:48:25Z</time>
      </trkpt>
      <trkpt lat="48.63589" lon="2.0092">
        <ele>176.2</ele>
        <time>2024-03-14T15:48:26Z</time>
      </trkpt>
      <trkpt lat="48.63592" lon="2.00912">
        <ele>176.2</ele>
        <time>2024-03-14T15:48:27Z</time>
      </trkpt>
      <trkpt lat="48.63596" lon="2.00904">
        <ele>176.8</ele>
        <time>2024-03-14T15:48:28Z</time>
      </trkpt>
      <trkpt lat="48.636" lon="2.00896">
        <ele>176.8</ele>
        <time>2024-03-14T15:48:29Z</time>
      </trkpt>
      <trkpt lat="48.63604" lon="2.00887">
        <ele>176.8</ele>
        <time>2024-03-14T15:48:30Z</time>
      </trkpt>
      <trkpt lat="48.63608" lon="2.0088">
        <ele>176.8</ele>
        <time>2024-03-14T15:48:31Z</time>
      </trkpt>
      <trkpt lat="48.63613" lon="2.00873">
        <ele>177.4</ele>
        <time>2024-03-14T15:48:32Z</time>
      </trkpt>
      <trkpt lat="48.63617" lon="2.00866">
        <ele>177.2</ele>
        <time>2024-03-14T15:48:33Z</time>
      </trkpt>
      <trkpt lat="48.63621" lon="2.00859">
        <ele>177.2</ele>
        <time>2024-03-14T15:48:34Z</time>
      </trkpt>
      <trkpt lat="48.63625" lon="2.0085">
        <ele>177.2</ele>
        <time>2024-03-14T15:48:35Z</time>
      </trkpt>
      <trkpt lat="48.63629" lon="2.00843">
        <ele>177.6</ele>
        <time>2024-03-14T15:48:36Z</time>
      </trkpt>
      <trkpt lat="48.63633" lon="2.00834">
        <ele>177.4</ele>
        <time>2024-03-14T15:48:37Z</time>
      </trkpt>
      <trkpt lat="48.63638" lon="2.00827">
        <ele>177.4</ele>
        <time>2024-03-14T15:48:38Z</time>
      </trkpt>
      <trkpt lat="48.63642" lon="2.00819">
        <ele>177.4</ele>
        <time>2024-03-14T15:48:39Z</time>
      </trkpt>
      <trkpt lat="48.63647" lon="2.00814">
        <ele>176.8</ele>
        <time>2024-03-14T15:48:40Z</time>
      </trkpt>
      <trkpt lat="48.63652" lon="2.00807">
        <ele>176.8</ele>
        <time>2024-03-14T15:48:41Z</time>
      </trkpt>
      <trkpt lat="48.63656" lon="2.00801">
        <ele>176.8</ele>
        <time>2024-03-14T15:48:42Z</time>
      </trkpt>
      <trkpt lat="48.63661" lon="2.00794">
        <ele>176.8</ele>
        <time>2024-03-14T15:48:43Z</time>
      </trkpt>
      <trkpt lat="48.63666" lon="2.00786">
        <ele>176.2</ele>
        <time>2024-03-14T15:48:44Z</time>
      </trkpt>
      <trkpt lat="48.6367" lon="2.00779">
        <ele>176.2</ele>
        <time>2024-03-14T15:48:45Z</time>
      </trkpt>
      <trkpt lat="48.63675" lon="2.00774">
        <ele>176.2</ele>
        <time>2024-03-14T15:48:46Z</time>
      </trkpt>
      <trkpt lat="48.63681" lon="2.00768">
        <ele>176.2</ele>
        <time>2024-03-14T15:48:47Z</time>
      </trkpt>
      <trkpt lat="48.63687" lon="2.00764">
        <ele>176.2</ele>
        <time>2024-03-14T15:48:48Z</time>
      </trkpt>
      <trkpt lat="48.63693" lon="2.00758">
        <ele>176.4</ele>
        <time>2024-03-14T15:48:49Z</time>
      </trkpt>
      <trkpt lat="48.63699" lon="2.00751">
        <ele>176.4</ele>
        <time>2024-03-14T15:48:50Z</time>
      </trkpt>
      <trkpt lat="48.63705" lon="2.00747">
        <ele>176.4</ele>
        <time>2024-03-14T15:48:51Z</time>
      </trkpt>
      <trkpt lat="48.63711" lon="2.00742">
        <ele>176.4</ele>
        <time>2024-03-14T15:48:52Z</time>
      </trkpt>
      <trkpt lat="48.63717" lon="2.00736">
        <ele>175.6</ele>
        <time>2024-03-14T15:48:53Z</time>
      </trkpt>
      <trkpt lat="48.63723" lon="2.0073">
        <ele>175.6</ele>
        <time>2024-03-14T15:48:54Z</time>
      </trkpt>
      <trkpt lat="48.63729" lon="2.00724">
        <ele>175.6</ele>
        <time>2024-03-14T15:48:55Z</time>
      </trkpt>
      <trkpt lat="48.63735" lon="2.00718">
        <ele>175.8</ele>
        <time>2024-03-14T15:48:56Z</time>
      </trkpt>
      <trkpt lat="48.63739" lon="2.00712">
        <ele>175.8</ele>
        <time>2024-03-14T15:48:57Z</time>
      </trkpt>
      <trkpt lat="48.63745" lon="2.00705">
        <ele>175.8</ele>
        <time>2024-03-14T15:48:58Z</time>
      </trkpt>
      <trkpt lat="48.6375" lon="2.00698">
        <ele>175.8</ele>
        <time>2024-03-14T15:48:59Z</time>
      </trkpt>
      <trkpt lat="48.63756" lon="2.00692">
        <ele>175.8</ele>
        <time>2024-03-14T15:49:00Z</time>
      </trkpt>
      <trkpt lat="48.63762" lon="2.00685">
        <ele>175.4</ele>
        <time>2024-03-14T15:49:01Z</time>
      </trkpt>
      <trkpt lat="48.63768" lon="2.00678">
        <ele>175.4</ele>
        <time>2024-03-14T15:49:02Z</time>
      </trkpt>
      <trkpt lat="48.63774" lon="2.00672">
        <ele>175.4</ele>
        <time>2024-03-14T15:49:03Z</time>
      </trkpt>
      <trkpt lat="48.63781" lon="2.00665">
        <ele>175</ele>
        <time>2024-03-14T15:49:04Z</time>
      </trkpt>
      <trkpt lat="48.63787" lon="2.00659">
        <ele>174.8</ele>
        <time>2024-03-14T15:49:05Z</time>
      </trkpt>
      <trkpt lat="48.63794" lon="2.00653">
        <ele>174.8</ele>
        <time>2024-03-14T15:49:06Z</time>
      </trkpt>
      <trkpt lat="48.63801" lon="2.00646">
        <ele>174.8</ele>
        <time>2024-03-14T15:49:07Z</time>
      </trkpt>
      <trkpt lat="48.63807" lon="2.00641">
        <ele>174.2</ele>
        <time>2024-03-14T15:49:08Z</time>
      </trkpt>
      <trkpt lat="48.63815" lon="2.00635">
        <ele>173.2</ele>
        <time>2024-03-14T15:49:09Z</time>
      </trkpt>
      <trkpt lat="48.63822" lon="2.00631">
        <ele>173.2</ele>
        <time>2024-03-14T15:49:10Z</time>
      </trkpt>
      <trkpt lat="48.6383" lon="2.00627">
        <ele>173.2</ele>
        <time>2024-03-14T15:49:11Z</time>
      </trkpt>
      <trkpt lat="48.63838" lon="2.00624">
        <ele>173.2</ele>
        <time>2024-03-14T15:49:12Z</time>
      </trkpt>
      <trkpt lat="48.63846" lon="2.00622">
        <ele>173.2</ele>
        <time>2024-03-14T15:49:13Z</time>
      </trkpt>
      <trkpt lat="48.63853" lon="2.00619">
        <ele>173.2</ele>
        <time>2024-03-14T15:49:14Z</time>
      </trkpt>
      <trkpt lat="48.63861" lon="2.00616">
        <ele>173.2</ele>
        <time>2024-03-14T15:49:15Z</time>
      </trkpt>
      <trkpt lat="48.63868" lon="2.00613">
        <ele>173</ele>
        <time>2024-03-14T15:49:16Z</time>
      </trkpt>
      <trkpt lat="48.63876" lon="2.00609">
        <ele>172.8</ele>
        <time>2024-03-14T15:49:17Z</time>
      </trkpt>
      <trkpt lat="48.63883" lon="2.00606">
        <ele>172.8</ele>
        <time>2024-03-14T15:49:18Z</time>
      </trkpt>
      <trkpt lat="48.63891" lon="2.00602">
        <ele>172.8</ele>
        <time>2024-03-14T15:49:19Z</time>
      </trkpt>
      <trkpt lat="48.63899" lon="2.00599">
        <ele>172.8</ele>
        <time>2024-03-14T15:49:20Z</time>
      </trkpt>
      <trkpt lat="48.63907" lon="2.00597">
        <ele>171.4</ele>
        <time>2024-03-14T15:49:21Z</time>
      </trkpt>
      <trkpt lat="48.63915" lon="2.00593">
        <ele>171.4</ele>
        <time>2024-03-14T15:49:22Z</time>
      </trkpt>
      <trkpt lat="48.63924" lon="2.00589">
        <ele>171.4</ele>
        <time>2024-03-14T15:49:23Z</time>
      </trkpt>
      <trkpt lat="48.63933" lon="2.00585">
        <ele>170.4</ele>
        <time>2024-03-14T15:49:24Z</time>
      </trkpt>
      <trkpt lat="48.63941" lon="2.00581">
        <ele>168.4</ele>
        <time>2024-03-14T15:49:25Z</time>
      </trkpt>
      <trkpt lat="48.6395" lon="2.00576">
        <ele>168.4</ele>
        <time>2024-03-14T15:49:26Z</time>
      </trkpt>
      <trkpt lat="48.63958" lon="2.00569">
        <ele>168.4</ele>
        <time>2024-03-14T15:49:27Z</time>
      </trkpt>
      <trkpt lat="48.63965" lon="2.0056">
        <ele>167.4</ele>
        <time>2024-03-14T15:49:28Z</time>
      </trkpt>
      <trkpt lat="48.63968" lon="2.00549">
        <ele>166.4</ele>
        <time>2024-03-14T15:49:29Z</time>
      </trkpt>
      <trkpt lat="48.63969" lon="2.00537">
        <ele>166.4</ele>
        <time>2024-03-14T15:49:30Z</time>
      </trkpt>
      <trkpt lat="48.63969" lon="2.00525">
        <ele>166.4</ele>
        <time>2024-03-14T15:49:31Z</time>
      </trkpt>
      <trkpt lat="48.63968" lon="2.00514">
        <ele>166.4</ele>
        <time>2024-03-14T15:49:32Z</time>
      </trkpt>
      <trkpt lat="48.63967" lon="2.00503">
        <ele>165.4</ele>
        <time>2024-03-14T15:49:33Z</time>
      </trkpt>
      <trkpt lat="48.63966" lon="2.00491">
        <ele>165.4</ele>
        <time>2024-03-14T15:49:34Z</time>
      </trkpt>
      <trkpt lat="48.63965" lon="2.0048">
        <ele>165.4</ele>
        <time>2024-03-14T15:49:35Z</time>
      </trkpt>
      <trkpt lat="48.63964" lon="2.0047">
        <ele>165.4</ele>
        <time>2024-03-14T15:49:36Z</time>
      </trkpt>
      <trkpt lat="48.63963" lon="2.0046">
        <ele>167.2</ele>
        <time>2024-03-14T15:49:37Z</time>
      </trkpt>
      <trkpt lat="48.63962" lon="2.0045">
        <ele>167.2</ele>
        <time>2024-03-14T15:49:38Z</time>
      </trkpt>
      <trkpt lat="48.63962" lon="2.00441">
        <ele>167.2</ele>
        <time>2024-03-14T15:49:39Z</time>
      </trkpt>
      <trkpt lat="48.63961" lon="2.00431">
        <ele>168.2</ele>
        <time>2024-03-14T15:49:40Z</time>
      </trkpt>
      <trkpt lat="48.63961" lon="2.00423">
        <ele>169.2</ele>
        <time>2024-03-14T15:49:41Z</time>
      </trkpt>
      <trkpt lat="48.6396" lon="2.00414">
        <ele>169.2</ele>
        <time>2024-03-14T15:49:42Z</time>
      </trkpt>
      <trkpt lat="48.63959" lon="2.00406">
        <ele>169.2</ele>
        <time>2024-03-14T15:49:43Z</time>
      </trkpt>
      <trkpt lat="48.63959" lon="2.00398">
        <ele>169.2</ele>
        <time>2024-03-14T15:49:44Z</time>
      </trkpt>
      <trkpt lat="48.63958" lon="2.0039">
        <ele>169.6</ele>
        <time>2024-03-14T15:49:45Z</time>
      </trkpt>
      <trkpt lat="48.63957" lon="2.00382">
        <ele>169.6</ele>
        <time>2024-03-14T15:49:46Z</time>
      </trkpt>
      <trkpt lat="48.63957" lon="2.00375">
        <ele>169.6</ele>
        <time>2024-03-14T15:49:47Z</time>
      </trkpt>
      <trkpt lat="48.63957" lon="2.00367">
        <ele>170.6</ele>
        <time>2024-03-14T15:49:48Z</time>
      </trkpt>
      <trkpt lat="48.63956" lon="2.0036">
        <ele>171.6</ele>
        <time>2024-03-14T15:49:49Z</time>
      </trkpt>
      <trkpt lat="48.63956" lon="2.00352">
        <ele>171.6</ele>
        <time>2024-03-14T15:49:50Z</time>
      </trkpt>
      <trkpt lat="48.63956" lon="2.00345">
        <ele>171.6</ele>
        <time>2024-03-14T15:49:51Z</time>
      </trkpt>
      <trkpt lat="48.63956" lon="2.00337">
        <ele>170.6</ele>
        <time>2024-03-14T15:49:52Z</time>
      </trkpt>
      <trkpt lat="48.63955" lon="2.00329">
        <ele>171</ele>
        <time>2024-03-14T15:49:53Z</time>
      </trkpt>
      <trkpt lat="48.63955" lon="2.00322">
        <ele>171</ele>
        <time>2024-03-14T15:49:54Z</time>
      </trkpt>
      <trkpt lat="48.63955" lon="2.00314">
        <ele>171</ele>
        <time>2024-03-14T15:49:55Z</time>
      </trkpt>
      <trkpt lat="48.63954" lon="2.00306">
        <ele>171</ele>
        <time>2024-03-14T15:49:56Z</time>
      </trkpt>
      <trkpt lat="48.63955" lon="2.00298">
        <ele>170.6</ele>
        <time>2024-03-14T15:49:57Z</time>
      </trkpt>
      <trkpt lat="48.63955" lon="2.0029">
        <ele>170.6</ele>
        <time>2024-03-14T15:49:58Z</time>
      </trkpt>
      <trkpt lat="48.63956" lon="2.00282">
        <ele>170.6</ele>
        <time>2024-03-14T15:49:59Z</time>
      </trkpt>
      <trkpt lat="48.63957" lon="2.00274">
        <ele>170.6</ele>
        <time>2024-03-14T15:50:00Z</time>
      </trkpt>
      <trkpt lat="48.63957" lon="2.00266">
        <ele>171.4</ele>
        <time>2024-03-14T15:50:01Z</time>
      </trkpt>
      <trkpt lat="48.63958" lon="2.00258">
        <ele>171.4</ele>
        <time>2024-03-14T15:50:02Z</time>
      </trkpt>
      <trkpt lat="48.63959" lon="2.00251">
        <ele>171.4</ele>
        <time>2024-03-14T15:50:03Z</time>
      </trkpt>
      <trkpt lat="48.63959" lon="2.00243">
        <ele>172.2</ele>
        <time>2024-03-14T15:50:04Z</time>
      </trkpt>
      <trkpt lat="48.63959" lon="2.00235">
        <ele>171.8</ele>
        <time>2024-03-14T15:50:05Z</time>
      </trkpt>
      <trkpt lat="48.63959" lon="2.00227">
        <ele>171.8</ele>
        <time>2024-03-14T15:50:06Z</time>
      </trkpt>
      <trkpt lat="48.63958" lon="2.0022">
        <ele>171.8</ele>
        <time>2024-03-14T15:50:07Z</time>
      </trkpt>
      <trkpt lat="48.63958" lon="2.00212">
        <ele>171.8</ele>
        <time>2024-03-14T15:50:08Z</time>
      </trkpt>
      <trkpt lat="48.63958" lon="2.00205">
        <ele>172</ele>
        <time>2024-03-14T15:50:09Z</time>
      </trkpt>
      <trkpt lat="48.63958" lon="2.00197">
        <ele>172</ele>
        <time>2024-03-14T15:50:10Z</time>
      </trkpt>
      <trkpt lat="48.63957" lon="2.00189">
        <ele>172</ele>
        <time>2024-03-14T15:50:11Z</time>
      </trkpt>
      <trkpt lat="48.63957" lon="2.00181">
        <ele>172</ele>
        <time>2024-03-14T15:50:12Z</time>
      </trkpt>
      <trkpt lat="48.63956" lon="2.00174">
        <ele>172.4</ele>
        <time>2024-03-14T15:50:13Z</time>
      </trkpt>
      <trkpt lat="48.63956" lon="2.00166">
        <ele>172.4</ele>
        <time>2024-03-14T15:50:14Z</time>
      </trkpt>
      <trkpt lat="48.63956" lon="2.00158">
        <ele>172.4</ele>
        <time>2024-03-14T15:50:15Z</time>
      </trkpt>
      <trkpt lat="48.63955" lon="2.00151">
        <ele>173.4</ele>
        <time>2024-03-14T15:50:16Z</time>
      </trkpt>
      <trkpt lat="48.63955" lon="2.00143">
        <ele>173.4</ele>
        <time>2024-03-14T15:50:17Z</time>
      </trkpt>
      <trkpt lat="48.63955" lon="2.00135">
        <ele>173.4</ele>
        <time>2024-03-14T15:50:18Z</time>
      </trkpt>
      <trkpt lat="48.63954" lon="2.00128">
        <ele>173.4</ele>
        <time>2024-03-14T15:50:19Z</time>
      </trkpt>
      <trkpt lat="48.63954" lon="2.0012">
        <ele>173.2</ele>
        <time>2024-03-14T15:50:20Z</time>
      </trkpt>
      <trkpt lat="48.63954" lon="2.00112">
        <ele>173.6</ele>
        <time>2024-03-14T15:50:21Z</time>
      </trkpt>
      <trkpt lat="48.63954" lon="2.00105">
        <ele>173.6</ele>
        <time>2024-03-14T15:50:22Z</time>
      </trkpt>
      <trkpt lat="48.63954" lon="2.00097">
        <ele>173.6</ele>
        <time>2024-03-14T15:50:23Z</time>
      </trkpt>
      <trkpt lat="48.63953" lon="2.00089">
        <ele>174.4</ele>
        <time>2024-03-14T15:50:24Z</time>
      </trkpt>
      <trkpt lat="48.63953" lon="2.00082">
        <ele>174</ele>
        <time>2024-03-14T15:50:25Z</time>
      </trkpt>
      <trkpt lat="48.63954" lon="2.00074">
        <ele>174</ele>
        <time>2024-03-14T15:50:26Z</time>
      </trkpt>
      <trkpt lat="48.63954" lon="2.00066">
        <ele>174</ele>
        <time>2024-03-14T15:50:27Z</time>
      </trkpt>
      <trkpt lat="48.63955" lon="2.00059">
        <ele>174.6</ele>
        <time>2024-03-14T15:50:28Z</time>
      </trkpt>
      <trkpt lat="48.63956" lon="2.00051">
        <ele>174.6</ele>
        <time>2024-03-14T15:50:29Z</time>
      </trkpt>
      <trkpt lat="48.63957" lon="2.00044">
        <ele>174.6</ele>
        <time>2024-03-14T15:50:30Z</time>
      </trkpt>
      <trkpt lat="48.63958" lon="2.00036">
        <ele>174.6</ele>
        <time>2024-03-14T15:50:31Z</time>
      </trkpt>
      <trkpt lat="48.63959" lon="2.00028">
        <ele>174.6</ele>
        <time>2024-03-14T15:50:32Z</time>
      </trkpt>
      <trkpt lat="48.6396" lon="2.00021">
        <ele>175.2</ele>
        <time>2024-03-14T15:50:33Z</time>
      </trkpt>
      <trkpt lat="48.63961" lon="2.00013">
        <ele>175.2</ele>
        <time>2024-03-14T15:50:34Z</time>
      </trkpt>
      <trkpt lat="48.63962" lon="2.00006">
        <ele>175.2</ele>
        <time>2024-03-14T15:50:35Z</time>
      </trkpt>
      <trkpt lat="48.63963" lon="1.99998">
        <ele>175.2</ele>
        <time>2024-03-14T15:50:36Z</time>
      </trkpt>
      <trkpt lat="48.63964" lon="1.9999">
        <ele>175.6</ele>
        <time>2024-03-14T15:50:37Z</time>
      </trkpt>
      <trkpt lat="48.63965" lon="1.99982">
        <ele>175.6</ele>
        <time>2024-03-14T15:50:38Z</time>
      </trkpt>
      <trkpt lat="48.63966" lon="1.99974">
        <ele>175.6</ele>
        <time>2024-03-14T15:50:39Z</time>
      </trkpt>
      <trkpt lat="48.63967" lon="1.99967">
        <ele>175.6</ele>
        <time>2024-03-14T15:50:40Z</time>
      </trkpt>
      <trkpt lat="48.63968" lon="1.99959">
        <ele>176.8</ele>
        <time>2024-03-14T15:50:41Z</time>
      </trkpt>
      <trkpt lat="48.63969" lon="1.99951">
        <ele>176.8</ele>
        <time>2024-03-14T15:50:42Z</time>
      </trkpt>
      <trkpt lat="48.6397" lon="1.99943">
        <ele>176.8</ele>
        <time>2024-03-14T15:50:43Z</time>
      </trkpt>
      <trkpt lat="48.63971" lon="1.99935">
        <ele>176.2</ele>
        <time>2024-03-14T15:50:44Z</time>
      </trkpt>
      <trkpt lat="48.63972" lon="1.99928">
        <ele>176.2</ele>
        <time>2024-03-14T15:50:45Z</time>
      </trkpt>
      <trkpt lat="48.63973" lon="1.9992">
        <ele>176.2</ele>
        <time>2024-03-14T15:50:46Z</time>
      </trkpt>
      <trkpt lat="48.63974" lon="1.99912">
        <ele>176.2</ele>
        <time>2024-03-14T15:50:47Z</time>
      </trkpt>
      <trkpt lat="48.63975" lon="1.99905">
        <ele>176.2</ele>
        <time>2024-03-14T15:50:48Z</time>
      </trkpt>
      <trkpt lat="48.63976" lon="1.99897">
        <ele>175.8</ele>
        <time>2024-03-14T15:50:49Z</time>
      </trkpt>
      <trkpt lat="48.63977" lon="1.9989">
        <ele>175.8</ele>
        <time>2024-03-14T15:50:50Z</time>
      </trkpt>
      <trkpt lat="48.63978" lon="1.99883">
        <ele>175.8</ele>
        <time>2024-03-14T15:50:51Z</time>
      </trkpt>
      <trkpt lat="48.63979" lon="1.99875">
        <ele>175.8</ele>
        <time>2024-03-14T15:50:52Z</time>
      </trkpt>
      <trkpt lat="48.6398" lon="1.99868">
        <ele>176.8</ele>
        <time>2024-03-14T15:50:53Z</time>
      </trkpt>
      <trkpt lat="48.63981" lon="1.99861">
        <ele>176.8</ele>
        <time>2024-03-14T15:50:54Z</time>
      </trkpt>
      <trkpt lat="48.63982" lon="1.99854">
        <ele>176.8</ele>
        <time>2024-03-14T15:50:55Z</time>
      </trkpt>
      <trkpt lat="48.63983" lon="1.99846">
        <ele>176.8</ele>
        <time>2024-03-14T15:50:56Z</time>
      </trkpt>
      <trkpt lat="48.63984" lon="1.99839">
        <ele>177</ele>
        <time>2024-03-14T15:50:57Z</time>
      </trkpt>
      <trkpt lat="48.63985" lon="1.99831">
        <ele>177</ele>
        <time>2024-03-14T15:50:58Z</time>
      </trkpt>
      <trkpt lat="48.63986" lon="1.99824">
        <ele>177</ele>
        <time>2024-03-14T15:50:59Z</time>
      </trkpt>
      <trkpt lat="48.63988" lon="1.99816">
        <ele>177.4</ele>
        <time>2024-03-14T15:51:00Z</time>
      </trkpt>
      <trkpt lat="48.63989" lon="1.99808">
        <ele>177.6</ele>
        <time>2024-03-14T15:51:01Z</time>
      </trkpt>
      <trkpt lat="48.6399" lon="1.99801">
        <ele>177.6</ele>
        <time>2024-03-14T15:51:02Z</time>
      </trkpt>
      <trkpt lat="48.63992" lon="1.99793">
        <ele>177.6</ele>
        <time>2024-03-14T15:51:03Z</time>
      </trkpt>
      <trkpt lat="48.63993" lon="1.99785">
        <ele>177.6</ele>
        <time>2024-03-14T15:51:04Z</time>
      </trkpt>
      <trkpt lat="48.63994" lon="1.99777">
        <ele>177.6</ele>
        <time>2024-03-14T15:51:05Z</time>
      </trkpt>
      <trkpt lat="48.63996" lon="1.99769">
        <ele>177.6</ele>
        <time>2024-03-14T15:51:06Z</time>
      </trkpt>
      <trkpt lat="48.63997" lon="1.99761">
        <ele>177.6</ele>
        <time>2024-03-14T15:51:07Z</time>
      </trkpt>
      <trkpt lat="48.63998" lon="1.99753">
        <ele>177.4</ele>
        <time>2024-03-14T15:51:08Z</time>
      </trkpt>
      <trkpt lat="48.64" lon="1.99744">
        <ele>176.8</ele>
        <time>2024-03-14T15:51:09Z</time>
      </trkpt>
      <trkpt lat="48.64001" lon="1.99736">
        <ele>176.8</ele>
        <time>2024-03-14T15:51:10Z</time>
      </trkpt>
      <trkpt lat="48.64003" lon="1.99727">
        <ele>176.8</ele>
        <time>2024-03-14T15:51:11Z</time>
      </trkpt>
      <trkpt lat="48.64004" lon="1.99719">
        <ele>176.8</ele>
        <time>2024-03-14T15:51:12Z</time>
      </trkpt>
      <trkpt lat="48.64006" lon="1.9971">
        <ele>175.8</ele>
        <time>2024-03-14T15:51:13Z</time>
      </trkpt>
      <trkpt lat="48.64007" lon="1.99702">
        <ele>175.8</ele>
        <time>2024-03-14T15:51:14Z</time>
      </trkpt>
      <trkpt lat="48.64009" lon="1.99693">
        <ele>175.8</ele>
        <time>2024-03-14T15:51:15Z</time>
      </trkpt>
      <trkpt lat="48.6401" lon="1.99684">
        <ele>176.8</ele>
        <time>2024-03-14T15:51:16Z</time>
      </trkpt>
      <trkpt lat="48.64012" lon="1.99675">
        <ele>178.2</ele>
        <time>2024-03-14T15:51:17Z</time>
      </trkpt>
      <trkpt lat="48.64013" lon="1.99666">
        <ele>178.2</ele>
        <time>2024-03-14T15:51:18Z</time>
      </trkpt>
      <trkpt lat="48.64014" lon="1.99657">
        <ele>178.2</ele>
        <time>2024-03-14T15:51:19Z</time>
      </trkpt>
      <trkpt lat="48.64016" lon="1.99648">
        <ele>177.2</ele>
        <time>2024-03-14T15:51:20Z</time>
      </trkpt>
      <trkpt lat="48.64017" lon="1.99638">
        <ele>175.8</ele>
        <time>2024-03-14T15:51:21Z</time>
      </trkpt>
      <trkpt lat="48.64017" lon="1.99628">
        <ele>175.8</ele>
        <time>2024-03-14T15:51:22Z</time>
      </trkpt>
      <trkpt lat="48.64018" lon="1.99618">
        <ele>175.8</ele>
        <time>2024-03-14T15:51:23Z</time>
      </trkpt>
      <trkpt lat="48.64019" lon="1.99608">
        <ele>175.2</ele>
        <time>2024-03-14T15:51:24Z</time>
      </trkpt>
      <trkpt lat="48.64019" lon="1.99598">
        <ele>175.2</ele>
        <time>2024-03-14T15:51:25Z</time>
      </trkpt>
      <trkpt lat="48.6402" lon="1.99588">
        <ele>175.2</ele>
        <time>2024-03-14T15:51:26Z</time>
      </trkpt>
      <trkpt lat="48.6402" lon="1.99577">
        <ele>175.2</ele>
        <time>2024-03-14T15:51:27Z</time>
      </trkpt>
      <trkpt lat="48.6402" lon="1.99566">
        <ele>175.2</ele>
        <time>2024-03-14T15:51:28Z</time>
      </trkpt>
      <trkpt lat="48.64021" lon="1.99555">
        <ele>174.6</ele>
        <time>2024-03-14T15:51:29Z</time>
      </trkpt>
      <trkpt lat="48.64022" lon="1.99543">
        <ele>174.6</ele>
        <time>2024-03-14T15:51:30Z</time>
      </trkpt>
      <trkpt lat="48.64023" lon="1.99531">
        <ele>174.6</ele>
        <time>2024-03-14T15:51:31Z</time>
      </trkpt>
      <trkpt lat="48.64023" lon="1.99519">
        <ele>173.6</ele>
        <time>2024-03-14T15:51:32Z</time>
      </trkpt>
      <trkpt lat="48.64024" lon="1.99507">
        <ele>171.6</ele>
        <time>2024-03-14T15:51:33Z</time>
      </trkpt>
      <trkpt lat="48.64025" lon="1.99494">
        <ele>171.6</ele>
        <time>2024-03-14T15:51:34Z</time>
      </trkpt>
      <trkpt lat="48.64026" lon="1.99482">
        <ele>171.6</ele>
        <time>2024-03-14T15:51:35Z</time>
      </trkpt>
      <trkpt lat="48.64026" lon="1.99469">
        <ele>170.6</ele>
        <time>2024-03-14T15:51:36Z</time>
      </trkpt>
      <trkpt lat="48.64026" lon="1.99458">
        <ele>170.2</ele>
        <time>2024-03-14T15:51:37Z</time>
      </trkpt>
      <trkpt lat="48.64026" lon="1.99446">
        <ele>170.2</ele>
        <time>2024-03-14T15:51:38Z</time>
      </trkpt>
      <trkpt lat="48.64026" lon="1.99435">
        <ele>170.2</ele>
        <time>2024-03-14T15:51:39Z</time>
      </trkpt>
      <trkpt lat="48.64025" lon="1.99425">
        <ele>171.2</ele>
        <time>2024-03-14T15:51:40Z</time>
      </trkpt>
      <trkpt lat="48.64025" lon="1.99414">
        <ele>173.2</ele>
        <time>2024-03-14T15:51:41Z</time>
      </trkpt>
      <trkpt lat="48.64025" lon="1.99404">
        <ele>173.2</ele>
        <time>2024-03-14T15:51:42Z</time>
      </trkpt>
      <trkpt lat="48.64025" lon="1.99395">
        <ele>173.2</ele>
        <time>2024-03-14T15:51:43Z</time>
      </trkpt>
      <trkpt lat="48.64025" lon="1.99385">
        <ele>174.2</ele>
        <time>2024-03-14T15:51:44Z</time>
      </trkpt>
      <trkpt lat="48.64025" lon="1.99376">
        <ele>175.2</ele>
        <time>2024-03-14T15:51:45Z</time>
      </trkpt>
      <trkpt lat="48.64025" lon="1.99367">
        <ele>175.2</ele>
        <time>2024-03-14T15:51:46Z</time>
      </trkpt>
      <trkpt lat="48.64025" lon="1.99359">
        <ele>175.2</ele>
        <time>2024-03-14T15:51:47Z</time>
      </trkpt>
      <trkpt lat="48.64025" lon="1.9935">
        <ele>175.2</ele>
        <time>2024-03-14T15:51:48Z</time>
      </trkpt>
      <trkpt lat="48.64025" lon="1.99341">
        <ele>175.2</ele>
        <time>2024-03-14T15:51:49Z</time>
      </trkpt>
      <trkpt lat="48.64025" lon="1.99333">
        <ele>175.2</ele>
        <time>2024-03-14T15:51:50Z</time>
      </trkpt>
      <trkpt lat="48.64026" lon="1.99325">
        <ele>175.2</ele>
        <time>2024-03-14T15:51:51Z</time>
      </trkpt>
      <trkpt lat="48.64026" lon="1.99316">
        <ele>175.2</ele>
        <time>2024-03-14T15:51:52Z</time>
      </trkpt>
      <trkpt lat="48.64026" lon="1.99308">
        <ele>174</ele>
        <time>2024-03-14T15:51:53Z</time>
      </trkpt>
      <trkpt lat="48.64026" lon="1.993">
        <ele>174</ele>
        <time>2024-03-14T15:51:54Z</time>
      </trkpt>
      <trkpt lat="48.64026" lon="1.99292">
        <ele>174</ele>
        <time>2024-03-14T15:51:55Z</time>
      </trkpt>
      <trkpt lat="48.64026" lon="1.99284">
        <ele>175</ele>
        <time>2024-03-14T15:51:56Z</time>
      </trkpt>
      <trkpt lat="48.64026" lon="1.99276">
        <ele>175.8</ele>
        <time>2024-03-14T15:51:57Z</time>
      </trkpt>
      <trkpt lat="48.64027" lon="1.99268">
        <ele>175.8</ele>
        <time>2024-03-14T15:51:58Z</time>
      </trkpt>
      <trkpt lat="48.64027" lon="1.9926">
        <ele>175.8</ele>
        <time>2024-03-14T15:51:59Z</time>
      </trkpt>
      <trkpt lat="48.64027" lon="1.99252">
        <ele>175.8</ele>
        <time>2024-03-14T15:52:00Z</time>
      </trkpt>
      <trkpt lat="48.64028" lon="1.99244">
        <ele>176.2</ele>
        <time>2024-03-14T15:52:01Z</time>
      </trkpt>
      <trkpt lat="48.64028" lon="1.99236">
        <ele>176.2</ele>
        <time>2024-03-14T15:52:02Z</time>
      </trkpt>
      <trkpt lat="48.64029" lon="1.99228">
        <ele>176.2</ele>
        <time>2024-03-14T15:52:03Z</time>
      </trkpt>
      <trkpt lat="48.6403" lon="1.9922">
        <ele>176.8</ele>
        <time>2024-03-14T15:52:04Z</time>
      </trkpt>
      <trkpt lat="48.64031" lon="1.99213">
        <ele>176.8</ele>
        <time>2024-03-14T15:52:05Z</time>
      </trkpt>
      <trkpt lat="48.64032" lon="1.99205">
        <ele>176.8</ele>
        <time>2024-03-14T15:52:06Z</time>
      </trkpt>
      <trkpt lat="48.64033" lon="1.99197">
        <ele>176.8</ele>
        <time>2024-03-14T15:52:07Z</time>
      </trkpt>
      <trkpt lat="48.64034" lon="1.99189">
        <ele>176.8</ele>
        <time>2024-03-14T15:52:08Z</time>
      </trkpt>
      <trkpt lat="48.64035" lon="1.99181">
        <ele>177.4</ele>
        <time>2024-03-14T15:52:09Z</time>
      </trkpt>
      <trkpt lat="48.64036" lon="1.99174">
        <ele>177.4</ele>
        <time>2024-03-14T15:52:10Z</time>
      </trkpt>
      <trkpt lat="48.64037" lon="1.99166">
        <ele>177.4</ele>
        <time>2024-03-14T15:52:11Z</time>
      </trkpt>
      <trkpt lat="48.64038" lon="1.99158">
        <ele>177.4</ele>
        <time>2024-03-14T15:52:12Z</time>
      </trkpt>
      <trkpt lat="48.64039" lon="1.99151">
        <ele>177.6</ele>
        <time>2024-03-14T15:52:13Z</time>
      </trkpt>
      <trkpt lat="48.6404" lon="1.99143">
        <ele>177.6</ele>
        <time>2024-03-14T15:52:14Z</time>
      </trkpt>
      <trkpt lat="48.64041" lon="1.99135">
        <ele>177.6</ele>
        <time>2024-03-14T15:52:15Z</time>
      </trkpt>
      <trkpt lat="48.64042" lon="1.99128">
        <ele>177.6</ele>
        <time>2024-03-14T15:52:16Z</time>
      </trkpt>
      <trkpt lat="48.64043" lon="1.9912">
        <ele>178.4</ele>
        <time>2024-03-14T15:52:17Z</time>
      </trkpt>
      <trkpt lat="48.64044" lon="1.99112">
        <ele>178.4</ele>
        <time>2024-03-14T15:52:18Z</time>
      </trkpt>
      <trkpt lat="48.64045" lon="1.99105">
        <ele>178.4</ele>
        <time>2024-03-14T15:52:19Z</time>
      </trkpt>
      <trkpt lat="48.64046" lon="1.99097">
        <ele>178.4</ele>
        <time>2024-03-14T15:52:20Z</time>
      </trkpt>
      <trkpt lat="48.64047" lon="1.9909">
        <ele>178.6</ele>
        <time>2024-03-14T15:52:21Z</time>
      </trkpt>
      <trkpt lat="48.64048" lon="1.99082">
        <ele>178.6</ele>
        <time>2024-03-14T15:52:22Z</time>
      </trkpt>
      <trkpt lat="48.64049" lon="1.99075">
        <ele>178.6</ele>
        <time>2024-03-14T15:52:23Z</time>
      </trkpt>
      <trkpt lat="48.6405" lon="1.99067">
        <ele>179.2</ele>
        <time>2024-03-14T15:52:24Z</time>
      </trkpt>
      <trkpt lat="48.64051" lon="1.9906">
        <ele>179.8</ele>
        <time>2024-03-14T15:52:25Z</time>
      </trkpt>
      <trkpt lat="48.64052" lon="1.99052">
        <ele>179.8</ele>
        <time>2024-03-14T15:52:26Z</time>
      </trkpt>
      <trkpt lat="48.64053" lon="1.99044">
        <ele>179.8</ele>
        <time>2024-03-14T15:52:27Z</time>
      </trkpt>
      <trkpt lat="48.64053" lon="1.99037">
        <ele>179.8</ele>
        <time>2024-03-14T15:52:28Z</time>
      </trkpt>
      <trkpt lat="48.64054" lon="1.99029">
        <ele>179.6</ele>
        <time>2024-03-14T15:52:29Z</time>
      </trkpt>
      <trkpt lat="48.64055" lon="1.99021">
        <ele>179.6</ele>
        <time>2024-03-14T15:52:30Z</time>
      </trkpt>
      <trkpt lat="48.64056" lon="1.99013">
        <ele>179.6</ele>
        <time>2024-03-14T15:52:31Z</time>
      </trkpt>
      <trkpt lat="48.64057" lon="1.99005">
        <ele>179.6</ele>
        <time>2024-03-14T15:52:32Z</time>
      </trkpt>
      <trkpt lat="48.64058" lon="1.98998">
        <ele>180</ele>
        <time>2024-03-14T15:52:33Z</time>
      </trkpt>
      <trkpt lat="48.64059" lon="1.9899">
        <ele>180</ele>
        <time>2024-03-14T15:52:34Z</time>
      </trkpt>
      <trkpt lat="48.6406" lon="1.98982">
        <ele>180</ele>
        <time>2024-03-14T15:52:35Z</time>
      </trkpt>
      <trkpt lat="48.64061" lon="1.98974">
        <ele>180.4</ele>
        <time>2024-03-14T15:52:36Z</time>
      </trkpt>
      <trkpt lat="48.64062" lon="1.98966">
        <ele>180</ele>
        <time>2024-03-14T15:52:37Z</time>
      </trkpt>
      <trkpt lat="48.64063" lon="1.98958">
        <ele>180</ele>
        <time>2024-03-14T15:52:38Z</time>
      </trkpt>
      <trkpt lat="48.64064" lon="1.9895">
        <ele>180</ele>
        <time>2024-03-14T15:52:39Z</time>
      </trkpt>
      <trkpt lat="48.64065" lon="1.98942">
        <ele>180</ele>
        <time>2024-03-14T15:52:40Z</time>
      </trkpt>
      <trkpt lat="48.64066" lon="1.98934">
        <ele>180.4</ele>
        <time>2024-03-14T15:52:41Z</time>
      </trkpt>
      <trkpt lat="48.64067" lon="1.98926">
        <ele>180.4</ele>
        <time>2024-03-14T15:52:42Z</time>
      </trkpt>
      <trkpt lat="48.64068" lon="1.98919">
        <ele>180.4</ele>
        <time>2024-03-14T15:52:43Z</time>
      </trkpt>
      <trkpt lat="48.64069" lon="1.98911">
        <ele>180.6</ele>
        <time>2024-03-14T15:52:44Z</time>
      </trkpt>
      <trkpt lat="48.6407" lon="1.98903">
        <ele>180</ele>
        <time>2024-03-14T15:52:45Z</time>
      </trkpt>
      <trkpt lat="48.64072" lon="1.98895">
        <ele>180</ele>
        <time>2024-03-14T15:52:46Z</time>
      </trkpt>
      <trkpt lat="48.64073" lon="1.98887">
        <ele>180</ele>
        <time>2024-03-14T15:52:47Z</time>
      </trkpt>
      <trkpt lat="48.64074" lon="1.98879">
        <ele>180</ele>
        <time>2024-03-14T15:52:48Z</time>
      </trkpt>
      <trkpt lat="48.64075" lon="1.9887">
        <ele>180.4</ele>
        <time>2024-03-14T15:52:49Z</time>
      </trkpt>
      <trkpt lat="48.64076" lon="1.98862">
        <ele>180.4</ele>
        <time>2024-03-14T15:52:50Z</time>
      </trkpt>
      <trkpt lat="48.64077" lon="1.98854">
        <ele>180.4</ele>
        <time>2024-03-14T15:52:51Z</time>
      </trkpt>
      <trkpt lat="48.64079" lon="1.98845">
        <ele>180.2</ele>
        <time>2024-03-14T15:52:52Z</time>
      </trkpt>
      <trkpt lat="48.6408" lon="1.98837">
        <ele>179.8</ele>
        <time>2024-03-14T15:52:53Z</time>
      </trkpt>
      <trkpt lat="48.64082" lon="1.98828">
        <ele>179.8</ele>
        <time>2024-03-14T15:52:54Z</time>
      </trkpt>
      <trkpt lat="48.64084" lon="1.9882">
        <ele>179.8</ele>
        <time>2024-03-14T15:52:55Z</time>
      </trkpt>
      <trkpt lat="48.64086" lon="1.98812">
        <ele>179.8</ele>
        <time>2024-03-14T15:52:56Z</time>
      </trkpt>
      <trkpt lat="48.64088" lon="1.98803">
        <ele>180</ele>
        <time>2024-03-14T15:52:57Z</time>
      </trkpt>
      <trkpt lat="48.6409" lon="1.98795">
        <ele>180</ele>
        <time>2024-03-14T15:52:58Z</time>
      </trkpt>
      <trkpt lat="48.64093" lon="1.98786">
        <ele>180</ele>
        <time>2024-03-14T15:52:59Z</time>
      </trkpt>
      <trkpt lat="48.64095" lon="1.98778">
        <ele>180</ele>
        <time>2024-03-14T15:53:00Z</time>
      </trkpt>
      <trkpt lat="48.64096" lon="1.98769">
        <ele>180.6</ele>
        <time>2024-03-14T15:53:01Z</time>
      </trkpt>
      <trkpt lat="48.64098" lon="1.98761">
        <ele>180.6</ele>
        <time>2024-03-14T15:53:02Z</time>
      </trkpt>
      <trkpt lat="48.641" lon="1.98753">
        <ele>180.6</ele>
        <time>2024-03-14T15:53:03Z</time>
      </trkpt>
      <trkpt lat="48.64101" lon="1.98746">
        <ele>180.6</ele>
        <time>2024-03-14T15:53:04Z</time>
      </trkpt>
      <trkpt lat="48.64101" lon="1.9874">
        <ele>181.2</ele>
        <time>2024-03-14T15:53:05Z</time>
      </trkpt>
      <trkpt lat="48.64102" lon="1.98735">
        <ele>181.2</ele>
        <time>2024-03-14T15:53:06Z</time>
      </trkpt>
      <trkpt lat="48.64103" lon="1.98731">
        <ele>181.2</ele>
        <time>2024-03-14T15:53:07Z</time>
      </trkpt>
      <trkpt lat="48.64103" lon="1.98726">
        <ele>181.8</ele>
        <time>2024-03-14T15:53:08Z</time>
      </trkpt>
      <trkpt lat="48.64104" lon="1.98723">
        <ele>181.8</ele>
        <time>2024-03-14T15:53:09Z</time>
      </trkpt>
      <trkpt lat="48.64104" lon="1.98721">
        <ele>181.8</ele>
        <time>2024-03-14T15:53:10Z</time>
      </trkpt>
      <trkpt lat="48.64104" lon="1.98719">
        <ele>181.8</ele>
        <time>2024-03-14T15:53:11Z</time>
      </trkpt>
      <trkpt lat="48.64104" lon="1.98716">
        <ele>182.4</ele>
        <time>2024-03-14T15:53:12Z</time>
      </trkpt>
      <trkpt lat="48.64104" lon="1.98714">
        <ele>182.4</ele>
        <time>2024-03-14T15:53:13Z</time>
      </trkpt>
      <trkpt lat="48.64104" lon="1.98711">
        <ele>182.2</ele>
        <time>2024-03-14T15:53:36Z</time>
      </trkpt>
      <trkpt lat="48.64104" lon="1.98709">
        <ele>182</ele>
        <time>2024-03-14T15:53:37Z</time>
      </trkpt>
      <trkpt lat="48.64104" lon="1.98703">
        <ele>182</ele>
        <time>2024-03-14T15:53:38Z</time>
      </trkpt>
      <trkpt lat="48.64105" lon="1.98697">
        <ele>182</ele>
        <time>2024-03-14T15:53:39Z</time>
      </trkpt>
      <trkpt lat="48.64106" lon="1.9869">
        <ele>182</ele>
        <time>2024-03-14T15:53:40Z</time>
      </trkpt>
      <trkpt lat="48.64106" lon="1.98682">
        <ele>181.4</ele>
        <time>2024-03-14T15:53:41Z</time>
      </trkpt>
      <trkpt lat="48.64108" lon="1.98674">
        <ele>181.4</ele>
        <time>2024-03-14T15:53:42Z</time>
      </trkpt>
      <trkpt lat="48.64109" lon="1.98666">
        <ele>181.4</ele>
        <time>2024-03-14T15:53:43Z</time>
      </trkpt>
      <trkpt lat="48.64112" lon="1.98658">
        <ele>180.4</ele>
        <time>2024-03-14T15:53:44Z</time>
      </trkpt>
      <trkpt lat="48.64115" lon="1.9865">
        <ele>179.6</ele>
        <time>2024-03-14T15:53:45Z</time>
      </trkpt>
      <trkpt lat="48.64118" lon="1.98642">
        <ele>179.6</ele>
        <time>2024-03-14T15:53:46Z</time>
      </trkpt>
      <trkpt lat="48.64123" lon="1.98635">
        <ele>179.6</ele>
        <time>2024-03-14T15:53:47Z</time>
      </trkpt>
      <trkpt lat="48.64128" lon="1.98629">
        <ele>179.6</ele>
        <time>2024-03-14T15:53:48Z</time>
      </trkpt>
      <trkpt lat="48.64133" lon="1.98624">
        <ele>179.8</ele>
        <time>2024-03-14T15:53:49Z</time>
      </trkpt>
      <trkpt lat="48.64139" lon="1.9862">
        <ele>179.8</ele>
        <time>2024-03-14T15:53:50Z</time>
      </trkpt>
      <trkpt lat="48.64145" lon="1.98616">
        <ele>179.8</ele>
        <time>2024-03-14T15:53:51Z</time>
      </trkpt>
      <trkpt lat="48.64151" lon="1.98612">
        <ele>180</ele>
        <time>2024-03-14T15:53:52Z</time>
      </trkpt>
      <trkpt lat="48.64157" lon="1.98609">
        <ele>180.2</ele>
        <time>2024-03-14T15:53:53Z</time>
      </trkpt>
      <trkpt lat="48.64163" lon="1.98605">
        <ele>180.2</ele>
        <time>2024-03-14T15:53:54Z</time>
      </trkpt>
      <trkpt lat="48.64169" lon="1.98601">
        <ele>180.2</ele>
        <time>2024-03-14T15:53:55Z</time>
      </trkpt>
      <trkpt lat="48.64175" lon="1.98598">
        <ele>180.2</ele>
        <time>2024-03-14T15:53:56Z</time>
      </trkpt>
      <trkpt lat="48.64181" lon="1.98594">
        <ele>180.4</ele>
        <time>2024-03-14T15:53:57Z</time>
      </trkpt>
      <trkpt lat="48.64187" lon="1.98591">
        <ele>180.4</ele>
        <time>2024-03-14T15:53:58Z</time>
      </trkpt>
      <trkpt lat="48.64193" lon="1.98587">
        <ele>180.4</ele>
        <time>2024-03-14T15:53:59Z</time>
      </trkpt>
      <trkpt lat="48.64199" lon="1.98583">
        <ele>180.6</ele>
        <time>2024-03-14T15:54:00Z</time>
      </trkpt>
      <trkpt lat="48.64205" lon="1.98579">
        <ele>180.6</ele>
        <time>2024-03-14T15:54:01Z</time>
      </trkpt>
      <trkpt lat="48.64211" lon="1.98574">
        <ele>180.6</ele>
        <time>2024-03-14T15:54:02Z</time>
      </trkpt>
      <trkpt lat="48.64217" lon="1.98569">
        <ele>180.6</ele>
        <time>2024-03-14T15:54:03Z</time>
      </trkpt>
      <trkpt lat="48.64223" lon="1.98564">
        <ele>179.6</ele>
        <time>2024-03-14T15:54:04Z</time>
      </trkpt>
      <trkpt lat="48.64229" lon="1.98559">
        <ele>179.4</ele>
        <time>2024-03-14T15:54:05Z</time>
      </trkpt>
      <trkpt lat="48.64236" lon="1.98554">
        <ele>179.4</ele>
        <time>2024-03-14T15:54:06Z</time>
      </trkpt>
      <trkpt lat="48.64242" lon="1.98549">
        <ele>179.4</ele>
        <time>2024-03-14T15:54:07Z</time>
      </trkpt>
      <trkpt lat="48.64248" lon="1.98544">
        <ele>179.4</ele>
        <time>2024-03-14T15:54:08Z</time>
      </trkpt>
      <trkpt lat="48.64254" lon="1.98539">
        <ele>179</ele>
        <time>2024-03-14T15:54:09Z</time>
      </trkpt>
      <trkpt lat="48.6426" lon="1.98534">
        <ele>179</ele>
        <time>2024-03-14T15:54:10Z</time>
      </trkpt>
      <trkpt lat="48.64266" lon="1.98529">
        <ele>179</ele>
        <time>2024-03-14T15:54:11Z</time>
      </trkpt>
      <trkpt lat="48.64272" lon="1.98525">
        <ele>179</ele>
        <time>2024-03-14T15:54:12Z</time>
      </trkpt>
      <trkpt lat="48.64278" lon="1.9852">
        <ele>179.4</ele>
        <time>2024-03-14T15:54:13Z</time>
      </trkpt>
      <trkpt lat="48.64284" lon="1.98514">
        <ele>179.4</ele>
        <time>2024-03-14T15:54:14Z</time>
      </trkpt>
      <trkpt lat="48.6429" lon="1.98509">
        <ele>179.4</ele>
        <time>2024-03-14T15:54:15Z</time>
      </trkpt>
      <trkpt lat="48.64297" lon="1.98504">
        <ele>179.4</ele>
        <time>2024-03-14T15:54:16Z</time>
      </trkpt>
      <trkpt lat="48.64303" lon="1.98499">
        <ele>178.8</ele>
        <time>2024-03-14T15:54:17Z</time>
      </trkpt>
      <trkpt lat="48.64309" lon="1.98494">
        <ele>178.8</ele>
        <time>2024-03-14T15:54:18Z</time>
      </trkpt>
      <trkpt lat="48.64315" lon="1.98489">
        <ele>178.8</ele>
        <time>2024-03-14T15:54:19Z</time>
      </trkpt>
      <trkpt lat="48.64322" lon="1.98484">
        <ele>179.2</ele>
        <time>2024-03-14T15:54:20Z</time>
      </trkpt>
      <trkpt lat="48.64328" lon="1.98479">
        <ele>179</ele>
        <time>2024-03-14T15:54:21Z</time>
      </trkpt>
      <trkpt lat="48.64334" lon="1.98474">
        <ele>179</ele>
        <time>2024-03-14T15:54:22Z</time>
      </trkpt>
      <trkpt lat="48.64341" lon="1.98469">
        <ele>179</ele>
        <time>2024-03-14T15:54:23Z</time>
      </trkpt>
      <trkpt lat="48.64347" lon="1.98464">
        <ele>178.2</ele>
        <time>2024-03-14T15:54:24Z</time>
      </trkpt>
      <trkpt lat="48.64354" lon="1.98459">
        <ele>178.2</ele>
        <time>2024-03-14T15:54:25Z</time>
      </trkpt>
      <trkpt lat="48.6436" lon="1.98453">
        <ele>178.2</ele>
        <time>2024-03-14T15:54:26Z</time>
      </trkpt>
      <trkpt lat="48.64367" lon="1.98448">
        <ele>178.2</ele>
        <time>2024-03-14T15:54:27Z</time>
      </trkpt>
      <trkpt lat="48.64373" lon="1.98443">
        <ele>178.2</ele>
        <time>2024-03-14T15:54:28Z</time>
      </trkpt>
      <trkpt lat="48.6438" lon="1.98437">
        <ele>177.6</ele>
        <time>2024-03-14T15:54:29Z</time>
      </trkpt>
      <trkpt lat="48.64386" lon="1.98432">
        <ele>177.6</ele>
        <time>2024-03-14T15:54:30Z</time>
      </trkpt>
      <trkpt lat="48.64393" lon="1.98426">
        <ele>177.6</ele>
        <time>2024-03-14T15:54:31Z</time>
      </trkpt>
      <trkpt lat="48.64399" lon="1.98421">
        <ele>177.6</ele>
        <time>2024-03-14T15:54:32Z</time>
      </trkpt>
      <trkpt lat="48.64406" lon="1.98415">
        <ele>177.6</ele>
        <time>2024-03-14T15:54:33Z</time>
      </trkpt>
      <trkpt lat="48.64413" lon="1.9841">
        <ele>177.6</ele>
        <time>2024-03-14T15:54:34Z</time>
      </trkpt>
      <trkpt lat="48.6442" lon="1.98405">
        <ele>177.6</ele>
        <time>2024-03-14T15:54:35Z</time>
      </trkpt>
      <trkpt lat="48.64427" lon="1.98399">
        <ele>177.6</ele>
        <time>2024-03-14T15:54:36Z</time>
      </trkpt>
      <trkpt lat="48.64433" lon="1.98394">
        <ele>177.2</ele>
        <time>2024-03-14T15:54:37Z</time>
      </trkpt>
      <trkpt lat="48.6444" lon="1.98389">
        <ele>177.2</ele>
        <time>2024-03-14T15:54:38Z</time>
      </trkpt>
      <trkpt lat="48.64447" lon="1.98383">
        <ele>177.2</ele>
        <time>2024-03-14T15:54:39Z</time>
      </trkpt>
      <trkpt lat="48.64454" lon="1.98377">
        <ele>177.2</ele>
        <time>2024-03-14T15:54:40Z</time>
      </trkpt>
      <trkpt lat="48.64461" lon="1.98372">
        <ele>176.4</ele>
        <time>2024-03-14T15:54:41Z</time>
      </trkpt>
      <trkpt lat="48.64467" lon="1.98366">
        <ele>176.4</ele>
        <time>2024-03-14T15:54:42Z</time>
      </trkpt>
      <trkpt lat="48.64474" lon="1.98361">
        <ele>176.4</ele>
        <time>2024-03-14T15:54:43Z</time>
      </trkpt>
      <trkpt lat="48.64481" lon="1.98356">
        <ele>175.6</ele>
        <time>2024-03-14T15:54:44Z</time>
      </trkpt>
      <trkpt lat="48.64488" lon="1.9835">
        <ele>175.8</ele>
        <time>2024-03-14T15:54:45Z</time>
      </trkpt>
      <trkpt lat="48.64494" lon="1.98344">
        <ele>175.8</ele>
        <time>2024-03-14T15:54:46Z</time>
      </trkpt>
      <trkpt lat="48.64501" lon="1.98339">
        <ele>175.8</ele>
        <time>2024-03-14T15:54:47Z</time>
      </trkpt>
      <trkpt lat="48.64507" lon="1.98333">
        <ele>175.8</ele>
        <time>2024-03-14T15:54:48Z</time>
      </trkpt>
      <trkpt lat="48.64514" lon="1.98328">
        <ele>176.4</ele>
        <time>2024-03-14T15:54:49Z</time>
      </trkpt>
      <trkpt lat="48.6452" lon="1.98323">
        <ele>176.4</ele>
        <time>2024-03-14T15:54:50Z</time>
      </trkpt>
      <trkpt lat="48.64526" lon="1.98318">
        <ele>176.4</ele>
        <time>2024-03-14T15:54:51Z</time>
      </trkpt>
      <trkpt lat="48.64532" lon="1.98313">
        <ele>176.8</ele>
        <time>2024-03-14T15:54:52Z</time>
      </trkpt>
      <trkpt lat="48.64538" lon="1.98308">
        <ele>176.6</ele>
        <time>2024-03-14T15:54:53Z</time>
      </trkpt>
      <trkpt lat="48.64544" lon="1.98303">
        <ele>176.6</ele>
        <time>2024-03-14T15:54:54Z</time>
      </trkpt>
      <trkpt lat="48.6455" lon="1.98298">
        <ele>176.6</ele>
        <time>2024-03-14T15:54:55Z</time>
      </trkpt>
      <trkpt lat="48.64556" lon="1.98294">
        <ele>177</ele>
        <time>2024-03-14T15:54:56Z</time>
      </trkpt>
      <trkpt lat="48.64562" lon="1.98289">
        <ele>177.2</ele>
        <time>2024-03-14T15:54:57Z</time>
      </trkpt>
      <trkpt lat="48.64568" lon="1.98285">
        <ele>177.2</ele>
        <time>2024-03-14T15:54:58Z</time>
      </trkpt>
      <trkpt lat="48.64573" lon="1.9828">
        <ele>177.2</ele>
        <time>2024-03-14T15:54:59Z</time>
      </trkpt>
      <trkpt lat="48.64579" lon="1.98276">
        <ele>177.2</ele>
        <time>2024-03-14T15:55:00Z</time>
      </trkpt>
      <trkpt lat="48.64584" lon="1.98271">
        <ele>177.8</ele>
        <time>2024-03-14T15:55:01Z</time>
      </trkpt>
      <trkpt lat="48.64589" lon="1.98267">
        <ele>177.8</ele>
        <time>2024-03-14T15:55:02Z</time>
      </trkpt>
      <trkpt lat="48.64595" lon="1.98263">
        <ele>177.8</ele>
        <time>2024-03-14T15:55:03Z</time>
      </trkpt>
      <trkpt lat="48.646" lon="1.98259">
        <ele>177.8</ele>
        <time>2024-03-14T15:55:04Z</time>
      </trkpt>
      <trkpt lat="48.64606" lon="1.98254">
        <ele>177.8</ele>
        <time>2024-03-14T15:55:05Z</time>
      </trkpt>
      <trkpt lat="48.64611" lon="1.9825">
        <ele>177.8</ele>
        <time>2024-03-14T15:55:06Z</time>
      </trkpt>
      <trkpt lat="48.64617" lon="1.98246">
        <ele>177.8</ele>
        <time>2024-03-14T15:55:07Z</time>
      </trkpt>
      <trkpt lat="48.64622" lon="1.98242">
        <ele>178</ele>
        <time>2024-03-14T15:55:08Z</time>
      </trkpt>
      <trkpt lat="48.64628" lon="1.98239">
        <ele>177.6</ele>
        <time>2024-03-14T15:55:09Z</time>
      </trkpt>
      <trkpt lat="48.64634" lon="1.98235">
        <ele>177.6</ele>
        <time>2024-03-14T15:55:10Z</time>
      </trkpt>
      <trkpt lat="48.6464" lon="1.98232">
        <ele>177.6</ele>
        <time>2024-03-14T15:55:11Z</time>
      </trkpt>
      <trkpt lat="48.64647" lon="1.9823">
        <ele>177.6</ele>
        <time>2024-03-14T15:55:12Z</time>
      </trkpt>
      <trkpt lat="48.64653" lon="1.98227">
        <ele>177.6</ele>
        <time>2024-03-14T15:55:13Z</time>
      </trkpt>
      <trkpt lat="48.64659" lon="1.98225">
        <ele>177.6</ele>
        <time>2024-03-14T15:55:14Z</time>
      </trkpt>
      <trkpt lat="48.64666" lon="1.98223">
        <ele>177.6</ele>
        <time>2024-03-14T15:55:15Z</time>
      </trkpt>
      <trkpt lat="48.64672" lon="1.98222">
        <ele>177.6</ele>
        <time>2024-03-14T15:55:16Z</time>
      </trkpt>
      <trkpt lat="48.64679" lon="1.9822">
        <ele>177.4</ele>
        <time>2024-03-14T15:55:17Z</time>
      </trkpt>
      <trkpt lat="48.64685" lon="1.98219">
        <ele>177.4</ele>
        <time>2024-03-14T15:55:18Z</time>
      </trkpt>
      <trkpt lat="48.64692" lon="1.98218">
        <ele>177.4</ele>
        <time>2024-03-14T15:55:19Z</time>
      </trkpt>
      <trkpt lat="48.64699" lon="1.98216">
        <ele>177.4</ele>
        <time>2024-03-14T15:55:20Z</time>
      </trkpt>
      <trkpt lat="48.64706" lon="1.98215">
        <ele>176.8</ele>
        <time>2024-03-14T15:55:21Z</time>
      </trkpt>
      <trkpt lat="48.64712" lon="1.98214">
        <ele>176.8</ele>
        <time>2024-03-14T15:55:22Z</time>
      </trkpt>
      <trkpt lat="48.64719" lon="1.98213">
        <ele>176.8</ele>
        <time>2024-03-14T15:55:23Z</time>
      </trkpt>
      <trkpt lat="48.64726" lon="1.98212">
        <ele>176.8</ele>
        <time>2024-03-14T15:55:24Z</time>
      </trkpt>
      <trkpt lat="48.64734" lon="1.9821">
        <ele>176</ele>
        <time>2024-03-14T15:55:25Z</time>
      </trkpt>
      <trkpt lat="48.64741" lon="1.98208">
        <ele>176</ele>
        <time>2024-03-14T15:55:26Z</time>
      </trkpt>
      <trkpt lat="48.64748" lon="1.98206">
        <ele>176</ele>
        <time>2024-03-14T15:55:27Z</time>
      </trkpt>
      <trkpt lat="48.64755" lon="1.98203">
        <ele>176.2</ele>
        <time>2024-03-14T15:55:28Z</time>
      </trkpt>
      <trkpt lat="48.64761" lon="1.982">
        <ele>176</ele>
        <time>2024-03-14T15:55:29Z</time>
      </trkpt>
      <trkpt lat="48.64768" lon="1.98196">
        <ele>176</ele>
        <time>2024-03-14T15:55:30Z</time>
      </trkpt>
      <trkpt lat="48.64774" lon="1.98192">
        <ele>176</ele>
        <time>2024-03-14T15:55:31Z</time>
      </trkpt>
      <trkpt lat="48.64781" lon="1.98188">
        <ele>176</ele>
        <time>2024-03-14T15:55:32Z</time>
      </trkpt>
      <trkpt lat="48.64787" lon="1.98183">
        <ele>175.2</ele>
        <time>2024-03-14T15:55:33Z</time>
      </trkpt>
      <trkpt lat="48.64793" lon="1.98179">
        <ele>175.2</ele>
        <time>2024-03-14T15:55:34Z</time>
      </trkpt>
      <trkpt lat="48.64799" lon="1.98174">
        <ele>175.2</ele>
        <time>2024-03-14T15:55:35Z</time>
      </trkpt>
      <trkpt lat="48.64803" lon="1.98167">
        <ele>174.2</ele>
        <time>2024-03-14T15:55:36Z</time>
      </trkpt>
      <trkpt lat="48.64809" lon="1.98158">
        <ele>173.6</ele>
        <time>2024-03-14T15:55:37Z</time>
      </trkpt>
      <trkpt lat="48.64815" lon="1.98151">
        <ele>173.6</ele>
        <time>2024-03-14T15:55:38Z</time>
      </trkpt>
      <trkpt lat="48.64821" lon="1.98143">
        <ele>173.6</ele>
        <time>2024-03-14T15:55:39Z</time>
      </trkpt>
      <trkpt lat="48.64827" lon="1.98136">
        <ele>173.6</ele>
        <time>2024-03-14T15:55:40Z</time>
      </trkpt>
      <trkpt lat="48.64832" lon="1.98128">
        <ele>174</ele>
        <time>2024-03-14T15:55:41Z</time>
      </trkpt>
      <trkpt lat="48.64838" lon="1.98121">
        <ele>174</ele>
        <time>2024-03-14T15:55:42Z</time>
      </trkpt>
      <trkpt lat="48.64844" lon="1.98113">
        <ele>174</ele>
        <time>2024-03-14T15:55:43Z</time>
      </trkpt>
      <trkpt lat="48.6485" lon="1.98106">
        <ele>174</ele>
        <time>2024-03-14T15:55:44Z</time>
      </trkpt>
      <trkpt lat="48.64855" lon="1.98098">
        <ele>174.4</ele>
        <time>2024-03-14T15:55:45Z</time>
      </trkpt>
      <trkpt lat="48.64861" lon="1.98091">
        <ele>174.4</ele>
        <time>2024-03-14T15:55:46Z</time>
      </trkpt>
      <trkpt lat="48.64866" lon="1.98083">
        <ele>174.4</ele>
        <time>2024-03-14T15:55:47Z</time>
      </trkpt>
      <trkpt lat="48.64872" lon="1.98075">
        <ele>174.4</ele>
        <time>2024-03-14T15:55:48Z</time>
      </trkpt>
      <trkpt lat="48.64877" lon="1.98067">
        <ele>175.2</ele>
        <time>2024-03-14T15:55:49Z</time>
      </trkpt>
      <trkpt lat="48.64882" lon="1.98059">
        <ele>175.2</ele>
        <time>2024-03-14T15:55:50Z</time>
      </trkpt>
      <trkpt lat="48.64887" lon="1.98052">
        <ele>175.2</ele>
        <time>2024-03-14T15:55:51Z</time>
      </trkpt>
      <trkpt lat="48.64892" lon="1.98044">
        <ele>175.2</ele>
        <time>2024-03-14T15:55:52Z</time>
      </trkpt>
      <trkpt lat="48.64897" lon="1.98037">
        <ele>175.2</ele>
        <time>2024-03-14T15:55:53Z</time>
      </trkpt>
      <trkpt lat="48.64902" lon="1.9803">
        <ele>175.2</ele>
        <time>2024-03-14T15:55:54Z</time>
      </trkpt>
      <trkpt lat="48.64907" lon="1.98023">
        <ele>175.2</ele>
        <time>2024-03-14T15:55:55Z</time>
      </trkpt>
      <trkpt lat="48.64911" lon="1.98016">
        <ele>176.2</ele>
        <time>2024-03-14T15:55:56Z</time>
      </trkpt>
      <trkpt lat="48.64916" lon="1.98009">
        <ele>176.6</ele>
        <time>2024-03-14T15:55:57Z</time>
      </trkpt>
      <trkpt lat="48.64921" lon="1.98002">
        <ele>176.6</ele>
        <time>2024-03-14T15:55:58Z</time>
      </trkpt>
      <trkpt lat="48.64925" lon="1.97996">
        <ele>176.6</ele>
        <time>2024-03-14T15:55:59Z</time>
      </trkpt>
      <trkpt lat="48.6493" lon="1.97989">
        <ele>176.2</ele>
        <time>2024-03-14T15:56:00Z</time>
      </trkpt>
      <trkpt lat="48.64934" lon="1.97983">
        <ele>176.6</ele>
        <time>2024-03-14T15:56:01Z</time>
      </trkpt>
      <trkpt lat="48.64939" lon="1.97976">
        <ele>176.6</ele>
        <time>2024-03-14T15:56:02Z</time>
      </trkpt>
      <trkpt lat="48.64943" lon="1.9797">
        <ele>176.6</ele>
        <time>2024-03-14T15:56:03Z</time>
      </trkpt>
      <trkpt lat="48.64947" lon="1.97963">
        <ele>176.8</ele>
        <time>2024-03-14T15:56:04Z</time>
      </trkpt>
      <trkpt lat="48.64951" lon="1.97956">
        <ele>176.8</ele>
        <time>2024-03-14T15:56:05Z</time>
      </trkpt>
      <trkpt lat="48.64955" lon="1.97949">
        <ele>176.8</ele>
        <time>2024-03-14T15:56:06Z</time>
      </trkpt>
      <trkpt lat="48.64958" lon="1.97941">
        <ele>176.8</ele>
        <time>2024-03-14T15:56:07Z</time>
      </trkpt>
      <trkpt lat="48.64959" lon="1.97932">
        <ele>176.8</ele>
        <time>2024-03-14T15:56:08Z</time>
      </trkpt>
      <trkpt lat="48.64959" lon="1.97923">
        <ele>175</ele>
        <time>2024-03-14T15:56:09Z</time>
      </trkpt>
      <trkpt lat="48.64958" lon="1.97914">
        <ele>175</ele>
        <time>2024-03-14T15:56:10Z</time>
      </trkpt>
      <trkpt lat="48.64954" lon="1.97907">
        <ele>175</ele>
        <time>2024-03-14T15:56:11Z</time>
      </trkpt>
      <trkpt lat="48.6495" lon="1.97901">
        <ele>175</ele>
        <time>2024-03-14T15:56:12Z</time>
      </trkpt>
      <trkpt lat="48.64946" lon="1.97895">
        <ele>175.2</ele>
        <time>2024-03-14T15:56:13Z</time>
      </trkpt>
      <trkpt lat="48.64942" lon="1.97888">
        <ele>175.2</ele>
        <time>2024-03-14T15:56:14Z</time>
      </trkpt>
      <trkpt lat="48.64937" lon="1.97882">
        <ele>175.2</ele>
        <time>2024-03-14T15:56:15Z</time>
      </trkpt>
      <trkpt lat="48.64933" lon="1.97876">
        <ele>174.2</ele>
        <time>2024-03-14T15:56:16Z</time>
      </trkpt>
      <trkpt lat="48.64929" lon="1.9787">
        <ele>174.4</ele>
        <time>2024-03-14T15:56:17Z</time>
      </trkpt>
      <trkpt lat="48.64924" lon="1.97863">
        <ele>174.4</ele>
        <time>2024-03-14T15:56:18Z</time>
      </trkpt>
      <trkpt lat="48.6492" lon="1.97857">
        <ele>174.4</ele>
        <time>2024-03-14T15:56:19Z</time>
      </trkpt>
      <trkpt lat="48.64915" lon="1.97851">
        <ele>174.4</ele>
        <time>2024-03-14T15:56:20Z</time>
      </trkpt>
      <trkpt lat="48.64911" lon="1.97844">
        <ele>173.6</ele>
        <time>2024-03-14T15:56:21Z</time>
      </trkpt>
      <trkpt lat="48.64907" lon="1.97838">
        <ele>173.6</ele>
        <time>2024-03-14T15:56:22Z</time>
      </trkpt>
      <trkpt lat="48.64902" lon="1.97831">
        <ele>173.6</ele>
        <time>2024-03-14T15:56:23Z</time>
      </trkpt>
      <trkpt lat="48.64898" lon="1.97825">
        <ele>173.6</ele>
        <time>2024-03-14T15:56:24Z</time>
      </trkpt>
      <trkpt lat="48.64893" lon="1.97819">
        <ele>173</ele>
        <time>2024-03-14T15:56:25Z</time>
      </trkpt>
      <trkpt lat="48.64889" lon="1.97813">
        <ele>173</ele>
        <time>2024-03-14T15:56:26Z</time>
      </trkpt>
      <trkpt lat="48.64884" lon="1.97806">
        <ele>173</ele>
        <time>2024-03-14T15:56:27Z</time>
      </trkpt>
      <trkpt lat="48.6488" lon="1.978">
        <ele>173</ele>
        <time>2024-03-14T15:56:28Z</time>
      </trkpt>
      <trkpt lat="48.64876" lon="1.97794">
        <ele>173.8</ele>
        <time>2024-03-14T15:56:29Z</time>
      </trkpt>
      <trkpt lat="48.64871" lon="1.97788">
        <ele>173.8</ele>
        <time>2024-03-14T15:56:30Z</time>
      </trkpt>
      <trkpt lat="48.64867" lon="1.97782">
        <ele>173.8</ele>
        <time>2024-03-14T15:56:31Z</time>
      </trkpt>
      <trkpt lat="48.64863" lon="1.97775">
        <ele>173.2</ele>
        <time>2024-03-14T15:56:32Z</time>
      </trkpt>
      <trkpt lat="48.64859" lon="1.97769">
        <ele>173</ele>
        <time>2024-03-14T15:56:33Z</time>
      </trkpt>
      <trkpt lat="48.64854" lon="1.97763">
        <ele>173</ele>
        <time>2024-03-14T15:56:34Z</time>
      </trkpt>
      <trkpt lat="48.6485" lon="1.97757">
        <ele>173</ele>
        <time>2024-03-14T15:56:35Z</time>
      </trkpt>
      <trkpt lat="48.64846" lon="1.97751">
        <ele>173.2</ele>
        <time>2024-03-14T15:56:36Z</time>
      </trkpt>
      <trkpt lat="48.64842" lon="1.97745">
        <ele>173</ele>
        <time>2024-03-14T15:56:37Z</time>
      </trkpt>
      <trkpt lat="48.64837" lon="1.97739">
        <ele>173</ele>
        <time>2024-03-14T15:56:38Z</time>
      </trkpt>
      <trkpt lat="48.64833" lon="1.97733">
        <ele>173</ele>
        <time>2024-03-14T15:56:39Z</time>
      </trkpt>
      <trkpt lat="48.64829" lon="1.97727">
        <ele>173</ele>
        <time>2024-03-14T15:56:40Z</time>
      </trkpt>
      <trkpt lat="48.64825" lon="1.97721">
        <ele>173</ele>
        <time>2024-03-14T15:56:41Z</time>
      </trkpt>
      <trkpt lat="48.64821" lon="1.97716">
        <ele>173</ele>
        <time>2024-03-14T15:56:42Z</time>
      </trkpt>
      <trkpt lat="48.64817" lon="1.9771">
        <ele>173</ele>
        <time>2024-03-14T15:56:43Z</time>
      </trkpt>
      <trkpt lat="48.64813" lon="1.97704">
        <ele>173.8</ele>
        <time>2024-03-14T15:56:44Z</time>
      </trkpt>
      <trkpt lat="48.64809" lon="1.97699">
        <ele>173.4</ele>
        <time>2024-03-14T15:56:45Z</time>
      </trkpt>
      <trkpt lat="48.64805" lon="1.97693">
        <ele>173.4</ele>
        <time>2024-03-14T15:56:46Z</time>
      </trkpt>
      <trkpt lat="48.64801" lon="1.97687">
        <ele>173.4</ele>
        <time>2024-03-14T15:56:47Z</time>
      </trkpt>
      <trkpt lat="48.64798" lon="1.97681">
        <ele>173.4</ele>
        <time>2024-03-14T15:56:48Z</time>
      </trkpt>
      <trkpt lat="48.64794" lon="1.97675">
        <ele>174.4</ele>
        <time>2024-03-14T15:56:49Z</time>
      </trkpt>
      <trkpt lat="48.64791" lon="1.97669">
        <ele>174.4</ele>
        <time>2024-03-14T15:56:50Z</time>
      </trkpt>
      <trkpt lat="48.64787" lon="1.97663">
        <ele>174.4</ele>
        <time>2024-03-14T15:56:51Z</time>
      </trkpt>
      <trkpt lat="48.64784" lon="1.97656">
        <ele>174.4</ele>
        <time>2024-03-14T15:56:52Z</time>
      </trkpt>
      <trkpt lat="48.64781" lon="1.9765">
        <ele>175</ele>
        <time>2024-03-14T15:56:53Z</time>
      </trkpt>
      <trkpt lat="48.64778" lon="1.97643">
        <ele>175</ele>
        <time>2024-03-14T15:56:54Z</time>
      </trkpt>
      <trkpt lat="48.64775" lon="1.97636">
        <ele>175</ele>
        <time>2024-03-14T15:56:55Z</time>
      </trkpt>
      <trkpt lat="48.64772" lon="1.97629">
        <ele>175</ele>
        <time>2024-03-14T15:56:56Z</time>
      </trkpt>
      <trkpt lat="48.64769" lon="1.97623">
        <ele>175.2</ele>
        <time>2024-03-14T15:56:57Z</time>
      </trkpt>
      <trkpt lat="48.64766" lon="1.97616">
        <ele>175.2</ele>
        <time>2024-03-14T15:56:58Z</time>
      </trkpt>
      <trkpt lat="48.64763" lon="1.97609">
        <ele>175.2</ele>
        <time>2024-03-14T15:56:59Z</time>
      </trkpt>
      <trkpt lat="48.6476" lon="1.97602">
        <ele>175</ele>
        <time>2024-03-14T15:57:00Z</time>
      </trkpt>
      <trkpt lat="48.64757" lon="1.97595">
        <ele>174.6</ele>
        <time>2024-03-14T15:57:01Z</time>
      </trkpt>
      <trkpt lat="48.64754" lon="1.97588">
        <ele>174.6</ele>
        <time>2024-03-14T15:57:02Z</time>
      </trkpt>
      <trkpt lat="48.64751" lon="1.97581">
        <ele>174.6</ele>
        <time>2024-03-14T15:57:03Z</time>
      </trkpt>
      <trkpt lat="48.64749" lon="1.97574">
        <ele>174.6</ele>
        <time>2024-03-14T15:57:04Z</time>
      </trkpt>
      <trkpt lat="48.64746" lon="1.97567">
        <ele>175</ele>
        <time>2024-03-14T15:57:05Z</time>
      </trkpt>
      <trkpt lat="48.64743" lon="1.9756">
        <ele>175</ele>
        <time>2024-03-14T15:57:06Z</time>
      </trkpt>
      <trkpt lat="48.6474" lon="1.97553">
        <ele>175</ele>
        <time>2024-03-14T15:57:07Z</time>
      </trkpt>
      <trkpt lat="48.64737" lon="1.97546">
        <ele>175.6</ele>
        <time>2024-03-14T15:57:08Z</time>
      </trkpt>
      <trkpt lat="48.64734" lon="1.97539">
        <ele>174.6</ele>
        <time>2024-03-14T15:57:09Z</time>
      </trkpt>
      <trkpt lat="48.64731" lon="1.97531">
        <ele>174.6</ele>
        <time>2024-03-14T15:57:10Z</time>
      </trkpt>
      <trkpt lat="48.64728" lon="1.97524">
        <ele>174.6</ele>
        <time>2024-03-14T15:57:11Z</time>
      </trkpt>
      <trkpt lat="48.64726" lon="1.97517">
        <ele>174.6</ele>
        <time>2024-03-14T15:57:12Z</time>
      </trkpt>
      <trkpt lat="48.64722" lon="1.9751">
        <ele>174.2</ele>
        <time>2024-03-14T15:57:13Z</time>
      </trkpt>
      <trkpt lat="48.64719" lon="1.97503">
        <ele>174.2</ele>
        <time>2024-03-14T15:57:14Z</time>
      </trkpt>
      <trkpt lat="48.64716" lon="1.97496">
        <ele>174.2</ele>
        <time>2024-03-14T15:57:15Z</time>
      </trkpt>
      <trkpt lat="48.64713" lon="1.97488">
        <ele>174.2</ele>
        <time>2024-03-14T15:57:16Z</time>
      </trkpt>
      <trkpt lat="48.6471" lon="1.97481">
        <ele>175.2</ele>
        <time>2024-03-14T15:57:17Z</time>
      </trkpt>
      <trkpt lat="48.64707" lon="1.97473">
        <ele>175.2</ele>
        <time>2024-03-14T15:57:18Z</time>
      </trkpt>
      <trkpt lat="48.64704" lon="1.97466">
        <ele>175.2</ele>
        <time>2024-03-14T15:57:19Z</time>
      </trkpt>
      <trkpt lat="48.64701" lon="1.97458">
        <ele>175.2</ele>
        <time>2024-03-14T15:57:20Z</time>
      </trkpt>
      <trkpt lat="48.64698" lon="1.97451">
        <ele>174.6</ele>
        <time>2024-03-14T15:57:21Z</time>
      </trkpt>
      <trkpt lat="48.64695" lon="1.97443">
        <ele>174.6</ele>
        <time>2024-03-14T15:57:22Z</time>
      </trkpt>
      <trkpt lat="48.64692" lon="1.97436">
        <ele>174.6</ele>
        <time>2024-03-14T15:57:23Z</time>
      </trkpt>
      <trkpt lat="48.64689" lon="1.97428">
        <ele>174</ele>
        <time>2024-03-14T15:57:24Z</time>
      </trkpt>
      <trkpt lat="48.64686" lon="1.9742">
        <ele>174.2</ele>
        <time>2024-03-14T15:57:25Z</time>
      </trkpt>
      <trkpt lat="48.64683" lon="1.97413">
        <ele>174.2</ele>
        <time>2024-03-14T15:57:26Z</time>
      </trkpt>
      <trkpt lat="48.64679" lon="1.97405">
        <ele>174.2</ele>
        <time>2024-03-14T15:57:27Z</time>
      </trkpt>
      <trkpt lat="48.64676" lon="1.97398">
        <ele>174.2</ele>
        <time>2024-03-14T15:57:28Z</time>
      </trkpt>
      <trkpt lat="48.64673" lon="1.9739">
        <ele>173.8</ele>
        <time>2024-03-14T15:57:29Z</time>
      </trkpt>
      <trkpt lat="48.6467" lon="1.97382">
        <ele>173.8</ele>
        <time>2024-03-14T15:57:30Z</time>
      </trkpt>
      <trkpt lat="48.64667" lon="1.97375">
        <ele>173.8</ele>
        <time>2024-03-14T15:57:31Z</time>
      </trkpt>
      <trkpt lat="48.64663" lon="1.97367">
        <ele>173.8</ele>
        <time>2024-03-14T15:57:32Z</time>
      </trkpt>
      <trkpt lat="48.6466" lon="1.97359">
        <ele>173.8</ele>
        <time>2024-03-14T15:57:33Z</time>
      </trkpt>
      <trkpt lat="48.64657" lon="1.97351">
        <ele>173.8</ele>
        <time>2024-03-14T15:57:34Z</time>
      </trkpt>
      <trkpt lat="48.64653" lon="1.97343">
        <ele>173.8</ele>
        <time>2024-03-14T15:57:35Z</time>
      </trkpt>
      <trkpt lat="48.6465" lon="1.97336">
        <ele>173</ele>
        <time>2024-03-14T15:57:36Z</time>
      </trkpt>
      <trkpt lat="48.64647" lon="1.97328">
        <ele>172.8</ele>
        <time>2024-03-14T15:57:37Z</time>
      </trkpt>
      <trkpt lat="48.64643" lon="1.9732">
        <ele>172.8</ele>
        <time>2024-03-14T15:57:38Z</time>
      </trkpt>
      <trkpt lat="48.6464" lon="1.97312">
        <ele>172.8</ele>
        <time>2024-03-14T15:57:39Z</time>
      </trkpt>
      <trkpt lat="48.64637" lon="1.97304">
        <ele>172.8</ele>
        <time>2024-03-14T15:57:40Z</time>
      </trkpt>
      <trkpt lat="48.64634" lon="1.97295">
        <ele>173</ele>
        <time>2024-03-14T15:57:41Z</time>
      </trkpt>
      <trkpt lat="48.64631" lon="1.97287">
        <ele>173</ele>
        <time>2024-03-14T15:57:42Z</time>
      </trkpt>
      <trkpt lat="48.64628" lon="1.97278">
        <ele>173</ele>
        <time>2024-03-14T15:57:43Z</time>
      </trkpt>
      <trkpt lat="48.64626" lon="1.97269">
        <ele>172.2</ele>
        <time>2024-03-14T15:57:44Z</time>
      </trkpt>
      <trkpt lat="48.64623" lon="1.9726">
        <ele>173</ele>
        <time>2024-03-14T15:57:45Z</time>
      </trkpt>
      <trkpt lat="48.64621" lon="1.9725">
        <ele>173</ele>
        <time>2024-03-14T15:57:46Z</time>
      </trkpt>
      <trkpt lat="48.6462" lon="1.9724">
        <ele>173</ele>
        <time>2024-03-14T15:57:47Z</time>
      </trkpt>
      <trkpt lat="48.64619" lon="1.9723">
        <ele>173</ele>
        <time>2024-03-14T15:57:48Z</time>
      </trkpt>
      <trkpt lat="48.64618" lon="1.9722">
        <ele>173.4</ele>
        <time>2024-03-14T15:57:49Z</time>
      </trkpt>
      <trkpt lat="48.64618" lon="1.9721">
        <ele>173.4</ele>
        <time>2024-03-14T15:57:50Z</time>
      </trkpt>
      <trkpt lat="48.64618" lon="1.972">
        <ele>173.4</ele>
        <time>2024-03-14T15:57:51Z</time>
      </trkpt>
      <trkpt lat="48.64619" lon="1.9719">
        <ele>173.4</ele>
        <time>2024-03-14T15:57:52Z</time>
      </trkpt>
      <trkpt lat="48.64619" lon="1.9718">
        <ele>173</ele>
        <time>2024-03-14T15:57:53Z</time>
      </trkpt>
      <trkpt lat="48.6462" lon="1.97171">
        <ele>173</ele>
        <time>2024-03-14T15:57:54Z</time>
      </trkpt>
      <trkpt lat="48.64622" lon="1.97161">
        <ele>173</ele>
        <time>2024-03-14T15:57:55Z</time>
      </trkpt>
      <trkpt lat="48.64624" lon="1.97151">
        <ele>173</ele>
        <time>2024-03-14T15:57:56Z</time>
      </trkpt>
      <trkpt lat="48.64626" lon="1.97142">
        <ele>173.6</ele>
        <time>2024-03-14T15:57:57Z</time>
      </trkpt>
      <trkpt lat="48.64628" lon="1.97133">
        <ele>173.6</ele>
        <time>2024-03-14T15:57:58Z</time>
      </trkpt>
      <trkpt lat="48.64631" lon="1.97123">
        <ele>173.6</ele>
        <time>2024-03-14T15:57:59Z</time>
      </trkpt>
      <trkpt lat="48.64633" lon="1.97114">
        <ele>174.2</ele>
        <time>2024-03-14T15:58:00Z</time>
      </trkpt>
      <trkpt lat="48.64636" lon="1.97106">
        <ele>173.8</ele>
        <time>2024-03-14T15:58:01Z</time>
      </trkpt>
      <trkpt lat="48.64639" lon="1.97097">
        <ele>173.8</ele>
        <time>2024-03-14T15:58:02Z</time>
      </trkpt>
      <trkpt lat="48.64642" lon="1.97088">
        <ele>173.8</ele>
        <time>2024-03-14T15:58:03Z</time>
      </trkpt>
      <trkpt lat="48.64645" lon="1.97079">
        <ele>173.4</ele>
        <time>2024-03-14T15:58:04Z</time>
      </trkpt>
      <trkpt lat="48.64648" lon="1.9707">
        <ele>174.2</ele>
        <time>2024-03-14T15:58:05Z</time>
      </trkpt>
      <trkpt lat="48.64651" lon="1.97062">
        <ele>174.2</ele>
        <time>2024-03-14T15:58:06Z</time>
      </trkpt>
      <trkpt lat="48.64653" lon="1.97053">
        <ele>174.2</ele>
        <time>2024-03-14T15:58:07Z</time>
      </trkpt>
      <trkpt lat="48.64656" lon="1.97044">
        <ele>174.2</ele>
        <time>2024-03-14T15:58:08Z</time>
      </trkpt>
      <trkpt lat="48.64659" lon="1.97036">
        <ele>174.6</ele>
        <time>2024-03-14T15:58:09Z</time>
      </trkpt>
      <trkpt lat="48.64662" lon="1.97027">
        <ele>174.6</ele>
        <time>2024-03-14T15:58:10Z</time>
      </trkpt>
      <trkpt lat="48.64664" lon="1.97018">
        <ele>174.6</ele>
        <time>2024-03-14T15:58:11Z</time>
      </trkpt>
      <trkpt lat="48.64667" lon="1.9701">
        <ele>174.2</ele>
        <time>2024-03-14T15:58:12Z</time>
      </trkpt>
      <trkpt lat="48.64669" lon="1.97001">
        <ele>174.2</ele>
        <time>2024-03-14T15:58:13Z</time>
      </trkpt>
      <trkpt lat="48.64671" lon="1.96992">
        <ele>174.2</ele>
        <time>2024-03-14T15:58:14Z</time>
      </trkpt>
      <trkpt lat="48.64673" lon="1.96983">
        <ele>174.2</ele>
        <time>2024-03-14T15:58:15Z</time>
      </trkpt>
      <trkpt lat="48.64674" lon="1.96973">
        <ele>174.6</ele>
        <time>2024-03-14T15:58:16Z</time>
      </trkpt>
      <trkpt lat="48.64675" lon="1.96964">
        <ele>174.2</ele>
        <time>2024-03-14T15:58:17Z</time>
      </trkpt>
      <trkpt lat="48.64675" lon="1.96954">
        <ele>174.2</ele>
        <time>2024-03-14T15:58:18Z</time>
      </trkpt>
      <trkpt lat="48.64675" lon="1.96945">
        <ele>174.2</ele>
        <time>2024-03-14T15:58:19Z</time>
      </trkpt>
      <trkpt lat="48.64674" lon="1.96935">
        <ele>174.2</ele>
        <time>2024-03-14T15:58:20Z</time>
      </trkpt>
      <trkpt lat="48.64672" lon="1.96926">
        <ele>174.2</ele>
        <time>2024-03-14T15:58:21Z</time>
      </trkpt>
      <trkpt lat="48.6467" lon="1.96917">
        <ele>174.2</ele>
        <time>2024-03-14T15:58:22Z</time>
      </trkpt>
      <trkpt lat="48.64668" lon="1.96909">
        <ele>174.2</ele>
        <time>2024-03-14T15:58:23Z</time>
      </trkpt>
      <trkpt lat="48.64665" lon="1.96902">
        <ele>173.4</ele>
        <time>2024-03-14T15:58:24Z</time>
      </trkpt>
      <trkpt lat="48.64662" lon="1.96894">
        <ele>173.2</ele>
        <time>2024-03-14T15:58:25Z</time>
      </trkpt>
      <trkpt lat="48.64659" lon="1.96886">
        <ele>173.2</ele>
        <time>2024-03-14T15:58:26Z</time>
      </trkpt>
      <trkpt lat="48.64656" lon="1.96879">
        <ele>173.2</ele>
        <time>2024-03-14T15:58:27Z</time>
      </trkpt>
      <trkpt lat="48.64653" lon="1.96873">
        <ele>173.2</ele>
        <time>2024-03-14T15:58:28Z</time>
      </trkpt>
      <trkpt lat="48.64649" lon="1.96865">
        <ele>174.4</ele>
        <time>2024-03-14T15:58:29Z</time>
      </trkpt>
      <trkpt lat="48.64646" lon="1.96858">
        <ele>174.4</ele>
        <time>2024-03-14T15:58:30Z</time>
      </trkpt>
      <trkpt lat="48.64643" lon="1.96851">
        <ele>174.4</ele>
        <time>2024-03-14T15:58:31Z</time>
      </trkpt>
      <trkpt lat="48.6464" lon="1.96844">
        <ele>174.4</ele>
        <time>2024-03-14T15:58:32Z</time>
      </trkpt>
      <trkpt lat="48.64637" lon="1.96837">
        <ele>175.2</ele>
        <time>2024-03-14T15:58:33Z</time>
      </trkpt>
      <trkpt lat="48.64634" lon="1.96831">
        <ele>175.2</ele>
        <time>2024-03-14T15:58:34Z</time>
      </trkpt>
      <trkpt lat="48.6463" lon="1.96824">
        <ele>175.2</ele>
        <time>2024-03-14T15:58:35Z</time>
      </trkpt>
      <trkpt lat="48.64627" lon="1.96816">
        <ele>175.2</ele>
        <time>2024-03-14T15:58:36Z</time>
      </trkpt>
      <trkpt lat="48.64623" lon="1.9681">
        <ele>174.6</ele>
        <time>2024-03-14T15:58:37Z</time>
      </trkpt>
      <trkpt lat="48.6462" lon="1.96803">
        <ele>174.6</ele>
        <time>2024-03-14T15:58:38Z</time>
      </trkpt>
      <trkpt lat="48.64616" lon="1.96796">
        <ele>174.6</ele>
        <time>2024-03-14T15:58:39Z</time>
      </trkpt>
      <trkpt lat="48.64612" lon="1.96789">
        <ele>174.6</ele>
        <time>2024-03-14T15:58:40Z</time>
      </trkpt>
      <trkpt lat="48.64609" lon="1.96783">
        <ele>175</ele>
        <time>2024-03-14T15:58:41Z</time>
      </trkpt>
      <trkpt lat="48.64605" lon="1.96777">
        <ele>175</ele>
        <time>2024-03-14T15:58:42Z</time>
      </trkpt>
      <trkpt lat="48.64602" lon="1.9677">
        <ele>175</ele>
        <time>2024-03-14T15:58:43Z</time>
      </trkpt>
      <trkpt lat="48.64599" lon="1.96763">
        <ele>176</ele>
        <time>2024-03-14T15:58:44Z</time>
      </trkpt>
      <trkpt lat="48.646" lon="1.96755">
        <ele>177.6</ele>
        <time>2024-03-14T15:58:45Z</time>
      </trkpt>
      <trkpt lat="48.64602" lon="1.96749">
        <ele>177.6</ele>
        <time>2024-03-14T15:58:46Z</time>
      </trkpt>
      <trkpt lat="48.64606" lon="1.96743">
        <ele>177.6</ele>
        <time>2024-03-14T15:58:47Z</time>
      </trkpt>
      <trkpt lat="48.6461" lon="1.96738">
        <ele>176.8</ele>
        <time>2024-03-14T15:58:48Z</time>
      </trkpt>
      <trkpt lat="48.64614" lon="1.96733">
        <ele>177.4</ele>
        <time>2024-03-14T15:58:49Z</time>
      </trkpt>
      <trkpt lat="48.64618" lon="1.96728">
        <ele>177.4</ele>
        <time>2024-03-14T15:58:50Z</time>
      </trkpt>
      <trkpt lat="48.64623" lon="1.96722">
        <ele>177.4</ele>
        <time>2024-03-14T15:58:51Z</time>
      </trkpt>
      <trkpt lat="48.64627" lon="1.96716">
        <ele>177.4</ele>
        <time>2024-03-14T15:58:52Z</time>
      </trkpt>
      <trkpt lat="48.64632" lon="1.9671">
        <ele>177.4</ele>
        <time>2024-03-14T15:58:53Z</time>
      </trkpt>
      <trkpt lat="48.64636" lon="1.96705">
        <ele>177.4</ele>
        <time>2024-03-14T15:58:54Z</time>
      </trkpt>
      <trkpt lat="48.64642" lon="1.96699">
        <ele>177.4</ele>
        <time>2024-03-14T15:58:55Z</time>
      </trkpt>
      <trkpt lat="48.64647" lon="1.96694">
        <ele>177.4</ele>
        <time>2024-03-14T15:58:56Z</time>
      </trkpt>
      <trkpt lat="48.64652" lon="1.9669">
        <ele>177.6</ele>
        <time>2024-03-14T15:58:57Z</time>
      </trkpt>
      <trkpt lat="48.64658" lon="1.96686">
        <ele>177.6</ele>
        <time>2024-03-14T15:58:58Z</time>
      </trkpt>
      <trkpt lat="48.64664" lon="1.96683">
        <ele>177.6</ele>
        <time>2024-03-14T15:58:59Z</time>
      </trkpt>
      <trkpt lat="48.6467" lon="1.9668">
        <ele>177.6</ele>
        <time>2024-03-14T15:59:00Z</time>
      </trkpt>
      <trkpt lat="48.64675" lon="1.96678">
        <ele>177.6</ele>
        <time>2024-03-14T15:59:01Z</time>
      </trkpt>
      <trkpt lat="48.64681" lon="1.96676">
        <ele>177.6</ele>
        <time>2024-03-14T15:59:02Z</time>
      </trkpt>
      <trkpt lat="48.64687" lon="1.96675">
        <ele>177.6</ele>
        <time>2024-03-14T15:59:03Z</time>
      </trkpt>
      <trkpt lat="48.64693" lon="1.96674">
        <ele>177.6</ele>
        <time>2024-03-14T15:59:04Z</time>
      </trkpt>
      <trkpt lat="48.64699" lon="1.96673">
        <ele>178.8</ele>
        <time>2024-03-14T15:59:05Z</time>
      </trkpt>
      <trkpt lat="48.64705" lon="1.96673">
        <ele>178.8</ele>
        <time>2024-03-14T15:59:06Z</time>
      </trkpt>
      <trkpt lat="48.64711" lon="1.96672">
        <ele>178.8</ele>
        <time>2024-03-14T15:59:07Z</time>
      </trkpt>
      <trkpt lat="48.64717" lon="1.96672">
        <ele>179.6</ele>
        <time>2024-03-14T15:59:08Z</time>
      </trkpt>
      <trkpt lat="48.64723" lon="1.96672">
        <ele>179.4</ele>
        <time>2024-03-14T15:59:09Z</time>
      </trkpt>
      <trkpt lat="48.6473" lon="1.96672">
        <ele>179.4</ele>
        <time>2024-03-14T15:59:10Z</time>
      </trkpt>
      <trkpt lat="48.64736" lon="1.96672">
        <ele>179.4</ele>
        <time>2024-03-14T15:59:11Z</time>
      </trkpt>
      <trkpt lat="48.64742" lon="1.96671">
        <ele>179.6</ele>
        <time>2024-03-14T15:59:12Z</time>
      </trkpt>
      <trkpt lat="48.64748" lon="1.9667">
        <ele>179.4</ele>
        <time>2024-03-14T15:59:13Z</time>
      </trkpt>
      <trkpt lat="48.64754" lon="1.96668">
        <ele>179.4</ele>
        <time>2024-03-14T15:59:14Z</time>
      </trkpt>
      <trkpt lat="48.64761" lon="1.96666">
        <ele>179.4</ele>
        <time>2024-03-14T15:59:15Z</time>
      </trkpt>
      <trkpt lat="48.64767" lon="1.96664">
        <ele>180</ele>
        <time>2024-03-14T15:59:16Z</time>
      </trkpt>
      <trkpt lat="48.64773" lon="1.96661">
        <ele>179.6</ele>
        <time>2024-03-14T15:59:17Z</time>
      </trkpt>
      <trkpt lat="48.6478" lon="1.96659">
        <ele>179.6</ele>
        <time>2024-03-14T15:59:18Z</time>
      </trkpt>
      <trkpt lat="48.64786" lon="1.96656">
        <ele>179.6</ele>
        <time>2024-03-14T15:59:19Z</time>
      </trkpt>
      <trkpt lat="48.64793" lon="1.96653">
        <ele>179.6</ele>
        <time>2024-03-14T15:59:20Z</time>
      </trkpt>
      <trkpt lat="48.64799" lon="1.96651">
        <ele>179.8</ele>
        <time>2024-03-14T15:59:21Z</time>
      </trkpt>
      <trkpt lat="48.64805" lon="1.96648">
        <ele>179.8</ele>
        <time>2024-03-14T15:59:22Z</time>
      </trkpt>
      <trkpt lat="48.64812" lon="1.96645">
        <ele>179.8</ele>
        <time>2024-03-14T15:59:23Z</time>
      </trkpt>
      <trkpt lat="48.64818" lon="1.96642">
        <ele>180.2</ele>
        <time>2024-03-14T15:59:24Z</time>
      </trkpt>
      <trkpt lat="48.64824" lon="1.9664">
        <ele>180.4</ele>
        <time>2024-03-14T15:59:25Z</time>
      </trkpt>
      <trkpt lat="48.6483" lon="1.96637">
        <ele>180.4</ele>
        <time>2024-03-14T15:59:26Z</time>
      </trkpt>
      <trkpt lat="48.64837" lon="1.96634">
        <ele>180.4</ele>
        <time>2024-03-14T15:59:27Z</time>
      </trkpt>
      <trkpt lat="48.64843" lon="1.96632">
        <ele>180.4</ele>
        <time>2024-03-14T15:59:28Z</time>
      </trkpt>
      <trkpt lat="48.64849" lon="1.96629">
        <ele>181.2</ele>
        <time>2024-03-14T15:59:29Z</time>
      </trkpt>
      <trkpt lat="48.64855" lon="1.96627">
        <ele>181.2</ele>
        <time>2024-03-14T15:59:30Z</time>
      </trkpt>
      <trkpt lat="48.64862" lon="1.96624">
        <ele>181.2</ele>
        <time>2024-03-14T15:59:31Z</time>
      </trkpt>
      <trkpt lat="48.64868" lon="1.96622">
        <ele>181.8</ele>
        <time>2024-03-14T15:59:32Z</time>
      </trkpt>
      <trkpt lat="48.64875" lon="1.96619">
        <ele>181.8</ele>
        <time>2024-03-14T15:59:33Z</time>
      </trkpt>
      <trkpt lat="48.64881" lon="1.96617">
        <ele>181.8</ele>
        <time>2024-03-14T15:59:34Z</time>
      </trkpt>
      <trkpt lat="48.64888" lon="1.96615">
        <ele>181.8</ele>
        <time>2024-03-14T15:59:35Z</time>
      </trkpt>
      <trkpt lat="48.64895" lon="1.96613">
        <ele>181</ele>
        <time>2024-03-14T15:59:36Z</time>
      </trkpt>
      <trkpt lat="48.64903" lon="1.96612">
        <ele>181.2</ele>
        <time>2024-03-14T15:59:37Z</time>
      </trkpt>
      <trkpt lat="48.6491" lon="1.9661">
        <ele>181.2</ele>
        <time>2024-03-14T15:59:38Z</time>
      </trkpt>
      <trkpt lat="48.64917" lon="1.96609">
        <ele>181.2</ele>
        <time>2024-03-14T15:59:39Z</time>
      </trkpt>
      <trkpt lat="48.64925" lon="1.96607">
        <ele>180.4</ele>
        <time>2024-03-14T15:59:40Z</time>
      </trkpt>
      <trkpt lat="48.64932" lon="1.96605">
        <ele>180.4</ele>
        <time>2024-03-14T15:59:41Z</time>
      </trkpt>
      <trkpt lat="48.6494" lon="1.96604">
        <ele>180.4</ele>
        <time>2024-03-14T15:59:42Z</time>
      </trkpt>
      <trkpt lat="48.64948" lon="1.96602">
        <ele>180.4</ele>
        <time>2024-03-14T15:59:43Z</time>
      </trkpt>
      <trkpt lat="48.64955" lon="1.96601">
        <ele>179.6</ele>
        <time>2024-03-14T15:59:44Z</time>
      </trkpt>
      <trkpt lat="48.64963" lon="1.96599">
        <ele>179.8</ele>
        <time>2024-03-14T15:59:45Z</time>
      </trkpt>
      <trkpt lat="48.64971" lon="1.96597">
        <ele>179.8</ele>
        <time>2024-03-14T15:59:46Z</time>
      </trkpt>
      <trkpt lat="48.64978" lon="1.96596">
        <ele>179.8</ele>
        <time>2024-03-14T15:59:47Z</time>
      </trkpt>
      <trkpt lat="48.64986" lon="1.96594">
        <ele>180.6</ele>
        <time>2024-03-14T15:59:48Z</time>
      </trkpt>
      <trkpt lat="48.64994" lon="1.96592">
        <ele>180.6</ele>
        <time>2024-03-14T15:59:49Z</time>
      </trkpt>
      <trkpt lat="48.65001" lon="1.96591">
        <ele>180.6</ele>
        <time>2024-03-14T15:59:50Z</time>
      </trkpt>
      <trkpt lat="48.65009" lon="1.96589">
        <ele>180.6</ele>
        <time>2024-03-14T15:59:51Z</time>
      </trkpt>
      <trkpt lat="48.65017" lon="1.96587">
        <ele>180</ele>
        <time>2024-03-14T15:59:52Z</time>
      </trkpt>
      <trkpt lat="48.65025" lon="1.96585">
        <ele>179</ele>
        <time>2024-03-14T15:59:53Z</time>
      </trkpt>
      <trkpt lat="48.65032" lon="1.96584">
        <ele>179</ele>
        <time>2024-03-14T15:59:54Z</time>
      </trkpt>
      <trkpt lat="48.6504" lon="1.96581">
        <ele>179</ele>
        <time>2024-03-14T15:59:55Z</time>
      </trkpt>
      <trkpt lat="48.65048" lon="1.96579">
        <ele>180</ele>
        <time>2024-03-14T15:59:56Z</time>
      </trkpt>
      <trkpt lat="48.65056" lon="1.96576">
        <ele>180.4</ele>
        <time>2024-03-14T15:59:57Z</time>
      </trkpt>
      <trkpt lat="48.65063" lon="1.96572">
        <ele>180.4</ele>
        <time>2024-03-14T15:59:58Z</time>
      </trkpt>
      <trkpt lat="48.65071" lon="1.96569">
        <ele>180.4</ele>
        <time>2024-03-14T15:59:59Z</time>
      </trkpt>
      <trkpt lat="48.65079" lon="1.96565">
        <ele>179.4</ele>
        <time>2024-03-14T16:00:00Z</time>
      </trkpt>
      <trkpt lat="48.65086" lon="1.96561">
        <ele>179.6</ele>
        <time>2024-03-14T16:00:01Z</time>
      </trkpt>
      <trkpt lat="48.65094" lon="1.96556">
        <ele>179.6</ele>
        <time>2024-03-14T16:00:02Z</time>
      </trkpt>
      <trkpt lat="48.65101" lon="1.96552">
        <ele>179.6</ele>
        <time>2024-03-14T16:00:03Z</time>
      </trkpt>
      <trkpt lat="48.65109" lon="1.96547">
        <ele>178.6</ele>
        <time>2024-03-14T16:00:04Z</time>
      </trkpt>
      <trkpt lat="48.65116" lon="1.96542">
        <ele>177.6</ele>
        <time>2024-03-14T16:00:05Z</time>
      </trkpt>
      <trkpt lat="48.65123" lon="1.96536">
        <ele>177.6</ele>
        <time>2024-03-14T16:00:06Z</time>
      </trkpt>
      <trkpt lat="48.65131" lon="1.96531">
        <ele>177.6</ele>
        <time>2024-03-14T16:00:07Z</time>
      </trkpt>
      <trkpt lat="48.65138" lon="1.96525">
        <ele>178.6</ele>
        <time>2024-03-14T16:00:08Z</time>
      </trkpt>
      <trkpt lat="48.65145" lon="1.96519">
        <ele>178.6</ele>
        <time>2024-03-14T16:00:09Z</time>
      </trkpt>
      <trkpt lat="48.65152" lon="1.96514">
        <ele>178.6</ele>
        <time>2024-03-14T16:00:10Z</time>
      </trkpt>
      <trkpt lat="48.65159" lon="1.96508">
        <ele>178.6</ele>
        <time>2024-03-14T16:00:11Z</time>
      </trkpt>
      <trkpt lat="48.65167" lon="1.96502">
        <ele>178.4</ele>
        <time>2024-03-14T16:00:12Z</time>
      </trkpt>
      <trkpt lat="48.65174" lon="1.96497">
        <ele>177.6</ele>
        <time>2024-03-14T16:00:13Z</time>
      </trkpt>
      <trkpt lat="48.65181" lon="1.96491">
        <ele>177.6</ele>
        <time>2024-03-14T16:00:14Z</time>
      </trkpt>
      <trkpt lat="48.65189" lon="1.96486">
        <ele>177.6</ele>
        <time>2024-03-14T16:00:15Z</time>
      </trkpt>
      <trkpt lat="48.65196" lon="1.96481">
        <ele>177.6</ele>
        <time>2024-03-14T16:00:16Z</time>
      </trkpt>
      <trkpt lat="48.65204" lon="1.96475">
        <ele>177.6</ele>
        <time>2024-03-14T16:00:17Z</time>
      </trkpt>
      <trkpt lat="48.65211" lon="1.9647">
        <ele>177.6</ele>
        <time>2024-03-14T16:00:18Z</time>
      </trkpt>
      <trkpt lat="48.65219" lon="1.96464">
        <ele>177.6</ele>
        <time>2024-03-14T16:00:19Z</time>
      </trkpt>
      <trkpt lat="48.65226" lon="1.96459">
        <ele>177.6</ele>
        <time>2024-03-14T16:00:20Z</time>
      </trkpt>
      <trkpt lat="48.65234" lon="1.96453">
        <ele>176.8</ele>
        <time>2024-03-14T16:00:21Z</time>
      </trkpt>
      <trkpt lat="48.65241" lon="1.96448">
        <ele>176.8</ele>
        <time>2024-03-14T16:00:22Z</time>
      </trkpt>
      <trkpt lat="48.65249" lon="1.96443">
        <ele>176.8</ele>
        <time>2024-03-14T16:00:23Z</time>
      </trkpt>
      <trkpt lat="48.65256" lon="1.96438">
        <ele>176.8</ele>
        <time>2024-03-14T16:00:24Z</time>
      </trkpt>
      <trkpt lat="48.65264" lon="1.96434">
        <ele>176.4</ele>
        <time>2024-03-14T16:00:25Z</time>
      </trkpt>
      <trkpt lat="48.65272" lon="1.96431">
        <ele>176.4</ele>
        <time>2024-03-14T16:00:26Z</time>
      </trkpt>
      <trkpt lat="48.6528" lon="1.96428">
        <ele>176.4</ele>
        <time>2024-03-14T16:00:27Z</time>
      </trkpt>
      <trkpt lat="48.65288" lon="1.96426">
        <ele>177.4</ele>
        <time>2024-03-14T16:00:28Z</time>
      </trkpt>
      <trkpt lat="48.65296" lon="1.96425">
        <ele>177.2</ele>
        <time>2024-03-14T16:00:29Z</time>
      </trkpt>
      <trkpt lat="48.65304" lon="1.96425">
        <ele>177.2</ele>
        <time>2024-03-14T16:00:30Z</time>
      </trkpt>
      <trkpt lat="48.65313" lon="1.96425">
        <ele>177.2</ele>
        <time>2024-03-14T16:00:31Z</time>
      </trkpt>
      <trkpt lat="48.65321" lon="1.96426">
        <ele>177.2</ele>
        <time>2024-03-14T16:00:32Z</time>
      </trkpt>
      <trkpt lat="48.65329" lon="1.96428">
        <ele>177.4</ele>
        <time>2024-03-14T16:00:33Z</time>
      </trkpt>
      <trkpt lat="48.65337" lon="1.96432">
        <ele>177.4</ele>
        <time>2024-03-14T16:00:34Z</time>
      </trkpt>
      <trkpt lat="48.65345" lon="1.96436">
        <ele>177.4</ele>
        <time>2024-03-14T16:00:35Z</time>
      </trkpt>
      <trkpt lat="48.65352" lon="1.9644">
        <ele>176.4</ele>
        <time>2024-03-14T16:00:36Z</time>
      </trkpt>
      <trkpt lat="48.6536" lon="1.96444">
        <ele>177.6</ele>
        <time>2024-03-14T16:00:37Z</time>
      </trkpt>
      <trkpt lat="48.65367" lon="1.96449">
        <ele>177.6</ele>
        <time>2024-03-14T16:00:38Z</time>
      </trkpt>
      <trkpt lat="48.65375" lon="1.96453">
        <ele>177.6</ele>
        <time>2024-03-14T16:00:39Z</time>
      </trkpt>
      <trkpt lat="48.65382" lon="1.96457">
        <ele>177.6</ele>
        <time>2024-03-14T16:00:40Z</time>
      </trkpt>
      <trkpt lat="48.65389" lon="1.96461">
        <ele>178.8</ele>
        <time>2024-03-14T16:00:41Z</time>
      </trkpt>
      <trkpt lat="48.65396" lon="1.96465">
        <ele>178.8</ele>
        <time>2024-03-14T16:00:42Z</time>
      </trkpt>
      <trkpt lat="48.65403" lon="1.96469">
        <ele>178.8</ele>
        <time>2024-03-14T16:00:43Z</time>
      </trkpt>
      <trkpt lat="48.6541" lon="1.96473">
        <ele>178.8</ele>
        <time>2024-03-14T16:00:44Z</time>
      </trkpt>
      <trkpt lat="48.65416" lon="1.96477">
        <ele>179.4</ele>
        <time>2024-03-14T16:00:45Z</time>
      </trkpt>
      <trkpt lat="48.65423" lon="1.96481">
        <ele>179.4</ele>
        <time>2024-03-14T16:00:46Z</time>
      </trkpt>
      <trkpt lat="48.6543" lon="1.96485">
        <ele>179.4</ele>
        <time>2024-03-14T16:00:47Z</time>
      </trkpt>
      <trkpt lat="48.65437" lon="1.96489">
        <ele>179.4</ele>
        <time>2024-03-14T16:00:48Z</time>
      </trkpt>
      <trkpt lat="48.65444" lon="1.96493">
        <ele>179.6</ele>
        <time>2024-03-14T16:00:49Z</time>
      </trkpt>
      <trkpt lat="48.6545" lon="1.96496">
        <ele>179.6</ele>
        <time>2024-03-14T16:00:50Z</time>
      </trkpt>
      <trkpt lat="48.65458" lon="1.965">
        <ele>179.6</ele>
        <time>2024-03-14T16:00:51Z</time>
      </trkpt>
      <trkpt lat="48.65465" lon="1.96502">
        <ele>179.6</ele>
        <time>2024-03-14T16:00:52Z</time>
      </trkpt>
      <trkpt lat="48.65472" lon="1.96505">
        <ele>179.4</ele>
        <time>2024-03-14T16:00:53Z</time>
      </trkpt>
      <trkpt lat="48.65479" lon="1.96507">
        <ele>179.4</ele>
        <time>2024-03-14T16:00:54Z</time>
      </trkpt>
      <trkpt lat="48.65486" lon="1.96508">
        <ele>179.4</ele>
        <time>2024-03-14T16:00:55Z</time>
      </trkpt>
      <trkpt lat="48.65493" lon="1.96509">
        <ele>179.4</ele>
        <time>2024-03-14T16:00:56Z</time>
      </trkpt>
      <trkpt lat="48.65501" lon="1.9651">
        <ele>179.2</ele>
        <time>2024-03-14T16:00:57Z</time>
      </trkpt>
      <trkpt lat="48.65508" lon="1.9651">
        <ele>179.2</ele>
        <time>2024-03-14T16:00:58Z</time>
      </trkpt>
      <trkpt lat="48.65515" lon="1.9651">
        <ele>179.2</ele>
        <time>2024-03-14T16:00:59Z</time>
      </trkpt>
      <trkpt lat="48.65523" lon="1.96508">
        <ele>179</ele>
        <time>2024-03-14T16:01:00Z</time>
      </trkpt>
      <trkpt lat="48.6553" lon="1.96507">
        <ele>179</ele>
        <time>2024-03-14T16:01:01Z</time>
      </trkpt>
      <trkpt lat="48.65538" lon="1.96505">
        <ele>179</ele>
        <time>2024-03-14T16:01:02Z</time>
      </trkpt>
      <trkpt lat="48.65545" lon="1.96503">
        <ele>179</ele>
        <time>2024-03-14T16:01:03Z</time>
      </trkpt>
      <trkpt lat="48.65552" lon="1.96502">
        <ele>179.8</ele>
        <time>2024-03-14T16:01:04Z</time>
      </trkpt>
      <trkpt lat="48.6556" lon="1.965">
        <ele>180.2</ele>
        <time>2024-03-14T16:01:05Z</time>
      </trkpt>
      <trkpt lat="48.65567" lon="1.96498">
        <ele>180.2</ele>
        <time>2024-03-14T16:01:06Z</time>
      </trkpt>
      <trkpt lat="48.65574" lon="1.96496">
        <ele>180.2</ele>
        <time>2024-03-14T16:01:07Z</time>
      </trkpt>
      <trkpt lat="48.65581" lon="1.96494">
        <ele>180.2</ele>
        <time>2024-03-14T16:01:08Z</time>
      </trkpt>
      <trkpt lat="48.65588" lon="1.96493">
        <ele>180</ele>
        <time>2024-03-14T16:01:09Z</time>
      </trkpt>
      <trkpt lat="48.65595" lon="1.96491">
        <ele>180</ele>
        <time>2024-03-14T16:01:10Z</time>
      </trkpt>
      <trkpt lat="48.65603" lon="1.96489">
        <ele>180</ele>
        <time>2024-03-14T16:01:11Z</time>
      </trkpt>
      <trkpt lat="48.6561" lon="1.96487">
        <ele>180</ele>
        <time>2024-03-14T16:01:12Z</time>
      </trkpt>
      <trkpt lat="48.65617" lon="1.96485">
        <ele>181.4</ele>
        <time>2024-03-14T16:01:13Z</time>
      </trkpt>
      <trkpt lat="48.65624" lon="1.96483">
        <ele>181.4</ele>
        <time>2024-03-14T16:01:14Z</time>
      </trkpt>
      <trkpt lat="48.65631" lon="1.96481">
        <ele>181.4</ele>
        <time>2024-03-14T16:01:15Z</time>
      </trkpt>
      <trkpt lat="48.65638" lon="1.9648">
        <ele>181.4</ele>
        <time>2024-03-14T16:01:16Z</time>
      </trkpt>
      <trkpt lat="48.65645" lon="1.96478">
        <ele>180.8</ele>
        <time>2024-03-14T16:01:17Z</time>
      </trkpt>
      <trkpt lat="48.65652" lon="1.96476">
        <ele>180.8</ele>
        <time>2024-03-14T16:01:18Z</time>
      </trkpt>
      <trkpt lat="48.65659" lon="1.96474">
        <ele>180.8</ele>
        <time>2024-03-14T16:01:19Z</time>
      </trkpt>
      <trkpt lat="48.65667" lon="1.96472">
        <ele>180.8</ele>
        <time>2024-03-14T16:01:20Z</time>
      </trkpt>
      <trkpt lat="48.65674" lon="1.96471">
        <ele>180.6</ele>
        <time>2024-03-14T16:01:21Z</time>
      </trkpt>
      <trkpt lat="48.65681" lon="1.96469">
        <ele>180.6</ele>
        <time>2024-03-14T16:01:22Z</time>
      </trkpt>
      <trkpt lat="48.65688" lon="1.96467">
        <ele>180.6</ele>
        <time>2024-03-14T16:01:23Z</time>
      </trkpt>
      <trkpt lat="48.65695" lon="1.96465">
        <ele>179.8</ele>
        <time>2024-03-14T16:01:24Z</time>
      </trkpt>
      <trkpt lat="48.65703" lon="1.96464">
        <ele>180.2</ele>
        <time>2024-03-14T16:01:25Z</time>
      </trkpt>
      <trkpt lat="48.6571" lon="1.96463">
        <ele>180.2</ele>
        <time>2024-03-14T16:01:26Z</time>
      </trkpt>
      <trkpt lat="48.65717" lon="1.96463">
        <ele>180.2</ele>
        <time>2024-03-14T16:01:27Z</time>
      </trkpt>
      <trkpt lat="48.65725" lon="1.96464">
        <ele>180.2</ele>
        <time>2024-03-14T16:01:28Z</time>
      </trkpt>
      <trkpt lat="48.65732" lon="1.96465">
        <ele>180</ele>
        <time>2024-03-14T16:01:29Z</time>
      </trkpt>
      <trkpt lat="48.6574" lon="1.96468">
        <ele>180</ele>
        <time>2024-03-14T16:01:30Z</time>
      </trkpt>
      <trkpt lat="48.65747" lon="1.96471">
        <ele>180</ele>
        <time>2024-03-14T16:01:31Z</time>
      </trkpt>
      <trkpt lat="48.65754" lon="1.96475">
        <ele>180</ele>
        <time>2024-03-14T16:01:32Z</time>
      </trkpt>
      <trkpt lat="48.65761" lon="1.96479">
        <ele>180.8</ele>
        <time>2024-03-14T16:01:33Z</time>
      </trkpt>
      <trkpt lat="48.65768" lon="1.96484">
        <ele>180.8</ele>
        <time>2024-03-14T16:01:34Z</time>
      </trkpt>
      <trkpt lat="48.65775" lon="1.96488">
        <ele>180.8</ele>
        <time>2024-03-14T16:01:35Z</time>
      </trkpt>
      <trkpt lat="48.65782" lon="1.96492">
        <ele>180.8</ele>
        <time>2024-03-14T16:01:36Z</time>
      </trkpt>
      <trkpt lat="48.6579" lon="1.96495">
        <ele>180.6</ele>
        <time>2024-03-14T16:01:37Z</time>
      </trkpt>
      <trkpt lat="48.65797" lon="1.96499">
        <ele>180.6</ele>
        <time>2024-03-14T16:01:38Z</time>
      </trkpt>
      <trkpt lat="48.65805" lon="1.96502">
        <ele>180.6</ele>
        <time>2024-03-14T16:01:39Z</time>
      </trkpt>
      <trkpt lat="48.65812" lon="1.96504">
        <ele>180.6</ele>
        <time>2024-03-14T16:01:40Z</time>
      </trkpt>
      <trkpt lat="48.6582" lon="1.96507">
        <ele>180</ele>
        <time>2024-03-14T16:01:41Z</time>
      </trkpt>
      <trkpt lat="48.65828" lon="1.96509">
        <ele>180</ele>
        <time>2024-03-14T16:01:42Z</time>
      </trkpt>
      <trkpt lat="48.65836" lon="1.96511">
        <ele>180</ele>
        <time>2024-03-14T16:01:43Z</time>
      </trkpt>
      <trkpt lat="48.65844" lon="1.96512">
        <ele>179</ele>
        <time>2024-03-14T16:01:44Z</time>
      </trkpt>
      <trkpt lat="48.65851" lon="1.96514">
        <ele>179.2</ele>
        <time>2024-03-14T16:01:45Z</time>
      </trkpt>
      <trkpt lat="48.65859" lon="1.96515">
        <ele>179.2</ele>
        <time>2024-03-14T16:01:46Z</time>
      </trkpt>
      <trkpt lat="48.65867" lon="1.96516">
        <ele>179.2</ele>
        <time>2024-03-14T16:01:47Z</time>
      </trkpt>
      <trkpt lat="48.65875" lon="1.96517">
        <ele>179.2</ele>
        <time>2024-03-14T16:01:48Z</time>
      </trkpt>
      <trkpt lat="48.65883" lon="1.96518">
        <ele>179.4</ele>
        <time>2024-03-14T16:01:49Z</time>
      </trkpt>
      <trkpt lat="48.65891" lon="1.96519">
        <ele>179.4</ele>
        <time>2024-03-14T16:01:50Z</time>
      </trkpt>
      <trkpt lat="48.65899" lon="1.9652">
        <ele>179.4</ele>
        <time>2024-03-14T16:01:51Z</time>
      </trkpt>
      <trkpt lat="48.65908" lon="1.96521">
        <ele>179.4</ele>
        <time>2024-03-14T16:01:52Z</time>
      </trkpt>
      <trkpt lat="48.65916" lon="1.96522">
        <ele>178.2</ele>
        <time>2024-03-14T16:01:53Z</time>
      </trkpt>
      <trkpt lat="48.65924" lon="1.96523">
        <ele>178.2</ele>
        <time>2024-03-14T16:01:54Z</time>
      </trkpt>
      <trkpt lat="48.65932" lon="1.96524">
        <ele>178.2</ele>
        <time>2024-03-14T16:01:55Z</time>
      </trkpt>
      <trkpt lat="48.65941" lon="1.96525">
        <ele>178.4</ele>
        <time>2024-03-14T16:01:56Z</time>
      </trkpt>
      <trkpt lat="48.65949" lon="1.96527">
        <ele>179</ele>
        <time>2024-03-14T16:01:57Z</time>
      </trkpt>
      <trkpt lat="48.65957" lon="1.96528">
        <ele>179</ele>
        <time>2024-03-14T16:01:58Z</time>
      </trkpt>
      <trkpt lat="48.65966" lon="1.96529">
        <ele>179</ele>
        <time>2024-03-14T16:01:59Z</time>
      </trkpt>
      <trkpt lat="48.65974" lon="1.9653">
        <ele>178.8</ele>
        <time>2024-03-14T16:02:00Z</time>
      </trkpt>
      <trkpt lat="48.65983" lon="1.96531">
        <ele>178.4</ele>
        <time>2024-03-14T16:02:01Z</time>
      </trkpt>
      <trkpt lat="48.65991" lon="1.96532">
        <ele>178.4</ele>
        <time>2024-03-14T16:02:02Z</time>
      </trkpt>
      <trkpt lat="48.65999" lon="1.96533">
        <ele>178.4</ele>
        <time>2024-03-14T16:02:03Z</time>
      </trkpt>
      <trkpt lat="48.66008" lon="1.96534">
        <ele>177.8</ele>
        <time>2024-03-14T16:02:04Z</time>
      </trkpt>
      <trkpt lat="48.66016" lon="1.96536">
        <ele>177.6</ele>
        <time>2024-03-14T16:02:05Z</time>
      </trkpt>
      <trkpt lat="48.66025" lon="1.96538">
        <ele>177.6</ele>
        <time>2024-03-14T16:02:06Z</time>
      </trkpt>
      <trkpt lat="48.66034" lon="1.9654">
        <ele>177.6</ele>
        <time>2024-03-14T16:02:07Z</time>
      </trkpt>
      <trkpt lat="48.66042" lon="1.96543">
        <ele>177.6</ele>
        <time>2024-03-14T16:02:08Z</time>
      </trkpt>
      <trkpt lat="48.66051" lon="1.96545">
        <ele>176.8</ele>
        <time>2024-03-14T16:02:09Z</time>
      </trkpt>
      <trkpt lat="48.6606" lon="1.96547">
        <ele>176.8</ele>
        <time>2024-03-14T16:02:10Z</time>
      </trkpt>
      <trkpt lat="48.66069" lon="1.96549">
        <ele>176.8</ele>
        <time>2024-03-14T16:02:11Z</time>
      </trkpt>
      <trkpt lat="48.66078" lon="1.96552">
        <ele>176.8</ele>
        <time>2024-03-14T16:02:12Z</time>
      </trkpt>
      <trkpt lat="48.66087" lon="1.96555">
        <ele>176.2</ele>
        <time>2024-03-14T16:02:13Z</time>
      </trkpt>
      <trkpt lat="48.66096" lon="1.96558">
        <ele>176.2</ele>
        <time>2024-03-14T16:02:14Z</time>
      </trkpt>
      <trkpt lat="48.66105" lon="1.9656">
        <ele>176.2</ele>
        <time>2024-03-14T16:02:15Z</time>
      </trkpt>
      <trkpt lat="48.66114" lon="1.96563">
        <ele>175.6</ele>
        <time>2024-03-14T16:02:16Z</time>
      </trkpt>
      <trkpt lat="48.66122" lon="1.96566">
        <ele>175</ele>
        <time>2024-03-14T16:02:17Z</time>
      </trkpt>
      <trkpt lat="48.66131" lon="1.96568">
        <ele>175</ele>
        <time>2024-03-14T16:02:18Z</time>
      </trkpt>
      <trkpt lat="48.6614" lon="1.9657">
        <ele>175</ele>
        <time>2024-03-14T16:02:19Z</time>
      </trkpt>
      <trkpt lat="48.66149" lon="1.96573">
        <ele>175.4</ele>
        <time>2024-03-14T16:02:20Z</time>
      </trkpt>
      <trkpt lat="48.66158" lon="1.96576">
        <ele>175.4</ele>
        <time>2024-03-14T16:02:21Z</time>
      </trkpt>
      <trkpt lat="48.66167" lon="1.96578">
        <ele>175.4</ele>
        <time>2024-03-14T16:02:22Z</time>
      </trkpt>
      <trkpt lat="48.66176" lon="1.96581">
        <ele>175.4</ele>
        <time>2024-03-14T16:02:23Z</time>
      </trkpt>
      <trkpt lat="48.66185" lon="1.96584">
        <ele>175.4</ele>
        <time>2024-03-14T16:02:24Z</time>
      </trkpt>
      <trkpt lat="48.66194" lon="1.96587">
        <ele>175.2</ele>
        <time>2024-03-14T16:02:25Z</time>
      </trkpt>
      <trkpt lat="48.66202" lon="1.9659">
        <ele>175.2</ele>
        <time>2024-03-14T16:02:26Z</time>
      </trkpt>
      <trkpt lat="48.66211" lon="1.96593">
        <ele>175.2</ele>
        <time>2024-03-14T16:02:27Z</time>
      </trkpt>
      <trkpt lat="48.6622" lon="1.96597">
        <ele>175.2</ele>
        <time>2024-03-14T16:02:28Z</time>
      </trkpt>
      <trkpt lat="48.66228" lon="1.96601">
        <ele>175.8</ele>
        <time>2024-03-14T16:02:29Z</time>
      </trkpt>
      <trkpt lat="48.66236" lon="1.96605">
        <ele>175.8</ele>
        <time>2024-03-14T16:02:30Z</time>
      </trkpt>
      <trkpt lat="48.66244" lon="1.9661">
        <ele>175.8</ele>
        <time>2024-03-14T16:02:31Z</time>
      </trkpt>
      <trkpt lat="48.66252" lon="1.96614">
        <ele>175.8</ele>
        <time>2024-03-14T16:02:32Z</time>
      </trkpt>
      <trkpt lat="48.6626" lon="1.96619">
        <ele>176.6</ele>
        <time>2024-03-14T16:02:33Z</time>
      </trkpt>
      <trkpt lat="48.66267" lon="1.96624">
        <ele>176.6</ele>
        <time>2024-03-14T16:02:34Z</time>
      </trkpt>
      <trkpt lat="48.66275" lon="1.96629">
        <ele>176.6</ele>
        <time>2024-03-14T16:02:35Z</time>
      </trkpt>
      <trkpt lat="48.66282" lon="1.96635">
        <ele>176.6</ele>
        <time>2024-03-14T16:02:36Z</time>
      </trkpt>
      <trkpt lat="48.66289" lon="1.9664">
        <ele>177.4</ele>
        <time>2024-03-14T16:02:37Z</time>
      </trkpt>
      <trkpt lat="48.66296" lon="1.96646">
        <ele>177.4</ele>
        <time>2024-03-14T16:02:38Z</time>
      </trkpt>
      <trkpt lat="48.66302" lon="1.96651">
        <ele>177.4</ele>
        <time>2024-03-14T16:02:39Z</time>
      </trkpt>
      <trkpt lat="48.66309" lon="1.96657">
        <ele>178</ele>
        <time>2024-03-14T16:02:40Z</time>
      </trkpt>
      <trkpt lat="48.66316" lon="1.96662">
        <ele>178.6</ele>
        <time>2024-03-14T16:02:41Z</time>
      </trkpt>
      <trkpt lat="48.66322" lon="1.96667">
        <ele>178.6</ele>
        <time>2024-03-14T16:02:42Z</time>
      </trkpt>
      <trkpt lat="48.66329" lon="1.96673">
        <ele>178.6</ele>
        <time>2024-03-14T16:02:43Z</time>
      </trkpt>
      <trkpt lat="48.66335" lon="1.96678">
        <ele>178.6</ele>
        <time>2024-03-14T16:02:44Z</time>
      </trkpt>
      <trkpt lat="48.66341" lon="1.96684">
        <ele>179.4</ele>
        <time>2024-03-14T16:02:45Z</time>
      </trkpt>
      <trkpt lat="48.66347" lon="1.96689">
        <ele>179.4</ele>
        <time>2024-03-14T16:02:46Z</time>
      </trkpt>
      <trkpt lat="48.66353" lon="1.96694">
        <ele>179.4</ele>
        <time>2024-03-14T16:02:47Z</time>
      </trkpt>
      <trkpt lat="48.66359" lon="1.96699">
        <ele>179.4</ele>
        <time>2024-03-14T16:02:48Z</time>
      </trkpt>
      <trkpt lat="48.66366" lon="1.96704">
        <ele>179.2</ele>
        <time>2024-03-14T16:02:49Z</time>
      </trkpt>
      <trkpt lat="48.66372" lon="1.96709">
        <ele>179.2</ele>
        <time>2024-03-14T16:02:50Z</time>
      </trkpt>
      <trkpt lat="48.66378" lon="1.96715">
        <ele>179.2</ele>
        <time>2024-03-14T16:02:51Z</time>
      </trkpt>
      <trkpt lat="48.66384" lon="1.9672">
        <ele>179.8</ele>
        <time>2024-03-14T16:02:52Z</time>
      </trkpt>
      <trkpt lat="48.6639" lon="1.96726">
        <ele>179.6</ele>
        <time>2024-03-14T16:02:53Z</time>
      </trkpt>
      <trkpt lat="48.66397" lon="1.96731">
        <ele>179.6</ele>
        <time>2024-03-14T16:02:54Z</time>
      </trkpt>
      <trkpt lat="48.66403" lon="1.96737">
        <ele>179.6</ele>
        <time>2024-03-14T16:02:55Z</time>
      </trkpt>
      <trkpt lat="48.66409" lon="1.96742">
        <ele>179.6</ele>
        <time>2024-03-14T16:02:56Z</time>
      </trkpt>
      <trkpt lat="48.66416" lon="1.96748">
        <ele>179.6</ele>
        <time>2024-03-14T16:02:57Z</time>
      </trkpt>
      <trkpt lat="48.66423" lon="1.96754">
        <ele>179.6</ele>
        <time>2024-03-14T16:02:58Z</time>
      </trkpt>
      <trkpt lat="48.66429" lon="1.96759">
        <ele>179.6</ele>
        <time>2024-03-14T16:02:59Z</time>
      </trkpt>
      <trkpt lat="48.66436" lon="1.96765">
        <ele>179.6</ele>
        <time>2024-03-14T16:03:00Z</time>
      </trkpt>
      <trkpt lat="48.66442" lon="1.96771">
        <ele>179.6</ele>
        <time>2024-03-14T16:03:01Z</time>
      </trkpt>
      <trkpt lat="48.66449" lon="1.96776">
        <ele>179.6</ele>
        <time>2024-03-14T16:03:02Z</time>
      </trkpt>
      <trkpt lat="48.66456" lon="1.96782">
        <ele>179.6</ele>
        <time>2024-03-14T16:03:03Z</time>
      </trkpt>
      <trkpt lat="48.66462" lon="1.96787">
        <ele>180.2</ele>
        <time>2024-03-14T16:03:04Z</time>
      </trkpt>
      <trkpt lat="48.66469" lon="1.96793">
        <ele>180</ele>
        <time>2024-03-14T16:03:05Z</time>
      </trkpt>
      <trkpt lat="48.66475" lon="1.96799">
        <ele>180</ele>
        <time>2024-03-14T16:03:06Z</time>
      </trkpt>
      <trkpt lat="48.66482" lon="1.96805">
        <ele>180</ele>
        <time>2024-03-14T16:03:07Z</time>
      </trkpt>
      <trkpt lat="48.66489" lon="1.9681">
        <ele>180</ele>
        <time>2024-03-14T16:03:08Z</time>
      </trkpt>
      <trkpt lat="48.66496" lon="1.96816">
        <ele>180</ele>
        <time>2024-03-14T16:03:09Z</time>
      </trkpt>
      <trkpt lat="48.66502" lon="1.96822">
        <ele>180</ele>
        <time>2024-03-14T16:03:10Z</time>
      </trkpt>
      <trkpt lat="48.66509" lon="1.96828">
        <ele>180</ele>
        <time>2024-03-14T16:03:11Z</time>
      </trkpt>
      <trkpt lat="48.66516" lon="1.96834">
        <ele>180</ele>
        <time>2024-03-14T16:03:12Z</time>
      </trkpt>
      <trkpt lat="48.66523" lon="1.9684">
        <ele>179.6</ele>
        <time>2024-03-14T16:03:13Z</time>
      </trkpt>
      <trkpt lat="48.6653" lon="1.96845">
        <ele>179.6</ele>
        <time>2024-03-14T16:03:14Z</time>
      </trkpt>
      <trkpt lat="48.66537" lon="1.96851">
        <ele>179.6</ele>
        <time>2024-03-14T16:03:15Z</time>
      </trkpt>
      <trkpt lat="48.66544" lon="1.96857">
        <ele>179.6</ele>
        <time>2024-03-14T16:03:16Z</time>
      </trkpt>
      <trkpt lat="48.66551" lon="1.96864">
        <ele>179.4</ele>
        <time>2024-03-14T16:03:17Z</time>
      </trkpt>
      <trkpt lat="48.66559" lon="1.9687">
        <ele>179.4</ele>
        <time>2024-03-14T16:03:18Z</time>
      </trkpt>
      <trkpt lat="48.66566" lon="1.96876">
        <ele>179.4</ele>
        <time>2024-03-14T16:03:19Z</time>
      </trkpt>
      <trkpt lat="48.66573" lon="1.96883">
        <ele>179.4</ele>
        <time>2024-03-14T16:03:20Z</time>
      </trkpt>
      <trkpt lat="48.6658" lon="1.96889">
        <ele>179.8</ele>
        <time>2024-03-14T16:03:21Z</time>
      </trkpt>
      <trkpt lat="48.66588" lon="1.96895">
        <ele>179.8</ele>
        <time>2024-03-14T16:03:22Z</time>
      </trkpt>
      <trkpt lat="48.66595" lon="1.96902">
        <ele>179.8</ele>
        <time>2024-03-14T16:03:23Z</time>
      </trkpt>
      <trkpt lat="48.66602" lon="1.96908">
        <ele>179.6</ele>
        <time>2024-03-14T16:03:24Z</time>
      </trkpt>
      <trkpt lat="48.66609" lon="1.96914">
        <ele>180</ele>
        <time>2024-03-14T16:03:25Z</time>
      </trkpt>
      <trkpt lat="48.66616" lon="1.96921">
        <ele>180</ele>
        <time>2024-03-14T16:03:26Z</time>
      </trkpt>
      <trkpt lat="48.66623" lon="1.96927">
        <ele>180</ele>
        <time>2024-03-14T16:03:27Z</time>
      </trkpt>
      <trkpt lat="48.6663" lon="1.96933">
        <ele>180</ele>
        <time>2024-03-14T16:03:28Z</time>
      </trkpt>
      <trkpt lat="48.66637" lon="1.9694">
        <ele>179.6</ele>
        <time>2024-03-14T16:03:29Z</time>
      </trkpt>
      <trkpt lat="48.66644" lon="1.96946">
        <ele>179.6</ele>
        <time>2024-03-14T16:03:30Z</time>
      </trkpt>
      <trkpt lat="48.66651" lon="1.96952">
        <ele>179.6</ele>
        <time>2024-03-14T16:03:31Z</time>
      </trkpt>
      <trkpt lat="48.66658" lon="1.96959">
        <ele>179.6</ele>
        <time>2024-03-14T16:03:32Z</time>
      </trkpt>
      <trkpt lat="48.66664" lon="1.96965">
        <ele>180</ele>
        <time>2024-03-14T16:03:33Z</time>
      </trkpt>
      <trkpt lat="48.66671" lon="1.96971">
        <ele>180</ele>
        <time>2024-03-14T16:03:34Z</time>
      </trkpt>
      <trkpt lat="48.66678" lon="1.96977">
        <ele>180</ele>
        <time>2024-03-14T16:03:35Z</time>
      </trkpt>
      <trkpt lat="48.66685" lon="1.96983">
        <ele>180</ele>
        <time>2024-03-14T16:03:36Z</time>
      </trkpt>
      <trkpt lat="48.66692" lon="1.96989">
        <ele>180</ele>
        <time>2024-03-14T16:03:37Z</time>
      </trkpt>
      <trkpt lat="48.667" lon="1.96994">
        <ele>180</ele>
        <time>2024-03-14T16:03:38Z</time>
      </trkpt>
      <trkpt lat="48.66707" lon="1.96999">
        <ele>180</ele>
        <time>2024-03-14T16:03:39Z</time>
      </trkpt>
      <trkpt lat="48.66714" lon="1.97003">
        <ele>180</ele>
        <time>2024-03-14T16:03:40Z</time>
      </trkpt>
      <trkpt lat="48.66722" lon="1.97006">
        <ele>181</ele>
        <time>2024-03-14T16:03:41Z</time>
      </trkpt>
      <trkpt lat="48.66729" lon="1.97009">
        <ele>181</ele>
        <time>2024-03-14T16:03:42Z</time>
      </trkpt>
      <trkpt lat="48.66737" lon="1.97012">
        <ele>181</ele>
        <time>2024-03-14T16:03:43Z</time>
      </trkpt>
      <trkpt lat="48.66744" lon="1.97014">
        <ele>181</ele>
        <time>2024-03-14T16:03:44Z</time>
      </trkpt>
      <trkpt lat="48.66752" lon="1.97016">
        <ele>180.6</ele>
        <time>2024-03-14T16:03:45Z</time>
      </trkpt>
      <trkpt lat="48.66759" lon="1.97018">
        <ele>180.6</ele>
        <time>2024-03-14T16:03:46Z</time>
      </trkpt>
      <trkpt lat="48.66767" lon="1.9702">
        <ele>180.6</ele>
        <time>2024-03-14T16:03:47Z</time>
      </trkpt>
      <trkpt lat="48.66774" lon="1.97022">
        <ele>181.6</ele>
        <time>2024-03-14T16:03:48Z</time>
      </trkpt>
      <trkpt lat="48.66781" lon="1.97024">
        <ele>181.2</ele>
        <time>2024-03-14T16:03:49Z</time>
      </trkpt>
      <trkpt lat="48.66789" lon="1.97026">
        <ele>181.2</ele>
        <time>2024-03-14T16:03:50Z</time>
      </trkpt>
      <trkpt lat="48.66796" lon="1.97028">
        <ele>181.2</ele>
        <time>2024-03-14T16:03:51Z</time>
      </trkpt>
      <trkpt lat="48.66804" lon="1.9703">
        <ele>181.8</ele>
        <time>2024-03-14T16:03:52Z</time>
      </trkpt>
      <trkpt lat="48.66812" lon="1.97032">
        <ele>181.4</ele>
        <time>2024-03-14T16:03:53Z</time>
      </trkpt>
      <trkpt lat="48.66819" lon="1.97034">
        <ele>181.4</ele>
        <time>2024-03-14T16:03:54Z</time>
      </trkpt>
      <trkpt lat="48.66827" lon="1.97036">
        <ele>181.4</ele>
        <time>2024-03-14T16:03:55Z</time>
      </trkpt>
      <trkpt lat="48.66835" lon="1.97038">
        <ele>181.4</ele>
        <time>2024-03-14T16:03:56Z</time>
      </trkpt>
      <trkpt lat="48.66843" lon="1.97041">
        <ele>180.6</ele>
        <time>2024-03-14T16:03:57Z</time>
      </trkpt>
      <trkpt lat="48.6685" lon="1.97044">
        <ele>180.6</ele>
        <time>2024-03-14T16:03:58Z</time>
      </trkpt>
      <trkpt lat="48.66858" lon="1.97047">
        <ele>180.6</ele>
        <time>2024-03-14T16:03:59Z</time>
      </trkpt>
      <trkpt lat="48.66866" lon="1.9705">
        <ele>180.6</ele>
        <time>2024-03-14T16:04:00Z</time>
      </trkpt>
      <trkpt lat="48.66874" lon="1.97053">
        <ele>179.4</ele>
        <time>2024-03-14T16:04:01Z</time>
      </trkpt>
      <trkpt lat="48.66882" lon="1.97057">
        <ele>179.4</ele>
        <time>2024-03-14T16:04:02Z</time>
      </trkpt>
      <trkpt lat="48.66889" lon="1.97061">
        <ele>179.4</ele>
        <time>2024-03-14T16:04:03Z</time>
      </trkpt>
      <trkpt lat="48.66897" lon="1.97065">
        <ele>179.8</ele>
        <time>2024-03-14T16:04:04Z</time>
      </trkpt>
      <trkpt lat="48.66904" lon="1.9707">
        <ele>179.6</ele>
        <time>2024-03-14T16:04:05Z</time>
      </trkpt>
      <trkpt lat="48.66912" lon="1.97075">
        <ele>179.6</ele>
        <time>2024-03-14T16:04:06Z</time>
      </trkpt>
      <trkpt lat="48.66919" lon="1.97081">
        <ele>179.6</ele>
        <time>2024-03-14T16:04:07Z</time>
      </trkpt>
      <trkpt lat="48.66926" lon="1.97086">
        <ele>179.6</ele>
        <time>2024-03-14T16:04:08Z</time>
      </trkpt>
      <trkpt lat="48.66934" lon="1.97091">
        <ele>178.2</ele>
        <time>2024-03-14T16:04:09Z</time>
      </trkpt>
      <trkpt lat="48.66941" lon="1.97096">
        <ele>178.2</ele>
        <time>2024-03-14T16:04:10Z</time>
      </trkpt>
      <trkpt lat="48.66949" lon="1.97102">
        <ele>178.2</ele>
        <time>2024-03-14T16:04:11Z</time>
      </trkpt>
      <trkpt lat="48.66957" lon="1.97107">
        <ele>178.2</ele>
        <time>2024-03-14T16:04:12Z</time>
      </trkpt>
      <trkpt lat="48.66965" lon="1.97112">
        <ele>177.2</ele>
        <time>2024-03-14T16:04:13Z</time>
      </trkpt>
      <trkpt lat="48.66973" lon="1.97118">
        <ele>177.2</ele>
        <time>2024-03-14T16:04:14Z</time>
      </trkpt>
      <trkpt lat="48.66981" lon="1.97123">
        <ele>177.2</ele>
        <time>2024-03-14T16:04:15Z</time>
      </trkpt>
      <trkpt lat="48.66989" lon="1.97129">
        <ele>176.2</ele>
        <time>2024-03-14T16:04:16Z</time>
      </trkpt>
      <trkpt lat="48.66997" lon="1.97135">
        <ele>175.2</ele>
        <time>2024-03-14T16:04:17Z</time>
      </trkpt>
      <trkpt lat="48.67005" lon="1.97141">
        <ele>175.2</ele>
        <time>2024-03-14T16:04:18Z</time>
      </trkpt>
      <trkpt lat="48.67013" lon="1.97148">
        <ele>175.2</ele>
        <time>2024-03-14T16:04:19Z</time>
      </trkpt>
      <trkpt lat="48.67021" lon="1.97154">
        <ele>174.2</ele>
        <time>2024-03-14T16:04:20Z</time>
      </trkpt>
      <trkpt lat="48.67029" lon="1.9716">
        <ele>173.8</ele>
        <time>2024-03-14T16:04:21Z</time>
      </trkpt>
      <trkpt lat="48.67037" lon="1.97166">
        <ele>173.8</ele>
        <time>2024-03-14T16:04:22Z</time>
      </trkpt>
      <trkpt lat="48.67046" lon="1.9717">
        <ele>173.8</ele>
        <time>2024-03-14T16:04:23Z</time>
      </trkpt>
      <trkpt lat="48.67055" lon="1.97175">
        <ele>172.8</ele>
        <time>2024-03-14T16:04:24Z</time>
      </trkpt>
      <trkpt lat="48.67063" lon="1.97181">
        <ele>172.6</ele>
        <time>2024-03-14T16:04:25Z</time>
      </trkpt>
      <trkpt lat="48.67072" lon="1.97186">
        <ele>172.6</ele>
        <time>2024-03-14T16:04:26Z</time>
      </trkpt>
      <trkpt lat="48.67081" lon="1.97191">
        <ele>172.6</ele>
        <time>2024-03-14T16:04:27Z</time>
      </trkpt>
      <trkpt lat="48.67089" lon="1.97196">
        <ele>171.6</ele>
        <time>2024-03-14T16:04:28Z</time>
      </trkpt>
      <trkpt lat="48.67098" lon="1.97201">
        <ele>172</ele>
        <time>2024-03-14T16:04:29Z</time>
      </trkpt>
      <trkpt lat="48.67107" lon="1.97206">
        <ele>172</ele>
        <time>2024-03-14T16:04:30Z</time>
      </trkpt>
      <trkpt lat="48.67115" lon="1.97211">
        <ele>172</ele>
        <time>2024-03-14T16:04:31Z</time>
      </trkpt>
      <trkpt lat="48.67124" lon="1.97216">
        <ele>171.4</ele>
        <time>2024-03-14T16:04:32Z</time>
      </trkpt>
      <trkpt lat="48.67132" lon="1.97221">
        <ele>172.2</ele>
        <time>2024-03-14T16:04:33Z</time>
      </trkpt>
      <trkpt lat="48.67139" lon="1.97226">
        <ele>172.2</ele>
        <time>2024-03-14T16:04:34Z</time>
      </trkpt>
      <trkpt lat="48.67145" lon="1.9723">
        <ele>172.2</ele>
        <time>2024-03-14T16:04:35Z</time>
      </trkpt>
      <trkpt lat="48.67151" lon="1.97233">
        <ele>172.2</ele>
        <time>2024-03-14T16:04:36Z</time>
      </trkpt>
      <trkpt lat="48.67156" lon="1.97237">
        <ele>172.4</ele>
        <time>2024-03-14T16:04:37Z</time>
      </trkpt>
      <trkpt lat="48.67161" lon="1.97241">
        <ele>172.4</ele>
        <time>2024-03-14T16:04:38Z</time>
      </trkpt>
      <trkpt lat="48.67166" lon="1.97242">
        <ele>172.4</ele>
        <time>2024-03-14T16:04:39Z</time>
      </trkpt>
      <trkpt lat="48.67172" lon="1.97241">
        <ele>172</ele>
        <time>2024-03-14T16:04:40Z</time>
      </trkpt>
      <trkpt lat="48.67177" lon="1.97238">
        <ele>171.8</ele>
        <time>2024-03-14T16:04:41Z</time>
      </trkpt>
      <trkpt lat="48.67182" lon="1.97233">
        <ele>171.8</ele>
        <time>2024-03-14T16:04:42Z</time>
      </trkpt>
      <trkpt lat="48.67185" lon="1.97225">
        <ele>171.8</ele>
        <time>2024-03-14T16:04:43Z</time>
      </trkpt>
      <trkpt lat="48.67188" lon="1.97217">
        <ele>171</ele>
        <time>2024-03-14T16:04:44Z</time>
      </trkpt>
      <trkpt lat="48.67191" lon="1.97209">
        <ele>170.6</ele>
        <time>2024-03-14T16:04:45Z</time>
      </trkpt>
      <trkpt lat="48.67194" lon="1.97201">
        <ele>170.6</ele>
        <time>2024-03-14T16:04:46Z</time>
      </trkpt>
      <trkpt lat="48.67197" lon="1.97192">
        <ele>170.6</ele>
        <time>2024-03-14T16:04:47Z</time>
      </trkpt>
      <trkpt lat="48.67201" lon="1.97183">
        <ele>169.8</ele>
        <time>2024-03-14T16:04:48Z</time>
      </trkpt>
      <trkpt lat="48.67204" lon="1.97174">
        <ele>169.8</ele>
        <time>2024-03-14T16:04:49Z</time>
      </trkpt>
      <trkpt lat="48.67208" lon="1.97166">
        <ele>169.8</ele>
        <time>2024-03-14T16:04:50Z</time>
      </trkpt>
      <trkpt lat="48.67212" lon="1.97156">
        <ele>169.8</ele>
        <time>2024-03-14T16:04:51Z</time>
      </trkpt>
      <trkpt lat="48.67215" lon="1.97147">
        <ele>169.8</ele>
        <time>2024-03-14T16:04:52Z</time>
      </trkpt>
      <trkpt lat="48.67219" lon="1.97137">
        <ele>168</ele>
        <time>2024-03-14T16:04:53Z</time>
      </trkpt>
      <trkpt lat="48.67222" lon="1.97128">
        <ele>168</ele>
        <time>2024-03-14T16:04:54Z</time>
      </trkpt>
      <trkpt lat="48.67226" lon="1.97119">
        <ele>168</ele>
        <time>2024-03-14T16:04:55Z</time>
      </trkpt>
      <trkpt lat="48.67229" lon="1.9711">
        <ele>168.8</ele>
        <time>2024-03-14T16:04:56Z</time>
      </trkpt>
      <trkpt lat="48.67233" lon="1.971">
        <ele>168.2</ele>
        <time>2024-03-14T16:04:57Z</time>
      </trkpt>
      <trkpt lat="48.67235" lon="1.97091">
        <ele>168.2</ele>
        <time>2024-03-14T16:04:58Z</time>
      </trkpt>
      <trkpt lat="48.67238" lon="1.97081">
        <ele>168.2</ele>
        <time>2024-03-14T16:04:59Z</time>
      </trkpt>
      <trkpt lat="48.6724" lon="1.97071">
        <ele>168.6</ele>
        <time>2024-03-14T16:05:00Z</time>
      </trkpt>
      <trkpt lat="48.67243" lon="1.97062">
        <ele>168.2</ele>
        <time>2024-03-14T16:05:01Z</time>
      </trkpt>
      <trkpt lat="48.67245" lon="1.97053">
        <ele>168.2</ele>
        <time>2024-03-14T16:05:02Z</time>
      </trkpt>
      <trkpt lat="48.67247" lon="1.97045">
        <ele>168.2</ele>
        <time>2024-03-14T16:05:03Z</time>
      </trkpt>
      <trkpt lat="48.6725" lon="1.97038">
        <ele>168.8</ele>
        <time>2024-03-14T16:05:04Z</time>
      </trkpt>
      <trkpt lat="48.67254" lon="1.97032">
        <ele>168.8</ele>
        <time>2024-03-14T16:05:05Z</time>
      </trkpt>
      <trkpt lat="48.67258" lon="1.9703">
        <ele>168.8</ele>
        <time>2024-03-14T16:05:06Z</time>
      </trkpt>
      <trkpt lat="48.67263" lon="1.97032">
        <ele>168.8</ele>
        <time>2024-03-14T16:05:07Z</time>
      </trkpt>
      <trkpt lat="48.67267" lon="1.97037">
        <ele>169.4</ele>
        <time>2024-03-14T16:05:08Z</time>
      </trkpt>
      <trkpt lat="48.67271" lon="1.97043">
        <ele>168.6</ele>
        <time>2024-03-14T16:05:09Z</time>
      </trkpt>
      <trkpt lat="48.67275" lon="1.9705">
        <ele>168.6</ele>
        <time>2024-03-14T16:05:10Z</time>
      </trkpt>
      <trkpt lat="48.67279" lon="1.97057">
        <ele>168.6</ele>
        <time>2024-03-14T16:05:11Z</time>
      </trkpt>
      <trkpt lat="48.67284" lon="1.97065">
        <ele>168</ele>
        <time>2024-03-14T16:05:12Z</time>
      </trkpt>
      <trkpt lat="48.67288" lon="1.97073">
        <ele>167.8</ele>
        <time>2024-03-14T16:05:13Z</time>
      </trkpt>
      <trkpt lat="48.67294" lon="1.97081">
        <ele>167.8</ele>
        <time>2024-03-14T16:05:14Z</time>
      </trkpt>
      <trkpt lat="48.67299" lon="1.97089">
        <ele>167.8</ele>
        <time>2024-03-14T16:05:15Z</time>
      </trkpt>
      <trkpt lat="48.67304" lon="1.97097">
        <ele>167.8</ele>
        <time>2024-03-14T16:05:16Z</time>
      </trkpt>
      <trkpt lat="48.67308" lon="1.97104">
        <ele>167.8</ele>
        <time>2024-03-14T16:05:17Z</time>
      </trkpt>
      <trkpt lat="48.67312" lon="1.9711">
        <ele>167.8</ele>
        <time>2024-03-14T16:05:18Z</time>
      </trkpt>
      <trkpt lat="48.67315" lon="1.97114">
        <ele>167.8</ele>
        <time>2024-03-14T16:05:19Z</time>
      </trkpt>
      <trkpt lat="48.67318" lon="1.97118">
        <ele>168.6</ele>
        <time>2024-03-14T16:05:20Z</time>
      </trkpt>
      <trkpt lat="48.67319" lon="1.9712">
        <ele>168.4</ele>
        <time>2024-03-14T16:05:21Z</time>
      </trkpt>
      <trkpt lat="48.67321" lon="1.97122">
        <ele>168.4</ele>
        <time>2024-03-14T16:05:22Z</time>
      </trkpt>
      <trkpt lat="48.67323" lon="1.97122">
        <ele>168.4</ele>
        <time>2024-03-14T16:05:23Z</time>
      </trkpt>
      <trkpt lat="48.67326" lon="1.97119">
        <ele>168.4</ele>
        <time>2024-03-14T16:05:24Z</time>
      </trkpt>
      <trkpt lat="48.67328" lon="1.97115">
        <ele>167.2</ele>
        <time>2024-03-14T16:05:25Z</time>
      </trkpt>
      <trkpt lat="48.6733" lon="1.97108">
        <ele>167.2</ele>
        <time>2024-03-14T16:05:26Z</time>
      </trkpt>
      <trkpt lat="48.67332" lon="1.97101">
        <ele>167.2</ele>
        <time>2024-03-14T16:05:27Z</time>
      </trkpt>
      <trkpt lat="48.67333" lon="1.97092">
        <ele>167.2</ele>
        <time>2024-03-14T16:05:28Z</time>
      </trkpt>
      <trkpt lat="48.67335" lon="1.97083">
        <ele>164.6</ele>
        <time>2024-03-14T16:05:29Z</time>
      </trkpt>
      <trkpt lat="48.67336" lon="1.97073">
        <ele>164.6</ele>
        <time>2024-03-14T16:05:30Z</time>
      </trkpt>
      <trkpt lat="48.67337" lon="1.97063">
        <ele>164.6</ele>
        <time>2024-03-14T16:05:31Z</time>
      </trkpt>
      <trkpt lat="48.67338" lon="1.97052">
        <ele>163.6</ele>
        <time>2024-03-14T16:05:32Z</time>
      </trkpt>
      <trkpt lat="48.6734" lon="1.97041">
        <ele>162</ele>
        <time>2024-03-14T16:05:33Z</time>
      </trkpt>
      <trkpt lat="48.67341" lon="1.97029">
        <ele>162</ele>
        <time>2024-03-14T16:05:34Z</time>
      </trkpt>
      <trkpt lat="48.67343" lon="1.97019">
        <ele>162</ele>
        <time>2024-03-14T16:05:35Z</time>
      </trkpt>
      <trkpt lat="48.67346" lon="1.97007">
        <ele>161</ele>
        <time>2024-03-14T16:05:36Z</time>
      </trkpt>
      <trkpt lat="48.67349" lon="1.96994">
        <ele>159.2</ele>
        <time>2024-03-14T16:05:37Z</time>
      </trkpt>
      <trkpt lat="48.67352" lon="1.96982">
        <ele>159.2</ele>
        <time>2024-03-14T16:05:38Z</time>
      </trkpt>
      <trkpt lat="48.67355" lon="1.96969">
        <ele>159.2</ele>
        <time>2024-03-14T16:05:39Z</time>
      </trkpt>
      <trkpt lat="48.67359" lon="1.96956">
        <ele>158.2</ele>
        <time>2024-03-14T16:05:40Z</time>
      </trkpt>
      <trkpt lat="48.67362" lon="1.96942">
        <ele>157.2</ele>
        <time>2024-03-14T16:05:41Z</time>
      </trkpt>
      <trkpt lat="48.67366" lon="1.9693">
        <ele>157.2</ele>
        <time>2024-03-14T16:05:42Z</time>
      </trkpt>
      <trkpt lat="48.67369" lon="1.96918">
        <ele>157.2</ele>
        <time>2024-03-14T16:05:43Z</time>
      </trkpt>
      <trkpt lat="48.67373" lon="1.96906">
        <ele>157.2</ele>
        <time>2024-03-14T16:05:44Z</time>
      </trkpt>
      <trkpt lat="48.67374" lon="1.96892">
        <ele>155.6</ele>
        <time>2024-03-14T16:05:45Z</time>
      </trkpt>
      <trkpt lat="48.67376" lon="1.96879">
        <ele>155.6</ele>
        <time>2024-03-14T16:05:46Z</time>
      </trkpt>
      <trkpt lat="48.67377" lon="1.96866">
        <ele>155.6</ele>
        <time>2024-03-14T16:05:47Z</time>
      </trkpt>
      <trkpt lat="48.67378" lon="1.96853">
        <ele>154.6</ele>
        <time>2024-03-14T16:05:48Z</time>
      </trkpt>
      <trkpt lat="48.6738" lon="1.96839">
        <ele>153.6</ele>
        <time>2024-03-14T16:05:49Z</time>
      </trkpt>
      <trkpt lat="48.67381" lon="1.96824">
        <ele>153.6</ele>
        <time>2024-03-14T16:05:50Z</time>
      </trkpt>
      <trkpt lat="48.67381" lon="1.9681">
        <ele>153.6</ele>
        <time>2024-03-14T16:05:51Z</time>
      </trkpt>
      <trkpt lat="48.67382" lon="1.96794">
        <ele>152.6</ele>
        <time>2024-03-14T16:05:52Z</time>
      </trkpt>
      <trkpt lat="48.67383" lon="1.9678">
        <ele>151.2</ele>
        <time>2024-03-14T16:05:53Z</time>
      </trkpt>
      <trkpt lat="48.67384" lon="1.96766">
        <ele>151.2</ele>
        <time>2024-03-14T16:05:54Z</time>
      </trkpt>
      <trkpt lat="48.67385" lon="1.96751">
        <ele>151.2</ele>
        <time>2024-03-14T16:05:55Z</time>
      </trkpt>
      <trkpt lat="48.67387" lon="1.96737">
        <ele>150.2</ele>
        <time>2024-03-14T16:05:56Z</time>
      </trkpt>
      <trkpt lat="48.67389" lon="1.96723">
        <ele>149.6</ele>
        <time>2024-03-14T16:05:57Z</time>
      </trkpt>
      <trkpt lat="48.67392" lon="1.9671">
        <ele>149.6</ele>
        <time>2024-03-14T16:05:58Z</time>
      </trkpt>
      <trkpt lat="48.67396" lon="1.967">
        <ele>149.6</ele>
        <time>2024-03-14T16:05:59Z</time>
      </trkpt>
      <trkpt lat="48.67402" lon="1.96689">
        <ele>149</ele>
        <time>2024-03-14T16:06:00Z</time>
      </trkpt>
      <trkpt lat="48.67408" lon="1.96676">
        <ele>149</ele>
        <time>2024-03-14T16:06:01Z</time>
      </trkpt>
      <trkpt lat="48.67413" lon="1.96665">
        <ele>149</ele>
        <time>2024-03-14T16:06:02Z</time>
      </trkpt>
      <trkpt lat="48.6742" lon="1.96656">
        <ele>149</ele>
        <time>2024-03-14T16:06:03Z</time>
      </trkpt>
      <trkpt lat="48.67426" lon="1.96647">
        <ele>148.6</ele>
        <time>2024-03-14T16:06:04Z</time>
      </trkpt>
      <trkpt lat="48.67431" lon="1.96636">
        <ele>148</ele>
        <time>2024-03-14T16:06:05Z</time>
      </trkpt>
      <trkpt lat="48.67437" lon="1.96626">
        <ele>148</ele>
        <time>2024-03-14T16:06:06Z</time>
      </trkpt>
      <trkpt lat="48.67444" lon="1.96616">
        <ele>148</ele>
        <time>2024-03-14T16:06:07Z</time>
      </trkpt>
      <trkpt lat="48.6745" lon="1.96606">
        <ele>147</ele>
        <time>2024-03-14T16:06:08Z</time>
      </trkpt>
      <trkpt lat="48.67457" lon="1.96598">
        <ele>145.4</ele>
        <time>2024-03-14T16:06:09Z</time>
      </trkpt>
      <trkpt lat="48.67464" lon="1.96588">
        <ele>145.4</ele>
        <time>2024-03-14T16:06:10Z</time>
      </trkpt>
      <trkpt lat="48.67473" lon="1.96581">
        <ele>145.4</ele>
        <time>2024-03-14T16:06:11Z</time>
      </trkpt>
      <trkpt lat="48.67481" lon="1.96575">
        <ele>144.4</ele>
        <time>2024-03-14T16:06:12Z</time>
      </trkpt>
      <trkpt lat="48.67489" lon="1.96569">
        <ele>143.6</ele>
        <time>2024-03-14T16:06:13Z</time>
      </trkpt>
      <trkpt lat="48.67498" lon="1.96564">
        <ele>143.6</ele>
        <time>2024-03-14T16:06:14Z</time>
      </trkpt>
      <trkpt lat="48.67507" lon="1.96558">
        <ele>143.6</ele>
        <time>2024-03-14T16:06:15Z</time>
      </trkpt>
      <trkpt lat="48.67515" lon="1.9655">
        <ele>142.6</ele>
        <time>2024-03-14T16:06:16Z</time>
      </trkpt>
      <trkpt lat="48.67522" lon="1.96538">
        <ele>142</ele>
        <time>2024-03-14T16:06:17Z</time>
      </trkpt>
      <trkpt lat="48.67527" lon="1.96526">
        <ele>142</ele>
        <time>2024-03-14T16:06:18Z</time>
      </trkpt>
      <trkpt lat="48.67533" lon="1.96513">
        <ele>142</ele>
        <time>2024-03-14T16:06:19Z</time>
      </trkpt>
      <trkpt lat="48.67538" lon="1.965">
        <ele>141</ele>
        <time>2024-03-14T16:06:20Z</time>
      </trkpt>
      <trkpt lat="48.67542" lon="1.96487">
        <ele>139.6</ele>
        <time>2024-03-14T16:06:21Z</time>
      </trkpt>
      <trkpt lat="48.67546" lon="1.96473">
        <ele>139.6</ele>
        <time>2024-03-14T16:06:22Z</time>
      </trkpt>
      <trkpt lat="48.6755" lon="1.96459">
        <ele>139.6</ele>
        <time>2024-03-14T16:06:23Z</time>
      </trkpt>
      <trkpt lat="48.67553" lon="1.96444">
        <ele>138.6</ele>
        <time>2024-03-14T16:06:24Z</time>
      </trkpt>
      <trkpt lat="48.67556" lon="1.96429">
        <ele>136.4</ele>
        <time>2024-03-14T16:06:25Z</time>
      </trkpt>
      <trkpt lat="48.67557" lon="1.96413">
        <ele>136.4</ele>
        <time>2024-03-14T16:06:26Z</time>
      </trkpt>
      <trkpt lat="48.67555" lon="1.96398">
        <ele>136.4</ele>
        <time>2024-03-14T16:06:27Z</time>
      </trkpt>
      <trkpt lat="48.67553" lon="1.96384">
        <ele>135.4</ele>
        <time>2024-03-14T16:06:28Z</time>
      </trkpt>
      <trkpt lat="48.67549" lon="1.9637">
        <ele>134.4</ele>
        <time>2024-03-14T16:06:29Z</time>
      </trkpt>
      <trkpt lat="48.67543" lon="1.96359">
        <ele>134.4</ele>
        <time>2024-03-14T16:06:30Z</time>
      </trkpt>
      <trkpt lat="48.67537" lon="1.96348">
        <ele>134.4</ele>
        <time>2024-03-14T16:06:31Z</time>
      </trkpt>
      <trkpt lat="48.6753" lon="1.9634">
        <ele>133.4</ele>
        <time>2024-03-14T16:06:32Z</time>
      </trkpt>
      <trkpt lat="48.67523" lon="1.96333">
        <ele>132.4</ele>
        <time>2024-03-14T16:06:33Z</time>
      </trkpt>
      <trkpt lat="48.67515" lon="1.96321">
        <ele>132.4</ele>
        <time>2024-03-14T16:06:34Z</time>
      </trkpt>
      <trkpt lat="48.67507" lon="1.96311">
        <ele>132.4</ele>
        <time>2024-03-14T16:06:35Z</time>
      </trkpt>
      <trkpt lat="48.67499" lon="1.96302">
        <ele>131.4</ele>
        <time>2024-03-14T16:06:36Z</time>
      </trkpt>
      <trkpt lat="48.67491" lon="1.96293">
        <ele>130</ele>
        <time>2024-03-14T16:06:37Z</time>
      </trkpt>
      <trkpt lat="48.67483" lon="1.96284">
        <ele>130</ele>
        <time>2024-03-14T16:06:38Z</time>
      </trkpt>
      <trkpt lat="48.67475" lon="1.96273">
        <ele>130</ele>
        <time>2024-03-14T16:06:39Z</time>
      </trkpt>
      <trkpt lat="48.67468" lon="1.96262">
        <ele>129</ele>
        <time>2024-03-14T16:06:40Z</time>
      </trkpt>
      <trkpt lat="48.67461" lon="1.96251">
        <ele>128.2</ele>
        <time>2024-03-14T16:06:41Z</time>
      </trkpt>
      <trkpt lat="48.67455" lon="1.96242">
        <ele>128.2</ele>
        <time>2024-03-14T16:06:42Z</time>
      </trkpt>
      <trkpt lat="48.67449" lon="1.96231">
        <ele>128.2</ele>
        <time>2024-03-14T16:06:43Z</time>
      </trkpt>
      <trkpt lat="48.67445" lon="1.96221">
        <ele>129.2</ele>
        <time>2024-03-14T16:06:44Z</time>
      </trkpt>
      <trkpt lat="48.67441" lon="1.96213">
        <ele>129.8</ele>
        <time>2024-03-14T16:06:45Z</time>
      </trkpt>
      <trkpt lat="48.67438" lon="1.96206">
        <ele>129.8</ele>
        <time>2024-03-14T16:06:46Z</time>
      </trkpt>
      <trkpt lat="48.67435" lon="1.96199">
        <ele>129.8</ele>
        <time>2024-03-14T16:06:47Z</time>
      </trkpt>
      <trkpt lat="48.67434" lon="1.96194">
        <ele>130.8</ele>
        <time>2024-03-14T16:06:48Z</time>
      </trkpt>
      <trkpt lat="48.67433" lon="1.96189">
        <ele>131.4</ele>
        <time>2024-03-14T16:06:49Z</time>
      </trkpt>
      <trkpt lat="48.67431" lon="1.96185">
        <ele>131.4</ele>
        <time>2024-03-14T16:06:50Z</time>
      </trkpt>
      <trkpt lat="48.67429" lon="1.96181">
        <ele>131.4</ele>
        <time>2024-03-14T16:06:51Z</time>
      </trkpt>
      <trkpt lat="48.67427" lon="1.96175">
        <ele>130.6</ele>
        <time>2024-03-14T16:06:52Z</time>
      </trkpt>
      <trkpt lat="48.67423" lon="1.9617">
        <ele>130.6</ele>
        <time>2024-03-14T16:06:53Z</time>
      </trkpt>
      <trkpt lat="48.6742" lon="1.96164">
        <ele>130.6</ele>
        <time>2024-03-14T16:06:54Z</time>
      </trkpt>
      <trkpt lat="48.67417" lon="1.96157">
        <ele>130.6</ele>
        <time>2024-03-14T16:06:55Z</time>
      </trkpt>
      <trkpt lat="48.67416" lon="1.96148">
        <ele>130</ele>
        <time>2024-03-14T16:06:56Z</time>
      </trkpt>
      <trkpt lat="48.67415" lon="1.96139">
        <ele>129.2</ele>
        <time>2024-03-14T16:06:57Z</time>
      </trkpt>
      <trkpt lat="48.67415" lon="1.96129">
        <ele>129.2</ele>
        <time>2024-03-14T16:06:58Z</time>
      </trkpt>
      <trkpt lat="48.67414" lon="1.9612">
        <ele>129.2</ele>
        <time>2024-03-14T16:06:59Z</time>
      </trkpt>
      <trkpt lat="48.67414" lon="1.96109">
        <ele>128.2</ele>
        <time>2024-03-14T16:07:00Z</time>
      </trkpt>
      <trkpt lat="48.67414" lon="1.96098">
        <ele>127.2</ele>
        <time>2024-03-14T16:07:01Z</time>
      </trkpt>
      <trkpt lat="48.67414" lon="1.96087">
        <ele>127.2</ele>
        <time>2024-03-14T16:07:02Z</time>
      </trkpt>
      <trkpt lat="48.67413" lon="1.96077">
        <ele>127.2</ele>
        <time>2024-03-14T16:07:03Z</time>
      </trkpt>
      <trkpt lat="48.67415" lon="1.96066">
        <ele>127.2</ele>
        <time>2024-03-14T16:07:04Z</time>
      </trkpt>
      <trkpt lat="48.67416" lon="1.96055">
        <ele>126.6</ele>
        <time>2024-03-14T16:07:05Z</time>
      </trkpt>
      <trkpt lat="48.67418" lon="1.96043">
        <ele>126.6</ele>
        <time>2024-03-14T16:07:06Z</time>
      </trkpt>
      <trkpt lat="48.6742" lon="1.96032">
        <ele>126.6</ele>
        <time>2024-03-14T16:07:07Z</time>
      </trkpt>
      <trkpt lat="48.67422" lon="1.96022">
        <ele>126.6</ele>
        <time>2024-03-14T16:07:08Z</time>
      </trkpt>
      <trkpt lat="48.67424" lon="1.9601">
        <ele>126.4</ele>
        <time>2024-03-14T16:07:09Z</time>
      </trkpt>
      <trkpt lat="48.67426" lon="1.95998">
        <ele>126.4</ele>
        <time>2024-03-14T16:07:10Z</time>
      </trkpt>
      <trkpt lat="48.67427" lon="1.95985">
        <ele>126.4</ele>
        <time>2024-03-14T16:07:11Z</time>
      </trkpt>
      <trkpt lat="48.67429" lon="1.95976">
        <ele>127.2</ele>
        <time>2024-03-14T16:07:12Z</time>
      </trkpt>
      <trkpt lat="48.67431" lon="1.95967">
        <ele>127.8</ele>
        <time>2024-03-14T16:07:13Z</time>
      </trkpt>
      <trkpt lat="48.67432" lon="1.95956">
        <ele>127.8</ele>
        <time>2024-03-14T16:07:14Z</time>
      </trkpt>
      <trkpt lat="48.67433" lon="1.95944">
        <ele>127.8</ele>
        <time>2024-03-14T16:07:15Z</time>
      </trkpt>
      <trkpt lat="48.67433" lon="1.95934">
        <ele>128.8</ele>
        <time>2024-03-14T16:07:16Z</time>
      </trkpt>
      <trkpt lat="48.67434" lon="1.95924">
        <ele>129.8</ele>
        <time>2024-03-14T16:07:17Z</time>
      </trkpt>
      <trkpt lat="48.67434" lon="1.95915">
        <ele>129.8</ele>
        <time>2024-03-14T16:07:18Z</time>
      </trkpt>
      <trkpt lat="48.67434" lon="1.95905">
        <ele>129.8</ele>
        <time>2024-03-14T16:07:19Z</time>
      </trkpt>
      <trkpt lat="48.67435" lon="1.95896">
        <ele>129.8</ele>
        <time>2024-03-14T16:07:20Z</time>
      </trkpt>
      <trkpt lat="48.67435" lon="1.95887">
        <ele>129.8</ele>
        <time>2024-03-14T16:07:21Z</time>
      </trkpt>
      <trkpt lat="48.67435" lon="1.95878">
        <ele>129.8</ele>
        <time>2024-03-14T16:07:22Z</time>
      </trkpt>
      <trkpt lat="48.67435" lon="1.95868">
        <ele>129.8</ele>
        <time>2024-03-14T16:07:23Z</time>
      </trkpt>
      <trkpt lat="48.67435" lon="1.95859">
        <ele>129.8</ele>
        <time>2024-03-14T16:07:24Z</time>
      </trkpt>
      <trkpt lat="48.67435" lon="1.95851">
        <ele>130.4</ele>
        <time>2024-03-14T16:07:25Z</time>
      </trkpt>
      <trkpt lat="48.67436" lon="1.95843">
        <ele>130.4</ele>
        <time>2024-03-14T16:07:26Z</time>
      </trkpt>
      <trkpt lat="48.67436" lon="1.95834">
        <ele>130.4</ele>
        <time>2024-03-14T16:07:27Z</time>
      </trkpt>
      <trkpt lat="48.67435" lon="1.95825">
        <ele>129.6</ele>
        <time>2024-03-14T16:07:28Z</time>
      </trkpt>
      <trkpt lat="48.67435" lon="1.95816">
        <ele>129.4</ele>
        <time>2024-03-14T16:07:29Z</time>
      </trkpt>
      <trkpt lat="48.67435" lon="1.95807">
        <ele>129.4</ele>
        <time>2024-03-14T16:07:30Z</time>
      </trkpt>
      <trkpt lat="48.67434" lon="1.95797">
        <ele>129.4</ele>
        <time>2024-03-14T16:07:31Z</time>
      </trkpt>
      <trkpt lat="48.67433" lon="1.95788">
        <ele>129.4</ele>
        <time>2024-03-14T16:07:32Z</time>
      </trkpt>
      <trkpt lat="48.67432" lon="1.95777">
        <ele>128.6</ele>
        <time>2024-03-14T16:07:33Z</time>
      </trkpt>
      <trkpt lat="48.67431" lon="1.95767">
        <ele>128.6</ele>
        <time>2024-03-14T16:07:34Z</time>
      </trkpt>
      <trkpt lat="48.6743" lon="1.95757">
        <ele>128.6</ele>
        <time>2024-03-14T16:07:35Z</time>
      </trkpt>
      <trkpt lat="48.67428" lon="1.95746">
        <ele>127.6</ele>
        <time>2024-03-14T16:07:36Z</time>
      </trkpt>
      <trkpt lat="48.67426" lon="1.95736">
        <ele>127.2</ele>
        <time>2024-03-14T16:07:37Z</time>
      </trkpt>
      <trkpt lat="48.67425" lon="1.95726">
        <ele>127.2</ele>
        <time>2024-03-14T16:07:38Z</time>
      </trkpt>
      <trkpt lat="48.67423" lon="1.95716">
        <ele>127.2</ele>
        <time>2024-03-14T16:07:39Z</time>
      </trkpt>
      <trkpt lat="48.67422" lon="1.95706">
        <ele>127.2</ele>
        <time>2024-03-14T16:07:40Z</time>
      </trkpt>
      <trkpt lat="48.6742" lon="1.95696">
        <ele>127</ele>
        <time>2024-03-14T16:07:41Z</time>
      </trkpt>
      <trkpt lat="48.67418" lon="1.95685">
        <ele>127</ele>
        <time>2024-03-14T16:07:42Z</time>
      </trkpt>
      <trkpt lat="48.67417" lon="1.95673">
        <ele>127</ele>
        <time>2024-03-14T16:07:43Z</time>
      </trkpt>
      <trkpt lat="48.67417" lon="1.95662">
        <ele>127.4</ele>
        <time>2024-03-14T16:07:44Z</time>
      </trkpt>
      <trkpt lat="48.67418" lon="1.95651">
        <ele>127.4</ele>
        <time>2024-03-14T16:07:45Z</time>
      </trkpt>
      <trkpt lat="48.67421" lon="1.95641">
        <ele>127.4</ele>
        <time>2024-03-14T16:07:46Z</time>
      </trkpt>
      <trkpt lat="48.67424" lon="1.95632">
        <ele>127.4</ele>
        <time>2024-03-14T16:07:47Z</time>
      </trkpt>
      <trkpt lat="48.67429" lon="1.95623">
        <ele>127</ele>
        <time>2024-03-14T16:07:48Z</time>
      </trkpt>
      <trkpt lat="48.67434" lon="1.95614">
        <ele>126.8</ele>
        <time>2024-03-14T16:07:49Z</time>
      </trkpt>
      <trkpt lat="48.67441" lon="1.95607">
        <ele>126.8</ele>
        <time>2024-03-14T16:07:50Z</time>
      </trkpt>
      <trkpt lat="48.67445" lon="1.95601">
        <ele>126.8</ele>
        <time>2024-03-14T16:07:51Z</time>
      </trkpt>
      <trkpt lat="48.67451" lon="1.95595">
        <ele>127.8</ele>
        <time>2024-03-14T16:07:52Z</time>
      </trkpt>
      <trkpt lat="48.67455" lon="1.95592">
        <ele>127.6</ele>
        <time>2024-03-14T16:07:53Z</time>
      </trkpt>
      <trkpt lat="48.67461" lon="1.9559">
        <ele>127.6</ele>
        <time>2024-03-14T16:07:54Z</time>
      </trkpt>
      <trkpt lat="48.67467" lon="1.95588">
        <ele>127.6</ele>
        <time>2024-03-14T16:07:55Z</time>
      </trkpt>
      <trkpt lat="48.67472" lon="1.95588">
        <ele>127.6</ele>
        <time>2024-03-14T16:07:56Z</time>
      </trkpt>
      <trkpt lat="48.67477" lon="1.95589">
        <ele>128</ele>
        <time>2024-03-14T16:07:57Z</time>
      </trkpt>
      <trkpt lat="48.67482" lon="1.95589">
        <ele>128</ele>
        <time>2024-03-14T16:07:58Z</time>
      </trkpt>
      <trkpt lat="48.67487" lon="1.9559">
        <ele>128</ele>
        <time>2024-03-14T16:07:59Z</time>
      </trkpt>
      <trkpt lat="48.67492" lon="1.9559">
        <ele>128</ele>
        <time>2024-03-14T16:08:00Z</time>
      </trkpt>
      <trkpt lat="48.67497" lon="1.9559">
        <ele>128.8</ele>
        <time>2024-03-14T16:08:01Z</time>
      </trkpt>
      <trkpt lat="48.67501" lon="1.95589">
        <ele>128.8</ele>
        <time>2024-03-14T16:08:02Z</time>
      </trkpt>
      <trkpt lat="48.67507" lon="1.95587">
        <ele>128.8</ele>
        <time>2024-03-14T16:08:03Z</time>
      </trkpt>
      <trkpt lat="48.67514" lon="1.95585">
        <ele>129.4</ele>
        <time>2024-03-14T16:08:04Z</time>
      </trkpt>
      <trkpt lat="48.67519" lon="1.95583">
        <ele>129.4</ele>
        <time>2024-03-14T16:08:05Z</time>
      </trkpt>
      <trkpt lat="48.67524" lon="1.9558">
        <ele>129.4</ele>
        <time>2024-03-14T16:08:06Z</time>
      </trkpt>
      <trkpt lat="48.67529" lon="1.95577">
        <ele>129.4</ele>
        <time>2024-03-14T16:08:07Z</time>
      </trkpt>
      <trkpt lat="48.67534" lon="1.95572">
        <ele>130.2</ele>
        <time>2024-03-14T16:08:08Z</time>
      </trkpt>
      <trkpt lat="48.67539" lon="1.95568">
        <ele>130.2</ele>
        <time>2024-03-14T16:08:09Z</time>
      </trkpt>
      <trkpt lat="48.67544" lon="1.95564">
        <ele>130.2</ele>
        <time>2024-03-14T16:08:10Z</time>
      </trkpt>
      <trkpt lat="48.67549" lon="1.9556">
        <ele>130.2</ele>
        <time>2024-03-14T16:08:11Z</time>
      </trkpt>
      <trkpt lat="48.67553" lon="1.95555">
        <ele>130.8</ele>
        <time>2024-03-14T16:08:12Z</time>
      </trkpt>
      <trkpt lat="48.67558" lon="1.9555">
        <ele>131</ele>
        <time>2024-03-14T16:08:13Z</time>
      </trkpt>
      <trkpt lat="48.67564" lon="1.95544">
        <ele>131</ele>
        <time>2024-03-14T16:08:14Z</time>
      </trkpt>
      <trkpt lat="48.6757" lon="1.95539">
        <ele>131</ele>
        <time>2024-03-14T16:08:15Z</time>
      </trkpt>
      <trkpt lat="48.67574" lon="1.95534">
        <ele>131.6</ele>
        <time>2024-03-14T16:08:16Z</time>
      </trkpt>
      <trkpt lat="48.67578" lon="1.95529">
        <ele>131.4</ele>
        <time>2024-03-14T16:08:17Z</time>
      </trkpt>
      <trkpt lat="48.67583" lon="1.95524">
        <ele>131.4</ele>
        <time>2024-03-14T16:08:18Z</time>
      </trkpt>
      <trkpt lat="48.67589" lon="1.95519">
        <ele>131.4</ele>
        <time>2024-03-14T16:08:19Z</time>
      </trkpt>
      <trkpt lat="48.67594" lon="1.95513">
        <ele>131.4</ele>
        <time>2024-03-14T16:08:20Z</time>
      </trkpt>
      <trkpt lat="48.676" lon="1.95507">
        <ele>131</ele>
        <time>2024-03-14T16:08:21Z</time>
      </trkpt>
      <trkpt lat="48.67605" lon="1.955">
        <ele>131</ele>
        <time>2024-03-14T16:08:22Z</time>
      </trkpt>
      <trkpt lat="48.67611" lon="1.95491">
        <ele>131</ele>
        <time>2024-03-14T16:08:23Z</time>
      </trkpt>
      <trkpt lat="48.67616" lon="1.95482">
        <ele>130</ele>
        <time>2024-03-14T16:08:24Z</time>
      </trkpt>
      <trkpt lat="48.67621" lon="1.95472">
        <ele>129.4</ele>
        <time>2024-03-14T16:08:25Z</time>
      </trkpt>
      <trkpt lat="48.67625" lon="1.95462">
        <ele>129.4</ele>
        <time>2024-03-14T16:08:26Z</time>
      </trkpt>
      <trkpt lat="48.67628" lon="1.95452">
        <ele>129.4</ele>
        <time>2024-03-14T16:08:27Z</time>
      </trkpt>
      <trkpt lat="48.67631" lon="1.95441">
        <ele>128.4</ele>
        <time>2024-03-14T16:08:28Z</time>
      </trkpt>
      <trkpt lat="48.67632" lon="1.95429">
        <ele>128.6</ele>
        <time>2024-03-14T16:08:29Z</time>
      </trkpt>
      <trkpt lat="48.67633" lon="1.95418">
        <ele>128.6</ele>
        <time>2024-03-14T16:08:30Z</time>
      </trkpt>
      <trkpt lat="48.67635" lon="1.95405">
        <ele>128.6</ele>
        <time>2024-03-14T16:08:31Z</time>
      </trkpt>
      <trkpt lat="48.67636" lon="1.95392">
        <ele>127.6</ele>
        <time>2024-03-14T16:08:32Z</time>
      </trkpt>
      <trkpt lat="48.67639" lon="1.95379">
        <ele>127.2</ele>
        <time>2024-03-14T16:08:33Z</time>
      </trkpt>
      <trkpt lat="48.67641" lon="1.95367">
        <ele>127.2</ele>
        <time>2024-03-14T16:08:34Z</time>
      </trkpt>
      <trkpt lat="48.67645" lon="1.95356">
        <ele>127.2</ele>
        <time>2024-03-14T16:08:35Z</time>
      </trkpt>
      <trkpt lat="48.6765" lon="1.95345">
        <ele>127</ele>
        <time>2024-03-14T16:08:36Z</time>
      </trkpt>
      <trkpt lat="48.67654" lon="1.95335">
        <ele>127.4</ele>
        <time>2024-03-14T16:08:37Z</time>
      </trkpt>
      <trkpt lat="48.67658" lon="1.95325">
        <ele>127.4</ele>
        <time>2024-03-14T16:08:38Z</time>
      </trkpt>
      <trkpt lat="48.67662" lon="1.95316">
        <ele>127.4</ele>
        <time>2024-03-14T16:08:39Z</time>
      </trkpt>
      <trkpt lat="48.67666" lon="1.95306">
        <ele>128</ele>
        <time>2024-03-14T16:08:40Z</time>
      </trkpt>
      <trkpt lat="48.6767" lon="1.95298">
        <ele>128.8</ele>
        <time>2024-03-14T16:08:41Z</time>
      </trkpt>
      <trkpt lat="48.67674" lon="1.95289">
        <ele>128.8</ele>
        <time>2024-03-14T16:08:42Z</time>
      </trkpt>
      <trkpt lat="48.67678" lon="1.95281">
        <ele>128.8</ele>
        <time>2024-03-14T16:08:43Z</time>
      </trkpt>
      <trkpt lat="48.67681" lon="1.95272">
        <ele>129.6</ele>
        <time>2024-03-14T16:08:44Z</time>
      </trkpt>
      <trkpt lat="48.67685" lon="1.95264">
        <ele>129.8</ele>
        <time>2024-03-14T16:08:45Z</time>
      </trkpt>
      <trkpt lat="48.67688" lon="1.95254">
        <ele>129.8</ele>
        <time>2024-03-14T16:08:46Z</time>
      </trkpt>
      <trkpt lat="48.67691" lon="1.95246">
        <ele>129.8</ele>
        <time>2024-03-14T16:08:47Z</time>
      </trkpt>
      <trkpt lat="48.67694" lon="1.95238">
        <ele>130.4</ele>
        <time>2024-03-14T16:08:48Z</time>
      </trkpt>
      <trkpt lat="48.67697" lon="1.95229">
        <ele>130.6</ele>
        <time>2024-03-14T16:08:49Z</time>
      </trkpt>
      <trkpt lat="48.67699" lon="1.95221">
        <ele>130.6</ele>
        <time>2024-03-14T16:08:50Z</time>
      </trkpt>
      <trkpt lat="48.67701" lon="1.95211">
        <ele>130.6</ele>
        <time>2024-03-14T16:08:51Z</time>
      </trkpt>
      <trkpt lat="48.67702" lon="1.95201">
        <ele>130.6</ele>
        <time>2024-03-14T16:08:52Z</time>
      </trkpt>
      <trkpt lat="48.67703" lon="1.95192">
        <ele>131</ele>
        <time>2024-03-14T16:08:53Z</time>
      </trkpt>
      <trkpt lat="48.67704" lon="1.95182">
        <ele>131</ele>
        <time>2024-03-14T16:08:54Z</time>
      </trkpt>
      <trkpt lat="48.67704" lon="1.95172">
        <ele>131</ele>
        <time>2024-03-14T16:08:55Z</time>
      </trkpt>
      <trkpt lat="48.67705" lon="1.95162">
        <ele>131</ele>
        <time>2024-03-14T16:08:56Z</time>
      </trkpt>
      <trkpt lat="48.67706" lon="1.95153">
        <ele>130.8</ele>
        <time>2024-03-14T16:08:57Z</time>
      </trkpt>
      <trkpt lat="48.67707" lon="1.95144">
        <ele>130.8</ele>
        <time>2024-03-14T16:08:58Z</time>
      </trkpt>
      <trkpt lat="48.67709" lon="1.95135">
        <ele>130.8</ele>
        <time>2024-03-14T16:08:59Z</time>
      </trkpt>
      <trkpt lat="48.6771" lon="1.95126">
        <ele>130.4</ele>
        <time>2024-03-14T16:09:00Z</time>
      </trkpt>
      <trkpt lat="48.67712" lon="1.95115">
        <ele>130.8</ele>
        <time>2024-03-14T16:09:01Z</time>
      </trkpt>
      <trkpt lat="48.67714" lon="1.95105">
        <ele>130.8</ele>
        <time>2024-03-14T16:09:02Z</time>
      </trkpt>
      <trkpt lat="48.67716" lon="1.95095">
        <ele>130.8</ele>
        <time>2024-03-14T16:09:03Z</time>
      </trkpt>
      <trkpt lat="48.67718" lon="1.95085">
        <ele>130.8</ele>
        <time>2024-03-14T16:09:04Z</time>
      </trkpt>
      <trkpt lat="48.6772" lon="1.95075">
        <ele>130.4</ele>
        <time>2024-03-14T16:09:05Z</time>
      </trkpt>
      <trkpt lat="48.67722" lon="1.95065">
        <ele>130.4</ele>
        <time>2024-03-14T16:09:06Z</time>
      </trkpt>
      <trkpt lat="48.67724" lon="1.95055">
        <ele>130.4</ele>
        <time>2024-03-14T16:09:07Z</time>
      </trkpt>
      <trkpt lat="48.67726" lon="1.95045">
        <ele>131.2</ele>
        <time>2024-03-14T16:09:08Z</time>
      </trkpt>
      <trkpt lat="48.67728" lon="1.95035">
        <ele>131.4</ele>
        <time>2024-03-14T16:09:09Z</time>
      </trkpt>
      <trkpt lat="48.67731" lon="1.95025">
        <ele>131.4</ele>
        <time>2024-03-14T16:09:10Z</time>
      </trkpt>
      <trkpt lat="48.67733" lon="1.95016">
        <ele>131.4</ele>
        <time>2024-03-14T16:09:11Z</time>
      </trkpt>
      <trkpt lat="48.67735" lon="1.95006">
        <ele>130.4</ele>
        <time>2024-03-14T16:09:12Z</time>
      </trkpt>
      <trkpt lat="48.67737" lon="1.94997">
        <ele>130.2</ele>
        <time>2024-03-14T16:09:13Z</time>
      </trkpt>
      <trkpt lat="48.6774" lon="1.94988">
        <ele>130.2</ele>
        <time>2024-03-14T16:09:14Z</time>
      </trkpt>
      <trkpt lat="48.67742" lon="1.94978">
        <ele>130.2</ele>
        <time>2024-03-14T16:09:15Z</time>
      </trkpt>
      <trkpt lat="48.67745" lon="1.94968">
        <ele>130.2</ele>
        <time>2024-03-14T16:09:16Z</time>
      </trkpt>
      <trkpt lat="48.67748" lon="1.94959">
        <ele>129.4</ele>
        <time>2024-03-14T16:09:17Z</time>
      </trkpt>
      <trkpt lat="48.67752" lon="1.9495">
        <ele>129.4</ele>
        <time>2024-03-14T16:09:18Z</time>
      </trkpt>
      <trkpt lat="48.67756" lon="1.94942">
        <ele>129.4</ele>
        <time>2024-03-14T16:09:19Z</time>
      </trkpt>
      <trkpt lat="48.6776" lon="1.94933">
        <ele>129.4</ele>
        <time>2024-03-14T16:09:20Z</time>
      </trkpt>
      <trkpt lat="48.67764" lon="1.94926">
        <ele>130.2</ele>
        <time>2024-03-14T16:09:21Z</time>
      </trkpt>
      <trkpt lat="48.67768" lon="1.94918">
        <ele>130.2</ele>
        <time>2024-03-14T16:09:22Z</time>
      </trkpt>
      <trkpt lat="48.67772" lon="1.94911">
        <ele>130.2</ele>
        <time>2024-03-14T16:09:23Z</time>
      </trkpt>
      <trkpt lat="48.67776" lon="1.94904">
        <ele>129.8</ele>
        <time>2024-03-14T16:09:24Z</time>
      </trkpt>
      <trkpt lat="48.6778" lon="1.94897">
        <ele>129.8</ele>
        <time>2024-03-14T16:09:25Z</time>
      </trkpt>
      <trkpt lat="48.67783" lon="1.94891">
        <ele>129.8</ele>
        <time>2024-03-14T16:09:26Z</time>
      </trkpt>
      <trkpt lat="48.67788" lon="1.94884">
        <ele>129.8</ele>
        <time>2024-03-14T16:09:27Z</time>
      </trkpt>
      <trkpt lat="48.67792" lon="1.94877">
        <ele>130.4</ele>
        <time>2024-03-14T16:09:28Z</time>
      </trkpt>
      <trkpt lat="48.67796" lon="1.94869">
        <ele>131</ele>
        <time>2024-03-14T16:09:29Z</time>
      </trkpt>
      <trkpt lat="48.678" lon="1.94862">
        <ele>131</ele>
        <time>2024-03-14T16:09:30Z</time>
      </trkpt>
      <trkpt lat="48.67803" lon="1.94855">
        <ele>131</ele>
        <time>2024-03-14T16:09:31Z</time>
      </trkpt>
      <trkpt lat="48.67806" lon="1.94847">
        <ele>131</ele>
        <time>2024-03-14T16:09:32Z</time>
      </trkpt>
      <trkpt lat="48.67809" lon="1.94839">
        <ele>131.2</ele>
        <time>2024-03-14T16:09:33Z</time>
      </trkpt>
      <trkpt lat="48.67812" lon="1.94831">
        <ele>131.2</ele>
        <time>2024-03-14T16:09:34Z</time>
      </trkpt>
      <trkpt lat="48.67814" lon="1.94823">
        <ele>131.2</ele>
        <time>2024-03-14T16:09:35Z</time>
      </trkpt>
      <trkpt lat="48.67817" lon="1.94814">
        <ele>131.2</ele>
        <time>2024-03-14T16:09:36Z</time>
      </trkpt>
      <trkpt lat="48.67821" lon="1.94806">
        <ele>131</ele>
        <time>2024-03-14T16:09:37Z</time>
      </trkpt>
      <trkpt lat="48.67824" lon="1.94799">
        <ele>131</ele>
        <time>2024-03-14T16:09:38Z</time>
      </trkpt>
      <trkpt lat="48.67827" lon="1.9479">
        <ele>131</ele>
        <time>2024-03-14T16:09:39Z</time>
      </trkpt>
      <trkpt lat="48.6783" lon="1.94781">
        <ele>130.6</ele>
        <time>2024-03-14T16:09:40Z</time>
      </trkpt>
      <trkpt lat="48.67833" lon="1.94772">
        <ele>130.4</ele>
        <time>2024-03-14T16:09:41Z</time>
      </trkpt>
      <trkpt lat="48.67836" lon="1.94762">
        <ele>130.4</ele>
        <time>2024-03-14T16:09:42Z</time>
      </trkpt>
      <trkpt lat="48.67838" lon="1.94752">
        <ele>130.4</ele>
        <time>2024-03-14T16:09:43Z</time>
      </trkpt>
      <trkpt lat="48.67841" lon="1.94742">
        <ele>129.4</ele>
        <time>2024-03-14T16:09:44Z</time>
      </trkpt>
      <trkpt lat="48.67844" lon="1.94729">
        <ele>128.8</ele>
        <time>2024-03-14T16:09:45Z</time>
      </trkpt>
      <trkpt lat="48.67847" lon="1.94718">
        <ele>128.8</ele>
        <time>2024-03-14T16:09:46Z</time>
      </trkpt>
      <trkpt lat="48.6785" lon="1.94707">
        <ele>128.8</ele>
        <time>2024-03-14T16:09:47Z</time>
      </trkpt>
      <trkpt lat="48.67854" lon="1.94698">
        <ele>128.8</ele>
        <time>2024-03-14T16:09:48Z</time>
      </trkpt>
      <trkpt lat="48.67858" lon="1.94688">
        <ele>128.6</ele>
        <time>2024-03-14T16:09:49Z</time>
      </trkpt>
      <trkpt lat="48.67863" lon="1.94679">
        <ele>128.6</ele>
        <time>2024-03-14T16:09:50Z</time>
      </trkpt>
      <trkpt lat="48.67867" lon="1.94669">
        <ele>128.6</ele>
        <time>2024-03-14T16:09:51Z</time>
      </trkpt>
      <trkpt lat="48.67871" lon="1.94658">
        <ele>128.6</ele>
        <time>2024-03-14T16:09:52Z</time>
      </trkpt>
      <trkpt lat="48.67875" lon="1.9465">
        <ele>128</ele>
        <time>2024-03-14T16:09:53Z</time>
      </trkpt>
      <trkpt lat="48.67879" lon="1.9464">
        <ele>128</ele>
        <time>2024-03-14T16:09:54Z</time>
      </trkpt>
      <trkpt lat="48.67883" lon="1.94632">
        <ele>128</ele>
        <time>2024-03-14T16:09:55Z</time>
      </trkpt>
      <trkpt lat="48.67888" lon="1.94623">
        <ele>128.8</ele>
        <time>2024-03-14T16:09:56Z</time>
      </trkpt>
      <trkpt lat="48.67892" lon="1.94616">
        <ele>129</ele>
        <time>2024-03-14T16:09:57Z</time>
      </trkpt>
      <trkpt lat="48.67897" lon="1.94609">
        <ele>129</ele>
        <time>2024-03-14T16:09:58Z</time>
      </trkpt>
      <trkpt lat="48.67902" lon="1.94602">
        <ele>129</ele>
        <time>2024-03-14T16:09:59Z</time>
      </trkpt>
      <trkpt lat="48.67907" lon="1.94595">
        <ele>129.6</ele>
        <time>2024-03-14T16:10:00Z</time>
      </trkpt>
      <trkpt lat="48.67912" lon="1.94588">
        <ele>129.8</ele>
        <time>2024-03-14T16:10:01Z</time>
      </trkpt>
      <trkpt lat="48.67917" lon="1.94582">
        <ele>129.8</ele>
        <time>2024-03-14T16:10:02Z</time>
      </trkpt>
      <trkpt lat="48.67922" lon="1.94576">
        <ele>129.8</ele>
        <time>2024-03-14T16:10:03Z</time>
      </trkpt>
      <trkpt lat="48.67928" lon="1.9457">
        <ele>129.4</ele>
        <time>2024-03-14T16:10:04Z</time>
      </trkpt>
      <trkpt lat="48.67934" lon="1.94565">
        <ele>128.6</ele>
        <time>2024-03-14T16:10:05Z</time>
      </trkpt>
      <trkpt lat="48.67939" lon="1.9456">
        <ele>128.6</ele>
        <time>2024-03-14T16:10:06Z</time>
      </trkpt>
      <trkpt lat="48.67945" lon="1.94555">
        <ele>128.6</ele>
        <time>2024-03-14T16:10:07Z</time>
      </trkpt>
      <trkpt lat="48.6795" lon="1.94549">
        <ele>129</ele>
        <time>2024-03-14T16:10:08Z</time>
      </trkpt>
      <trkpt lat="48.67956" lon="1.94544">
        <ele>128.8</ele>
        <time>2024-03-14T16:10:09Z</time>
      </trkpt>
      <trkpt lat="48.67962" lon="1.94539">
        <ele>128.8</ele>
        <time>2024-03-14T16:10:10Z</time>
      </trkpt>
      <trkpt lat="48.67967" lon="1.94533">
        <ele>128.8</ele>
        <time>2024-03-14T16:10:11Z</time>
      </trkpt>
      <trkpt lat="48.67972" lon="1.94526">
        <ele>128.4</ele>
        <time>2024-03-14T16:10:12Z</time>
      </trkpt>
      <trkpt lat="48.67977" lon="1.9452">
        <ele>128</ele>
        <time>2024-03-14T16:10:13Z</time>
      </trkpt>
      <trkpt lat="48.67983" lon="1.94513">
        <ele>128</ele>
        <time>2024-03-14T16:10:14Z</time>
      </trkpt>
      <trkpt lat="48.67988" lon="1.94505">
        <ele>128</ele>
        <time>2024-03-14T16:10:15Z</time>
      </trkpt>
      <trkpt lat="48.67993" lon="1.945">
        <ele>127.2</ele>
        <time>2024-03-14T16:10:16Z</time>
      </trkpt>
      <trkpt lat="48.67999" lon="1.94494">
        <ele>127.6</ele>
        <time>2024-03-14T16:10:17Z</time>
      </trkpt>
      <trkpt lat="48.68005" lon="1.94488">
        <ele>127.6</ele>
        <time>2024-03-14T16:10:18Z</time>
      </trkpt>
      <trkpt lat="48.6801" lon="1.9448">
        <ele>127.6</ele>
        <time>2024-03-14T16:10:19Z</time>
      </trkpt>
      <trkpt lat="48.68015" lon="1.94472">
        <ele>127.6</ele>
        <time>2024-03-14T16:10:20Z</time>
      </trkpt>
      <trkpt lat="48.6802" lon="1.94463">
        <ele>128</ele>
        <time>2024-03-14T16:10:21Z</time>
      </trkpt>
      <trkpt lat="48.68025" lon="1.94457">
        <ele>128</ele>
        <time>2024-03-14T16:10:22Z</time>
      </trkpt>
      <trkpt lat="48.68031" lon="1.94449">
        <ele>128</ele>
        <time>2024-03-14T16:10:23Z</time>
      </trkpt>
      <trkpt lat="48.68035" lon="1.94441">
        <ele>128</ele>
        <time>2024-03-14T16:10:24Z</time>
      </trkpt>
      <trkpt lat="48.68041" lon="1.94432">
        <ele>127</ele>
        <time>2024-03-14T16:10:25Z</time>
      </trkpt>
      <trkpt lat="48.68045" lon="1.94423">
        <ele>127</ele>
        <time>2024-03-14T16:10:26Z</time>
      </trkpt>
      <trkpt lat="48.68049" lon="1.9441">
        <ele>127</ele>
        <time>2024-03-14T16:10:27Z</time>
      </trkpt>
      <trkpt lat="48.68054" lon="1.94399">
        <ele>127</ele>
        <time>2024-03-14T16:10:28Z</time>
      </trkpt>
      <trkpt lat="48.68059" lon="1.94391">
        <ele>127.4</ele>
        <time>2024-03-14T16:10:29Z</time>
      </trkpt>
      <trkpt lat="48.68064" lon="1.94383">
        <ele>127.4</ele>
        <time>2024-03-14T16:10:30Z</time>
      </trkpt>
      <trkpt lat="48.68069" lon="1.94377">
        <ele>127.4</ele>
        <time>2024-03-14T16:10:31Z</time>
      </trkpt>
      <trkpt lat="48.68075" lon="1.94369">
        <ele>128.2</ele>
        <time>2024-03-14T16:10:32Z</time>
      </trkpt>
      <trkpt lat="48.6808" lon="1.94363">
        <ele>127.8</ele>
        <time>2024-03-14T16:10:33Z</time>
      </trkpt>
      <trkpt lat="48.68086" lon="1.94356">
        <ele>127.8</ele>
        <time>2024-03-14T16:10:34Z</time>
      </trkpt>
      <trkpt lat="48.68091" lon="1.94349">
        <ele>127.8</ele>
        <time>2024-03-14T16:10:35Z</time>
      </trkpt>
      <trkpt lat="48.68096" lon="1.94342">
        <ele>128</ele>
        <time>2024-03-14T16:10:36Z</time>
      </trkpt>
      <trkpt lat="48.68101" lon="1.94334">
        <ele>128</ele>
        <time>2024-03-14T16:10:37Z</time>
      </trkpt>
      <trkpt lat="48.68105" lon="1.94326">
        <ele>128</ele>
        <time>2024-03-14T16:10:38Z</time>
      </trkpt>
      <trkpt lat="48.6811" lon="1.94318">
        <ele>128</ele>
        <time>2024-03-14T16:10:39Z</time>
      </trkpt>
      <trkpt lat="48.68115" lon="1.9431">
        <ele>128</ele>
        <time>2024-03-14T16:10:40Z</time>
      </trkpt>
      <trkpt lat="48.68119" lon="1.94302">
        <ele>128.6</ele>
        <time>2024-03-14T16:10:41Z</time>
      </trkpt>
      <trkpt lat="48.68123" lon="1.94293">
        <ele>128.6</ele>
        <time>2024-03-14T16:10:42Z</time>
      </trkpt>
      <trkpt lat="48.68127" lon="1.94284">
        <ele>128.6</ele>
        <time>2024-03-14T16:10:43Z</time>
      </trkpt>
      <trkpt lat="48.68132" lon="1.94277">
        <ele>128.6</ele>
        <time>2024-03-14T16:10:44Z</time>
      </trkpt>
      <trkpt lat="48.68136" lon="1.94269">
        <ele>129.2</ele>
        <time>2024-03-14T16:10:45Z</time>
      </trkpt>
      <trkpt lat="48.68139" lon="1.94261">
        <ele>129.2</ele>
        <time>2024-03-14T16:10:46Z</time>
      </trkpt>
      <trkpt lat="48.68143" lon="1.94254">
        <ele>129.2</ele>
        <time>2024-03-14T16:10:47Z</time>
      </trkpt>
      <trkpt lat="48.68144" lon="1.94244">
        <ele>130.2</ele>
        <time>2024-03-14T16:10:48Z</time>
      </trkpt>
      <trkpt lat="48.68147" lon="1.94237">
        <ele>131</ele>
        <time>2024-03-14T16:10:49Z</time>
      </trkpt>
      <trkpt lat="48.68149" lon="1.94229">
        <ele>131</ele>
        <time>2024-03-14T16:10:50Z</time>
      </trkpt>
      <trkpt lat="48.68152" lon="1.94221">
        <ele>131</ele>
        <time>2024-03-14T16:10:51Z</time>
      </trkpt>
      <trkpt lat="48.68154" lon="1.94214">
        <ele>131</ele>
        <time>2024-03-14T16:10:52Z</time>
      </trkpt>
      <trkpt lat="48.68156" lon="1.94206">
        <ele>131.4</ele>
        <time>2024-03-14T16:10:53Z</time>
      </trkpt>
      <trkpt lat="48.68158" lon="1.94199">
        <ele>131.4</ele>
        <time>2024-03-14T16:10:54Z</time>
      </trkpt>
      <trkpt lat="48.6816" lon="1.94191">
        <ele>131.4</ele>
        <time>2024-03-14T16:10:55Z</time>
      </trkpt>
      <trkpt lat="48.68161" lon="1.9418">
        <ele>131.4</ele>
        <time>2024-03-14T16:10:56Z</time>
      </trkpt>
      <trkpt lat="48.68163" lon="1.94173">
        <ele>131.6</ele>
        <time>2024-03-14T16:10:57Z</time>
      </trkpt>
      <trkpt lat="48.68165" lon="1.94165">
        <ele>131.6</ele>
        <time>2024-03-14T16:10:58Z</time>
      </trkpt>
      <trkpt lat="48.68167" lon="1.94157">
        <ele>131.6</ele>
        <time>2024-03-14T16:10:59Z</time>
      </trkpt>
      <trkpt lat="48.68169" lon="1.94149">
        <ele>131.6</ele>
        <time>2024-03-14T16:11:00Z</time>
      </trkpt>
      <trkpt lat="48.68171" lon="1.9414">
        <ele>131.6</ele>
        <time>2024-03-14T16:11:01Z</time>
      </trkpt>
      <trkpt lat="48.68172" lon="1.94132">
        <ele>131.6</ele>
        <time>2024-03-14T16:11:02Z</time>
      </trkpt>
      <trkpt lat="48.68174" lon="1.94124">
        <ele>131.6</ele>
        <time>2024-03-14T16:11:03Z</time>
      </trkpt>
      <trkpt lat="48.68175" lon="1.94116">
        <ele>131.6</ele>
        <time>2024-03-14T16:11:04Z</time>
      </trkpt>
      <trkpt lat="48.68176" lon="1.94106">
        <ele>130.6</ele>
        <time>2024-03-14T16:11:05Z</time>
      </trkpt>
      <trkpt lat="48.68176" lon="1.94096">
        <ele>130.6</ele>
        <time>2024-03-14T16:11:06Z</time>
      </trkpt>
      <trkpt lat="48.68177" lon="1.94086">
        <ele>130.6</ele>
        <time>2024-03-14T16:11:07Z</time>
      </trkpt>
      <trkpt lat="48.68177" lon="1.94075">
        <ele>129.8</ele>
        <time>2024-03-14T16:11:08Z</time>
      </trkpt>
      <trkpt lat="48.68177" lon="1.94065">
        <ele>129.8</ele>
        <time>2024-03-14T16:11:09Z</time>
      </trkpt>
      <trkpt lat="48.68176" lon="1.94054">
        <ele>129.8</ele>
        <time>2024-03-14T16:11:10Z</time>
      </trkpt>
      <trkpt lat="48.68176" lon="1.94044">
        <ele>129.8</ele>
        <time>2024-03-14T16:11:11Z</time>
      </trkpt>
      <trkpt lat="48.68176" lon="1.94034">
        <ele>129.4</ele>
        <time>2024-03-14T16:11:12Z</time>
      </trkpt>
      <trkpt lat="48.68175" lon="1.94024">
        <ele>129.4</ele>
        <time>2024-03-14T16:11:13Z</time>
      </trkpt>
      <trkpt lat="48.68175" lon="1.94014">
        <ele>129.4</ele>
        <time>2024-03-14T16:11:14Z</time>
      </trkpt>
      <trkpt lat="48.68175" lon="1.94004">
        <ele>129.4</ele>
        <time>2024-03-14T16:11:15Z</time>
      </trkpt>
      <trkpt lat="48.68175" lon="1.93994">
        <ele>130.2</ele>
        <time>2024-03-14T16:11:16Z</time>
      </trkpt>
      <trkpt lat="48.68175" lon="1.93984">
        <ele>130.4</ele>
        <time>2024-03-14T16:11:17Z</time>
      </trkpt>
      <trkpt lat="48.68175" lon="1.93975">
        <ele>130.4</ele>
        <time>2024-03-14T16:11:18Z</time>
      </trkpt>
      <trkpt lat="48.68174" lon="1.93966">
        <ele>130.4</ele>
        <time>2024-03-14T16:11:19Z</time>
      </trkpt>
      <trkpt lat="48.68174" lon="1.93957">
        <ele>131.2</ele>
        <time>2024-03-14T16:11:20Z</time>
      </trkpt>
      <trkpt lat="48.68174" lon="1.93948">
        <ele>131.4</ele>
        <time>2024-03-14T16:11:21Z</time>
      </trkpt>
      <trkpt lat="48.68174" lon="1.93939">
        <ele>131.4</ele>
        <time>2024-03-14T16:11:22Z</time>
      </trkpt>
      <trkpt lat="48.68173" lon="1.93931">
        <ele>131.4</ele>
        <time>2024-03-14T16:11:23Z</time>
      </trkpt>
      <trkpt lat="48.68173" lon="1.93923">
        <ele>132.4</ele>
        <time>2024-03-14T16:11:24Z</time>
      </trkpt>
      <trkpt lat="48.68173" lon="1.93916">
        <ele>133</ele>
        <time>2024-03-14T16:11:25Z</time>
      </trkpt>
      <trkpt lat="48.68172" lon="1.93909">
        <ele>133</ele>
        <time>2024-03-14T16:11:26Z</time>
      </trkpt>
      <trkpt lat="48.68172" lon="1.93902">
        <ele>133</ele>
        <time>2024-03-14T16:11:27Z</time>
      </trkpt>
      <trkpt lat="48.68172" lon="1.93894">
        <ele>134</ele>
        <time>2024-03-14T16:11:28Z</time>
      </trkpt>
      <trkpt lat="48.68172" lon="1.93888">
        <ele>134.2</ele>
        <time>2024-03-14T16:11:29Z</time>
      </trkpt>
      <trkpt lat="48.68171" lon="1.93882">
        <ele>134.2</ele>
        <time>2024-03-14T16:11:30Z</time>
      </trkpt>
      <trkpt lat="48.6817" lon="1.93875">
        <ele>134.2</ele>
        <time>2024-03-14T16:11:31Z</time>
      </trkpt>
      <trkpt lat="48.6817" lon="1.93869">
        <ele>135</ele>
        <time>2024-03-14T16:11:32Z</time>
      </trkpt>
      <trkpt lat="48.68169" lon="1.93862">
        <ele>135.2</ele>
        <time>2024-03-14T16:11:33Z</time>
      </trkpt>
      <trkpt lat="48.68168" lon="1.93856">
        <ele>135.2</ele>
        <time>2024-03-14T16:11:34Z</time>
      </trkpt>
      <trkpt lat="48.68167" lon="1.93849">
        <ele>135.2</ele>
        <time>2024-03-14T16:11:35Z</time>
      </trkpt>
      <trkpt lat="48.68165" lon="1.93843">
        <ele>134.6</ele>
        <time>2024-03-14T16:11:36Z</time>
      </trkpt>
      <trkpt lat="48.68164" lon="1.93837">
        <ele>135.2</ele>
        <time>2024-03-14T16:11:37Z</time>
      </trkpt>
      <trkpt lat="48.68163" lon="1.93831">
        <ele>135.2</ele>
        <time>2024-03-14T16:11:38Z</time>
      </trkpt>
      <trkpt lat="48.68162" lon="1.93826">
        <ele>135.2</ele>
        <time>2024-03-14T16:11:39Z</time>
      </trkpt>
      <trkpt lat="48.68161" lon="1.93822">
        <ele>135.2</ele>
        <time>2024-03-14T16:11:40Z</time>
      </trkpt>
      <trkpt lat="48.6816" lon="1.93815">
        <ele>135.4</ele>
        <time>2024-03-14T16:11:41Z</time>
      </trkpt>
      <trkpt lat="48.68158" lon="1.9381">
        <ele>135.4</ele>
        <time>2024-03-14T16:11:42Z</time>
      </trkpt>
      <trkpt lat="48.68157" lon="1.93804">
        <ele>135.4</ele>
        <time>2024-03-14T16:11:43Z</time>
      </trkpt>
      <trkpt lat="48.68155" lon="1.93797">
        <ele>135.4</ele>
        <time>2024-03-14T16:11:44Z</time>
      </trkpt>
      <trkpt lat="48.68154" lon="1.9379">
        <ele>135</ele>
        <time>2024-03-14T16:11:45Z</time>
      </trkpt>
      <trkpt lat="48.68152" lon="1.93783">
        <ele>135</ele>
        <time>2024-03-14T16:11:46Z</time>
      </trkpt>
      <trkpt lat="48.68151" lon="1.93776">
        <ele>135</ele>
        <time>2024-03-14T16:11:47Z</time>
      </trkpt>
      <trkpt lat="48.68149" lon="1.93768">
        <ele>135</ele>
        <time>2024-03-14T16:11:48Z</time>
      </trkpt>
      <trkpt lat="48.68147" lon="1.9376">
        <ele>134.6</ele>
        <time>2024-03-14T16:11:49Z</time>
      </trkpt>
      <trkpt lat="48.68146" lon="1.93751">
        <ele>134.6</ele>
        <time>2024-03-14T16:11:50Z</time>
      </trkpt>
      <trkpt lat="48.68144" lon="1.93742">
        <ele>134.6</ele>
        <time>2024-03-14T16:11:51Z</time>
      </trkpt>
      <trkpt lat="48.68142" lon="1.93733">
        <ele>134.6</ele>
        <time>2024-03-14T16:11:52Z</time>
      </trkpt>
      <trkpt lat="48.6814" lon="1.93724">
        <ele>135</ele>
        <time>2024-03-14T16:11:53Z</time>
      </trkpt>
      <trkpt lat="48.68137" lon="1.93716">
        <ele>135</ele>
        <time>2024-03-14T16:11:54Z</time>
      </trkpt>
      <trkpt lat="48.68135" lon="1.93707">
        <ele>135</ele>
        <time>2024-03-14T16:11:55Z</time>
      </trkpt>
      <trkpt lat="48.68134" lon="1.93698">
        <ele>135</ele>
        <time>2024-03-14T16:11:56Z</time>
      </trkpt>
      <trkpt lat="48.68132" lon="1.93688">
        <ele>134.4</ele>
        <time>2024-03-14T16:11:57Z</time>
      </trkpt>
      <trkpt lat="48.6813" lon="1.93679">
        <ele>134.4</ele>
        <time>2024-03-14T16:11:58Z</time>
      </trkpt>
      <trkpt lat="48.68129" lon="1.9367">
        <ele>134.4</ele>
        <time>2024-03-14T16:11:59Z</time>
      </trkpt>
      <trkpt lat="48.68128" lon="1.93661">
        <ele>134.4</ele>
        <time>2024-03-14T16:12:00Z</time>
      </trkpt>
      <trkpt lat="48.68127" lon="1.93654">
        <ele>134.4</ele>
        <time>2024-03-14T16:12:01Z</time>
      </trkpt>
      <trkpt lat="48.68126" lon="1.93646">
        <ele>134.4</ele>
        <time>2024-03-14T16:12:02Z</time>
      </trkpt>
      <trkpt lat="48.68124" lon="1.93637">
        <ele>134.4</ele>
        <time>2024-03-14T16:12:03Z</time>
      </trkpt>
      <trkpt lat="48.68124" lon="1.93629">
        <ele>135.4</ele>
        <time>2024-03-14T16:12:04Z</time>
      </trkpt>
      <trkpt lat="48.68123" lon="1.93621">
        <ele>135.8</ele>
        <time>2024-03-14T16:12:05Z</time>
      </trkpt>
      <trkpt lat="48.68122" lon="1.93614">
        <ele>135.8</ele>
        <time>2024-03-14T16:12:06Z</time>
      </trkpt>
      <trkpt lat="48.68121" lon="1.93606">
        <ele>135.8</ele>
        <time>2024-03-14T16:12:07Z</time>
      </trkpt>
      <trkpt lat="48.6812" lon="1.93599">
        <ele>136.4</ele>
        <time>2024-03-14T16:12:08Z</time>
      </trkpt>
      <trkpt lat="48.6812" lon="1.93591">
        <ele>137.4</ele>
        <time>2024-03-14T16:12:09Z</time>
      </trkpt>
      <trkpt lat="48.68119" lon="1.93583">
        <ele>137.4</ele>
        <time>2024-03-14T16:12:10Z</time>
      </trkpt>
      <trkpt lat="48.68118" lon="1.93575">
        <ele>137.4</ele>
        <time>2024-03-14T16:12:11Z</time>
      </trkpt>
      <trkpt lat="48.68118" lon="1.93569">
        <ele>137.8</ele>
        <time>2024-03-14T16:12:12Z</time>
      </trkpt>
      <trkpt lat="48.68117" lon="1.93563">
        <ele>138.4</ele>
        <time>2024-03-14T16:12:13Z</time>
      </trkpt>
      <trkpt lat="48.68117" lon="1.93557">
        <ele>138.4</ele>
        <time>2024-03-14T16:12:14Z</time>
      </trkpt>
      <trkpt lat="48.68116" lon="1.93551">
        <ele>138.4</ele>
        <time>2024-03-14T16:12:15Z</time>
      </trkpt>
      <trkpt lat="48.68116" lon="1.93546">
        <ele>138.4</ele>
        <time>2024-03-14T16:12:16Z</time>
      </trkpt>
      <trkpt lat="48.68116" lon="1.9354">
        <ele>139</ele>
        <time>2024-03-14T16:12:17Z</time>
      </trkpt>
      <trkpt lat="48.68116" lon="1.93534">
        <ele>139</ele>
        <time>2024-03-14T16:12:18Z</time>
      </trkpt>
      <trkpt lat="48.68116" lon="1.93529">
        <ele>139</ele>
        <time>2024-03-14T16:12:19Z</time>
      </trkpt>
      <trkpt lat="48.68116" lon="1.93523">
        <ele>139.6</ele>
        <time>2024-03-14T16:12:20Z</time>
      </trkpt>
      <trkpt lat="48.68117" lon="1.93518">
        <ele>140.2</ele>
        <time>2024-03-14T16:12:21Z</time>
      </trkpt>
      <trkpt lat="48.68117" lon="1.93513">
        <ele>140.2</ele>
        <time>2024-03-14T16:12:22Z</time>
      </trkpt>
      <trkpt lat="48.68118" lon="1.93507">
        <ele>140.2</ele>
        <time>2024-03-14T16:12:23Z</time>
      </trkpt>
      <trkpt lat="48.68119" lon="1.93502">
        <ele>140.2</ele>
        <time>2024-03-14T16:12:24Z</time>
      </trkpt>
      <trkpt lat="48.68119" lon="1.93496">
        <ele>141</ele>
        <time>2024-03-14T16:12:25Z</time>
      </trkpt>
      <trkpt lat="48.6812" lon="1.93491">
        <ele>141</ele>
        <time>2024-03-14T16:12:26Z</time>
      </trkpt>
      <trkpt lat="48.68121" lon="1.93485">
        <ele>141</ele>
        <time>2024-03-14T16:12:27Z</time>
      </trkpt>
      <trkpt lat="48.68122" lon="1.93479">
        <ele>142</ele>
        <time>2024-03-14T16:12:28Z</time>
      </trkpt>
      <trkpt lat="48.68122" lon="1.93473">
        <ele>141.8</ele>
        <time>2024-03-14T16:12:29Z</time>
      </trkpt>
      <trkpt lat="48.68124" lon="1.93468">
        <ele>141.8</ele>
        <time>2024-03-14T16:12:30Z</time>
      </trkpt>
      <trkpt lat="48.68125" lon="1.93462">
        <ele>141.8</ele>
        <time>2024-03-14T16:12:31Z</time>
      </trkpt>
      <trkpt lat="48.68126" lon="1.93456">
        <ele>142.8</ele>
        <time>2024-03-14T16:12:32Z</time>
      </trkpt>
      <trkpt lat="48.68127" lon="1.9345">
        <ele>142.8</ele>
        <time>2024-03-14T16:12:33Z</time>
      </trkpt>
      <trkpt lat="48.68129" lon="1.93445">
        <ele>142.8</ele>
        <time>2024-03-14T16:12:34Z</time>
      </trkpt>
      <trkpt lat="48.6813" lon="1.9344">
        <ele>142.8</ele>
        <time>2024-03-14T16:12:35Z</time>
      </trkpt>
      <trkpt lat="48.68132" lon="1.93435">
        <ele>143.8</ele>
        <time>2024-03-14T16:12:36Z</time>
      </trkpt>
      <trkpt lat="48.68133" lon="1.9343">
        <ele>144.6</ele>
        <time>2024-03-14T16:12:37Z</time>
      </trkpt>
      <trkpt lat="48.68135" lon="1.93424">
        <ele>144.6</ele>
        <time>2024-03-14T16:12:38Z</time>
      </trkpt>
      <trkpt lat="48.68136" lon="1.93418">
        <ele>144.6</ele>
        <time>2024-03-14T16:12:39Z</time>
      </trkpt>
      <trkpt lat="48.68136" lon="1.93412">
        <ele>145.4</ele>
        <time>2024-03-14T16:12:40Z</time>
      </trkpt>
      <trkpt lat="48.68138" lon="1.93406">
        <ele>145.6</ele>
        <time>2024-03-14T16:12:41Z</time>
      </trkpt>
      <trkpt lat="48.68139" lon="1.93401">
        <ele>145.6</ele>
        <time>2024-03-14T16:12:42Z</time>
      </trkpt>
      <trkpt lat="48.6814" lon="1.93395">
        <ele>145.6</ele>
        <time>2024-03-14T16:12:43Z</time>
      </trkpt>
      <trkpt lat="48.68142" lon="1.9339">
        <ele>146.6</ele>
        <time>2024-03-14T16:12:44Z</time>
      </trkpt>
      <trkpt lat="48.68144" lon="1.93384">
        <ele>146.8</ele>
        <time>2024-03-14T16:12:45Z</time>
      </trkpt>
      <trkpt lat="48.68145" lon="1.93379">
        <ele>146.8</ele>
        <time>2024-03-14T16:12:46Z</time>
      </trkpt>
      <trkpt lat="48.68148" lon="1.93373">
        <ele>146.8</ele>
        <time>2024-03-14T16:12:47Z</time>
      </trkpt>
      <trkpt lat="48.6815" lon="1.93367">
        <ele>147.8</ele>
        <time>2024-03-14T16:12:48Z</time>
      </trkpt>
      <trkpt lat="48.68153" lon="1.93363">
        <ele>147.6</ele>
        <time>2024-03-14T16:12:49Z</time>
      </trkpt>
      <trkpt lat="48.68156" lon="1.93359">
        <ele>147.6</ele>
        <time>2024-03-14T16:12:50Z</time>
      </trkpt>
      <trkpt lat="48.68158" lon="1.93355">
        <ele>147.6</ele>
        <time>2024-03-14T16:12:51Z</time>
      </trkpt>
      <trkpt lat="48.68161" lon="1.9335">
        <ele>148.6</ele>
        <time>2024-03-14T16:12:52Z</time>
      </trkpt>
      <trkpt lat="48.68164" lon="1.93346">
        <ele>149.2</ele>
        <time>2024-03-14T16:12:53Z</time>
      </trkpt>
      <trkpt lat="48.68167" lon="1.93342">
        <ele>149.2</ele>
        <time>2024-03-14T16:12:54Z</time>
      </trkpt>
      <trkpt lat="48.68169" lon="1.93338">
        <ele>149.2</ele>
        <time>2024-03-14T16:12:55Z</time>
      </trkpt>
      <trkpt lat="48.68172" lon="1.93334">
        <ele>150</ele>
        <time>2024-03-14T16:12:56Z</time>
      </trkpt>
      <trkpt lat="48.68174" lon="1.93329">
        <ele>150</ele>
        <time>2024-03-14T16:12:57Z</time>
      </trkpt>
      <trkpt lat="48.68176" lon="1.93324">
        <ele>150</ele>
        <time>2024-03-14T16:12:58Z</time>
      </trkpt>
      <trkpt lat="48.68178" lon="1.93319">
        <ele>150</ele>
        <time>2024-03-14T16:12:59Z</time>
      </trkpt>
      <trkpt lat="48.6818" lon="1.93314">
        <ele>150</ele>
        <time>2024-03-14T16:13:00Z</time>
      </trkpt>
      <trkpt lat="48.68181" lon="1.93309">
        <ele>151</ele>
        <time>2024-03-14T16:13:01Z</time>
      </trkpt>
      <trkpt lat="48.68182" lon="1.93303">
        <ele>151</ele>
        <time>2024-03-14T16:13:02Z</time>
      </trkpt>
      <trkpt lat="48.68183" lon="1.93297">
        <ele>151</ele>
        <time>2024-03-14T16:13:03Z</time>
      </trkpt>
      <trkpt lat="48.68183" lon="1.93291">
        <ele>151</ele>
        <time>2024-03-14T16:13:04Z</time>
      </trkpt>
      <trkpt lat="48.68184" lon="1.93286">
        <ele>151.8</ele>
        <time>2024-03-14T16:13:05Z</time>
      </trkpt>
      <trkpt lat="48.68186" lon="1.93281">
        <ele>151.8</ele>
        <time>2024-03-14T16:13:06Z</time>
      </trkpt>
      <trkpt lat="48.68186" lon="1.93276">
        <ele>151.8</ele>
        <time>2024-03-14T16:13:07Z</time>
      </trkpt>
      <trkpt lat="48.68187" lon="1.9327">
        <ele>152.8</ele>
        <time>2024-03-14T16:13:08Z</time>
      </trkpt>
      <trkpt lat="48.68187" lon="1.93265">
        <ele>153.4</ele>
        <time>2024-03-14T16:13:09Z</time>
      </trkpt>
      <trkpt lat="48.68188" lon="1.9326">
        <ele>153.4</ele>
        <time>2024-03-14T16:13:10Z</time>
      </trkpt>
      <trkpt lat="48.6819" lon="1.93254">
        <ele>153.4</ele>
        <time>2024-03-14T16:13:11Z</time>
      </trkpt>
      <trkpt lat="48.68191" lon="1.93249">
        <ele>153.4</ele>
        <time>2024-03-14T16:13:12Z</time>
      </trkpt>
      <trkpt lat="48.68193" lon="1.93243">
        <ele>154.2</ele>
        <time>2024-03-14T16:13:13Z</time>
      </trkpt>
      <trkpt lat="48.68195" lon="1.93238">
        <ele>154.2</ele>
        <time>2024-03-14T16:13:14Z</time>
      </trkpt>
      <trkpt lat="48.68198" lon="1.93233">
        <ele>154.2</ele>
        <time>2024-03-14T16:13:15Z</time>
      </trkpt>
      <trkpt lat="48.682" lon="1.93229">
        <ele>155.2</ele>
        <time>2024-03-14T16:13:16Z</time>
      </trkpt>
      <trkpt lat="48.68203" lon="1.93226">
        <ele>155.6</ele>
        <time>2024-03-14T16:13:17Z</time>
      </trkpt>
      <trkpt lat="48.68206" lon="1.93224">
        <ele>155.6</ele>
        <time>2024-03-14T16:13:18Z</time>
      </trkpt>
      <trkpt lat="48.68209" lon="1.93221">
        <ele>155.6</ele>
        <time>2024-03-14T16:13:19Z</time>
      </trkpt>
      <trkpt lat="48.68211" lon="1.93218">
        <ele>155.6</ele>
        <time>2024-03-14T16:13:20Z</time>
      </trkpt>
      <trkpt lat="48.68214" lon="1.93213">
        <ele>156.8</ele>
        <time>2024-03-14T16:13:21Z</time>
      </trkpt>
      <trkpt lat="48.68217" lon="1.93209">
        <ele>156.8</ele>
        <time>2024-03-14T16:13:22Z</time>
      </trkpt>
      <trkpt lat="48.68219" lon="1.93206">
        <ele>156.8</ele>
        <time>2024-03-14T16:13:23Z</time>
      </trkpt>
      <trkpt lat="48.68222" lon="1.93201">
        <ele>156.8</ele>
        <time>2024-03-14T16:13:24Z</time>
      </trkpt>
      <trkpt lat="48.68223" lon="1.93196">
        <ele>157.6</ele>
        <time>2024-03-14T16:13:25Z</time>
      </trkpt>
      <trkpt lat="48.68225" lon="1.93191">
        <ele>157.6</ele>
        <time>2024-03-14T16:13:26Z</time>
      </trkpt>
      <trkpt lat="48.68227" lon="1.93186">
        <ele>157.6</ele>
        <time>2024-03-14T16:13:27Z</time>
      </trkpt>
      <trkpt lat="48.68229" lon="1.93181">
        <ele>158</ele>
        <time>2024-03-14T16:13:28Z</time>
      </trkpt>
      <trkpt lat="48.68231" lon="1.93175">
        <ele>158.4</ele>
        <time>2024-03-14T16:13:29Z</time>
      </trkpt>
      <trkpt lat="48.68232" lon="1.93169">
        <ele>158.4</ele>
        <time>2024-03-14T16:13:30Z</time>
      </trkpt>
      <trkpt lat="48.68232" lon="1.93163">
        <ele>158.4</ele>
        <time>2024-03-14T16:13:31Z</time>
      </trkpt>
      <trkpt lat="48.68232" lon="1.93154">
        <ele>158.4</ele>
        <time>2024-03-14T16:13:32Z</time>
      </trkpt>
      <trkpt lat="48.68231" lon="1.93143">
        <ele>157.8</ele>
        <time>2024-03-14T16:13:33Z</time>
      </trkpt>
      <trkpt lat="48.68231" lon="1.93138">
        <ele>157.8</ele>
        <time>2024-03-14T16:13:34Z</time>
      </trkpt>
      <trkpt lat="48.6823" lon="1.9313">
        <ele>157.8</ele>
        <time>2024-03-14T16:13:35Z</time>
      </trkpt>
      <trkpt lat="48.6823" lon="1.93122">
        <ele>156.8</ele>
        <time>2024-03-14T16:13:36Z</time>
      </trkpt>
      <trkpt lat="48.68229" lon="1.93109">
        <ele>156</ele>
        <time>2024-03-14T16:13:37Z</time>
      </trkpt>
      <trkpt lat="48.6823" lon="1.93104">
        <ele>156</ele>
        <time>2024-03-14T16:13:38Z</time>
      </trkpt>
      <trkpt lat="48.68232" lon="1.9309">
        <ele>156</ele>
        <time>2024-03-14T16:13:39Z</time>
      </trkpt>
      <trkpt lat="48.68233" lon="1.93086">
        <ele>155</ele>
        <time>2024-03-14T16:13:40Z</time>
      </trkpt>
      <trkpt lat="48.68236" lon="1.93076">
        <ele>154.2</ele>
        <time>2024-03-14T16:13:41Z</time>
      </trkpt>
      <trkpt lat="48.68243" lon="1.9306">
        <ele>154.2</ele>
        <time>2024-03-14T16:13:42Z</time>
      </trkpt>
      <trkpt lat="48.68246" lon="1.93056">
        <ele>154.2</ele>
        <time>2024-03-14T16:13:43Z</time>
      </trkpt>
      <trkpt lat="48.68251" lon="1.93046">
        <ele>153.2</ele>
        <time>2024-03-14T16:13:44Z</time>
      </trkpt>
      <trkpt lat="48.68258" lon="1.93038">
        <ele>151.2</ele>
        <time>2024-03-14T16:13:45Z</time>
      </trkpt>
      <trkpt lat="48.68265" lon="1.93029">
        <ele>151.2</ele>
        <time>2024-03-14T16:13:46Z</time>
      </trkpt>
      <trkpt lat="48.68275" lon="1.93016">
        <ele>151.2</ele>
        <time>2024-03-14T16:13:47Z</time>
      </trkpt>
      <trkpt lat="48.68279" lon="1.93011">
        <ele>150.2</ele>
        <time>2024-03-14T16:13:48Z</time>
      </trkpt>
      <trkpt lat="48.68286" lon="1.93001">
        <ele>147.2</ele>
        <time>2024-03-14T16:13:49Z</time>
      </trkpt>
      <trkpt lat="48.68294" lon="1.9299">
        <ele>147.2</ele>
        <time>2024-03-14T16:13:50Z</time>
      </trkpt>
      <trkpt lat="48.68302" lon="1.9298">
        <ele>147.2</ele>
        <time>2024-03-14T16:13:51Z</time>
      </trkpt>
      <trkpt lat="48.68314" lon="1.92963">
        <ele>146.2</ele>
        <time>2024-03-14T16:13:52Z</time>
      </trkpt>
      <trkpt lat="48.68318" lon="1.92958">
        <ele>142</ele>
        <time>2024-03-14T16:13:53Z</time>
      </trkpt>
      <trkpt lat="48.68327" lon="1.92947">
        <ele>142</ele>
        <time>2024-03-14T16:13:54Z</time>
      </trkpt>
      <trkpt lat="48.68336" lon="1.92937">
        <ele>142</ele>
        <time>2024-03-14T16:13:55Z</time>
      </trkpt>
      <trkpt lat="48.6835" lon="1.9292">
        <ele>141</ele>
        <time>2024-03-14T16:13:56Z</time>
      </trkpt>
      <trkpt lat="48.68354" lon="1.92914">
        <ele>138.4</ele>
        <time>2024-03-14T16:13:57Z</time>
      </trkpt>
      <trkpt lat="48.68362" lon="1.92902">
        <ele>138.4</ele>
        <time>2024-03-14T16:13:58Z</time>
      </trkpt>
      <trkpt lat="48.6837" lon="1.92888">
        <ele>138.4</ele>
        <time>2024-03-14T16:13:59Z</time>
      </trkpt>
      <trkpt lat="48.68378" lon="1.92872">
        <ele>137.4</ele>
        <time>2024-03-14T16:14:00Z</time>
      </trkpt>
      <trkpt lat="48.68385" lon="1.92856">
        <ele>135.4</ele>
        <time>2024-03-14T16:14:01Z</time>
      </trkpt>
      <trkpt lat="48.68393" lon="1.92842">
        <ele>135.4</ele>
        <time>2024-03-14T16:14:02Z</time>
      </trkpt>
      <trkpt lat="48.684" lon="1.92828">
        <ele>135.4</ele>
        <time>2024-03-14T16:14:03Z</time>
      </trkpt>
      <trkpt lat="48.68407" lon="1.92814">
        <ele>134.4</ele>
        <time>2024-03-14T16:14:04Z</time>
      </trkpt>
      <trkpt lat="48.68415" lon="1.928">
        <ele>133.6</ele>
        <time>2024-03-14T16:14:05Z</time>
      </trkpt>
      <trkpt lat="48.68422" lon="1.92787">
        <ele>133.6</ele>
        <time>2024-03-14T16:14:06Z</time>
      </trkpt>
      <trkpt lat="48.68429" lon="1.92774">
        <ele>133.6</ele>
        <time>2024-03-14T16:14:07Z</time>
      </trkpt>
      <trkpt lat="48.68436" lon="1.9276">
        <ele>133.6</ele>
        <time>2024-03-14T16:14:08Z</time>
      </trkpt>
      <trkpt lat="48.68444" lon="1.92748">
        <ele>133.4</ele>
        <time>2024-03-14T16:14:09Z</time>
      </trkpt>
      <trkpt lat="48.68451" lon="1.92736">
        <ele>133.4</ele>
        <time>2024-03-14T16:14:10Z</time>
      </trkpt>
      <trkpt lat="48.68457" lon="1.92723">
        <ele>133.4</ele>
        <time>2024-03-14T16:14:11Z</time>
      </trkpt>
      <trkpt lat="48.68465" lon="1.92713">
        <ele>133.4</ele>
        <time>2024-03-14T16:14:12Z</time>
      </trkpt>
      <trkpt lat="48.68472" lon="1.92702">
        <ele>133</ele>
        <time>2024-03-14T16:14:13Z</time>
      </trkpt>
      <trkpt lat="48.68479" lon="1.92691">
        <ele>133</ele>
        <time>2024-03-14T16:14:14Z</time>
      </trkpt>
      <trkpt lat="48.68485" lon="1.9268">
        <ele>133</ele>
        <time>2024-03-14T16:14:15Z</time>
      </trkpt>
      <trkpt lat="48.68491" lon="1.92668">
        <ele>132</ele>
        <time>2024-03-14T16:14:16Z</time>
      </trkpt>
      <trkpt lat="48.68497" lon="1.92657">
        <ele>131.8</ele>
        <time>2024-03-14T16:14:17Z</time>
      </trkpt>
      <trkpt lat="48.68502" lon="1.92645">
        <ele>131.8</ele>
        <time>2024-03-14T16:14:18Z</time>
      </trkpt>
      <trkpt lat="48.68507" lon="1.92633">
        <ele>131.8</ele>
        <time>2024-03-14T16:14:19Z</time>
      </trkpt>
      <trkpt lat="48.68511" lon="1.92621">
        <ele>132.6</ele>
        <time>2024-03-14T16:14:20Z</time>
      </trkpt>
      <trkpt lat="48.68515" lon="1.9261">
        <ele>133.2</ele>
        <time>2024-03-14T16:14:21Z</time>
      </trkpt>
      <trkpt lat="48.68519" lon="1.926">
        <ele>133.2</ele>
        <time>2024-03-14T16:14:22Z</time>
      </trkpt>
      <trkpt lat="48.68522" lon="1.92589">
        <ele>133.2</ele>
        <time>2024-03-14T16:14:23Z</time>
      </trkpt>
      <trkpt lat="48.68525" lon="1.92577">
        <ele>134.2</ele>
        <time>2024-03-14T16:14:24Z</time>
      </trkpt>
      <trkpt lat="48.68529" lon="1.92567">
        <ele>134.4</ele>
        <time>2024-03-14T16:14:25Z</time>
      </trkpt>
      <trkpt lat="48.68532" lon="1.92557">
        <ele>134.4</ele>
        <time>2024-03-14T16:14:26Z</time>
      </trkpt>
      <trkpt lat="48.68534" lon="1.92547">
        <ele>134.4</ele>
        <time>2024-03-14T16:14:27Z</time>
      </trkpt>
      <trkpt lat="48.68536" lon="1.92538">
        <ele>135</ele>
        <time>2024-03-14T16:14:28Z</time>
      </trkpt>
      <trkpt lat="48.68538" lon="1.92527">
        <ele>135.6</ele>
        <time>2024-03-14T16:14:29Z</time>
      </trkpt>
      <trkpt lat="48.6854" lon="1.92517">
        <ele>135.6</ele>
        <time>2024-03-14T16:14:30Z</time>
      </trkpt>
      <trkpt lat="48.68543" lon="1.9251">
        <ele>135.6</ele>
        <time>2024-03-14T16:14:31Z</time>
      </trkpt>
      <trkpt lat="48.68545" lon="1.92502">
        <ele>136.2</ele>
        <time>2024-03-14T16:14:32Z</time>
      </trkpt>
      <trkpt lat="48.68547" lon="1.92493">
        <ele>137.4</ele>
        <time>2024-03-14T16:14:33Z</time>
      </trkpt>
      <trkpt lat="48.68549" lon="1.92486">
        <ele>137.4</ele>
        <time>2024-03-14T16:14:34Z</time>
      </trkpt>
      <trkpt lat="48.68551" lon="1.92479">
        <ele>137.4</ele>
        <time>2024-03-14T16:14:35Z</time>
      </trkpt>
      <trkpt lat="48.68553" lon="1.92473">
        <ele>138.4</ele>
        <time>2024-03-14T16:14:36Z</time>
      </trkpt>
      <trkpt lat="48.68556" lon="1.92466">
        <ele>138.6</ele>
        <time>2024-03-14T16:14:37Z</time>
      </trkpt>
      <trkpt lat="48.68558" lon="1.9246">
        <ele>138.6</ele>
        <time>2024-03-14T16:14:38Z</time>
      </trkpt>
      <trkpt lat="48.6856" lon="1.92454">
        <ele>138.6</ele>
        <time>2024-03-14T16:14:39Z</time>
      </trkpt>
      <trkpt lat="48.68563" lon="1.92448">
        <ele>138.6</ele>
        <time>2024-03-14T16:14:40Z</time>
      </trkpt>
      <trkpt lat="48.68566" lon="1.92441">
        <ele>139.2</ele>
        <time>2024-03-14T16:14:41Z</time>
      </trkpt>
      <trkpt lat="48.68569" lon="1.92433">
        <ele>139.2</ele>
        <time>2024-03-14T16:14:42Z</time>
      </trkpt>
      <trkpt lat="48.68572" lon="1.92425">
        <ele>139.2</ele>
        <time>2024-03-14T16:14:43Z</time>
      </trkpt>
      <trkpt lat="48.68575" lon="1.92417">
        <ele>139.2</ele>
        <time>2024-03-14T16:14:44Z</time>
      </trkpt>
      <trkpt lat="48.68577" lon="1.92406">
        <ele>138.4</ele>
        <time>2024-03-14T16:14:45Z</time>
      </trkpt>
      <trkpt lat="48.6858" lon="1.92396">
        <ele>138.4</ele>
        <time>2024-03-14T16:14:46Z</time>
      </trkpt>
      <trkpt lat="48.68583" lon="1.92386">
        <ele>138.4</ele>
        <time>2024-03-14T16:14:47Z</time>
      </trkpt>
      <trkpt lat="48.68586" lon="1.92373">
        <ele>137.4</ele>
        <time>2024-03-14T16:14:48Z</time>
      </trkpt>
      <trkpt lat="48.68589" lon="1.92361">
        <ele>135.8</ele>
        <time>2024-03-14T16:14:49Z</time>
      </trkpt>
      <trkpt lat="48.68592" lon="1.9235">
        <ele>135.8</ele>
        <time>2024-03-14T16:14:50Z</time>
      </trkpt>
      <trkpt lat="48.68596" lon="1.92338">
        <ele>135.8</ele>
        <time>2024-03-14T16:14:51Z</time>
      </trkpt>
      <trkpt lat="48.68599" lon="1.92326">
        <ele>135.8</ele>
        <time>2024-03-14T16:14:52Z</time>
      </trkpt>
      <trkpt lat="48.68602" lon="1.92313">
        <ele>135.4</ele>
        <time>2024-03-14T16:14:53Z</time>
      </trkpt>
      <trkpt lat="48.68606" lon="1.92303">
        <ele>135.4</ele>
        <time>2024-03-14T16:14:54Z</time>
      </trkpt>
      <trkpt lat="48.6861" lon="1.92292">
        <ele>135.4</ele>
        <time>2024-03-14T16:14:55Z</time>
      </trkpt>
      <trkpt lat="48.68614" lon="1.92282">
        <ele>135.4</ele>
        <time>2024-03-14T16:14:56Z</time>
      </trkpt>
      <trkpt lat="48.68618" lon="1.92271">
        <ele>135.8</ele>
        <time>2024-03-14T16:14:57Z</time>
      </trkpt>
      <trkpt lat="48.68622" lon="1.92258">
        <ele>135.8</ele>
        <time>2024-03-14T16:14:58Z</time>
      </trkpt>
      <trkpt lat="48.68626" lon="1.92252">
        <ele>135.8</ele>
        <time>2024-03-14T16:14:59Z</time>
      </trkpt>
      <trkpt lat="48.6863" lon="1.92244">
        <ele>136.8</ele>
        <time>2024-03-14T16:15:00Z</time>
      </trkpt>
      <trkpt lat="48.68634" lon="1.92238">
        <ele>137.4</ele>
        <time>2024-03-14T16:15:01Z</time>
      </trkpt>
      <trkpt lat="48.68639" lon="1.92229">
        <ele>137.4</ele>
        <time>2024-03-14T16:15:02Z</time>
      </trkpt>
      <trkpt lat="48.68643" lon="1.92222">
        <ele>137.4</ele>
        <time>2024-03-14T16:15:03Z</time>
      </trkpt>
      <trkpt lat="48.68647" lon="1.92214">
        <ele>138.4</ele>
        <time>2024-03-14T16:15:04Z</time>
      </trkpt>
      <trkpt lat="48.68651" lon="1.92207">
        <ele>138.8</ele>
        <time>2024-03-14T16:15:05Z</time>
      </trkpt>
      <trkpt lat="48.68655" lon="1.922">
        <ele>138.8</ele>
        <time>2024-03-14T16:15:06Z</time>
      </trkpt>
      <trkpt lat="48.68658" lon="1.92194">
        <ele>138.8</ele>
        <time>2024-03-14T16:15:07Z</time>
      </trkpt>
      <trkpt lat="48.68662" lon="1.92188">
        <ele>139.6</ele>
        <time>2024-03-14T16:15:08Z</time>
      </trkpt>
      <trkpt lat="48.68664" lon="1.92182">
        <ele>140.2</ele>
        <time>2024-03-14T16:15:09Z</time>
      </trkpt>
      <trkpt lat="48.68667" lon="1.92176">
        <ele>140.2</ele>
        <time>2024-03-14T16:15:10Z</time>
      </trkpt>
      <trkpt lat="48.68671" lon="1.92169">
        <ele>140.2</ele>
        <time>2024-03-14T16:15:11Z</time>
      </trkpt>
      <trkpt lat="48.68675" lon="1.92164">
        <ele>140.2</ele>
        <time>2024-03-14T16:15:12Z</time>
      </trkpt>
      <trkpt lat="48.68679" lon="1.92158">
        <ele>140.4</ele>
        <time>2024-03-14T16:15:13Z</time>
      </trkpt>
      <trkpt lat="48.68684" lon="1.92152">
        <ele>140.4</ele>
        <time>2024-03-14T16:15:14Z</time>
      </trkpt>
      <trkpt lat="48.68687" lon="1.92146">
        <ele>140.4</ele>
        <time>2024-03-14T16:15:15Z</time>
      </trkpt>
      <trkpt lat="48.68692" lon="1.92138">
        <ele>141.4</ele>
        <time>2024-03-14T16:15:16Z</time>
      </trkpt>
      <trkpt lat="48.68696" lon="1.92131">
        <ele>142.2</ele>
        <time>2024-03-14T16:15:17Z</time>
      </trkpt>
      <trkpt lat="48.687" lon="1.92125">
        <ele>142.2</ele>
        <time>2024-03-14T16:15:18Z</time>
      </trkpt>
      <trkpt lat="48.68704" lon="1.92118">
        <ele>142.2</ele>
        <time>2024-03-14T16:15:19Z</time>
      </trkpt>
      <trkpt lat="48.68707" lon="1.92112">
        <ele>143</ele>
        <time>2024-03-14T16:15:20Z</time>
      </trkpt>
      <trkpt lat="48.68711" lon="1.92106">
        <ele>142.8</ele>
        <time>2024-03-14T16:15:21Z</time>
      </trkpt>
      <trkpt lat="48.68715" lon="1.921">
        <ele>142.8</ele>
        <time>2024-03-14T16:15:22Z</time>
      </trkpt>
      <trkpt lat="48.68719" lon="1.92093">
        <ele>142.8</ele>
        <time>2024-03-14T16:15:23Z</time>
      </trkpt>
      <trkpt lat="48.68724" lon="1.92087">
        <ele>141.8</ele>
        <time>2024-03-14T16:15:24Z</time>
      </trkpt>
      <trkpt lat="48.68728" lon="1.9208">
        <ele>141.2</ele>
        <time>2024-03-14T16:15:25Z</time>
      </trkpt>
      <trkpt lat="48.68732" lon="1.92072">
        <ele>141.2</ele>
        <time>2024-03-14T16:15:26Z</time>
      </trkpt>
      <trkpt lat="48.68736" lon="1.92063">
        <ele>141.2</ele>
        <time>2024-03-14T16:15:27Z</time>
      </trkpt>
      <trkpt lat="48.68741" lon="1.92055">
        <ele>141.8</ele>
        <time>2024-03-14T16:15:28Z</time>
      </trkpt>
      <trkpt lat="48.68745" lon="1.92047">
        <ele>141.6</ele>
        <time>2024-03-14T16:15:29Z</time>
      </trkpt>
      <trkpt lat="48.68749" lon="1.9204">
        <ele>141.6</ele>
        <time>2024-03-14T16:15:30Z</time>
      </trkpt>
      <trkpt lat="48.68753" lon="1.92032">
        <ele>141.6</ele>
        <time>2024-03-14T16:15:31Z</time>
      </trkpt>
      <trkpt lat="48.68758" lon="1.92024">
        <ele>141.6</ele>
        <time>2024-03-14T16:15:32Z</time>
      </trkpt>
      <trkpt lat="48.68762" lon="1.92016">
        <ele>141</ele>
        <time>2024-03-14T16:15:33Z</time>
      </trkpt>
      <trkpt lat="48.68767" lon="1.92009">
        <ele>141</ele>
        <time>2024-03-14T16:15:34Z</time>
      </trkpt>
      <trkpt lat="48.6877" lon="1.92001">
        <ele>141</ele>
        <time>2024-03-14T16:15:35Z</time>
      </trkpt>
      <trkpt lat="48.68774" lon="1.91993">
        <ele>141.8</ele>
        <time>2024-03-14T16:15:36Z</time>
      </trkpt>
      <trkpt lat="48.68778" lon="1.91988">
        <ele>141.6</ele>
        <time>2024-03-14T16:15:37Z</time>
      </trkpt>
      <trkpt lat="48.68782" lon="1.91981">
        <ele>141.6</ele>
        <time>2024-03-14T16:15:38Z</time>
      </trkpt>
      <trkpt lat="48.68787" lon="1.91975">
        <ele>141.6</ele>
        <time>2024-03-14T16:15:39Z</time>
      </trkpt>
      <trkpt lat="48.6879" lon="1.91966">
        <ele>141.8</ele>
        <time>2024-03-14T16:15:40Z</time>
      </trkpt>
      <trkpt lat="48.68794" lon="1.91958">
        <ele>141.6</ele>
        <time>2024-03-14T16:15:41Z</time>
      </trkpt>
      <trkpt lat="48.68798" lon="1.91949">
        <ele>141.6</ele>
        <time>2024-03-14T16:15:42Z</time>
      </trkpt>
      <trkpt lat="48.68802" lon="1.91942">
        <ele>141.6</ele>
        <time>2024-03-14T16:15:43Z</time>
      </trkpt>
      <trkpt lat="48.68807" lon="1.91935">
        <ele>141.6</ele>
        <time>2024-03-14T16:15:44Z</time>
      </trkpt>
      <trkpt lat="48.68812" lon="1.91927">
        <ele>140.8</ele>
        <time>2024-03-14T16:15:45Z</time>
      </trkpt>
      <trkpt lat="48.68817" lon="1.91918">
        <ele>140.8</ele>
        <time>2024-03-14T16:15:46Z</time>
      </trkpt>
      <trkpt lat="48.68822" lon="1.91909">
        <ele>140.8</ele>
        <time>2024-03-14T16:15:47Z</time>
      </trkpt>
      <trkpt lat="48.68828" lon="1.919">
        <ele>139.8</ele>
        <time>2024-03-14T16:15:48Z</time>
      </trkpt>
      <trkpt lat="48.68835" lon="1.91892">
        <ele>137</ele>
        <time>2024-03-14T16:15:49Z</time>
      </trkpt>
      <trkpt lat="48.68841" lon="1.91882">
        <ele>137</ele>
        <time>2024-03-14T16:15:50Z</time>
      </trkpt>
      <trkpt lat="48.68848" lon="1.91875">
        <ele>137</ele>
        <time>2024-03-14T16:15:51Z</time>
      </trkpt>
      <trkpt lat="48.68855" lon="1.91866">
        <ele>136</ele>
        <time>2024-03-14T16:15:52Z</time>
      </trkpt>
      <trkpt lat="48.68863" lon="1.91858">
        <ele>134.6</ele>
        <time>2024-03-14T16:15:53Z</time>
      </trkpt>
      <trkpt lat="48.6887" lon="1.91847">
        <ele>134.6</ele>
        <time>2024-03-14T16:15:54Z</time>
      </trkpt>
      <trkpt lat="48.68879" lon="1.91839">
        <ele>134.6</ele>
        <time>2024-03-14T16:15:55Z</time>
      </trkpt>
      <trkpt lat="48.68887" lon="1.91831">
        <ele>133.6</ele>
        <time>2024-03-14T16:15:56Z</time>
      </trkpt>
      <trkpt lat="48.68894" lon="1.91821">
        <ele>133</ele>
        <time>2024-03-14T16:15:57Z</time>
      </trkpt>
      <trkpt lat="48.68901" lon="1.91814">
        <ele>133</ele>
        <time>2024-03-14T16:15:58Z</time>
      </trkpt>
      <trkpt lat="48.68909" lon="1.91807">
        <ele>133</ele>
        <time>2024-03-14T16:15:59Z</time>
      </trkpt>
      <trkpt lat="48.68916" lon="1.918">
        <ele>132.4</ele>
        <time>2024-03-14T16:16:00Z</time>
      </trkpt>
      <trkpt lat="48.68923" lon="1.91791">
        <ele>132.4</ele>
        <time>2024-03-14T16:16:01Z</time>
      </trkpt>
      <trkpt lat="48.68929" lon="1.91782">
        <ele>132.4</ele>
        <time>2024-03-14T16:16:02Z</time>
      </trkpt>
      <trkpt lat="48.68934" lon="1.91772">
        <ele>132.4</ele>
        <time>2024-03-14T16:16:03Z</time>
      </trkpt>
      <trkpt lat="48.68938" lon="1.91762">
        <ele>132.4</ele>
        <time>2024-03-14T16:16:04Z</time>
      </trkpt>
      <trkpt lat="48.6894" lon="1.91748">
        <ele>133</ele>
        <time>2024-03-14T16:16:05Z</time>
      </trkpt>
      <trkpt lat="48.68942" lon="1.91739">
        <ele>133</ele>
        <time>2024-03-14T16:16:06Z</time>
      </trkpt>
      <trkpt lat="48.68943" lon="1.91729">
        <ele>133</ele>
        <time>2024-03-14T16:16:07Z</time>
      </trkpt>
      <trkpt lat="48.68944" lon="1.91716">
        <ele>133.2</ele>
        <time>2024-03-14T16:16:08Z</time>
      </trkpt>
      <trkpt lat="48.68946" lon="1.91707">
        <ele>133.2</ele>
        <time>2024-03-14T16:16:09Z</time>
      </trkpt>
      <trkpt lat="48.68947" lon="1.91699">
        <ele>133.2</ele>
        <time>2024-03-14T16:16:10Z</time>
      </trkpt>
      <trkpt lat="48.68948" lon="1.9169">
        <ele>133.2</ele>
        <time>2024-03-14T16:16:11Z</time>
      </trkpt>
      <trkpt lat="48.68949" lon="1.91681">
        <ele>134.2</ele>
        <time>2024-03-14T16:16:12Z</time>
      </trkpt>
      <trkpt lat="48.68951" lon="1.91672">
        <ele>134.6</ele>
        <time>2024-03-14T16:16:13Z</time>
      </trkpt>
      <trkpt lat="48.68952" lon="1.91663">
        <ele>134.6</ele>
        <time>2024-03-14T16:16:14Z</time>
      </trkpt>
      <trkpt lat="48.68954" lon="1.91652">
        <ele>134.6</ele>
        <time>2024-03-14T16:16:15Z</time>
      </trkpt>
      <trkpt lat="48.68955" lon="1.91641">
        <ele>134.8</ele>
        <time>2024-03-14T16:16:16Z</time>
      </trkpt>
      <trkpt lat="48.68957" lon="1.91629">
        <ele>134</ele>
        <time>2024-03-14T16:16:17Z</time>
      </trkpt>
      <trkpt lat="48.68958" lon="1.91617">
        <ele>134</ele>
        <time>2024-03-14T16:16:18Z</time>
      </trkpt>
      <trkpt lat="48.6896" lon="1.91605">
        <ele>134</ele>
        <time>2024-03-14T16:16:19Z</time>
      </trkpt>
      <trkpt lat="48.68961" lon="1.91593">
        <ele>134.6</ele>
        <time>2024-03-14T16:16:20Z</time>
      </trkpt>
      <trkpt lat="48.68962" lon="1.9158">
        <ele>135.6</ele>
        <time>2024-03-14T16:16:21Z</time>
      </trkpt>
      <trkpt lat="48.68963" lon="1.91568">
        <ele>135.6</ele>
        <time>2024-03-14T16:16:22Z</time>
      </trkpt>
      <trkpt lat="48.68965" lon="1.91557">
        <ele>135.6</ele>
        <time>2024-03-14T16:16:23Z</time>
      </trkpt>
      <trkpt lat="48.68966" lon="1.91545">
        <ele>136.2</ele>
        <time>2024-03-14T16:16:24Z</time>
      </trkpt>
      <trkpt lat="48.68967" lon="1.91532">
        <ele>136.4</ele>
        <time>2024-03-14T16:16:25Z</time>
      </trkpt>
      <trkpt lat="48.68968" lon="1.91521">
        <ele>136.4</ele>
        <time>2024-03-14T16:16:26Z</time>
      </trkpt>
      <trkpt lat="48.6897" lon="1.91509">
        <ele>136.4</ele>
        <time>2024-03-14T16:16:27Z</time>
      </trkpt>
      <trkpt lat="48.68971" lon="1.91497">
        <ele>136.4</ele>
        <time>2024-03-14T16:16:28Z</time>
      </trkpt>
      <trkpt lat="48.68972" lon="1.91484">
        <ele>136.4</ele>
        <time>2024-03-14T16:16:29Z</time>
      </trkpt>
      <trkpt lat="48.68973" lon="1.91473">
        <ele>136.4</ele>
        <time>2024-03-14T16:16:30Z</time>
      </trkpt>
      <trkpt lat="48.68975" lon="1.91463">
        <ele>136.4</ele>
        <time>2024-03-14T16:16:31Z</time>
      </trkpt>
      <trkpt lat="48.68977" lon="1.9145">
        <ele>135.4</ele>
        <time>2024-03-14T16:16:32Z</time>
      </trkpt>
      <trkpt lat="48.68979" lon="1.91437">
        <ele>133.4</ele>
        <time>2024-03-14T16:16:33Z</time>
      </trkpt>
      <trkpt lat="48.68981" lon="1.91424">
        <ele>133.4</ele>
        <time>2024-03-14T16:16:34Z</time>
      </trkpt>
      <trkpt lat="48.68983" lon="1.91411">
        <ele>133.4</ele>
        <time>2024-03-14T16:16:35Z</time>
      </trkpt>
      <trkpt lat="48.68985" lon="1.91398">
        <ele>133.2</ele>
        <time>2024-03-14T16:16:36Z</time>
      </trkpt>
      <trkpt lat="48.68987" lon="1.91385">
        <ele>132.6</ele>
        <time>2024-03-14T16:16:37Z</time>
      </trkpt>
      <trkpt lat="48.6899" lon="1.91373">
        <ele>132.6</ele>
        <time>2024-03-14T16:16:38Z</time>
      </trkpt>
      <trkpt lat="48.68993" lon="1.91361">
        <ele>132.6</ele>
        <time>2024-03-14T16:16:39Z</time>
      </trkpt>
      <trkpt lat="48.68995" lon="1.9135">
        <ele>133.4</ele>
        <time>2024-03-14T16:16:40Z</time>
      </trkpt>
      <trkpt lat="48.68999" lon="1.91338">
        <ele>133.2</ele>
        <time>2024-03-14T16:16:41Z</time>
      </trkpt>
      <trkpt lat="48.69004" lon="1.91328">
        <ele>133.2</ele>
        <time>2024-03-14T16:16:42Z</time>
      </trkpt>
      <trkpt lat="48.69009" lon="1.91318">
        <ele>133.2</ele>
        <time>2024-03-14T16:16:43Z</time>
      </trkpt>
      <trkpt lat="48.69013" lon="1.91308">
        <ele>133.2</ele>
        <time>2024-03-14T16:16:44Z</time>
      </trkpt>
      <trkpt lat="48.69019" lon="1.913">
        <ele>133.2</ele>
        <time>2024-03-14T16:16:45Z</time>
      </trkpt>
      <trkpt lat="48.69024" lon="1.91291">
        <ele>133.2</ele>
        <time>2024-03-14T16:16:46Z</time>
      </trkpt>
      <trkpt lat="48.69029" lon="1.91283">
        <ele>133.2</ele>
        <time>2024-03-14T16:16:47Z</time>
      </trkpt>
      <trkpt lat="48.69034" lon="1.91272">
        <ele>134</ele>
        <time>2024-03-14T16:16:48Z</time>
      </trkpt>
      <trkpt lat="48.6904" lon="1.91264">
        <ele>134.2</ele>
        <time>2024-03-14T16:16:49Z</time>
      </trkpt>
      <trkpt lat="48.69045" lon="1.91256">
        <ele>134.2</ele>
        <time>2024-03-14T16:16:50Z</time>
      </trkpt>
      <trkpt lat="48.6905" lon="1.91248">
        <ele>134.2</ele>
        <time>2024-03-14T16:16:51Z</time>
      </trkpt>
      <trkpt lat="48.69055" lon="1.9124">
        <ele>135.2</ele>
        <time>2024-03-14T16:16:52Z</time>
      </trkpt>
      <trkpt lat="48.6906" lon="1.91232">
        <ele>136.2</ele>
        <time>2024-03-14T16:16:53Z</time>
      </trkpt>
      <trkpt lat="48.69065" lon="1.91225">
        <ele>136.2</ele>
        <time>2024-03-14T16:16:54Z</time>
      </trkpt>
      <trkpt lat="48.69069" lon="1.91217">
        <ele>136.2</ele>
        <time>2024-03-14T16:16:55Z</time>
      </trkpt>
      <trkpt lat="48.69074" lon="1.9121">
        <ele>136.2</ele>
        <time>2024-03-14T16:16:56Z</time>
      </trkpt>
      <trkpt lat="48.69078" lon="1.91201">
        <ele>136.8</ele>
        <time>2024-03-14T16:16:57Z</time>
      </trkpt>
      <trkpt lat="48.69082" lon="1.91194">
        <ele>136.8</ele>
        <time>2024-03-14T16:16:58Z</time>
      </trkpt>
      <trkpt lat="48.69086" lon="1.91185">
        <ele>136.8</ele>
        <time>2024-03-14T16:16:59Z</time>
      </trkpt>
      <trkpt lat="48.6909" lon="1.91177">
        <ele>137.2</ele>
        <time>2024-03-14T16:17:00Z</time>
      </trkpt>
      <trkpt lat="48.69092" lon="1.91167">
        <ele>137.8</ele>
        <time>2024-03-14T16:17:01Z</time>
      </trkpt>
      <trkpt lat="48.69095" lon="1.91159">
        <ele>137.8</ele>
        <time>2024-03-14T16:17:02Z</time>
      </trkpt>
      <trkpt lat="48.69099" lon="1.9115">
        <ele>137.8</ele>
        <time>2024-03-14T16:17:03Z</time>
      </trkpt>
      <trkpt lat="48.69102" lon="1.91141">
        <ele>138</ele>
        <time>2024-03-14T16:17:04Z</time>
      </trkpt>
      <trkpt lat="48.69105" lon="1.91133">
        <ele>138.6</ele>
        <time>2024-03-14T16:17:05Z</time>
      </trkpt>
      <trkpt lat="48.69109" lon="1.91124">
        <ele>138.6</ele>
        <time>2024-03-14T16:17:06Z</time>
      </trkpt>
      <trkpt lat="48.69113" lon="1.91117">
        <ele>138.6</ele>
        <time>2024-03-14T16:17:07Z</time>
      </trkpt>
      <trkpt lat="48.69117" lon="1.9111">
        <ele>139.6</ele>
        <time>2024-03-14T16:17:08Z</time>
      </trkpt>
      <trkpt lat="48.69121" lon="1.91103">
        <ele>140.8</ele>
        <time>2024-03-14T16:17:09Z</time>
      </trkpt>
      <trkpt lat="48.69125" lon="1.91096">
        <ele>140.8</ele>
        <time>2024-03-14T16:17:10Z</time>
      </trkpt>
      <trkpt lat="48.69129" lon="1.9109">
        <ele>140.8</ele>
        <time>2024-03-14T16:17:11Z</time>
      </trkpt>
      <trkpt lat="48.69133" lon="1.91083">
        <ele>141.6</ele>
        <time>2024-03-14T16:17:12Z</time>
      </trkpt>
      <trkpt lat="48.69136" lon="1.91078">
        <ele>142.2</ele>
        <time>2024-03-14T16:17:13Z</time>
      </trkpt>
      <trkpt lat="48.69141" lon="1.91072">
        <ele>142.2</ele>
        <time>2024-03-14T16:17:14Z</time>
      </trkpt>
      <trkpt lat="48.69145" lon="1.91068">
        <ele>142.2</ele>
        <time>2024-03-14T16:17:15Z</time>
      </trkpt>
      <trkpt lat="48.69149" lon="1.91064">
        <ele>143.2</ele>
        <time>2024-03-14T16:17:16Z</time>
      </trkpt>
      <trkpt lat="48.69153" lon="1.91059">
        <ele>144.4</ele>
        <time>2024-03-14T16:17:17Z</time>
      </trkpt>
      <trkpt lat="48.69158" lon="1.91055">
        <ele>144.4</ele>
        <time>2024-03-14T16:17:18Z</time>
      </trkpt>
      <trkpt lat="48.69163" lon="1.9105">
        <ele>144.4</ele>
        <time>2024-03-14T16:17:19Z</time>
      </trkpt>
      <trkpt lat="48.69167" lon="1.91046">
        <ele>145.4</ele>
        <time>2024-03-14T16:17:20Z</time>
      </trkpt>
      <trkpt lat="48.69171" lon="1.91041">
        <ele>145.8</ele>
        <time>2024-03-14T16:17:21Z</time>
      </trkpt>
      <trkpt lat="48.69174" lon="1.91034">
        <ele>145.8</ele>
        <time>2024-03-14T16:17:22Z</time>
      </trkpt>
      <trkpt lat="48.69178" lon="1.91028">
        <ele>145.8</ele>
        <time>2024-03-14T16:17:23Z</time>
      </trkpt>
      <trkpt lat="48.69182" lon="1.91023">
        <ele>146.4</ele>
        <time>2024-03-14T16:17:24Z</time>
      </trkpt>
      <trkpt lat="48.69186" lon="1.91017">
        <ele>146.2</ele>
        <time>2024-03-14T16:17:25Z</time>
      </trkpt>
      <trkpt lat="48.6919" lon="1.91012">
        <ele>146.2</ele>
        <time>2024-03-14T16:17:26Z</time>
      </trkpt>
      <trkpt lat="48.69194" lon="1.91007">
        <ele>146.2</ele>
        <time>2024-03-14T16:17:27Z</time>
      </trkpt>
      <trkpt lat="48.69198" lon="1.91001">
        <ele>147</ele>
        <time>2024-03-14T16:17:28Z</time>
      </trkpt>
      <trkpt lat="48.69202" lon="1.90996">
        <ele>147.2</ele>
        <time>2024-03-14T16:17:29Z</time>
      </trkpt>
      <trkpt lat="48.69206" lon="1.90991">
        <ele>147.2</ele>
        <time>2024-03-14T16:17:30Z</time>
      </trkpt>
      <trkpt lat="48.69211" lon="1.90986">
        <ele>147.2</ele>
        <time>2024-03-14T16:17:31Z</time>
      </trkpt>
      <trkpt lat="48.69214" lon="1.9098">
        <ele>148</ele>
        <time>2024-03-14T16:17:32Z</time>
      </trkpt>
      <trkpt lat="48.69218" lon="1.90974">
        <ele>148.4</ele>
        <time>2024-03-14T16:17:33Z</time>
      </trkpt>
      <trkpt lat="48.69222" lon="1.90969">
        <ele>148.4</ele>
        <time>2024-03-14T16:17:34Z</time>
      </trkpt>
      <trkpt lat="48.69225" lon="1.90964">
        <ele>148.4</ele>
        <time>2024-03-14T16:17:35Z</time>
      </trkpt>
      <trkpt lat="48.69228" lon="1.90958">
        <ele>148.4</ele>
        <time>2024-03-14T16:17:36Z</time>
      </trkpt>
      <trkpt lat="48.69232" lon="1.90953">
        <ele>148.6</ele>
        <time>2024-03-14T16:17:37Z</time>
      </trkpt>
      <trkpt lat="48.69235" lon="1.90948">
        <ele>148.6</ele>
        <time>2024-03-14T16:17:38Z</time>
      </trkpt>
      <trkpt lat="48.69239" lon="1.90943">
        <ele>148.6</ele>
        <time>2024-03-14T16:17:39Z</time>
      </trkpt>
      <trkpt lat="48.69243" lon="1.90939">
        <ele>148.6</ele>
        <time>2024-03-14T16:17:40Z</time>
      </trkpt>
      <trkpt lat="48.69247" lon="1.90935">
        <ele>148.6</ele>
        <time>2024-03-14T16:17:41Z</time>
      </trkpt>
      <trkpt lat="48.6925" lon="1.90931">
        <ele>148.6</ele>
        <time>2024-03-14T16:17:42Z</time>
      </trkpt>
      <trkpt lat="48.69254" lon="1.90926">
        <ele>148.6</ele>
        <time>2024-03-14T16:17:43Z</time>
      </trkpt>
      <trkpt lat="48.69257" lon="1.90922">
        <ele>149.2</ele>
        <time>2024-03-14T16:17:44Z</time>
      </trkpt>
      <trkpt lat="48.69261" lon="1.90917">
        <ele>149</ele>
        <time>2024-03-14T16:17:45Z</time>
      </trkpt>
      <trkpt lat="48.69265" lon="1.90913">
        <ele>149</ele>
        <time>2024-03-14T16:17:46Z</time>
      </trkpt>
      <trkpt lat="48.69269" lon="1.90909">
        <ele>149</ele>
        <time>2024-03-14T16:17:47Z</time>
      </trkpt>
      <trkpt lat="48.69273" lon="1.90905">
        <ele>149</ele>
        <time>2024-03-14T16:17:48Z</time>
      </trkpt>
      <trkpt lat="48.69276" lon="1.909">
        <ele>149</ele>
        <time>2024-03-14T16:17:49Z</time>
      </trkpt>
      <trkpt lat="48.6928" lon="1.90896">
        <ele>149</ele>
        <time>2024-03-14T16:17:50Z</time>
      </trkpt>
      <trkpt lat="48.69284" lon="1.90892">
        <ele>149</ele>
        <time>2024-03-14T16:17:51Z</time>
      </trkpt>
      <trkpt lat="48.69288" lon="1.90888">
        <ele>149</ele>
        <time>2024-03-14T16:17:52Z</time>
      </trkpt>
      <trkpt lat="48.69292" lon="1.90884">
        <ele>149</ele>
        <time>2024-03-14T16:17:53Z</time>
      </trkpt>
      <trkpt lat="48.69297" lon="1.9088">
        <ele>149</ele>
        <time>2024-03-14T16:17:54Z</time>
      </trkpt>
      <trkpt lat="48.69301" lon="1.90875">
        <ele>149</ele>
        <time>2024-03-14T16:17:55Z</time>
      </trkpt>
      <trkpt lat="48.69305" lon="1.9087">
        <ele>149</ele>
        <time>2024-03-14T16:17:56Z</time>
      </trkpt>
      <trkpt lat="48.6931" lon="1.90865">
        <ele>149</ele>
        <time>2024-03-14T16:17:57Z</time>
      </trkpt>
      <trkpt lat="48.69314" lon="1.9086">
        <ele>149</ele>
        <time>2024-03-14T16:17:58Z</time>
      </trkpt>
      <trkpt lat="48.69318" lon="1.90855">
        <ele>149</ele>
        <time>2024-03-14T16:17:59Z</time>
      </trkpt>
      <trkpt lat="48.69322" lon="1.9085">
        <ele>149.2</ele>
        <time>2024-03-14T16:18:00Z</time>
      </trkpt>
      <trkpt lat="48.69326" lon="1.90844">
        <ele>149.4</ele>
        <time>2024-03-14T16:18:01Z</time>
      </trkpt>
      <trkpt lat="48.6933" lon="1.90839">
        <ele>149.4</ele>
        <time>2024-03-14T16:18:02Z</time>
      </trkpt>
      <trkpt lat="48.69334" lon="1.90833">
        <ele>149.4</ele>
        <time>2024-03-14T16:18:03Z</time>
      </trkpt>
      <trkpt lat="48.69339" lon="1.90828">
        <ele>149.4</ele>
        <time>2024-03-14T16:18:04Z</time>
      </trkpt>
      <trkpt lat="48.69343" lon="1.90823">
        <ele>149.2</ele>
        <time>2024-03-14T16:18:05Z</time>
      </trkpt>
      <trkpt lat="48.69348" lon="1.90819">
        <ele>149.2</ele>
        <time>2024-03-14T16:18:06Z</time>
      </trkpt>
      <trkpt lat="48.69353" lon="1.90815">
        <ele>149.2</ele>
        <time>2024-03-14T16:18:07Z</time>
      </trkpt>
      <trkpt lat="48.69357" lon="1.90811">
        <ele>149.8</ele>
        <time>2024-03-14T16:18:08Z</time>
      </trkpt>
      <trkpt lat="48.69362" lon="1.90807">
        <ele>150.4</ele>
        <time>2024-03-14T16:18:09Z</time>
      </trkpt>
      <trkpt lat="48.69367" lon="1.90805">
        <ele>150.4</ele>
        <time>2024-03-14T16:18:10Z</time>
      </trkpt>
      <trkpt lat="48.69371" lon="1.90802">
        <ele>150.4</ele>
        <time>2024-03-14T16:18:11Z</time>
      </trkpt>
      <trkpt lat="48.69376" lon="1.908">
        <ele>151.2</ele>
        <time>2024-03-14T16:18:12Z</time>
      </trkpt>
      <trkpt lat="48.6938" lon="1.90798">
        <ele>151</ele>
        <time>2024-03-14T16:18:13Z</time>
      </trkpt>
      <trkpt lat="48.69384" lon="1.90796">
        <ele>151</ele>
        <time>2024-03-14T16:18:14Z</time>
      </trkpt>
      <trkpt lat="48.69389" lon="1.90795">
        <ele>151</ele>
        <time>2024-03-14T16:18:15Z</time>
      </trkpt>
      <trkpt lat="48.69395" lon="1.90794">
        <ele>151</ele>
        <time>2024-03-14T16:18:16Z</time>
      </trkpt>
      <trkpt lat="48.69401" lon="1.90793">
        <ele>150.8</ele>
        <time>2024-03-14T16:18:17Z</time>
      </trkpt>
      <trkpt lat="48.69406" lon="1.90793">
        <ele>150.8</ele>
        <time>2024-03-14T16:18:18Z</time>
      </trkpt>
      <trkpt lat="48.69412" lon="1.90792">
        <ele>150.8</ele>
        <time>2024-03-14T16:18:19Z</time>
      </trkpt>
      <trkpt lat="48.69418" lon="1.9079">
        <ele>149.8</ele>
        <time>2024-03-14T16:18:20Z</time>
      </trkpt>
      <trkpt lat="48.69424" lon="1.9079">
        <ele>149.2</ele>
        <time>2024-03-14T16:18:21Z</time>
      </trkpt>
      <trkpt lat="48.6943" lon="1.9079">
        <ele>149.2</ele>
        <time>2024-03-14T16:18:22Z</time>
      </trkpt>
      <trkpt lat="48.69437" lon="1.90789">
        <ele>149.2</ele>
        <time>2024-03-14T16:18:23Z</time>
      </trkpt>
      <trkpt lat="48.69444" lon="1.90789">
        <ele>148.8</ele>
        <time>2024-03-14T16:18:24Z</time>
      </trkpt>
      <trkpt lat="48.69451" lon="1.90789">
        <ele>147.8</ele>
        <time>2024-03-14T16:18:25Z</time>
      </trkpt>
      <trkpt lat="48.69458" lon="1.90788">
        <ele>147.8</ele>
        <time>2024-03-14T16:18:26Z</time>
      </trkpt>
      <trkpt lat="48.69465" lon="1.90786">
        <ele>147.8</ele>
        <time>2024-03-14T16:18:27Z</time>
      </trkpt>
      <trkpt lat="48.69473" lon="1.90783">
        <ele>147.4</ele>
        <time>2024-03-14T16:18:28Z</time>
      </trkpt>
      <trkpt lat="48.6948" lon="1.90779">
        <ele>147.2</ele>
        <time>2024-03-14T16:18:29Z</time>
      </trkpt>
      <trkpt lat="48.69487" lon="1.90774">
        <ele>147.2</ele>
        <time>2024-03-14T16:18:30Z</time>
      </trkpt>
      <trkpt lat="48.69494" lon="1.90767">
        <ele>147.2</ele>
        <time>2024-03-14T16:18:31Z</time>
      </trkpt>
      <trkpt lat="48.69502" lon="1.90761">
        <ele>146.2</ele>
        <time>2024-03-14T16:18:32Z</time>
      </trkpt>
      <trkpt lat="48.6951" lon="1.90754">
        <ele>145.4</ele>
        <time>2024-03-14T16:18:33Z</time>
      </trkpt>
      <trkpt lat="48.69518" lon="1.90748">
        <ele>145.4</ele>
        <time>2024-03-14T16:18:34Z</time>
      </trkpt>
      <trkpt lat="48.69528" lon="1.90744">
        <ele>145.4</ele>
        <time>2024-03-14T16:18:35Z</time>
      </trkpt>
      <trkpt lat="48.69536" lon="1.90737">
        <ele>144.4</ele>
        <time>2024-03-14T16:18:36Z</time>
      </trkpt>
      <trkpt lat="48.69545" lon="1.90729">
        <ele>142.8</ele>
        <time>2024-03-14T16:18:37Z</time>
      </trkpt>
      <trkpt lat="48.69554" lon="1.90721">
        <ele>142.8</ele>
        <time>2024-03-14T16:18:38Z</time>
      </trkpt>
      <trkpt lat="48.69562" lon="1.90713">
        <ele>142.8</ele>
        <time>2024-03-14T16:18:39Z</time>
      </trkpt>
      <trkpt lat="48.69572" lon="1.90705">
        <ele>142.2</ele>
        <time>2024-03-14T16:18:40Z</time>
      </trkpt>
      <trkpt lat="48.6958" lon="1.90694">
        <ele>141</ele>
        <time>2024-03-14T16:18:41Z</time>
      </trkpt>
      <trkpt lat="48.69587" lon="1.90684">
        <ele>141</ele>
        <time>2024-03-14T16:18:42Z</time>
      </trkpt>
      <trkpt lat="48.69594" lon="1.90672">
        <ele>141</ele>
        <time>2024-03-14T16:18:43Z</time>
      </trkpt>
      <trkpt lat="48.69602" lon="1.90663">
        <ele>142</ele>
        <time>2024-03-14T16:18:44Z</time>
      </trkpt>
      <trkpt lat="48.69609" lon="1.90653">
        <ele>142.6</ele>
        <time>2024-03-14T16:18:45Z</time>
      </trkpt>
      <trkpt lat="48.69615" lon="1.90643">
        <ele>142.6</ele>
        <time>2024-03-14T16:18:46Z</time>
      </trkpt>
      <trkpt lat="48.69621" lon="1.90634">
        <ele>142.6</ele>
        <time>2024-03-14T16:18:47Z</time>
      </trkpt>
      <trkpt lat="48.69626" lon="1.90624">
        <ele>142.6</ele>
        <time>2024-03-14T16:18:48Z</time>
      </trkpt>
      <trkpt lat="48.69632" lon="1.90613">
        <ele>144.2</ele>
        <time>2024-03-14T16:18:49Z</time>
      </trkpt>
      <trkpt lat="48.69638" lon="1.90605">
        <ele>144.2</ele>
        <time>2024-03-14T16:18:50Z</time>
      </trkpt>
      <trkpt lat="48.69643" lon="1.90598">
        <ele>144.2</ele>
        <time>2024-03-14T16:18:51Z</time>
      </trkpt>
      <trkpt lat="48.69648" lon="1.9059">
        <ele>144.2</ele>
        <time>2024-03-14T16:18:52Z</time>
      </trkpt>
      <trkpt lat="48.69652" lon="1.90581">
        <ele>145.8</ele>
        <time>2024-03-14T16:18:53Z</time>
      </trkpt>
      <trkpt lat="48.69657" lon="1.90573">
        <ele>145.8</ele>
        <time>2024-03-14T16:18:54Z</time>
      </trkpt>
      <trkpt lat="48.69661" lon="1.90566">
        <ele>145.8</ele>
        <time>2024-03-14T16:18:55Z</time>
      </trkpt>
      <trkpt lat="48.69667" lon="1.90561">
        <ele>146.8</ele>
        <time>2024-03-14T16:18:56Z</time>
      </trkpt>
      <trkpt lat="48.69671" lon="1.90556">
        <ele>147.6</ele>
        <time>2024-03-14T16:18:57Z</time>
      </trkpt>
      <trkpt lat="48.69676" lon="1.90551">
        <ele>147.6</ele>
        <time>2024-03-14T16:18:58Z</time>
      </trkpt>
      <trkpt lat="48.6968" lon="1.90547">
        <ele>147.6</ele>
        <time>2024-03-14T16:18:59Z</time>
      </trkpt>
      <trkpt lat="48.69685" lon="1.90541">
        <ele>148</ele>
        <time>2024-03-14T16:19:00Z</time>
      </trkpt>
      <trkpt lat="48.69689" lon="1.90537">
        <ele>148.2</ele>
        <time>2024-03-14T16:19:01Z</time>
      </trkpt>
      <trkpt lat="48.69693" lon="1.90533">
        <ele>148.2</ele>
        <time>2024-03-14T16:19:02Z</time>
      </trkpt>
      <trkpt lat="48.69697" lon="1.90528">
        <ele>148.2</ele>
        <time>2024-03-14T16:19:03Z</time>
      </trkpt>
      <trkpt lat="48.69702" lon="1.90523">
        <ele>149</ele>
        <time>2024-03-14T16:19:04Z</time>
      </trkpt>
      <trkpt lat="48.69706" lon="1.90518">
        <ele>149.2</ele>
        <time>2024-03-14T16:19:05Z</time>
      </trkpt>
      <trkpt lat="48.6971" lon="1.90513">
        <ele>149.2</ele>
        <time>2024-03-14T16:19:06Z</time>
      </trkpt>
      <trkpt lat="48.69714" lon="1.90511">
        <ele>149.2</ele>
        <time>2024-03-14T16:19:07Z</time>
      </trkpt>
      <trkpt lat="48.69718" lon="1.90506">
        <ele>149</ele>
        <time>2024-03-14T16:19:08Z</time>
      </trkpt>
      <trkpt lat="48.69722" lon="1.905">
        <ele>149.2</ele>
        <time>2024-03-14T16:19:09Z</time>
      </trkpt>
      <trkpt lat="48.69725" lon="1.90493">
        <ele>149.2</ele>
        <time>2024-03-14T16:19:10Z</time>
      </trkpt>
      <trkpt lat="48.69729" lon="1.90488">
        <ele>149.2</ele>
        <time>2024-03-14T16:19:11Z</time>
      </trkpt>
      <trkpt lat="48.69732" lon="1.90481">
        <ele>149.2</ele>
        <time>2024-03-14T16:19:12Z</time>
      </trkpt>
      <trkpt lat="48.69736" lon="1.90474">
        <ele>149.2</ele>
        <time>2024-03-14T16:19:13Z</time>
      </trkpt>
      <trkpt lat="48.69739" lon="1.90468">
        <ele>149.2</ele>
        <time>2024-03-14T16:19:14Z</time>
      </trkpt>
      <trkpt lat="48.69742" lon="1.9046">
        <ele>149.2</ele>
        <time>2024-03-14T16:19:15Z</time>
      </trkpt>
      <trkpt lat="48.69745" lon="1.90452">
        <ele>149.2</ele>
        <time>2024-03-14T16:19:16Z</time>
      </trkpt>
      <trkpt lat="48.69749" lon="1.90446">
        <ele>148.8</ele>
        <time>2024-03-14T16:19:17Z</time>
      </trkpt>
      <trkpt lat="48.69752" lon="1.90438">
        <ele>148.8</ele>
        <time>2024-03-14T16:19:18Z</time>
      </trkpt>
      <trkpt lat="48.69756" lon="1.9043">
        <ele>148.8</ele>
        <time>2024-03-14T16:19:19Z</time>
      </trkpt>
      <trkpt lat="48.69758" lon="1.90422">
        <ele>149.4</ele>
        <time>2024-03-14T16:19:20Z</time>
      </trkpt>
      <trkpt lat="48.69761" lon="1.90414">
        <ele>149.8</ele>
        <time>2024-03-14T16:19:21Z</time>
      </trkpt>
      <trkpt lat="48.69764" lon="1.90404">
        <ele>149.8</ele>
        <time>2024-03-14T16:19:22Z</time>
      </trkpt>
      <trkpt lat="48.69767" lon="1.90395">
        <ele>149.8</ele>
        <time>2024-03-14T16:19:23Z</time>
      </trkpt>
      <trkpt lat="48.6977" lon="1.90388">
        <ele>150.4</ele>
        <time>2024-03-14T16:19:24Z</time>
      </trkpt>
      <trkpt lat="48.69774" lon="1.90381">
        <ele>150.2</ele>
        <time>2024-03-14T16:19:25Z</time>
      </trkpt>
      <trkpt lat="48.69777" lon="1.90375">
        <ele>150.2</ele>
        <time>2024-03-14T16:19:26Z</time>
      </trkpt>
      <trkpt lat="48.6978" lon="1.90369">
        <ele>150.2</ele>
        <time>2024-03-14T16:19:27Z</time>
      </trkpt>
      <trkpt lat="48.69783" lon="1.90366">
        <ele>151.2</ele>
        <time>2024-03-14T16:19:28Z</time>
      </trkpt>
      <trkpt lat="48.69786" lon="1.90357">
        <ele>151.2</ele>
        <time>2024-03-14T16:19:29Z</time>
      </trkpt>
      <trkpt lat="48.69789" lon="1.90349">
        <ele>151.2</ele>
        <time>2024-03-14T16:19:30Z</time>
      </trkpt>
      <trkpt lat="48.69793" lon="1.90343">
        <ele>151.2</ele>
        <time>2024-03-14T16:19:31Z</time>
      </trkpt>
      <trkpt lat="48.69796" lon="1.90335">
        <ele>151.2</ele>
        <time>2024-03-14T16:19:32Z</time>
      </trkpt>
      <trkpt lat="48.69799" lon="1.90327">
        <ele>152</ele>
        <time>2024-03-14T16:19:33Z</time>
      </trkpt>
      <trkpt lat="48.69802" lon="1.90321">
        <ele>152</ele>
        <time>2024-03-14T16:19:34Z</time>
      </trkpt>
      <trkpt lat="48.69806" lon="1.90313">
        <ele>152</ele>
        <time>2024-03-14T16:19:35Z</time>
      </trkpt>
      <trkpt lat="48.6981" lon="1.90305">
        <ele>152</ele>
        <time>2024-03-14T16:19:36Z</time>
      </trkpt>
      <trkpt lat="48.69814" lon="1.90298">
        <ele>151.6</ele>
        <time>2024-03-14T16:19:37Z</time>
      </trkpt>
      <trkpt lat="48.69818" lon="1.90292">
        <ele>151.6</ele>
        <time>2024-03-14T16:19:38Z</time>
      </trkpt>
      <trkpt lat="48.69822" lon="1.90283">
        <ele>151.6</ele>
        <time>2024-03-14T16:19:39Z</time>
      </trkpt>
      <trkpt lat="48.69825" lon="1.90273">
        <ele>150.8</ele>
        <time>2024-03-14T16:19:40Z</time>
      </trkpt>
      <trkpt lat="48.69828" lon="1.90263">
        <ele>150.6</ele>
        <time>2024-03-14T16:19:41Z</time>
      </trkpt>
      <trkpt lat="48.6983" lon="1.90252">
        <ele>150.6</ele>
        <time>2024-03-14T16:19:42Z</time>
      </trkpt>
      <trkpt lat="48.69832" lon="1.90241">
        <ele>150.6</ele>
        <time>2024-03-14T16:19:43Z</time>
      </trkpt>
      <trkpt lat="48.69832" lon="1.90228">
        <ele>150.6</ele>
        <time>2024-03-14T16:19:44Z</time>
      </trkpt>
      <trkpt lat="48.69833" lon="1.90216">
        <ele>149.6</ele>
        <time>2024-03-14T16:19:45Z</time>
      </trkpt>
      <trkpt lat="48.69834" lon="1.90206">
        <ele>149.6</ele>
        <time>2024-03-14T16:19:46Z</time>
      </trkpt>
      <trkpt lat="48.69835" lon="1.90196">
        <ele>149.6</ele>
        <time>2024-03-14T16:19:47Z</time>
      </trkpt>
      <trkpt lat="48.69836" lon="1.90186">
        <ele>148.6</ele>
        <time>2024-03-14T16:19:48Z</time>
      </trkpt>
      <trkpt lat="48.69837" lon="1.90176">
        <ele>148.8</ele>
        <time>2024-03-14T16:19:49Z</time>
      </trkpt>
      <trkpt lat="48.69838" lon="1.90165">
        <ele>148.8</ele>
        <time>2024-03-14T16:19:50Z</time>
      </trkpt>
      <trkpt lat="48.69839" lon="1.90153">
        <ele>148.8</ele>
        <time>2024-03-14T16:19:51Z</time>
      </trkpt>
      <trkpt lat="48.69839" lon="1.9014">
        <ele>148.4</ele>
        <time>2024-03-14T16:19:52Z</time>
      </trkpt>
      <trkpt lat="48.69839" lon="1.90129">
        <ele>148.2</ele>
        <time>2024-03-14T16:19:53Z</time>
      </trkpt>
      <trkpt lat="48.6984" lon="1.90117">
        <ele>148.2</ele>
        <time>2024-03-14T16:19:54Z</time>
      </trkpt>
      <trkpt lat="48.69841" lon="1.90104">
        <ele>148.2</ele>
        <time>2024-03-14T16:19:55Z</time>
      </trkpt>
      <trkpt lat="48.69841" lon="1.90091">
        <ele>147.2</ele>
        <time>2024-03-14T16:19:56Z</time>
      </trkpt>
      <trkpt lat="48.69842" lon="1.90078">
        <ele>145</ele>
        <time>2024-03-14T16:19:57Z</time>
      </trkpt>
      <trkpt lat="48.69842" lon="1.90063">
        <ele>145</ele>
        <time>2024-03-14T16:19:58Z</time>
      </trkpt>
      <trkpt lat="48.69842" lon="1.90049">
        <ele>145</ele>
        <time>2024-03-14T16:19:59Z</time>
      </trkpt>
      <trkpt lat="48.69843" lon="1.90035">
        <ele>144</ele>
        <time>2024-03-14T16:20:00Z</time>
      </trkpt>
      <trkpt lat="48.69843" lon="1.90021">
        <ele>144</ele>
        <time>2024-03-14T16:20:01Z</time>
      </trkpt>
      <trkpt lat="48.69844" lon="1.90007">
        <ele>144</ele>
        <time>2024-03-14T16:20:02Z</time>
      </trkpt>
      <trkpt lat="48.69844" lon="1.89995">
        <ele>144</ele>
        <time>2024-03-14T16:20:03Z</time>
      </trkpt>
      <trkpt lat="48.69845" lon="1.89982">
        <ele>144</ele>
        <time>2024-03-14T16:20:04Z</time>
      </trkpt>
      <trkpt lat="48.69845" lon="1.89969">
        <ele>143.2</ele>
        <time>2024-03-14T16:20:05Z</time>
      </trkpt>
      <trkpt lat="48.69845" lon="1.89957">
        <ele>143.2</ele>
        <time>2024-03-14T16:20:06Z</time>
      </trkpt>
      <trkpt lat="48.69844" lon="1.89944">
        <ele>143.2</ele>
        <time>2024-03-14T16:20:07Z</time>
      </trkpt>
      <trkpt lat="48.69843" lon="1.8993">
        <ele>143.2</ele>
        <time>2024-03-14T16:20:08Z</time>
      </trkpt>
      <trkpt lat="48.69841" lon="1.89917">
        <ele>143.4</ele>
        <time>2024-03-14T16:20:09Z</time>
      </trkpt>
      <trkpt lat="48.69838" lon="1.89904">
        <ele>143.4</ele>
        <time>2024-03-14T16:20:10Z</time>
      </trkpt>
      <trkpt lat="48.69835" lon="1.89891">
        <ele>143.4</ele>
        <time>2024-03-14T16:20:11Z</time>
      </trkpt>
      <trkpt lat="48.69833" lon="1.89879">
        <ele>143.8</ele>
        <time>2024-03-14T16:20:12Z</time>
      </trkpt>
      <trkpt lat="48.6983" lon="1.89867">
        <ele>144.2</ele>
        <time>2024-03-14T16:20:13Z</time>
      </trkpt>
      <trkpt lat="48.69827" lon="1.89856">
        <ele>144.2</ele>
        <time>2024-03-14T16:20:14Z</time>
      </trkpt>
      <trkpt lat="48.69824" lon="1.89843">
        <ele>144.2</ele>
        <time>2024-03-14T16:20:15Z</time>
      </trkpt>
      <trkpt lat="48.69821" lon="1.89832">
        <ele>144.2</ele>
        <time>2024-03-14T16:20:16Z</time>
      </trkpt>
      <trkpt lat="48.69818" lon="1.89821">
        <ele>144.2</ele>
        <time>2024-03-14T16:20:17Z</time>
      </trkpt>
      <trkpt lat="48.69815" lon="1.8981">
        <ele>144.2</ele>
        <time>2024-03-14T16:20:18Z</time>
      </trkpt>
      <trkpt lat="48.69812" lon="1.89799">
        <ele>144.2</ele>
        <time>2024-03-14T16:20:19Z</time>
      </trkpt>
      <trkpt lat="48.69809" lon="1.89789">
        <ele>144.2</ele>
        <time>2024-03-14T16:20:20Z</time>
      </trkpt>
      <trkpt lat="48.69807" lon="1.89778">
        <ele>144.4</ele>
        <time>2024-03-14T16:20:21Z</time>
      </trkpt>
      <trkpt lat="48.69804" lon="1.89768">
        <ele>144.4</ele>
        <time>2024-03-14T16:20:22Z</time>
      </trkpt>
      <trkpt lat="48.69802" lon="1.89759">
        <ele>144.4</ele>
        <time>2024-03-14T16:20:23Z</time>
      </trkpt>
      <trkpt lat="48.69799" lon="1.89749">
        <ele>145.2</ele>
        <time>2024-03-14T16:20:24Z</time>
      </trkpt>
      <trkpt lat="48.69797" lon="1.89739">
        <ele>145.4</ele>
        <time>2024-03-14T16:20:25Z</time>
      </trkpt>
      <trkpt lat="48.69796" lon="1.89729">
        <ele>145.4</ele>
        <time>2024-03-14T16:20:26Z</time>
      </trkpt>
      <trkpt lat="48.69795" lon="1.8972">
        <ele>145.4</ele>
        <time>2024-03-14T16:20:27Z</time>
      </trkpt>
      <trkpt lat="48.69794" lon="1.8971">
        <ele>146</ele>
        <time>2024-03-14T16:20:28Z</time>
      </trkpt>
      <trkpt lat="48.69795" lon="1.89699">
        <ele>147</ele>
        <time>2024-03-14T16:20:29Z</time>
      </trkpt>
      <trkpt lat="48.69795" lon="1.89689">
        <ele>147</ele>
        <time>2024-03-14T16:20:30Z</time>
      </trkpt>
      <trkpt lat="48.69797" lon="1.8968">
        <ele>147</ele>
        <time>2024-03-14T16:20:31Z</time>
      </trkpt>
      <trkpt lat="48.69799" lon="1.89672">
        <ele>147</ele>
        <time>2024-03-14T16:20:32Z</time>
      </trkpt>
      <trkpt lat="48.69802" lon="1.89664">
        <ele>147.4</ele>
        <time>2024-03-14T16:20:33Z</time>
      </trkpt>
      <trkpt lat="48.69804" lon="1.89656">
        <ele>147.4</ele>
        <time>2024-03-14T16:20:34Z</time>
      </trkpt>
      <trkpt lat="48.69806" lon="1.89648">
        <ele>147.4</ele>
        <time>2024-03-14T16:20:35Z</time>
      </trkpt>
      <trkpt lat="48.69809" lon="1.8964">
        <ele>148.4</ele>
        <time>2024-03-14T16:20:36Z</time>
      </trkpt>
      <trkpt lat="48.69812" lon="1.89633">
        <ele>148.2</ele>
        <time>2024-03-14T16:20:37Z</time>
      </trkpt>
      <trkpt lat="48.69816" lon="1.89626">
        <ele>148.2</ele>
        <time>2024-03-14T16:20:38Z</time>
      </trkpt>
      <trkpt lat="48.6982" lon="1.8962">
        <ele>148.2</ele>
        <time>2024-03-14T16:20:39Z</time>
      </trkpt>
      <trkpt lat="48.69826" lon="1.89616">
        <ele>148.2</ele>
        <time>2024-03-14T16:20:40Z</time>
      </trkpt>
      <trkpt lat="48.69831" lon="1.89612">
        <ele>147.6</ele>
        <time>2024-03-14T16:20:41Z</time>
      </trkpt>
      <trkpt lat="48.69837" lon="1.89607">
        <ele>147.6</ele>
        <time>2024-03-14T16:20:42Z</time>
      </trkpt>
      <trkpt lat="48.69842" lon="1.89604">
        <ele>147.6</ele>
        <time>2024-03-14T16:20:43Z</time>
      </trkpt>
      <trkpt lat="48.69848" lon="1.89601">
        <ele>146.8</ele>
        <time>2024-03-14T16:20:44Z</time>
      </trkpt>
      <trkpt lat="48.69855" lon="1.89598">
        <ele>146.4</ele>
        <time>2024-03-14T16:20:45Z</time>
      </trkpt>
      <trkpt lat="48.69861" lon="1.89595">
        <ele>146.4</ele>
        <time>2024-03-14T16:20:46Z</time>
      </trkpt>
      <trkpt lat="48.69867" lon="1.89592">
        <ele>146.4</ele>
        <time>2024-03-14T16:20:47Z</time>
      </trkpt>
      <trkpt lat="48.69872" lon="1.8959">
        <ele>146.4</ele>
        <time>2024-03-14T16:20:48Z</time>
      </trkpt>
      <trkpt lat="48.69878" lon="1.89589">
        <ele>146.8</ele>
        <time>2024-03-14T16:20:49Z</time>
      </trkpt>
      <trkpt lat="48.69885" lon="1.89586">
        <ele>146.8</ele>
        <time>2024-03-14T16:20:50Z</time>
      </trkpt>
      <trkpt lat="48.69891" lon="1.89583">
        <ele>146.8</ele>
        <time>2024-03-14T16:20:51Z</time>
      </trkpt>
      <trkpt lat="48.69898" lon="1.89582">
        <ele>146.2</ele>
        <time>2024-03-14T16:20:52Z</time>
      </trkpt>
      <trkpt lat="48.69905" lon="1.8958">
        <ele>145.8</ele>
        <time>2024-03-14T16:20:53Z</time>
      </trkpt>
      <trkpt lat="48.69912" lon="1.89578">
        <ele>145.8</ele>
        <time>2024-03-14T16:20:54Z</time>
      </trkpt>
      <trkpt lat="48.69919" lon="1.89577">
        <ele>145.8</ele>
        <time>2024-03-14T16:20:55Z</time>
      </trkpt>
      <trkpt lat="48.69926" lon="1.89577">
        <ele>145.2</ele>
        <time>2024-03-14T16:20:56Z</time>
      </trkpt>
      <trkpt lat="48.69933" lon="1.89578">
        <ele>145.4</ele>
        <time>2024-03-14T16:20:57Z</time>
      </trkpt>
      <trkpt lat="48.69939" lon="1.89578">
        <ele>145.4</ele>
        <time>2024-03-14T16:20:58Z</time>
      </trkpt>
      <trkpt lat="48.69945" lon="1.8958">
        <ele>145.4</ele>
        <time>2024-03-14T16:20:59Z</time>
      </trkpt>
      <trkpt lat="48.69952" lon="1.89582">
        <ele>145.4</ele>
        <time>2024-03-14T16:21:00Z</time>
      </trkpt>
      <trkpt lat="48.69958" lon="1.89585">
        <ele>144.8</ele>
        <time>2024-03-14T16:21:01Z</time>
      </trkpt>
      <trkpt lat="48.69965" lon="1.89587">
        <ele>144.8</ele>
        <time>2024-03-14T16:21:02Z</time>
      </trkpt>
      <trkpt lat="48.69971" lon="1.89589">
        <ele>144.8</ele>
        <time>2024-03-14T16:21:03Z</time>
      </trkpt>
      <trkpt lat="48.69978" lon="1.89591">
        <ele>145.6</ele>
        <time>2024-03-14T16:21:04Z</time>
      </trkpt>
      <trkpt lat="48.69984" lon="1.89592">
        <ele>145.2</ele>
        <time>2024-03-14T16:21:05Z</time>
      </trkpt>
      <trkpt lat="48.69992" lon="1.89591">
        <ele>145.2</ele>
        <time>2024-03-14T16:21:06Z</time>
      </trkpt>
      <trkpt lat="48.69999" lon="1.8959">
        <ele>145.2</ele>
        <time>2024-03-14T16:21:07Z</time>
      </trkpt>
      <trkpt lat="48.70006" lon="1.89586">
        <ele>145.2</ele>
        <time>2024-03-14T16:21:08Z</time>
      </trkpt>
      <trkpt lat="48.70012" lon="1.89583">
        <ele>145.6</ele>
        <time>2024-03-14T16:21:09Z</time>
      </trkpt>
      <trkpt lat="48.70018" lon="1.89577">
        <ele>145.6</ele>
        <time>2024-03-14T16:21:10Z</time>
      </trkpt>
      <trkpt lat="48.70023" lon="1.8957">
        <ele>145.6</ele>
        <time>2024-03-14T16:21:11Z</time>
      </trkpt>
      <trkpt lat="48.70029" lon="1.89563">
        <ele>145.6</ele>
        <time>2024-03-14T16:21:12Z</time>
      </trkpt>
      <trkpt lat="48.70034" lon="1.89556">
        <ele>145.8</ele>
        <time>2024-03-14T16:21:13Z</time>
      </trkpt>
      <trkpt lat="48.70039" lon="1.89549">
        <ele>145.8</ele>
        <time>2024-03-14T16:21:14Z</time>
      </trkpt>
      <trkpt lat="48.70044" lon="1.89542">
        <ele>145.8</ele>
        <time>2024-03-14T16:21:15Z</time>
      </trkpt>
      <trkpt lat="48.70049" lon="1.89535">
        <ele>145.8</ele>
        <time>2024-03-14T16:21:16Z</time>
      </trkpt>
      <trkpt lat="48.70054" lon="1.89528">
        <ele>146.6</ele>
        <time>2024-03-14T16:21:17Z</time>
      </trkpt>
      <trkpt lat="48.70058" lon="1.89521">
        <ele>146.6</ele>
        <time>2024-03-14T16:21:18Z</time>
      </trkpt>
      <trkpt lat="48.70063" lon="1.89514">
        <ele>146.6</ele>
        <time>2024-03-14T16:21:19Z</time>
      </trkpt>
      <trkpt lat="48.70068" lon="1.89509">
        <ele>146.6</ele>
        <time>2024-03-14T16:21:20Z</time>
      </trkpt>
      <trkpt lat="48.70073" lon="1.89504">
        <ele>147.2</ele>
        <time>2024-03-14T16:21:21Z</time>
      </trkpt>
      <trkpt lat="48.70077" lon="1.89497">
        <ele>147.2</ele>
        <time>2024-03-14T16:21:22Z</time>
      </trkpt>
      <trkpt lat="48.7008" lon="1.89488">
        <ele>147.2</ele>
        <time>2024-03-14T16:21:23Z</time>
      </trkpt>
      <trkpt lat="48.70082" lon="1.8948">
        <ele>147</ele>
        <time>2024-03-14T16:21:24Z</time>
      </trkpt>
      <trkpt lat="48.70085" lon="1.89471">
        <ele>147.4</ele>
        <time>2024-03-14T16:21:25Z</time>
      </trkpt>
      <trkpt lat="48.70089" lon="1.89463">
        <ele>147.4</ele>
        <time>2024-03-14T16:21:26Z</time>
      </trkpt>
      <trkpt lat="48.70092" lon="1.89456">
        <ele>147.4</ele>
        <time>2024-03-14T16:21:27Z</time>
      </trkpt>
      <trkpt lat="48.70096" lon="1.89449">
        <ele>147.4</ele>
        <time>2024-03-14T16:21:28Z</time>
      </trkpt>
      <trkpt lat="48.70099" lon="1.89441">
        <ele>148</ele>
        <time>2024-03-14T16:21:29Z</time>
      </trkpt>
      <trkpt lat="48.70102" lon="1.89434">
        <ele>148</ele>
        <time>2024-03-14T16:21:30Z</time>
      </trkpt>
      <trkpt lat="48.70105" lon="1.89427">
        <ele>148</ele>
        <time>2024-03-14T16:21:31Z</time>
      </trkpt>
      <trkpt lat="48.70108" lon="1.8942">
        <ele>148.8</ele>
        <time>2024-03-14T16:21:32Z</time>
      </trkpt>
      <trkpt lat="48.70111" lon="1.89412">
        <ele>148.8</ele>
        <time>2024-03-14T16:21:33Z</time>
      </trkpt>
      <trkpt lat="48.70114" lon="1.89405">
        <ele>148.8</ele>
        <time>2024-03-14T16:21:34Z</time>
      </trkpt>
      <trkpt lat="48.70117" lon="1.89398">
        <ele>148.8</ele>
        <time>2024-03-14T16:21:35Z</time>
      </trkpt>
      <trkpt lat="48.7012" lon="1.8939">
        <ele>148.8</ele>
        <time>2024-03-14T16:21:36Z</time>
      </trkpt>
      <trkpt lat="48.70123" lon="1.89383">
        <ele>148.6</ele>
        <time>2024-03-14T16:21:37Z</time>
      </trkpt>
      <trkpt lat="48.70127" lon="1.89376">
        <ele>148.6</ele>
        <time>2024-03-14T16:21:38Z</time>
      </trkpt>
      <trkpt lat="48.7013" lon="1.89369">
        <ele>148.6</ele>
        <time>2024-03-14T16:21:39Z</time>
      </trkpt>
      <trkpt lat="48.70133" lon="1.89361">
        <ele>148.6</ele>
        <time>2024-03-14T16:21:40Z</time>
      </trkpt>
      <trkpt lat="48.70136" lon="1.89354">
        <ele>148.8</ele>
        <time>2024-03-14T16:21:41Z</time>
      </trkpt>
      <trkpt lat="48.70139" lon="1.89346">
        <ele>148.8</ele>
        <time>2024-03-14T16:21:42Z</time>
      </trkpt>
      <trkpt lat="48.70142" lon="1.89339">
        <ele>148.8</ele>
        <time>2024-03-14T16:21:43Z</time>
      </trkpt>
      <trkpt lat="48.70145" lon="1.89331">
        <ele>148.8</ele>
        <time>2024-03-14T16:21:44Z</time>
      </trkpt>
      <trkpt lat="48.70148" lon="1.89323">
        <ele>149</ele>
        <time>2024-03-14T16:21:45Z</time>
      </trkpt>
      <trkpt lat="48.70151" lon="1.89315">
        <ele>149</ele>
        <time>2024-03-14T16:21:46Z</time>
      </trkpt>
      <trkpt lat="48.70154" lon="1.89307">
        <ele>149</ele>
        <time>2024-03-14T16:21:47Z</time>
      </trkpt>
      <trkpt lat="48.70158" lon="1.89299">
        <ele>148.8</ele>
        <time>2024-03-14T16:21:48Z</time>
      </trkpt>
      <trkpt lat="48.7016" lon="1.8929">
        <ele>148.6</ele>
        <time>2024-03-14T16:21:49Z</time>
      </trkpt>
      <trkpt lat="48.70163" lon="1.89282">
        <ele>148.6</ele>
        <time>2024-03-14T16:21:50Z</time>
      </trkpt>
      <trkpt lat="48.70166" lon="1.89273">
        <ele>148.6</ele>
        <time>2024-03-14T16:21:51Z</time>
      </trkpt>
      <trkpt lat="48.70169" lon="1.89263">
        <ele>148.6</ele>
        <time>2024-03-14T16:21:52Z</time>
      </trkpt>
      <trkpt lat="48.70171" lon="1.89253">
        <ele>148.2</ele>
        <time>2024-03-14T16:21:53Z</time>
      </trkpt>
      <trkpt lat="48.70174" lon="1.89243">
        <ele>148.2</ele>
        <time>2024-03-14T16:21:54Z</time>
      </trkpt>
      <trkpt lat="48.70177" lon="1.89233">
        <ele>148.2</ele>
        <time>2024-03-14T16:21:55Z</time>
      </trkpt>
      <trkpt lat="48.70179" lon="1.89223">
        <ele>147.2</ele>
        <time>2024-03-14T16:21:56Z</time>
      </trkpt>
      <trkpt lat="48.70182" lon="1.89212">
        <ele>146.8</ele>
        <time>2024-03-14T16:21:57Z</time>
      </trkpt>
      <trkpt lat="48.70185" lon="1.89202">
        <ele>146.8</ele>
        <time>2024-03-14T16:21:58Z</time>
      </trkpt>
      <trkpt lat="48.70187" lon="1.89191">
        <ele>146.8</ele>
        <time>2024-03-14T16:21:59Z</time>
      </trkpt>
      <trkpt lat="48.7019" lon="1.8918">
        <ele>146.8</ele>
        <time>2024-03-14T16:22:00Z</time>
      </trkpt>
      <trkpt lat="48.70193" lon="1.8917">
        <ele>146.4</ele>
        <time>2024-03-14T16:22:01Z</time>
      </trkpt>
      <trkpt lat="48.70196" lon="1.89159">
        <ele>146.4</ele>
        <time>2024-03-14T16:22:02Z</time>
      </trkpt>
      <trkpt lat="48.70198" lon="1.89148">
        <ele>146.4</ele>
        <time>2024-03-14T16:22:03Z</time>
      </trkpt>
      <trkpt lat="48.70201" lon="1.89138">
        <ele>146.4</ele>
        <time>2024-03-14T16:22:04Z</time>
      </trkpt>
      <trkpt lat="48.70204" lon="1.89129">
        <ele>146.2</ele>
        <time>2024-03-14T16:22:05Z</time>
      </trkpt>
      <trkpt lat="48.70207" lon="1.89119">
        <ele>146.2</ele>
        <time>2024-03-14T16:22:06Z</time>
      </trkpt>
      <trkpt lat="48.70209" lon="1.89109">
        <ele>146.2</ele>
        <time>2024-03-14T16:22:07Z</time>
      </trkpt>
      <trkpt lat="48.70212" lon="1.89099">
        <ele>146.2</ele>
        <time>2024-03-14T16:22:08Z</time>
      </trkpt>
      <trkpt lat="48.70215" lon="1.89089">
        <ele>146</ele>
        <time>2024-03-14T16:22:09Z</time>
      </trkpt>
      <trkpt lat="48.70218" lon="1.8908">
        <ele>146</ele>
        <time>2024-03-14T16:22:10Z</time>
      </trkpt>
      <trkpt lat="48.70221" lon="1.8907">
        <ele>146</ele>
        <time>2024-03-14T16:22:11Z</time>
      </trkpt>
      <trkpt lat="48.70224" lon="1.89061">
        <ele>146</ele>
        <time>2024-03-14T16:22:12Z</time>
      </trkpt>
      <trkpt lat="48.70227" lon="1.89052">
        <ele>147</ele>
        <time>2024-03-14T16:22:13Z</time>
      </trkpt>
      <trkpt lat="48.7023" lon="1.89043">
        <ele>147</ele>
        <time>2024-03-14T16:22:14Z</time>
      </trkpt>
      <trkpt lat="48.70233" lon="1.89033">
        <ele>147</ele>
        <time>2024-03-14T16:22:15Z</time>
      </trkpt>
      <trkpt lat="48.70236" lon="1.89024">
        <ele>147</ele>
        <time>2024-03-14T16:22:16Z</time>
      </trkpt>
      <trkpt lat="48.70238" lon="1.89014">
        <ele>146.6</ele>
        <time>2024-03-14T16:22:17Z</time>
      </trkpt>
      <trkpt lat="48.70241" lon="1.89003">
        <ele>146.6</ele>
        <time>2024-03-14T16:22:18Z</time>
      </trkpt>
      <trkpt lat="48.70243" lon="1.88992">
        <ele>146.6</ele>
        <time>2024-03-14T16:22:19Z</time>
      </trkpt>
      <trkpt lat="48.70244" lon="1.88982">
        <ele>146.6</ele>
        <time>2024-03-14T16:22:20Z</time>
      </trkpt>
      <trkpt lat="48.70244" lon="1.88971">
        <ele>146.6</ele>
        <time>2024-03-14T16:22:21Z</time>
      </trkpt>
      <trkpt lat="48.70244" lon="1.8896">
        <ele>146.6</ele>
        <time>2024-03-14T16:22:22Z</time>
      </trkpt>
      <trkpt lat="48.70244" lon="1.8895">
        <ele>146.6</ele>
        <time>2024-03-14T16:22:23Z</time>
      </trkpt>
      <trkpt lat="48.70243" lon="1.8894">
        <ele>147.2</ele>
        <time>2024-03-14T16:22:24Z</time>
      </trkpt>
      <trkpt lat="48.70243" lon="1.88929">
        <ele>147.4</ele>
        <time>2024-03-14T16:22:25Z</time>
      </trkpt>
      <trkpt lat="48.70243" lon="1.88919">
        <ele>147.4</ele>
        <time>2024-03-14T16:22:26Z</time>
      </trkpt>
      <trkpt lat="48.70242" lon="1.88909">
        <ele>147.4</ele>
        <time>2024-03-14T16:22:27Z</time>
      </trkpt>
      <trkpt lat="48.70241" lon="1.88899">
        <ele>147.8</ele>
        <time>2024-03-14T16:22:28Z</time>
      </trkpt>
      <trkpt lat="48.7024" lon="1.88887">
        <ele>147</ele>
        <time>2024-03-14T16:22:29Z</time>
      </trkpt>
      <trkpt lat="48.70239" lon="1.88877">
        <ele>147</ele>
        <time>2024-03-14T16:22:30Z</time>
      </trkpt>
      <trkpt lat="48.70238" lon="1.88868">
        <ele>147</ele>
        <time>2024-03-14T16:22:31Z</time>
      </trkpt>
      <trkpt lat="48.70238" lon="1.88859">
        <ele>147</ele>
        <time>2024-03-14T16:22:32Z</time>
      </trkpt>
      <trkpt lat="48.70237" lon="1.8885">
        <ele>148.4</ele>
        <time>2024-03-14T16:22:33Z</time>
      </trkpt>
      <trkpt lat="48.70236" lon="1.88841">
        <ele>148.4</ele>
        <time>2024-03-14T16:22:34Z</time>
      </trkpt>
      <trkpt lat="48.70235" lon="1.88833">
        <ele>148.4</ele>
        <time>2024-03-14T16:22:35Z</time>
      </trkpt>
      <trkpt lat="48.70234" lon="1.88825">
        <ele>148.4</ele>
        <time>2024-03-14T16:22:36Z</time>
      </trkpt>
      <trkpt lat="48.70234" lon="1.88818">
        <ele>150.2</ele>
        <time>2024-03-14T16:22:37Z</time>
      </trkpt>
      <trkpt lat="48.70233" lon="1.88811">
        <ele>150.2</ele>
        <time>2024-03-14T16:22:38Z</time>
      </trkpt>
      <trkpt lat="48.70233" lon="1.88804">
        <ele>150.2</ele>
        <time>2024-03-14T16:22:39Z</time>
      </trkpt>
      <trkpt lat="48.70233" lon="1.88797">
        <ele>151.2</ele>
        <time>2024-03-14T16:22:40Z</time>
      </trkpt>
      <trkpt lat="48.70233" lon="1.88791">
        <ele>152.4</ele>
        <time>2024-03-14T16:22:41Z</time>
      </trkpt>
      <trkpt lat="48.70233" lon="1.88784">
        <ele>152.4</ele>
        <time>2024-03-14T16:22:42Z</time>
      </trkpt>
      <trkpt lat="48.70233" lon="1.88778">
        <ele>152.4</ele>
        <time>2024-03-14T16:22:43Z</time>
      </trkpt>
      <trkpt lat="48.70233" lon="1.88771">
        <ele>152.4</ele>
        <time>2024-03-14T16:22:44Z</time>
      </trkpt>
      <trkpt lat="48.70234" lon="1.88765">
        <ele>152.8</ele>
        <time>2024-03-14T16:22:45Z</time>
      </trkpt>
      <trkpt lat="48.70234" lon="1.88758">
        <ele>152.8</ele>
        <time>2024-03-14T16:22:46Z</time>
      </trkpt>
      <trkpt lat="48.70234" lon="1.88752">
        <ele>152.8</ele>
        <time>2024-03-14T16:22:47Z</time>
      </trkpt>
      <trkpt lat="48.70235" lon="1.88745">
        <ele>153.8</ele>
        <time>2024-03-14T16:22:48Z</time>
      </trkpt>
      <trkpt lat="48.70235" lon="1.88738">
        <ele>154.6</ele>
        <time>2024-03-14T16:22:49Z</time>
      </trkpt>
      <trkpt lat="48.70235" lon="1.88732">
        <ele>154.6</ele>
        <time>2024-03-14T16:22:50Z</time>
      </trkpt>
      <trkpt lat="48.70236" lon="1.88725">
        <ele>154.6</ele>
        <time>2024-03-14T16:22:51Z</time>
      </trkpt>
      <trkpt lat="48.70236" lon="1.88718">
        <ele>155</ele>
        <time>2024-03-14T16:22:52Z</time>
      </trkpt>
      <trkpt lat="48.70237" lon="1.88711">
        <ele>155.2</ele>
        <time>2024-03-14T16:22:53Z</time>
      </trkpt>
      <trkpt lat="48.70237" lon="1.88704">
        <ele>155.2</ele>
        <time>2024-03-14T16:22:54Z</time>
      </trkpt>
      <trkpt lat="48.70238" lon="1.88698">
        <ele>155.2</ele>
        <time>2024-03-14T16:22:55Z</time>
      </trkpt>
      <trkpt lat="48.70239" lon="1.88692">
        <ele>155.2</ele>
        <time>2024-03-14T16:22:56Z</time>
      </trkpt>
      <trkpt lat="48.7024" lon="1.88685">
        <ele>156</ele>
        <time>2024-03-14T16:22:57Z</time>
      </trkpt>
      <trkpt lat="48.70241" lon="1.88678">
        <ele>156</ele>
        <time>2024-03-14T16:22:58Z</time>
      </trkpt>
      <trkpt lat="48.70242" lon="1.88672">
        <ele>156</ele>
        <time>2024-03-14T16:22:59Z</time>
      </trkpt>
      <trkpt lat="48.70243" lon="1.88665">
        <ele>156.4</ele>
        <time>2024-03-14T16:23:00Z</time>
      </trkpt>
      <trkpt lat="48.70244" lon="1.88659">
        <ele>156.2</ele>
        <time>2024-03-14T16:23:01Z</time>
      </trkpt>
      <trkpt lat="48.70245" lon="1.88652">
        <ele>156.2</ele>
        <time>2024-03-14T16:23:02Z</time>
      </trkpt>
      <trkpt lat="48.70246" lon="1.88645">
        <ele>156.2</ele>
        <time>2024-03-14T16:23:03Z</time>
      </trkpt>
      <trkpt lat="48.70247" lon="1.88638">
        <ele>156.2</ele>
        <time>2024-03-14T16:23:04Z</time>
      </trkpt>
      <trkpt lat="48.70248" lon="1.88631">
        <ele>156.6</ele>
        <time>2024-03-14T16:23:05Z</time>
      </trkpt>
      <trkpt lat="48.70249" lon="1.88624">
        <ele>156.6</ele>
        <time>2024-03-14T16:23:06Z</time>
      </trkpt>
      <trkpt lat="48.7025" lon="1.88616">
        <ele>156.6</ele>
        <time>2024-03-14T16:23:07Z</time>
      </trkpt>
      <trkpt lat="48.70251" lon="1.8861">
        <ele>156.2</ele>
        <time>2024-03-14T16:23:08Z</time>
      </trkpt>
      <trkpt lat="48.70252" lon="1.88603">
        <ele>156.2</ele>
        <time>2024-03-14T16:23:09Z</time>
      </trkpt>
      <trkpt lat="48.70253" lon="1.88596">
        <ele>156.2</ele>
        <time>2024-03-14T16:23:10Z</time>
      </trkpt>
      <trkpt lat="48.70254" lon="1.88589">
        <ele>156.2</ele>
        <time>2024-03-14T16:23:11Z</time>
      </trkpt>
      <trkpt lat="48.70255" lon="1.88582">
        <ele>156.2</ele>
        <time>2024-03-14T16:23:12Z</time>
      </trkpt>
      <trkpt lat="48.70255" lon="1.88575">
        <ele>156.2</ele>
        <time>2024-03-14T16:23:13Z</time>
      </trkpt>
      <trkpt lat="48.70256" lon="1.88569">
        <ele>156.2</ele>
        <time>2024-03-14T16:23:14Z</time>
      </trkpt>
      <trkpt lat="48.70257" lon="1.88562">
        <ele>156.2</ele>
        <time>2024-03-14T16:23:15Z</time>
      </trkpt>
      <trkpt lat="48.70257" lon="1.88555">
        <ele>157.2</ele>
        <time>2024-03-14T16:23:16Z</time>
      </trkpt>
      <trkpt lat="48.70258" lon="1.88548">
        <ele>157.8</ele>
        <time>2024-03-14T16:23:17Z</time>
      </trkpt>
      <trkpt lat="48.70258" lon="1.88542">
        <ele>157.8</ele>
        <time>2024-03-14T16:23:18Z</time>
      </trkpt>
      <trkpt lat="48.70258" lon="1.88538">
        <ele>157.8</ele>
        <time>2024-03-14T16:23:19Z</time>
      </trkpt>
      <trkpt lat="48.70257" lon="1.88536">
        <ele>158.6</ele>
        <time>2024-03-14T16:23:20Z</time>
      </trkpt>
      <trkpt lat="48.70257" lon="1.88534">
        <ele>158.8</ele>
        <time>2024-03-14T16:23:21Z</time>
      </trkpt>
      <trkpt lat="48.70257" lon="1.88533">
        <ele>158.8</ele>
        <time>2024-03-14T16:23:22Z</time>
      </trkpt>
      <trkpt lat="48.70257" lon="1.88533">
        <ele>158.8</ele>
        <time>2024-03-14T16:23:23Z</time>
      </trkpt>
      <trkpt lat="48.70257" lon="1.88533">
        <ele>158.8</ele>
        <time>2024-03-14T16:23:24Z</time>
      </trkpt>
      <trkpt lat="48.70256" lon="1.88531">
        <ele>158.8</ele>
        <time>2024-03-14T16:23:25Z</time>
      </trkpt>
      <trkpt lat="48.70255" lon="1.88527">
        <ele>158.8</ele>
        <time>2024-03-14T16:23:26Z</time>
      </trkpt>
      <trkpt lat="48.70253" lon="1.88524">
        <ele>158.8</ele>
        <time>2024-03-14T16:23:27Z</time>
      </trkpt>
      <trkpt lat="48.70251" lon="1.8852">
        <ele>158</ele>
        <time>2024-03-14T16:23:28Z</time>
      </trkpt>
      <trkpt lat="48.70249" lon="1.88516">
        <ele>158</ele>
        <time>2024-03-14T16:23:29Z</time>
      </trkpt>
      <trkpt lat="48.70247" lon="1.88511">
        <ele>158</ele>
        <time>2024-03-14T16:23:30Z</time>
      </trkpt>
      <trkpt lat="48.70246" lon="1.88505">
        <ele>158</ele>
        <time>2024-03-14T16:23:31Z</time>
      </trkpt>
      <trkpt lat="48.70246" lon="1.88498">
        <ele>157.4</ele>
        <time>2024-03-14T16:23:32Z</time>
      </trkpt>
      <trkpt lat="48.70246" lon="1.88491">
        <ele>156.6</ele>
        <time>2024-03-14T16:23:33Z</time>
      </trkpt>
      <trkpt lat="48.70247" lon="1.88483">
        <ele>156.6</ele>
        <time>2024-03-14T16:23:34Z</time>
      </trkpt>
      <trkpt lat="48.70247" lon="1.88476">
        <ele>156.6</ele>
        <time>2024-03-14T16:23:35Z</time>
      </trkpt>
      <trkpt lat="48.70248" lon="1.88468">
        <ele>156.6</ele>
        <time>2024-03-14T16:23:36Z</time>
      </trkpt>
      <trkpt lat="48.70249" lon="1.88459">
        <ele>156.2</ele>
        <time>2024-03-14T16:23:37Z</time>
      </trkpt>
      <trkpt lat="48.7025" lon="1.88451">
        <ele>156.2</ele>
        <time>2024-03-14T16:23:38Z</time>
      </trkpt>
      <trkpt lat="48.70251" lon="1.88441">
        <ele>156.2</ele>
        <time>2024-03-14T16:23:39Z</time>
      </trkpt>
      <trkpt lat="48.70253" lon="1.88432">
        <ele>156.2</ele>
        <time>2024-03-14T16:23:40Z</time>
      </trkpt>
      <trkpt lat="48.70254" lon="1.88422">
        <ele>154.6</ele>
        <time>2024-03-14T16:23:41Z</time>
      </trkpt>
      <trkpt lat="48.70254" lon="1.88412">
        <ele>154.6</ele>
        <time>2024-03-14T16:23:42Z</time>
      </trkpt>
      <trkpt lat="48.70255" lon="1.88401">
        <ele>154.6</ele>
        <time>2024-03-14T16:23:43Z</time>
      </trkpt>
      <trkpt lat="48.70255" lon="1.88389">
        <ele>153.6</ele>
        <time>2024-03-14T16:23:44Z</time>
      </trkpt>
      <trkpt lat="48.70256" lon="1.88377">
        <ele>152</ele>
        <time>2024-03-14T16:23:45Z</time>
      </trkpt>
      <trkpt lat="48.70255" lon="1.88365">
        <ele>152</ele>
        <time>2024-03-14T16:23:46Z</time>
      </trkpt>
      <trkpt lat="48.70254" lon="1.88352">
        <ele>152</ele>
        <time>2024-03-14T16:23:47Z</time>
      </trkpt>
      <trkpt lat="48.70253" lon="1.88339">
        <ele>151</ele>
        <time>2024-03-14T16:23:48Z</time>
      </trkpt>
      <trkpt lat="48.70251" lon="1.88326">
        <ele>148.8</ele>
        <time>2024-03-14T16:23:49Z</time>
      </trkpt>
      <trkpt lat="48.70249" lon="1.88313">
        <ele>148.8</ele>
        <time>2024-03-14T16:23:50Z</time>
      </trkpt>
      <trkpt lat="48.70248" lon="1.883">
        <ele>148.8</ele>
        <time>2024-03-14T16:23:51Z</time>
      </trkpt>
      <trkpt lat="48.70246" lon="1.88288">
        <ele>148.2</ele>
        <time>2024-03-14T16:23:52Z</time>
      </trkpt>
      <trkpt lat="48.70244" lon="1.88275">
        <ele>148</ele>
        <time>2024-03-14T16:23:53Z</time>
      </trkpt>
      <trkpt lat="48.70241" lon="1.88262">
        <ele>148</ele>
        <time>2024-03-14T16:23:54Z</time>
      </trkpt>
      <trkpt lat="48.70239" lon="1.8825">
        <ele>148</ele>
        <time>2024-03-14T16:23:55Z</time>
      </trkpt>
      <trkpt lat="48.70237" lon="1.88237">
        <ele>149</ele>
        <time>2024-03-14T16:23:56Z</time>
      </trkpt>
      <trkpt lat="48.70236" lon="1.88224">
        <ele>151</ele>
        <time>2024-03-14T16:23:57Z</time>
      </trkpt>
      <trkpt lat="48.70235" lon="1.88212">
        <ele>151</ele>
        <time>2024-03-14T16:23:58Z</time>
      </trkpt>
      <trkpt lat="48.70236" lon="1.88199">
        <ele>151</ele>
        <time>2024-03-14T16:23:59Z</time>
      </trkpt>
      <trkpt lat="48.70239" lon="1.88188">
        <ele>150.6</ele>
        <time>2024-03-14T16:24:00Z</time>
      </trkpt>
      <trkpt lat="48.70242" lon="1.88177">
        <ele>151</ele>
        <time>2024-03-14T16:24:01Z</time>
      </trkpt>
      <trkpt lat="48.70246" lon="1.88167">
        <ele>151</ele>
        <time>2024-03-14T16:24:02Z</time>
      </trkpt>
      <trkpt lat="48.70251" lon="1.88157">
        <ele>151</ele>
        <time>2024-03-14T16:24:03Z</time>
      </trkpt>
      <trkpt lat="48.70256" lon="1.88149">
        <ele>151.4</ele>
        <time>2024-03-14T16:24:04Z</time>
      </trkpt>
      <trkpt lat="48.7026" lon="1.8814">
        <ele>151.8</ele>
        <time>2024-03-14T16:24:05Z</time>
      </trkpt>
      <trkpt lat="48.70265" lon="1.88132">
        <ele>151.8</ele>
        <time>2024-03-14T16:24:06Z</time>
      </trkpt>
      <trkpt lat="48.70269" lon="1.88124">
        <ele>151.8</ele>
        <time>2024-03-14T16:24:07Z</time>
      </trkpt>
      <trkpt lat="48.70274" lon="1.88116">
        <ele>152.4</ele>
        <time>2024-03-14T16:24:08Z</time>
      </trkpt>
      <trkpt lat="48.70278" lon="1.88108">
        <ele>152</ele>
        <time>2024-03-14T16:24:09Z</time>
      </trkpt>
      <trkpt lat="48.70282" lon="1.881">
        <ele>152</ele>
        <time>2024-03-14T16:24:10Z</time>
      </trkpt>
      <trkpt lat="48.70287" lon="1.88092">
        <ele>152</ele>
        <time>2024-03-14T16:24:11Z</time>
      </trkpt>
      <trkpt lat="48.70291" lon="1.88085">
        <ele>152.8</ele>
        <time>2024-03-14T16:24:12Z</time>
      </trkpt>
      <trkpt lat="48.70296" lon="1.88077">
        <ele>152.8</ele>
        <time>2024-03-14T16:24:13Z</time>
      </trkpt>
      <trkpt lat="48.703" lon="1.88069">
        <ele>152.8</ele>
        <time>2024-03-14T16:24:14Z</time>
      </trkpt>
      <trkpt lat="48.70304" lon="1.88062">
        <ele>152.8</ele>
        <time>2024-03-14T16:24:15Z</time>
      </trkpt>
      <trkpt lat="48.70308" lon="1.88055">
        <ele>152.8</ele>
        <time>2024-03-14T16:24:16Z</time>
      </trkpt>
      <trkpt lat="48.70312" lon="1.88048">
        <ele>153.6</ele>
        <time>2024-03-14T16:24:17Z</time>
      </trkpt>
      <trkpt lat="48.70317" lon="1.8804">
        <ele>153.6</ele>
        <time>2024-03-14T16:24:18Z</time>
      </trkpt>
      <trkpt lat="48.70321" lon="1.88033">
        <ele>153.6</ele>
        <time>2024-03-14T16:24:19Z</time>
      </trkpt>
      <trkpt lat="48.70325" lon="1.88025">
        <ele>153.4</ele>
        <time>2024-03-14T16:24:20Z</time>
      </trkpt>
      <trkpt lat="48.70329" lon="1.88018">
        <ele>154</ele>
        <time>2024-03-14T16:24:21Z</time>
      </trkpt>
      <trkpt lat="48.70332" lon="1.8801">
        <ele>154</ele>
        <time>2024-03-14T16:24:22Z</time>
      </trkpt>
      <trkpt lat="48.70336" lon="1.88003">
        <ele>154</ele>
        <time>2024-03-14T16:24:23Z</time>
      </trkpt>
      <trkpt lat="48.7034" lon="1.87996">
        <ele>154</ele>
        <time>2024-03-14T16:24:24Z</time>
      </trkpt>
      <trkpt lat="48.70344" lon="1.87989">
        <ele>153.8</ele>
        <time>2024-03-14T16:24:25Z</time>
      </trkpt>
      <trkpt lat="48.70347" lon="1.87982">
        <ele>153.8</ele>
        <time>2024-03-14T16:24:26Z</time>
      </trkpt>
      <trkpt lat="48.70352" lon="1.87974">
        <ele>153.8</ele>
        <time>2024-03-14T16:24:27Z</time>
      </trkpt>
      <trkpt lat="48.70356" lon="1.87967">
        <ele>154</ele>
        <time>2024-03-14T16:24:28Z</time>
      </trkpt>
      <trkpt lat="48.7036" lon="1.87959">
        <ele>154.6</ele>
        <time>2024-03-14T16:24:29Z</time>
      </trkpt>
      <trkpt lat="48.70364" lon="1.87951">
        <ele>154.6</ele>
        <time>2024-03-14T16:24:30Z</time>
      </trkpt>
      <trkpt lat="48.70368" lon="1.87943">
        <ele>154.6</ele>
        <time>2024-03-14T16:24:31Z</time>
      </trkpt>
      <trkpt lat="48.70372" lon="1.87935">
        <ele>153.6</ele>
        <time>2024-03-14T16:24:32Z</time>
      </trkpt>
      <trkpt lat="48.70376" lon="1.87927">
        <ele>153.6</ele>
        <time>2024-03-14T16:24:33Z</time>
      </trkpt>
      <trkpt lat="48.70381" lon="1.87919">
        <ele>153.6</ele>
        <time>2024-03-14T16:24:34Z</time>
      </trkpt>
      <trkpt lat="48.70385" lon="1.87911">
        <ele>153.6</ele>
        <time>2024-03-14T16:24:35Z</time>
      </trkpt>
      <trkpt lat="48.7039" lon="1.87902">
        <ele>152.8</ele>
        <time>2024-03-14T16:24:36Z</time>
      </trkpt>
      <trkpt lat="48.70394" lon="1.87894">
        <ele>153.4</ele>
        <time>2024-03-14T16:24:37Z</time>
      </trkpt>
      <trkpt lat="48.70398" lon="1.87887">
        <ele>153.4</ele>
        <time>2024-03-14T16:24:38Z</time>
      </trkpt>
      <trkpt lat="48.70403" lon="1.87879">
        <ele>153.4</ele>
        <time>2024-03-14T16:24:39Z</time>
      </trkpt>
      <trkpt lat="48.70407" lon="1.87871">
        <ele>153.4</ele>
        <time>2024-03-14T16:24:40Z</time>
      </trkpt>
      <trkpt lat="48.70411" lon="1.87863">
        <ele>154</ele>
        <time>2024-03-14T16:24:41Z</time>
      </trkpt>
      <trkpt lat="48.70415" lon="1.87855">
        <ele>154</ele>
        <time>2024-03-14T16:24:42Z</time>
      </trkpt>
      <trkpt lat="48.70419" lon="1.87847">
        <ele>154</ele>
        <time>2024-03-14T16:24:43Z</time>
      </trkpt>
      <trkpt lat="48.70424" lon="1.8784">
        <ele>154</ele>
        <time>2024-03-14T16:24:44Z</time>
      </trkpt>
      <trkpt lat="48.70428" lon="1.87832">
        <ele>154</ele>
        <time>2024-03-14T16:24:45Z</time>
      </trkpt>
      <trkpt lat="48.70432" lon="1.87824">
        <ele>154</ele>
        <time>2024-03-14T16:24:46Z</time>
      </trkpt>
      <trkpt lat="48.70436" lon="1.87816">
        <ele>154</ele>
        <time>2024-03-14T16:24:47Z</time>
      </trkpt>
      <trkpt lat="48.7044" lon="1.87808">
        <ele>154</ele>
        <time>2024-03-14T16:24:48Z</time>
      </trkpt>
      <trkpt lat="48.70444" lon="1.878">
        <ele>154</ele>
        <time>2024-03-14T16:24:49Z</time>
      </trkpt>
      <trkpt lat="48.70448" lon="1.87792">
        <ele>154</ele>
        <time>2024-03-14T16:24:50Z</time>
      </trkpt>
      <trkpt lat="48.70452" lon="1.87784">
        <ele>154</ele>
        <time>2024-03-14T16:24:51Z</time>
      </trkpt>
      <trkpt lat="48.70456" lon="1.87776">
        <ele>154</ele>
        <time>2024-03-14T16:24:52Z</time>
      </trkpt>
      <trkpt lat="48.70461" lon="1.87769">
        <ele>154.2</ele>
        <time>2024-03-14T16:24:53Z</time>
      </trkpt>
      <trkpt lat="48.70465" lon="1.87761">
        <ele>154.2</ele>
        <time>2024-03-14T16:24:54Z</time>
      </trkpt>
      <trkpt lat="48.70468" lon="1.87754">
        <ele>154.2</ele>
        <time>2024-03-14T16:24:55Z</time>
      </trkpt>
      <trkpt lat="48.70473" lon="1.87746">
        <ele>154.6</ele>
        <time>2024-03-14T16:24:56Z</time>
      </trkpt>
      <trkpt lat="48.70477" lon="1.87738">
        <ele>154.4</ele>
        <time>2024-03-14T16:24:57Z</time>
      </trkpt>
      <trkpt lat="48.70481" lon="1.8773">
        <ele>154.4</ele>
        <time>2024-03-14T16:24:58Z</time>
      </trkpt>
      <trkpt lat="48.70485" lon="1.87722">
        <ele>154.4</ele>
        <time>2024-03-14T16:24:59Z</time>
      </trkpt>
      <trkpt lat="48.70489" lon="1.87714">
        <ele>154.4</ele>
        <time>2024-03-14T16:25:00Z</time>
      </trkpt>
      <trkpt lat="48.70493" lon="1.87706">
        <ele>154.6</ele>
        <time>2024-03-14T16:25:01Z</time>
      </trkpt>
      <trkpt lat="48.70498" lon="1.87698">
        <ele>154.6</ele>
        <time>2024-03-14T16:25:02Z</time>
      </trkpt>
      <trkpt lat="48.70502" lon="1.8769">
        <ele>154.6</ele>
        <time>2024-03-14T16:25:03Z</time>
      </trkpt>
      <trkpt lat="48.70506" lon="1.87682">
        <ele>154.6</ele>
        <time>2024-03-14T16:25:04Z</time>
      </trkpt>
      <trkpt lat="48.7051" lon="1.87674">
        <ele>154.2</ele>
        <time>2024-03-14T16:25:05Z</time>
      </trkpt>
      <trkpt lat="48.70514" lon="1.87666">
        <ele>154.2</ele>
        <time>2024-03-14T16:25:06Z</time>
      </trkpt>
      <trkpt lat="48.70519" lon="1.87659">
        <ele>154.2</ele>
        <time>2024-03-14T16:25:07Z</time>
      </trkpt>
      <trkpt lat="48.70523" lon="1.87651">
        <ele>154.2</ele>
        <time>2024-03-14T16:25:08Z</time>
      </trkpt>
      <trkpt lat="48.70527" lon="1.87644">
        <ele>154.6</ele>
        <time>2024-03-14T16:25:09Z</time>
      </trkpt>
      <trkpt lat="48.70531" lon="1.87636">
        <ele>154.6</ele>
        <time>2024-03-14T16:25:10Z</time>
      </trkpt>
      <trkpt lat="48.70535" lon="1.87629">
        <ele>154.6</ele>
        <time>2024-03-14T16:25:11Z</time>
      </trkpt>
      <trkpt lat="48.70539" lon="1.87622">
        <ele>155.4</ele>
        <time>2024-03-14T16:25:12Z</time>
      </trkpt>
      <trkpt lat="48.70543" lon="1.87615">
        <ele>156.2</ele>
        <time>2024-03-14T16:25:13Z</time>
      </trkpt>
      <trkpt lat="48.70546" lon="1.87607">
        <ele>156.2</ele>
        <time>2024-03-14T16:25:14Z</time>
      </trkpt>
      <trkpt lat="48.7055" lon="1.876">
        <ele>156.2</ele>
        <time>2024-03-14T16:25:15Z</time>
      </trkpt>
      <trkpt lat="48.70554" lon="1.87593">
        <ele>156.2</ele>
        <time>2024-03-14T16:25:16Z</time>
      </trkpt>
      <trkpt lat="48.70558" lon="1.87587">
        <ele>156.8</ele>
        <time>2024-03-14T16:25:17Z</time>
      </trkpt>
      <trkpt lat="48.70561" lon="1.8758">
        <ele>156.8</ele>
        <time>2024-03-14T16:25:18Z</time>
      </trkpt>
      <trkpt lat="48.70564" lon="1.87573">
        <ele>156.8</ele>
        <time>2024-03-14T16:25:19Z</time>
      </trkpt>
      <trkpt lat="48.70567" lon="1.87566">
        <ele>157.2</ele>
        <time>2024-03-14T16:25:20Z</time>
      </trkpt>
      <trkpt lat="48.7057" lon="1.87558">
        <ele>157</ele>
        <time>2024-03-14T16:25:21Z</time>
      </trkpt>
      <trkpt lat="48.70572" lon="1.8755">
        <ele>157</ele>
        <time>2024-03-14T16:25:22Z</time>
      </trkpt>
      <trkpt lat="48.70573" lon="1.87542">
        <ele>157</ele>
        <time>2024-03-14T16:25:23Z</time>
      </trkpt>
      <trkpt lat="48.70574" lon="1.87534">
        <ele>158</ele>
        <time>2024-03-14T16:25:24Z</time>
      </trkpt>
      <trkpt lat="48.70575" lon="1.87526">
        <ele>158.4</ele>
        <time>2024-03-14T16:25:25Z</time>
      </trkpt>
      <trkpt lat="48.70576" lon="1.87518">
        <ele>158.4</ele>
        <time>2024-03-14T16:25:26Z</time>
      </trkpt>
      <trkpt lat="48.70577" lon="1.8751">
        <ele>158.4</ele>
        <time>2024-03-14T16:25:27Z</time>
      </trkpt>
      <trkpt lat="48.70577" lon="1.87501">
        <ele>159.4</ele>
        <time>2024-03-14T16:25:28Z</time>
      </trkpt>
      <trkpt lat="48.70577" lon="1.87493">
        <ele>160.2</ele>
        <time>2024-03-14T16:25:29Z</time>
      </trkpt>
      <trkpt lat="48.70577" lon="1.87485">
        <ele>160.2</ele>
        <time>2024-03-14T16:25:30Z</time>
      </trkpt>
      <trkpt lat="48.70577" lon="1.87476">
        <ele>160.2</ele>
        <time>2024-03-14T16:25:31Z</time>
      </trkpt>
      <trkpt lat="48.70577" lon="1.87468">
        <ele>160.2</ele>
        <time>2024-03-14T16:25:32Z</time>
      </trkpt>
      <trkpt lat="48.70577" lon="1.8746">
        <ele>160.8</ele>
        <time>2024-03-14T16:25:33Z</time>
      </trkpt>
      <trkpt lat="48.70578" lon="1.87452">
        <ele>160.8</ele>
        <time>2024-03-14T16:25:34Z</time>
      </trkpt>
      <trkpt lat="48.70578" lon="1.87443">
        <ele>160.8</ele>
        <time>2024-03-14T16:25:35Z</time>
      </trkpt>
      <trkpt lat="48.70579" lon="1.87435">
        <ele>160.8</ele>
        <time>2024-03-14T16:25:36Z</time>
      </trkpt>
      <trkpt lat="48.70581" lon="1.87426">
        <ele>161.8</ele>
        <time>2024-03-14T16:25:37Z</time>
      </trkpt>
      <trkpt lat="48.70582" lon="1.87419">
        <ele>161.8</ele>
        <time>2024-03-14T16:25:38Z</time>
      </trkpt>
      <trkpt lat="48.70585" lon="1.87411">
        <ele>161.8</ele>
        <time>2024-03-14T16:25:39Z</time>
      </trkpt>
      <trkpt lat="48.70587" lon="1.87404">
        <ele>161.6</ele>
        <time>2024-03-14T16:25:40Z</time>
      </trkpt>
      <trkpt lat="48.70589" lon="1.87397">
        <ele>162</ele>
        <time>2024-03-14T16:25:41Z</time>
      </trkpt>
      <trkpt lat="48.70591" lon="1.8739">
        <ele>162</ele>
        <time>2024-03-14T16:25:42Z</time>
      </trkpt>
      <trkpt lat="48.70593" lon="1.87382">
        <ele>162</ele>
        <time>2024-03-14T16:25:43Z</time>
      </trkpt>
      <trkpt lat="48.70595" lon="1.87375">
        <ele>162</ele>
        <time>2024-03-14T16:25:44Z</time>
      </trkpt>
      <trkpt lat="48.70598" lon="1.87368">
        <ele>161.2</ele>
        <time>2024-03-14T16:25:45Z</time>
      </trkpt>
      <trkpt lat="48.706" lon="1.87361">
        <ele>161.2</ele>
        <time>2024-03-14T16:25:46Z</time>
      </trkpt>
      <trkpt lat="48.70603" lon="1.87354">
        <ele>161.2</ele>
        <time>2024-03-14T16:25:47Z</time>
      </trkpt>
      <trkpt lat="48.70605" lon="1.87347">
        <ele>161.2</ele>
        <time>2024-03-14T16:25:48Z</time>
      </trkpt>
      <trkpt lat="48.70607" lon="1.8734">
        <ele>161.8</ele>
        <time>2024-03-14T16:25:49Z</time>
      </trkpt>
      <trkpt lat="48.7061" lon="1.87333">
        <ele>161.8</ele>
        <time>2024-03-14T16:25:50Z</time>
      </trkpt>
      <trkpt lat="48.70612" lon="1.87325">
        <ele>161.8</ele>
        <time>2024-03-14T16:25:51Z</time>
      </trkpt>
      <trkpt lat="48.70614" lon="1.87318">
        <ele>162.2</ele>
        <time>2024-03-14T16:25:52Z</time>
      </trkpt>
      <trkpt lat="48.70616" lon="1.87311">
        <ele>162.6</ele>
        <time>2024-03-14T16:25:53Z</time>
      </trkpt>
      <trkpt lat="48.70619" lon="1.87304">
        <ele>162.6</ele>
        <time>2024-03-14T16:25:54Z</time>
      </trkpt>
      <trkpt lat="48.70621" lon="1.87297">
        <ele>162.6</ele>
        <time>2024-03-14T16:25:55Z</time>
      </trkpt>
      <trkpt lat="48.70624" lon="1.87289">
        <ele>163</ele>
        <time>2024-03-14T16:25:56Z</time>
      </trkpt>
      <trkpt lat="48.70626" lon="1.87281">
        <ele>163.2</ele>
        <time>2024-03-14T16:25:57Z</time>
      </trkpt>
      <trkpt lat="48.70628" lon="1.87274">
        <ele>163.2</ele>
        <time>2024-03-14T16:25:58Z</time>
      </trkpt>
      <trkpt lat="48.7063" lon="1.87267">
        <ele>163.2</ele>
        <time>2024-03-14T16:25:59Z</time>
      </trkpt>
      <trkpt lat="48.70633" lon="1.8726">
        <ele>163.4</ele>
        <time>2024-03-14T16:26:00Z</time>
      </trkpt>
      <trkpt lat="48.70635" lon="1.87252">
        <ele>163.8</ele>
        <time>2024-03-14T16:26:01Z</time>
      </trkpt>
      <trkpt lat="48.70637" lon="1.87244">
        <ele>163.8</ele>
        <time>2024-03-14T16:26:02Z</time>
      </trkpt>
      <trkpt lat="48.70639" lon="1.87236">
        <ele>163.8</ele>
        <time>2024-03-14T16:26:03Z</time>
      </trkpt>
      <trkpt lat="48.70642" lon="1.87229">
        <ele>163.6</ele>
        <time>2024-03-14T16:26:04Z</time>
      </trkpt>
      <trkpt lat="48.70644" lon="1.87221">
        <ele>163.4</ele>
        <time>2024-03-14T16:26:05Z</time>
      </trkpt>
      <trkpt lat="48.70647" lon="1.87213">
        <ele>163.4</ele>
        <time>2024-03-14T16:26:06Z</time>
      </trkpt>
      <trkpt lat="48.70649" lon="1.87205">
        <ele>163.4</ele>
        <time>2024-03-14T16:26:07Z</time>
      </trkpt>
      <trkpt lat="48.70651" lon="1.87197">
        <ele>163.4</ele>
        <time>2024-03-14T16:26:08Z</time>
      </trkpt>
      <trkpt lat="48.70654" lon="1.87189">
        <ele>163.4</ele>
        <time>2024-03-14T16:26:09Z</time>
      </trkpt>
      <trkpt lat="48.70656" lon="1.87181">
        <ele>163.4</ele>
        <time>2024-03-14T16:26:10Z</time>
      </trkpt>
      <trkpt lat="48.70659" lon="1.87173">
        <ele>163.4</ele>
        <time>2024-03-14T16:26:11Z</time>
      </trkpt>
      <trkpt lat="48.70661" lon="1.87165">
        <ele>163.4</ele>
        <time>2024-03-14T16:26:12Z</time>
      </trkpt>
      <trkpt lat="48.70664" lon="1.87157">
        <ele>163.4</ele>
        <time>2024-03-14T16:26:13Z</time>
      </trkpt>
      <trkpt lat="48.70666" lon="1.87149">
        <ele>163.4</ele>
        <time>2024-03-14T16:26:14Z</time>
      </trkpt>
      <trkpt lat="48.70669" lon="1.87141">
        <ele>163.4</ele>
        <time>2024-03-14T16:26:15Z</time>
      </trkpt>
      <trkpt lat="48.70671" lon="1.87133">
        <ele>163.4</ele>
        <time>2024-03-14T16:26:16Z</time>
      </trkpt>
      <trkpt lat="48.70673" lon="1.87125">
        <ele>163.4</ele>
        <time>2024-03-14T16:26:17Z</time>
      </trkpt>
      <trkpt lat="48.70675" lon="1.87117">
        <ele>163.4</ele>
        <time>2024-03-14T16:26:18Z</time>
      </trkpt>
      <trkpt lat="48.70678" lon="1.87109">
        <ele>163.4</ele>
        <time>2024-03-14T16:26:19Z</time>
      </trkpt>
      <trkpt lat="48.7068" lon="1.87102">
        <ele>163.4</ele>
        <time>2024-03-14T16:26:20Z</time>
      </trkpt>
      <trkpt lat="48.70683" lon="1.87094">
        <ele>163.8</ele>
        <time>2024-03-14T16:26:21Z</time>
      </trkpt>
      <trkpt lat="48.70685" lon="1.87086">
        <ele>163.8</ele>
        <time>2024-03-14T16:26:22Z</time>
      </trkpt>
      <trkpt lat="48.70687" lon="1.87078">
        <ele>163.8</ele>
        <time>2024-03-14T16:26:23Z</time>
      </trkpt>
      <trkpt lat="48.7069" lon="1.8707">
        <ele>164</ele>
        <time>2024-03-14T16:26:24Z</time>
      </trkpt>
      <trkpt lat="48.70692" lon="1.87062">
        <ele>163.8</ele>
        <time>2024-03-14T16:26:25Z</time>
      </trkpt>
      <trkpt lat="48.70694" lon="1.87054">
        <ele>163.8</ele>
        <time>2024-03-14T16:26:26Z</time>
      </trkpt>
      <trkpt lat="48.70697" lon="1.87047">
        <ele>163.8</ele>
        <time>2024-03-14T16:26:27Z</time>
      </trkpt>
      <trkpt lat="48.70698" lon="1.87039">
        <ele>163.8</ele>
        <time>2024-03-14T16:26:28Z</time>
      </trkpt>
      <trkpt lat="48.707" lon="1.87032">
        <ele>164.8</ele>
        <time>2024-03-14T16:26:29Z</time>
      </trkpt>
      <trkpt lat="48.70702" lon="1.87025">
        <ele>164.8</ele>
        <time>2024-03-14T16:26:30Z</time>
      </trkpt>
      <trkpt lat="48.70703" lon="1.87018">
        <ele>164.8</ele>
        <time>2024-03-14T16:26:31Z</time>
      </trkpt>
      <trkpt lat="48.70705" lon="1.87011">
        <ele>165.4</ele>
        <time>2024-03-14T16:26:32Z</time>
      </trkpt>
      <trkpt lat="48.70706" lon="1.87005">
        <ele>166.2</ele>
        <time>2024-03-14T16:26:33Z</time>
      </trkpt>
      <trkpt lat="48.70707" lon="1.86999">
        <ele>166.2</ele>
        <time>2024-03-14T16:26:34Z</time>
      </trkpt>
      <trkpt lat="48.70709" lon="1.86993">
        <ele>166.2</ele>
        <time>2024-03-14T16:26:35Z</time>
      </trkpt>
      <trkpt lat="48.70711" lon="1.86989">
        <ele>167.2</ele>
        <time>2024-03-14T16:26:36Z</time>
      </trkpt>
      <trkpt lat="48.70713" lon="1.86985">
        <ele>167.6</ele>
        <time>2024-03-14T16:26:37Z</time>
      </trkpt>
      <trkpt lat="48.70716" lon="1.86981">
        <ele>167.6</ele>
        <time>2024-03-14T16:26:38Z</time>
      </trkpt>
      <trkpt lat="48.70718" lon="1.86976">
        <ele>167.6</ele>
        <time>2024-03-14T16:26:39Z</time>
      </trkpt>
      <trkpt lat="48.7072" lon="1.86971">
        <ele>168.4</ele>
        <time>2024-03-14T16:26:40Z</time>
      </trkpt>
      <trkpt lat="48.70721" lon="1.86967">
        <ele>168.4</ele>
        <time>2024-03-14T16:26:41Z</time>
      </trkpt>
      <trkpt lat="48.70722" lon="1.86965">
        <ele>168.4</ele>
        <time>2024-03-14T16:26:42Z</time>
      </trkpt>
      <trkpt lat="48.70724" lon="1.8696">
        <ele>168.4</ele>
        <time>2024-03-14T16:26:43Z</time>
      </trkpt>
      <trkpt lat="48.70726" lon="1.86956">
        <ele>169.4</ele>
        <time>2024-03-14T16:26:44Z</time>
      </trkpt>
      <trkpt lat="48.70728" lon="1.86953">
        <ele>169.8</ele>
        <time>2024-03-14T16:26:45Z</time>
      </trkpt>
      <trkpt lat="48.70732" lon="1.86954">
        <ele>169.8</ele>
        <time>2024-03-14T16:26:46Z</time>
      </trkpt>
      <trkpt lat="48.70735" lon="1.86956">
        <ele>169.8</ele>
        <time>2024-03-14T16:26:47Z</time>
      </trkpt>
      <trkpt lat="48.70737" lon="1.86958">
        <ele>170.8</ele>
        <time>2024-03-14T16:26:48Z</time>
      </trkpt>
      <trkpt lat="48.7074" lon="1.86961">
        <ele>170.8</ele>
        <time>2024-03-14T16:26:49Z</time>
      </trkpt>
      <trkpt lat="48.70742" lon="1.86964">
        <ele>170.8</ele>
        <time>2024-03-14T16:26:50Z</time>
      </trkpt>
      <trkpt lat="48.70745" lon="1.86967">
        <ele>170.8</ele>
        <time>2024-03-14T16:26:51Z</time>
      </trkpt>
      <trkpt lat="48.70747" lon="1.8697">
        <ele>170.8</ele>
        <time>2024-03-14T16:26:52Z</time>
      </trkpt>
      <trkpt lat="48.7075" lon="1.86973">
        <ele>171.6</ele>
        <time>2024-03-14T16:26:53Z</time>
      </trkpt>
      <trkpt lat="48.70752" lon="1.86976">
        <ele>171.6</ele>
        <time>2024-03-14T16:26:54Z</time>
      </trkpt>
      <trkpt lat="48.70755" lon="1.86979">
        <ele>171.6</ele>
        <time>2024-03-14T16:26:55Z</time>
      </trkpt>
      <trkpt lat="48.70757" lon="1.86982">
        <ele>171.6</ele>
        <time>2024-03-14T16:26:56Z</time>
      </trkpt>
      <trkpt lat="48.7076" lon="1.86986">
        <ele>172.4</ele>
        <time>2024-03-14T16:26:57Z</time>
      </trkpt>
      <trkpt lat="48.70762" lon="1.86989">
        <ele>172.4</ele>
        <time>2024-03-14T16:26:58Z</time>
      </trkpt>
      <trkpt lat="48.70765" lon="1.86992">
        <ele>172.4</ele>
        <time>2024-03-14T16:26:59Z</time>
      </trkpt>
      <trkpt lat="48.70767" lon="1.86995">
        <ele>173</ele>
        <time>2024-03-14T16:27:00Z</time>
      </trkpt>
      <trkpt lat="48.7077" lon="1.86998">
        <ele>173</ele>
        <time>2024-03-14T16:27:01Z</time>
      </trkpt>
      <trkpt lat="48.70772" lon="1.87001">
        <ele>173</ele>
        <time>2024-03-14T16:27:02Z</time>
      </trkpt>
      <trkpt lat="48.70775" lon="1.87004">
        <ele>173</ele>
        <time>2024-03-14T16:27:03Z</time>
      </trkpt>
      <trkpt lat="48.70777" lon="1.87007">
        <ele>173.6</ele>
        <time>2024-03-14T16:27:04Z</time>
      </trkpt>
      <trkpt lat="48.7078" lon="1.8701">
        <ele>173.6</ele>
        <time>2024-03-14T16:27:05Z</time>
      </trkpt>
      <trkpt lat="48.70782" lon="1.87013">
        <ele>173.6</ele>
        <time>2024-03-14T16:27:06Z</time>
      </trkpt>
      <trkpt lat="48.70785" lon="1.87016">
        <ele>173.6</ele>
        <time>2024-03-14T16:27:07Z</time>
      </trkpt>
      <trkpt lat="48.70788" lon="1.8702">
        <ele>174.4</ele>
        <time>2024-03-14T16:27:08Z</time>
      </trkpt>
      <trkpt lat="48.70791" lon="1.87024">
        <ele>174.6</ele>
        <time>2024-03-14T16:27:09Z</time>
      </trkpt>
      <trkpt lat="48.70794" lon="1.87027">
        <ele>174.6</ele>
        <time>2024-03-14T16:27:10Z</time>
      </trkpt>
      <trkpt lat="48.70797" lon="1.8703">
        <ele>174.6</ele>
        <time>2024-03-14T16:27:11Z</time>
      </trkpt>
      <trkpt lat="48.70799" lon="1.87033">
        <ele>175</ele>
        <time>2024-03-14T16:27:12Z</time>
      </trkpt>
      <trkpt lat="48.70801" lon="1.87036">
        <ele>175.4</ele>
        <time>2024-03-14T16:27:13Z</time>
      </trkpt>
      <trkpt lat="48.70803" lon="1.87039">
        <ele>175.4</ele>
        <time>2024-03-14T16:27:14Z</time>
      </trkpt>
      <trkpt lat="48.70805" lon="1.87043">
        <ele>175.4</ele>
        <time>2024-03-14T16:27:15Z</time>
      </trkpt>
      <trkpt lat="48.70807" lon="1.87046">
        <ele>175.6</ele>
        <time>2024-03-14T16:27:16Z</time>
      </trkpt>
      <trkpt lat="48.70809" lon="1.8705">
        <ele>176.2</ele>
        <time>2024-03-14T16:27:17Z</time>
      </trkpt>
      <trkpt lat="48.70811" lon="1.87053">
        <ele>176.2</ele>
        <time>2024-03-14T16:27:18Z</time>
      </trkpt>
      <trkpt lat="48.70813" lon="1.87056">
        <ele>176.2</ele>
        <time>2024-03-14T16:27:19Z</time>
      </trkpt>
      <trkpt lat="48.70816" lon="1.87059">
        <ele>176.2</ele>
        <time>2024-03-14T16:27:20Z</time>
      </trkpt>
      <trkpt lat="48.70817" lon="1.87062">
        <ele>176.2</ele>
        <time>2024-03-14T16:27:21Z</time>
      </trkpt>
      <trkpt lat="48.7082" lon="1.87065">
        <ele>176.2</ele>
        <time>2024-03-14T16:27:22Z</time>
      </trkpt>
      <trkpt lat="48.70822" lon="1.87068">
        <ele>176.2</ele>
        <time>2024-03-14T16:27:23Z</time>
      </trkpt>
      <trkpt lat="48.70824" lon="1.87072">
        <ele>177.2</ele>
        <time>2024-03-14T16:27:24Z</time>
      </trkpt>
      <trkpt lat="48.70826" lon="1.87075">
        <ele>176.8</ele>
        <time>2024-03-14T16:27:25Z</time>
      </trkpt>
      <trkpt lat="48.70828" lon="1.87079">
        <ele>176.8</ele>
        <time>2024-03-14T16:27:26Z</time>
      </trkpt>
      <trkpt lat="48.7083" lon="1.87082">
        <ele>176.8</ele>
        <time>2024-03-14T16:27:27Z</time>
      </trkpt>
      <trkpt lat="48.70833" lon="1.87085">
        <ele>177.8</ele>
        <time>2024-03-14T16:27:28Z</time>
      </trkpt>
      <trkpt lat="48.70835" lon="1.87088">
        <ele>177.8</ele>
        <time>2024-03-14T16:27:29Z</time>
      </trkpt>
      <trkpt lat="48.70837" lon="1.87092">
        <ele>177.8</ele>
        <time>2024-03-14T16:27:30Z</time>
      </trkpt>
      <trkpt lat="48.70839" lon="1.87096">
        <ele>177.8</ele>
        <time>2024-03-14T16:27:31Z</time>
      </trkpt>
      <trkpt lat="48.70841" lon="1.87099">
        <ele>178.4</ele>
        <time>2024-03-14T16:27:32Z</time>
      </trkpt>
      <trkpt lat="48.70844" lon="1.87103">
        <ele>178.4</ele>
        <time>2024-03-14T16:27:33Z</time>
      </trkpt>
      <trkpt lat="48.70847" lon="1.87106">
        <ele>178.4</ele>
        <time>2024-03-14T16:27:34Z</time>
      </trkpt>
      <trkpt lat="48.7085" lon="1.87109">
        <ele>178.4</ele>
        <time>2024-03-14T16:27:35Z</time>
      </trkpt>
      <trkpt lat="48.70854" lon="1.87113">
        <ele>179.2</ele>
        <time>2024-03-14T16:27:36Z</time>
      </trkpt>
      <trkpt lat="48.70856" lon="1.87117">
        <ele>179.2</ele>
        <time>2024-03-14T16:27:37Z</time>
      </trkpt>
      <trkpt lat="48.70859" lon="1.8712">
        <ele>179.2</ele>
        <time>2024-03-14T16:27:38Z</time>
      </trkpt>
      <trkpt lat="48.70862" lon="1.87124">
        <ele>179.2</ele>
        <time>2024-03-14T16:27:39Z</time>
      </trkpt>
      <trkpt lat="48.70865" lon="1.87127">
        <ele>180.2</ele>
        <time>2024-03-14T16:27:40Z</time>
      </trkpt>
      <trkpt lat="48.70868" lon="1.87131">
        <ele>180</ele>
        <time>2024-03-14T16:27:41Z</time>
      </trkpt>
      <trkpt lat="48.70871" lon="1.87134">
        <ele>180</ele>
        <time>2024-03-14T16:27:42Z</time>
      </trkpt>
      <trkpt lat="48.70874" lon="1.87138">
        <ele>180</ele>
        <time>2024-03-14T16:27:43Z</time>
      </trkpt>
      <trkpt lat="48.70878" lon="1.87141">
        <ele>180.6</ele>
        <time>2024-03-14T16:27:44Z</time>
      </trkpt>
      <trkpt lat="48.70881" lon="1.87145">
        <ele>181</ele>
        <time>2024-03-14T16:27:45Z</time>
      </trkpt>
      <trkpt lat="48.70884" lon="1.87148">
        <ele>181</ele>
        <time>2024-03-14T16:27:46Z</time>
      </trkpt>
      <trkpt lat="48.70886" lon="1.87152">
        <ele>181</ele>
        <time>2024-03-14T16:27:47Z</time>
      </trkpt>
      <trkpt lat="48.70889" lon="1.87156">
        <ele>182</ele>
        <time>2024-03-14T16:27:48Z</time>
      </trkpt>
      <trkpt lat="48.70891" lon="1.87159">
        <ele>182</ele>
        <time>2024-03-14T16:27:49Z</time>
      </trkpt>
      <trkpt lat="48.70895" lon="1.87163">
        <ele>182</ele>
        <time>2024-03-14T16:27:50Z</time>
      </trkpt>
      <trkpt lat="48.70898" lon="1.87167">
        <ele>182</ele>
        <time>2024-03-14T16:27:51Z</time>
      </trkpt>
      <trkpt lat="48.709" lon="1.87171">
        <ele>183</ele>
        <time>2024-03-14T16:27:52Z</time>
      </trkpt>
      <trkpt lat="48.70903" lon="1.87174">
        <ele>183.2</ele>
        <time>2024-03-14T16:27:53Z</time>
      </trkpt>
      <trkpt lat="48.70906" lon="1.87178">
        <ele>183.2</ele>
        <time>2024-03-14T16:27:54Z</time>
      </trkpt>
      <trkpt lat="48.70909" lon="1.87182">
        <ele>183.2</ele>
        <time>2024-03-14T16:27:55Z</time>
      </trkpt>
      <trkpt lat="48.70912" lon="1.87186">
        <ele>183.2</ele>
        <time>2024-03-14T16:27:56Z</time>
      </trkpt>
      <trkpt lat="48.70915" lon="1.8719">
        <ele>184</ele>
        <time>2024-03-14T16:27:57Z</time>
      </trkpt>
      <trkpt lat="48.70918" lon="1.87194">
        <ele>184</ele>
        <time>2024-03-14T16:27:58Z</time>
      </trkpt>
      <trkpt lat="48.70921" lon="1.87198">
        <ele>184</ele>
        <time>2024-03-14T16:27:59Z</time>
      </trkpt>
      <trkpt lat="48.70924" lon="1.87201">
        <ele>184</ele>
        <time>2024-03-14T16:28:00Z</time>
      </trkpt>
      <trkpt lat="48.70927" lon="1.87205">
        <ele>184.8</ele>
        <time>2024-03-14T16:28:01Z</time>
      </trkpt>
      <trkpt lat="48.7093" lon="1.87209">
        <ele>184.8</ele>
        <time>2024-03-14T16:28:02Z</time>
      </trkpt>
      <trkpt lat="48.70933" lon="1.87213">
        <ele>184.8</ele>
        <time>2024-03-14T16:28:03Z</time>
      </trkpt>
      <trkpt lat="48.70936" lon="1.87217">
        <ele>184.8</ele>
        <time>2024-03-14T16:28:04Z</time>
      </trkpt>
      <trkpt lat="48.70939" lon="1.8722">
        <ele>185.4</ele>
        <time>2024-03-14T16:28:05Z</time>
      </trkpt>
      <trkpt lat="48.70942" lon="1.87224">
        <ele>185.4</ele>
        <time>2024-03-14T16:28:06Z</time>
      </trkpt>
      <trkpt lat="48.70945" lon="1.87228">
        <ele>185.4</ele>
        <time>2024-03-14T16:28:07Z</time>
      </trkpt>
      <trkpt lat="48.70948" lon="1.87232">
        <ele>185.4</ele>
        <time>2024-03-14T16:28:08Z</time>
      </trkpt>
      <trkpt lat="48.70951" lon="1.87235">
        <ele>185.6</ele>
        <time>2024-03-14T16:28:09Z</time>
      </trkpt>
      <trkpt lat="48.70955" lon="1.87239">
        <ele>185.6</ele>
        <time>2024-03-14T16:28:10Z</time>
      </trkpt>
      <trkpt lat="48.70958" lon="1.87243">
        <ele>185.6</ele>
        <time>2024-03-14T16:28:11Z</time>
      </trkpt>
      <trkpt lat="48.70961" lon="1.87247">
        <ele>185.8</ele>
        <time>2024-03-14T16:28:12Z</time>
      </trkpt>
      <trkpt lat="48.70963" lon="1.87251">
        <ele>185.6</ele>
        <time>2024-03-14T16:28:13Z</time>
      </trkpt>
      <trkpt lat="48.70966" lon="1.87254">
        <ele>185.6</ele>
        <time>2024-03-14T16:28:14Z</time>
      </trkpt>
      <trkpt lat="48.70968" lon="1.87257">
        <ele>185.6</ele>
        <time>2024-03-14T16:28:15Z</time>
      </trkpt>
      <trkpt lat="48.70971" lon="1.87261">
        <ele>186.2</ele>
        <time>2024-03-14T16:28:16Z</time>
      </trkpt>
      <trkpt lat="48.70973" lon="1.87264">
        <ele>186</ele>
        <time>2024-03-14T16:28:17Z</time>
      </trkpt>
      <trkpt lat="48.70977" lon="1.87267">
        <ele>186</ele>
        <time>2024-03-14T16:28:18Z</time>
      </trkpt>
      <trkpt lat="48.70981" lon="1.87269">
        <ele>186</ele>
        <time>2024-03-14T16:28:19Z</time>
      </trkpt>
      <trkpt lat="48.70985" lon="1.87271">
        <ele>186</ele>
        <time>2024-03-14T16:28:20Z</time>
      </trkpt>
      <trkpt lat="48.70989" lon="1.8727">
        <ele>186</ele>
        <time>2024-03-14T16:28:21Z</time>
      </trkpt>
      <trkpt lat="48.70993" lon="1.87266">
        <ele>186</ele>
        <time>2024-03-14T16:28:22Z</time>
      </trkpt>
      <trkpt lat="48.70995" lon="1.8726">
        <ele>186</ele>
        <time>2024-03-14T16:28:23Z</time>
      </trkpt>
      <trkpt lat="48.70997" lon="1.87253">
        <ele>185</ele>
        <time>2024-03-14T16:28:24Z</time>
      </trkpt>
      <trkpt lat="48.70998" lon="1.87246">
        <ele>184.6</ele>
        <time>2024-03-14T16:28:25Z</time>
      </trkpt>
      <trkpt lat="48.71" lon="1.87238">
        <ele>184.6</ele>
        <time>2024-03-14T16:28:26Z</time>
      </trkpt>
      <trkpt lat="48.71001" lon="1.87231">
        <ele>184.6</ele>
        <time>2024-03-14T16:28:27Z</time>
      </trkpt>
      <trkpt lat="48.71003" lon="1.87223">
        <ele>184.6</ele>
        <time>2024-03-14T16:28:28Z</time>
      </trkpt>
      <trkpt lat="48.71005" lon="1.87215">
        <ele>184.6</ele>
        <time>2024-03-14T16:28:29Z</time>
      </trkpt>
      <trkpt lat="48.71007" lon="1.87208">
        <ele>184.6</ele>
        <time>2024-03-14T16:28:30Z</time>
      </trkpt>
      <trkpt lat="48.71009" lon="1.87201">
        <ele>184.6</ele>
        <time>2024-03-14T16:28:31Z</time>
      </trkpt>
      <trkpt lat="48.71012" lon="1.87193">
        <ele>185.2</ele>
        <time>2024-03-14T16:28:32Z</time>
      </trkpt>
      <trkpt lat="48.71014" lon="1.87186">
        <ele>185.6</ele>
        <time>2024-03-14T16:28:33Z</time>
      </trkpt>
      <trkpt lat="48.71016" lon="1.87179">
        <ele>185.6</ele>
        <time>2024-03-14T16:28:34Z</time>
      </trkpt>
      <trkpt lat="48.71019" lon="1.87172">
        <ele>185.6</ele>
        <time>2024-03-14T16:28:35Z</time>
      </trkpt>
      <trkpt lat="48.71021" lon="1.87165">
        <ele>185.6</ele>
        <time>2024-03-14T16:28:36Z</time>
      </trkpt>
      <trkpt lat="48.71023" lon="1.87157">
        <ele>186</ele>
        <time>2024-03-14T16:28:37Z</time>
      </trkpt>
      <trkpt lat="48.71026" lon="1.87149">
        <ele>186</ele>
        <time>2024-03-14T16:28:38Z</time>
      </trkpt>
      <trkpt lat="48.71028" lon="1.87142">
        <ele>186</ele>
        <time>2024-03-14T16:28:39Z</time>
      </trkpt>
      <trkpt lat="48.71031" lon="1.87136">
        <ele>186</ele>
        <time>2024-03-14T16:28:40Z</time>
      </trkpt>
      <trkpt lat="48.71033" lon="1.87128">
        <ele>185.8</ele>
        <time>2024-03-14T16:28:41Z</time>
      </trkpt>
      <trkpt lat="48.71035" lon="1.87121">
        <ele>185.8</ele>
        <time>2024-03-14T16:28:42Z</time>
      </trkpt>
      <trkpt lat="48.71037" lon="1.87114">
        <ele>185.8</ele>
        <time>2024-03-14T16:28:43Z</time>
      </trkpt>
      <trkpt lat="48.71039" lon="1.87106">
        <ele>186.8</ele>
        <time>2024-03-14T16:28:44Z</time>
      </trkpt>
      <trkpt lat="48.71041" lon="1.87099">
        <ele>187.4</ele>
        <time>2024-03-14T16:28:45Z</time>
      </trkpt>
      <trkpt lat="48.71044" lon="1.87091">
        <ele>187.4</ele>
        <time>2024-03-14T16:28:46Z</time>
      </trkpt>
      <trkpt lat="48.71046" lon="1.87084">
        <ele>187.4</ele>
        <time>2024-03-14T16:28:47Z</time>
      </trkpt>
      <trkpt lat="48.71048" lon="1.87076">
        <ele>187.4</ele>
        <time>2024-03-14T16:28:48Z</time>
      </trkpt>
      <trkpt lat="48.71051" lon="1.87069">
        <ele>187.2</ele>
        <time>2024-03-14T16:28:49Z</time>
      </trkpt>
      <trkpt lat="48.71053" lon="1.87061">
        <ele>187.2</ele>
        <time>2024-03-14T16:28:50Z</time>
      </trkpt>
      <trkpt lat="48.71055" lon="1.87053">
        <ele>187.2</ele>
        <time>2024-03-14T16:28:51Z</time>
      </trkpt>
      <trkpt lat="48.71057" lon="1.87045">
        <ele>187.2</ele>
        <time>2024-03-14T16:28:52Z</time>
      </trkpt>
      <trkpt lat="48.71059" lon="1.87037">
        <ele>187.8</ele>
        <time>2024-03-14T16:28:53Z</time>
      </trkpt>
      <trkpt lat="48.71061" lon="1.87028">
        <ele>187.8</ele>
        <time>2024-03-14T16:28:54Z</time>
      </trkpt>
      <trkpt lat="48.71063" lon="1.8702">
        <ele>187.8</ele>
        <time>2024-03-14T16:28:55Z</time>
      </trkpt>
      <trkpt lat="48.71065" lon="1.87012">
        <ele>187.8</ele>
        <time>2024-03-14T16:28:56Z</time>
      </trkpt>
      <trkpt lat="48.71068" lon="1.87004">
        <ele>187.8</ele>
        <time>2024-03-14T16:28:57Z</time>
      </trkpt>
      <trkpt lat="48.7107" lon="1.86994">
        <ele>187.8</ele>
        <time>2024-03-14T16:28:58Z</time>
      </trkpt>
      <trkpt lat="48.71073" lon="1.86986">
        <ele>187.8</ele>
        <time>2024-03-14T16:28:59Z</time>
      </trkpt>
      <trkpt lat="48.71076" lon="1.86977">
        <ele>186.8</ele>
        <time>2024-03-14T16:29:00Z</time>
      </trkpt>
      <trkpt lat="48.71079" lon="1.86967">
        <ele>185.4</ele>
        <time>2024-03-14T16:29:01Z</time>
      </trkpt>
      <trkpt lat="48.71081" lon="1.86957">
        <ele>185.4</ele>
        <time>2024-03-14T16:29:02Z</time>
      </trkpt>
      <trkpt lat="48.71084" lon="1.86948">
        <ele>185.4</ele>
        <time>2024-03-14T16:29:03Z</time>
      </trkpt>
      <trkpt lat="48.71086" lon="1.86938">
        <ele>185.6</ele>
        <time>2024-03-14T16:29:04Z</time>
      </trkpt>
      <trkpt lat="48.71089" lon="1.86928">
        <ele>185.8</ele>
        <time>2024-03-14T16:29:05Z</time>
      </trkpt>
      <trkpt lat="48.71092" lon="1.86917">
        <ele>185.8</ele>
        <time>2024-03-14T16:29:06Z</time>
      </trkpt>
      <trkpt lat="48.71094" lon="1.86907">
        <ele>185.8</ele>
        <time>2024-03-14T16:29:07Z</time>
      </trkpt>
      <trkpt lat="48.71097" lon="1.86896">
        <ele>185.8</ele>
        <time>2024-03-14T16:29:08Z</time>
      </trkpt>
      <trkpt lat="48.711" lon="1.86886">
        <ele>185</ele>
        <time>2024-03-14T16:29:09Z</time>
      </trkpt>
      <trkpt lat="48.71103" lon="1.86875">
        <ele>185</ele>
        <time>2024-03-14T16:29:10Z</time>
      </trkpt>
      <trkpt lat="48.71106" lon="1.86865">
        <ele>185</ele>
        <time>2024-03-14T16:29:11Z</time>
      </trkpt>
      <trkpt lat="48.71108" lon="1.86854">
        <ele>185</ele>
        <time>2024-03-14T16:29:12Z</time>
      </trkpt>
      <trkpt lat="48.71111" lon="1.86843">
        <ele>185</ele>
        <time>2024-03-14T16:29:13Z</time>
      </trkpt>
      <trkpt lat="48.71114" lon="1.86834">
        <ele>185</ele>
        <time>2024-03-14T16:29:14Z</time>
      </trkpt>
      <trkpt lat="48.71117" lon="1.86823">
        <ele>185</ele>
        <time>2024-03-14T16:29:15Z</time>
      </trkpt>
      <trkpt lat="48.7112" lon="1.86813">
        <ele>185</ele>
        <time>2024-03-14T16:29:16Z</time>
      </trkpt>
      <trkpt lat="48.71123" lon="1.86803">
        <ele>185</ele>
        <time>2024-03-14T16:29:17Z</time>
      </trkpt>
      <trkpt lat="48.71126" lon="1.86792">
        <ele>185</ele>
        <time>2024-03-14T16:29:18Z</time>
      </trkpt>
      <trkpt lat="48.71129" lon="1.86782">
        <ele>185</ele>
        <time>2024-03-14T16:29:19Z</time>
      </trkpt>
      <trkpt lat="48.71131" lon="1.86772">
        <ele>185</ele>
        <time>2024-03-14T16:29:20Z</time>
      </trkpt>
      <trkpt lat="48.71134" lon="1.86762">
        <ele>185.2</ele>
        <time>2024-03-14T16:29:21Z</time>
      </trkpt>
      <trkpt lat="48.71136" lon="1.86752">
        <ele>185.2</ele>
        <time>2024-03-14T16:29:22Z</time>
      </trkpt>
      <trkpt lat="48.71139" lon="1.86741">
        <ele>185.2</ele>
        <time>2024-03-14T16:29:23Z</time>
      </trkpt>
      <trkpt lat="48.71141" lon="1.86731">
        <ele>185.2</ele>
        <time>2024-03-14T16:29:24Z</time>
      </trkpt>
      <trkpt lat="48.71144" lon="1.86722">
        <ele>184.8</ele>
        <time>2024-03-14T16:29:25Z</time>
      </trkpt>
      <trkpt lat="48.71147" lon="1.86712">
        <ele>184.8</ele>
        <time>2024-03-14T16:29:26Z</time>
      </trkpt>
      <trkpt lat="48.7115" lon="1.86703">
        <ele>184.8</ele>
        <time>2024-03-14T16:29:27Z</time>
      </trkpt>
      <trkpt lat="48.71152" lon="1.86693">
        <ele>183.8</ele>
        <time>2024-03-14T16:29:28Z</time>
      </trkpt>
      <trkpt lat="48.71155" lon="1.86684">
        <ele>184.2</ele>
        <time>2024-03-14T16:29:29Z</time>
      </trkpt>
      <trkpt lat="48.71158" lon="1.86674">
        <ele>184.2</ele>
        <time>2024-03-14T16:29:30Z</time>
      </trkpt>
      <trkpt lat="48.7116" lon="1.86665">
        <ele>184.2</ele>
        <time>2024-03-14T16:29:31Z</time>
      </trkpt>
      <trkpt lat="48.71163" lon="1.86656">
        <ele>184.2</ele>
        <time>2024-03-14T16:29:32Z</time>
      </trkpt>
      <trkpt lat="48.71165" lon="1.86646">
        <ele>185.6</ele>
        <time>2024-03-14T16:29:33Z</time>
      </trkpt>
      <trkpt lat="48.71167" lon="1.86637">
        <ele>185.6</ele>
        <time>2024-03-14T16:29:34Z</time>
      </trkpt>
      <trkpt lat="48.7117" lon="1.86627">
        <ele>185.6</ele>
        <time>2024-03-14T16:29:35Z</time>
      </trkpt>
      <trkpt lat="48.71173" lon="1.86617">
        <ele>185.6</ele>
        <time>2024-03-14T16:29:36Z</time>
      </trkpt>
      <trkpt lat="48.71175" lon="1.86608">
        <ele>186.4</ele>
        <time>2024-03-14T16:29:37Z</time>
      </trkpt>
      <trkpt lat="48.71178" lon="1.86598">
        <ele>186.4</ele>
        <time>2024-03-14T16:29:38Z</time>
      </trkpt>
      <trkpt lat="48.71181" lon="1.86589">
        <ele>186.4</ele>
        <time>2024-03-14T16:29:39Z</time>
      </trkpt>
      <trkpt lat="48.71183" lon="1.86579">
        <ele>186.4</ele>
        <time>2024-03-14T16:29:40Z</time>
      </trkpt>
      <trkpt lat="48.71186" lon="1.86569">
        <ele>185.6</ele>
        <time>2024-03-14T16:29:41Z</time>
      </trkpt>
      <trkpt lat="48.71188" lon="1.86559">
        <ele>185.6</ele>
        <time>2024-03-14T16:29:42Z</time>
      </trkpt>
      <trkpt lat="48.71191" lon="1.86549">
        <ele>185.6</ele>
        <time>2024-03-14T16:29:43Z</time>
      </trkpt>
      <trkpt lat="48.71193" lon="1.8654">
        <ele>185.6</ele>
        <time>2024-03-14T16:29:44Z</time>
      </trkpt>
      <trkpt lat="48.71196" lon="1.8653">
        <ele>184.2</ele>
        <time>2024-03-14T16:29:45Z</time>
      </trkpt>
      <trkpt lat="48.71199" lon="1.8652">
        <ele>184.2</ele>
        <time>2024-03-14T16:29:46Z</time>
      </trkpt>
      <trkpt lat="48.71201" lon="1.8651">
        <ele>184.2</ele>
        <time>2024-03-14T16:29:47Z</time>
      </trkpt>
      <trkpt lat="48.71204" lon="1.865">
        <ele>185</ele>
        <time>2024-03-14T16:29:48Z</time>
      </trkpt>
      <trkpt lat="48.71206" lon="1.86491">
        <ele>185</ele>
        <time>2024-03-14T16:29:49Z</time>
      </trkpt>
      <trkpt lat="48.71209" lon="1.86481">
        <ele>185</ele>
        <time>2024-03-14T16:29:50Z</time>
      </trkpt>
      <trkpt lat="48.71212" lon="1.86471">
        <ele>185</ele>
        <time>2024-03-14T16:29:51Z</time>
      </trkpt>
      <trkpt lat="48.71214" lon="1.86461">
        <ele>185.2</ele>
        <time>2024-03-14T16:29:52Z</time>
      </trkpt>
      <trkpt lat="48.71217" lon="1.86451">
        <ele>185.6</ele>
        <time>2024-03-14T16:29:53Z</time>
      </trkpt>
      <trkpt lat="48.7122" lon="1.86441">
        <ele>185.6</ele>
        <time>2024-03-14T16:29:54Z</time>
      </trkpt>
      <trkpt lat="48.71222" lon="1.86432">
        <ele>185.6</ele>
        <time>2024-03-14T16:29:55Z</time>
      </trkpt>
      <trkpt lat="48.71225" lon="1.86422">
        <ele>185</ele>
        <time>2024-03-14T16:29:56Z</time>
      </trkpt>
      <trkpt lat="48.71227" lon="1.86412">
        <ele>184.8</ele>
        <time>2024-03-14T16:29:57Z</time>
      </trkpt>
      <trkpt lat="48.7123" lon="1.86402">
        <ele>184.8</ele>
        <time>2024-03-14T16:29:58Z</time>
      </trkpt>
      <trkpt lat="48.71233" lon="1.86393">
        <ele>184.8</ele>
        <time>2024-03-14T16:29:59Z</time>
      </trkpt>
      <trkpt lat="48.71235" lon="1.86383">
        <ele>184.8</ele>
        <time>2024-03-14T16:30:00Z</time>
      </trkpt>
      <trkpt lat="48.71238" lon="1.86373">
        <ele>183.4</ele>
        <time>2024-03-14T16:30:01Z</time>
      </trkpt>
      <trkpt lat="48.71241" lon="1.86364">
        <ele>183.4</ele>
        <time>2024-03-14T16:30:02Z</time>
      </trkpt>
      <trkpt lat="48.71243" lon="1.86355">
        <ele>183.4</ele>
        <time>2024-03-14T16:30:03Z</time>
      </trkpt>
      <trkpt lat="48.71246" lon="1.86345">
        <ele>184.4</ele>
        <time>2024-03-14T16:30:04Z</time>
      </trkpt>
      <trkpt lat="48.71249" lon="1.86336">
        <ele>184.4</ele>
        <time>2024-03-14T16:30:05Z</time>
      </trkpt>
      <trkpt lat="48.71251" lon="1.86326">
        <ele>184.4</ele>
        <time>2024-03-14T16:30:06Z</time>
      </trkpt>
      <trkpt lat="48.71254" lon="1.86317">
        <ele>184.4</ele>
        <time>2024-03-14T16:30:07Z</time>
      </trkpt>
      <trkpt lat="48.71257" lon="1.86308">
        <ele>184.8</ele>
        <time>2024-03-14T16:30:08Z</time>
      </trkpt>
      <trkpt lat="48.71259" lon="1.86299">
        <ele>184.4</ele>
        <time>2024-03-14T16:30:09Z</time>
      </trkpt>
      <trkpt lat="48.71262" lon="1.8629">
        <ele>184.4</ele>
        <time>2024-03-14T16:30:10Z</time>
      </trkpt>
      <trkpt lat="48.71264" lon="1.86281">
        <ele>184.4</ele>
        <time>2024-03-14T16:30:11Z</time>
      </trkpt>
      <trkpt lat="48.71267" lon="1.86272">
        <ele>185.4</ele>
        <time>2024-03-14T16:30:12Z</time>
      </trkpt>
      <trkpt lat="48.7127" lon="1.86263">
        <ele>185</ele>
        <time>2024-03-14T16:30:13Z</time>
      </trkpt>
      <trkpt lat="48.71272" lon="1.86254">
        <ele>185</ele>
        <time>2024-03-14T16:30:14Z</time>
      </trkpt>
      <trkpt lat="48.71275" lon="1.86245">
        <ele>185</ele>
        <time>2024-03-14T16:30:15Z</time>
      </trkpt>
      <trkpt lat="48.71277" lon="1.86236">
        <ele>185</ele>
        <time>2024-03-14T16:30:16Z</time>
      </trkpt>
      <trkpt lat="48.7128" lon="1.86226">
        <ele>184.6</ele>
        <time>2024-03-14T16:30:17Z</time>
      </trkpt>
      <trkpt lat="48.71282" lon="1.86217">
        <ele>184.6</ele>
        <time>2024-03-14T16:30:18Z</time>
      </trkpt>
      <trkpt lat="48.71284" lon="1.86208">
        <ele>184.6</ele>
        <time>2024-03-14T16:30:19Z</time>
      </trkpt>
      <trkpt lat="48.71286" lon="1.86199">
        <ele>185.6</ele>
        <time>2024-03-14T16:30:20Z</time>
      </trkpt>
      <trkpt lat="48.71287" lon="1.8619">
        <ele>185.2</ele>
        <time>2024-03-14T16:30:21Z</time>
      </trkpt>
      <trkpt lat="48.71289" lon="1.86181">
        <ele>185.2</ele>
        <time>2024-03-14T16:30:22Z</time>
      </trkpt>
      <trkpt lat="48.71291" lon="1.86172">
        <ele>185.2</ele>
        <time>2024-03-14T16:30:23Z</time>
      </trkpt>
      <trkpt lat="48.71293" lon="1.86162">
        <ele>185.2</ele>
        <time>2024-03-14T16:30:24Z</time>
      </trkpt>
      <trkpt lat="48.71295" lon="1.86153">
        <ele>185</ele>
        <time>2024-03-14T16:30:25Z</time>
      </trkpt>
      <trkpt lat="48.71297" lon="1.86144">
        <ele>185</ele>
        <time>2024-03-14T16:30:26Z</time>
      </trkpt>
      <trkpt lat="48.71299" lon="1.86135">
        <ele>185</ele>
        <time>2024-03-14T16:30:27Z</time>
      </trkpt>
      <trkpt lat="48.71301" lon="1.86126">
        <ele>185.6</ele>
        <time>2024-03-14T16:30:28Z</time>
      </trkpt>
      <trkpt lat="48.71304" lon="1.86117">
        <ele>185.8</ele>
        <time>2024-03-14T16:30:29Z</time>
      </trkpt>
      <trkpt lat="48.71306" lon="1.86107">
        <ele>185.8</ele>
        <time>2024-03-14T16:30:30Z</time>
      </trkpt>
      <trkpt lat="48.71308" lon="1.86098">
        <ele>185.8</ele>
        <time>2024-03-14T16:30:31Z</time>
      </trkpt>
      <trkpt lat="48.71307" lon="1.86088">
        <ele>186.2</ele>
        <time>2024-03-14T16:30:32Z</time>
      </trkpt>
      <trkpt lat="48.71304" lon="1.8608">
        <ele>184.6</ele>
        <time>2024-03-14T16:30:33Z</time>
      </trkpt>
      <trkpt lat="48.71299" lon="1.86075">
        <ele>184.6</ele>
        <time>2024-03-14T16:30:34Z</time>
      </trkpt>
      <trkpt lat="48.71293" lon="1.8607">
        <ele>184.6</ele>
        <time>2024-03-14T16:30:35Z</time>
      </trkpt>
      <trkpt lat="48.71287" lon="1.86065">
        <ele>183.6</ele>
        <time>2024-03-14T16:30:36Z</time>
      </trkpt>
      <trkpt lat="48.71281" lon="1.8606">
        <ele>184</ele>
        <time>2024-03-14T16:30:37Z</time>
      </trkpt>
      <trkpt lat="48.71276" lon="1.86055">
        <ele>184</ele>
        <time>2024-03-14T16:30:38Z</time>
      </trkpt>
      <trkpt lat="48.7127" lon="1.86049">
        <ele>184</ele>
        <time>2024-03-14T16:30:39Z</time>
      </trkpt>
      <trkpt lat="48.71264" lon="1.86043">
        <ele>183</ele>
        <time>2024-03-14T16:30:40Z</time>
      </trkpt>
      <trkpt lat="48.71259" lon="1.86037">
        <ele>182</ele>
        <time>2024-03-14T16:30:41Z</time>
      </trkpt>
      <trkpt lat="48.71253" lon="1.86031">
        <ele>182</ele>
        <time>2024-03-14T16:30:42Z</time>
      </trkpt>
      <trkpt lat="48.71248" lon="1.86025">
        <ele>182</ele>
        <time>2024-03-14T16:30:43Z</time>
      </trkpt>
      <trkpt lat="48.71243" lon="1.86019">
        <ele>182</ele>
        <time>2024-03-14T16:30:44Z</time>
      </trkpt>
      <trkpt lat="48.71237" lon="1.86013">
        <ele>181.6</ele>
        <time>2024-03-14T16:30:45Z</time>
      </trkpt>
      <trkpt lat="48.71232" lon="1.86007">
        <ele>181.6</ele>
        <time>2024-03-14T16:30:46Z</time>
      </trkpt>
      <trkpt lat="48.71226" lon="1.86002">
        <ele>181.6</ele>
        <time>2024-03-14T16:30:47Z</time>
      </trkpt>
      <trkpt lat="48.71221" lon="1.85996">
        <ele>182.6</ele>
        <time>2024-03-14T16:30:48Z</time>
      </trkpt>
      <trkpt lat="48.71215" lon="1.85989">
        <ele>183.4</ele>
        <time>2024-03-14T16:30:49Z</time>
      </trkpt>
      <trkpt lat="48.71209" lon="1.85983">
        <ele>183.4</ele>
        <time>2024-03-14T16:30:50Z</time>
      </trkpt>
      <trkpt lat="48.71204" lon="1.85976">
        <ele>183.4</ele>
        <time>2024-03-14T16:30:51Z</time>
      </trkpt>
      <trkpt lat="48.71198" lon="1.8597">
        <ele>182.4</ele>
        <time>2024-03-14T16:30:52Z</time>
      </trkpt>
      <trkpt lat="48.71192" lon="1.85964">
        <ele>180.4</ele>
        <time>2024-03-14T16:30:53Z</time>
      </trkpt>
      <trkpt lat="48.71186" lon="1.85957">
        <ele>180.4</ele>
        <time>2024-03-14T16:30:54Z</time>
      </trkpt>
      <trkpt lat="48.7118" lon="1.85951">
        <ele>180.4</ele>
        <time>2024-03-14T16:30:55Z</time>
      </trkpt>
      <trkpt lat="48.71174" lon="1.85944">
        <ele>181.2</ele>
        <time>2024-03-14T16:30:56Z</time>
      </trkpt>
      <trkpt lat="48.71168" lon="1.85938">
        <ele>181.2</ele>
        <time>2024-03-14T16:30:57Z</time>
      </trkpt>
      <trkpt lat="48.71162" lon="1.85932">
        <ele>181.2</ele>
        <time>2024-03-14T16:30:58Z</time>
      </trkpt>
      <trkpt lat="48.71156" lon="1.85925">
        <ele>181.2</ele>
        <time>2024-03-14T16:30:59Z</time>
      </trkpt>
      <trkpt lat="48.71149" lon="1.85918">
        <ele>181.2</ele>
        <time>2024-03-14T16:31:00Z</time>
      </trkpt>
      <trkpt lat="48.71143" lon="1.85912">
        <ele>181.4</ele>
        <time>2024-03-14T16:31:01Z</time>
      </trkpt>
      <trkpt lat="48.71137" lon="1.85905">
        <ele>181.4</ele>
        <time>2024-03-14T16:31:02Z</time>
      </trkpt>
      <trkpt lat="48.71131" lon="1.85898">
        <ele>181.4</ele>
        <time>2024-03-14T16:31:03Z</time>
      </trkpt>
      <trkpt lat="48.71125" lon="1.85891">
        <ele>180.4</ele>
        <time>2024-03-14T16:31:04Z</time>
      </trkpt>
      <trkpt lat="48.71119" lon="1.85884">
        <ele>180.8</ele>
        <time>2024-03-14T16:31:05Z</time>
      </trkpt>
      <trkpt lat="48.71113" lon="1.85878">
        <ele>180.8</ele>
        <time>2024-03-14T16:31:06Z</time>
      </trkpt>
      <trkpt lat="48.71107" lon="1.85871">
        <ele>180.8</ele>
        <time>2024-03-14T16:31:07Z</time>
      </trkpt>
      <trkpt lat="48.71101" lon="1.85865">
        <ele>180.4</ele>
        <time>2024-03-14T16:31:08Z</time>
      </trkpt>
      <trkpt lat="48.71096" lon="1.85859">
        <ele>180.6</ele>
        <time>2024-03-14T16:31:09Z</time>
      </trkpt>
      <trkpt lat="48.7109" lon="1.85853">
        <ele>180.6</ele>
        <time>2024-03-14T16:31:10Z</time>
      </trkpt>
      <trkpt lat="48.71085" lon="1.85848">
        <ele>180.6</ele>
        <time>2024-03-14T16:31:11Z</time>
      </trkpt>
      <trkpt lat="48.71079" lon="1.85842">
        <ele>181.2</ele>
        <time>2024-03-14T16:31:12Z</time>
      </trkpt>
      <trkpt lat="48.71074" lon="1.85836">
        <ele>181</ele>
        <time>2024-03-14T16:31:13Z</time>
      </trkpt>
      <trkpt lat="48.71068" lon="1.8583">
        <ele>181</ele>
        <time>2024-03-14T16:31:14Z</time>
      </trkpt>
      <trkpt lat="48.71063" lon="1.85825">
        <ele>181</ele>
        <time>2024-03-14T16:31:15Z</time>
      </trkpt>
      <trkpt lat="48.71058" lon="1.85819">
        <ele>181.2</ele>
        <time>2024-03-14T16:31:16Z</time>
      </trkpt>
      <trkpt lat="48.71053" lon="1.85813">
        <ele>181.2</ele>
        <time>2024-03-14T16:31:17Z</time>
      </trkpt>
      <trkpt lat="48.71047" lon="1.85807">
        <ele>181.2</ele>
        <time>2024-03-14T16:31:18Z</time>
      </trkpt>
      <trkpt lat="48.71042" lon="1.85801">
        <ele>181.2</ele>
        <time>2024-03-14T16:31:19Z</time>
      </trkpt>
      <trkpt lat="48.71037" lon="1.85796">
        <ele>181.2</ele>
        <time>2024-03-14T16:31:20Z</time>
      </trkpt>
      <trkpt lat="48.71032" lon="1.8579">
        <ele>181.2</ele>
        <time>2024-03-14T16:31:21Z</time>
      </trkpt>
      <trkpt lat="48.71027" lon="1.85785">
        <ele>181.2</ele>
        <time>2024-03-14T16:31:22Z</time>
      </trkpt>
      <trkpt lat="48.71022" lon="1.8578">
        <ele>181.2</ele>
        <time>2024-03-14T16:31:23Z</time>
      </trkpt>
      <trkpt lat="48.71017" lon="1.85775">
        <ele>182.2</ele>
        <time>2024-03-14T16:31:24Z</time>
      </trkpt>
      <trkpt lat="48.71014" lon="1.85771">
        <ele>184</ele>
        <time>2024-03-14T16:31:25Z</time>
      </trkpt>
      <trkpt lat="48.71012" lon="1.85768">
        <ele>184</ele>
        <time>2024-03-14T16:31:26Z</time>
      </trkpt>
      <trkpt lat="48.71011" lon="1.85766">
        <ele>184</ele>
        <time>2024-03-14T16:31:27Z</time>
      </trkpt>
      <trkpt lat="48.71011" lon="1.85766">
        <ele>184.6</ele>
        <time>2024-03-14T16:31:28Z</time>
      </trkpt>
      <trkpt lat="48.71011" lon="1.85766">
        <ele>184.4</ele>
        <time>2024-03-14T16:31:29Z</time>
      </trkpt>
      <trkpt lat="48.71011" lon="1.85766">
        <ele>184.4</ele>
        <time>2024-03-14T16:31:30Z</time>
      </trkpt>
      <trkpt lat="48.71006" lon="1.85761">
        <ele>184.2</ele>
        <time>2024-03-14T16:32:19Z</time>
      </trkpt>
      <trkpt lat="48.71005" lon="1.85758">
        <ele>183.6</ele>
        <time>2024-03-14T16:32:20Z</time>
      </trkpt>
      <trkpt lat="48.71002" lon="1.85756">
        <ele>183.2</ele>
        <time>2024-03-14T16:32:21Z</time>
      </trkpt>
      <trkpt lat="48.71" lon="1.85753">
        <ele>183.2</ele>
        <time>2024-03-14T16:32:22Z</time>
      </trkpt>
      <trkpt lat="48.70997" lon="1.85751">
        <ele>183.2</ele>
        <time>2024-03-14T16:32:23Z</time>
      </trkpt>
      <trkpt lat="48.70994" lon="1.85747">
        <ele>182.2</ele>
        <time>2024-03-14T16:32:24Z</time>
      </trkpt>
      <trkpt lat="48.7099" lon="1.85744">
        <ele>181.4</ele>
        <time>2024-03-14T16:32:25Z</time>
      </trkpt>
      <trkpt lat="48.70987" lon="1.8574">
        <ele>181.4</ele>
        <time>2024-03-14T16:32:26Z</time>
      </trkpt>
      <trkpt lat="48.70983" lon="1.85736">
        <ele>181.4</ele>
        <time>2024-03-14T16:32:27Z</time>
      </trkpt>
      <trkpt lat="48.70979" lon="1.85732">
        <ele>181.4</ele>
        <time>2024-03-14T16:32:28Z</time>
      </trkpt>
      <trkpt lat="48.70974" lon="1.85727">
        <ele>182.4</ele>
        <time>2024-03-14T16:32:29Z</time>
      </trkpt>
      <trkpt lat="48.7097" lon="1.85723">
        <ele>182.4</ele>
        <time>2024-03-14T16:32:30Z</time>
      </trkpt>
      <trkpt lat="48.70966" lon="1.85718">
        <ele>182.4</ele>
        <time>2024-03-14T16:32:31Z</time>
      </trkpt>
      <trkpt lat="48.70961" lon="1.85713">
        <ele>181.8</ele>
        <time>2024-03-14T16:32:32Z</time>
      </trkpt>
      <trkpt lat="48.70956" lon="1.85708">
        <ele>181.6</ele>
        <time>2024-03-14T16:32:33Z</time>
      </trkpt>
      <trkpt lat="48.70952" lon="1.85702">
        <ele>181.6</ele>
        <time>2024-03-14T16:32:34Z</time>
      </trkpt>
      <trkpt lat="48.70947" lon="1.85697">
        <ele>181.6</ele>
        <time>2024-03-14T16:32:35Z</time>
      </trkpt>
      <trkpt lat="48.70942" lon="1.85692">
        <ele>181.6</ele>
        <time>2024-03-14T16:32:36Z</time>
      </trkpt>
      <trkpt lat="48.70937" lon="1.85687">
        <ele>181.6</ele>
        <time>2024-03-14T16:32:37Z</time>
      </trkpt>
      <trkpt lat="48.70932" lon="1.85682">
        <ele>181.6</ele>
        <time>2024-03-14T16:32:38Z</time>
      </trkpt>
      <trkpt lat="48.70927" lon="1.85676">
        <ele>181.6</ele>
        <time>2024-03-14T16:32:39Z</time>
      </trkpt>
      <trkpt lat="48.70922" lon="1.85671">
        <ele>182.6</ele>
        <time>2024-03-14T16:32:40Z</time>
      </trkpt>
      <trkpt lat="48.70917" lon="1.85665">
        <ele>182.2</ele>
        <time>2024-03-14T16:32:41Z</time>
      </trkpt>
      <trkpt lat="48.70912" lon="1.8566">
        <ele>182.2</ele>
        <time>2024-03-14T16:32:42Z</time>
      </trkpt>
      <trkpt lat="48.70907" lon="1.85654">
        <ele>182.2</ele>
        <time>2024-03-14T16:32:43Z</time>
      </trkpt>
      <trkpt lat="48.70902" lon="1.85648">
        <ele>182.2</ele>
        <time>2024-03-14T16:32:44Z</time>
      </trkpt>
      <trkpt lat="48.70897" lon="1.85643">
        <ele>180.6</ele>
        <time>2024-03-14T16:32:45Z</time>
      </trkpt>
      <trkpt lat="48.70891" lon="1.85637">
        <ele>180.6</ele>
        <time>2024-03-14T16:32:46Z</time>
      </trkpt>
      <trkpt lat="48.70886" lon="1.85631">
        <ele>180.6</ele>
        <time>2024-03-14T16:32:47Z</time>
      </trkpt>
      <trkpt lat="48.70881" lon="1.85626">
        <ele>180.6</ele>
        <time>2024-03-14T16:32:48Z</time>
      </trkpt>
      <trkpt lat="48.70876" lon="1.85621">
        <ele>181.2</ele>
        <time>2024-03-14T16:32:49Z</time>
      </trkpt>
      <trkpt lat="48.70871" lon="1.85615">
        <ele>181.2</ele>
        <time>2024-03-14T16:32:50Z</time>
      </trkpt>
      <trkpt lat="48.70865" lon="1.85609">
        <ele>181.2</ele>
        <time>2024-03-14T16:32:51Z</time>
      </trkpt>
      <trkpt lat="48.7086" lon="1.85604">
        <ele>182</ele>
        <time>2024-03-14T16:32:52Z</time>
      </trkpt>
      <trkpt lat="48.70855" lon="1.85598">
        <ele>182</ele>
        <time>2024-03-14T16:32:53Z</time>
      </trkpt>
      <trkpt lat="48.7085" lon="1.85592">
        <ele>182</ele>
        <time>2024-03-14T16:32:54Z</time>
      </trkpt>
      <trkpt lat="48.70844" lon="1.85586">
        <ele>182</ele>
        <time>2024-03-14T16:32:55Z</time>
      </trkpt>
      <trkpt lat="48.70839" lon="1.85581">
        <ele>182</ele>
        <time>2024-03-14T16:32:56Z</time>
      </trkpt>
      <trkpt lat="48.70834" lon="1.85575">
        <ele>181.4</ele>
        <time>2024-03-14T16:32:57Z</time>
      </trkpt>
      <trkpt lat="48.70829" lon="1.8557">
        <ele>181.4</ele>
        <time>2024-03-14T16:32:58Z</time>
      </trkpt>
      <trkpt lat="48.70824" lon="1.85565">
        <ele>181.4</ele>
        <time>2024-03-14T16:32:59Z</time>
      </trkpt>
      <trkpt lat="48.70819" lon="1.85559">
        <ele>181.4</ele>
        <time>2024-03-14T16:33:00Z</time>
      </trkpt>
      <trkpt lat="48.70814" lon="1.85554">
        <ele>182</ele>
        <time>2024-03-14T16:33:01Z</time>
      </trkpt>
      <trkpt lat="48.70809" lon="1.85548">
        <ele>182</ele>
        <time>2024-03-14T16:33:02Z</time>
      </trkpt>
      <trkpt lat="48.70804" lon="1.85542">
        <ele>182</ele>
        <time>2024-03-14T16:33:03Z</time>
      </trkpt>
      <trkpt lat="48.70799" lon="1.85537">
        <ele>182</ele>
        <time>2024-03-14T16:33:04Z</time>
      </trkpt>
      <trkpt lat="48.70794" lon="1.85531">
        <ele>181.8</ele>
        <time>2024-03-14T16:33:05Z</time>
      </trkpt>
      <trkpt lat="48.70788" lon="1.85525">
        <ele>181.8</ele>
        <time>2024-03-14T16:33:06Z</time>
      </trkpt>
      <trkpt lat="48.70783" lon="1.85519">
        <ele>181.8</ele>
        <time>2024-03-14T16:33:07Z</time>
      </trkpt>
      <trkpt lat="48.70776" lon="1.85514">
        <ele>180.8</ele>
        <time>2024-03-14T16:33:08Z</time>
      </trkpt>
      <trkpt lat="48.7077" lon="1.8551">
        <ele>180.8</ele>
        <time>2024-03-14T16:33:09Z</time>
      </trkpt>
      <trkpt lat="48.70762" lon="1.85508">
        <ele>180.8</ele>
        <time>2024-03-14T16:33:10Z</time>
      </trkpt>
      <trkpt lat="48.70755" lon="1.85509">
        <ele>180.8</ele>
        <time>2024-03-14T16:33:11Z</time>
      </trkpt>
      <trkpt lat="48.70748" lon="1.8551">
        <ele>180.8</ele>
        <time>2024-03-14T16:33:12Z</time>
      </trkpt>
      <trkpt lat="48.70742" lon="1.85514">
        <ele>181.2</ele>
        <time>2024-03-14T16:33:13Z</time>
      </trkpt>
      <trkpt lat="48.70736" lon="1.85518">
        <ele>181.2</ele>
        <time>2024-03-14T16:33:14Z</time>
      </trkpt>
      <trkpt lat="48.7073" lon="1.85523">
        <ele>181.2</ele>
        <time>2024-03-14T16:33:15Z</time>
      </trkpt>
      <trkpt lat="48.70725" lon="1.85528">
        <ele>181.2</ele>
        <time>2024-03-14T16:33:16Z</time>
      </trkpt>
      <trkpt lat="48.7072" lon="1.85533">
        <ele>182.4</ele>
        <time>2024-03-14T16:33:17Z</time>
      </trkpt>
      <trkpt lat="48.70715" lon="1.85538">
        <ele>182.4</ele>
        <time>2024-03-14T16:33:18Z</time>
      </trkpt>
      <trkpt lat="48.70711" lon="1.85543">
        <ele>182.4</ele>
        <time>2024-03-14T16:33:19Z</time>
      </trkpt>
      <trkpt lat="48.70706" lon="1.85548">
        <ele>183.4</ele>
        <time>2024-03-14T16:33:20Z</time>
      </trkpt>
      <trkpt lat="48.70701" lon="1.85553">
        <ele>183.6</ele>
        <time>2024-03-14T16:33:21Z</time>
      </trkpt>
      <trkpt lat="48.70697" lon="1.85558">
        <ele>183.6</ele>
        <time>2024-03-14T16:33:22Z</time>
      </trkpt>
      <trkpt lat="48.70692" lon="1.85562">
        <ele>183.6</ele>
        <time>2024-03-14T16:33:23Z</time>
      </trkpt>
      <trkpt lat="48.70688" lon="1.85567">
        <ele>184.6</ele>
        <time>2024-03-14T16:33:24Z</time>
      </trkpt>
      <trkpt lat="48.70684" lon="1.85572">
        <ele>184.8</ele>
        <time>2024-03-14T16:33:25Z</time>
      </trkpt>
      <trkpt lat="48.70679" lon="1.85577">
        <ele>184.8</ele>
        <time>2024-03-14T16:33:26Z</time>
      </trkpt>
      <trkpt lat="48.70675" lon="1.85581">
        <ele>184.8</ele>
        <time>2024-03-14T16:33:27Z</time>
      </trkpt>
      <trkpt lat="48.70671" lon="1.85585">
        <ele>185</ele>
        <time>2024-03-14T16:33:28Z</time>
      </trkpt>
      <trkpt lat="48.70667" lon="1.85589">
        <ele>185.4</ele>
        <time>2024-03-14T16:33:29Z</time>
      </trkpt>
      <trkpt lat="48.70663" lon="1.85592">
        <ele>185.4</ele>
        <time>2024-03-14T16:33:30Z</time>
      </trkpt>
      <trkpt lat="48.70659" lon="1.85596">
        <ele>185.4</ele>
        <time>2024-03-14T16:33:31Z</time>
      </trkpt>
      <trkpt lat="48.70655" lon="1.85601">
        <ele>186.4</ele>
        <time>2024-03-14T16:33:32Z</time>
      </trkpt>
      <trkpt lat="48.70651" lon="1.85605">
        <ele>187</ele>
        <time>2024-03-14T16:33:33Z</time>
      </trkpt>
      <trkpt lat="48.70647" lon="1.85609">
        <ele>187</ele>
        <time>2024-03-14T16:33:34Z</time>
      </trkpt>
      <trkpt lat="48.70643" lon="1.85613">
        <ele>187</ele>
        <time>2024-03-14T16:33:35Z</time>
      </trkpt>
      <trkpt lat="48.70639" lon="1.85617">
        <ele>187</ele>
        <time>2024-03-14T16:33:36Z</time>
      </trkpt>
      <trkpt lat="48.70635" lon="1.85622">
        <ele>187.2</ele>
        <time>2024-03-14T16:33:37Z</time>
      </trkpt>
      <trkpt lat="48.70631" lon="1.85626">
        <ele>187.2</ele>
        <time>2024-03-14T16:33:38Z</time>
      </trkpt>
      <trkpt lat="48.70627" lon="1.85631">
        <ele>187.2</ele>
        <time>2024-03-14T16:33:39Z</time>
      </trkpt>
      <trkpt lat="48.70622" lon="1.85636">
        <ele>187.6</ele>
        <time>2024-03-14T16:33:40Z</time>
      </trkpt>
      <trkpt lat="48.70618" lon="1.85641">
        <ele>187.6</ele>
        <time>2024-03-14T16:33:41Z</time>
      </trkpt>
      <trkpt lat="48.70614" lon="1.85645">
        <ele>187.6</ele>
        <time>2024-03-14T16:33:42Z</time>
      </trkpt>
      <trkpt lat="48.70609" lon="1.8565">
        <ele>187.6</ele>
        <time>2024-03-14T16:33:43Z</time>
      </trkpt>
      <trkpt lat="48.70605" lon="1.85655">
        <ele>187.6</ele>
        <time>2024-03-14T16:33:44Z</time>
      </trkpt>
      <trkpt lat="48.706" lon="1.8566">
        <ele>188.2</ele>
        <time>2024-03-14T16:33:45Z</time>
      </trkpt>
      <trkpt lat="48.70596" lon="1.85665">
        <ele>188.2</ele>
        <time>2024-03-14T16:33:46Z</time>
      </trkpt>
      <trkpt lat="48.70591" lon="1.8567">
        <ele>188.2</ele>
        <time>2024-03-14T16:33:47Z</time>
      </trkpt>
      <trkpt lat="48.70586" lon="1.85675">
        <ele>187.2</ele>
        <time>2024-03-14T16:33:48Z</time>
      </trkpt>
      <trkpt lat="48.70582" lon="1.8568">
        <ele>186.8</ele>
        <time>2024-03-14T16:33:49Z</time>
      </trkpt>
      <trkpt lat="48.70577" lon="1.85685">
        <ele>186.8</ele>
        <time>2024-03-14T16:33:50Z</time>
      </trkpt>
      <trkpt lat="48.70573" lon="1.85689">
        <ele>186.8</ele>
        <time>2024-03-14T16:33:51Z</time>
      </trkpt>
      <trkpt lat="48.70568" lon="1.85695">
        <ele>186.8</ele>
        <time>2024-03-14T16:33:52Z</time>
      </trkpt>
      <trkpt lat="48.70563" lon="1.857">
        <ele>186.4</ele>
        <time>2024-03-14T16:33:53Z</time>
      </trkpt>
      <trkpt lat="48.70558" lon="1.85705">
        <ele>186.4</ele>
        <time>2024-03-14T16:33:54Z</time>
      </trkpt>
      <trkpt lat="48.70553" lon="1.8571">
        <ele>186.4</ele>
        <time>2024-03-14T16:33:55Z</time>
      </trkpt>
      <trkpt lat="48.70548" lon="1.85716">
        <ele>185.8</ele>
        <time>2024-03-14T16:33:56Z</time>
      </trkpt>
      <trkpt lat="48.70543" lon="1.85721">
        <ele>186.4</ele>
        <time>2024-03-14T16:33:57Z</time>
      </trkpt>
      <trkpt lat="48.70538" lon="1.85727">
        <ele>186.4</ele>
        <time>2024-03-14T16:33:58Z</time>
      </trkpt>
      <trkpt lat="48.70532" lon="1.85734">
        <ele>186.4</ele>
        <time>2024-03-14T16:33:59Z</time>
      </trkpt>
      <trkpt lat="48.70527" lon="1.8574">
        <ele>185.6</ele>
        <time>2024-03-14T16:34:00Z</time>
      </trkpt>
      <trkpt lat="48.70521" lon="1.85747">
        <ele>185.8</ele>
        <time>2024-03-14T16:34:01Z</time>
      </trkpt>
      <trkpt lat="48.70516" lon="1.85754">
        <ele>185.8</ele>
        <time>2024-03-14T16:34:02Z</time>
      </trkpt>
      <trkpt lat="48.7051" lon="1.85761">
        <ele>185.8</ele>
        <time>2024-03-14T16:34:03Z</time>
      </trkpt>
      <trkpt lat="48.70504" lon="1.85768">
        <ele>184.8</ele>
        <time>2024-03-14T16:34:04Z</time>
      </trkpt>
      <trkpt lat="48.70499" lon="1.85775">
        <ele>184.4</ele>
        <time>2024-03-14T16:34:05Z</time>
      </trkpt>
      <trkpt lat="48.70493" lon="1.85781">
        <ele>184.4</ele>
        <time>2024-03-14T16:34:06Z</time>
      </trkpt>
      <trkpt lat="48.70487" lon="1.85788">
        <ele>184.4</ele>
        <time>2024-03-14T16:34:07Z</time>
      </trkpt>
      <trkpt lat="48.70481" lon="1.85795">
        <ele>184.4</ele>
        <time>2024-03-14T16:34:08Z</time>
      </trkpt>
      <trkpt lat="48.70475" lon="1.85802">
        <ele>184.8</ele>
        <time>2024-03-14T16:34:09Z</time>
      </trkpt>
      <trkpt lat="48.7047" lon="1.85809">
        <ele>184.8</ele>
        <time>2024-03-14T16:34:10Z</time>
      </trkpt>
      <trkpt lat="48.70464" lon="1.85816">
        <ele>184.8</ele>
        <time>2024-03-14T16:34:11Z</time>
      </trkpt>
      <trkpt lat="48.70458" lon="1.85823">
        <ele>185.6</ele>
        <time>2024-03-14T16:34:12Z</time>
      </trkpt>
      <trkpt lat="48.70452" lon="1.8583">
        <ele>185.4</ele>
        <time>2024-03-14T16:34:13Z</time>
      </trkpt>
      <trkpt lat="48.70446" lon="1.85836">
        <ele>185.4</ele>
        <time>2024-03-14T16:34:14Z</time>
      </trkpt>
      <trkpt lat="48.7044" lon="1.85843">
        <ele>185.4</ele>
        <time>2024-03-14T16:34:15Z</time>
      </trkpt>
      <trkpt lat="48.70434" lon="1.8585">
        <ele>184.4</ele>
        <time>2024-03-14T16:34:16Z</time>
      </trkpt>
      <trkpt lat="48.70428" lon="1.85857">
        <ele>184.2</ele>
        <time>2024-03-14T16:34:17Z</time>
      </trkpt>
      <trkpt lat="48.70422" lon="1.85864">
        <ele>184.2</ele>
        <time>2024-03-14T16:34:18Z</time>
      </trkpt>
      <trkpt lat="48.70416" lon="1.85871">
        <ele>184.2</ele>
        <time>2024-03-14T16:34:19Z</time>
      </trkpt>
      <trkpt lat="48.70411" lon="1.85878">
        <ele>184.6</ele>
        <time>2024-03-14T16:34:20Z</time>
      </trkpt>
      <trkpt lat="48.70405" lon="1.85885">
        <ele>183</ele>
        <time>2024-03-14T16:34:21Z</time>
      </trkpt>
      <trkpt lat="48.70399" lon="1.85892">
        <ele>183</ele>
        <time>2024-03-14T16:34:22Z</time>
      </trkpt>
      <trkpt lat="48.70393" lon="1.85899">
        <ele>183</ele>
        <time>2024-03-14T16:34:23Z</time>
      </trkpt>
      <trkpt lat="48.70387" lon="1.85905">
        <ele>183.4</ele>
        <time>2024-03-14T16:34:24Z</time>
      </trkpt>
      <trkpt lat="48.70381" lon="1.85912">
        <ele>183.4</ele>
        <time>2024-03-14T16:34:25Z</time>
      </trkpt>
      <trkpt lat="48.70375" lon="1.85919">
        <ele>183.4</ele>
        <time>2024-03-14T16:34:26Z</time>
      </trkpt>
      <trkpt lat="48.7037" lon="1.85925">
        <ele>183.4</ele>
        <time>2024-03-14T16:34:27Z</time>
      </trkpt>
      <trkpt lat="48.70364" lon="1.85932">
        <ele>183.4</ele>
        <time>2024-03-14T16:34:28Z</time>
      </trkpt>
      <trkpt lat="48.70358" lon="1.85938">
        <ele>183.2</ele>
        <time>2024-03-14T16:34:29Z</time>
      </trkpt>
      <trkpt lat="48.70352" lon="1.85945">
        <ele>183.2</ele>
        <time>2024-03-14T16:34:30Z</time>
      </trkpt>
      <trkpt lat="48.70347" lon="1.85952">
        <ele>183.2</ele>
        <time>2024-03-14T16:34:31Z</time>
      </trkpt>
      <trkpt lat="48.70341" lon="1.85959">
        <ele>183.4</ele>
        <time>2024-03-14T16:34:32Z</time>
      </trkpt>
      <trkpt lat="48.70335" lon="1.85966">
        <ele>183</ele>
        <time>2024-03-14T16:34:33Z</time>
      </trkpt>
      <trkpt lat="48.70329" lon="1.85972">
        <ele>183</ele>
        <time>2024-03-14T16:34:34Z</time>
      </trkpt>
      <trkpt lat="48.70323" lon="1.85979">
        <ele>183</ele>
        <time>2024-03-14T16:34:35Z</time>
      </trkpt>
      <trkpt lat="48.70317" lon="1.85985">
        <ele>182.2</ele>
        <time>2024-03-14T16:34:36Z</time>
      </trkpt>
      <trkpt lat="48.70312" lon="1.85992">
        <ele>182.4</ele>
        <time>2024-03-14T16:34:37Z</time>
      </trkpt>
      <trkpt lat="48.70306" lon="1.85999">
        <ele>182.4</ele>
        <time>2024-03-14T16:34:38Z</time>
      </trkpt>
      <trkpt lat="48.703" lon="1.86005">
        <ele>182.4</ele>
        <time>2024-03-14T16:34:39Z</time>
      </trkpt>
      <trkpt lat="48.70294" lon="1.86012">
        <ele>182.4</ele>
        <time>2024-03-14T16:34:40Z</time>
      </trkpt>
      <trkpt lat="48.70288" lon="1.86019">
        <ele>183.4</ele>
        <time>2024-03-14T16:34:41Z</time>
      </trkpt>
      <trkpt lat="48.70283" lon="1.86025">
        <ele>183.4</ele>
        <time>2024-03-14T16:34:42Z</time>
      </trkpt>
      <trkpt lat="48.70277" lon="1.86032">
        <ele>183.4</ele>
        <time>2024-03-14T16:34:43Z</time>
      </trkpt>
      <trkpt lat="48.70271" lon="1.86039">
        <ele>182.4</ele>
        <time>2024-03-14T16:34:44Z</time>
      </trkpt>
      <trkpt lat="48.70265" lon="1.86045">
        <ele>182.8</ele>
        <time>2024-03-14T16:34:45Z</time>
      </trkpt>
      <trkpt lat="48.70259" lon="1.86052">
        <ele>182.8</ele>
        <time>2024-03-14T16:34:46Z</time>
      </trkpt>
      <trkpt lat="48.70254" lon="1.86058">
        <ele>182.8</ele>
        <time>2024-03-14T16:34:47Z</time>
      </trkpt>
      <trkpt lat="48.70248" lon="1.86065">
        <ele>182.8</ele>
        <time>2024-03-14T16:34:48Z</time>
      </trkpt>
      <trkpt lat="48.70243" lon="1.86071">
        <ele>182.2</ele>
        <time>2024-03-14T16:34:49Z</time>
      </trkpt>
      <trkpt lat="48.70237" lon="1.86078">
        <ele>182.2</ele>
        <time>2024-03-14T16:34:50Z</time>
      </trkpt>
      <trkpt lat="48.70231" lon="1.86084">
        <ele>182.2</ele>
        <time>2024-03-14T16:34:51Z</time>
      </trkpt>
      <trkpt lat="48.70226" lon="1.86091">
        <ele>182.8</ele>
        <time>2024-03-14T16:34:52Z</time>
      </trkpt>
      <trkpt lat="48.7022" lon="1.86097">
        <ele>182.4</ele>
        <time>2024-03-14T16:34:53Z</time>
      </trkpt>
      <trkpt lat="48.70214" lon="1.86104">
        <ele>182.4</ele>
        <time>2024-03-14T16:34:54Z</time>
      </trkpt>
      <trkpt lat="48.70209" lon="1.8611">
        <ele>182.4</ele>
        <time>2024-03-14T16:34:55Z</time>
      </trkpt>
      <trkpt lat="48.70203" lon="1.86116">
        <ele>182.4</ele>
        <time>2024-03-14T16:34:56Z</time>
      </trkpt>
      <trkpt lat="48.70198" lon="1.86122">
        <ele>183</ele>
        <time>2024-03-14T16:34:57Z</time>
      </trkpt>
      <trkpt lat="48.70192" lon="1.86128">
        <ele>183</ele>
        <time>2024-03-14T16:34:58Z</time>
      </trkpt>
      <trkpt lat="48.70187" lon="1.86134">
        <ele>183</ele>
        <time>2024-03-14T16:34:59Z</time>
      </trkpt>
      <trkpt lat="48.70181" lon="1.8614">
        <ele>184</ele>
        <time>2024-03-14T16:35:00Z</time>
      </trkpt>
      <trkpt lat="48.70176" lon="1.86145">
        <ele>184.6</ele>
        <time>2024-03-14T16:35:01Z</time>
      </trkpt>
      <trkpt lat="48.7017" lon="1.8615">
        <ele>184.6</ele>
        <time>2024-03-14T16:35:02Z</time>
      </trkpt>
      <trkpt lat="48.70165" lon="1.86155">
        <ele>184.6</ele>
        <time>2024-03-14T16:35:03Z</time>
      </trkpt>
      <trkpt lat="48.70159" lon="1.8616">
        <ele>184.6</ele>
        <time>2024-03-14T16:35:04Z</time>
      </trkpt>
      <trkpt lat="48.70155" lon="1.86164">
        <ele>184.6</ele>
        <time>2024-03-14T16:35:05Z</time>
      </trkpt>
      <trkpt lat="48.7015" lon="1.86167">
        <ele>184.6</ele>
        <time>2024-03-14T16:35:06Z</time>
      </trkpt>
      <trkpt lat="48.70145" lon="1.86168">
        <ele>184.6</ele>
        <time>2024-03-14T16:35:07Z</time>
      </trkpt>
      <trkpt lat="48.70141" lon="1.86167">
        <ele>184.6</ele>
        <time>2024-03-14T16:35:08Z</time>
      </trkpt>
      <trkpt lat="48.70136" lon="1.86166">
        <ele>184.2</ele>
        <time>2024-03-14T16:35:09Z</time>
      </trkpt>
      <trkpt lat="48.70132" lon="1.86166">
        <ele>184.2</ele>
        <time>2024-03-14T16:35:10Z</time>
      </trkpt>
      <trkpt lat="48.70127" lon="1.86169">
        <ele>184.2</ele>
        <time>2024-03-14T16:35:11Z</time>
      </trkpt>
      <trkpt lat="48.70123" lon="1.86174">
        <ele>184.8</ele>
        <time>2024-03-14T16:35:12Z</time>
      </trkpt>
      <trkpt lat="48.70119" lon="1.86179">
        <ele>186.4</ele>
        <time>2024-03-14T16:35:13Z</time>
      </trkpt>
      <trkpt lat="48.70116" lon="1.86184">
        <ele>186.4</ele>
        <time>2024-03-14T16:35:14Z</time>
      </trkpt>
      <trkpt lat="48.70113" lon="1.86189">
        <ele>186.4</ele>
        <time>2024-03-14T16:35:15Z</time>
      </trkpt>
      <trkpt lat="48.7011" lon="1.86194">
        <ele>187.2</ele>
        <time>2024-03-14T16:35:16Z</time>
      </trkpt>
      <trkpt lat="48.70106" lon="1.862">
        <ele>187.2</ele>
        <time>2024-03-14T16:35:17Z</time>
      </trkpt>
      <trkpt lat="48.70101" lon="1.86205">
        <ele>187.2</ele>
        <time>2024-03-14T16:35:18Z</time>
      </trkpt>
      <trkpt lat="48.70096" lon="1.8621">
        <ele>187.2</ele>
        <time>2024-03-14T16:35:19Z</time>
      </trkpt>
      <trkpt lat="48.7009" lon="1.86215">
        <ele>186.2</ele>
        <time>2024-03-14T16:35:20Z</time>
      </trkpt>
      <trkpt lat="48.70083" lon="1.8622">
        <ele>182.4</ele>
        <time>2024-03-14T16:35:21Z</time>
      </trkpt>
      <trkpt lat="48.70077" lon="1.86226">
        <ele>182.4</ele>
        <time>2024-03-14T16:35:22Z</time>
      </trkpt>
      <trkpt lat="48.7007" lon="1.86231">
        <ele>182.4</ele>
        <time>2024-03-14T16:35:23Z</time>
      </trkpt>
      <trkpt lat="48.70063" lon="1.86237">
        <ele>182.4</ele>
        <time>2024-03-14T16:35:24Z</time>
      </trkpt>
      <trkpt lat="48.70057" lon="1.86242">
        <ele>181.8</ele>
        <time>2024-03-14T16:35:25Z</time>
      </trkpt>
      <trkpt lat="48.7005" lon="1.86248">
        <ele>181.8</ele>
        <time>2024-03-14T16:35:26Z</time>
      </trkpt>
      <trkpt lat="48.70043" lon="1.86253">
        <ele>181.8</ele>
        <time>2024-03-14T16:35:27Z</time>
      </trkpt>
      <trkpt lat="48.70037" lon="1.86259">
        <ele>182.4</ele>
        <time>2024-03-14T16:35:28Z</time>
      </trkpt>
      <trkpt lat="48.7003" lon="1.86264">
        <ele>182.6</ele>
        <time>2024-03-14T16:35:29Z</time>
      </trkpt>
      <trkpt lat="48.70024" lon="1.8627">
        <ele>182.6</ele>
        <time>2024-03-14T16:35:30Z</time>
      </trkpt>
      <trkpt lat="48.70018" lon="1.86275">
        <ele>182.6</ele>
        <time>2024-03-14T16:35:31Z</time>
      </trkpt>
      <trkpt lat="48.70011" lon="1.8628">
        <ele>182.6</ele>
        <time>2024-03-14T16:35:32Z</time>
      </trkpt>
      <trkpt lat="48.70005" lon="1.86285">
        <ele>183.6</ele>
        <time>2024-03-14T16:35:33Z</time>
      </trkpt>
      <trkpt lat="48.69999" lon="1.8629">
        <ele>183.6</ele>
        <time>2024-03-14T16:35:34Z</time>
      </trkpt>
      <trkpt lat="48.69993" lon="1.86295">
        <ele>183.6</ele>
        <time>2024-03-14T16:35:35Z</time>
      </trkpt>
      <trkpt lat="48.69987" lon="1.863">
        <ele>183.6</ele>
        <time>2024-03-14T16:35:36Z</time>
      </trkpt>
      <trkpt lat="48.69981" lon="1.86304">
        <ele>184</ele>
        <time>2024-03-14T16:35:37Z</time>
      </trkpt>
      <trkpt lat="48.69975" lon="1.86309">
        <ele>184</ele>
        <time>2024-03-14T16:35:38Z</time>
      </trkpt>
      <trkpt lat="48.69969" lon="1.86314">
        <ele>184</ele>
        <time>2024-03-14T16:35:39Z</time>
      </trkpt>
      <trkpt lat="48.69963" lon="1.86319">
        <ele>183.2</ele>
        <time>2024-03-14T16:35:40Z</time>
      </trkpt>
      <trkpt lat="48.69957" lon="1.86324">
        <ele>182.8</ele>
        <time>2024-03-14T16:35:41Z</time>
      </trkpt>
      <trkpt lat="48.69951" lon="1.86329">
        <ele>182.8</ele>
        <time>2024-03-14T16:35:42Z</time>
      </trkpt>
      <trkpt lat="48.69945" lon="1.86334">
        <ele>182.8</ele>
        <time>2024-03-14T16:35:43Z</time>
      </trkpt>
      <trkpt lat="48.69939" lon="1.86339">
        <ele>183</ele>
        <time>2024-03-14T16:35:44Z</time>
      </trkpt>
      <trkpt lat="48.69933" lon="1.86344">
        <ele>183.4</ele>
        <time>2024-03-14T16:35:45Z</time>
      </trkpt>
      <trkpt lat="48.69927" lon="1.86349">
        <ele>183.4</ele>
        <time>2024-03-14T16:35:46Z</time>
      </trkpt>
      <trkpt lat="48.6992" lon="1.86354">
        <ele>183.4</ele>
        <time>2024-03-14T16:35:47Z</time>
      </trkpt>
      <trkpt lat="48.69914" lon="1.8636">
        <ele>183.4</ele>
        <time>2024-03-14T16:35:48Z</time>
      </trkpt>
      <trkpt lat="48.69908" lon="1.86365">
        <ele>182.4</ele>
        <time>2024-03-14T16:35:49Z</time>
      </trkpt>
      <trkpt lat="48.69903" lon="1.86369">
        <ele>182.4</ele>
        <time>2024-03-14T16:35:50Z</time>
      </trkpt>
      <trkpt lat="48.69897" lon="1.86374">
        <ele>182.4</ele>
        <time>2024-03-14T16:35:51Z</time>
      </trkpt>
      <trkpt lat="48.69892" lon="1.86378">
        <ele>183.4</ele>
        <time>2024-03-14T16:35:52Z</time>
      </trkpt>
      <trkpt lat="48.69886" lon="1.86382">
        <ele>184</ele>
        <time>2024-03-14T16:35:53Z</time>
      </trkpt>
      <trkpt lat="48.69882" lon="1.86386">
        <ele>184</ele>
        <time>2024-03-14T16:35:54Z</time>
      </trkpt>
      <trkpt lat="48.69878" lon="1.86389">
        <ele>184</ele>
        <time>2024-03-14T16:35:55Z</time>
      </trkpt>
      <trkpt lat="48.69875" lon="1.8639">
        <ele>185</ele>
        <time>2024-03-14T16:35:56Z</time>
      </trkpt>
      <trkpt lat="48.69873" lon="1.86388">
        <ele>185.4</ele>
        <time>2024-03-14T16:35:57Z</time>
      </trkpt>
      <trkpt lat="48.69871" lon="1.86384">
        <ele>185.4</ele>
        <time>2024-03-14T16:35:58Z</time>
      </trkpt>
      <trkpt lat="48.6987" lon="1.8638">
        <ele>185.4</ele>
        <time>2024-03-14T16:35:59Z</time>
      </trkpt>
      <trkpt lat="48.69869" lon="1.86375">
        <ele>185</ele>
        <time>2024-03-14T16:36:00Z</time>
      </trkpt>
      <trkpt lat="48.69868" lon="1.86369">
        <ele>184.2</ele>
        <time>2024-03-14T16:36:01Z</time>
      </trkpt>
      <trkpt lat="48.69867" lon="1.86364">
        <ele>184.2</ele>
        <time>2024-03-14T16:36:02Z</time>
      </trkpt>
      <trkpt lat="48.69866" lon="1.86357">
        <ele>184.2</ele>
        <time>2024-03-14T16:36:03Z</time>
      </trkpt>
      <trkpt lat="48.69864" lon="1.86351">
        <ele>184.2</ele>
        <time>2024-03-14T16:36:04Z</time>
      </trkpt>
      <trkpt lat="48.69862" lon="1.86344">
        <ele>184</ele>
        <time>2024-03-14T16:36:05Z</time>
      </trkpt>
      <trkpt lat="48.69861" lon="1.86337">
        <ele>184</ele>
        <time>2024-03-14T16:36:06Z</time>
      </trkpt>
      <trkpt lat="48.69858" lon="1.86329">
        <ele>184</ele>
        <time>2024-03-14T16:36:07Z</time>
      </trkpt>
      <trkpt lat="48.69856" lon="1.86321">
        <ele>183</ele>
        <time>2024-03-14T16:36:08Z</time>
      </trkpt>
      <trkpt lat="48.69854" lon="1.86313">
        <ele>183.4</ele>
        <time>2024-03-14T16:36:09Z</time>
      </trkpt>
      <trkpt lat="48.69852" lon="1.86305">
        <ele>183.4</ele>
        <time>2024-03-14T16:36:10Z</time>
      </trkpt>
      <trkpt lat="48.6985" lon="1.86298">
        <ele>183.4</ele>
        <time>2024-03-14T16:36:11Z</time>
      </trkpt>
      <trkpt lat="48.69847" lon="1.86291">
        <ele>183.2</ele>
        <time>2024-03-14T16:36:12Z</time>
      </trkpt>
      <trkpt lat="48.69844" lon="1.86283">
        <ele>183</ele>
        <time>2024-03-14T16:36:13Z</time>
      </trkpt>
      <trkpt lat="48.69842" lon="1.86275">
        <ele>183</ele>
        <time>2024-03-14T16:36:14Z</time>
      </trkpt>
      <trkpt lat="48.69839" lon="1.86266">
        <ele>183</ele>
        <time>2024-03-14T16:36:15Z</time>
      </trkpt>
      <trkpt lat="48.69836" lon="1.86257">
        <ele>183</ele>
        <time>2024-03-14T16:36:16Z</time>
      </trkpt>
      <trkpt lat="48.69834" lon="1.86249">
        <ele>182.2</ele>
        <time>2024-03-14T16:36:17Z</time>
      </trkpt>
      <trkpt lat="48.6983" lon="1.8624">
        <ele>182.2</ele>
        <time>2024-03-14T16:36:18Z</time>
      </trkpt>
      <trkpt lat="48.69827" lon="1.86232">
        <ele>182.2</ele>
        <time>2024-03-14T16:36:19Z</time>
      </trkpt>
      <trkpt lat="48.69824" lon="1.86224">
        <ele>182.2</ele>
        <time>2024-03-14T16:36:20Z</time>
      </trkpt>
      <trkpt lat="48.69821" lon="1.86215">
        <ele>182.2</ele>
        <time>2024-03-14T16:36:21Z</time>
      </trkpt>
      <trkpt lat="48.69817" lon="1.86207">
        <ele>182.2</ele>
        <time>2024-03-14T16:36:22Z</time>
      </trkpt>
      <trkpt lat="48.69814" lon="1.86199">
        <ele>182.2</ele>
        <time>2024-03-14T16:36:23Z</time>
      </trkpt>
      <trkpt lat="48.69811" lon="1.86191">
        <ele>182.6</ele>
        <time>2024-03-14T16:36:24Z</time>
      </trkpt>
      <trkpt lat="48.69807" lon="1.86182">
        <ele>182.2</ele>
        <time>2024-03-14T16:36:25Z</time>
      </trkpt>
      <trkpt lat="48.69804" lon="1.86174">
        <ele>182.2</ele>
        <time>2024-03-14T16:36:26Z</time>
      </trkpt>
      <trkpt lat="48.69801" lon="1.86166">
        <ele>182.2</ele>
        <time>2024-03-14T16:36:27Z</time>
      </trkpt>
      <trkpt lat="48.69798" lon="1.86158">
        <ele>181.2</ele>
        <time>2024-03-14T16:36:28Z</time>
      </trkpt>
      <trkpt lat="48.69795" lon="1.86149">
        <ele>180.6</ele>
        <time>2024-03-14T16:36:29Z</time>
      </trkpt>
      <trkpt lat="48.69792" lon="1.86141">
        <ele>180.6</ele>
        <time>2024-03-14T16:36:30Z</time>
      </trkpt>
      <trkpt lat="48.69789" lon="1.86133">
        <ele>180.6</ele>
        <time>2024-03-14T16:36:31Z</time>
      </trkpt>
      <trkpt lat="48.69787" lon="1.86124">
        <ele>180.8</ele>
        <time>2024-03-14T16:36:32Z</time>
      </trkpt>
      <trkpt lat="48.69784" lon="1.86115">
        <ele>181.6</ele>
        <time>2024-03-14T16:36:33Z</time>
      </trkpt>
      <trkpt lat="48.6978" lon="1.86106">
        <ele>181.6</ele>
        <time>2024-03-14T16:36:34Z</time>
      </trkpt>
      <trkpt lat="48.69776" lon="1.86098">
        <ele>181.6</ele>
        <time>2024-03-14T16:36:35Z</time>
      </trkpt>
      <trkpt lat="48.69772" lon="1.86089">
        <ele>180.6</ele>
        <time>2024-03-14T16:36:36Z</time>
      </trkpt>
      <trkpt lat="48.69769" lon="1.8608">
        <ele>180.8</ele>
        <time>2024-03-14T16:36:37Z</time>
      </trkpt>
      <trkpt lat="48.69765" lon="1.86071">
        <ele>180.8</ele>
        <time>2024-03-14T16:36:38Z</time>
      </trkpt>
      <trkpt lat="48.69762" lon="1.86063">
        <ele>180.8</ele>
        <time>2024-03-14T16:36:39Z</time>
      </trkpt>
      <trkpt lat="48.69759" lon="1.86054">
        <ele>180.8</ele>
        <time>2024-03-14T16:36:40Z</time>
      </trkpt>
      <trkpt lat="48.69756" lon="1.86044">
        <ele>181.2</ele>
        <time>2024-03-14T16:36:41Z</time>
      </trkpt>
      <trkpt lat="48.69753" lon="1.86034">
        <ele>181.2</ele>
        <time>2024-03-14T16:36:42Z</time>
      </trkpt>
      <trkpt lat="48.69751" lon="1.86024">
        <ele>181.2</ele>
        <time>2024-03-14T16:36:43Z</time>
      </trkpt>
      <trkpt lat="48.6975" lon="1.86014">
        <ele>181.2</ele>
        <time>2024-03-14T16:36:44Z</time>
      </trkpt>
      <trkpt lat="48.69749" lon="1.86003">
        <ele>180.2</ele>
        <time>2024-03-14T16:36:45Z</time>
      </trkpt>
      <trkpt lat="48.69748" lon="1.85993">
        <ele>180.2</ele>
        <time>2024-03-14T16:36:46Z</time>
      </trkpt>
      <trkpt lat="48.69749" lon="1.85983">
        <ele>180.2</ele>
        <time>2024-03-14T16:36:47Z</time>
      </trkpt>
      <trkpt lat="48.69749" lon="1.85973">
        <ele>180.6</ele>
        <time>2024-03-14T16:36:48Z</time>
      </trkpt>
      <trkpt lat="48.6975" lon="1.85963">
        <ele>180.6</ele>
        <time>2024-03-14T16:36:49Z</time>
      </trkpt>
      <trkpt lat="48.69751" lon="1.85953">
        <ele>180.6</ele>
        <time>2024-03-14T16:36:50Z</time>
      </trkpt>
      <trkpt lat="48.69753" lon="1.85943">
        <ele>180.6</ele>
        <time>2024-03-14T16:36:51Z</time>
      </trkpt>
      <trkpt lat="48.69754" lon="1.85934">
        <ele>180.6</ele>
        <time>2024-03-14T16:36:52Z</time>
      </trkpt>
      <trkpt lat="48.69755" lon="1.85924">
        <ele>180.8</ele>
        <time>2024-03-14T16:36:53Z</time>
      </trkpt>
      <trkpt lat="48.69755" lon="1.85915">
        <ele>180.8</ele>
        <time>2024-03-14T16:36:54Z</time>
      </trkpt>
      <trkpt lat="48.69756" lon="1.85905">
        <ele>180.8</ele>
        <time>2024-03-14T16:36:55Z</time>
      </trkpt>
      <trkpt lat="48.69754" lon="1.85896">
        <ele>180.8</ele>
        <time>2024-03-14T16:36:56Z</time>
      </trkpt>
      <trkpt lat="48.69751" lon="1.85887">
        <ele>181.2</ele>
        <time>2024-03-14T16:36:57Z</time>
      </trkpt>
      <trkpt lat="48.69747" lon="1.85881">
        <ele>181.2</ele>
        <time>2024-03-14T16:36:58Z</time>
      </trkpt>
      <trkpt lat="48.69742" lon="1.85876">
        <ele>181.2</ele>
        <time>2024-03-14T16:36:59Z</time>
      </trkpt>
      <trkpt lat="48.69736" lon="1.85872">
        <ele>181.2</ele>
        <time>2024-03-14T16:37:00Z</time>
      </trkpt>
      <trkpt lat="48.6973" lon="1.85867">
        <ele>180.2</ele>
        <time>2024-03-14T16:37:01Z</time>
      </trkpt>
      <trkpt lat="48.69725" lon="1.85863">
        <ele>180.2</ele>
        <time>2024-03-14T16:37:02Z</time>
      </trkpt>
      <trkpt lat="48.69719" lon="1.85859">
        <ele>180.2</ele>
        <time>2024-03-14T16:37:03Z</time>
      </trkpt>
      <trkpt lat="48.69714" lon="1.85855">
        <ele>180.2</ele>
        <time>2024-03-14T16:37:04Z</time>
      </trkpt>
      <trkpt lat="48.69709" lon="1.85851">
        <ele>180.6</ele>
        <time>2024-03-14T16:37:05Z</time>
      </trkpt>
      <trkpt lat="48.69703" lon="1.85847">
        <ele>180.6</ele>
        <time>2024-03-14T16:37:06Z</time>
      </trkpt>
      <trkpt lat="48.69697" lon="1.85844">
        <ele>180.6</ele>
        <time>2024-03-14T16:37:07Z</time>
      </trkpt>
      <trkpt lat="48.69692" lon="1.8584">
        <ele>180.6</ele>
        <time>2024-03-14T16:37:08Z</time>
      </trkpt>
      <trkpt lat="48.69686" lon="1.85837">
        <ele>180.4</ele>
        <time>2024-03-14T16:37:09Z</time>
      </trkpt>
      <trkpt lat="48.69681" lon="1.85833">
        <ele>180.4</ele>
        <time>2024-03-14T16:37:10Z</time>
      </trkpt>
      <trkpt lat="48.69675" lon="1.8583">
        <ele>180.4</ele>
        <time>2024-03-14T16:37:11Z</time>
      </trkpt>
      <trkpt lat="48.69669" lon="1.85827">
        <ele>180.4</ele>
        <time>2024-03-14T16:37:12Z</time>
      </trkpt>
      <trkpt lat="48.69664" lon="1.85823">
        <ele>181</ele>
        <time>2024-03-14T16:37:13Z</time>
      </trkpt>
      <trkpt lat="48.69658" lon="1.8582">
        <ele>181</ele>
        <time>2024-03-14T16:37:14Z</time>
      </trkpt>
      <trkpt lat="48.69653" lon="1.85816">
        <ele>181</ele>
        <time>2024-03-14T16:37:15Z</time>
      </trkpt>
      <trkpt lat="48.69647" lon="1.85813">
        <ele>181</ele>
        <time>2024-03-14T16:37:16Z</time>
      </trkpt>
      <trkpt lat="48.69641" lon="1.8581">
        <ele>181</ele>
        <time>2024-03-14T16:37:17Z</time>
      </trkpt>
      <trkpt lat="48.69636" lon="1.85807">
        <ele>181</ele>
        <time>2024-03-14T16:37:18Z</time>
      </trkpt>
      <trkpt lat="48.6963" lon="1.85804">
        <ele>181</ele>
        <time>2024-03-14T16:37:19Z</time>
      </trkpt>
      <trkpt lat="48.69624" lon="1.85801">
        <ele>181</ele>
        <time>2024-03-14T16:37:20Z</time>
      </trkpt>
      <trkpt lat="48.69619" lon="1.85798">
        <ele>181.4</ele>
        <time>2024-03-14T16:37:21Z</time>
      </trkpt>
      <trkpt lat="48.69613" lon="1.85795">
        <ele>181.4</ele>
        <time>2024-03-14T16:37:22Z</time>
      </trkpt>
      <trkpt lat="48.69607" lon="1.85792">
        <ele>181.4</ele>
        <time>2024-03-14T16:37:23Z</time>
      </trkpt>
      <trkpt lat="48.69602" lon="1.85789">
        <ele>181.4</ele>
        <time>2024-03-14T16:37:24Z</time>
      </trkpt>
      <trkpt lat="48.69596" lon="1.85786">
        <ele>181.4</ele>
        <time>2024-03-14T16:37:25Z</time>
      </trkpt>
      <trkpt lat="48.6959" lon="1.85782">
        <ele>181.4</ele>
        <time>2024-03-14T16:37:26Z</time>
      </trkpt>
      <trkpt lat="48.69584" lon="1.85779">
        <ele>181.4</ele>
        <time>2024-03-14T16:37:27Z</time>
      </trkpt>
      <trkpt lat="48.69579" lon="1.85777">
        <ele>180.4</ele>
        <time>2024-03-14T16:37:28Z</time>
      </trkpt>
      <trkpt lat="48.69573" lon="1.85774">
        <ele>180</ele>
        <time>2024-03-14T16:37:29Z</time>
      </trkpt>
      <trkpt lat="48.69567" lon="1.85771">
        <ele>180</ele>
        <time>2024-03-14T16:37:30Z</time>
      </trkpt>
      <trkpt lat="48.69562" lon="1.85768">
        <ele>180</ele>
        <time>2024-03-14T16:37:31Z</time>
      </trkpt>
      <trkpt lat="48.69556" lon="1.85765">
        <ele>181</ele>
        <time>2024-03-14T16:37:32Z</time>
      </trkpt>
      <trkpt lat="48.6955" lon="1.85763">
        <ele>180.6</ele>
        <time>2024-03-14T16:37:33Z</time>
      </trkpt>
      <trkpt lat="48.69544" lon="1.8576">
        <ele>180.6</ele>
        <time>2024-03-14T16:37:34Z</time>
      </trkpt>
      <trkpt lat="48.69539" lon="1.85758">
        <ele>180.6</ele>
        <time>2024-03-14T16:37:35Z</time>
      </trkpt>
      <trkpt lat="48.69533" lon="1.85755">
        <ele>180.6</ele>
        <time>2024-03-14T16:37:36Z</time>
      </trkpt>
      <trkpt lat="48.69528" lon="1.85752">
        <ele>181.4</ele>
        <time>2024-03-14T16:37:37Z</time>
      </trkpt>
      <trkpt lat="48.69522" lon="1.8575">
        <ele>181.4</ele>
        <time>2024-03-14T16:37:38Z</time>
      </trkpt>
      <trkpt lat="48.69516" lon="1.85747">
        <ele>181.4</ele>
        <time>2024-03-14T16:37:39Z</time>
      </trkpt>
      <trkpt lat="48.69511" lon="1.85744">
        <ele>181</ele>
        <time>2024-03-14T16:37:40Z</time>
      </trkpt>
      <trkpt lat="48.69505" lon="1.85742">
        <ele>180.8</ele>
        <time>2024-03-14T16:37:41Z</time>
      </trkpt>
      <trkpt lat="48.695" lon="1.8574">
        <ele>180.8</ele>
        <time>2024-03-14T16:37:42Z</time>
      </trkpt>
      <trkpt lat="48.69494" lon="1.85737">
        <ele>180.8</ele>
        <time>2024-03-14T16:37:43Z</time>
      </trkpt>
      <trkpt lat="48.69488" lon="1.85735">
        <ele>180.8</ele>
        <time>2024-03-14T16:37:44Z</time>
      </trkpt>
      <trkpt lat="48.69483" lon="1.85733">
        <ele>181.2</ele>
        <time>2024-03-14T16:37:45Z</time>
      </trkpt>
      <trkpt lat="48.69477" lon="1.85731">
        <ele>181.2</ele>
        <time>2024-03-14T16:37:46Z</time>
      </trkpt>
      <trkpt lat="48.69472" lon="1.85728">
        <ele>181.2</ele>
        <time>2024-03-14T16:37:47Z</time>
      </trkpt>
      <trkpt lat="48.69466" lon="1.85726">
        <ele>181.2</ele>
        <time>2024-03-14T16:37:48Z</time>
      </trkpt>
      <trkpt lat="48.69461" lon="1.85724">
        <ele>181.8</ele>
        <time>2024-03-14T16:37:49Z</time>
      </trkpt>
      <trkpt lat="48.69455" lon="1.85722">
        <ele>181.8</ele>
        <time>2024-03-14T16:37:50Z</time>
      </trkpt>
      <trkpt lat="48.69449" lon="1.8572">
        <ele>181.8</ele>
        <time>2024-03-14T16:37:51Z</time>
      </trkpt>
      <trkpt lat="48.69444" lon="1.85718">
        <ele>181.8</ele>
        <time>2024-03-14T16:37:52Z</time>
      </trkpt>
      <trkpt lat="48.69438" lon="1.85716">
        <ele>182.4</ele>
        <time>2024-03-14T16:37:53Z</time>
      </trkpt>
      <trkpt lat="48.69432" lon="1.85714">
        <ele>182.4</ele>
        <time>2024-03-14T16:37:54Z</time>
      </trkpt>
      <trkpt lat="48.69426" lon="1.85712">
        <ele>182.4</ele>
        <time>2024-03-14T16:37:55Z</time>
      </trkpt>
      <trkpt lat="48.69421" lon="1.8571">
        <ele>181.8</ele>
        <time>2024-03-14T16:37:56Z</time>
      </trkpt>
      <trkpt lat="48.69415" lon="1.85708">
        <ele>181</ele>
        <time>2024-03-14T16:37:57Z</time>
      </trkpt>
      <trkpt lat="48.69409" lon="1.85706">
        <ele>181</ele>
        <time>2024-03-14T16:37:58Z</time>
      </trkpt>
      <trkpt lat="48.69404" lon="1.85704">
        <ele>181</ele>
        <time>2024-03-14T16:37:59Z</time>
      </trkpt>
      <trkpt lat="48.69398" lon="1.85702">
        <ele>181</ele>
        <time>2024-03-14T16:38:00Z</time>
      </trkpt>
      <trkpt lat="48.69393" lon="1.85701">
        <ele>182.4</ele>
        <time>2024-03-14T16:38:01Z</time>
      </trkpt>
      <trkpt lat="48.69388" lon="1.857">
        <ele>182.4</ele>
        <time>2024-03-14T16:38:02Z</time>
      </trkpt>
      <trkpt lat="48.69383" lon="1.85701">
        <ele>182.4</ele>
        <time>2024-03-14T16:38:03Z</time>
      </trkpt>
      <trkpt lat="48.6938" lon="1.85705">
        <ele>182.4</ele>
        <time>2024-03-14T16:38:04Z</time>
      </trkpt>
      <trkpt lat="48.69377" lon="1.85711">
        <ele>183</ele>
        <time>2024-03-14T16:38:05Z</time>
      </trkpt>
      <trkpt lat="48.69375" lon="1.85718">
        <ele>183</ele>
        <time>2024-03-14T16:38:06Z</time>
      </trkpt>
      <trkpt lat="48.69372" lon="1.85726">
        <ele>183</ele>
        <time>2024-03-14T16:38:07Z</time>
      </trkpt>
      <trkpt lat="48.69369" lon="1.85733">
        <ele>183</ele>
        <time>2024-03-14T16:38:08Z</time>
      </trkpt>
      <trkpt lat="48.69366" lon="1.85741">
        <ele>184</ele>
        <time>2024-03-14T16:38:09Z</time>
      </trkpt>
      <trkpt lat="48.69362" lon="1.85749">
        <ele>184</ele>
        <time>2024-03-14T16:38:10Z</time>
      </trkpt>
      <trkpt lat="48.69359" lon="1.85757">
        <ele>184</ele>
        <time>2024-03-14T16:38:11Z</time>
      </trkpt>
      <trkpt lat="48.69355" lon="1.85765">
        <ele>183</ele>
        <time>2024-03-14T16:38:12Z</time>
      </trkpt>
      <trkpt lat="48.69352" lon="1.85773">
        <ele>182.4</ele>
        <time>2024-03-14T16:38:13Z</time>
      </trkpt>
      <trkpt lat="48.69349" lon="1.85781">
        <ele>182.4</ele>
        <time>2024-03-14T16:38:14Z</time>
      </trkpt>
      <trkpt lat="48.69346" lon="1.85789">
        <ele>182.4</ele>
        <time>2024-03-14T16:38:15Z</time>
      </trkpt>
      <trkpt lat="48.69343" lon="1.85798">
        <ele>182.4</ele>
        <time>2024-03-14T16:38:16Z</time>
      </trkpt>
      <trkpt lat="48.6934" lon="1.85806">
        <ele>181.8</ele>
        <time>2024-03-14T16:38:17Z</time>
      </trkpt>
      <trkpt lat="48.69337" lon="1.85814">
        <ele>181.8</ele>
        <time>2024-03-14T16:38:18Z</time>
      </trkpt>
      <trkpt lat="48.69334" lon="1.85823">
        <ele>181.8</ele>
        <time>2024-03-14T16:38:19Z</time>
      </trkpt>
      <trkpt lat="48.69333" lon="1.85833">
        <ele>181.8</ele>
        <time>2024-03-14T16:38:20Z</time>
      </trkpt>
      <trkpt lat="48.69333" lon="1.85842">
        <ele>182.2</ele>
        <time>2024-03-14T16:38:21Z</time>
      </trkpt>
      <trkpt lat="48.69333" lon="1.85852">
        <ele>182.2</ele>
        <time>2024-03-14T16:38:22Z</time>
      </trkpt>
      <trkpt lat="48.69333" lon="1.85862">
        <ele>182.2</ele>
        <time>2024-03-14T16:38:23Z</time>
      </trkpt>
      <trkpt lat="48.69332" lon="1.85872">
        <ele>182.2</ele>
        <time>2024-03-14T16:38:24Z</time>
      </trkpt>
      <trkpt lat="48.69332" lon="1.85882">
        <ele>181.8</ele>
        <time>2024-03-14T16:38:25Z</time>
      </trkpt>
      <trkpt lat="48.69332" lon="1.85892">
        <ele>181.8</ele>
        <time>2024-03-14T16:38:26Z</time>
      </trkpt>
      <trkpt lat="48.69332" lon="1.85902">
        <ele>181.8</ele>
        <time>2024-03-14T16:38:27Z</time>
      </trkpt>
      <trkpt lat="48.69332" lon="1.85912">
        <ele>182.2</ele>
        <time>2024-03-14T16:38:28Z</time>
      </trkpt>
      <trkpt lat="48.69332" lon="1.85922">
        <ele>182.4</ele>
        <time>2024-03-14T16:38:29Z</time>
      </trkpt>
      <trkpt lat="48.69332" lon="1.85932">
        <ele>182.4</ele>
        <time>2024-03-14T16:38:30Z</time>
      </trkpt>
      <trkpt lat="48.69332" lon="1.85943">
        <ele>182.4</ele>
        <time>2024-03-14T16:38:31Z</time>
      </trkpt>
      <trkpt lat="48.69332" lon="1.85953">
        <ele>182</ele>
        <time>2024-03-14T16:38:32Z</time>
      </trkpt>
      <trkpt lat="48.69332" lon="1.85963">
        <ele>182</ele>
        <time>2024-03-14T16:38:33Z</time>
      </trkpt>
      <trkpt lat="48.69332" lon="1.85973">
        <ele>182</ele>
        <time>2024-03-14T16:38:34Z</time>
      </trkpt>
      <trkpt lat="48.69332" lon="1.85984">
        <ele>182</ele>
        <time>2024-03-14T16:38:35Z</time>
      </trkpt>
      <trkpt lat="48.69331" lon="1.85994">
        <ele>182</ele>
        <time>2024-03-14T16:38:36Z</time>
      </trkpt>
      <trkpt lat="48.69331" lon="1.86004">
        <ele>182.6</ele>
        <time>2024-03-14T16:38:37Z</time>
      </trkpt>
      <trkpt lat="48.69331" lon="1.86014">
        <ele>182.6</ele>
        <time>2024-03-14T16:38:38Z</time>
      </trkpt>
      <trkpt lat="48.69331" lon="1.86024">
        <ele>182.6</ele>
        <time>2024-03-14T16:38:39Z</time>
      </trkpt>
      <trkpt lat="48.69331" lon="1.86034">
        <ele>182.6</ele>
        <time>2024-03-14T16:38:40Z</time>
      </trkpt>
      <trkpt lat="48.69331" lon="1.86045">
        <ele>182.4</ele>
        <time>2024-03-14T16:38:41Z</time>
      </trkpt>
      <trkpt lat="48.69331" lon="1.86055">
        <ele>182.4</ele>
        <time>2024-03-14T16:38:42Z</time>
      </trkpt>
      <trkpt lat="48.69331" lon="1.86065">
        <ele>182.4</ele>
        <time>2024-03-14T16:38:43Z</time>
      </trkpt>
      <trkpt lat="48.69331" lon="1.86075">
        <ele>182.4</ele>
        <time>2024-03-14T16:38:44Z</time>
      </trkpt>
      <trkpt lat="48.6933" lon="1.86085">
        <ele>182.8</ele>
        <time>2024-03-14T16:38:45Z</time>
      </trkpt>
      <trkpt lat="48.6933" lon="1.86096">
        <ele>182.8</ele>
        <time>2024-03-14T16:38:46Z</time>
      </trkpt>
      <trkpt lat="48.6933" lon="1.86107">
        <ele>182.8</ele>
        <time>2024-03-14T16:38:47Z</time>
      </trkpt>
      <trkpt lat="48.6933" lon="1.86117">
        <ele>182.8</ele>
        <time>2024-03-14T16:38:48Z</time>
      </trkpt>
      <trkpt lat="48.6933" lon="1.86126">
        <ele>182</ele>
        <time>2024-03-14T16:38:49Z</time>
      </trkpt>
      <trkpt lat="48.69331" lon="1.86136">
        <ele>182</ele>
        <time>2024-03-14T16:38:50Z</time>
      </trkpt>
      <trkpt lat="48.69331" lon="1.86146">
        <ele>182</ele>
        <time>2024-03-14T16:38:51Z</time>
      </trkpt>
      <trkpt lat="48.69331" lon="1.86156">
        <ele>182</ele>
        <time>2024-03-14T16:38:52Z</time>
      </trkpt>
      <trkpt lat="48.69331" lon="1.86166">
        <ele>181.6</ele>
        <time>2024-03-14T16:38:53Z</time>
      </trkpt>
      <trkpt lat="48.69331" lon="1.86177">
        <ele>181.6</ele>
        <time>2024-03-14T16:38:54Z</time>
      </trkpt>
      <trkpt lat="48.69331" lon="1.86188">
        <ele>181.6</ele>
        <time>2024-03-14T16:38:55Z</time>
      </trkpt>
      <trkpt lat="48.69332" lon="1.86198">
        <ele>182.6</ele>
        <time>2024-03-14T16:38:56Z</time>
      </trkpt>
      <trkpt lat="48.69332" lon="1.86209">
        <ele>182.8</ele>
        <time>2024-03-14T16:38:57Z</time>
      </trkpt>
      <trkpt lat="48.69332" lon="1.86219">
        <ele>182.8</ele>
        <time>2024-03-14T16:38:58Z</time>
      </trkpt>
      <trkpt lat="48.69332" lon="1.8623">
        <ele>182.8</ele>
        <time>2024-03-14T16:38:59Z</time>
      </trkpt>
      <trkpt lat="48.69332" lon="1.86241">
        <ele>181.8</ele>
        <time>2024-03-14T16:39:00Z</time>
      </trkpt>
      <trkpt lat="48.69332" lon="1.86252">
        <ele>181.2</ele>
        <time>2024-03-14T16:39:01Z</time>
      </trkpt>
      <trkpt lat="48.69332" lon="1.86263">
        <ele>181.2</ele>
        <time>2024-03-14T16:39:02Z</time>
      </trkpt>
      <trkpt lat="48.69332" lon="1.86274">
        <ele>181.2</ele>
        <time>2024-03-14T16:39:03Z</time>
      </trkpt>
      <trkpt lat="48.69332" lon="1.86285">
        <ele>181.2</ele>
        <time>2024-03-14T16:39:04Z</time>
      </trkpt>
      <trkpt lat="48.69332" lon="1.86296">
        <ele>181.2</ele>
        <time>2024-03-14T16:39:05Z</time>
      </trkpt>
      <trkpt lat="48.69332" lon="1.86307">
        <ele>181.2</ele>
        <time>2024-03-14T16:39:06Z</time>
      </trkpt>
      <trkpt lat="48.69331" lon="1.86318">
        <ele>181.2</ele>
        <time>2024-03-14T16:39:07Z</time>
      </trkpt>
      <trkpt lat="48.69331" lon="1.86329">
        <ele>181.2</ele>
        <time>2024-03-14T16:39:08Z</time>
      </trkpt>
      <trkpt lat="48.69331" lon="1.8634">
        <ele>182.4</ele>
        <time>2024-03-14T16:39:09Z</time>
      </trkpt>
      <trkpt lat="48.69331" lon="1.86352">
        <ele>182.4</ele>
        <time>2024-03-14T16:39:10Z</time>
      </trkpt>
      <trkpt lat="48.69331" lon="1.86363">
        <ele>182.4</ele>
        <time>2024-03-14T16:39:11Z</time>
      </trkpt>
      <trkpt lat="48.69331" lon="1.86374">
        <ele>181.8</ele>
        <time>2024-03-14T16:39:12Z</time>
      </trkpt>
      <trkpt lat="48.69331" lon="1.86385">
        <ele>182.2</ele>
        <time>2024-03-14T16:39:13Z</time>
      </trkpt>
      <trkpt lat="48.69331" lon="1.86396">
        <ele>182.2</ele>
        <time>2024-03-14T16:39:14Z</time>
      </trkpt>
      <trkpt lat="48.69332" lon="1.86408">
        <ele>182.2</ele>
        <time>2024-03-14T16:39:15Z</time>
      </trkpt>
      <trkpt lat="48.69332" lon="1.86419">
        <ele>181.6</ele>
        <time>2024-03-14T16:39:16Z</time>
      </trkpt>
      <trkpt lat="48.69333" lon="1.8643">
        <ele>181.4</ele>
        <time>2024-03-14T16:39:17Z</time>
      </trkpt>
      <trkpt lat="48.69333" lon="1.86442">
        <ele>181.4</ele>
        <time>2024-03-14T16:39:18Z</time>
      </trkpt>
      <trkpt lat="48.69333" lon="1.86453">
        <ele>181.4</ele>
        <time>2024-03-14T16:39:19Z</time>
      </trkpt>
      <trkpt lat="48.69333" lon="1.86465">
        <ele>180.6</ele>
        <time>2024-03-14T16:39:20Z</time>
      </trkpt>
      <trkpt lat="48.69333" lon="1.86476">
        <ele>180.2</ele>
        <time>2024-03-14T16:39:21Z</time>
      </trkpt>
      <trkpt lat="48.69333" lon="1.86488">
        <ele>180.2</ele>
        <time>2024-03-14T16:39:22Z</time>
      </trkpt>
      <trkpt lat="48.69334" lon="1.86499">
        <ele>180.2</ele>
        <time>2024-03-14T16:39:23Z</time>
      </trkpt>
      <trkpt lat="48.69334" lon="1.8651">
        <ele>180.2</ele>
        <time>2024-03-14T16:39:24Z</time>
      </trkpt>
      <trkpt lat="48.69334" lon="1.86521">
        <ele>181.6</ele>
        <time>2024-03-14T16:39:25Z</time>
      </trkpt>
      <trkpt lat="48.69334" lon="1.86532">
        <ele>181.6</ele>
        <time>2024-03-14T16:39:26Z</time>
      </trkpt>
      <trkpt lat="48.69334" lon="1.86544">
        <ele>181.6</ele>
        <time>2024-03-14T16:39:27Z</time>
      </trkpt>
      <trkpt lat="48.69334" lon="1.86554">
        <ele>180.8</ele>
        <time>2024-03-14T16:39:28Z</time>
      </trkpt>
      <trkpt lat="48.69334" lon="1.86565">
        <ele>180.6</ele>
        <time>2024-03-14T16:39:29Z</time>
      </trkpt>
      <trkpt lat="48.69335" lon="1.86576">
        <ele>180.6</ele>
        <time>2024-03-14T16:39:30Z</time>
      </trkpt>
      <trkpt lat="48.69335" lon="1.86586">
        <ele>180.6</ele>
        <time>2024-03-14T16:39:31Z</time>
      </trkpt>
      <trkpt lat="48.69335" lon="1.86597">
        <ele>180.6</ele>
        <time>2024-03-14T16:39:32Z</time>
      </trkpt>
      <trkpt lat="48.69334" lon="1.86608">
        <ele>180.6</ele>
        <time>2024-03-14T16:39:33Z</time>
      </trkpt>
      <trkpt lat="48.69334" lon="1.86619">
        <ele>180.6</ele>
        <time>2024-03-14T16:39:34Z</time>
      </trkpt>
      <trkpt lat="48.69334" lon="1.86629">
        <ele>180.6</ele>
        <time>2024-03-14T16:39:35Z</time>
      </trkpt>
      <trkpt lat="48.69334" lon="1.86639">
        <ele>180</ele>
        <time>2024-03-14T16:39:36Z</time>
      </trkpt>
      <trkpt lat="48.69334" lon="1.86651">
        <ele>180.2</ele>
        <time>2024-03-14T16:39:37Z</time>
      </trkpt>
      <trkpt lat="48.69334" lon="1.86662">
        <ele>180.2</ele>
        <time>2024-03-14T16:39:38Z</time>
      </trkpt>
      <trkpt lat="48.69333" lon="1.86674">
        <ele>180.2</ele>
        <time>2024-03-14T16:39:39Z</time>
      </trkpt>
      <trkpt lat="48.69333" lon="1.86686">
        <ele>179.8</ele>
        <time>2024-03-14T16:39:40Z</time>
      </trkpt>
      <trkpt lat="48.69333" lon="1.86698">
        <ele>179.4</ele>
        <time>2024-03-14T16:39:41Z</time>
      </trkpt>
      <trkpt lat="48.69333" lon="1.86709">
        <ele>179.4</ele>
        <time>2024-03-14T16:39:42Z</time>
      </trkpt>
      <trkpt lat="48.69333" lon="1.86721">
        <ele>179.4</ele>
        <time>2024-03-14T16:39:43Z</time>
      </trkpt>
      <trkpt lat="48.69333" lon="1.86733">
        <ele>179.4</ele>
        <time>2024-03-14T16:39:44Z</time>
      </trkpt>
      <trkpt lat="48.69334" lon="1.86745">
        <ele>179</ele>
        <time>2024-03-14T16:39:45Z</time>
      </trkpt>
      <trkpt lat="48.69334" lon="1.86757">
        <ele>179</ele>
        <time>2024-03-14T16:39:46Z</time>
      </trkpt>
      <trkpt lat="48.69334" lon="1.86769">
        <ele>179</ele>
        <time>2024-03-14T16:39:47Z</time>
      </trkpt>
      <trkpt lat="48.69333" lon="1.86781">
        <ele>179</ele>
        <time>2024-03-14T16:39:48Z</time>
      </trkpt>
      <trkpt lat="48.69333" lon="1.86792">
        <ele>179</ele>
        <time>2024-03-14T16:39:49Z</time>
      </trkpt>
      <trkpt lat="48.69333" lon="1.86804">
        <ele>179</ele>
        <time>2024-03-14T16:39:50Z</time>
      </trkpt>
      <trkpt lat="48.69333" lon="1.86815">
        <ele>179</ele>
        <time>2024-03-14T16:39:51Z</time>
      </trkpt>
      <trkpt lat="48.69333" lon="1.86827">
        <ele>178</ele>
        <time>2024-03-14T16:39:52Z</time>
      </trkpt>
      <trkpt lat="48.69332" lon="1.86837">
        <ele>178.6</ele>
        <time>2024-03-14T16:39:53Z</time>
      </trkpt>
      <trkpt lat="48.69332" lon="1.86848">
        <ele>178.6</ele>
        <time>2024-03-14T16:39:54Z</time>
      </trkpt>
      <trkpt lat="48.69332" lon="1.86859">
        <ele>178.6</ele>
        <time>2024-03-14T16:39:55Z</time>
      </trkpt>
      <trkpt lat="48.69332" lon="1.86871">
        <ele>178.6</ele>
        <time>2024-03-14T16:39:56Z</time>
      </trkpt>
      <trkpt lat="48.69332" lon="1.86883">
        <ele>178.8</ele>
        <time>2024-03-14T16:39:57Z</time>
      </trkpt>
      <trkpt lat="48.69333" lon="1.86895">
        <ele>178.8</ele>
        <time>2024-03-14T16:39:58Z</time>
      </trkpt>
      <trkpt lat="48.69333" lon="1.86907">
        <ele>178.8</ele>
        <time>2024-03-14T16:39:59Z</time>
      </trkpt>
      <trkpt lat="48.69334" lon="1.86919">
        <ele>178</ele>
        <time>2024-03-14T16:40:00Z</time>
      </trkpt>
      <trkpt lat="48.69335" lon="1.86931">
        <ele>178</ele>
        <time>2024-03-14T16:40:01Z</time>
      </trkpt>
      <trkpt lat="48.69337" lon="1.86943">
        <ele>178</ele>
        <time>2024-03-14T16:40:02Z</time>
      </trkpt>
      <trkpt lat="48.69338" lon="1.86955">
        <ele>178</ele>
        <time>2024-03-14T16:40:03Z</time>
      </trkpt>
      <trkpt lat="48.69339" lon="1.86967">
        <ele>178</ele>
        <time>2024-03-14T16:40:04Z</time>
      </trkpt>
      <trkpt lat="48.69341" lon="1.86979">
        <ele>177.6</ele>
        <time>2024-03-14T16:40:05Z</time>
      </trkpt>
      <trkpt lat="48.69342" lon="1.86991">
        <ele>177.6</ele>
        <time>2024-03-14T16:40:06Z</time>
      </trkpt>
      <trkpt lat="48.69344" lon="1.87004">
        <ele>177.6</ele>
        <time>2024-03-14T16:40:07Z</time>
      </trkpt>
      <trkpt lat="48.69345" lon="1.87015">
        <ele>177.6</ele>
        <time>2024-03-14T16:40:08Z</time>
      </trkpt>
      <trkpt lat="48.69347" lon="1.87025">
        <ele>177.6</ele>
        <time>2024-03-14T16:40:09Z</time>
      </trkpt>
      <trkpt lat="48.69348" lon="1.87036">
        <ele>177.6</ele>
        <time>2024-03-14T16:40:10Z</time>
      </trkpt>
      <trkpt lat="48.6935" lon="1.87045">
        <ele>177.6</ele>
        <time>2024-03-14T16:40:11Z</time>
      </trkpt>
      <trkpt lat="48.69351" lon="1.87056">
        <ele>177.6</ele>
        <time>2024-03-14T16:40:12Z</time>
      </trkpt>
      <trkpt lat="48.69352" lon="1.87066">
        <ele>177.8</ele>
        <time>2024-03-14T16:40:13Z</time>
      </trkpt>
      <trkpt lat="48.69353" lon="1.87078">
        <ele>177.8</ele>
        <time>2024-03-14T16:40:14Z</time>
      </trkpt>
      <trkpt lat="48.69353" lon="1.8709">
        <ele>177.8</ele>
        <time>2024-03-14T16:40:15Z</time>
      </trkpt>
      <trkpt lat="48.69354" lon="1.87101">
        <ele>177.8</ele>
        <time>2024-03-14T16:40:16Z</time>
      </trkpt>
      <trkpt lat="48.69356" lon="1.87113">
        <ele>178</ele>
        <time>2024-03-14T16:40:17Z</time>
      </trkpt>
      <trkpt lat="48.69357" lon="1.87124">
        <ele>178</ele>
        <time>2024-03-14T16:40:18Z</time>
      </trkpt>
      <trkpt lat="48.69358" lon="1.87135">
        <ele>178</ele>
        <time>2024-03-14T16:40:19Z</time>
      </trkpt>
      <trkpt lat="48.69359" lon="1.87145">
        <ele>178</ele>
        <time>2024-03-14T16:40:20Z</time>
      </trkpt>
      <trkpt lat="48.6936" lon="1.87155">
        <ele>179</ele>
        <time>2024-03-14T16:40:21Z</time>
      </trkpt>
      <trkpt lat="48.69361" lon="1.87166">
        <ele>179</ele>
        <time>2024-03-14T16:40:22Z</time>
      </trkpt>
      <trkpt lat="48.69363" lon="1.87177">
        <ele>179</ele>
        <time>2024-03-14T16:40:23Z</time>
      </trkpt>
      <trkpt lat="48.69364" lon="1.87187">
        <ele>179</ele>
        <time>2024-03-14T16:40:24Z</time>
      </trkpt>
      <trkpt lat="48.69363" lon="1.87197">
        <ele>179.2</ele>
        <time>2024-03-14T16:40:25Z</time>
      </trkpt>
      <trkpt lat="48.69365" lon="1.87206">
        <ele>179.2</ele>
        <time>2024-03-14T16:40:26Z</time>
      </trkpt>
      <trkpt lat="48.69366" lon="1.87216">
        <ele>179.2</ele>
        <time>2024-03-14T16:40:27Z</time>
      </trkpt>
      <trkpt lat="48.69367" lon="1.87227">
        <ele>179.6</ele>
        <time>2024-03-14T16:40:28Z</time>
      </trkpt>
      <trkpt lat="48.69368" lon="1.87238">
        <ele>179.4</ele>
        <time>2024-03-14T16:40:29Z</time>
      </trkpt>
      <trkpt lat="48.6937" lon="1.87249">
        <ele>179.4</ele>
        <time>2024-03-14T16:40:30Z</time>
      </trkpt>
      <trkpt lat="48.69371" lon="1.8726">
        <ele>179.4</ele>
        <time>2024-03-14T16:40:31Z</time>
      </trkpt>
      <trkpt lat="48.69373" lon="1.87271">
        <ele>179.8</ele>
        <time>2024-03-14T16:40:32Z</time>
      </trkpt>
      <trkpt lat="48.69374" lon="1.87281">
        <ele>180.2</ele>
        <time>2024-03-14T16:40:33Z</time>
      </trkpt>
      <trkpt lat="48.69376" lon="1.87292">
        <ele>180.2</ele>
        <time>2024-03-14T16:40:34Z</time>
      </trkpt>
      <trkpt lat="48.69377" lon="1.87304">
        <ele>180.2</ele>
        <time>2024-03-14T16:40:35Z</time>
      </trkpt>
      <trkpt lat="48.69378" lon="1.87315">
        <ele>180</ele>
        <time>2024-03-14T16:40:36Z</time>
      </trkpt>
      <trkpt lat="48.6938" lon="1.87326">
        <ele>180</ele>
        <time>2024-03-14T16:40:37Z</time>
      </trkpt>
      <trkpt lat="48.69381" lon="1.87337">
        <ele>180</ele>
        <time>2024-03-14T16:40:38Z</time>
      </trkpt>
      <trkpt lat="48.69382" lon="1.87347">
        <ele>180</ele>
        <time>2024-03-14T16:40:39Z</time>
      </trkpt>
      <trkpt lat="48.69383" lon="1.87357">
        <ele>180</ele>
        <time>2024-03-14T16:40:40Z</time>
      </trkpt>
      <trkpt lat="48.69384" lon="1.87368">
        <ele>180.2</ele>
        <time>2024-03-14T16:40:41Z</time>
      </trkpt>
      <trkpt lat="48.69386" lon="1.87378">
        <ele>180.2</ele>
        <time>2024-03-14T16:40:42Z</time>
      </trkpt>
      <trkpt lat="48.69387" lon="1.87389">
        <ele>180.2</ele>
        <time>2024-03-14T16:40:43Z</time>
      </trkpt>
      <trkpt lat="48.69389" lon="1.874">
        <ele>180.2</ele>
        <time>2024-03-14T16:40:44Z</time>
      </trkpt>
      <trkpt lat="48.6939" lon="1.8741">
        <ele>180.4</ele>
        <time>2024-03-14T16:40:45Z</time>
      </trkpt>
      <trkpt lat="48.69392" lon="1.87421">
        <ele>180.4</ele>
        <time>2024-03-14T16:40:46Z</time>
      </trkpt>
      <trkpt lat="48.69394" lon="1.87431">
        <ele>180.4</ele>
        <time>2024-03-14T16:40:47Z</time>
      </trkpt>
      <trkpt lat="48.69395" lon="1.87442">
        <ele>180.4</ele>
        <time>2024-03-14T16:40:48Z</time>
      </trkpt>
      <trkpt lat="48.69397" lon="1.87453">
        <ele>180.4</ele>
        <time>2024-03-14T16:40:49Z</time>
      </trkpt>
      <trkpt lat="48.69399" lon="1.87464">
        <ele>180.4</ele>
        <time>2024-03-14T16:40:50Z</time>
      </trkpt>
      <trkpt lat="48.69401" lon="1.87474">
        <ele>180.4</ele>
        <time>2024-03-14T16:40:51Z</time>
      </trkpt>
      <trkpt lat="48.69402" lon="1.87485">
        <ele>180.4</ele>
        <time>2024-03-14T16:40:52Z</time>
      </trkpt>
      <trkpt lat="48.69404" lon="1.87496">
        <ele>180.6</ele>
        <time>2024-03-14T16:40:53Z</time>
      </trkpt>
      <trkpt lat="48.69406" lon="1.87507">
        <ele>180.6</ele>
        <time>2024-03-14T16:40:54Z</time>
      </trkpt>
      <trkpt lat="48.69408" lon="1.87517">
        <ele>180.6</ele>
        <time>2024-03-14T16:40:55Z</time>
      </trkpt>
      <trkpt lat="48.69409" lon="1.87528">
        <ele>180.6</ele>
        <time>2024-03-14T16:40:56Z</time>
      </trkpt>
      <trkpt lat="48.69411" lon="1.87539">
        <ele>180.4</ele>
        <time>2024-03-14T16:40:57Z</time>
      </trkpt>
      <trkpt lat="48.69412" lon="1.87549">
        <ele>180.4</ele>
        <time>2024-03-14T16:40:58Z</time>
      </trkpt>
      <trkpt lat="48.69414" lon="1.8756">
        <ele>180.4</ele>
        <time>2024-03-14T16:40:59Z</time>
      </trkpt>
      <trkpt lat="48.69415" lon="1.87571">
        <ele>180.4</ele>
        <time>2024-03-14T16:41:00Z</time>
      </trkpt>
      <trkpt lat="48.69417" lon="1.87582">
        <ele>180.8</ele>
        <time>2024-03-14T16:41:01Z</time>
      </trkpt>
      <trkpt lat="48.69418" lon="1.87593">
        <ele>180.8</ele>
        <time>2024-03-14T16:41:02Z</time>
      </trkpt>
      <trkpt lat="48.69419" lon="1.87604">
        <ele>180.8</ele>
        <time>2024-03-14T16:41:03Z</time>
      </trkpt>
      <trkpt lat="48.69421" lon="1.87614">
        <ele>180.8</ele>
        <time>2024-03-14T16:41:04Z</time>
      </trkpt>
      <trkpt lat="48.69423" lon="1.87625">
        <ele>180.6</ele>
        <time>2024-03-14T16:41:05Z</time>
      </trkpt>
      <trkpt lat="48.69425" lon="1.87636">
        <ele>180.6</ele>
        <time>2024-03-14T16:41:06Z</time>
      </trkpt>
      <trkpt lat="48.69428" lon="1.87646">
        <ele>180.6</ele>
        <time>2024-03-14T16:41:07Z</time>
      </trkpt>
      <trkpt lat="48.69431" lon="1.87657">
        <ele>180.8</ele>
        <time>2024-03-14T16:41:08Z</time>
      </trkpt>
      <trkpt lat="48.69433" lon="1.87667">
        <ele>180.6</ele>
        <time>2024-03-14T16:41:09Z</time>
      </trkpt>
      <trkpt lat="48.69437" lon="1.87677">
        <ele>180.6</ele>
        <time>2024-03-14T16:41:10Z</time>
      </trkpt>
      <trkpt lat="48.6944" lon="1.87686">
        <ele>180.6</ele>
        <time>2024-03-14T16:41:11Z</time>
      </trkpt>
      <trkpt lat="48.69443" lon="1.87696">
        <ele>180.6</ele>
        <time>2024-03-14T16:41:12Z</time>
      </trkpt>
      <trkpt lat="48.69447" lon="1.87706">
        <ele>181.2</ele>
        <time>2024-03-14T16:41:13Z</time>
      </trkpt>
      <trkpt lat="48.69451" lon="1.87715">
        <ele>181.2</ele>
        <time>2024-03-14T16:41:14Z</time>
      </trkpt>
      <trkpt lat="48.69455" lon="1.87724">
        <ele>181.2</ele>
        <time>2024-03-14T16:41:15Z</time>
      </trkpt>
      <trkpt lat="48.69459" lon="1.87733">
        <ele>180.8</ele>
        <time>2024-03-14T16:41:16Z</time>
      </trkpt>
      <trkpt lat="48.69464" lon="1.87742">
        <ele>181.2</ele>
        <time>2024-03-14T16:41:17Z</time>
      </trkpt>
      <trkpt lat="48.69468" lon="1.87751">
        <ele>181.2</ele>
        <time>2024-03-14T16:41:18Z</time>
      </trkpt>
      <trkpt lat="48.69472" lon="1.8776">
        <ele>181.2</ele>
        <time>2024-03-14T16:41:19Z</time>
      </trkpt>
      <trkpt lat="48.69476" lon="1.87768">
        <ele>181.4</ele>
        <time>2024-03-14T16:41:20Z</time>
      </trkpt>
      <trkpt lat="48.69481" lon="1.87777">
        <ele>181.8</ele>
        <time>2024-03-14T16:41:21Z</time>
      </trkpt>
      <trkpt lat="48.69485" lon="1.87786">
        <ele>181.8</ele>
        <time>2024-03-14T16:41:22Z</time>
      </trkpt>
      <trkpt lat="48.69489" lon="1.87795">
        <ele>181.8</ele>
        <time>2024-03-14T16:41:23Z</time>
      </trkpt>
      <trkpt lat="48.69494" lon="1.87803">
        <ele>181.2</ele>
        <time>2024-03-14T16:41:24Z</time>
      </trkpt>
      <trkpt lat="48.69498" lon="1.87812">
        <ele>181.6</ele>
        <time>2024-03-14T16:41:25Z</time>
      </trkpt>
      <trkpt lat="48.69502" lon="1.87822">
        <ele>181.6</ele>
        <time>2024-03-14T16:41:26Z</time>
      </trkpt>
      <trkpt lat="48.69506" lon="1.87831">
        <ele>181.6</ele>
        <time>2024-03-14T16:41:27Z</time>
      </trkpt>
      <trkpt lat="48.6951" lon="1.87841">
        <ele>181.2</ele>
        <time>2024-03-14T16:41:28Z</time>
      </trkpt>
      <trkpt lat="48.69514" lon="1.87851">
        <ele>181</ele>
        <time>2024-03-14T16:41:29Z</time>
      </trkpt>
      <trkpt lat="48.69518" lon="1.87861">
        <ele>181</ele>
        <time>2024-03-14T16:41:30Z</time>
      </trkpt>
      <trkpt lat="48.69521" lon="1.87871">
        <ele>181</ele>
        <time>2024-03-14T16:41:31Z</time>
      </trkpt>
      <trkpt lat="48.69524" lon="1.87881">
        <ele>181</ele>
        <time>2024-03-14T16:41:32Z</time>
      </trkpt>
      <trkpt lat="48.69527" lon="1.87892">
        <ele>181.2</ele>
        <time>2024-03-14T16:41:33Z</time>
      </trkpt>
      <trkpt lat="48.6953" lon="1.87903">
        <ele>181.2</ele>
        <time>2024-03-14T16:41:34Z</time>
      </trkpt>
      <trkpt lat="48.69532" lon="1.87915">
        <ele>181.2</ele>
        <time>2024-03-14T16:41:35Z</time>
      </trkpt>
      <trkpt lat="48.69535" lon="1.87926">
        <ele>181.2</ele>
        <time>2024-03-14T16:41:36Z</time>
      </trkpt>
      <trkpt lat="48.69538" lon="1.87937">
        <ele>181.6</ele>
        <time>2024-03-14T16:41:37Z</time>
      </trkpt>
      <trkpt lat="48.69541" lon="1.87948">
        <ele>181.6</ele>
        <time>2024-03-14T16:41:38Z</time>
      </trkpt>
      <trkpt lat="48.69544" lon="1.87959">
        <ele>181.6</ele>
        <time>2024-03-14T16:41:39Z</time>
      </trkpt>
      <trkpt lat="48.69546" lon="1.8797">
        <ele>181.6</ele>
        <time>2024-03-14T16:41:40Z</time>
      </trkpt>
      <trkpt lat="48.69549" lon="1.87981">
        <ele>181.6</ele>
        <time>2024-03-14T16:41:41Z</time>
      </trkpt>
      <trkpt lat="48.69552" lon="1.87992">
        <ele>181.6</ele>
        <time>2024-03-14T16:41:42Z</time>
      </trkpt>
      <trkpt lat="48.69555" lon="1.88003">
        <ele>181.6</ele>
        <time>2024-03-14T16:41:43Z</time>
      </trkpt>
      <trkpt lat="48.69558" lon="1.88014">
        <ele>181.2</ele>
        <time>2024-03-14T16:41:44Z</time>
      </trkpt>
      <trkpt lat="48.6956" lon="1.88024">
        <ele>181.4</ele>
        <time>2024-03-14T16:41:45Z</time>
      </trkpt>
      <trkpt lat="48.69563" lon="1.88035">
        <ele>181.4</ele>
        <time>2024-03-14T16:41:46Z</time>
      </trkpt>
      <trkpt lat="48.69566" lon="1.88046">
        <ele>181.4</ele>
        <time>2024-03-14T16:41:47Z</time>
      </trkpt>
      <trkpt lat="48.69569" lon="1.88056">
        <ele>181.8</ele>
        <time>2024-03-14T16:41:48Z</time>
      </trkpt>
      <trkpt lat="48.69572" lon="1.88067">
        <ele>181.8</ele>
        <time>2024-03-14T16:41:49Z</time>
      </trkpt>
      <trkpt lat="48.69575" lon="1.88077">
        <ele>181.8</ele>
        <time>2024-03-14T16:41:50Z</time>
      </trkpt>
      <trkpt lat="48.69577" lon="1.88086">
        <ele>181.8</ele>
        <time>2024-03-14T16:41:51Z</time>
      </trkpt>
      <trkpt lat="48.69579" lon="1.88095">
        <ele>182.4</ele>
        <time>2024-03-14T16:41:52Z</time>
      </trkpt>
      <trkpt lat="48.69582" lon="1.88103">
        <ele>182.4</ele>
        <time>2024-03-14T16:41:53Z</time>
      </trkpt>
      <trkpt lat="48.69583" lon="1.88112">
        <ele>182.4</ele>
        <time>2024-03-14T16:41:54Z</time>
      </trkpt>
      <trkpt lat="48.69584" lon="1.88119">
        <ele>182.4</ele>
        <time>2024-03-14T16:41:55Z</time>
      </trkpt>
      <trkpt lat="48.69582" lon="1.88125">
        <ele>183</ele>
        <time>2024-03-14T16:41:56Z</time>
      </trkpt>
      <trkpt lat="48.69579" lon="1.88129">
        <ele>182.8</ele>
        <time>2024-03-14T16:41:57Z</time>
      </trkpt>
      <trkpt lat="48.69576" lon="1.8813">
        <ele>182.8</ele>
        <time>2024-03-14T16:41:58Z</time>
      </trkpt>
      <trkpt lat="48.69572" lon="1.88129">
        <ele>182.8</ele>
        <time>2024-03-14T16:41:59Z</time>
      </trkpt>
      <trkpt lat="48.69568" lon="1.88126">
        <ele>181.8</ele>
        <time>2024-03-14T16:42:00Z</time>
      </trkpt>
      <trkpt lat="48.69563" lon="1.88123">
        <ele>181</ele>
        <time>2024-03-14T16:42:01Z</time>
      </trkpt>
      <trkpt lat="48.69559" lon="1.88119">
        <ele>181</ele>
        <time>2024-03-14T16:42:02Z</time>
      </trkpt>
      <trkpt lat="48.69554" lon="1.88116">
        <ele>181</ele>
        <time>2024-03-14T16:42:03Z</time>
      </trkpt>
      <trkpt lat="48.69549" lon="1.88112">
        <ele>181</ele>
        <time>2024-03-14T16:42:04Z</time>
      </trkpt>
      <trkpt lat="48.69544" lon="1.88109">
        <ele>180</ele>
        <time>2024-03-14T16:42:05Z</time>
      </trkpt>
      <trkpt lat="48.69539" lon="1.88105">
        <ele>180</ele>
        <time>2024-03-14T16:42:06Z</time>
      </trkpt>
      <trkpt lat="48.69534" lon="1.88101">
        <ele>180</ele>
        <time>2024-03-14T16:42:07Z</time>
      </trkpt>
      <trkpt lat="48.69528" lon="1.88097">
        <ele>180</ele>
        <time>2024-03-14T16:42:08Z</time>
      </trkpt>
      <trkpt lat="48.69523" lon="1.88094">
        <ele>179.4</ele>
        <time>2024-03-14T16:42:09Z</time>
      </trkpt>
      <trkpt lat="48.69518" lon="1.8809">
        <ele>179.4</ele>
        <time>2024-03-14T16:42:10Z</time>
      </trkpt>
      <trkpt lat="48.69512" lon="1.88086">
        <ele>179.4</ele>
        <time>2024-03-14T16:42:11Z</time>
      </trkpt>
      <trkpt lat="48.69507" lon="1.88082">
        <ele>179.4</ele>
        <time>2024-03-14T16:42:12Z</time>
      </trkpt>
      <trkpt lat="48.69502" lon="1.88079">
        <ele>179</ele>
        <time>2024-03-14T16:42:13Z</time>
      </trkpt>
      <trkpt lat="48.69496" lon="1.88075">
        <ele>179</ele>
        <time>2024-03-14T16:42:14Z</time>
      </trkpt>
      <trkpt lat="48.6949" lon="1.88072">
        <ele>179</ele>
        <time>2024-03-14T16:42:15Z</time>
      </trkpt>
      <trkpt lat="48.69485" lon="1.88069">
        <ele>179.8</ele>
        <time>2024-03-14T16:42:16Z</time>
      </trkpt>
      <trkpt lat="48.69479" lon="1.88067">
        <ele>179.8</ele>
        <time>2024-03-14T16:42:17Z</time>
      </trkpt>
      <trkpt lat="48.69473" lon="1.88064">
        <ele>179.8</ele>
        <time>2024-03-14T16:42:18Z</time>
      </trkpt>
      <trkpt lat="48.69467" lon="1.88062">
        <ele>179.8</ele>
        <time>2024-03-14T16:42:19Z</time>
      </trkpt>
      <trkpt lat="48.69461" lon="1.8806">
        <ele>179.8</ele>
        <time>2024-03-14T16:42:20Z</time>
      </trkpt>
      <trkpt lat="48.69455" lon="1.88058">
        <ele>179.4</ele>
        <time>2024-03-14T16:42:21Z</time>
      </trkpt>
      <trkpt lat="48.69449" lon="1.88056">
        <ele>179.4</ele>
        <time>2024-03-14T16:42:22Z</time>
      </trkpt>
      <trkpt lat="48.69443" lon="1.88055">
        <ele>179.4</ele>
        <time>2024-03-14T16:42:23Z</time>
      </trkpt>
      <trkpt lat="48.69437" lon="1.88053">
        <ele>179.4</ele>
        <time>2024-03-14T16:42:24Z</time>
      </trkpt>
      <trkpt lat="48.69431" lon="1.88051">
        <ele>179.4</ele>
        <time>2024-03-14T16:42:25Z</time>
      </trkpt>
      <trkpt lat="48.69425" lon="1.8805">
        <ele>179.4</ele>
        <time>2024-03-14T16:42:26Z</time>
      </trkpt>
      <trkpt lat="48.69418" lon="1.88048">
        <ele>179.4</ele>
        <time>2024-03-14T16:42:27Z</time>
      </trkpt>
      <trkpt lat="48.69412" lon="1.88046">
        <ele>179.4</ele>
        <time>2024-03-14T16:42:28Z</time>
      </trkpt>
      <trkpt lat="48.69405" lon="1.88045">
        <ele>179.8</ele>
        <time>2024-03-14T16:42:29Z</time>
      </trkpt>
      <trkpt lat="48.69399" lon="1.88043">
        <ele>179.8</ele>
        <time>2024-03-14T16:42:30Z</time>
      </trkpt>
      <trkpt lat="48.69393" lon="1.88042">
        <ele>179.8</ele>
        <time>2024-03-14T16:42:31Z</time>
      </trkpt>
      <trkpt lat="48.69386" lon="1.8804">
        <ele>179</ele>
        <time>2024-03-14T16:42:32Z</time>
      </trkpt>
      <trkpt lat="48.6938" lon="1.88038">
        <ele>179.6</ele>
        <time>2024-03-14T16:42:33Z</time>
      </trkpt>
      <trkpt lat="48.69374" lon="1.88037">
        <ele>179.6</ele>
        <time>2024-03-14T16:42:34Z</time>
      </trkpt>
      <trkpt lat="48.69368" lon="1.88035">
        <ele>179.6</ele>
        <time>2024-03-14T16:42:35Z</time>
      </trkpt>
      <trkpt lat="48.69362" lon="1.88034">
        <ele>179.2</ele>
        <time>2024-03-14T16:42:36Z</time>
      </trkpt>
      <trkpt lat="48.69355" lon="1.88032">
        <ele>179.6</ele>
        <time>2024-03-14T16:42:37Z</time>
      </trkpt>
      <trkpt lat="48.69349" lon="1.88031">
        <ele>179.6</ele>
        <time>2024-03-14T16:42:38Z</time>
      </trkpt>
      <trkpt lat="48.69343" lon="1.88029">
        <ele>179.6</ele>
        <time>2024-03-14T16:42:39Z</time>
      </trkpt>
      <trkpt lat="48.69337" lon="1.88027">
        <ele>179.6</ele>
        <time>2024-03-14T16:42:40Z</time>
      </trkpt>
      <trkpt lat="48.69331" lon="1.88026">
        <ele>179.4</ele>
        <time>2024-03-14T16:42:41Z</time>
      </trkpt>
      <trkpt lat="48.69324" lon="1.88024">
        <ele>179.4</ele>
        <time>2024-03-14T16:42:42Z</time>
      </trkpt>
      <trkpt lat="48.69318" lon="1.88022">
        <ele>179.4</ele>
        <time>2024-03-14T16:42:43Z</time>
      </trkpt>
      <trkpt lat="48.69312" lon="1.88021">
        <ele>179.4</ele>
        <time>2024-03-14T16:42:44Z</time>
      </trkpt>
      <trkpt lat="48.69306" lon="1.88019">
        <ele>178.6</ele>
        <time>2024-03-14T16:42:45Z</time>
      </trkpt>
      <trkpt lat="48.693" lon="1.88018">
        <ele>178.6</ele>
        <time>2024-03-14T16:42:46Z</time>
      </trkpt>
      <trkpt lat="48.69293" lon="1.88016">
        <ele>178.6</ele>
        <time>2024-03-14T16:42:47Z</time>
      </trkpt>
      <trkpt lat="48.69287" lon="1.88014">
        <ele>179.2</ele>
        <time>2024-03-14T16:42:48Z</time>
      </trkpt>
      <trkpt lat="48.69281" lon="1.88012">
        <ele>179</ele>
        <time>2024-03-14T16:42:49Z</time>
      </trkpt>
      <trkpt lat="48.69275" lon="1.88009">
        <ele>179</ele>
        <time>2024-03-14T16:42:50Z</time>
      </trkpt>
      <trkpt lat="48.69269" lon="1.88007">
        <ele>179</ele>
        <time>2024-03-14T16:42:51Z</time>
      </trkpt>
      <trkpt lat="48.69262" lon="1.88005">
        <ele>179.8</ele>
        <time>2024-03-14T16:42:52Z</time>
      </trkpt>
      <trkpt lat="48.69256" lon="1.88003">
        <ele>180</ele>
        <time>2024-03-14T16:42:53Z</time>
      </trkpt>
      <trkpt lat="48.6925" lon="1.88">
        <ele>180</ele>
        <time>2024-03-14T16:42:54Z</time>
      </trkpt>
      <trkpt lat="48.69244" lon="1.87998">
        <ele>180</ele>
        <time>2024-03-14T16:42:55Z</time>
      </trkpt>
      <trkpt lat="48.69237" lon="1.87995">
        <ele>180</ele>
        <time>2024-03-14T16:42:56Z</time>
      </trkpt>
      <trkpt lat="48.69231" lon="1.87993">
        <ele>179.2</ele>
        <time>2024-03-14T16:42:57Z</time>
      </trkpt>
      <trkpt lat="48.69225" lon="1.87991">
        <ele>179.2</ele>
        <time>2024-03-14T16:42:58Z</time>
      </trkpt>
      <trkpt lat="48.69218" lon="1.87988">
        <ele>179.2</ele>
        <time>2024-03-14T16:42:59Z</time>
      </trkpt>
      <trkpt lat="48.69212" lon="1.87986">
        <ele>178.4</ele>
        <time>2024-03-14T16:43:00Z</time>
      </trkpt>
      <trkpt lat="48.69206" lon="1.87983">
        <ele>178.4</ele>
        <time>2024-03-14T16:43:01Z</time>
      </trkpt>
      <trkpt lat="48.69199" lon="1.87981">
        <ele>178.4</ele>
        <time>2024-03-14T16:43:02Z</time>
      </trkpt>
      <trkpt lat="48.69193" lon="1.87978">
        <ele>178.4</ele>
        <time>2024-03-14T16:43:03Z</time>
      </trkpt>
      <trkpt lat="48.69187" lon="1.87976">
        <ele>178.4</ele>
        <time>2024-03-14T16:43:04Z</time>
      </trkpt>
      <trkpt lat="48.69181" lon="1.87973">
        <ele>179</ele>
        <time>2024-03-14T16:43:05Z</time>
      </trkpt>
      <trkpt lat="48.69175" lon="1.87971">
        <ele>179</ele>
        <time>2024-03-14T16:43:06Z</time>
      </trkpt>
      <trkpt lat="48.69168" lon="1.87968">
        <ele>179</ele>
        <time>2024-03-14T16:43:07Z</time>
      </trkpt>
      <trkpt lat="48.69162" lon="1.87966">
        <ele>179</ele>
        <time>2024-03-14T16:43:08Z</time>
      </trkpt>
      <trkpt lat="48.69156" lon="1.87963">
        <ele>178.8</ele>
        <time>2024-03-14T16:43:09Z</time>
      </trkpt>
      <trkpt lat="48.69149" lon="1.87961">
        <ele>178.8</ele>
        <time>2024-03-14T16:43:10Z</time>
      </trkpt>
      <trkpt lat="48.69143" lon="1.87958">
        <ele>178.8</ele>
        <time>2024-03-14T16:43:11Z</time>
      </trkpt>
      <trkpt lat="48.69137" lon="1.87956">
        <ele>178.2</ele>
        <time>2024-03-14T16:43:12Z</time>
      </trkpt>
      <trkpt lat="48.6913" lon="1.87953">
        <ele>178</ele>
        <time>2024-03-14T16:43:13Z</time>
      </trkpt>
      <trkpt lat="48.69124" lon="1.87951">
        <ele>178</ele>
        <time>2024-03-14T16:43:14Z</time>
      </trkpt>
      <trkpt lat="48.69118" lon="1.87948">
        <ele>178</ele>
        <time>2024-03-14T16:43:15Z</time>
      </trkpt>
      <trkpt lat="48.69111" lon="1.87946">
        <ele>179</ele>
        <time>2024-03-14T16:43:16Z</time>
      </trkpt>
      <trkpt lat="48.69104" lon="1.87943">
        <ele>180.2</ele>
        <time>2024-03-14T16:43:17Z</time>
      </trkpt>
      <trkpt lat="48.69098" lon="1.87941">
        <ele>180.2</ele>
        <time>2024-03-14T16:43:18Z</time>
      </trkpt>
      <trkpt lat="48.69091" lon="1.87938">
        <ele>180.2</ele>
        <time>2024-03-14T16:43:19Z</time>
      </trkpt>
      <trkpt lat="48.69084" lon="1.87936">
        <ele>180.2</ele>
        <time>2024-03-14T16:43:20Z</time>
      </trkpt>
      <trkpt lat="48.69077" lon="1.87933">
        <ele>179</ele>
        <time>2024-03-14T16:43:21Z</time>
      </trkpt>
      <trkpt lat="48.6907" lon="1.8793">
        <ele>179</ele>
        <time>2024-03-14T16:43:22Z</time>
      </trkpt>
      <trkpt lat="48.69063" lon="1.87928">
        <ele>179</ele>
        <time>2024-03-14T16:43:23Z</time>
      </trkpt>
      <trkpt lat="48.69056" lon="1.87925">
        <ele>179</ele>
        <time>2024-03-14T16:43:24Z</time>
      </trkpt>
      <trkpt lat="48.69049" lon="1.87923">
        <ele>179</ele>
        <time>2024-03-14T16:43:25Z</time>
      </trkpt>
      <trkpt lat="48.69042" lon="1.8792">
        <ele>179</ele>
        <time>2024-03-14T16:43:26Z</time>
      </trkpt>
      <trkpt lat="48.69035" lon="1.87918">
        <ele>179</ele>
        <time>2024-03-14T16:43:27Z</time>
      </trkpt>
      <trkpt lat="48.69028" lon="1.87915">
        <ele>179</ele>
        <time>2024-03-14T16:43:28Z</time>
      </trkpt>
      <trkpt lat="48.6902" lon="1.87913">
        <ele>178.4</ele>
        <time>2024-03-14T16:43:29Z</time>
      </trkpt>
      <trkpt lat="48.69013" lon="1.87911">
        <ele>178.4</ele>
        <time>2024-03-14T16:43:30Z</time>
      </trkpt>
      <trkpt lat="48.69006" lon="1.87908">
        <ele>178.4</ele>
        <time>2024-03-14T16:43:31Z</time>
      </trkpt>
      <trkpt lat="48.68999" lon="1.87906">
        <ele>178.8</ele>
        <time>2024-03-14T16:43:32Z</time>
      </trkpt>
      <trkpt lat="48.68992" lon="1.87904">
        <ele>178.2</ele>
        <time>2024-03-14T16:43:33Z</time>
      </trkpt>
      <trkpt lat="48.68985" lon="1.87902">
        <ele>178.2</ele>
        <time>2024-03-14T16:43:34Z</time>
      </trkpt>
      <trkpt lat="48.68978" lon="1.87899">
        <ele>178.2</ele>
        <time>2024-03-14T16:43:35Z</time>
      </trkpt>
      <trkpt lat="48.68971" lon="1.87897">
        <ele>178.2</ele>
        <time>2024-03-14T16:43:36Z</time>
      </trkpt>
      <trkpt lat="48.68964" lon="1.87895">
        <ele>176.8</ele>
        <time>2024-03-14T16:43:37Z</time>
      </trkpt>
      <trkpt lat="48.68957" lon="1.87893">
        <ele>176.8</ele>
        <time>2024-03-14T16:43:38Z</time>
      </trkpt>
      <trkpt lat="48.6895" lon="1.87891">
        <ele>176.8</ele>
        <time>2024-03-14T16:43:39Z</time>
      </trkpt>
      <trkpt lat="48.68944" lon="1.87889">
        <ele>177.8</ele>
        <time>2024-03-14T16:43:40Z</time>
      </trkpt>
      <trkpt lat="48.68937" lon="1.87888">
        <ele>178.8</ele>
        <time>2024-03-14T16:43:41Z</time>
      </trkpt>
      <trkpt lat="48.6893" lon="1.87886">
        <ele>178.8</ele>
        <time>2024-03-14T16:43:42Z</time>
      </trkpt>
      <trkpt lat="48.68924" lon="1.87884">
        <ele>178.8</ele>
        <time>2024-03-14T16:43:43Z</time>
      </trkpt>
      <trkpt lat="48.68917" lon="1.87882">
        <ele>178.8</ele>
        <time>2024-03-14T16:43:44Z</time>
      </trkpt>
      <trkpt lat="48.68911" lon="1.87881">
        <ele>179</ele>
        <time>2024-03-14T16:43:45Z</time>
      </trkpt>
      <trkpt lat="48.68904" lon="1.87879">
        <ele>179</ele>
        <time>2024-03-14T16:43:46Z</time>
      </trkpt>
      <trkpt lat="48.68898" lon="1.87877">
        <ele>179</ele>
        <time>2024-03-14T16:43:47Z</time>
      </trkpt>
      <trkpt lat="48.68891" lon="1.87875">
        <ele>179</ele>
        <time>2024-03-14T16:43:48Z</time>
      </trkpt>
      <trkpt lat="48.68884" lon="1.87873">
        <ele>179.4</ele>
        <time>2024-03-14T16:43:49Z</time>
      </trkpt>
      <trkpt lat="48.68878" lon="1.87871">
        <ele>179.4</ele>
        <time>2024-03-14T16:43:50Z</time>
      </trkpt>
      <trkpt lat="48.68871" lon="1.87869">
        <ele>179.4</ele>
        <time>2024-03-14T16:43:51Z</time>
      </trkpt>
      <trkpt lat="48.68865" lon="1.87867">
        <ele>178.4</ele>
        <time>2024-03-14T16:43:52Z</time>
      </trkpt>
      <trkpt lat="48.68858" lon="1.87865">
        <ele>177.6</ele>
        <time>2024-03-14T16:43:53Z</time>
      </trkpt>
      <trkpt lat="48.68852" lon="1.87863">
        <ele>177.6</ele>
        <time>2024-03-14T16:43:54Z</time>
      </trkpt>
      <trkpt lat="48.68846" lon="1.87861">
        <ele>177.6</ele>
        <time>2024-03-14T16:43:55Z</time>
      </trkpt>
      <trkpt lat="48.68839" lon="1.87859">
        <ele>178.6</ele>
        <time>2024-03-14T16:43:56Z</time>
      </trkpt>
      <trkpt lat="48.68833" lon="1.87856">
        <ele>178.8</ele>
        <time>2024-03-14T16:43:57Z</time>
      </trkpt>
      <trkpt lat="48.68827" lon="1.87852">
        <ele>178.8</ele>
        <time>2024-03-14T16:43:58Z</time>
      </trkpt>
      <trkpt lat="48.68821" lon="1.87848">
        <ele>178.8</ele>
        <time>2024-03-14T16:43:59Z</time>
      </trkpt>
      <trkpt lat="48.68815" lon="1.87844">
        <ele>178.8</ele>
        <time>2024-03-14T16:44:00Z</time>
      </trkpt>
      <trkpt lat="48.6881" lon="1.87839">
        <ele>178.8</ele>
        <time>2024-03-14T16:44:01Z</time>
      </trkpt>
      <trkpt lat="48.68804" lon="1.87834">
        <ele>178.8</ele>
        <time>2024-03-14T16:44:02Z</time>
      </trkpt>
      <trkpt lat="48.68799" lon="1.87828">
        <ele>178.8</ele>
        <time>2024-03-14T16:44:03Z</time>
      </trkpt>
      <trkpt lat="48.68794" lon="1.87822">
        <ele>179.4</ele>
        <time>2024-03-14T16:44:04Z</time>
      </trkpt>
      <trkpt lat="48.68789" lon="1.87816">
        <ele>180.2</ele>
        <time>2024-03-14T16:44:05Z</time>
      </trkpt>
      <trkpt lat="48.68784" lon="1.8781">
        <ele>180.2</ele>
        <time>2024-03-14T16:44:06Z</time>
      </trkpt>
      <trkpt lat="48.68779" lon="1.87804">
        <ele>180.2</ele>
        <time>2024-03-14T16:44:07Z</time>
      </trkpt>
      <trkpt lat="48.68774" lon="1.87798">
        <ele>180.2</ele>
        <time>2024-03-14T16:44:08Z</time>
      </trkpt>
      <trkpt lat="48.68769" lon="1.87792">
        <ele>180.8</ele>
        <time>2024-03-14T16:44:09Z</time>
      </trkpt>
      <trkpt lat="48.68764" lon="1.87786">
        <ele>180.8</ele>
        <time>2024-03-14T16:44:10Z</time>
      </trkpt>
      <trkpt lat="48.6876" lon="1.8778">
        <ele>180.8</ele>
        <time>2024-03-14T16:44:11Z</time>
      </trkpt>
      <trkpt lat="48.68755" lon="1.87775">
        <ele>179.8</ele>
        <time>2024-03-14T16:44:12Z</time>
      </trkpt>
      <trkpt lat="48.6875" lon="1.87769">
        <ele>179.8</ele>
        <time>2024-03-14T16:44:13Z</time>
      </trkpt>
      <trkpt lat="48.68745" lon="1.87765">
        <ele>179.8</ele>
        <time>2024-03-14T16:44:14Z</time>
      </trkpt>
      <trkpt lat="48.68741" lon="1.87759">
        <ele>179.8</ele>
        <time>2024-03-14T16:44:15Z</time>
      </trkpt>
      <trkpt lat="48.68736" lon="1.87755">
        <ele>179.8</ele>
        <time>2024-03-14T16:44:16Z</time>
      </trkpt>
      <trkpt lat="48.68731" lon="1.8775">
        <ele>180.8</ele>
        <time>2024-03-14T16:44:17Z</time>
      </trkpt>
      <trkpt lat="48.68725" lon="1.87746">
        <ele>180.8</ele>
        <time>2024-03-14T16:44:18Z</time>
      </trkpt>
      <trkpt lat="48.6872" lon="1.87742">
        <ele>180.8</ele>
        <time>2024-03-14T16:44:19Z</time>
      </trkpt>
      <trkpt lat="48.68714" lon="1.87738">
        <ele>180.8</ele>
        <time>2024-03-14T16:44:20Z</time>
      </trkpt>
      <trkpt lat="48.68709" lon="1.87734">
        <ele>181.6</ele>
        <time>2024-03-14T16:44:21Z</time>
      </trkpt>
      <trkpt lat="48.68703" lon="1.8773">
        <ele>181.6</ele>
        <time>2024-03-14T16:44:22Z</time>
      </trkpt>
      <trkpt lat="48.68697" lon="1.87726">
        <ele>181.6</ele>
        <time>2024-03-14T16:44:23Z</time>
      </trkpt>
      <trkpt lat="48.68691" lon="1.87722">
        <ele>181.2</ele>
        <time>2024-03-14T16:44:24Z</time>
      </trkpt>
      <trkpt lat="48.68685" lon="1.87718">
        <ele>181.2</ele>
        <time>2024-03-14T16:44:25Z</time>
      </trkpt>
      <trkpt lat="48.68679" lon="1.87715">
        <ele>181.2</ele>
        <time>2024-03-14T16:44:26Z</time>
      </trkpt>
      <trkpt lat="48.68674" lon="1.87711">
        <ele>181.2</ele>
        <time>2024-03-14T16:44:27Z</time>
      </trkpt>
      <trkpt lat="48.68668" lon="1.87708">
        <ele>181.2</ele>
        <time>2024-03-14T16:44:28Z</time>
      </trkpt>
      <trkpt lat="48.68662" lon="1.87704">
        <ele>181.6</ele>
        <time>2024-03-14T16:44:29Z</time>
      </trkpt>
      <trkpt lat="48.68656" lon="1.87701">
        <ele>181.6</ele>
        <time>2024-03-14T16:44:30Z</time>
      </trkpt>
      <trkpt lat="48.68651" lon="1.87697">
        <ele>181.6</ele>
        <time>2024-03-14T16:44:31Z</time>
      </trkpt>
      <trkpt lat="48.68645" lon="1.87694">
        <ele>181</ele>
        <time>2024-03-14T16:44:32Z</time>
      </trkpt>
      <trkpt lat="48.68639" lon="1.87691">
        <ele>181.8</ele>
        <time>2024-03-14T16:44:33Z</time>
      </trkpt>
      <trkpt lat="48.68634" lon="1.87687">
        <ele>181.8</ele>
        <time>2024-03-14T16:44:34Z</time>
      </trkpt>
      <trkpt lat="48.68628" lon="1.87684">
        <ele>181.8</ele>
        <time>2024-03-14T16:44:35Z</time>
      </trkpt>
      <trkpt lat="48.68622" lon="1.87681">
        <ele>181.2</ele>
        <time>2024-03-14T16:44:36Z</time>
      </trkpt>
      <trkpt lat="48.68617" lon="1.87677">
        <ele>181.4</ele>
        <time>2024-03-14T16:44:37Z</time>
      </trkpt>
      <trkpt lat="48.68611" lon="1.87673">
        <ele>181.4</ele>
        <time>2024-03-14T16:44:38Z</time>
      </trkpt>
      <trkpt lat="48.68605" lon="1.8767">
        <ele>181.4</ele>
        <time>2024-03-14T16:44:39Z</time>
      </trkpt>
      <trkpt lat="48.686" lon="1.87666">
        <ele>182.4</ele>
        <time>2024-03-14T16:44:40Z</time>
      </trkpt>
      <trkpt lat="48.68593" lon="1.87663">
        <ele>180.8</ele>
        <time>2024-03-14T16:44:41Z</time>
      </trkpt>
      <trkpt lat="48.68588" lon="1.87659">
        <ele>180.8</ele>
        <time>2024-03-14T16:44:42Z</time>
      </trkpt>
      <trkpt lat="48.68582" lon="1.87655">
        <ele>180.8</ele>
        <time>2024-03-14T16:44:43Z</time>
      </trkpt>
      <trkpt lat="48.68576" lon="1.87652">
        <ele>181.4</ele>
        <time>2024-03-14T16:44:44Z</time>
      </trkpt>
      <trkpt lat="48.6857" lon="1.87648">
        <ele>180.8</ele>
        <time>2024-03-14T16:44:45Z</time>
      </trkpt>
      <trkpt lat="48.68564" lon="1.87644">
        <ele>180.8</ele>
        <time>2024-03-14T16:44:46Z</time>
      </trkpt>
      <trkpt lat="48.68558" lon="1.8764">
        <ele>180.8</ele>
        <time>2024-03-14T16:44:47Z</time>
      </trkpt>
      <trkpt lat="48.68552" lon="1.87636">
        <ele>181.2</ele>
        <time>2024-03-14T16:44:48Z</time>
      </trkpt>
      <trkpt lat="48.68546" lon="1.87633">
        <ele>181.6</ele>
        <time>2024-03-14T16:44:49Z</time>
      </trkpt>
      <trkpt lat="48.68541" lon="1.87628">
        <ele>181.6</ele>
        <time>2024-03-14T16:44:50Z</time>
      </trkpt>
      <trkpt lat="48.68535" lon="1.87624">
        <ele>181.6</ele>
        <time>2024-03-14T16:44:51Z</time>
      </trkpt>
      <trkpt lat="48.68529" lon="1.8762">
        <ele>181.6</ele>
        <time>2024-03-14T16:44:52Z</time>
      </trkpt>
      <trkpt lat="48.68522" lon="1.87617">
        <ele>182</ele>
        <time>2024-03-14T16:44:53Z</time>
      </trkpt>
      <trkpt lat="48.68517" lon="1.87612">
        <ele>182</ele>
        <time>2024-03-14T16:44:54Z</time>
      </trkpt>
      <trkpt lat="48.68511" lon="1.87608">
        <ele>182</ele>
        <time>2024-03-14T16:44:55Z</time>
      </trkpt>
      <trkpt lat="48.68505" lon="1.87604">
        <ele>182</ele>
        <time>2024-03-14T16:44:56Z</time>
      </trkpt>
      <trkpt lat="48.68498" lon="1.87601">
        <ele>182.4</ele>
        <time>2024-03-14T16:44:57Z</time>
      </trkpt>
      <trkpt lat="48.68492" lon="1.87597">
        <ele>182.4</ele>
        <time>2024-03-14T16:44:58Z</time>
      </trkpt>
      <trkpt lat="48.68486" lon="1.87593">
        <ele>182.4</ele>
        <time>2024-03-14T16:44:59Z</time>
      </trkpt>
      <trkpt lat="48.68479" lon="1.87589">
        <ele>181.4</ele>
        <time>2024-03-14T16:45:00Z</time>
      </trkpt>
      <trkpt lat="48.68473" lon="1.87585">
        <ele>181.2</ele>
        <time>2024-03-14T16:45:01Z</time>
      </trkpt>
      <trkpt lat="48.68467" lon="1.87581">
        <ele>181.2</ele>
        <time>2024-03-14T16:45:02Z</time>
      </trkpt>
      <trkpt lat="48.68461" lon="1.87578">
        <ele>181.2</ele>
        <time>2024-03-14T16:45:03Z</time>
      </trkpt>
      <trkpt lat="48.68455" lon="1.87574">
        <ele>181.2</ele>
        <time>2024-03-14T16:45:04Z</time>
      </trkpt>
      <trkpt lat="48.6845" lon="1.87571">
        <ele>180.6</ele>
        <time>2024-03-14T16:45:05Z</time>
      </trkpt>
      <trkpt lat="48.68444" lon="1.87568">
        <ele>180.6</ele>
        <time>2024-03-14T16:45:06Z</time>
      </trkpt>
      <trkpt lat="48.68439" lon="1.87566">
        <ele>180.6</ele>
        <time>2024-03-14T16:45:07Z</time>
      </trkpt>
      <trkpt lat="48.68435" lon="1.87564">
        <ele>181.6</ele>
        <time>2024-03-14T16:45:08Z</time>
      </trkpt>
      <trkpt lat="48.68433" lon="1.87561">
        <ele>182.2</ele>
        <time>2024-03-14T16:45:09Z</time>
      </trkpt>
      <trkpt lat="48.68431" lon="1.87558">
        <ele>182.2</ele>
        <time>2024-03-14T16:45:10Z</time>
      </trkpt>
      <trkpt lat="48.68429" lon="1.87555">
        <ele>182.2</ele>
        <time>2024-03-14T16:45:11Z</time>
      </trkpt>
      <trkpt lat="48.68425" lon="1.87552">
        <ele>182.2</ele>
        <time>2024-03-14T16:45:12Z</time>
      </trkpt>
      <trkpt lat="48.68421" lon="1.87551">
        <ele>181</ele>
        <time>2024-03-14T16:45:13Z</time>
      </trkpt>
      <trkpt lat="48.68416" lon="1.8755">
        <ele>181</ele>
        <time>2024-03-14T16:45:14Z</time>
      </trkpt>
      <trkpt lat="48.68411" lon="1.87549">
        <ele>181</ele>
        <time>2024-03-14T16:45:15Z</time>
      </trkpt>
      <trkpt lat="48.68406" lon="1.87545">
        <ele>180</ele>
        <time>2024-03-14T16:45:16Z</time>
      </trkpt>
      <trkpt lat="48.68402" lon="1.87539">
        <ele>180.2</ele>
        <time>2024-03-14T16:45:17Z</time>
      </trkpt>
      <trkpt lat="48.68399" lon="1.87532">
        <ele>180.2</ele>
        <time>2024-03-14T16:45:18Z</time>
      </trkpt>
      <trkpt lat="48.68395" lon="1.87525">
        <ele>180.2</ele>
        <time>2024-03-14T16:45:19Z</time>
      </trkpt>
      <trkpt lat="48.68392" lon="1.87518">
        <ele>180.2</ele>
        <time>2024-03-14T16:45:20Z</time>
      </trkpt>
      <trkpt lat="48.68389" lon="1.8751">
        <ele>180.4</ele>
        <time>2024-03-14T16:45:21Z</time>
      </trkpt>
      <trkpt lat="48.68385" lon="1.87503">
        <ele>180.4</ele>
        <time>2024-03-14T16:45:22Z</time>
      </trkpt>
      <trkpt lat="48.68382" lon="1.87496">
        <ele>180.4</ele>
        <time>2024-03-14T16:45:23Z</time>
      </trkpt>
      <trkpt lat="48.68377" lon="1.8749">
        <ele>180.4</ele>
        <time>2024-03-14T16:45:24Z</time>
      </trkpt>
      <trkpt lat="48.68373" lon="1.87484">
        <ele>180</ele>
        <time>2024-03-14T16:45:25Z</time>
      </trkpt>
      <trkpt lat="48.68368" lon="1.87478">
        <ele>180</ele>
        <time>2024-03-14T16:45:26Z</time>
      </trkpt>
      <trkpt lat="48.68363" lon="1.87474">
        <ele>180</ele>
        <time>2024-03-14T16:45:27Z</time>
      </trkpt>
      <trkpt lat="48.68357" lon="1.8747">
        <ele>180</ele>
        <time>2024-03-14T16:45:28Z</time>
      </trkpt>
      <trkpt lat="48.68351" lon="1.87467">
        <ele>180.4</ele>
        <time>2024-03-14T16:45:29Z</time>
      </trkpt>
      <trkpt lat="48.68345" lon="1.87464">
        <ele>180.4</ele>
        <time>2024-03-14T16:45:30Z</time>
      </trkpt>
      <trkpt lat="48.68339" lon="1.87462">
        <ele>180.4</ele>
        <time>2024-03-14T16:45:31Z</time>
      </trkpt>
      <trkpt lat="48.68333" lon="1.8746">
        <ele>180.4</ele>
        <time>2024-03-14T16:45:32Z</time>
      </trkpt>
      <trkpt lat="48.68327" lon="1.87458">
        <ele>180</ele>
        <time>2024-03-14T16:45:33Z</time>
      </trkpt>
      <trkpt lat="48.6832" lon="1.87456">
        <ele>180</ele>
        <time>2024-03-14T16:45:34Z</time>
      </trkpt>
      <trkpt lat="48.68314" lon="1.87454">
        <ele>180</ele>
        <time>2024-03-14T16:45:35Z</time>
      </trkpt>
      <trkpt lat="48.68308" lon="1.87452">
        <ele>179.4</ele>
        <time>2024-03-14T16:45:36Z</time>
      </trkpt>
      <trkpt lat="48.68302" lon="1.87451">
        <ele>179.2</ele>
        <time>2024-03-14T16:45:37Z</time>
      </trkpt>
      <trkpt lat="48.68296" lon="1.87448">
        <ele>179.2</ele>
        <time>2024-03-14T16:45:38Z</time>
      </trkpt>
      <trkpt lat="48.6829" lon="1.87446">
        <ele>179.2</ele>
        <time>2024-03-14T16:45:39Z</time>
      </trkpt>
      <trkpt lat="48.68284" lon="1.87444">
        <ele>179.2</ele>
        <time>2024-03-14T16:45:40Z</time>
      </trkpt>
      <trkpt lat="48.68278" lon="1.87442">
        <ele>179</ele>
        <time>2024-03-14T16:45:41Z</time>
      </trkpt>
      <trkpt lat="48.68272" lon="1.8744">
        <ele>179</ele>
        <time>2024-03-14T16:45:42Z</time>
      </trkpt>
      <trkpt lat="48.68265" lon="1.87439">
        <ele>179</ele>
        <time>2024-03-14T16:45:43Z</time>
      </trkpt>
      <trkpt lat="48.68259" lon="1.87437">
        <ele>179</ele>
        <time>2024-03-14T16:45:44Z</time>
      </trkpt>
      <trkpt lat="48.68253" lon="1.87435">
        <ele>179.2</ele>
        <time>2024-03-14T16:45:45Z</time>
      </trkpt>
      <trkpt lat="48.68246" lon="1.87433">
        <ele>179.2</ele>
        <time>2024-03-14T16:45:46Z</time>
      </trkpt>
      <trkpt lat="48.6824" lon="1.87431">
        <ele>179.2</ele>
        <time>2024-03-14T16:45:47Z</time>
      </trkpt>
      <trkpt lat="48.68233" lon="1.87429">
        <ele>178.2</ele>
        <time>2024-03-14T16:45:48Z</time>
      </trkpt>
      <trkpt lat="48.68227" lon="1.87427">
        <ele>177.8</ele>
        <time>2024-03-14T16:45:49Z</time>
      </trkpt>
      <trkpt lat="48.6822" lon="1.87424">
        <ele>177.8</ele>
        <time>2024-03-14T16:45:50Z</time>
      </trkpt>
      <trkpt lat="48.68214" lon="1.87422">
        <ele>177.8</ele>
        <time>2024-03-14T16:45:51Z</time>
      </trkpt>
      <trkpt lat="48.68207" lon="1.8742">
        <ele>177</ele>
        <time>2024-03-14T16:45:52Z</time>
      </trkpt>
      <trkpt lat="48.68201" lon="1.87417">
        <ele>177</ele>
        <time>2024-03-14T16:45:53Z</time>
      </trkpt>
      <trkpt lat="48.68194" lon="1.87415">
        <ele>177</ele>
        <time>2024-03-14T16:45:54Z</time>
      </trkpt>
      <trkpt lat="48.68188" lon="1.87413">
        <ele>177</ele>
        <time>2024-03-14T16:45:55Z</time>
      </trkpt>
      <trkpt lat="48.68181" lon="1.87411">
        <ele>177.4</ele>
        <time>2024-03-14T16:45:56Z</time>
      </trkpt>
      <trkpt lat="48.68174" lon="1.87409">
        <ele>177.6</ele>
        <time>2024-03-14T16:45:57Z</time>
      </trkpt>
      <trkpt lat="48.68168" lon="1.87407">
        <ele>177.6</ele>
        <time>2024-03-14T16:45:58Z</time>
      </trkpt>
      <trkpt lat="48.68161" lon="1.87405">
        <ele>177.6</ele>
        <time>2024-03-14T16:45:59Z</time>
      </trkpt>
      <trkpt lat="48.68155" lon="1.87403">
        <ele>178.6</ele>
        <time>2024-03-14T16:46:00Z</time>
      </trkpt>
      <trkpt lat="48.68148" lon="1.87401">
        <ele>178.4</ele>
        <time>2024-03-14T16:46:01Z</time>
      </trkpt>
      <trkpt lat="48.68141" lon="1.87398">
        <ele>178.4</ele>
        <time>2024-03-14T16:46:02Z</time>
      </trkpt>
      <trkpt lat="48.68135" lon="1.87396">
        <ele>178.4</ele>
        <time>2024-03-14T16:46:03Z</time>
      </trkpt>
      <trkpt lat="48.68128" lon="1.87394">
        <ele>178.4</ele>
        <time>2024-03-14T16:46:04Z</time>
      </trkpt>
      <trkpt lat="48.68121" lon="1.87392">
        <ele>178</ele>
        <time>2024-03-14T16:46:05Z</time>
      </trkpt>
      <trkpt lat="48.68115" lon="1.8739">
        <ele>178</ele>
        <time>2024-03-14T16:46:06Z</time>
      </trkpt>
      <trkpt lat="48.68108" lon="1.87388">
        <ele>178</ele>
        <time>2024-03-14T16:46:07Z</time>
      </trkpt>
      <trkpt lat="48.68101" lon="1.87386">
        <ele>177</ele>
        <time>2024-03-14T16:46:08Z</time>
      </trkpt>
      <trkpt lat="48.68095" lon="1.87384">
        <ele>177</ele>
        <time>2024-03-14T16:46:09Z</time>
      </trkpt>
      <trkpt lat="48.68088" lon="1.87382">
        <ele>177.6</ele>
        <time>2024-03-14T16:46:10Z</time>
      </trkpt>
      <trkpt lat="48.68082" lon="1.8738">
        <ele>177.6</ele>
        <time>2024-03-14T16:46:11Z</time>
      </trkpt>
      <trkpt lat="48.68075" lon="1.87377">
        <ele>177.6</ele>
        <time>2024-03-14T16:46:12Z</time>
      </trkpt>
      <trkpt lat="48.68069" lon="1.87375">
        <ele>178.6</ele>
        <time>2024-03-14T16:46:13Z</time>
      </trkpt>
      <trkpt lat="48.68063" lon="1.87373">
        <ele>178.6</ele>
        <time>2024-03-14T16:46:14Z</time>
      </trkpt>
      <trkpt lat="48.68056" lon="1.87371">
        <ele>178.6</ele>
        <time>2024-03-14T16:46:15Z</time>
      </trkpt>
      <trkpt lat="48.6805" lon="1.87369">
        <ele>178.6</ele>
        <time>2024-03-14T16:46:16Z</time>
      </trkpt>
      <trkpt lat="48.68043" lon="1.87367">
        <ele>178</ele>
        <time>2024-03-14T16:46:17Z</time>
      </trkpt>
      <trkpt lat="48.68037" lon="1.87365">
        <ele>178</ele>
        <time>2024-03-14T16:46:18Z</time>
      </trkpt>
      <trkpt lat="48.68031" lon="1.87363">
        <ele>178</ele>
        <time>2024-03-14T16:46:19Z</time>
      </trkpt>
      <trkpt lat="48.68024" lon="1.87361">
        <ele>178.6</ele>
        <time>2024-03-14T16:46:20Z</time>
      </trkpt>
      <trkpt lat="48.68018" lon="1.87359">
        <ele>178.2</ele>
        <time>2024-03-14T16:46:21Z</time>
      </trkpt>
      <trkpt lat="48.68011" lon="1.87357">
        <ele>178.2</ele>
        <time>2024-03-14T16:46:22Z</time>
      </trkpt>
      <trkpt lat="48.68005" lon="1.87355">
        <ele>178.2</ele>
        <time>2024-03-14T16:46:23Z</time>
      </trkpt>
      <trkpt lat="48.67999" lon="1.87354">
        <ele>178.8</ele>
        <time>2024-03-14T16:46:24Z</time>
      </trkpt>
      <trkpt lat="48.67992" lon="1.87352">
        <ele>178.6</ele>
        <time>2024-03-14T16:46:25Z</time>
      </trkpt>
      <trkpt lat="48.67986" lon="1.87349">
        <ele>178.6</ele>
        <time>2024-03-14T16:46:26Z</time>
      </trkpt>
      <trkpt lat="48.67979" lon="1.87347">
        <ele>178.6</ele>
        <time>2024-03-14T16:46:27Z</time>
      </trkpt>
      <trkpt lat="48.67972" lon="1.87345">
        <ele>178.6</ele>
        <time>2024-03-14T16:46:28Z</time>
      </trkpt>
      <trkpt lat="48.67966" lon="1.87343">
        <ele>178.4</ele>
        <time>2024-03-14T16:46:29Z</time>
      </trkpt>
      <trkpt lat="48.67959" lon="1.87341">
        <ele>178.4</ele>
        <time>2024-03-14T16:46:30Z</time>
      </trkpt>
      <trkpt lat="48.67952" lon="1.87339">
        <ele>178.4</ele>
        <time>2024-03-14T16:46:31Z</time>
      </trkpt>
      <trkpt lat="48.67945" lon="1.87337">
        <ele>178.4</ele>
        <time>2024-03-14T16:46:32Z</time>
      </trkpt>
      <trkpt lat="48.67938" lon="1.87335">
        <ele>178.6</ele>
        <time>2024-03-14T16:46:33Z</time>
      </trkpt>
      <trkpt lat="48.67931" lon="1.87332">
        <ele>178.6</ele>
        <time>2024-03-14T16:46:34Z</time>
      </trkpt>
      <trkpt lat="48.67925" lon="1.8733">
        <ele>178.6</ele>
        <time>2024-03-14T16:46:35Z</time>
      </trkpt>
      <trkpt lat="48.67918" lon="1.87328">
        <ele>177.6</ele>
        <time>2024-03-14T16:46:36Z</time>
      </trkpt>
      <trkpt lat="48.67911" lon="1.87326">
        <ele>177.8</ele>
        <time>2024-03-14T16:46:37Z</time>
      </trkpt>
      <trkpt lat="48.67904" lon="1.87324">
        <ele>177.8</ele>
        <time>2024-03-14T16:46:38Z</time>
      </trkpt>
      <trkpt lat="48.67898" lon="1.87321">
        <ele>177.8</ele>
        <time>2024-03-14T16:46:39Z</time>
      </trkpt>
      <trkpt lat="48.67891" lon="1.87319">
        <ele>177.8</ele>
        <time>2024-03-14T16:46:40Z</time>
      </trkpt>
      <trkpt lat="48.67884" lon="1.87317">
        <ele>178</ele>
        <time>2024-03-14T16:46:41Z</time>
      </trkpt>
      <trkpt lat="48.67878" lon="1.87314">
        <ele>178</ele>
        <time>2024-03-14T16:46:42Z</time>
      </trkpt>
      <trkpt lat="48.67871" lon="1.87312">
        <ele>178</ele>
        <time>2024-03-14T16:46:43Z</time>
      </trkpt>
      <trkpt lat="48.67864" lon="1.87308">
        <ele>178</ele>
        <time>2024-03-14T16:46:44Z</time>
      </trkpt>
      <trkpt lat="48.67858" lon="1.87305">
        <ele>177.4</ele>
        <time>2024-03-14T16:46:45Z</time>
      </trkpt>
      <trkpt lat="48.67852" lon="1.873">
        <ele>177.4</ele>
        <time>2024-03-14T16:46:46Z</time>
      </trkpt>
      <trkpt lat="48.67846" lon="1.87294">
        <ele>177.4</ele>
        <time>2024-03-14T16:46:47Z</time>
      </trkpt>
      <trkpt lat="48.6784" lon="1.87288">
        <ele>178.2</ele>
        <time>2024-03-14T16:46:48Z</time>
      </trkpt>
      <trkpt lat="48.67835" lon="1.87281">
        <ele>178.8</ele>
        <time>2024-03-14T16:46:49Z</time>
      </trkpt>
      <trkpt lat="48.6783" lon="1.87274">
        <ele>178.8</ele>
        <time>2024-03-14T16:46:50Z</time>
      </trkpt>
      <trkpt lat="48.67826" lon="1.87266">
        <ele>178.8</ele>
        <time>2024-03-14T16:46:51Z</time>
      </trkpt>
      <trkpt lat="48.67821" lon="1.87258">
        <ele>178.8</ele>
        <time>2024-03-14T16:46:52Z</time>
      </trkpt>
      <trkpt lat="48.67817" lon="1.87251">
        <ele>179.4</ele>
        <time>2024-03-14T16:46:53Z</time>
      </trkpt>
      <trkpt lat="48.67812" lon="1.87243">
        <ele>179.4</ele>
        <time>2024-03-14T16:46:54Z</time>
      </trkpt>
      <trkpt lat="48.67808" lon="1.87235">
        <ele>179.4</ele>
        <time>2024-03-14T16:46:55Z</time>
      </trkpt>
      <trkpt lat="48.67804" lon="1.87227">
        <ele>178.6</ele>
        <time>2024-03-14T16:46:56Z</time>
      </trkpt>
      <trkpt lat="48.67799" lon="1.87219">
        <ele>178.2</ele>
        <time>2024-03-14T16:46:57Z</time>
      </trkpt>
      <trkpt lat="48.67795" lon="1.87212">
        <ele>178.2</ele>
        <time>2024-03-14T16:46:58Z</time>
      </trkpt>
      <trkpt lat="48.6779" lon="1.87204">
        <ele>178.2</ele>
        <time>2024-03-14T16:46:59Z</time>
      </trkpt>
      <trkpt lat="48.67785" lon="1.87197">
        <ele>178.2</ele>
        <time>2024-03-14T16:47:00Z</time>
      </trkpt>
      <trkpt lat="48.6778" lon="1.8719">
        <ele>177.8</ele>
        <time>2024-03-14T16:47:01Z</time>
      </trkpt>
      <trkpt lat="48.67775" lon="1.87184">
        <ele>177.8</ele>
        <time>2024-03-14T16:47:02Z</time>
      </trkpt>
      <trkpt lat="48.6777" lon="1.87179">
        <ele>177.8</ele>
        <time>2024-03-14T16:47:03Z</time>
      </trkpt>
      <trkpt lat="48.67764" lon="1.87174">
        <ele>178.8</ele>
        <time>2024-03-14T16:47:04Z</time>
      </trkpt>
      <trkpt lat="48.67758" lon="1.8717">
        <ele>178.2</ele>
        <time>2024-03-14T16:47:05Z</time>
      </trkpt>
      <trkpt lat="48.67752" lon="1.87168">
        <ele>178.2</ele>
        <time>2024-03-14T16:47:06Z</time>
      </trkpt>
      <trkpt lat="48.67746" lon="1.87165">
        <ele>178.2</ele>
        <time>2024-03-14T16:47:07Z</time>
      </trkpt>
      <trkpt lat="48.67739" lon="1.87164">
        <ele>178.4</ele>
        <time>2024-03-14T16:47:08Z</time>
      </trkpt>
      <trkpt lat="48.67733" lon="1.87164">
        <ele>178.4</ele>
        <time>2024-03-14T16:47:09Z</time>
      </trkpt>
      <trkpt lat="48.67726" lon="1.87164">
        <ele>178.4</ele>
        <time>2024-03-14T16:47:10Z</time>
      </trkpt>
      <trkpt lat="48.67719" lon="1.87165">
        <ele>178.4</ele>
        <time>2024-03-14T16:47:11Z</time>
      </trkpt>
      <trkpt lat="48.67713" lon="1.87167">
        <ele>178.6</ele>
        <time>2024-03-14T16:47:12Z</time>
      </trkpt>
      <trkpt lat="48.67706" lon="1.87169">
        <ele>178.6</ele>
        <time>2024-03-14T16:47:13Z</time>
      </trkpt>
      <trkpt lat="48.67699" lon="1.87172">
        <ele>178.6</ele>
        <time>2024-03-14T16:47:14Z</time>
      </trkpt>
      <trkpt lat="48.67693" lon="1.87175">
        <ele>178.6</ele>
        <time>2024-03-14T16:47:15Z</time>
      </trkpt>
      <trkpt lat="48.67686" lon="1.87178">
        <ele>178.6</ele>
        <time>2024-03-14T16:47:16Z</time>
      </trkpt>
      <trkpt lat="48.67679" lon="1.87181">
        <ele>178.4</ele>
        <time>2024-03-14T16:47:17Z</time>
      </trkpt>
      <trkpt lat="48.67672" lon="1.87184">
        <ele>178.4</ele>
        <time>2024-03-14T16:47:18Z</time>
      </trkpt>
      <trkpt lat="48.67666" lon="1.87187">
        <ele>178.4</ele>
        <time>2024-03-14T16:47:19Z</time>
      </trkpt>
      <trkpt lat="48.67659" lon="1.8719">
        <ele>178.4</ele>
        <time>2024-03-14T16:47:20Z</time>
      </trkpt>
      <trkpt lat="48.67652" lon="1.87192">
        <ele>177.6</ele>
        <time>2024-03-14T16:47:21Z</time>
      </trkpt>
      <trkpt lat="48.67646" lon="1.87194">
        <ele>177.6</ele>
        <time>2024-03-14T16:47:22Z</time>
      </trkpt>
      <trkpt lat="48.67639" lon="1.87197">
        <ele>177.6</ele>
        <time>2024-03-14T16:47:23Z</time>
      </trkpt>
      <trkpt lat="48.67633" lon="1.872">
        <ele>177.6</ele>
        <time>2024-03-14T16:47:24Z</time>
      </trkpt>
      <trkpt lat="48.67626" lon="1.87203">
        <ele>177.6</ele>
        <time>2024-03-14T16:47:25Z</time>
      </trkpt>
      <trkpt lat="48.6762" lon="1.87206">
        <ele>177.6</ele>
        <time>2024-03-14T16:47:26Z</time>
      </trkpt>
      <trkpt lat="48.67613" lon="1.87209">
        <ele>177.6</ele>
        <time>2024-03-14T16:47:27Z</time>
      </trkpt>
      <trkpt lat="48.67607" lon="1.87212">
        <ele>177.4</ele>
        <time>2024-03-14T16:47:28Z</time>
      </trkpt>
      <trkpt lat="48.67601" lon="1.87215">
        <ele>177</ele>
        <time>2024-03-14T16:47:29Z</time>
      </trkpt>
      <trkpt lat="48.67594" lon="1.87218">
        <ele>177</ele>
        <time>2024-03-14T16:47:30Z</time>
      </trkpt>
      <trkpt lat="48.67588" lon="1.87221">
        <ele>177</ele>
        <time>2024-03-14T16:47:31Z</time>
      </trkpt>
      <trkpt lat="48.67582" lon="1.87224">
        <ele>177</ele>
        <time>2024-03-14T16:47:32Z</time>
      </trkpt>
      <trkpt lat="48.67576" lon="1.87227">
        <ele>177.4</ele>
        <time>2024-03-14T16:47:33Z</time>
      </trkpt>
      <trkpt lat="48.6757" lon="1.8723">
        <ele>177.4</ele>
        <time>2024-03-14T16:47:34Z</time>
      </trkpt>
      <trkpt lat="48.67564" lon="1.87233">
        <ele>177.4</ele>
        <time>2024-03-14T16:47:35Z</time>
      </trkpt>
      <trkpt lat="48.67559" lon="1.87236">
        <ele>178.4</ele>
        <time>2024-03-14T16:47:36Z</time>
      </trkpt>
      <trkpt lat="48.67553" lon="1.87239">
        <ele>178.4</ele>
        <time>2024-03-14T16:47:37Z</time>
      </trkpt>
      <trkpt lat="48.67547" lon="1.87242">
        <ele>178.4</ele>
        <time>2024-03-14T16:47:38Z</time>
      </trkpt>
      <trkpt lat="48.67541" lon="1.87245">
        <ele>178.4</ele>
        <time>2024-03-14T16:47:39Z</time>
      </trkpt>
      <trkpt lat="48.67535" lon="1.87248">
        <ele>178.2</ele>
        <time>2024-03-14T16:47:40Z</time>
      </trkpt>
      <trkpt lat="48.67529" lon="1.87251">
        <ele>178</ele>
        <time>2024-03-14T16:47:41Z</time>
      </trkpt>
      <trkpt lat="48.67523" lon="1.87254">
        <ele>178</ele>
        <time>2024-03-14T16:47:42Z</time>
      </trkpt>
      <trkpt lat="48.67517" lon="1.87257">
        <ele>178</ele>
        <time>2024-03-14T16:47:43Z</time>
      </trkpt>
      <trkpt lat="48.67511" lon="1.8726">
        <ele>178</ele>
        <time>2024-03-14T16:47:44Z</time>
      </trkpt>
      <trkpt lat="48.67505" lon="1.87263">
        <ele>177.6</ele>
        <time>2024-03-14T16:47:45Z</time>
      </trkpt>
      <trkpt lat="48.67499" lon="1.87266">
        <ele>177.6</ele>
        <time>2024-03-14T16:47:46Z</time>
      </trkpt>
      <trkpt lat="48.67493" lon="1.87269">
        <ele>177.6</ele>
        <time>2024-03-14T16:47:47Z</time>
      </trkpt>
      <trkpt lat="48.67487" lon="1.87272">
        <ele>177.6</ele>
        <time>2024-03-14T16:47:48Z</time>
      </trkpt>
      <trkpt lat="48.67481" lon="1.87274">
        <ele>178.8</ele>
        <time>2024-03-14T16:47:49Z</time>
      </trkpt>
      <trkpt lat="48.67475" lon="1.87277">
        <ele>178.8</ele>
        <time>2024-03-14T16:47:50Z</time>
      </trkpt>
      <trkpt lat="48.67469" lon="1.8728">
        <ele>178.8</ele>
        <time>2024-03-14T16:47:51Z</time>
      </trkpt>
      <trkpt lat="48.67463" lon="1.87283">
        <ele>178</ele>
        <time>2024-03-14T16:47:52Z</time>
      </trkpt>
      <trkpt lat="48.67457" lon="1.87286">
        <ele>178.2</ele>
        <time>2024-03-14T16:47:53Z</time>
      </trkpt>
      <trkpt lat="48.67451" lon="1.8729">
        <ele>178.2</ele>
        <time>2024-03-14T16:47:54Z</time>
      </trkpt>
      <trkpt lat="48.67446" lon="1.87293">
        <ele>178.2</ele>
        <time>2024-03-14T16:47:55Z</time>
      </trkpt>
      <trkpt lat="48.67439" lon="1.87295">
        <ele>179.2</ele>
        <time>2024-03-14T16:47:56Z</time>
      </trkpt>
      <trkpt lat="48.67433" lon="1.87297">
        <ele>178.6</ele>
        <time>2024-03-14T16:47:57Z</time>
      </trkpt>
      <trkpt lat="48.67427" lon="1.87298">
        <ele>178.6</ele>
        <time>2024-03-14T16:47:58Z</time>
      </trkpt>
      <trkpt lat="48.6742" lon="1.873">
        <ele>178.6</ele>
        <time>2024-03-14T16:47:59Z</time>
      </trkpt>
      <trkpt lat="48.67414" lon="1.87303">
        <ele>178.4</ele>
        <time>2024-03-14T16:48:00Z</time>
      </trkpt>
      <trkpt lat="48.67407" lon="1.87305">
        <ele>178.2</ele>
        <time>2024-03-14T16:48:01Z</time>
      </trkpt>
      <trkpt lat="48.67401" lon="1.87308">
        <ele>178.2</ele>
        <time>2024-03-14T16:48:02Z</time>
      </trkpt>
      <trkpt lat="48.67395" lon="1.87312">
        <ele>178.2</ele>
        <time>2024-03-14T16:48:03Z</time>
      </trkpt>
      <trkpt lat="48.67388" lon="1.87316">
        <ele>178.2</ele>
        <time>2024-03-14T16:48:04Z</time>
      </trkpt>
      <trkpt lat="48.67382" lon="1.87319">
        <ele>178.8</ele>
        <time>2024-03-14T16:48:05Z</time>
      </trkpt>
      <trkpt lat="48.67376" lon="1.87323">
        <ele>178.8</ele>
        <time>2024-03-14T16:48:06Z</time>
      </trkpt>
      <trkpt lat="48.6737" lon="1.87327">
        <ele>178.8</ele>
        <time>2024-03-14T16:48:07Z</time>
      </trkpt>
      <trkpt lat="48.67364" lon="1.8733">
        <ele>178.8</ele>
        <time>2024-03-14T16:48:08Z</time>
      </trkpt>
      <trkpt lat="48.67358" lon="1.87334">
        <ele>178</ele>
        <time>2024-03-14T16:48:09Z</time>
      </trkpt>
      <trkpt lat="48.67351" lon="1.87337">
        <ele>178</ele>
        <time>2024-03-14T16:48:10Z</time>
      </trkpt>
      <trkpt lat="48.67345" lon="1.8734">
        <ele>178</ele>
        <time>2024-03-14T16:48:11Z</time>
      </trkpt>
      <trkpt lat="48.67339" lon="1.87343">
        <ele>178</ele>
        <time>2024-03-14T16:48:12Z</time>
      </trkpt>
      <trkpt lat="48.67333" lon="1.87347">
        <ele>177.8</ele>
        <time>2024-03-14T16:48:13Z</time>
      </trkpt>
      <trkpt lat="48.67326" lon="1.8735">
        <ele>177.8</ele>
        <time>2024-03-14T16:48:14Z</time>
      </trkpt>
      <trkpt lat="48.6732" lon="1.87352">
        <ele>177.8</ele>
        <time>2024-03-14T16:48:15Z</time>
      </trkpt>
      <trkpt lat="48.67314" lon="1.87355">
        <ele>177.8</ele>
        <time>2024-03-14T16:48:16Z</time>
      </trkpt>
      <trkpt lat="48.67307" lon="1.87358">
        <ele>177.4</ele>
        <time>2024-03-14T16:48:17Z</time>
      </trkpt>
      <trkpt lat="48.67301" lon="1.87361">
        <ele>177.4</ele>
        <time>2024-03-14T16:48:18Z</time>
      </trkpt>
      <trkpt lat="48.67295" lon="1.87364">
        <ele>177.4</ele>
        <time>2024-03-14T16:48:19Z</time>
      </trkpt>
      <trkpt lat="48.67288" lon="1.87367">
        <ele>177.6</ele>
        <time>2024-03-14T16:48:20Z</time>
      </trkpt>
      <trkpt lat="48.67282" lon="1.8737">
        <ele>177.6</ele>
        <time>2024-03-14T16:48:21Z</time>
      </trkpt>
      <trkpt lat="48.67275" lon="1.87374">
        <ele>177.6</ele>
        <time>2024-03-14T16:48:22Z</time>
      </trkpt>
      <trkpt lat="48.67268" lon="1.87377">
        <ele>177.6</ele>
        <time>2024-03-14T16:48:23Z</time>
      </trkpt>
      <trkpt lat="48.67262" lon="1.8738">
        <ele>177.6</ele>
        <time>2024-03-14T16:48:24Z</time>
      </trkpt>
      <trkpt lat="48.67256" lon="1.87383">
        <ele>177.6</ele>
        <time>2024-03-14T16:48:25Z</time>
      </trkpt>
      <trkpt lat="48.67249" lon="1.87386">
        <ele>177.6</ele>
        <time>2024-03-14T16:48:26Z</time>
      </trkpt>
      <trkpt lat="48.67243" lon="1.8739">
        <ele>177.6</ele>
        <time>2024-03-14T16:48:27Z</time>
      </trkpt>
      <trkpt lat="48.67237" lon="1.87393">
        <ele>177.6</ele>
        <time>2024-03-14T16:48:28Z</time>
      </trkpt>
      <trkpt lat="48.6723" lon="1.87396">
        <ele>178.4</ele>
        <time>2024-03-14T16:48:29Z</time>
      </trkpt>
      <trkpt lat="48.67224" lon="1.874">
        <ele>178.4</ele>
        <time>2024-03-14T16:48:30Z</time>
      </trkpt>
      <trkpt lat="48.67218" lon="1.87403">
        <ele>178.4</ele>
        <time>2024-03-14T16:48:31Z</time>
      </trkpt>
      <trkpt lat="48.67211" lon="1.87406">
        <ele>177.8</ele>
        <time>2024-03-14T16:48:32Z</time>
      </trkpt>
      <trkpt lat="48.67205" lon="1.87409">
        <ele>177.8</ele>
        <time>2024-03-14T16:48:33Z</time>
      </trkpt>
      <trkpt lat="48.67198" lon="1.87412">
        <ele>177.8</ele>
        <time>2024-03-14T16:48:34Z</time>
      </trkpt>
      <trkpt lat="48.67192" lon="1.87415">
        <ele>177.8</ele>
        <time>2024-03-14T16:48:35Z</time>
      </trkpt>
      <trkpt lat="48.67186" lon="1.87418">
        <ele>177.8</ele>
        <time>2024-03-14T16:48:36Z</time>
      </trkpt>
      <trkpt lat="48.6718" lon="1.87421">
        <ele>177.8</ele>
        <time>2024-03-14T16:48:37Z</time>
      </trkpt>
      <trkpt lat="48.67173" lon="1.87424">
        <ele>177.8</ele>
        <time>2024-03-14T16:48:38Z</time>
      </trkpt>
      <trkpt lat="48.67167" lon="1.87426">
        <ele>177.8</ele>
        <time>2024-03-14T16:48:39Z</time>
      </trkpt>
      <trkpt lat="48.67161" lon="1.87429">
        <ele>178.2</ele>
        <time>2024-03-14T16:48:40Z</time>
      </trkpt>
      <trkpt lat="48.67154" lon="1.87432">
        <ele>178.4</ele>
        <time>2024-03-14T16:48:41Z</time>
      </trkpt>
      <trkpt lat="48.67148" lon="1.87435">
        <ele>178.4</ele>
        <time>2024-03-14T16:48:42Z</time>
      </trkpt>
      <trkpt lat="48.67142" lon="1.87438">
        <ele>178.4</ele>
        <time>2024-03-14T16:48:43Z</time>
      </trkpt>
      <trkpt lat="48.67135" lon="1.87441">
        <ele>178.4</ele>
        <time>2024-03-14T16:48:44Z</time>
      </trkpt>
      <trkpt lat="48.67129" lon="1.87444">
        <ele>178</ele>
        <time>2024-03-14T16:48:45Z</time>
      </trkpt>
      <trkpt lat="48.67122" lon="1.87447">
        <ele>178</ele>
        <time>2024-03-14T16:48:46Z</time>
      </trkpt>
      <trkpt lat="48.67116" lon="1.8745">
        <ele>178</ele>
        <time>2024-03-14T16:48:47Z</time>
      </trkpt>
      <trkpt lat="48.6711" lon="1.87453">
        <ele>178</ele>
        <time>2024-03-14T16:48:48Z</time>
      </trkpt>
      <trkpt lat="48.67103" lon="1.87456">
        <ele>177</ele>
        <time>2024-03-14T16:48:49Z</time>
      </trkpt>
      <trkpt lat="48.67097" lon="1.87459">
        <ele>177</ele>
        <time>2024-03-14T16:48:50Z</time>
      </trkpt>
      <trkpt lat="48.67091" lon="1.87462">
        <ele>177</ele>
        <time>2024-03-14T16:48:51Z</time>
      </trkpt>
      <trkpt lat="48.67085" lon="1.87465">
        <ele>178</ele>
        <time>2024-03-14T16:48:52Z</time>
      </trkpt>
      <trkpt lat="48.67079" lon="1.87468">
        <ele>177.6</ele>
        <time>2024-03-14T16:48:53Z</time>
      </trkpt>
      <trkpt lat="48.67073" lon="1.8747">
        <ele>177.6</ele>
        <time>2024-03-14T16:48:54Z</time>
      </trkpt>
      <trkpt lat="48.67067" lon="1.87473">
        <ele>177.6</ele>
        <time>2024-03-14T16:48:55Z</time>
      </trkpt>
      <trkpt lat="48.67061" lon="1.87476">
        <ele>177.6</ele>
        <time>2024-03-14T16:48:56Z</time>
      </trkpt>
      <trkpt lat="48.67055" lon="1.87479">
        <ele>177.8</ele>
        <time>2024-03-14T16:48:57Z</time>
      </trkpt>
      <trkpt lat="48.6705" lon="1.87481">
        <ele>177.8</ele>
        <time>2024-03-14T16:48:58Z</time>
      </trkpt>
      <trkpt lat="48.67044" lon="1.87484">
        <ele>177.8</ele>
        <time>2024-03-14T16:48:59Z</time>
      </trkpt>
      <trkpt lat="48.67038" lon="1.87486">
        <ele>178.8</ele>
        <time>2024-03-14T16:49:00Z</time>
      </trkpt>
      <trkpt lat="48.67033" lon="1.87489">
        <ele>179</ele>
        <time>2024-03-14T16:49:01Z</time>
      </trkpt>
      <trkpt lat="48.67027" lon="1.87492">
        <ele>179</ele>
        <time>2024-03-14T16:49:02Z</time>
      </trkpt>
      <trkpt lat="48.67021" lon="1.87495">
        <ele>179</ele>
        <time>2024-03-14T16:49:03Z</time>
      </trkpt>
      <trkpt lat="48.67015" lon="1.87498">
        <ele>179.2</ele>
        <time>2024-03-14T16:49:04Z</time>
      </trkpt>
      <trkpt lat="48.67009" lon="1.87501">
        <ele>178.6</ele>
        <time>2024-03-14T16:49:05Z</time>
      </trkpt>
      <trkpt lat="48.67003" lon="1.87504">
        <ele>178.6</ele>
        <time>2024-03-14T16:49:06Z</time>
      </trkpt>
      <trkpt lat="48.66997" lon="1.87507">
        <ele>178.6</ele>
        <time>2024-03-14T16:49:07Z</time>
      </trkpt>
      <trkpt lat="48.66991" lon="1.8751">
        <ele>177.6</ele>
        <time>2024-03-14T16:49:08Z</time>
      </trkpt>
      <trkpt lat="48.66984" lon="1.87513">
        <ele>177.2</ele>
        <time>2024-03-14T16:49:09Z</time>
      </trkpt>
      <trkpt lat="48.66978" lon="1.87516">
        <ele>177.2</ele>
        <time>2024-03-14T16:49:10Z</time>
      </trkpt>
      <trkpt lat="48.66972" lon="1.87518">
        <ele>177.2</ele>
        <time>2024-03-14T16:49:11Z</time>
      </trkpt>
      <trkpt lat="48.66967" lon="1.8752">
        <ele>178.2</ele>
        <time>2024-03-14T16:49:12Z</time>
      </trkpt>
      <trkpt lat="48.66961" lon="1.87523">
        <ele>178.4</ele>
        <time>2024-03-14T16:49:13Z</time>
      </trkpt>
      <trkpt lat="48.66955" lon="1.87526">
        <ele>178.4</ele>
        <time>2024-03-14T16:49:14Z</time>
      </trkpt>
      <trkpt lat="48.66949" lon="1.87529">
        <ele>178.4</ele>
        <time>2024-03-14T16:49:15Z</time>
      </trkpt>
      <trkpt lat="48.66943" lon="1.87532">
        <ele>178.4</ele>
        <time>2024-03-14T16:49:16Z</time>
      </trkpt>
      <trkpt lat="48.66938" lon="1.87534">
        <ele>178.2</ele>
        <time>2024-03-14T16:49:17Z</time>
      </trkpt>
      <trkpt lat="48.66932" lon="1.87537">
        <ele>178.2</ele>
        <time>2024-03-14T16:49:18Z</time>
      </trkpt>
      <trkpt lat="48.66926" lon="1.8754">
        <ele>178.2</ele>
        <time>2024-03-14T16:49:19Z</time>
      </trkpt>
      <trkpt lat="48.6692" lon="1.87543">
        <ele>178.2</ele>
        <time>2024-03-14T16:49:20Z</time>
      </trkpt>
      <trkpt lat="48.66914" lon="1.87546">
        <ele>178</ele>
        <time>2024-03-14T16:49:21Z</time>
      </trkpt>
      <trkpt lat="48.66907" lon="1.87549">
        <ele>178</ele>
        <time>2024-03-14T16:49:22Z</time>
      </trkpt>
      <trkpt lat="48.66901" lon="1.87552">
        <ele>178</ele>
        <time>2024-03-14T16:49:23Z</time>
      </trkpt>
      <trkpt lat="48.66895" lon="1.87555">
        <ele>178</ele>
        <time>2024-03-14T16:49:24Z</time>
      </trkpt>
      <trkpt lat="48.66889" lon="1.87558">
        <ele>177.6</ele>
        <time>2024-03-14T16:49:25Z</time>
      </trkpt>
      <trkpt lat="48.66882" lon="1.8756">
        <ele>177.6</ele>
        <time>2024-03-14T16:49:26Z</time>
      </trkpt>
      <trkpt lat="48.66876" lon="1.87563">
        <ele>177.6</ele>
        <time>2024-03-14T16:49:27Z</time>
      </trkpt>
      <trkpt lat="48.6687" lon="1.87566">
        <ele>177.6</ele>
        <time>2024-03-14T16:49:28Z</time>
      </trkpt>
      <trkpt lat="48.66863" lon="1.87569">
        <ele>177.8</ele>
        <time>2024-03-14T16:49:29Z</time>
      </trkpt>
      <trkpt lat="48.66857" lon="1.87572">
        <ele>177.8</ele>
        <time>2024-03-14T16:49:30Z</time>
      </trkpt>
      <trkpt lat="48.6685" lon="1.87575">
        <ele>177.8</ele>
        <time>2024-03-14T16:49:31Z</time>
      </trkpt>
      <trkpt lat="48.66844" lon="1.87578">
        <ele>177.8</ele>
        <time>2024-03-14T16:49:32Z</time>
      </trkpt>
      <trkpt lat="48.66837" lon="1.87581">
        <ele>177.4</ele>
        <time>2024-03-14T16:49:33Z</time>
      </trkpt>
      <trkpt lat="48.66831" lon="1.87584">
        <ele>177.4</ele>
        <time>2024-03-14T16:49:34Z</time>
      </trkpt>
      <trkpt lat="48.66825" lon="1.87586">
        <ele>177.4</ele>
        <time>2024-03-14T16:49:35Z</time>
      </trkpt>
      <trkpt lat="48.66818" lon="1.87589">
        <ele>177.4</ele>
        <time>2024-03-14T16:49:36Z</time>
      </trkpt>
      <trkpt lat="48.66812" lon="1.87592">
        <ele>176.6</ele>
        <time>2024-03-14T16:49:37Z</time>
      </trkpt>
      <trkpt lat="48.66805" lon="1.87595">
        <ele>176.6</ele>
        <time>2024-03-14T16:49:38Z</time>
      </trkpt>
      <trkpt lat="48.66799" lon="1.87599">
        <ele>176.6</ele>
        <time>2024-03-14T16:49:39Z</time>
      </trkpt>
      <trkpt lat="48.66792" lon="1.87602">
        <ele>176.6</ele>
        <time>2024-03-14T16:49:40Z</time>
      </trkpt>
      <trkpt lat="48.66786" lon="1.87605">
        <ele>176.8</ele>
        <time>2024-03-14T16:49:41Z</time>
      </trkpt>
      <trkpt lat="48.66779" lon="1.87608">
        <ele>176.8</ele>
        <time>2024-03-14T16:49:42Z</time>
      </trkpt>
      <trkpt lat="48.66773" lon="1.87611">
        <ele>176.8</ele>
        <time>2024-03-14T16:49:43Z</time>
      </trkpt>
      <trkpt lat="48.66766" lon="1.87614">
        <ele>177.6</ele>
        <time>2024-03-14T16:49:44Z</time>
      </trkpt>
      <trkpt lat="48.6676" lon="1.87618">
        <ele>177.6</ele>
        <time>2024-03-14T16:49:45Z</time>
      </trkpt>
      <trkpt lat="48.66754" lon="1.87621">
        <ele>177.6</ele>
        <time>2024-03-14T16:49:46Z</time>
      </trkpt>
      <trkpt lat="48.66747" lon="1.87624">
        <ele>177.6</ele>
        <time>2024-03-14T16:49:47Z</time>
      </trkpt>
      <trkpt lat="48.66741" lon="1.87626">
        <ele>177.6</ele>
        <time>2024-03-14T16:49:48Z</time>
      </trkpt>
      <trkpt lat="48.66735" lon="1.87629">
        <ele>177.2</ele>
        <time>2024-03-14T16:49:49Z</time>
      </trkpt>
      <trkpt lat="48.66729" lon="1.87632">
        <ele>177.2</ele>
        <time>2024-03-14T16:49:50Z</time>
      </trkpt>
      <trkpt lat="48.66723" lon="1.87635">
        <ele>177.2</ele>
        <time>2024-03-14T16:49:51Z</time>
      </trkpt>
      <trkpt lat="48.66717" lon="1.87638">
        <ele>177.2</ele>
        <time>2024-03-14T16:49:52Z</time>
      </trkpt>
      <trkpt lat="48.66711" lon="1.87641">
        <ele>177.4</ele>
        <time>2024-03-14T16:49:53Z</time>
      </trkpt>
      <trkpt lat="48.66705" lon="1.87644">
        <ele>177.4</ele>
        <time>2024-03-14T16:49:54Z</time>
      </trkpt>
      <trkpt lat="48.66699" lon="1.87647">
        <ele>177.4</ele>
        <time>2024-03-14T16:49:55Z</time>
      </trkpt>
      <trkpt lat="48.66693" lon="1.8765">
        <ele>178</ele>
        <time>2024-03-14T16:49:56Z</time>
      </trkpt>
      <trkpt lat="48.66687" lon="1.87653">
        <ele>178.8</ele>
        <time>2024-03-14T16:49:57Z</time>
      </trkpt>
      <trkpt lat="48.66681" lon="1.87656">
        <ele>178.8</ele>
        <time>2024-03-14T16:49:58Z</time>
      </trkpt>
      <trkpt lat="48.66675" lon="1.87659">
        <ele>178.8</ele>
        <time>2024-03-14T16:49:59Z</time>
      </trkpt>
      <trkpt lat="48.66669" lon="1.87662">
        <ele>178</ele>
        <time>2024-03-14T16:50:00Z</time>
      </trkpt>
      <trkpt lat="48.66663" lon="1.87664">
        <ele>178.8</ele>
        <time>2024-03-14T16:50:01Z</time>
      </trkpt>
      <trkpt lat="48.66658" lon="1.87667">
        <ele>178.8</ele>
        <time>2024-03-14T16:50:02Z</time>
      </trkpt>
      <trkpt lat="48.66652" lon="1.8767">
        <ele>178.8</ele>
        <time>2024-03-14T16:50:03Z</time>
      </trkpt>
      <trkpt lat="48.66647" lon="1.87673">
        <ele>178.8</ele>
        <time>2024-03-14T16:50:04Z</time>
      </trkpt>
      <trkpt lat="48.66642" lon="1.87677">
        <ele>179</ele>
        <time>2024-03-14T16:50:05Z</time>
      </trkpt>
      <trkpt lat="48.66638" lon="1.87682">
        <ele>179</ele>
        <time>2024-03-14T16:50:06Z</time>
      </trkpt>
      <trkpt lat="48.66636" lon="1.87689">
        <ele>179</ele>
        <time>2024-03-14T16:50:07Z</time>
      </trkpt>
      <trkpt lat="48.66635" lon="1.87697">
        <ele>179.6</ele>
        <time>2024-03-14T16:50:08Z</time>
      </trkpt>
      <trkpt lat="48.66637" lon="1.87706">
        <ele>179.4</ele>
        <time>2024-03-14T16:50:09Z</time>
      </trkpt>
      <trkpt lat="48.66638" lon="1.87714">
        <ele>179.4</ele>
        <time>2024-03-14T16:50:10Z</time>
      </trkpt>
      <trkpt lat="48.6664" lon="1.87723">
        <ele>179.4</ele>
        <time>2024-03-14T16:50:11Z</time>
      </trkpt>
      <trkpt lat="48.66642" lon="1.87732">
        <ele>179.4</ele>
        <time>2024-03-14T16:50:12Z</time>
      </trkpt>
      <trkpt lat="48.66643" lon="1.8774">
        <ele>179</ele>
        <time>2024-03-14T16:50:13Z</time>
      </trkpt>
      <trkpt lat="48.66645" lon="1.87749">
        <ele>179</ele>
        <time>2024-03-14T16:50:14Z</time>
      </trkpt>
      <trkpt lat="48.66646" lon="1.87758">
        <ele>179</ele>
        <time>2024-03-14T16:50:15Z</time>
      </trkpt>
      <trkpt lat="48.66647" lon="1.87768">
        <ele>179</ele>
        <time>2024-03-14T16:50:16Z</time>
      </trkpt>
      <trkpt lat="48.66649" lon="1.87777">
        <ele>179</ele>
        <time>2024-03-14T16:50:17Z</time>
      </trkpt>
      <trkpt lat="48.6665" lon="1.87787">
        <ele>179</ele>
        <time>2024-03-14T16:50:18Z</time>
      </trkpt>
      <trkpt lat="48.66652" lon="1.87796">
        <ele>179</ele>
        <time>2024-03-14T16:50:19Z</time>
      </trkpt>
      <trkpt lat="48.66654" lon="1.87806">
        <ele>179</ele>
        <time>2024-03-14T16:50:20Z</time>
      </trkpt>
      <trkpt lat="48.66656" lon="1.87815">
        <ele>179</ele>
        <time>2024-03-14T16:50:21Z</time>
      </trkpt>
      <trkpt lat="48.66657" lon="1.87825">
        <ele>179</ele>
        <time>2024-03-14T16:50:22Z</time>
      </trkpt>
      <trkpt lat="48.66659" lon="1.87834">
        <ele>179</ele>
        <time>2024-03-14T16:50:23Z</time>
      </trkpt>
      <trkpt lat="48.66661" lon="1.87844">
        <ele>178</ele>
        <time>2024-03-14T16:50:24Z</time>
      </trkpt>
      <trkpt lat="48.66663" lon="1.87854">
        <ele>178</ele>
        <time>2024-03-14T16:50:25Z</time>
      </trkpt>
      <trkpt lat="48.66665" lon="1.87864">
        <ele>178</ele>
        <time>2024-03-14T16:50:26Z</time>
      </trkpt>
      <trkpt lat="48.66667" lon="1.87874">
        <ele>178</ele>
        <time>2024-03-14T16:50:27Z</time>
      </trkpt>
      <trkpt lat="48.66668" lon="1.87884">
        <ele>178.2</ele>
        <time>2024-03-14T16:50:28Z</time>
      </trkpt>
      <trkpt lat="48.6667" lon="1.87894">
        <ele>178.2</ele>
        <time>2024-03-14T16:50:29Z</time>
      </trkpt>
      <trkpt lat="48.66672" lon="1.87904">
        <ele>178.2</ele>
        <time>2024-03-14T16:50:30Z</time>
      </trkpt>
      <trkpt lat="48.66674" lon="1.87914">
        <ele>178.2</ele>
        <time>2024-03-14T16:50:31Z</time>
      </trkpt>
      <trkpt lat="48.66676" lon="1.87924">
        <ele>178.4</ele>
        <time>2024-03-14T16:50:32Z</time>
      </trkpt>
      <trkpt lat="48.66677" lon="1.87935">
        <ele>178.4</ele>
        <time>2024-03-14T16:50:33Z</time>
      </trkpt>
      <trkpt lat="48.66679" lon="1.87945">
        <ele>178.4</ele>
        <time>2024-03-14T16:50:34Z</time>
      </trkpt>
      <trkpt lat="48.66681" lon="1.87955">
        <ele>178.4</ele>
        <time>2024-03-14T16:50:35Z</time>
      </trkpt>
      <trkpt lat="48.66683" lon="1.87965">
        <ele>178.4</ele>
        <time>2024-03-14T16:50:36Z</time>
      </trkpt>
      <trkpt lat="48.66685" lon="1.87975">
        <ele>178.2</ele>
        <time>2024-03-14T16:50:37Z</time>
      </trkpt>
      <trkpt lat="48.66687" lon="1.87985">
        <ele>178.2</ele>
        <time>2024-03-14T16:50:38Z</time>
      </trkpt>
      <trkpt lat="48.66689" lon="1.87995">
        <ele>178.2</ele>
        <time>2024-03-14T16:50:39Z</time>
      </trkpt>
      <trkpt lat="48.66691" lon="1.88005">
        <ele>178.2</ele>
        <time>2024-03-14T16:50:40Z</time>
      </trkpt>
      <trkpt lat="48.66693" lon="1.88015">
        <ele>178</ele>
        <time>2024-03-14T16:50:41Z</time>
      </trkpt>
      <trkpt lat="48.66695" lon="1.88025">
        <ele>178</ele>
        <time>2024-03-14T16:50:42Z</time>
      </trkpt>
      <trkpt lat="48.66697" lon="1.88036">
        <ele>178</ele>
        <time>2024-03-14T16:50:43Z</time>
      </trkpt>
      <trkpt lat="48.66698" lon="1.88046">
        <ele>178.2</ele>
        <time>2024-03-14T16:50:44Z</time>
      </trkpt>
      <trkpt lat="48.667" lon="1.88056">
        <ele>178</ele>
        <time>2024-03-14T16:50:45Z</time>
      </trkpt>
      <trkpt lat="48.66702" lon="1.88066">
        <ele>178</ele>
        <time>2024-03-14T16:50:46Z</time>
      </trkpt>
      <trkpt lat="48.66704" lon="1.88076">
        <ele>178</ele>
        <time>2024-03-14T16:50:47Z</time>
      </trkpt>
      <trkpt lat="48.66706" lon="1.88085">
        <ele>178</ele>
        <time>2024-03-14T16:50:48Z</time>
      </trkpt>
      <trkpt lat="48.66708" lon="1.88095">
        <ele>178.2</ele>
        <time>2024-03-14T16:50:49Z</time>
      </trkpt>
      <trkpt lat="48.6671" lon="1.88105">
        <ele>178.2</ele>
        <time>2024-03-14T16:50:50Z</time>
      </trkpt>
      <trkpt lat="48.66712" lon="1.88115">
        <ele>178.2</ele>
        <time>2024-03-14T16:50:51Z</time>
      </trkpt>
      <trkpt lat="48.66714" lon="1.88125">
        <ele>178.2</ele>
        <time>2024-03-14T16:50:52Z</time>
      </trkpt>
      <trkpt lat="48.66716" lon="1.88134">
        <ele>178</ele>
        <time>2024-03-14T16:50:53Z</time>
      </trkpt>
      <trkpt lat="48.66718" lon="1.88144">
        <ele>178</ele>
        <time>2024-03-14T16:50:54Z</time>
      </trkpt>
      <trkpt lat="48.6672" lon="1.88154">
        <ele>178</ele>
        <time>2024-03-14T16:50:55Z</time>
      </trkpt>
      <trkpt lat="48.66723" lon="1.88163">
        <ele>178.6</ele>
        <time>2024-03-14T16:50:56Z</time>
      </trkpt>
      <trkpt lat="48.66727" lon="1.88171">
        <ele>179.2</ele>
        <time>2024-03-14T16:50:57Z</time>
      </trkpt>
      <trkpt lat="48.66731" lon="1.88179">
        <ele>179.2</ele>
        <time>2024-03-14T16:50:58Z</time>
      </trkpt>
      <trkpt lat="48.66737" lon="1.88185">
        <ele>179.2</ele>
        <time>2024-03-14T16:50:59Z</time>
      </trkpt>
      <trkpt lat="48.66743" lon="1.88189">
        <ele>179.2</ele>
        <time>2024-03-14T16:51:00Z</time>
      </trkpt>
      <trkpt lat="48.6675" lon="1.88192">
        <ele>179.4</ele>
        <time>2024-03-14T16:51:01Z</time>
      </trkpt>
      <trkpt lat="48.66756" lon="1.88195">
        <ele>179.4</ele>
        <time>2024-03-14T16:51:02Z</time>
      </trkpt>
      <trkpt lat="48.66763" lon="1.88197">
        <ele>179.4</ele>
        <time>2024-03-14T16:51:03Z</time>
      </trkpt>
      <trkpt lat="48.6677" lon="1.88199">
        <ele>179.4</ele>
        <time>2024-03-14T16:51:04Z</time>
      </trkpt>
      <trkpt lat="48.66777" lon="1.88201">
        <ele>180.2</ele>
        <time>2024-03-14T16:51:05Z</time>
      </trkpt>
      <trkpt lat="48.66783" lon="1.88202">
        <ele>180.2</ele>
        <time>2024-03-14T16:51:06Z</time>
      </trkpt>
      <trkpt lat="48.6679" lon="1.88204">
        <ele>180.2</ele>
        <time>2024-03-14T16:51:07Z</time>
      </trkpt>
      <trkpt lat="48.66797" lon="1.88205">
        <ele>180.2</ele>
        <time>2024-03-14T16:51:08Z</time>
      </trkpt>
      <trkpt lat="48.66804" lon="1.88207">
        <ele>179.8</ele>
        <time>2024-03-14T16:51:09Z</time>
      </trkpt>
      <trkpt lat="48.6681" lon="1.88209">
        <ele>179.8</ele>
        <time>2024-03-14T16:51:10Z</time>
      </trkpt>
      <trkpt lat="48.66817" lon="1.88211">
        <ele>179.8</ele>
        <time>2024-03-14T16:51:11Z</time>
      </trkpt>
      <trkpt lat="48.66824" lon="1.88213">
        <ele>179.8</ele>
        <time>2024-03-14T16:51:12Z</time>
      </trkpt>
      <trkpt lat="48.66832" lon="1.88215">
        <ele>180.2</ele>
        <time>2024-03-14T16:51:13Z</time>
      </trkpt>
      <trkpt lat="48.66839" lon="1.88217">
        <ele>180.2</ele>
        <time>2024-03-14T16:51:14Z</time>
      </trkpt>
      <trkpt lat="48.66846" lon="1.88219">
        <ele>180.2</ele>
        <time>2024-03-14T16:51:15Z</time>
      </trkpt>
      <trkpt lat="48.66853" lon="1.88221">
        <ele>179.8</ele>
        <time>2024-03-14T16:51:16Z</time>
      </trkpt>
      <trkpt lat="48.6686" lon="1.88223">
        <ele>180</ele>
        <time>2024-03-14T16:51:17Z</time>
      </trkpt>
      <trkpt lat="48.66866" lon="1.88225">
        <ele>180</ele>
        <time>2024-03-14T16:51:18Z</time>
      </trkpt>
      <trkpt lat="48.66873" lon="1.88227">
        <ele>180</ele>
        <time>2024-03-14T16:51:19Z</time>
      </trkpt>
      <trkpt lat="48.6688" lon="1.88229">
        <ele>180.6</ele>
        <time>2024-03-14T16:51:20Z</time>
      </trkpt>
      <trkpt lat="48.66887" lon="1.88232">
        <ele>180.8</ele>
        <time>2024-03-14T16:51:21Z</time>
      </trkpt>
      <trkpt lat="48.66894" lon="1.88234">
        <ele>180.8</ele>
        <time>2024-03-14T16:51:22Z</time>
      </trkpt>
      <trkpt lat="48.66901" lon="1.88237">
        <ele>180.8</ele>
        <time>2024-03-14T16:51:23Z</time>
      </trkpt>
      <trkpt lat="48.66908" lon="1.88239">
        <ele>180.2</ele>
        <time>2024-03-14T16:51:24Z</time>
      </trkpt>
      <trkpt lat="48.66915" lon="1.88241">
        <ele>180</ele>
        <time>2024-03-14T16:51:25Z</time>
      </trkpt>
      <trkpt lat="48.66922" lon="1.88244">
        <ele>180</ele>
        <time>2024-03-14T16:51:26Z</time>
      </trkpt>
      <trkpt lat="48.66929" lon="1.88247">
        <ele>180</ele>
        <time>2024-03-14T16:51:27Z</time>
      </trkpt>
      <trkpt lat="48.66936" lon="1.88249">
        <ele>180</ele>
        <time>2024-03-14T16:51:28Z</time>
      </trkpt>
      <trkpt lat="48.66943" lon="1.88252">
        <ele>179.2</ele>
        <time>2024-03-14T16:51:29Z</time>
      </trkpt>
      <trkpt lat="48.6695" lon="1.88255">
        <ele>179.2</ele>
        <time>2024-03-14T16:51:30Z</time>
      </trkpt>
      <trkpt lat="48.66957" lon="1.88258">
        <ele>179.2</ele>
        <time>2024-03-14T16:51:31Z</time>
      </trkpt>
      <trkpt lat="48.66965" lon="1.88261">
        <ele>179.2</ele>
        <time>2024-03-14T16:51:32Z</time>
      </trkpt>
      <trkpt lat="48.66972" lon="1.88264">
        <ele>179.4</ele>
        <time>2024-03-14T16:51:33Z</time>
      </trkpt>
      <trkpt lat="48.66979" lon="1.88266">
        <ele>179.4</ele>
        <time>2024-03-14T16:51:34Z</time>
      </trkpt>
      <trkpt lat="48.66986" lon="1.88269">
        <ele>179.4</ele>
        <time>2024-03-14T16:51:35Z</time>
      </trkpt>
      <trkpt lat="48.66993" lon="1.88272">
        <ele>179.4</ele>
        <time>2024-03-14T16:51:36Z</time>
      </trkpt>
      <trkpt lat="48.67001" lon="1.88275">
        <ele>179.6</ele>
        <time>2024-03-14T16:51:37Z</time>
      </trkpt>
      <trkpt lat="48.67008" lon="1.88277">
        <ele>179.6</ele>
        <time>2024-03-14T16:51:38Z</time>
      </trkpt>
      <trkpt lat="48.67015" lon="1.8828">
        <ele>179.6</ele>
        <time>2024-03-14T16:51:39Z</time>
      </trkpt>
      <trkpt lat="48.67022" lon="1.88283">
        <ele>179.6</ele>
        <time>2024-03-14T16:51:40Z</time>
      </trkpt>
      <trkpt lat="48.6703" lon="1.88286">
        <ele>179.6</ele>
        <time>2024-03-14T16:51:41Z</time>
      </trkpt>
      <trkpt lat="48.67037" lon="1.88289">
        <ele>179.6</ele>
        <time>2024-03-14T16:51:42Z</time>
      </trkpt>
      <trkpt lat="48.67045" lon="1.88292">
        <ele>179.6</ele>
        <time>2024-03-14T16:51:43Z</time>
      </trkpt>
      <trkpt lat="48.67052" lon="1.88295">
        <ele>179.6</ele>
        <time>2024-03-14T16:51:44Z</time>
      </trkpt>
      <trkpt lat="48.67059" lon="1.88298">
        <ele>180.2</ele>
        <time>2024-03-14T16:51:45Z</time>
      </trkpt>
      <trkpt lat="48.67067" lon="1.88301">
        <ele>180.2</ele>
        <time>2024-03-14T16:51:46Z</time>
      </trkpt>
      <trkpt lat="48.67074" lon="1.88304">
        <ele>180.2</ele>
        <time>2024-03-14T16:51:47Z</time>
      </trkpt>
      <trkpt lat="48.67081" lon="1.88306">
        <ele>180.2</ele>
        <time>2024-03-14T16:51:48Z</time>
      </trkpt>
      <trkpt lat="48.67089" lon="1.88309">
        <ele>180.4</ele>
        <time>2024-03-14T16:51:49Z</time>
      </trkpt>
      <trkpt lat="48.67096" lon="1.88312">
        <ele>180.4</ele>
        <time>2024-03-14T16:51:50Z</time>
      </trkpt>
      <trkpt lat="48.67103" lon="1.88315">
        <ele>180.4</ele>
        <time>2024-03-14T16:51:51Z</time>
      </trkpt>
      <trkpt lat="48.67111" lon="1.88318">
        <ele>180.4</ele>
        <time>2024-03-14T16:51:52Z</time>
      </trkpt>
      <trkpt lat="48.67118" lon="1.8832">
        <ele>180.4</ele>
        <time>2024-03-14T16:51:53Z</time>
      </trkpt>
      <trkpt lat="48.67126" lon="1.88323">
        <ele>180.4</ele>
        <time>2024-03-14T16:51:54Z</time>
      </trkpt>
      <trkpt lat="48.67133" lon="1.88326">
        <ele>180.4</ele>
        <time>2024-03-14T16:51:55Z</time>
      </trkpt>
      <trkpt lat="48.6714" lon="1.88329">
        <ele>179.8</ele>
        <time>2024-03-14T16:51:56Z</time>
      </trkpt>
      <trkpt lat="48.67148" lon="1.88332">
        <ele>180.2</ele>
        <time>2024-03-14T16:51:57Z</time>
      </trkpt>
      <trkpt lat="48.67155" lon="1.88335">
        <ele>180.2</ele>
        <time>2024-03-14T16:51:58Z</time>
      </trkpt>
      <trkpt lat="48.67163" lon="1.88337">
        <ele>180.2</ele>
        <time>2024-03-14T16:51:59Z</time>
      </trkpt>
      <trkpt lat="48.6717" lon="1.88339">
        <ele>180.2</ele>
        <time>2024-03-14T16:52:00Z</time>
      </trkpt>
      <trkpt lat="48.67177" lon="1.88341">
        <ele>180.2</ele>
        <time>2024-03-14T16:52:01Z</time>
      </trkpt>
      <trkpt lat="48.67183" lon="1.88344">
        <ele>180.2</ele>
        <time>2024-03-14T16:52:02Z</time>
      </trkpt>
      <trkpt lat="48.67189" lon="1.88349">
        <ele>180.2</ele>
        <time>2024-03-14T16:52:03Z</time>
      </trkpt>
      <trkpt lat="48.67192" lon="1.88356">
        <ele>180.2</ele>
        <time>2024-03-14T16:52:04Z</time>
      </trkpt>
      <trkpt lat="48.67194" lon="1.88364">
        <ele>180</ele>
        <time>2024-03-14T16:52:05Z</time>
      </trkpt>
      <trkpt lat="48.67193" lon="1.88373">
        <ele>180</ele>
        <time>2024-03-14T16:52:06Z</time>
      </trkpt>
      <trkpt lat="48.67192" lon="1.88381">
        <ele>180</ele>
        <time>2024-03-14T16:52:07Z</time>
      </trkpt>
      <trkpt lat="48.6719" lon="1.8839">
        <ele>180</ele>
        <time>2024-03-14T16:52:08Z</time>
      </trkpt>
      <trkpt lat="48.67188" lon="1.88399">
        <ele>179.8</ele>
        <time>2024-03-14T16:52:09Z</time>
      </trkpt>
      <trkpt lat="48.67187" lon="1.88409">
        <ele>179.8</ele>
        <time>2024-03-14T16:52:10Z</time>
      </trkpt>
      <trkpt lat="48.67185" lon="1.88419">
        <ele>179.8</ele>
        <time>2024-03-14T16:52:11Z</time>
      </trkpt>
      <trkpt lat="48.67184" lon="1.88429">
        <ele>179.8</ele>
        <time>2024-03-14T16:52:12Z</time>
      </trkpt>
      <trkpt lat="48.67182" lon="1.88439">
        <ele>179.6</ele>
        <time>2024-03-14T16:52:13Z</time>
      </trkpt>
      <trkpt lat="48.67181" lon="1.8845">
        <ele>179.6</ele>
        <time>2024-03-14T16:52:14Z</time>
      </trkpt>
      <trkpt lat="48.6718" lon="1.88461">
        <ele>179.6</ele>
        <time>2024-03-14T16:52:15Z</time>
      </trkpt>
      <trkpt lat="48.67178" lon="1.88471">
        <ele>179.6</ele>
        <time>2024-03-14T16:52:16Z</time>
      </trkpt>
      <trkpt lat="48.67176" lon="1.88482">
        <ele>179.6</ele>
        <time>2024-03-14T16:52:17Z</time>
      </trkpt>
      <trkpt lat="48.67175" lon="1.88492">
        <ele>179.6</ele>
        <time>2024-03-14T16:52:18Z</time>
      </trkpt>
      <trkpt lat="48.67173" lon="1.88503">
        <ele>179.6</ele>
        <time>2024-03-14T16:52:19Z</time>
      </trkpt>
      <trkpt lat="48.67172" lon="1.88514">
        <ele>179.6</ele>
        <time>2024-03-14T16:52:20Z</time>
      </trkpt>
      <trkpt lat="48.67171" lon="1.88524">
        <ele>179.6</ele>
        <time>2024-03-14T16:52:21Z</time>
      </trkpt>
      <trkpt lat="48.67169" lon="1.88535">
        <ele>179.6</ele>
        <time>2024-03-14T16:52:22Z</time>
      </trkpt>
      <trkpt lat="48.67168" lon="1.88545">
        <ele>179.6</ele>
        <time>2024-03-14T16:52:23Z</time>
      </trkpt>
      <trkpt lat="48.67166" lon="1.88555">
        <ele>179.6</ele>
        <time>2024-03-14T16:52:24Z</time>
      </trkpt>
      <trkpt lat="48.67165" lon="1.88566">
        <ele>179.6</ele>
        <time>2024-03-14T16:52:25Z</time>
      </trkpt>
      <trkpt lat="48.67163" lon="1.88576">
        <ele>179.6</ele>
        <time>2024-03-14T16:52:26Z</time>
      </trkpt>
      <trkpt lat="48.67162" lon="1.88586">
        <ele>179.6</ele>
        <time>2024-03-14T16:52:27Z</time>
      </trkpt>
      <trkpt lat="48.6716" lon="1.88597">
        <ele>179.6</ele>
        <time>2024-03-14T16:52:28Z</time>
      </trkpt>
      <trkpt lat="48.67159" lon="1.88607">
        <ele>180.2</ele>
        <time>2024-03-14T16:52:29Z</time>
      </trkpt>
      <trkpt lat="48.67158" lon="1.88617">
        <ele>180.2</ele>
        <time>2024-03-14T16:52:30Z</time>
      </trkpt>
      <trkpt lat="48.67158" lon="1.88628">
        <ele>180.2</ele>
        <time>2024-03-14T16:52:31Z</time>
      </trkpt>
      <trkpt lat="48.67158" lon="1.88638">
        <ele>179.8</ele>
        <time>2024-03-14T16:52:32Z</time>
      </trkpt>
      <trkpt lat="48.67158" lon="1.88648">
        <ele>179.6</ele>
        <time>2024-03-14T16:52:33Z</time>
      </trkpt>
      <trkpt lat="48.67159" lon="1.88659">
        <ele>179.6</ele>
        <time>2024-03-14T16:52:34Z</time>
      </trkpt>
      <trkpt lat="48.6716" lon="1.88669">
        <ele>179.6</ele>
        <time>2024-03-14T16:52:35Z</time>
      </trkpt>
      <trkpt lat="48.67161" lon="1.8868">
        <ele>179.6</ele>
        <time>2024-03-14T16:52:36Z</time>
      </trkpt>
      <trkpt lat="48.67161" lon="1.8869">
        <ele>179.8</ele>
        <time>2024-03-14T16:52:37Z</time>
      </trkpt>
      <trkpt lat="48.67162" lon="1.887">
        <ele>179.8</ele>
        <time>2024-03-14T16:52:38Z</time>
      </trkpt>
      <trkpt lat="48.67163" lon="1.8871">
        <ele>179.8</ele>
        <time>2024-03-14T16:52:39Z</time>
      </trkpt>
      <trkpt lat="48.67165" lon="1.8872">
        <ele>179.8</ele>
        <time>2024-03-14T16:52:40Z</time>
      </trkpt>
      <trkpt lat="48.67166" lon="1.8873">
        <ele>180.2</ele>
        <time>2024-03-14T16:52:41Z</time>
      </trkpt>
      <trkpt lat="48.67168" lon="1.8874">
        <ele>180.2</ele>
        <time>2024-03-14T16:52:42Z</time>
      </trkpt>
      <trkpt lat="48.6717" lon="1.8875">
        <ele>180.2</ele>
        <time>2024-03-14T16:52:43Z</time>
      </trkpt>
      <trkpt lat="48.67171" lon="1.8876">
        <ele>180.2</ele>
        <time>2024-03-14T16:52:44Z</time>
      </trkpt>
      <trkpt lat="48.67173" lon="1.8877">
        <ele>180.2</ele>
        <time>2024-03-14T16:52:45Z</time>
      </trkpt>
      <trkpt lat="48.67174" lon="1.8878">
        <ele>180.2</ele>
        <time>2024-03-14T16:52:46Z</time>
      </trkpt>
      <trkpt lat="48.67176" lon="1.8879">
        <ele>180.2</ele>
        <time>2024-03-14T16:52:47Z</time>
      </trkpt>
      <trkpt lat="48.67177" lon="1.88801">
        <ele>180.2</ele>
        <time>2024-03-14T16:52:48Z</time>
      </trkpt>
      <trkpt lat="48.67178" lon="1.88811">
        <ele>180</ele>
        <time>2024-03-14T16:52:49Z</time>
      </trkpt>
      <trkpt lat="48.6718" lon="1.88821">
        <ele>180</ele>
        <time>2024-03-14T16:52:50Z</time>
      </trkpt>
      <trkpt lat="48.67182" lon="1.88831">
        <ele>180</ele>
        <time>2024-03-14T16:52:51Z</time>
      </trkpt>
      <trkpt lat="48.67184" lon="1.88842">
        <ele>180</ele>
        <time>2024-03-14T16:52:52Z</time>
      </trkpt>
      <trkpt lat="48.67186" lon="1.88852">
        <ele>180.2</ele>
        <time>2024-03-14T16:52:53Z</time>
      </trkpt>
      <trkpt lat="48.67188" lon="1.88862">
        <ele>180.2</ele>
        <time>2024-03-14T16:52:54Z</time>
      </trkpt>
      <trkpt lat="48.6719" lon="1.88872">
        <ele>180.2</ele>
        <time>2024-03-14T16:52:55Z</time>
      </trkpt>
      <trkpt lat="48.67192" lon="1.88883">
        <ele>180.2</ele>
        <time>2024-03-14T16:52:56Z</time>
      </trkpt>
      <trkpt lat="48.67194" lon="1.88893">
        <ele>180</ele>
        <time>2024-03-14T16:52:57Z</time>
      </trkpt>
      <trkpt lat="48.67196" lon="1.88903">
        <ele>180</ele>
        <time>2024-03-14T16:52:58Z</time>
      </trkpt>
      <trkpt lat="48.67199" lon="1.88913">
        <ele>180</ele>
        <time>2024-03-14T16:52:59Z</time>
      </trkpt>
      <trkpt lat="48.67201" lon="1.88924">
        <ele>179.8</ele>
        <time>2024-03-14T16:53:00Z</time>
      </trkpt>
      <trkpt lat="48.67204" lon="1.88934">
        <ele>179.4</ele>
        <time>2024-03-14T16:53:01Z</time>
      </trkpt>
      <trkpt lat="48.67206" lon="1.88944">
        <ele>179.4</ele>
        <time>2024-03-14T16:53:02Z</time>
      </trkpt>
      <trkpt lat="48.67209" lon="1.88955">
        <ele>179.4</ele>
        <time>2024-03-14T16:53:03Z</time>
      </trkpt>
      <trkpt lat="48.67211" lon="1.88965">
        <ele>179.8</ele>
        <time>2024-03-14T16:53:04Z</time>
      </trkpt>
      <trkpt lat="48.67212" lon="1.88976">
        <ele>180</ele>
        <time>2024-03-14T16:53:05Z</time>
      </trkpt>
      <trkpt lat="48.67212" lon="1.88986">
        <ele>180</ele>
        <time>2024-03-14T16:53:06Z</time>
      </trkpt>
      <trkpt lat="48.67212" lon="1.88997">
        <ele>180</ele>
        <time>2024-03-14T16:53:07Z</time>
      </trkpt>
      <trkpt lat="48.67213" lon="1.89008">
        <ele>180</ele>
        <time>2024-03-14T16:53:08Z</time>
      </trkpt>
      <trkpt lat="48.67215" lon="1.89019">
        <ele>180</ele>
        <time>2024-03-14T16:53:09Z</time>
      </trkpt>
      <trkpt lat="48.67217" lon="1.89029">
        <ele>180</ele>
        <time>2024-03-14T16:53:10Z</time>
      </trkpt>
      <trkpt lat="48.67218" lon="1.8904">
        <ele>180</ele>
        <time>2024-03-14T16:53:11Z</time>
      </trkpt>
      <trkpt lat="48.6722" lon="1.89051">
        <ele>180.4</ele>
        <time>2024-03-14T16:53:12Z</time>
      </trkpt>
      <trkpt lat="48.67221" lon="1.89061">
        <ele>180.6</ele>
        <time>2024-03-14T16:53:13Z</time>
      </trkpt>
      <trkpt lat="48.67223" lon="1.89072">
        <ele>180.6</ele>
        <time>2024-03-14T16:53:14Z</time>
      </trkpt>
      <trkpt lat="48.67225" lon="1.89082">
        <ele>180.6</ele>
        <time>2024-03-14T16:53:15Z</time>
      </trkpt>
      <trkpt lat="48.67226" lon="1.89093">
        <ele>180.6</ele>
        <time>2024-03-14T16:53:16Z</time>
      </trkpt>
      <trkpt lat="48.67228" lon="1.89104">
        <ele>180.2</ele>
        <time>2024-03-14T16:53:17Z</time>
      </trkpt>
      <trkpt lat="48.67229" lon="1.89114">
        <ele>180.2</ele>
        <time>2024-03-14T16:53:18Z</time>
      </trkpt>
      <trkpt lat="48.67231" lon="1.89125">
        <ele>180.2</ele>
        <time>2024-03-14T16:53:19Z</time>
      </trkpt>
      <trkpt lat="48.67232" lon="1.89135">
        <ele>180.6</ele>
        <time>2024-03-14T16:53:20Z</time>
      </trkpt>
      <trkpt lat="48.67234" lon="1.89145">
        <ele>180.8</ele>
        <time>2024-03-14T16:53:21Z</time>
      </trkpt>
      <trkpt lat="48.67236" lon="1.89155">
        <ele>180.8</ele>
        <time>2024-03-14T16:53:22Z</time>
      </trkpt>
      <trkpt lat="48.67238" lon="1.89164">
        <ele>180.8</ele>
        <time>2024-03-14T16:53:23Z</time>
      </trkpt>
      <trkpt lat="48.6724" lon="1.89173">
        <ele>181.2</ele>
        <time>2024-03-14T16:53:24Z</time>
      </trkpt>
      <trkpt lat="48.67242" lon="1.89182">
        <ele>181.2</ele>
        <time>2024-03-14T16:53:25Z</time>
      </trkpt>
      <trkpt lat="48.67244" lon="1.89192">
        <ele>181.2</ele>
        <time>2024-03-14T16:53:26Z</time>
      </trkpt>
      <trkpt lat="48.67246" lon="1.89202">
        <ele>181.2</ele>
        <time>2024-03-14T16:53:27Z</time>
      </trkpt>
      <trkpt lat="48.67248" lon="1.89211">
        <ele>181.2</ele>
        <time>2024-03-14T16:53:28Z</time>
      </trkpt>
      <trkpt lat="48.67251" lon="1.89222">
        <ele>180.4</ele>
        <time>2024-03-14T16:53:29Z</time>
      </trkpt>
      <trkpt lat="48.67254" lon="1.89232">
        <ele>180.4</ele>
        <time>2024-03-14T16:53:30Z</time>
      </trkpt>
      <trkpt lat="48.67257" lon="1.89242">
        <ele>180.4</ele>
        <time>2024-03-14T16:53:31Z</time>
      </trkpt>
      <trkpt lat="48.67259" lon="1.89252">
        <ele>180.4</ele>
        <time>2024-03-14T16:53:32Z</time>
      </trkpt>
      <trkpt lat="48.67262" lon="1.89263">
        <ele>180</ele>
        <time>2024-03-14T16:53:33Z</time>
      </trkpt>
      <trkpt lat="48.67265" lon="1.89273">
        <ele>180</ele>
        <time>2024-03-14T16:53:34Z</time>
      </trkpt>
      <trkpt lat="48.67268" lon="1.89284">
        <ele>180</ele>
        <time>2024-03-14T16:53:35Z</time>
      </trkpt>
      <trkpt lat="48.67271" lon="1.89294">
        <ele>180.6</ele>
        <time>2024-03-14T16:53:36Z</time>
      </trkpt>
      <trkpt lat="48.67274" lon="1.89304">
        <ele>180.4</ele>
        <time>2024-03-14T16:53:37Z</time>
      </trkpt>
      <trkpt lat="48.67277" lon="1.89315">
        <ele>180.4</ele>
        <time>2024-03-14T16:53:38Z</time>
      </trkpt>
      <trkpt lat="48.6728" lon="1.89325">
        <ele>180.4</ele>
        <time>2024-03-14T16:53:39Z</time>
      </trkpt>
      <trkpt lat="48.67283" lon="1.89336">
        <ele>180.4</ele>
        <time>2024-03-14T16:53:40Z</time>
      </trkpt>
      <trkpt lat="48.67286" lon="1.89346">
        <ele>180.6</ele>
        <time>2024-03-14T16:53:41Z</time>
      </trkpt>
      <trkpt lat="48.67289" lon="1.89357">
        <ele>180.6</ele>
        <time>2024-03-14T16:53:42Z</time>
      </trkpt>
      <trkpt lat="48.67292" lon="1.89367">
        <ele>180.6</ele>
        <time>2024-03-14T16:53:43Z</time>
      </trkpt>
      <trkpt lat="48.67295" lon="1.89378">
        <ele>180</ele>
        <time>2024-03-14T16:53:44Z</time>
      </trkpt>
      <trkpt lat="48.67297" lon="1.89388">
        <ele>180</ele>
        <time>2024-03-14T16:53:45Z</time>
      </trkpt>
      <trkpt lat="48.673" lon="1.89398">
        <ele>180</ele>
        <time>2024-03-14T16:53:46Z</time>
      </trkpt>
      <trkpt lat="48.67303" lon="1.89408">
        <ele>180</ele>
        <time>2024-03-14T16:53:47Z</time>
      </trkpt>
      <trkpt lat="48.67305" lon="1.89418">
        <ele>180</ele>
        <time>2024-03-14T16:53:48Z</time>
      </trkpt>
      <trkpt lat="48.67307" lon="1.89428">
        <ele>180.4</ele>
        <time>2024-03-14T16:53:49Z</time>
      </trkpt>
      <trkpt lat="48.6731" lon="1.89438">
        <ele>180.4</ele>
        <time>2024-03-14T16:53:50Z</time>
      </trkpt>
      <trkpt lat="48.67312" lon="1.89448">
        <ele>180.4</ele>
        <time>2024-03-14T16:53:51Z</time>
      </trkpt>
      <trkpt lat="48.67314" lon="1.89457">
        <ele>180.4</ele>
        <time>2024-03-14T16:53:52Z</time>
      </trkpt>
      <trkpt lat="48.67317" lon="1.89467">
        <ele>179.8</ele>
        <time>2024-03-14T16:53:53Z</time>
      </trkpt>
      <trkpt lat="48.67319" lon="1.89476">
        <ele>179.8</ele>
        <time>2024-03-14T16:53:54Z</time>
      </trkpt>
      <trkpt lat="48.67322" lon="1.89486">
        <ele>179.8</ele>
        <time>2024-03-14T16:53:55Z</time>
      </trkpt>
      <trkpt lat="48.67324" lon="1.89496">
        <ele>180.2</ele>
        <time>2024-03-14T16:53:56Z</time>
      </trkpt>
      <trkpt lat="48.67326" lon="1.89505">
        <ele>180.6</ele>
        <time>2024-03-14T16:53:57Z</time>
      </trkpt>
      <trkpt lat="48.67328" lon="1.89514">
        <ele>180.6</ele>
        <time>2024-03-14T16:53:58Z</time>
      </trkpt>
      <trkpt lat="48.6733" lon="1.89524">
        <ele>180.6</ele>
        <time>2024-03-14T16:53:59Z</time>
      </trkpt>
      <trkpt lat="48.67332" lon="1.89534">
        <ele>180.6</ele>
        <time>2024-03-14T16:54:00Z</time>
      </trkpt>
      <trkpt lat="48.67334" lon="1.89544">
        <ele>179.8</ele>
        <time>2024-03-14T16:54:01Z</time>
      </trkpt>
      <trkpt lat="48.67337" lon="1.89554">
        <ele>179.8</ele>
        <time>2024-03-14T16:54:02Z</time>
      </trkpt>
      <trkpt lat="48.67339" lon="1.89564">
        <ele>179.8</ele>
        <time>2024-03-14T16:54:03Z</time>
      </trkpt>
      <trkpt lat="48.67342" lon="1.89574">
        <ele>180.2</ele>
        <time>2024-03-14T16:54:04Z</time>
      </trkpt>
      <trkpt lat="48.67344" lon="1.89584">
        <ele>180.2</ele>
        <time>2024-03-14T16:54:05Z</time>
      </trkpt>
      <trkpt lat="48.67346" lon="1.89595">
        <ele>180.2</ele>
        <time>2024-03-14T16:54:06Z</time>
      </trkpt>
      <trkpt lat="48.67348" lon="1.89604">
        <ele>180.2</ele>
        <time>2024-03-14T16:54:07Z</time>
      </trkpt>
      <trkpt lat="48.6735" lon="1.89615">
        <ele>180.2</ele>
        <time>2024-03-14T16:54:08Z</time>
      </trkpt>
      <trkpt lat="48.67353" lon="1.89625">
        <ele>180.4</ele>
        <time>2024-03-14T16:54:09Z</time>
      </trkpt>
      <trkpt lat="48.67356" lon="1.89635">
        <ele>180.4</ele>
        <time>2024-03-14T16:54:10Z</time>
      </trkpt>
      <trkpt lat="48.67358" lon="1.89645">
        <ele>180.4</ele>
        <time>2024-03-14T16:54:11Z</time>
      </trkpt>
      <trkpt lat="48.6736" lon="1.89654">
        <ele>180.4</ele>
        <time>2024-03-14T16:54:12Z</time>
      </trkpt>
      <trkpt lat="48.67362" lon="1.89664">
        <ele>180.8</ele>
        <time>2024-03-14T16:54:13Z</time>
      </trkpt>
      <trkpt lat="48.67364" lon="1.89674">
        <ele>180.8</ele>
        <time>2024-03-14T16:54:14Z</time>
      </trkpt>
      <trkpt lat="48.67367" lon="1.89683">
        <ele>180.8</ele>
        <time>2024-03-14T16:54:15Z</time>
      </trkpt>
      <trkpt lat="48.67369" lon="1.89693">
        <ele>180.8</ele>
        <time>2024-03-14T16:54:16Z</time>
      </trkpt>
      <trkpt lat="48.67371" lon="1.89703">
        <ele>181.2</ele>
        <time>2024-03-14T16:54:17Z</time>
      </trkpt>
      <trkpt lat="48.67374" lon="1.89712">
        <ele>181.2</ele>
        <time>2024-03-14T16:54:18Z</time>
      </trkpt>
      <trkpt lat="48.67376" lon="1.89722">
        <ele>181.2</ele>
        <time>2024-03-14T16:54:19Z</time>
      </trkpt>
      <trkpt lat="48.67379" lon="1.89732">
        <ele>180.6</ele>
        <time>2024-03-14T16:54:20Z</time>
      </trkpt>
      <trkpt lat="48.67381" lon="1.89742">
        <ele>180.6</ele>
        <time>2024-03-14T16:54:21Z</time>
      </trkpt>
      <trkpt lat="48.67384" lon="1.89752">
        <ele>180.6</ele>
        <time>2024-03-14T16:54:22Z</time>
      </trkpt>
      <trkpt lat="48.67386" lon="1.89762">
        <ele>180.6</ele>
        <time>2024-03-14T16:54:23Z</time>
      </trkpt>
      <trkpt lat="48.67388" lon="1.89772">
        <ele>180.6</ele>
        <time>2024-03-14T16:54:24Z</time>
      </trkpt>
      <trkpt lat="48.67391" lon="1.89782">
        <ele>180.8</ele>
        <time>2024-03-14T16:54:25Z</time>
      </trkpt>
      <trkpt lat="48.67393" lon="1.89792">
        <ele>180.8</ele>
        <time>2024-03-14T16:54:26Z</time>
      </trkpt>
      <trkpt lat="48.67394" lon="1.89802">
        <ele>180.8</ele>
        <time>2024-03-14T16:54:27Z</time>
      </trkpt>
      <trkpt lat="48.67396" lon="1.89813">
        <ele>180.8</ele>
        <time>2024-03-14T16:54:28Z</time>
      </trkpt>
      <trkpt lat="48.67398" lon="1.89823">
        <ele>180.8</ele>
        <time>2024-03-14T16:54:29Z</time>
      </trkpt>
      <trkpt lat="48.67399" lon="1.89834">
        <ele>180.8</ele>
        <time>2024-03-14T16:54:30Z</time>
      </trkpt>
      <trkpt lat="48.67399" lon="1.89845">
        <ele>180.8</ele>
        <time>2024-03-14T16:54:31Z</time>
      </trkpt>
      <trkpt lat="48.67399" lon="1.89855">
        <ele>180.4</ele>
        <time>2024-03-14T16:54:32Z</time>
      </trkpt>
      <trkpt lat="48.674" lon="1.89866">
        <ele>180</ele>
        <time>2024-03-14T16:54:33Z</time>
      </trkpt>
      <trkpt lat="48.674" lon="1.89876">
        <ele>180</ele>
        <time>2024-03-14T16:54:34Z</time>
      </trkpt>
      <trkpt lat="48.67401" lon="1.89887">
        <ele>180</ele>
        <time>2024-03-14T16:54:35Z</time>
      </trkpt>
      <trkpt lat="48.674" lon="1.89898">
        <ele>180</ele>
        <time>2024-03-14T16:54:36Z</time>
      </trkpt>
      <trkpt lat="48.674" lon="1.89908">
        <ele>180.2</ele>
        <time>2024-03-14T16:54:37Z</time>
      </trkpt>
      <trkpt lat="48.674" lon="1.89919">
        <ele>180.2</ele>
        <time>2024-03-14T16:54:38Z</time>
      </trkpt>
      <trkpt lat="48.674" lon="1.89929">
        <ele>180.2</ele>
        <time>2024-03-14T16:54:39Z</time>
      </trkpt>
      <trkpt lat="48.674" lon="1.8994">
        <ele>180.2</ele>
        <time>2024-03-14T16:54:40Z</time>
      </trkpt>
      <trkpt lat="48.67401" lon="1.89951">
        <ele>180.4</ele>
        <time>2024-03-14T16:54:41Z</time>
      </trkpt>
      <trkpt lat="48.67401" lon="1.89962">
        <ele>180.4</ele>
        <time>2024-03-14T16:54:42Z</time>
      </trkpt>
      <trkpt lat="48.67401" lon="1.89973">
        <ele>180.4</ele>
        <time>2024-03-14T16:54:43Z</time>
      </trkpt>
      <trkpt lat="48.67401" lon="1.89984">
        <ele>180.4</ele>
        <time>2024-03-14T16:54:44Z</time>
      </trkpt>
      <trkpt lat="48.67401" lon="1.89995">
        <ele>180.4</ele>
        <time>2024-03-14T16:54:45Z</time>
      </trkpt>
      <trkpt lat="48.67402" lon="1.90006">
        <ele>180.4</ele>
        <time>2024-03-14T16:54:46Z</time>
      </trkpt>
      <trkpt lat="48.67402" lon="1.90017">
        <ele>180.4</ele>
        <time>2024-03-14T16:54:47Z</time>
      </trkpt>
      <trkpt lat="48.67402" lon="1.90028">
        <ele>180</ele>
        <time>2024-03-14T16:54:48Z</time>
      </trkpt>
      <trkpt lat="48.67402" lon="1.90039">
        <ele>180.2</ele>
        <time>2024-03-14T16:54:49Z</time>
      </trkpt>
      <trkpt lat="48.67402" lon="1.9005">
        <ele>180.2</ele>
        <time>2024-03-14T16:54:50Z</time>
      </trkpt>
      <trkpt lat="48.67402" lon="1.9006">
        <ele>180.2</ele>
        <time>2024-03-14T16:54:51Z</time>
      </trkpt>
      <trkpt lat="48.67402" lon="1.90071">
        <ele>180.2</ele>
        <time>2024-03-14T16:54:52Z</time>
      </trkpt>
      <trkpt lat="48.67402" lon="1.90082">
        <ele>180.6</ele>
        <time>2024-03-14T16:54:53Z</time>
      </trkpt>
      <trkpt lat="48.67403" lon="1.90092">
        <ele>180.6</ele>
        <time>2024-03-14T16:54:54Z</time>
      </trkpt>
      <trkpt lat="48.67403" lon="1.90103">
        <ele>180.6</ele>
        <time>2024-03-14T16:54:55Z</time>
      </trkpt>
      <trkpt lat="48.67403" lon="1.90114">
        <ele>180.4</ele>
        <time>2024-03-14T16:54:56Z</time>
      </trkpt>
      <trkpt lat="48.67403" lon="1.90124">
        <ele>180.2</ele>
        <time>2024-03-14T16:54:57Z</time>
      </trkpt>
      <trkpt lat="48.67403" lon="1.90135">
        <ele>180.2</ele>
        <time>2024-03-14T16:54:58Z</time>
      </trkpt>
      <trkpt lat="48.67403" lon="1.90146">
        <ele>180.2</ele>
        <time>2024-03-14T16:54:59Z</time>
      </trkpt>
      <trkpt lat="48.67403" lon="1.90156">
        <ele>180.2</ele>
        <time>2024-03-14T16:55:00Z</time>
      </trkpt>
      <trkpt lat="48.67404" lon="1.90167">
        <ele>180.8</ele>
        <time>2024-03-14T16:55:01Z</time>
      </trkpt>
      <trkpt lat="48.67404" lon="1.90177">
        <ele>180.8</ele>
        <time>2024-03-14T16:55:02Z</time>
      </trkpt>
      <trkpt lat="48.67404" lon="1.90188">
        <ele>180.8</ele>
        <time>2024-03-14T16:55:03Z</time>
      </trkpt>
      <trkpt lat="48.67404" lon="1.90198">
        <ele>180.6</ele>
        <time>2024-03-14T16:55:04Z</time>
      </trkpt>
      <trkpt lat="48.67404" lon="1.90209">
        <ele>180.6</ele>
        <time>2024-03-14T16:55:05Z</time>
      </trkpt>
      <trkpt lat="48.67404" lon="1.9022">
        <ele>180.6</ele>
        <time>2024-03-14T16:55:06Z</time>
      </trkpt>
      <trkpt lat="48.67404" lon="1.90231">
        <ele>180.6</ele>
        <time>2024-03-14T16:55:07Z</time>
      </trkpt>
      <trkpt lat="48.67404" lon="1.90242">
        <ele>180.6</ele>
        <time>2024-03-14T16:55:08Z</time>
      </trkpt>
      <trkpt lat="48.67404" lon="1.90253">
        <ele>181</ele>
        <time>2024-03-14T16:55:09Z</time>
      </trkpt>
      <trkpt lat="48.67404" lon="1.90264">
        <ele>181</ele>
        <time>2024-03-14T16:55:10Z</time>
      </trkpt>
      <trkpt lat="48.67405" lon="1.90274">
        <ele>181</ele>
        <time>2024-03-14T16:55:11Z</time>
      </trkpt>
      <trkpt lat="48.67406" lon="1.90285">
        <ele>180.6</ele>
        <time>2024-03-14T16:55:12Z</time>
      </trkpt>
      <trkpt lat="48.67406" lon="1.90296">
        <ele>180.8</ele>
        <time>2024-03-14T16:55:13Z</time>
      </trkpt>
      <trkpt lat="48.67408" lon="1.90307">
        <ele>180.8</ele>
        <time>2024-03-14T16:55:14Z</time>
      </trkpt>
      <trkpt lat="48.67409" lon="1.90317">
        <ele>180.8</ele>
        <time>2024-03-14T16:55:15Z</time>
      </trkpt>
      <trkpt lat="48.67412" lon="1.90328">
        <ele>180.8</ele>
        <time>2024-03-14T16:55:16Z</time>
      </trkpt>
      <trkpt lat="48.67415" lon="1.90338">
        <ele>180.4</ele>
        <time>2024-03-14T16:55:17Z</time>
      </trkpt>
      <trkpt lat="48.67418" lon="1.90348">
        <ele>180.4</ele>
        <time>2024-03-14T16:55:18Z</time>
      </trkpt>
      <trkpt lat="48.67421" lon="1.90358">
        <ele>180.4</ele>
        <time>2024-03-14T16:55:19Z</time>
      </trkpt>
      <trkpt lat="48.67425" lon="1.90368">
        <ele>180.4</ele>
        <time>2024-03-14T16:55:20Z</time>
      </trkpt>
      <trkpt lat="48.67429" lon="1.90378">
        <ele>180.8</ele>
        <time>2024-03-14T16:55:21Z</time>
      </trkpt>
      <trkpt lat="48.67433" lon="1.90387">
        <ele>180.8</ele>
        <time>2024-03-14T16:55:22Z</time>
      </trkpt>
      <trkpt lat="48.67437" lon="1.90396">
        <ele>180.8</ele>
        <time>2024-03-14T16:55:23Z</time>
      </trkpt>
      <trkpt lat="48.67441" lon="1.90406">
        <ele>180.8</ele>
        <time>2024-03-14T16:55:24Z</time>
      </trkpt>
      <trkpt lat="48.67445" lon="1.90415">
        <ele>181.2</ele>
        <time>2024-03-14T16:55:25Z</time>
      </trkpt>
      <trkpt lat="48.67449" lon="1.90424">
        <ele>181.2</ele>
        <time>2024-03-14T16:55:26Z</time>
      </trkpt>
      <trkpt lat="48.67453" lon="1.90433">
        <ele>181.2</ele>
        <time>2024-03-14T16:55:27Z</time>
      </trkpt>
      <trkpt lat="48.67457" lon="1.90442">
        <ele>181.8</ele>
        <time>2024-03-14T16:55:28Z</time>
      </trkpt>
      <trkpt lat="48.67461" lon="1.90451">
        <ele>182</ele>
        <time>2024-03-14T16:55:29Z</time>
      </trkpt>
      <trkpt lat="48.67464" lon="1.9046">
        <ele>182</ele>
        <time>2024-03-14T16:55:30Z</time>
      </trkpt>
      <trkpt lat="48.67468" lon="1.90468">
        <ele>182</ele>
        <time>2024-03-14T16:55:31Z</time>
      </trkpt>
      <trkpt lat="48.67472" lon="1.90477">
        <ele>182.2</ele>
        <time>2024-03-14T16:55:32Z</time>
      </trkpt>
      <trkpt lat="48.67475" lon="1.90486">
        <ele>182.4</ele>
        <time>2024-03-14T16:55:33Z</time>
      </trkpt>
      <trkpt lat="48.67479" lon="1.90495">
        <ele>182.4</ele>
        <time>2024-03-14T16:55:34Z</time>
      </trkpt>
      <trkpt lat="48.67483" lon="1.90504">
        <ele>182.4</ele>
        <time>2024-03-14T16:55:35Z</time>
      </trkpt>
      <trkpt lat="48.67486" lon="1.90512">
        <ele>182.4</ele>
        <time>2024-03-14T16:55:36Z</time>
      </trkpt>
      <trkpt lat="48.6749" lon="1.90521">
        <ele>182</ele>
        <time>2024-03-14T16:55:37Z</time>
      </trkpt>
      <trkpt lat="48.67494" lon="1.90531">
        <ele>182</ele>
        <time>2024-03-14T16:55:38Z</time>
      </trkpt>
      <trkpt lat="48.67497" lon="1.9054">
        <ele>182</ele>
        <time>2024-03-14T16:55:39Z</time>
      </trkpt>
      <trkpt lat="48.675" lon="1.90549">
        <ele>182.4</ele>
        <time>2024-03-14T16:55:40Z</time>
      </trkpt>
      <trkpt lat="48.67503" lon="1.90559">
        <ele>182.2</ele>
        <time>2024-03-14T16:55:41Z</time>
      </trkpt>
      <trkpt lat="48.67505" lon="1.90569">
        <ele>182.2</ele>
        <time>2024-03-14T16:55:42Z</time>
      </trkpt>
      <trkpt lat="48.67507" lon="1.90579">
        <ele>182.2</ele>
        <time>2024-03-14T16:55:43Z</time>
      </trkpt>
      <trkpt lat="48.67509" lon="1.90589">
        <ele>182.8</ele>
        <time>2024-03-14T16:55:44Z</time>
      </trkpt>
      <trkpt lat="48.6751" lon="1.90599">
        <ele>182.8</ele>
        <time>2024-03-14T16:55:45Z</time>
      </trkpt>
      <trkpt lat="48.67511" lon="1.9061">
        <ele>182.8</ele>
        <time>2024-03-14T16:55:46Z</time>
      </trkpt>
      <trkpt lat="48.67511" lon="1.9062">
        <ele>182.8</ele>
        <time>2024-03-14T16:55:47Z</time>
      </trkpt>
      <trkpt lat="48.67512" lon="1.90631">
        <ele>182.2</ele>
        <time>2024-03-14T16:55:48Z</time>
      </trkpt>
      <trkpt lat="48.67512" lon="1.90641">
        <ele>182.6</ele>
        <time>2024-03-14T16:55:49Z</time>
      </trkpt>
      <trkpt lat="48.67512" lon="1.90652">
        <ele>182.6</ele>
        <time>2024-03-14T16:55:50Z</time>
      </trkpt>
      <trkpt lat="48.67512" lon="1.90663">
        <ele>182.6</ele>
        <time>2024-03-14T16:55:51Z</time>
      </trkpt>
      <trkpt lat="48.67511" lon="1.90673">
        <ele>182.6</ele>
        <time>2024-03-14T16:55:52Z</time>
      </trkpt>
      <trkpt lat="48.67511" lon="1.90684">
        <ele>182.4</ele>
        <time>2024-03-14T16:55:53Z</time>
      </trkpt>
      <trkpt lat="48.67511" lon="1.90695">
        <ele>182.4</ele>
        <time>2024-03-14T16:55:54Z</time>
      </trkpt>
      <trkpt lat="48.6751" lon="1.90705">
        <ele>182.4</ele>
        <time>2024-03-14T16:55:55Z</time>
      </trkpt>
      <trkpt lat="48.6751" lon="1.90716">
        <ele>182.6</ele>
        <time>2024-03-14T16:55:56Z</time>
      </trkpt>
      <trkpt lat="48.6751" lon="1.90726">
        <ele>182.4</ele>
        <time>2024-03-14T16:55:57Z</time>
      </trkpt>
      <trkpt lat="48.6751" lon="1.90737">
        <ele>182.4</ele>
        <time>2024-03-14T16:55:58Z</time>
      </trkpt>
      <trkpt lat="48.67509" lon="1.90748">
        <ele>182.4</ele>
        <time>2024-03-14T16:55:59Z</time>
      </trkpt>
      <trkpt lat="48.67509" lon="1.90758">
        <ele>182.8</ele>
        <time>2024-03-14T16:56:00Z</time>
      </trkpt>
      <trkpt lat="48.67509" lon="1.90769">
        <ele>182.6</ele>
        <time>2024-03-14T16:56:01Z</time>
      </trkpt>
      <trkpt lat="48.67508" lon="1.9078">
        <ele>182.6</ele>
        <time>2024-03-14T16:56:02Z</time>
      </trkpt>
      <trkpt lat="48.67508" lon="1.90791">
        <ele>182.6</ele>
        <time>2024-03-14T16:56:03Z</time>
      </trkpt>
      <trkpt lat="48.67508" lon="1.90801">
        <ele>182.6</ele>
        <time>2024-03-14T16:56:04Z</time>
      </trkpt>
      <trkpt lat="48.67508" lon="1.90812">
        <ele>182.8</ele>
        <time>2024-03-14T16:56:05Z</time>
      </trkpt>
      <trkpt lat="48.67508" lon="1.90823">
        <ele>182.8</ele>
        <time>2024-03-14T16:56:06Z</time>
      </trkpt>
      <trkpt lat="48.67508" lon="1.90833">
        <ele>182.8</ele>
        <time>2024-03-14T16:56:07Z</time>
      </trkpt>
      <trkpt lat="48.67508" lon="1.90844">
        <ele>182.8</ele>
        <time>2024-03-14T16:56:08Z</time>
      </trkpt>
      <trkpt lat="48.67507" lon="1.90855">
        <ele>182.8</ele>
        <time>2024-03-14T16:56:09Z</time>
      </trkpt>
      <trkpt lat="48.67507" lon="1.90865">
        <ele>182.8</ele>
        <time>2024-03-14T16:56:10Z</time>
      </trkpt>
      <trkpt lat="48.67507" lon="1.90876">
        <ele>182.8</ele>
        <time>2024-03-14T16:56:11Z</time>
      </trkpt>
      <trkpt lat="48.67506" lon="1.90887">
        <ele>182.8</ele>
        <time>2024-03-14T16:56:12Z</time>
      </trkpt>
      <trkpt lat="48.67506" lon="1.90897">
        <ele>182.2</ele>
        <time>2024-03-14T16:56:13Z</time>
      </trkpt>
      <trkpt lat="48.67506" lon="1.90908">
        <ele>182.2</ele>
        <time>2024-03-14T16:56:14Z</time>
      </trkpt>
      <trkpt lat="48.67506" lon="1.90919">
        <ele>182.2</ele>
        <time>2024-03-14T16:56:15Z</time>
      </trkpt>
      <trkpt lat="48.67506" lon="1.9093">
        <ele>182.2</ele>
        <time>2024-03-14T16:56:16Z</time>
      </trkpt>
      <trkpt lat="48.67505" lon="1.9094">
        <ele>182.6</ele>
        <time>2024-03-14T16:56:17Z</time>
      </trkpt>
      <trkpt lat="48.67505" lon="1.90951">
        <ele>182.6</ele>
        <time>2024-03-14T16:56:18Z</time>
      </trkpt>
      <trkpt lat="48.67505" lon="1.90962">
        <ele>182.6</ele>
        <time>2024-03-14T16:56:19Z</time>
      </trkpt>
      <trkpt lat="48.67504" lon="1.90973">
        <ele>182.6</ele>
        <time>2024-03-14T16:56:20Z</time>
      </trkpt>
      <trkpt lat="48.67504" lon="1.90983">
        <ele>183.2</ele>
        <time>2024-03-14T16:56:21Z</time>
      </trkpt>
      <trkpt lat="48.67504" lon="1.90994">
        <ele>183.2</ele>
        <time>2024-03-14T16:56:22Z</time>
      </trkpt>
      <trkpt lat="48.67503" lon="1.91005">
        <ele>183.2</ele>
        <time>2024-03-14T16:56:23Z</time>
      </trkpt>
      <trkpt lat="48.67503" lon="1.91015">
        <ele>183.2</ele>
        <time>2024-03-14T16:56:24Z</time>
      </trkpt>
      <trkpt lat="48.67503" lon="1.91025">
        <ele>183.4</ele>
        <time>2024-03-14T16:56:25Z</time>
      </trkpt>
      <trkpt lat="48.67503" lon="1.91035">
        <ele>183.4</ele>
        <time>2024-03-14T16:56:26Z</time>
      </trkpt>
      <trkpt lat="48.67503" lon="1.91045">
        <ele>183.4</ele>
        <time>2024-03-14T16:56:27Z</time>
      </trkpt>
      <trkpt lat="48.67504" lon="1.91055">
        <ele>183.4</ele>
        <time>2024-03-14T16:56:28Z</time>
      </trkpt>
      <trkpt lat="48.67505" lon="1.91064">
        <ele>183.6</ele>
        <time>2024-03-14T16:56:29Z</time>
      </trkpt>
      <trkpt lat="48.67506" lon="1.91074">
        <ele>183.6</ele>
        <time>2024-03-14T16:56:30Z</time>
      </trkpt>
      <trkpt lat="48.67507" lon="1.91084">
        <ele>183.6</ele>
        <time>2024-03-14T16:56:31Z</time>
      </trkpt>
      <trkpt lat="48.67509" lon="1.91094">
        <ele>183.2</ele>
        <time>2024-03-14T16:56:32Z</time>
      </trkpt>
      <trkpt lat="48.67511" lon="1.91104">
        <ele>182.8</ele>
        <time>2024-03-14T16:56:33Z</time>
      </trkpt>
      <trkpt lat="48.67513" lon="1.91114">
        <ele>182.8</ele>
        <time>2024-03-14T16:56:34Z</time>
      </trkpt>
      <trkpt lat="48.67515" lon="1.91125">
        <ele>182.8</ele>
        <time>2024-03-14T16:56:35Z</time>
      </trkpt>
      <trkpt lat="48.67516" lon="1.91135">
        <ele>182</ele>
        <time>2024-03-14T16:56:36Z</time>
      </trkpt>
      <trkpt lat="48.67517" lon="1.91146">
        <ele>182.6</ele>
        <time>2024-03-14T16:56:37Z</time>
      </trkpt>
      <trkpt lat="48.67518" lon="1.91157">
        <ele>182.6</ele>
        <time>2024-03-14T16:56:38Z</time>
      </trkpt>
      <trkpt lat="48.67518" lon="1.91168">
        <ele>182.6</ele>
        <time>2024-03-14T16:56:39Z</time>
      </trkpt>
      <trkpt lat="48.67518" lon="1.91179">
        <ele>182.6</ele>
        <time>2024-03-14T16:56:40Z</time>
      </trkpt>
      <trkpt lat="48.67517" lon="1.9119">
        <ele>182.4</ele>
        <time>2024-03-14T16:56:41Z</time>
      </trkpt>
      <trkpt lat="48.67516" lon="1.912">
        <ele>182.4</ele>
        <time>2024-03-14T16:56:42Z</time>
      </trkpt>
      <trkpt lat="48.67515" lon="1.91211">
        <ele>182.4</ele>
        <time>2024-03-14T16:56:43Z</time>
      </trkpt>
      <trkpt lat="48.67514" lon="1.91222">
        <ele>181.8</ele>
        <time>2024-03-14T16:56:44Z</time>
      </trkpt>
      <trkpt lat="48.67513" lon="1.91232">
        <ele>181.6</ele>
        <time>2024-03-14T16:56:45Z</time>
      </trkpt>
      <trkpt lat="48.67512" lon="1.91243">
        <ele>181.6</ele>
        <time>2024-03-14T16:56:46Z</time>
      </trkpt>
      <trkpt lat="48.67512" lon="1.91253">
        <ele>181.6</ele>
        <time>2024-03-14T16:56:47Z</time>
      </trkpt>
      <trkpt lat="48.67511" lon="1.91264">
        <ele>181.6</ele>
        <time>2024-03-14T16:56:48Z</time>
      </trkpt>
      <trkpt lat="48.6751" lon="1.91274">
        <ele>182.4</ele>
        <time>2024-03-14T16:56:49Z</time>
      </trkpt>
      <trkpt lat="48.67509" lon="1.91284">
        <ele>182.4</ele>
        <time>2024-03-14T16:56:50Z</time>
      </trkpt>
      <trkpt lat="48.67508" lon="1.91294">
        <ele>182.4</ele>
        <time>2024-03-14T16:56:51Z</time>
      </trkpt>
      <trkpt lat="48.67508" lon="1.91304">
        <ele>182.8</ele>
        <time>2024-03-14T16:56:52Z</time>
      </trkpt>
      <trkpt lat="48.67506" lon="1.91312">
        <ele>183.4</ele>
        <time>2024-03-14T16:56:53Z</time>
      </trkpt>
      <trkpt lat="48.67502" lon="1.91318">
        <ele>183.4</ele>
        <time>2024-03-14T16:56:54Z</time>
      </trkpt>
      <trkpt lat="48.67497" lon="1.91322">
        <ele>183.4</ele>
        <time>2024-03-14T16:56:55Z</time>
      </trkpt>
      <trkpt lat="48.67492" lon="1.91322">
        <ele>183.4</ele>
        <time>2024-03-14T16:56:56Z</time>
      </trkpt>
      <trkpt lat="48.67487" lon="1.91321">
        <ele>182.4</ele>
        <time>2024-03-14T16:56:57Z</time>
      </trkpt>
      <trkpt lat="48.67481" lon="1.9132">
        <ele>182.4</ele>
        <time>2024-03-14T16:56:58Z</time>
      </trkpt>
      <trkpt lat="48.67476" lon="1.91319">
        <ele>182.4</ele>
        <time>2024-03-14T16:56:59Z</time>
      </trkpt>
      <trkpt lat="48.6747" lon="1.91317">
        <ele>182.4</ele>
        <time>2024-03-14T16:57:00Z</time>
      </trkpt>
      <trkpt lat="48.67465" lon="1.91318">
        <ele>183</ele>
        <time>2024-03-14T16:57:01Z</time>
      </trkpt>
      <trkpt lat="48.6746" lon="1.91321">
        <ele>183</ele>
        <time>2024-03-14T16:57:02Z</time>
      </trkpt>
      <trkpt lat="48.67457" lon="1.91327">
        <ele>183</ele>
        <time>2024-03-14T16:57:03Z</time>
      </trkpt>
      <trkpt lat="48.67455" lon="1.91336">
        <ele>183</ele>
        <time>2024-03-14T16:57:04Z</time>
      </trkpt>
      <trkpt lat="48.67454" lon="1.91345">
        <ele>182.4</ele>
        <time>2024-03-14T16:57:05Z</time>
      </trkpt>
      <trkpt lat="48.67453" lon="1.91354">
        <ele>182.4</ele>
        <time>2024-03-14T16:57:06Z</time>
      </trkpt>
      <trkpt lat="48.67452" lon="1.91363">
        <ele>182.4</ele>
        <time>2024-03-14T16:57:07Z</time>
      </trkpt>
      <trkpt lat="48.67451" lon="1.91372">
        <ele>182.4</ele>
        <time>2024-03-14T16:57:08Z</time>
      </trkpt>
      <trkpt lat="48.6745" lon="1.91382">
        <ele>182.6</ele>
        <time>2024-03-14T16:57:09Z</time>
      </trkpt>
      <trkpt lat="48.67448" lon="1.91391">
        <ele>182.6</ele>
        <time>2024-03-14T16:57:10Z</time>
      </trkpt>
      <trkpt lat="48.67447" lon="1.91401">
        <ele>182.6</ele>
        <time>2024-03-14T16:57:11Z</time>
      </trkpt>
      <trkpt lat="48.67445" lon="1.91411">
        <ele>182.2</ele>
        <time>2024-03-14T16:57:12Z</time>
      </trkpt>
      <trkpt lat="48.67444" lon="1.91421">
        <ele>182.8</ele>
        <time>2024-03-14T16:57:13Z</time>
      </trkpt>
      <trkpt lat="48.67442" lon="1.91431">
        <ele>182.8</ele>
        <time>2024-03-14T16:57:14Z</time>
      </trkpt>
      <trkpt lat="48.67441" lon="1.91442">
        <ele>182.8</ele>
        <time>2024-03-14T16:57:15Z</time>
      </trkpt>
      <trkpt lat="48.6744" lon="1.91452">
        <ele>182.6</ele>
        <time>2024-03-14T16:57:16Z</time>
      </trkpt>
      <trkpt lat="48.67438" lon="1.91463">
        <ele>182.2</ele>
        <time>2024-03-14T16:57:17Z</time>
      </trkpt>
      <trkpt lat="48.67437" lon="1.91474">
        <ele>182.2</ele>
        <time>2024-03-14T16:57:18Z</time>
      </trkpt>
      <trkpt lat="48.67434" lon="1.91484">
        <ele>182.2</ele>
        <time>2024-03-14T16:57:19Z</time>
      </trkpt>
      <trkpt lat="48.6743" lon="1.91492">
        <ele>182.8</ele>
        <time>2024-03-14T16:57:20Z</time>
      </trkpt>
      <trkpt lat="48.67425" lon="1.91498">
        <ele>182</ele>
        <time>2024-03-14T16:57:21Z</time>
      </trkpt>
      <trkpt lat="48.67419" lon="1.91503">
        <ele>182</ele>
        <time>2024-03-14T16:57:22Z</time>
      </trkpt>
      <trkpt lat="48.67412" lon="1.91506">
        <ele>182</ele>
        <time>2024-03-14T16:57:23Z</time>
      </trkpt>
      <trkpt lat="48.67405" lon="1.91509">
        <ele>182</ele>
        <time>2024-03-14T16:57:24Z</time>
      </trkpt>
      <trkpt lat="48.67399" lon="1.91513">
        <ele>182</ele>
        <time>2024-03-14T16:57:25Z</time>
      </trkpt>
      <trkpt lat="48.67392" lon="1.91518">
        <ele>182</ele>
        <time>2024-03-14T16:57:26Z</time>
      </trkpt>
      <trkpt lat="48.67385" lon="1.91524">
        <ele>182</ele>
        <time>2024-03-14T16:57:27Z</time>
      </trkpt>
      <trkpt lat="48.67378" lon="1.91531">
        <ele>181</ele>
        <time>2024-03-14T16:57:28Z</time>
      </trkpt>
      <trkpt lat="48.67372" lon="1.91537">
        <ele>181.4</ele>
        <time>2024-03-14T16:57:29Z</time>
      </trkpt>
      <trkpt lat="48.67365" lon="1.91544">
        <ele>181.4</ele>
        <time>2024-03-14T16:57:30Z</time>
      </trkpt>
      <trkpt lat="48.67359" lon="1.91551">
        <ele>181.4</ele>
        <time>2024-03-14T16:57:31Z</time>
      </trkpt>
      <trkpt lat="48.67353" lon="1.91558">
        <ele>180.6</ele>
        <time>2024-03-14T16:57:32Z</time>
      </trkpt>
      <trkpt lat="48.67346" lon="1.91565">
        <ele>181.8</ele>
        <time>2024-03-14T16:57:33Z</time>
      </trkpt>
      <trkpt lat="48.6734" lon="1.91572">
        <ele>181.8</ele>
        <time>2024-03-14T16:57:34Z</time>
      </trkpt>
      <trkpt lat="48.67334" lon="1.91579">
        <ele>181.8</ele>
        <time>2024-03-14T16:57:35Z</time>
      </trkpt>
      <trkpt lat="48.67328" lon="1.91586">
        <ele>181</ele>
        <time>2024-03-14T16:57:36Z</time>
      </trkpt>
      <trkpt lat="48.67322" lon="1.91593">
        <ele>181.2</ele>
        <time>2024-03-14T16:57:37Z</time>
      </trkpt>
      <trkpt lat="48.67316" lon="1.91601">
        <ele>181.2</ele>
        <time>2024-03-14T16:57:38Z</time>
      </trkpt>
      <trkpt lat="48.67311" lon="1.91608">
        <ele>181.2</ele>
        <time>2024-03-14T16:57:39Z</time>
      </trkpt>
      <trkpt lat="48.67305" lon="1.91616">
        <ele>181.2</ele>
        <time>2024-03-14T16:57:40Z</time>
      </trkpt>
      <trkpt lat="48.673" lon="1.91623">
        <ele>181.4</ele>
        <time>2024-03-14T16:57:41Z</time>
      </trkpt>
      <trkpt lat="48.67294" lon="1.91631">
        <ele>181.4</ele>
        <time>2024-03-14T16:57:42Z</time>
      </trkpt>
      <trkpt lat="48.67289" lon="1.91639">
        <ele>181.4</ele>
        <time>2024-03-14T16:57:43Z</time>
      </trkpt>
      <trkpt lat="48.67284" lon="1.91647">
        <ele>181.4</ele>
        <time>2024-03-14T16:57:44Z</time>
      </trkpt>
      <trkpt lat="48.67278" lon="1.91654">
        <ele>181.6</ele>
        <time>2024-03-14T16:57:45Z</time>
      </trkpt>
      <trkpt lat="48.67273" lon="1.91661">
        <ele>181.6</ele>
        <time>2024-03-14T16:57:46Z</time>
      </trkpt>
      <trkpt lat="48.67267" lon="1.91668">
        <ele>181.6</ele>
        <time>2024-03-14T16:57:47Z</time>
      </trkpt>
      <trkpt lat="48.67261" lon="1.91676">
        <ele>181.6</ele>
        <time>2024-03-14T16:57:48Z</time>
      </trkpt>
      <trkpt lat="48.67256" lon="1.91683">
        <ele>181.6</ele>
        <time>2024-03-14T16:57:49Z</time>
      </trkpt>
      <trkpt lat="48.6725" lon="1.91689">
        <ele>181.6</ele>
        <time>2024-03-14T16:57:50Z</time>
      </trkpt>
      <trkpt lat="48.67244" lon="1.91697">
        <ele>181.6</ele>
        <time>2024-03-14T16:57:51Z</time>
      </trkpt>
      <trkpt lat="48.67238" lon="1.91704">
        <ele>181.6</ele>
        <time>2024-03-14T16:57:52Z</time>
      </trkpt>
      <trkpt lat="48.67232" lon="1.91711">
        <ele>181.4</ele>
        <time>2024-03-14T16:57:53Z</time>
      </trkpt>
      <trkpt lat="48.67226" lon="1.91718">
        <ele>181.4</ele>
        <time>2024-03-14T16:57:54Z</time>
      </trkpt>
      <trkpt lat="48.67221" lon="1.91725">
        <ele>181.4</ele>
        <time>2024-03-14T16:57:55Z</time>
      </trkpt>
      <trkpt lat="48.67215" lon="1.91732">
        <ele>181.4</ele>
        <time>2024-03-14T16:57:56Z</time>
      </trkpt>
      <trkpt lat="48.67209" lon="1.91739">
        <ele>181.2</ele>
        <time>2024-03-14T16:57:57Z</time>
      </trkpt>
      <trkpt lat="48.67204" lon="1.91746">
        <ele>181.2</ele>
        <time>2024-03-14T16:57:58Z</time>
      </trkpt>
      <trkpt lat="48.67198" lon="1.91753">
        <ele>181.2</ele>
        <time>2024-03-14T16:57:59Z</time>
      </trkpt>
      <trkpt lat="48.67192" lon="1.91761">
        <ele>181.2</ele>
        <time>2024-03-14T16:58:00Z</time>
      </trkpt>
      <trkpt lat="48.67187" lon="1.91768">
        <ele>181.2</ele>
        <time>2024-03-14T16:58:01Z</time>
      </trkpt>
      <trkpt lat="48.67181" lon="1.91775">
        <ele>181.2</ele>
        <time>2024-03-14T16:58:02Z</time>
      </trkpt>
      <trkpt lat="48.67175" lon="1.91782">
        <ele>181.2</ele>
        <time>2024-03-14T16:58:03Z</time>
      </trkpt>
      <trkpt lat="48.6717" lon="1.9179">
        <ele>181.8</ele>
        <time>2024-03-14T16:58:04Z</time>
      </trkpt>
      <trkpt lat="48.67165" lon="1.91798">
        <ele>181.2</ele>
        <time>2024-03-14T16:58:05Z</time>
      </trkpt>
      <trkpt lat="48.6716" lon="1.91806">
        <ele>181.2</ele>
        <time>2024-03-14T16:58:06Z</time>
      </trkpt>
      <trkpt lat="48.67154" lon="1.91814">
        <ele>181.2</ele>
        <time>2024-03-14T16:58:07Z</time>
      </trkpt>
      <trkpt lat="48.67149" lon="1.91822">
        <ele>181.4</ele>
        <time>2024-03-14T16:58:08Z</time>
      </trkpt>
      <trkpt lat="48.67144" lon="1.91831">
        <ele>181.2</ele>
        <time>2024-03-14T16:58:09Z</time>
      </trkpt>
      <trkpt lat="48.6714" lon="1.9184">
        <ele>181.2</ele>
        <time>2024-03-14T16:58:10Z</time>
      </trkpt>
      <trkpt lat="48.67135" lon="1.91849">
        <ele>181.2</ele>
        <time>2024-03-14T16:58:11Z</time>
      </trkpt>
      <trkpt lat="48.67131" lon="1.91858">
        <ele>181.2</ele>
        <time>2024-03-14T16:58:12Z</time>
      </trkpt>
      <trkpt lat="48.67126" lon="1.91867">
        <ele>181</ele>
        <time>2024-03-14T16:58:13Z</time>
      </trkpt>
      <trkpt lat="48.67122" lon="1.91876">
        <ele>181</ele>
        <time>2024-03-14T16:58:14Z</time>
      </trkpt>
      <trkpt lat="48.67118" lon="1.91885">
        <ele>181</ele>
        <time>2024-03-14T16:58:15Z</time>
      </trkpt>
      <trkpt lat="48.67113" lon="1.91894">
        <ele>181.8</ele>
        <time>2024-03-14T16:58:16Z</time>
      </trkpt>
      <trkpt lat="48.67109" lon="1.91903">
        <ele>181.4</ele>
        <time>2024-03-14T16:58:17Z</time>
      </trkpt>
      <trkpt lat="48.67104" lon="1.91911">
        <ele>181.4</ele>
        <time>2024-03-14T16:58:18Z</time>
      </trkpt>
      <trkpt lat="48.671" lon="1.9192">
        <ele>181.4</ele>
        <time>2024-03-14T16:58:19Z</time>
      </trkpt>
      <trkpt lat="48.67095" lon="1.91928">
        <ele>181.4</ele>
        <time>2024-03-14T16:58:20Z</time>
      </trkpt>
      <trkpt lat="48.6709" lon="1.91936">
        <ele>180.6</ele>
        <time>2024-03-14T16:58:21Z</time>
      </trkpt>
      <trkpt lat="48.67086" lon="1.91945">
        <ele>180.6</ele>
        <time>2024-03-14T16:58:22Z</time>
      </trkpt>
      <trkpt lat="48.67081" lon="1.91953">
        <ele>180.6</ele>
        <time>2024-03-14T16:58:23Z</time>
      </trkpt>
      <trkpt lat="48.67076" lon="1.91962">
        <ele>181.6</ele>
        <time>2024-03-14T16:58:24Z</time>
      </trkpt>
      <trkpt lat="48.67072" lon="1.9197">
        <ele>181</ele>
        <time>2024-03-14T16:58:25Z</time>
      </trkpt>
      <trkpt lat="48.67068" lon="1.91978">
        <ele>181</ele>
        <time>2024-03-14T16:58:26Z</time>
      </trkpt>
      <trkpt lat="48.67064" lon="1.91986">
        <ele>181</ele>
        <time>2024-03-14T16:58:27Z</time>
      </trkpt>
      <trkpt lat="48.67059" lon="1.91995">
        <ele>181</ele>
        <time>2024-03-14T16:58:28Z</time>
      </trkpt>
      <trkpt lat="48.67055" lon="1.92003">
        <ele>181.6</ele>
        <time>2024-03-14T16:58:29Z</time>
      </trkpt>
      <trkpt lat="48.6705" lon="1.92011">
        <ele>181.6</ele>
        <time>2024-03-14T16:58:30Z</time>
      </trkpt>
      <trkpt lat="48.67046" lon="1.92019">
        <ele>181.6</ele>
        <time>2024-03-14T16:58:31Z</time>
      </trkpt>
      <trkpt lat="48.67041" lon="1.92026">
        <ele>181.6</ele>
        <time>2024-03-14T16:58:32Z</time>
      </trkpt>
      <trkpt lat="48.67037" lon="1.92034">
        <ele>181</ele>
        <time>2024-03-14T16:58:33Z</time>
      </trkpt>
      <trkpt lat="48.67032" lon="1.92042">
        <ele>181</ele>
        <time>2024-03-14T16:58:34Z</time>
      </trkpt>
      <trkpt lat="48.67028" lon="1.92051">
        <ele>181</ele>
        <time>2024-03-14T16:58:35Z</time>
      </trkpt>
      <trkpt lat="48.67023" lon="1.9206">
        <ele>181</ele>
        <time>2024-03-14T16:58:36Z</time>
      </trkpt>
      <trkpt lat="48.67019" lon="1.9207">
        <ele>181.2</ele>
        <time>2024-03-14T16:58:37Z</time>
      </trkpt>
      <trkpt lat="48.67014" lon="1.92079">
        <ele>181.2</ele>
        <time>2024-03-14T16:58:38Z</time>
      </trkpt>
      <trkpt lat="48.6701" lon="1.92089">
        <ele>181.2</ele>
        <time>2024-03-14T16:58:39Z</time>
      </trkpt>
      <trkpt lat="48.67006" lon="1.92098">
        <ele>180.8</ele>
        <time>2024-03-14T16:58:40Z</time>
      </trkpt>
      <trkpt lat="48.67002" lon="1.92108">
        <ele>181</ele>
        <time>2024-03-14T16:58:41Z</time>
      </trkpt>
      <trkpt lat="48.66998" lon="1.92118">
        <ele>181</ele>
        <time>2024-03-14T16:58:42Z</time>
      </trkpt>
      <trkpt lat="48.66994" lon="1.92129">
        <ele>181</ele>
        <time>2024-03-14T16:58:43Z</time>
      </trkpt>
      <trkpt lat="48.66991" lon="1.92139">
        <ele>181</ele>
        <time>2024-03-14T16:58:44Z</time>
      </trkpt>
      <trkpt lat="48.66988" lon="1.9215">
        <ele>181.4</ele>
        <time>2024-03-14T16:58:45Z</time>
      </trkpt>
      <trkpt lat="48.66985" lon="1.92161">
        <ele>181.4</ele>
        <time>2024-03-14T16:58:46Z</time>
      </trkpt>
      <trkpt lat="48.66982" lon="1.92171">
        <ele>181.4</ele>
        <time>2024-03-14T16:58:47Z</time>
      </trkpt>
      <trkpt lat="48.6698" lon="1.92182">
        <ele>181.4</ele>
        <time>2024-03-14T16:58:48Z</time>
      </trkpt>
      <trkpt lat="48.66977" lon="1.92193">
        <ele>181.6</ele>
        <time>2024-03-14T16:58:49Z</time>
      </trkpt>
      <trkpt lat="48.66974" lon="1.92204">
        <ele>181.6</ele>
        <time>2024-03-14T16:58:50Z</time>
      </trkpt>
      <trkpt lat="48.66971" lon="1.92214">
        <ele>181.6</ele>
        <time>2024-03-14T16:58:51Z</time>
      </trkpt>
      <trkpt lat="48.66968" lon="1.92225">
        <ele>181.6</ele>
        <time>2024-03-14T16:58:52Z</time>
      </trkpt>
      <trkpt lat="48.66966" lon="1.92236">
        <ele>181.4</ele>
        <time>2024-03-14T16:58:53Z</time>
      </trkpt>
      <trkpt lat="48.66962" lon="1.92246">
        <ele>181.4</ele>
        <time>2024-03-14T16:58:54Z</time>
      </trkpt>
      <trkpt lat="48.66959" lon="1.92256">
        <ele>181.4</ele>
        <time>2024-03-14T16:58:55Z</time>
      </trkpt>
      <trkpt lat="48.66956" lon="1.92266">
        <ele>181.4</ele>
        <time>2024-03-14T16:58:56Z</time>
      </trkpt>
      <trkpt lat="48.66953" lon="1.92277">
        <ele>181.4</ele>
        <time>2024-03-14T16:58:57Z</time>
      </trkpt>
      <trkpt lat="48.6695" lon="1.92287">
        <ele>181.4</ele>
        <time>2024-03-14T16:58:58Z</time>
      </trkpt>
      <trkpt lat="48.66946" lon="1.92298">
        <ele>181.4</ele>
        <time>2024-03-14T16:58:59Z</time>
      </trkpt>
      <trkpt lat="48.66944" lon="1.92308">
        <ele>181.2</ele>
        <time>2024-03-14T16:59:00Z</time>
      </trkpt>
      <trkpt lat="48.6694" lon="1.92319">
        <ele>181.2</ele>
        <time>2024-03-14T16:59:01Z</time>
      </trkpt>
      <trkpt lat="48.66937" lon="1.92329">
        <ele>181.2</ele>
        <time>2024-03-14T16:59:02Z</time>
      </trkpt>
      <trkpt lat="48.66933" lon="1.92339">
        <ele>181.2</ele>
        <time>2024-03-14T16:59:03Z</time>
      </trkpt>
      <trkpt lat="48.6693" lon="1.92349">
        <ele>181.2</ele>
        <time>2024-03-14T16:59:04Z</time>
      </trkpt>
      <trkpt lat="48.66926" lon="1.92359">
        <ele>181.2</ele>
        <time>2024-03-14T16:59:05Z</time>
      </trkpt>
      <trkpt lat="48.66922" lon="1.92369">
        <ele>181.2</ele>
        <time>2024-03-14T16:59:06Z</time>
      </trkpt>
      <trkpt lat="48.66919" lon="1.92379">
        <ele>181.2</ele>
        <time>2024-03-14T16:59:07Z</time>
      </trkpt>
      <trkpt lat="48.66915" lon="1.92388">
        <ele>181.2</ele>
        <time>2024-03-14T16:59:08Z</time>
      </trkpt>
      <trkpt lat="48.66911" lon="1.92398">
        <ele>180.6</ele>
        <time>2024-03-14T16:59:09Z</time>
      </trkpt>
      <trkpt lat="48.66907" lon="1.92408">
        <ele>180.6</ele>
        <time>2024-03-14T16:59:10Z</time>
      </trkpt>
      <trkpt lat="48.66903" lon="1.92418">
        <ele>180.6</ele>
        <time>2024-03-14T16:59:11Z</time>
      </trkpt>
      <trkpt lat="48.66899" lon="1.92428">
        <ele>180.6</ele>
        <time>2024-03-14T16:59:12Z</time>
      </trkpt>
      <trkpt lat="48.66896" lon="1.92437">
        <ele>180.8</ele>
        <time>2024-03-14T16:59:13Z</time>
      </trkpt>
      <trkpt lat="48.66892" lon="1.92447">
        <ele>180.8</ele>
        <time>2024-03-14T16:59:14Z</time>
      </trkpt>
      <trkpt lat="48.66887" lon="1.92457">
        <ele>180.8</ele>
        <time>2024-03-14T16:59:15Z</time>
      </trkpt>
      <trkpt lat="48.66883" lon="1.92466">
        <ele>180.2</ele>
        <time>2024-03-14T16:59:16Z</time>
      </trkpt>
      <trkpt lat="48.66879" lon="1.92475">
        <ele>180.6</ele>
        <time>2024-03-14T16:59:17Z</time>
      </trkpt>
      <trkpt lat="48.66874" lon="1.92484">
        <ele>180.6</ele>
        <time>2024-03-14T16:59:18Z</time>
      </trkpt>
      <trkpt lat="48.6687" lon="1.92493">
        <ele>180.6</ele>
        <time>2024-03-14T16:59:19Z</time>
      </trkpt>
      <trkpt lat="48.66866" lon="1.92501">
        <ele>180.4</ele>
        <time>2024-03-14T16:59:20Z</time>
      </trkpt>
      <trkpt lat="48.66861" lon="1.92509">
        <ele>180.6</ele>
        <time>2024-03-14T16:59:21Z</time>
      </trkpt>
      <trkpt lat="48.66856" lon="1.92516">
        <ele>180.6</ele>
        <time>2024-03-14T16:59:22Z</time>
      </trkpt>
      <trkpt lat="48.66851" lon="1.92523">
        <ele>180.6</ele>
        <time>2024-03-14T16:59:23Z</time>
      </trkpt>
      <trkpt lat="48.66846" lon="1.9253">
        <ele>180.6</ele>
        <time>2024-03-14T16:59:24Z</time>
      </trkpt>
      <trkpt lat="48.66841" lon="1.92537">
        <ele>180.4</ele>
        <time>2024-03-14T16:59:25Z</time>
      </trkpt>
      <trkpt lat="48.66836" lon="1.92544">
        <ele>180.4</ele>
        <time>2024-03-14T16:59:26Z</time>
      </trkpt>
      <trkpt lat="48.66831" lon="1.92551">
        <ele>180.4</ele>
        <time>2024-03-14T16:59:27Z</time>
      </trkpt>
      <trkpt lat="48.66826" lon="1.92558">
        <ele>180.2</ele>
        <time>2024-03-14T16:59:28Z</time>
      </trkpt>
      <trkpt lat="48.66821" lon="1.92565">
        <ele>180.4</ele>
        <time>2024-03-14T16:59:29Z</time>
      </trkpt>
      <trkpt lat="48.66816" lon="1.92573">
        <ele>180.4</ele>
        <time>2024-03-14T16:59:30Z</time>
      </trkpt>
      <trkpt lat="48.66811" lon="1.9258">
        <ele>180.4</ele>
        <time>2024-03-14T16:59:31Z</time>
      </trkpt>
      <trkpt lat="48.66806" lon="1.92585">
        <ele>180.4</ele>
        <time>2024-03-14T16:59:32Z</time>
      </trkpt>
      <trkpt lat="48.668" lon="1.92592">
        <ele>179.8</ele>
        <time>2024-03-14T16:59:33Z</time>
      </trkpt>
      <trkpt lat="48.66795" lon="1.92599">
        <ele>179.8</ele>
        <time>2024-03-14T16:59:34Z</time>
      </trkpt>
      <trkpt lat="48.6679" lon="1.92606">
        <ele>179.8</ele>
        <time>2024-03-14T16:59:35Z</time>
      </trkpt>
      <trkpt lat="48.66785" lon="1.92612">
        <ele>179.8</ele>
        <time>2024-03-14T16:59:36Z</time>
      </trkpt>
      <trkpt lat="48.6678" lon="1.92618">
        <ele>179.2</ele>
        <time>2024-03-14T16:59:37Z</time>
      </trkpt>
      <trkpt lat="48.66776" lon="1.92625">
        <ele>179.2</ele>
        <time>2024-03-14T16:59:38Z</time>
      </trkpt>
      <trkpt lat="48.66771" lon="1.92634">
        <ele>179.2</ele>
        <time>2024-03-14T16:59:39Z</time>
      </trkpt>
      <trkpt lat="48.66765" lon="1.92643">
        <ele>179.2</ele>
        <time>2024-03-14T16:59:40Z</time>
      </trkpt>
      <trkpt lat="48.66759" lon="1.92651">
        <ele>179</ele>
        <time>2024-03-14T16:59:41Z</time>
      </trkpt>
      <trkpt lat="48.66754" lon="1.9266">
        <ele>179</ele>
        <time>2024-03-14T16:59:42Z</time>
      </trkpt>
      <trkpt lat="48.66749" lon="1.92668">
        <ele>179</ele>
        <time>2024-03-14T16:59:43Z</time>
      </trkpt>
      <trkpt lat="48.66743" lon="1.92677">
        <ele>178.6</ele>
        <time>2024-03-14T16:59:44Z</time>
      </trkpt>
      <trkpt lat="48.66737" lon="1.92685">
        <ele>178.6</ele>
        <time>2024-03-14T16:59:45Z</time>
      </trkpt>
      <trkpt lat="48.66731" lon="1.92694">
        <ele>178.6</ele>
        <time>2024-03-14T16:59:46Z</time>
      </trkpt>
      <trkpt lat="48.66725" lon="1.92701">
        <ele>178.6</ele>
        <time>2024-03-14T16:59:47Z</time>
      </trkpt>
      <trkpt lat="48.66718" lon="1.92709">
        <ele>178.2</ele>
        <time>2024-03-14T16:59:48Z</time>
      </trkpt>
      <trkpt lat="48.66712" lon="1.92717">
        <ele>177.8</ele>
        <time>2024-03-14T16:59:49Z</time>
      </trkpt>
      <trkpt lat="48.66705" lon="1.92725">
        <ele>177.8</ele>
        <time>2024-03-14T16:59:50Z</time>
      </trkpt>
      <trkpt lat="48.66698" lon="1.92733">
        <ele>177.8</ele>
        <time>2024-03-14T16:59:51Z</time>
      </trkpt>
      <trkpt lat="48.66692" lon="1.9274">
        <ele>177.8</ele>
        <time>2024-03-14T16:59:52Z</time>
      </trkpt>
      <trkpt lat="48.66685" lon="1.92748">
        <ele>177.6</ele>
        <time>2024-03-14T16:59:53Z</time>
      </trkpt>
      <trkpt lat="48.66679" lon="1.92756">
        <ele>177.6</ele>
        <time>2024-03-14T16:59:54Z</time>
      </trkpt>
      <trkpt lat="48.66672" lon="1.92763">
        <ele>177.6</ele>
        <time>2024-03-14T16:59:55Z</time>
      </trkpt>
      <trkpt lat="48.66665" lon="1.92771">
        <ele>177.6</ele>
        <time>2024-03-14T16:59:56Z</time>
      </trkpt>
      <trkpt lat="48.66659" lon="1.92778">
        <ele>175.8</ele>
        <time>2024-03-14T16:59:57Z</time>
      </trkpt>
      <trkpt lat="48.66652" lon="1.92786">
        <ele>175.8</ele>
        <time>2024-03-14T16:59:58Z</time>
      </trkpt>
      <trkpt lat="48.66645" lon="1.92793">
        <ele>175.8</ele>
        <time>2024-03-14T16:59:59Z</time>
      </trkpt>
      <trkpt lat="48.66639" lon="1.928">
        <ele>176.8</ele>
        <time>2024-03-14T17:00:00Z</time>
      </trkpt>
      <trkpt lat="48.66632" lon="1.92807">
        <ele>178</ele>
        <time>2024-03-14T17:00:01Z</time>
      </trkpt>
      <trkpt lat="48.66626" lon="1.92814">
        <ele>178</ele>
        <time>2024-03-14T17:00:02Z</time>
      </trkpt>
      <trkpt lat="48.66619" lon="1.92821">
        <ele>178</ele>
        <time>2024-03-14T17:00:03Z</time>
      </trkpt>
      <trkpt lat="48.66613" lon="1.92828">
        <ele>177</ele>
        <time>2024-03-14T17:00:04Z</time>
      </trkpt>
      <trkpt lat="48.66606" lon="1.92833">
        <ele>176</ele>
        <time>2024-03-14T17:00:05Z</time>
      </trkpt>
      <trkpt lat="48.666" lon="1.92839">
        <ele>176</ele>
        <time>2024-03-14T17:00:06Z</time>
      </trkpt>
      <trkpt lat="48.66593" lon="1.92843">
        <ele>176</ele>
        <time>2024-03-14T17:00:07Z</time>
      </trkpt>
      <trkpt lat="48.66587" lon="1.92846">
        <ele>175.4</ele>
        <time>2024-03-14T17:00:08Z</time>
      </trkpt>
      <trkpt lat="48.66579" lon="1.92849">
        <ele>175.4</ele>
        <time>2024-03-14T17:00:09Z</time>
      </trkpt>
      <trkpt lat="48.66571" lon="1.92851">
        <ele>175.4</ele>
        <time>2024-03-14T17:00:10Z</time>
      </trkpt>
      <trkpt lat="48.66562" lon="1.92852">
        <ele>175.4</ele>
        <time>2024-03-14T17:00:11Z</time>
      </trkpt>
      <trkpt lat="48.66554" lon="1.92853">
        <ele>174.6</ele>
        <time>2024-03-14T17:00:12Z</time>
      </trkpt>
      <trkpt lat="48.66545" lon="1.92854">
        <ele>174.6</ele>
        <time>2024-03-14T17:00:13Z</time>
      </trkpt>
      <trkpt lat="48.66533" lon="1.92854">
        <ele>174.6</ele>
        <time>2024-03-14T17:00:14Z</time>
      </trkpt>
      <trkpt lat="48.66529" lon="1.92854">
        <ele>174.6</ele>
        <time>2024-03-14T17:00:15Z</time>
      </trkpt>
      <trkpt lat="48.66521" lon="1.92854">
        <ele>174.6</ele>
        <time>2024-03-14T17:00:16Z</time>
      </trkpt>
      <trkpt lat="48.66512" lon="1.92855">
        <ele>174</ele>
        <time>2024-03-14T17:00:17Z</time>
      </trkpt>
      <trkpt lat="48.66504" lon="1.92855">
        <ele>174</ele>
        <time>2024-03-14T17:00:18Z</time>
      </trkpt>
      <trkpt lat="48.66495" lon="1.92858">
        <ele>174</ele>
        <time>2024-03-14T17:00:19Z</time>
      </trkpt>
      <trkpt lat="48.66483" lon="1.92861">
        <ele>174</ele>
        <time>2024-03-14T17:00:20Z</time>
      </trkpt>
      <trkpt lat="48.66479" lon="1.92861">
        <ele>173.8</ele>
        <time>2024-03-14T17:00:21Z</time>
      </trkpt>
      <trkpt lat="48.66471" lon="1.92866">
        <ele>173.8</ele>
        <time>2024-03-14T17:00:22Z</time>
      </trkpt>
      <trkpt lat="48.66463" lon="1.92872">
        <ele>173.8</ele>
        <time>2024-03-14T17:00:23Z</time>
      </trkpt>
      <trkpt lat="48.66455" lon="1.92878">
        <ele>172.8</ele>
        <time>2024-03-14T17:00:24Z</time>
      </trkpt>
      <trkpt lat="48.66447" lon="1.92884">
        <ele>172.2</ele>
        <time>2024-03-14T17:00:25Z</time>
      </trkpt>
      <trkpt lat="48.66439" lon="1.9289">
        <ele>172.2</ele>
        <time>2024-03-14T17:00:26Z</time>
      </trkpt>
      <trkpt lat="48.66431" lon="1.92897">
        <ele>172.2</ele>
        <time>2024-03-14T17:00:27Z</time>
      </trkpt>
      <trkpt lat="48.66424" lon="1.92903">
        <ele>172.2</ele>
        <time>2024-03-14T17:00:28Z</time>
      </trkpt>
      <trkpt lat="48.66418" lon="1.92909">
        <ele>172.2</ele>
        <time>2024-03-14T17:00:29Z</time>
      </trkpt>
      <trkpt lat="48.66411" lon="1.92916">
        <ele>172.2</ele>
        <time>2024-03-14T17:00:30Z</time>
      </trkpt>
      <trkpt lat="48.66406" lon="1.92922">
        <ele>172.2</ele>
        <time>2024-03-14T17:00:31Z</time>
      </trkpt>
      <trkpt lat="48.664" lon="1.92926">
        <ele>173.2</ele>
        <time>2024-03-14T17:00:32Z</time>
      </trkpt>
      <trkpt lat="48.66396" lon="1.9293">
        <ele>175.2</ele>
        <time>2024-03-14T17:00:33Z</time>
      </trkpt>
      <trkpt lat="48.66393" lon="1.92933">
        <ele>175.2</ele>
        <time>2024-03-14T17:00:34Z</time>
      </trkpt>
      <trkpt lat="48.66391" lon="1.92935">
        <ele>175.2</ele>
        <time>2024-03-14T17:00:35Z</time>
      </trkpt>
      <trkpt lat="48.66389" lon="1.92936">
        <ele>175.6</ele>
        <time>2024-03-14T17:00:36Z</time>
      </trkpt>
      <trkpt lat="48.66388" lon="1.92938">
        <ele>175.8</ele>
        <time>2024-03-14T17:00:37Z</time>
      </trkpt>
      <trkpt lat="48.66386" lon="1.9294">
        <ele>175.8</ele>
        <time>2024-03-14T17:00:38Z</time>
      </trkpt>
      <trkpt lat="48.66385" lon="1.92942">
        <ele>175.8</ele>
        <time>2024-03-14T17:00:39Z</time>
      </trkpt>
      <trkpt lat="48.66383" lon="1.92945">
        <ele>175.8</ele>
        <time>2024-03-14T17:00:40Z</time>
      </trkpt>
      <trkpt lat="48.6638" lon="1.92949">
        <ele>175.2</ele>
        <time>2024-03-14T17:00:41Z</time>
      </trkpt>
      <trkpt lat="48.66378" lon="1.92953">
        <ele>175.2</ele>
        <time>2024-03-14T17:00:42Z</time>
      </trkpt>
      <trkpt lat="48.66378" lon="1.92959">
        <ele>175.2</ele>
        <time>2024-03-14T17:00:43Z</time>
      </trkpt>
      <trkpt lat="48.66379" lon="1.92966">
        <ele>175.2</ele>
        <time>2024-03-14T17:00:44Z</time>
      </trkpt>
      <trkpt lat="48.66381" lon="1.92973">
        <ele>174.6</ele>
        <time>2024-03-14T17:00:45Z</time>
      </trkpt>
      <trkpt lat="48.66381" lon="1.92984">
        <ele>174.6</ele>
        <time>2024-03-14T17:00:46Z</time>
      </trkpt>
      <trkpt lat="48.66381" lon="1.92995">
        <ele>174.6</ele>
        <time>2024-03-14T17:00:47Z</time>
      </trkpt>
      <trkpt lat="48.66381" lon="1.93006">
        <ele>173.8</ele>
        <time>2024-03-14T17:00:48Z</time>
      </trkpt>
      <trkpt lat="48.66381" lon="1.93017">
        <ele>173.4</ele>
        <time>2024-03-14T17:00:49Z</time>
      </trkpt>
      <trkpt lat="48.66381" lon="1.93028">
        <ele>173.4</ele>
        <time>2024-03-14T17:00:50Z</time>
      </trkpt>
      <trkpt lat="48.66381" lon="1.93039">
        <ele>173.4</ele>
        <time>2024-03-14T17:00:51Z</time>
      </trkpt>
      <trkpt lat="48.66381" lon="1.9305">
        <ele>173.4</ele>
        <time>2024-03-14T17:00:52Z</time>
      </trkpt>
      <trkpt lat="48.66381" lon="1.93061">
        <ele>174</ele>
        <time>2024-03-14T17:00:53Z</time>
      </trkpt>
      <trkpt lat="48.66381" lon="1.93072">
        <ele>174</ele>
        <time>2024-03-14T17:00:54Z</time>
      </trkpt>
      <trkpt lat="48.66381" lon="1.93082">
        <ele>174</ele>
        <time>2024-03-14T17:00:55Z</time>
      </trkpt>
      <trkpt lat="48.66381" lon="1.93092">
        <ele>174</ele>
        <time>2024-03-14T17:00:56Z</time>
      </trkpt>
      <trkpt lat="48.66381" lon="1.93102">
        <ele>175</ele>
        <time>2024-03-14T17:00:57Z</time>
      </trkpt>
      <trkpt lat="48.6638" lon="1.93111">
        <ele>175</ele>
        <time>2024-03-14T17:00:58Z</time>
      </trkpt>
      <trkpt lat="48.6638" lon="1.93119">
        <ele>175</ele>
        <time>2024-03-14T17:00:59Z</time>
      </trkpt>
      <trkpt lat="48.6638" lon="1.93128">
        <ele>175.8</ele>
        <time>2024-03-14T17:01:00Z</time>
      </trkpt>
      <trkpt lat="48.66379" lon="1.93137">
        <ele>176.2</ele>
        <time>2024-03-14T17:01:01Z</time>
      </trkpt>
      <trkpt lat="48.66378" lon="1.93146">
        <ele>176.2</ele>
        <time>2024-03-14T17:01:02Z</time>
      </trkpt>
      <trkpt lat="48.66377" lon="1.93154">
        <ele>176.2</ele>
        <time>2024-03-14T17:01:03Z</time>
      </trkpt>
      <trkpt lat="48.66373" lon="1.9316">
        <ele>176</ele>
        <time>2024-03-14T17:01:04Z</time>
      </trkpt>
      <trkpt lat="48.66369" lon="1.93164">
        <ele>176.4</ele>
        <time>2024-03-14T17:01:05Z</time>
      </trkpt>
      <trkpt lat="48.66364" lon="1.93168">
        <ele>176.4</ele>
        <time>2024-03-14T17:01:06Z</time>
      </trkpt>
      <trkpt lat="48.66359" lon="1.93171">
        <ele>176.4</ele>
        <time>2024-03-14T17:01:07Z</time>
      </trkpt>
      <trkpt lat="48.66354" lon="1.93176">
        <ele>176.8</ele>
        <time>2024-03-14T17:01:08Z</time>
      </trkpt>
      <trkpt lat="48.66349" lon="1.9318">
        <ele>176.8</ele>
        <time>2024-03-14T17:01:09Z</time>
      </trkpt>
      <trkpt lat="48.66344" lon="1.93184">
        <ele>176.8</ele>
        <time>2024-03-14T17:01:10Z</time>
      </trkpt>
      <trkpt lat="48.66339" lon="1.93188">
        <ele>176.8</ele>
        <time>2024-03-14T17:01:11Z</time>
      </trkpt>
      <trkpt lat="48.66334" lon="1.93192">
        <ele>177.8</ele>
        <time>2024-03-14T17:01:12Z</time>
      </trkpt>
      <trkpt lat="48.66329" lon="1.93196">
        <ele>177.6</ele>
        <time>2024-03-14T17:01:13Z</time>
      </trkpt>
      <trkpt lat="48.66324" lon="1.93201">
        <ele>177.6</ele>
        <time>2024-03-14T17:01:14Z</time>
      </trkpt>
      <trkpt lat="48.66319" lon="1.93204">
        <ele>177.6</ele>
        <time>2024-03-14T17:01:15Z</time>
      </trkpt>
      <trkpt lat="48.66313" lon="1.93209">
        <ele>177.6</ele>
        <time>2024-03-14T17:01:16Z</time>
      </trkpt>
      <trkpt lat="48.66308" lon="1.93213">
        <ele>177.4</ele>
        <time>2024-03-14T17:01:17Z</time>
      </trkpt>
      <trkpt lat="48.66303" lon="1.93216">
        <ele>177.4</ele>
        <time>2024-03-14T17:01:18Z</time>
      </trkpt>
      <trkpt lat="48.66297" lon="1.93218">
        <ele>177.4</ele>
        <time>2024-03-14T17:01:19Z</time>
      </trkpt>
      <trkpt lat="48.66292" lon="1.93221">
        <ele>177.4</ele>
        <time>2024-03-14T17:01:20Z</time>
      </trkpt>
      <trkpt lat="48.66285" lon="1.93225">
        <ele>177.2</ele>
        <time>2024-03-14T17:01:21Z</time>
      </trkpt>
      <trkpt lat="48.66279" lon="1.93227">
        <ele>177.2</ele>
        <time>2024-03-14T17:01:22Z</time>
      </trkpt>
      <trkpt lat="48.66272" lon="1.93229">
        <ele>177.2</ele>
        <time>2024-03-14T17:01:23Z</time>
      </trkpt>
      <trkpt lat="48.66267" lon="1.93229">
        <ele>177.6</ele>
        <time>2024-03-14T17:01:24Z</time>
      </trkpt>
      <trkpt lat="48.6626" lon="1.9323">
        <ele>177.6</ele>
        <time>2024-03-14T17:01:25Z</time>
      </trkpt>
      <trkpt lat="48.66254" lon="1.93231">
        <ele>177.6</ele>
        <time>2024-03-14T17:01:26Z</time>
      </trkpt>
      <trkpt lat="48.66247" lon="1.93232">
        <ele>177.6</ele>
        <time>2024-03-14T17:01:27Z</time>
      </trkpt>
      <trkpt lat="48.6624" lon="1.93233">
        <ele>177.6</ele>
        <time>2024-03-14T17:01:28Z</time>
      </trkpt>
      <trkpt lat="48.66233" lon="1.93234">
        <ele>177</ele>
        <time>2024-03-14T17:01:29Z</time>
      </trkpt>
      <trkpt lat="48.66226" lon="1.93234">
        <ele>177</ele>
        <time>2024-03-14T17:01:30Z</time>
      </trkpt>
      <trkpt lat="48.6622" lon="1.93234">
        <ele>177</ele>
        <time>2024-03-14T17:01:31Z</time>
      </trkpt>
      <trkpt lat="48.66213" lon="1.93235">
        <ele>177</ele>
        <time>2024-03-14T17:01:32Z</time>
      </trkpt>
      <trkpt lat="48.66207" lon="1.93235">
        <ele>176.8</ele>
        <time>2024-03-14T17:01:33Z</time>
      </trkpt>
      <trkpt lat="48.662" lon="1.93236">
        <ele>176.8</ele>
        <time>2024-03-14T17:01:34Z</time>
      </trkpt>
      <trkpt lat="48.66193" lon="1.93238">
        <ele>176.8</ele>
        <time>2024-03-14T17:01:35Z</time>
      </trkpt>
      <trkpt lat="48.66187" lon="1.93239">
        <ele>176.2</ele>
        <time>2024-03-14T17:01:36Z</time>
      </trkpt>
      <trkpt lat="48.66181" lon="1.93241">
        <ele>176.2</ele>
        <time>2024-03-14T17:01:37Z</time>
      </trkpt>
      <trkpt lat="48.66174" lon="1.93242">
        <ele>176.2</ele>
        <time>2024-03-14T17:01:38Z</time>
      </trkpt>
      <trkpt lat="48.66168" lon="1.93247">
        <ele>176.2</ele>
        <time>2024-03-14T17:01:39Z</time>
      </trkpt>
      <trkpt lat="48.66163" lon="1.93251">
        <ele>176.4</ele>
        <time>2024-03-14T17:01:40Z</time>
      </trkpt>
      <trkpt lat="48.66157" lon="1.93256">
        <ele>176.4</ele>
        <time>2024-03-14T17:01:41Z</time>
      </trkpt>
      <trkpt lat="48.66152" lon="1.93263">
        <ele>176.4</ele>
        <time>2024-03-14T17:01:42Z</time>
      </trkpt>
      <trkpt lat="48.66147" lon="1.9327">
        <ele>176.4</ele>
        <time>2024-03-14T17:01:43Z</time>
      </trkpt>
      <trkpt lat="48.66141" lon="1.93276">
        <ele>176.8</ele>
        <time>2024-03-14T17:01:44Z</time>
      </trkpt>
      <trkpt lat="48.66136" lon="1.93283">
        <ele>176.8</ele>
        <time>2024-03-14T17:01:45Z</time>
      </trkpt>
      <trkpt lat="48.6613" lon="1.93289">
        <ele>176.8</ele>
        <time>2024-03-14T17:01:46Z</time>
      </trkpt>
      <trkpt lat="48.66123" lon="1.93294">
        <ele>176.8</ele>
        <time>2024-03-14T17:01:47Z</time>
      </trkpt>
      <trkpt lat="48.66117" lon="1.933">
        <ele>176.2</ele>
        <time>2024-03-14T17:01:48Z</time>
      </trkpt>
      <trkpt lat="48.6611" lon="1.93305">
        <ele>176.2</ele>
        <time>2024-03-14T17:01:49Z</time>
      </trkpt>
      <trkpt lat="48.66103" lon="1.93309">
        <ele>176.2</ele>
        <time>2024-03-14T17:01:50Z</time>
      </trkpt>
      <trkpt lat="48.66097" lon="1.93312">
        <ele>176.2</ele>
        <time>2024-03-14T17:01:51Z</time>
      </trkpt>
      <trkpt lat="48.6609" lon="1.93314">
        <ele>176.2</ele>
        <time>2024-03-14T17:01:52Z</time>
      </trkpt>
      <trkpt lat="48.66079" lon="1.93319">
        <ele>176.2</ele>
        <time>2024-03-14T17:01:53Z</time>
      </trkpt>
      <trkpt lat="48.66076" lon="1.93321">
        <ele>176.2</ele>
        <time>2024-03-14T17:01:54Z</time>
      </trkpt>
      <trkpt lat="48.66069" lon="1.93324">
        <ele>176.2</ele>
        <time>2024-03-14T17:01:55Z</time>
      </trkpt>
      <trkpt lat="48.66062" lon="1.93328">
        <ele>177</ele>
        <time>2024-03-14T17:01:56Z</time>
      </trkpt>
      <trkpt lat="48.66054" lon="1.93331">
        <ele>177.4</ele>
        <time>2024-03-14T17:01:57Z</time>
      </trkpt>
      <trkpt lat="48.66047" lon="1.93334">
        <ele>177.4</ele>
        <time>2024-03-14T17:01:58Z</time>
      </trkpt>
      <trkpt lat="48.6604" lon="1.93337">
        <ele>177.4</ele>
        <time>2024-03-14T17:01:59Z</time>
      </trkpt>
      <trkpt lat="48.66032" lon="1.93341">
        <ele>176.4</ele>
        <time>2024-03-14T17:02:00Z</time>
      </trkpt>
      <trkpt lat="48.66025" lon="1.93343">
        <ele>176.2</ele>
        <time>2024-03-14T17:02:01Z</time>
      </trkpt>
      <trkpt lat="48.66018" lon="1.93346">
        <ele>176.2</ele>
        <time>2024-03-14T17:02:02Z</time>
      </trkpt>
      <trkpt lat="48.66012" lon="1.93349">
        <ele>176.2</ele>
        <time>2024-03-14T17:02:03Z</time>
      </trkpt>
      <trkpt lat="48.66005" lon="1.93353">
        <ele>176.2</ele>
        <time>2024-03-14T17:02:04Z</time>
      </trkpt>
      <trkpt lat="48.65998" lon="1.93358">
        <ele>175.8</ele>
        <time>2024-03-14T17:02:05Z</time>
      </trkpt>
      <trkpt lat="48.65991" lon="1.93364">
        <ele>175.8</ele>
        <time>2024-03-14T17:02:06Z</time>
      </trkpt>
      <trkpt lat="48.65984" lon="1.9337">
        <ele>175.8</ele>
        <time>2024-03-14T17:02:07Z</time>
      </trkpt>
      <trkpt lat="48.65978" lon="1.93376">
        <ele>176.2</ele>
        <time>2024-03-14T17:02:08Z</time>
      </trkpt>
      <trkpt lat="48.65972" lon="1.93383">
        <ele>176</ele>
        <time>2024-03-14T17:02:09Z</time>
      </trkpt>
      <trkpt lat="48.65966" lon="1.93389">
        <ele>176</ele>
        <time>2024-03-14T17:02:10Z</time>
      </trkpt>
      <trkpt lat="48.6596" lon="1.93394">
        <ele>176</ele>
        <time>2024-03-14T17:02:11Z</time>
      </trkpt>
      <trkpt lat="48.65954" lon="1.93399">
        <ele>175.8</ele>
        <time>2024-03-14T17:02:12Z</time>
      </trkpt>
      <trkpt lat="48.65949" lon="1.93404">
        <ele>175.2</ele>
        <time>2024-03-14T17:02:13Z</time>
      </trkpt>
      <trkpt lat="48.65944" lon="1.93408">
        <ele>175.2</ele>
        <time>2024-03-14T17:02:14Z</time>
      </trkpt>
      <trkpt lat="48.65938" lon="1.93413">
        <ele>175.2</ele>
        <time>2024-03-14T17:02:15Z</time>
      </trkpt>
      <trkpt lat="48.65934" lon="1.93417">
        <ele>175.8</ele>
        <time>2024-03-14T17:02:16Z</time>
      </trkpt>
      <trkpt lat="48.65929" lon="1.93422">
        <ele>175.8</ele>
        <time>2024-03-14T17:02:17Z</time>
      </trkpt>
      <trkpt lat="48.65923" lon="1.9343">
        <ele>175.8</ele>
        <time>2024-03-14T17:02:18Z</time>
      </trkpt>
      <trkpt lat="48.65914" lon="1.93438">
        <ele>175.8</ele>
        <time>2024-03-14T17:02:19Z</time>
      </trkpt>
      <trkpt lat="48.65912" lon="1.93441">
        <ele>174.8</ele>
        <time>2024-03-14T17:02:20Z</time>
      </trkpt>
      <trkpt lat="48.65903" lon="1.93451">
        <ele>174.4</ele>
        <time>2024-03-14T17:02:21Z</time>
      </trkpt>
      <trkpt lat="48.659" lon="1.93455">
        <ele>174.4</ele>
        <time>2024-03-14T17:02:22Z</time>
      </trkpt>
      <trkpt lat="48.65893" lon="1.93462">
        <ele>174.4</ele>
        <time>2024-03-14T17:02:23Z</time>
      </trkpt>
      <trkpt lat="48.65887" lon="1.93468">
        <ele>174.2</ele>
        <time>2024-03-14T17:02:24Z</time>
      </trkpt>
      <trkpt lat="48.6588" lon="1.93474">
        <ele>174</ele>
        <time>2024-03-14T17:02:25Z</time>
      </trkpt>
      <trkpt lat="48.65873" lon="1.93479">
        <ele>174</ele>
        <time>2024-03-14T17:02:26Z</time>
      </trkpt>
      <trkpt lat="48.65865" lon="1.93487">
        <ele>174</ele>
        <time>2024-03-14T17:02:27Z</time>
      </trkpt>
      <trkpt lat="48.65858" lon="1.93492">
        <ele>173</ele>
        <time>2024-03-14T17:02:28Z</time>
      </trkpt>
      <trkpt lat="48.65851" lon="1.93497">
        <ele>172</ele>
        <time>2024-03-14T17:02:29Z</time>
      </trkpt>
      <trkpt lat="48.65839" lon="1.93504">
        <ele>172</ele>
        <time>2024-03-14T17:02:30Z</time>
      </trkpt>
      <trkpt lat="48.65835" lon="1.93507">
        <ele>172</ele>
        <time>2024-03-14T17:02:31Z</time>
      </trkpt>
      <trkpt lat="48.65822" lon="1.93517">
        <ele>171</ele>
        <time>2024-03-14T17:02:32Z</time>
      </trkpt>
      <trkpt lat="48.65817" lon="1.9352">
        <ele>170</ele>
        <time>2024-03-14T17:02:33Z</time>
      </trkpt>
      <trkpt lat="48.65808" lon="1.93527">
        <ele>170</ele>
        <time>2024-03-14T17:02:34Z</time>
      </trkpt>
      <trkpt lat="48.65794" lon="1.93538">
        <ele>170</ele>
        <time>2024-03-14T17:02:35Z</time>
      </trkpt>
      <trkpt lat="48.65789" lon="1.93542">
        <ele>169</ele>
        <time>2024-03-14T17:02:36Z</time>
      </trkpt>
      <trkpt lat="48.65779" lon="1.93549">
        <ele>167.6</ele>
        <time>2024-03-14T17:02:37Z</time>
      </trkpt>
      <trkpt lat="48.6577" lon="1.9356">
        <ele>167.6</ele>
        <time>2024-03-14T17:02:38Z</time>
      </trkpt>
      <trkpt lat="48.65761" lon="1.93571">
        <ele>167.6</ele>
        <time>2024-03-14T17:02:39Z</time>
      </trkpt>
      <trkpt lat="48.65753" lon="1.93581">
        <ele>166.6</ele>
        <time>2024-03-14T17:02:40Z</time>
      </trkpt>
      <trkpt lat="48.65746" lon="1.93594">
        <ele>163.8</ele>
        <time>2024-03-14T17:02:41Z</time>
      </trkpt>
      <trkpt lat="48.65739" lon="1.93609">
        <ele>163.8</ele>
        <time>2024-03-14T17:02:42Z</time>
      </trkpt>
      <trkpt lat="48.65732" lon="1.93626">
        <ele>163.8</ele>
        <time>2024-03-14T17:02:43Z</time>
      </trkpt>
      <trkpt lat="48.65725" lon="1.93642">
        <ele>162.8</ele>
        <time>2024-03-14T17:02:44Z</time>
      </trkpt>
      <trkpt lat="48.65719" lon="1.93657">
        <ele>161.6</ele>
        <time>2024-03-14T17:02:45Z</time>
      </trkpt>
      <trkpt lat="48.65712" lon="1.93672">
        <ele>161.6</ele>
        <time>2024-03-14T17:02:46Z</time>
      </trkpt>
      <trkpt lat="48.65705" lon="1.93688">
        <ele>161.6</ele>
        <time>2024-03-14T17:02:47Z</time>
      </trkpt>
      <trkpt lat="48.65698" lon="1.93702">
        <ele>160.6</ele>
        <time>2024-03-14T17:02:48Z</time>
      </trkpt>
      <trkpt lat="48.65692" lon="1.93716">
        <ele>159.4</ele>
        <time>2024-03-14T17:02:49Z</time>
      </trkpt>
      <trkpt lat="48.65686" lon="1.9373">
        <ele>159.4</ele>
        <time>2024-03-14T17:02:50Z</time>
      </trkpt>
      <trkpt lat="48.6568" lon="1.93744">
        <ele>159.4</ele>
        <time>2024-03-14T17:02:51Z</time>
      </trkpt>
      <trkpt lat="48.65673" lon="1.93759">
        <ele>158.4</ele>
        <time>2024-03-14T17:02:52Z</time>
      </trkpt>
      <trkpt lat="48.65667" lon="1.93774">
        <ele>157.4</ele>
        <time>2024-03-14T17:02:53Z</time>
      </trkpt>
      <trkpt lat="48.65661" lon="1.93789">
        <ele>157.4</ele>
        <time>2024-03-14T17:02:54Z</time>
      </trkpt>
      <trkpt lat="48.65656" lon="1.93804">
        <ele>157.4</ele>
        <time>2024-03-14T17:02:55Z</time>
      </trkpt>
      <trkpt lat="48.6565" lon="1.9382">
        <ele>156.4</ele>
        <time>2024-03-14T17:02:56Z</time>
      </trkpt>
      <trkpt lat="48.65644" lon="1.93835">
        <ele>155.4</ele>
        <time>2024-03-14T17:02:57Z</time>
      </trkpt>
      <trkpt lat="48.65639" lon="1.9385">
        <ele>155.4</ele>
        <time>2024-03-14T17:02:58Z</time>
      </trkpt>
      <trkpt lat="48.65631" lon="1.93872">
        <ele>155.4</ele>
        <time>2024-03-14T17:02:59Z</time>
      </trkpt>
      <trkpt lat="48.65628" lon="1.9388">
        <ele>154.4</ele>
        <time>2024-03-14T17:03:00Z</time>
      </trkpt>
      <trkpt lat="48.65622" lon="1.93894">
        <ele>152</ele>
        <time>2024-03-14T17:03:01Z</time>
      </trkpt>
      <trkpt lat="48.65615" lon="1.93907">
        <ele>152</ele>
        <time>2024-03-14T17:03:02Z</time>
      </trkpt>
      <trkpt lat="48.65608" lon="1.93921">
        <ele>152</ele>
        <time>2024-03-14T17:03:03Z</time>
      </trkpt>
      <trkpt lat="48.65601" lon="1.93931">
        <ele>151</ele>
        <time>2024-03-14T17:03:04Z</time>
      </trkpt>
      <trkpt lat="48.65592" lon="1.93939">
        <ele>150</ele>
        <time>2024-03-14T17:03:05Z</time>
      </trkpt>
      <trkpt lat="48.65583" lon="1.93946">
        <ele>150</ele>
        <time>2024-03-14T17:03:06Z</time>
      </trkpt>
      <trkpt lat="48.65574" lon="1.93952">
        <ele>150</ele>
        <time>2024-03-14T17:03:07Z</time>
      </trkpt>
      <trkpt lat="48.65564" lon="1.93956">
        <ele>150</ele>
        <time>2024-03-14T17:03:08Z</time>
      </trkpt>
      <trkpt lat="48.65554" lon="1.93959">
        <ele>150.2</ele>
        <time>2024-03-14T17:03:09Z</time>
      </trkpt>
      <trkpt lat="48.65544" lon="1.93962">
        <ele>150.2</ele>
        <time>2024-03-14T17:03:10Z</time>
      </trkpt>
      <trkpt lat="48.65535" lon="1.93964">
        <ele>150.2</ele>
        <time>2024-03-14T17:03:11Z</time>
      </trkpt>
      <trkpt lat="48.65526" lon="1.93967">
        <ele>151.2</ele>
        <time>2024-03-14T17:03:12Z</time>
      </trkpt>
      <trkpt lat="48.65518" lon="1.93971">
        <ele>152.6</ele>
        <time>2024-03-14T17:03:13Z</time>
      </trkpt>
      <trkpt lat="48.6551" lon="1.93977">
        <ele>152.6</ele>
        <time>2024-03-14T17:03:14Z</time>
      </trkpt>
      <trkpt lat="48.65502" lon="1.93981">
        <ele>152.6</ele>
        <time>2024-03-14T17:03:15Z</time>
      </trkpt>
      <trkpt lat="48.65495" lon="1.93986">
        <ele>152.6</ele>
        <time>2024-03-14T17:03:16Z</time>
      </trkpt>
      <trkpt lat="48.65488" lon="1.9399">
        <ele>153.2</ele>
        <time>2024-03-14T17:03:17Z</time>
      </trkpt>
      <trkpt lat="48.65482" lon="1.93995">
        <ele>153.2</ele>
        <time>2024-03-14T17:03:18Z</time>
      </trkpt>
      <trkpt lat="48.65475" lon="1.94002">
        <ele>153.2</ele>
        <time>2024-03-14T17:03:19Z</time>
      </trkpt>
      <trkpt lat="48.65469" lon="1.94008">
        <ele>153.2</ele>
        <time>2024-03-14T17:03:20Z</time>
      </trkpt>
      <trkpt lat="48.65462" lon="1.94014">
        <ele>154.2</ele>
        <time>2024-03-14T17:03:21Z</time>
      </trkpt>
      <trkpt lat="48.65455" lon="1.94022">
        <ele>154.2</ele>
        <time>2024-03-14T17:03:22Z</time>
      </trkpt>
      <trkpt lat="48.65448" lon="1.94029">
        <ele>154.2</ele>
        <time>2024-03-14T17:03:23Z</time>
      </trkpt>
      <trkpt lat="48.65441" lon="1.94036">
        <ele>154</ele>
        <time>2024-03-14T17:03:24Z</time>
      </trkpt>
      <trkpt lat="48.65434" lon="1.94044">
        <ele>153.6</ele>
        <time>2024-03-14T17:03:25Z</time>
      </trkpt>
      <trkpt lat="48.65427" lon="1.94051">
        <ele>153.6</ele>
        <time>2024-03-14T17:03:26Z</time>
      </trkpt>
      <trkpt lat="48.65419" lon="1.94059">
        <ele>153.6</ele>
        <time>2024-03-14T17:03:27Z</time>
      </trkpt>
      <trkpt lat="48.65412" lon="1.94067">
        <ele>153</ele>
        <time>2024-03-14T17:03:28Z</time>
      </trkpt>
      <trkpt lat="48.65406" lon="1.94075">
        <ele>152.6</ele>
        <time>2024-03-14T17:03:29Z</time>
      </trkpt>
      <trkpt lat="48.65399" lon="1.94084">
        <ele>152.6</ele>
        <time>2024-03-14T17:03:30Z</time>
      </trkpt>
      <trkpt lat="48.65392" lon="1.94095">
        <ele>152.6</ele>
        <time>2024-03-14T17:03:31Z</time>
      </trkpt>
      <trkpt lat="48.65386" lon="1.94106">
        <ele>152.6</ele>
        <time>2024-03-14T17:03:32Z</time>
      </trkpt>
      <trkpt lat="48.65381" lon="1.94118">
        <ele>151.6</ele>
        <time>2024-03-14T17:03:33Z</time>
      </trkpt>
      <trkpt lat="48.65375" lon="1.94131">
        <ele>151.6</ele>
        <time>2024-03-14T17:03:34Z</time>
      </trkpt>
      <trkpt lat="48.6537" lon="1.94144">
        <ele>151.6</ele>
        <time>2024-03-14T17:03:35Z</time>
      </trkpt>
      <trkpt lat="48.65364" lon="1.94156">
        <ele>150.6</ele>
        <time>2024-03-14T17:03:36Z</time>
      </trkpt>
      <trkpt lat="48.65359" lon="1.94169">
        <ele>149.8</ele>
        <time>2024-03-14T17:03:37Z</time>
      </trkpt>
      <trkpt lat="48.65354" lon="1.94182">
        <ele>149.8</ele>
        <time>2024-03-14T17:03:38Z</time>
      </trkpt>
      <trkpt lat="48.65348" lon="1.94195">
        <ele>149.8</ele>
        <time>2024-03-14T17:03:39Z</time>
      </trkpt>
      <trkpt lat="48.65343" lon="1.94208">
        <ele>148.8</ele>
        <time>2024-03-14T17:03:40Z</time>
      </trkpt>
      <trkpt lat="48.65337" lon="1.9422">
        <ele>148.6</ele>
        <time>2024-03-14T17:03:41Z</time>
      </trkpt>
      <trkpt lat="48.65332" lon="1.94232">
        <ele>148.6</ele>
        <time>2024-03-14T17:03:42Z</time>
      </trkpt>
      <trkpt lat="48.65326" lon="1.94244">
        <ele>148.6</ele>
        <time>2024-03-14T17:03:43Z</time>
      </trkpt>
      <trkpt lat="48.65321" lon="1.94256">
        <ele>148.6</ele>
        <time>2024-03-14T17:03:44Z</time>
      </trkpt>
      <trkpt lat="48.65316" lon="1.94266">
        <ele>148.4</ele>
        <time>2024-03-14T17:03:45Z</time>
      </trkpt>
      <trkpt lat="48.65311" lon="1.94276">
        <ele>148.4</ele>
        <time>2024-03-14T17:03:46Z</time>
      </trkpt>
      <trkpt lat="48.65306" lon="1.94288">
        <ele>148.4</ele>
        <time>2024-03-14T17:03:47Z</time>
      </trkpt>
      <trkpt lat="48.65301" lon="1.943">
        <ele>148.6</ele>
        <time>2024-03-14T17:03:48Z</time>
      </trkpt>
      <trkpt lat="48.65297" lon="1.94312">
        <ele>148.6</ele>
        <time>2024-03-14T17:03:49Z</time>
      </trkpt>
      <trkpt lat="48.65292" lon="1.94323">
        <ele>148.6</ele>
        <time>2024-03-14T17:03:50Z</time>
      </trkpt>
      <trkpt lat="48.65287" lon="1.94335">
        <ele>148.6</ele>
        <time>2024-03-14T17:03:51Z</time>
      </trkpt>
      <trkpt lat="48.65282" lon="1.94347">
        <ele>148.6</ele>
        <time>2024-03-14T17:03:52Z</time>
      </trkpt>
      <trkpt lat="48.65277" lon="1.94358">
        <ele>149</ele>
        <time>2024-03-14T17:03:53Z</time>
      </trkpt>
      <trkpt lat="48.65272" lon="1.9437">
        <ele>149</ele>
        <time>2024-03-14T17:03:54Z</time>
      </trkpt>
      <trkpt lat="48.65268" lon="1.94381">
        <ele>149</ele>
        <time>2024-03-14T17:03:55Z</time>
      </trkpt>
      <trkpt lat="48.65263" lon="1.94393">
        <ele>149.6</ele>
        <time>2024-03-14T17:03:56Z</time>
      </trkpt>
      <trkpt lat="48.65259" lon="1.94404">
        <ele>149.2</ele>
        <time>2024-03-14T17:03:57Z</time>
      </trkpt>
      <trkpt lat="48.65256" lon="1.94414">
        <ele>149.2</ele>
        <time>2024-03-14T17:03:58Z</time>
      </trkpt>
      <trkpt lat="48.65249" lon="1.9443">
        <ele>149.2</ele>
        <time>2024-03-14T17:03:59Z</time>
      </trkpt>
      <trkpt lat="48.65246" lon="1.94436">
        <ele>149.2</ele>
        <time>2024-03-14T17:04:00Z</time>
      </trkpt>
      <trkpt lat="48.65241" lon="1.94446">
        <ele>149</ele>
        <time>2024-03-14T17:04:01Z</time>
      </trkpt>
      <trkpt lat="48.65237" lon="1.94458">
        <ele>149</ele>
        <time>2024-03-14T17:04:02Z</time>
      </trkpt>
      <trkpt lat="48.65231" lon="1.94468">
        <ele>149</ele>
        <time>2024-03-14T17:04:03Z</time>
      </trkpt>
      <trkpt lat="48.65227" lon="1.94479">
        <ele>149</ele>
        <time>2024-03-14T17:04:04Z</time>
      </trkpt>
      <trkpt lat="48.65222" lon="1.9449">
        <ele>148.4</ele>
        <time>2024-03-14T17:04:05Z</time>
      </trkpt>
      <trkpt lat="48.65217" lon="1.94501">
        <ele>148.4</ele>
        <time>2024-03-14T17:04:06Z</time>
      </trkpt>
      <trkpt lat="48.65212" lon="1.94512">
        <ele>148.4</ele>
        <time>2024-03-14T17:04:07Z</time>
      </trkpt>
      <trkpt lat="48.65208" lon="1.94522">
        <ele>148.4</ele>
        <time>2024-03-14T17:04:08Z</time>
      </trkpt>
      <trkpt lat="48.65203" lon="1.94533">
        <ele>149</ele>
        <time>2024-03-14T17:04:09Z</time>
      </trkpt>
      <trkpt lat="48.65198" lon="1.94544">
        <ele>149</ele>
        <time>2024-03-14T17:04:10Z</time>
      </trkpt>
      <trkpt lat="48.65193" lon="1.94554">
        <ele>149</ele>
        <time>2024-03-14T17:04:11Z</time>
      </trkpt>
      <trkpt lat="48.65188" lon="1.94564">
        <ele>148.4</ele>
        <time>2024-03-14T17:04:12Z</time>
      </trkpt>
      <trkpt lat="48.65183" lon="1.94573">
        <ele>148.8</ele>
        <time>2024-03-14T17:04:13Z</time>
      </trkpt>
      <trkpt lat="48.65177" lon="1.94582">
        <ele>148.8</ele>
        <time>2024-03-14T17:04:14Z</time>
      </trkpt>
      <trkpt lat="48.65171" lon="1.94591">
        <ele>148.8</ele>
        <time>2024-03-14T17:04:15Z</time>
      </trkpt>
      <trkpt lat="48.65166" lon="1.94597">
        <ele>148</ele>
        <time>2024-03-14T17:04:16Z</time>
      </trkpt>
      <trkpt lat="48.65161" lon="1.94605">
        <ele>148.4</ele>
        <time>2024-03-14T17:04:17Z</time>
      </trkpt>
      <trkpt lat="48.65156" lon="1.94612">
        <ele>148.4</ele>
        <time>2024-03-14T17:04:18Z</time>
      </trkpt>
      <trkpt lat="48.65151" lon="1.94619">
        <ele>148.4</ele>
        <time>2024-03-14T17:04:19Z</time>
      </trkpt>
      <trkpt lat="48.65146" lon="1.94626">
        <ele>149.4</ele>
        <time>2024-03-14T17:04:20Z</time>
      </trkpt>
      <trkpt lat="48.6514" lon="1.94633">
        <ele>149.6</ele>
        <time>2024-03-14T17:04:21Z</time>
      </trkpt>
      <trkpt lat="48.65134" lon="1.94641">
        <ele>149.6</ele>
        <time>2024-03-14T17:04:22Z</time>
      </trkpt>
      <trkpt lat="48.65129" lon="1.94648">
        <ele>149.6</ele>
        <time>2024-03-14T17:04:23Z</time>
      </trkpt>
      <trkpt lat="48.65123" lon="1.94655">
        <ele>150.6</ele>
        <time>2024-03-14T17:04:24Z</time>
      </trkpt>
      <trkpt lat="48.65118" lon="1.94662">
        <ele>151</ele>
        <time>2024-03-14T17:04:25Z</time>
      </trkpt>
      <trkpt lat="48.65113" lon="1.94668">
        <ele>151</ele>
        <time>2024-03-14T17:04:26Z</time>
      </trkpt>
      <trkpt lat="48.65108" lon="1.94674">
        <ele>151</ele>
        <time>2024-03-14T17:04:27Z</time>
      </trkpt>
      <trkpt lat="48.65103" lon="1.94681">
        <ele>152</ele>
        <time>2024-03-14T17:04:28Z</time>
      </trkpt>
      <trkpt lat="48.65099" lon="1.94687">
        <ele>152.8</ele>
        <time>2024-03-14T17:04:29Z</time>
      </trkpt>
      <trkpt lat="48.65094" lon="1.94693">
        <ele>152.8</ele>
        <time>2024-03-14T17:04:30Z</time>
      </trkpt>
      <trkpt lat="48.6509" lon="1.947">
        <ele>152.8</ele>
        <time>2024-03-14T17:04:31Z</time>
      </trkpt>
      <trkpt lat="48.65085" lon="1.94705">
        <ele>153.6</ele>
        <time>2024-03-14T17:04:32Z</time>
      </trkpt>
      <trkpt lat="48.65081" lon="1.9471">
        <ele>154</ele>
        <time>2024-03-14T17:04:33Z</time>
      </trkpt>
      <trkpt lat="48.65077" lon="1.94715">
        <ele>154</ele>
        <time>2024-03-14T17:04:34Z</time>
      </trkpt>
      <trkpt lat="48.65073" lon="1.94719">
        <ele>154</ele>
        <time>2024-03-14T17:04:35Z</time>
      </trkpt>
      <trkpt lat="48.65069" lon="1.94724">
        <ele>154.6</ele>
        <time>2024-03-14T17:04:36Z</time>
      </trkpt>
      <trkpt lat="48.65065" lon="1.94729">
        <ele>155.4</ele>
        <time>2024-03-14T17:04:37Z</time>
      </trkpt>
      <trkpt lat="48.65061" lon="1.94733">
        <ele>155.4</ele>
        <time>2024-03-14T17:04:38Z</time>
      </trkpt>
      <trkpt lat="48.65057" lon="1.94738">
        <ele>155.4</ele>
        <time>2024-03-14T17:04:39Z</time>
      </trkpt>
      <trkpt lat="48.65052" lon="1.94743">
        <ele>156.4</ele>
        <time>2024-03-14T17:04:40Z</time>
      </trkpt>
      <trkpt lat="48.65048" lon="1.94748">
        <ele>156.6</ele>
        <time>2024-03-14T17:04:41Z</time>
      </trkpt>
      <trkpt lat="48.65044" lon="1.94752">
        <ele>156.6</ele>
        <time>2024-03-14T17:04:42Z</time>
      </trkpt>
      <trkpt lat="48.6504" lon="1.94757">
        <ele>156.6</ele>
        <time>2024-03-14T17:04:43Z</time>
      </trkpt>
      <trkpt lat="48.65036" lon="1.94761">
        <ele>157.2</ele>
        <time>2024-03-14T17:04:44Z</time>
      </trkpt>
      <trkpt lat="48.65031" lon="1.94766">
        <ele>157.6</ele>
        <time>2024-03-14T17:04:45Z</time>
      </trkpt>
      <trkpt lat="48.65027" lon="1.9477">
        <ele>157.6</ele>
        <time>2024-03-14T17:04:46Z</time>
      </trkpt>
      <trkpt lat="48.65023" lon="1.94774">
        <ele>157.6</ele>
        <time>2024-03-14T17:04:47Z</time>
      </trkpt>
      <trkpt lat="48.65019" lon="1.94779">
        <ele>157.6</ele>
        <time>2024-03-14T17:04:48Z</time>
      </trkpt>
      <trkpt lat="48.65015" lon="1.94783">
        <ele>158.6</ele>
        <time>2024-03-14T17:04:49Z</time>
      </trkpt>
      <trkpt lat="48.65011" lon="1.94788">
        <ele>158.6</ele>
        <time>2024-03-14T17:04:50Z</time>
      </trkpt>
      <trkpt lat="48.65007" lon="1.94792">
        <ele>158.6</ele>
        <time>2024-03-14T17:04:51Z</time>
      </trkpt>
      <trkpt lat="48.65003" lon="1.94796">
        <ele>158.6</ele>
        <time>2024-03-14T17:04:52Z</time>
      </trkpt>
      <trkpt lat="48.64999" lon="1.948">
        <ele>158.8</ele>
        <time>2024-03-14T17:04:53Z</time>
      </trkpt>
      <trkpt lat="48.64996" lon="1.94805">
        <ele>158.8</ele>
        <time>2024-03-14T17:04:54Z</time>
      </trkpt>
      <trkpt lat="48.64992" lon="1.94809">
        <ele>158.8</ele>
        <time>2024-03-14T17:04:55Z</time>
      </trkpt>
      <trkpt lat="48.64988" lon="1.94813">
        <ele>158.8</ele>
        <time>2024-03-14T17:04:56Z</time>
      </trkpt>
      <trkpt lat="48.64984" lon="1.94817">
        <ele>159.2</ele>
        <time>2024-03-14T17:04:57Z</time>
      </trkpt>
      <trkpt lat="48.6498" lon="1.94821">
        <ele>159.2</ele>
        <time>2024-03-14T17:04:58Z</time>
      </trkpt>
      <trkpt lat="48.64975" lon="1.94825">
        <ele>159.2</ele>
        <time>2024-03-14T17:04:59Z</time>
      </trkpt>
      <trkpt lat="48.64971" lon="1.94829">
        <ele>159.4</ele>
        <time>2024-03-14T17:05:00Z</time>
      </trkpt>
      <trkpt lat="48.64967" lon="1.94833">
        <ele>160</ele>
        <time>2024-03-14T17:05:01Z</time>
      </trkpt>
      <trkpt lat="48.64963" lon="1.94838">
        <ele>160</ele>
        <time>2024-03-14T17:05:02Z</time>
      </trkpt>
      <trkpt lat="48.64958" lon="1.94842">
        <ele>160</ele>
        <time>2024-03-14T17:05:03Z</time>
      </trkpt>
      <trkpt lat="48.64954" lon="1.94846">
        <ele>160</ele>
        <time>2024-03-14T17:05:04Z</time>
      </trkpt>
      <trkpt lat="48.6495" lon="1.9485">
        <ele>160</ele>
        <time>2024-03-14T17:05:05Z</time>
      </trkpt>
      <trkpt lat="48.64945" lon="1.94854">
        <ele>160</ele>
        <time>2024-03-14T17:05:06Z</time>
      </trkpt>
      <trkpt lat="48.64941" lon="1.94857">
        <ele>160</ele>
        <time>2024-03-14T17:05:07Z</time>
      </trkpt>
      <trkpt lat="48.64936" lon="1.94861">
        <ele>160</ele>
        <time>2024-03-14T17:05:08Z</time>
      </trkpt>
      <trkpt lat="48.64932" lon="1.94864">
        <ele>160</ele>
        <time>2024-03-14T17:05:09Z</time>
      </trkpt>
      <trkpt lat="48.64927" lon="1.94867">
        <ele>160</ele>
        <time>2024-03-14T17:05:10Z</time>
      </trkpt>
      <trkpt lat="48.64922" lon="1.94869">
        <ele>160</ele>
        <time>2024-03-14T17:05:11Z</time>
      </trkpt>
      <trkpt lat="48.64917" lon="1.94872">
        <ele>160</ele>
        <time>2024-03-14T17:05:12Z</time>
      </trkpt>
      <trkpt lat="48.64912" lon="1.94875">
        <ele>159.8</ele>
        <time>2024-03-14T17:05:13Z</time>
      </trkpt>
      <trkpt lat="48.64907" lon="1.94877">
        <ele>159.8</ele>
        <time>2024-03-14T17:05:14Z</time>
      </trkpt>
      <trkpt lat="48.64902" lon="1.9488">
        <ele>159.8</ele>
        <time>2024-03-14T17:05:15Z</time>
      </trkpt>
      <trkpt lat="48.64896" lon="1.94882">
        <ele>159.8</ele>
        <time>2024-03-14T17:05:16Z</time>
      </trkpt>
      <trkpt lat="48.6489" lon="1.94885">
        <ele>158.8</ele>
        <time>2024-03-14T17:05:17Z</time>
      </trkpt>
      <trkpt lat="48.64884" lon="1.94888">
        <ele>158.8</ele>
        <time>2024-03-14T17:05:18Z</time>
      </trkpt>
      <trkpt lat="48.64878" lon="1.94892">
        <ele>158.8</ele>
        <time>2024-03-14T17:05:19Z</time>
      </trkpt>
      <trkpt lat="48.64872" lon="1.94894">
        <ele>158.8</ele>
        <time>2024-03-14T17:05:20Z</time>
      </trkpt>
      <trkpt lat="48.64866" lon="1.94898">
        <ele>157.2</ele>
        <time>2024-03-14T17:05:21Z</time>
      </trkpt>
      <trkpt lat="48.64859" lon="1.94901">
        <ele>157.2</ele>
        <time>2024-03-14T17:05:22Z</time>
      </trkpt>
      <trkpt lat="48.64853" lon="1.94904">
        <ele>157.2</ele>
        <time>2024-03-14T17:05:23Z</time>
      </trkpt>
      <trkpt lat="48.64846" lon="1.94907">
        <ele>157.2</ele>
        <time>2024-03-14T17:05:24Z</time>
      </trkpt>
      <trkpt lat="48.64839" lon="1.94911">
        <ele>157</ele>
        <time>2024-03-14T17:05:25Z</time>
      </trkpt>
      <trkpt lat="48.64832" lon="1.94914">
        <ele>157</ele>
        <time>2024-03-14T17:05:26Z</time>
      </trkpt>
      <trkpt lat="48.64825" lon="1.94918">
        <ele>157</ele>
        <time>2024-03-14T17:05:27Z</time>
      </trkpt>
      <trkpt lat="48.64818" lon="1.94921">
        <ele>156</ele>
        <time>2024-03-14T17:05:28Z</time>
      </trkpt>
      <trkpt lat="48.64811" lon="1.94925">
        <ele>155.2</ele>
        <time>2024-03-14T17:05:29Z</time>
      </trkpt>
      <trkpt lat="48.64804" lon="1.9493">
        <ele>155.2</ele>
        <time>2024-03-14T17:05:30Z</time>
      </trkpt>
      <trkpt lat="48.64797" lon="1.94935">
        <ele>155.2</ele>
        <time>2024-03-14T17:05:31Z</time>
      </trkpt>
      <trkpt lat="48.6479" lon="1.94939">
        <ele>154.8</ele>
        <time>2024-03-14T17:05:32Z</time>
      </trkpt>
      <trkpt lat="48.64783" lon="1.94944">
        <ele>155</ele>
        <time>2024-03-14T17:05:33Z</time>
      </trkpt>
      <trkpt lat="48.64775" lon="1.94949">
        <ele>155</ele>
        <time>2024-03-14T17:05:34Z</time>
      </trkpt>
      <trkpt lat="48.64768" lon="1.94955">
        <ele>155</ele>
        <time>2024-03-14T17:05:35Z</time>
      </trkpt>
      <trkpt lat="48.64761" lon="1.9496">
        <ele>155</ele>
        <time>2024-03-14T17:05:36Z</time>
      </trkpt>
      <trkpt lat="48.64753" lon="1.94966">
        <ele>153.2</ele>
        <time>2024-03-14T17:05:37Z</time>
      </trkpt>
      <trkpt lat="48.64746" lon="1.94971">
        <ele>153.2</ele>
        <time>2024-03-14T17:05:38Z</time>
      </trkpt>
      <trkpt lat="48.64738" lon="1.94977">
        <ele>153.2</ele>
        <time>2024-03-14T17:05:39Z</time>
      </trkpt>
      <trkpt lat="48.64731" lon="1.94983">
        <ele>153.2</ele>
        <time>2024-03-14T17:05:40Z</time>
      </trkpt>
      <trkpt lat="48.64723" lon="1.94988">
        <ele>152.6</ele>
        <time>2024-03-14T17:05:41Z</time>
      </trkpt>
      <trkpt lat="48.64716" lon="1.94994">
        <ele>152.6</ele>
        <time>2024-03-14T17:05:42Z</time>
      </trkpt>
      <trkpt lat="48.64708" lon="1.94999">
        <ele>152.6</ele>
        <time>2024-03-14T17:05:43Z</time>
      </trkpt>
      <trkpt lat="48.64701" lon="1.95005">
        <ele>152</ele>
        <time>2024-03-14T17:05:44Z</time>
      </trkpt>
      <trkpt lat="48.64693" lon="1.95011">
        <ele>151.2</ele>
        <time>2024-03-14T17:05:45Z</time>
      </trkpt>
      <trkpt lat="48.64686" lon="1.95018">
        <ele>151.2</ele>
        <time>2024-03-14T17:05:46Z</time>
      </trkpt>
      <trkpt lat="48.64678" lon="1.95024">
        <ele>151.2</ele>
        <time>2024-03-14T17:05:47Z</time>
      </trkpt>
      <trkpt lat="48.64671" lon="1.95031">
        <ele>151.2</ele>
        <time>2024-03-14T17:05:48Z</time>
      </trkpt>
      <trkpt lat="48.64664" lon="1.95037">
        <ele>150.6</ele>
        <time>2024-03-14T17:05:49Z</time>
      </trkpt>
      <trkpt lat="48.64656" lon="1.95043">
        <ele>150.6</ele>
        <time>2024-03-14T17:05:50Z</time>
      </trkpt>
      <trkpt lat="48.64649" lon="1.95049">
        <ele>150.6</ele>
        <time>2024-03-14T17:05:51Z</time>
      </trkpt>
      <trkpt lat="48.64641" lon="1.95056">
        <ele>149.6</ele>
        <time>2024-03-14T17:05:52Z</time>
      </trkpt>
      <trkpt lat="48.64632" lon="1.95062">
        <ele>147.6</ele>
        <time>2024-03-14T17:05:53Z</time>
      </trkpt>
      <trkpt lat="48.64624" lon="1.95068">
        <ele>147.6</ele>
        <time>2024-03-14T17:05:54Z</time>
      </trkpt>
      <trkpt lat="48.64615" lon="1.95073">
        <ele>147.6</ele>
        <time>2024-03-14T17:05:55Z</time>
      </trkpt>
      <trkpt lat="48.64605" lon="1.95076">
        <ele>146.6</ele>
        <time>2024-03-14T17:05:56Z</time>
      </trkpt>
      <trkpt lat="48.64596" lon="1.95079">
        <ele>145.2</ele>
        <time>2024-03-14T17:05:57Z</time>
      </trkpt>
      <trkpt lat="48.64586" lon="1.9508">
        <ele>145.2</ele>
        <time>2024-03-14T17:05:58Z</time>
      </trkpt>
      <trkpt lat="48.64576" lon="1.95081">
        <ele>145.2</ele>
        <time>2024-03-14T17:05:59Z</time>
      </trkpt>
      <trkpt lat="48.64566" lon="1.9508">
        <ele>144.2</ele>
        <time>2024-03-14T17:06:00Z</time>
      </trkpt>
      <trkpt lat="48.64556" lon="1.95079">
        <ele>141.8</ele>
        <time>2024-03-14T17:06:01Z</time>
      </trkpt>
      <trkpt lat="48.64546" lon="1.95076">
        <ele>141.8</ele>
        <time>2024-03-14T17:06:02Z</time>
      </trkpt>
      <trkpt lat="48.64536" lon="1.95073">
        <ele>141.8</ele>
        <time>2024-03-14T17:06:03Z</time>
      </trkpt>
      <trkpt lat="48.64526" lon="1.9507">
        <ele>140.8</ele>
        <time>2024-03-14T17:06:04Z</time>
      </trkpt>
      <trkpt lat="48.64516" lon="1.95067">
        <ele>138.2</ele>
        <time>2024-03-14T17:06:05Z</time>
      </trkpt>
      <trkpt lat="48.64506" lon="1.95064">
        <ele>138.2</ele>
        <time>2024-03-14T17:06:06Z</time>
      </trkpt>
      <trkpt lat="48.64495" lon="1.95061">
        <ele>138.2</ele>
        <time>2024-03-14T17:06:07Z</time>
      </trkpt>
      <trkpt lat="48.64485" lon="1.95059">
        <ele>137.2</ele>
        <time>2024-03-14T17:06:08Z</time>
      </trkpt>
      <trkpt lat="48.64475" lon="1.95058">
        <ele>136</ele>
        <time>2024-03-14T17:06:09Z</time>
      </trkpt>
      <trkpt lat="48.64466" lon="1.95058">
        <ele>136</ele>
        <time>2024-03-14T17:06:10Z</time>
      </trkpt>
      <trkpt lat="48.64456" lon="1.95059">
        <ele>136</ele>
        <time>2024-03-14T17:06:11Z</time>
      </trkpt>
      <trkpt lat="48.64446" lon="1.9506">
        <ele>136.8</ele>
        <time>2024-03-14T17:06:12Z</time>
      </trkpt>
      <trkpt lat="48.64437" lon="1.95063">
        <ele>135.8</ele>
        <time>2024-03-14T17:06:13Z</time>
      </trkpt>
      <trkpt lat="48.64427" lon="1.95066">
        <ele>135.8</ele>
        <time>2024-03-14T17:06:14Z</time>
      </trkpt>
      <trkpt lat="48.64418" lon="1.95069">
        <ele>135.8</ele>
        <time>2024-03-14T17:06:15Z</time>
      </trkpt>
      <trkpt lat="48.64409" lon="1.95072">
        <ele>135</ele>
        <time>2024-03-14T17:06:16Z</time>
      </trkpt>
      <trkpt lat="48.644" lon="1.95076">
        <ele>134.6</ele>
        <time>2024-03-14T17:06:17Z</time>
      </trkpt>
      <trkpt lat="48.64391" lon="1.9508">
        <ele>134.6</ele>
        <time>2024-03-14T17:06:18Z</time>
      </trkpt>
      <trkpt lat="48.64382" lon="1.95085">
        <ele>134.6</ele>
        <time>2024-03-14T17:06:19Z</time>
      </trkpt>
      <trkpt lat="48.64373" lon="1.95089">
        <ele>133.6</ele>
        <time>2024-03-14T17:06:20Z</time>
      </trkpt>
      <trkpt lat="48.64364" lon="1.95095">
        <ele>133.2</ele>
        <time>2024-03-14T17:06:21Z</time>
      </trkpt>
      <trkpt lat="48.64355" lon="1.951">
        <ele>133.2</ele>
        <time>2024-03-14T17:06:22Z</time>
      </trkpt>
      <trkpt lat="48.64346" lon="1.95106">
        <ele>133.2</ele>
        <time>2024-03-14T17:06:23Z</time>
      </trkpt>
      <trkpt lat="48.64336" lon="1.9511">
        <ele>133.2</ele>
        <time>2024-03-14T17:06:24Z</time>
      </trkpt>
      <trkpt lat="48.64327" lon="1.95114">
        <ele>133</ele>
        <time>2024-03-14T17:06:25Z</time>
      </trkpt>
      <trkpt lat="48.64317" lon="1.95115">
        <ele>133</ele>
        <time>2024-03-14T17:06:26Z</time>
      </trkpt>
      <trkpt lat="48.64307" lon="1.95116">
        <ele>133</ele>
        <time>2024-03-14T17:06:27Z</time>
      </trkpt>
      <trkpt lat="48.64298" lon="1.95115">
        <ele>133</ele>
        <time>2024-03-14T17:06:28Z</time>
      </trkpt>
      <trkpt lat="48.64288" lon="1.95113">
        <ele>131.4</ele>
        <time>2024-03-14T17:06:29Z</time>
      </trkpt>
      <trkpt lat="48.64279" lon="1.9511">
        <ele>131.4</ele>
        <time>2024-03-14T17:06:30Z</time>
      </trkpt>
      <trkpt lat="48.6427" lon="1.95108">
        <ele>131.4</ele>
        <time>2024-03-14T17:06:31Z</time>
      </trkpt>
      <trkpt lat="48.64261" lon="1.95105">
        <ele>132.4</ele>
        <time>2024-03-14T17:06:32Z</time>
      </trkpt>
      <trkpt lat="48.64252" lon="1.95102">
        <ele>132.6</ele>
        <time>2024-03-14T17:06:33Z</time>
      </trkpt>
      <trkpt lat="48.64243" lon="1.95099">
        <ele>132.6</ele>
        <time>2024-03-14T17:06:34Z</time>
      </trkpt>
      <trkpt lat="48.64234" lon="1.95096">
        <ele>132.6</ele>
        <time>2024-03-14T17:06:35Z</time>
      </trkpt>
      <trkpt lat="48.64226" lon="1.95093">
        <ele>132.6</ele>
        <time>2024-03-14T17:06:36Z</time>
      </trkpt>
      <trkpt lat="48.64217" lon="1.9509">
        <ele>133</ele>
        <time>2024-03-14T17:06:37Z</time>
      </trkpt>
      <trkpt lat="48.64209" lon="1.95087">
        <ele>133</ele>
        <time>2024-03-14T17:06:38Z</time>
      </trkpt>
      <trkpt lat="48.64201" lon="1.95084">
        <ele>133</ele>
        <time>2024-03-14T17:06:39Z</time>
      </trkpt>
      <trkpt lat="48.64192" lon="1.95081">
        <ele>132.8</ele>
        <time>2024-03-14T17:06:40Z</time>
      </trkpt>
      <trkpt lat="48.64184" lon="1.95078">
        <ele>132.8</ele>
        <time>2024-03-14T17:06:41Z</time>
      </trkpt>
      <trkpt lat="48.64176" lon="1.95075">
        <ele>132.8</ele>
        <time>2024-03-14T17:06:42Z</time>
      </trkpt>
      <trkpt lat="48.64168" lon="1.95072">
        <ele>132.8</ele>
        <time>2024-03-14T17:06:43Z</time>
      </trkpt>
      <trkpt lat="48.6416" lon="1.95069">
        <ele>132.6</ele>
        <time>2024-03-14T17:06:44Z</time>
      </trkpt>
      <trkpt lat="48.64152" lon="1.95066">
        <ele>132.8</ele>
        <time>2024-03-14T17:06:45Z</time>
      </trkpt>
      <trkpt lat="48.64144" lon="1.95063">
        <ele>132.8</ele>
        <time>2024-03-14T17:06:46Z</time>
      </trkpt>
      <trkpt lat="48.64137" lon="1.95059">
        <ele>132.8</ele>
        <time>2024-03-14T17:06:47Z</time>
      </trkpt>
      <trkpt lat="48.64129" lon="1.95055">
        <ele>132.8</ele>
        <time>2024-03-14T17:06:48Z</time>
      </trkpt>
      <trkpt lat="48.64121" lon="1.95051">
        <ele>131.8</ele>
        <time>2024-03-14T17:06:49Z</time>
      </trkpt>
      <trkpt lat="48.64113" lon="1.95046">
        <ele>131.8</ele>
        <time>2024-03-14T17:06:50Z</time>
      </trkpt>
      <trkpt lat="48.64106" lon="1.95041">
        <ele>131.8</ele>
        <time>2024-03-14T17:06:51Z</time>
      </trkpt>
      <trkpt lat="48.64098" lon="1.95035">
        <ele>131.8</ele>
        <time>2024-03-14T17:06:52Z</time>
      </trkpt>
      <trkpt lat="48.64091" lon="1.9503">
        <ele>131.2</ele>
        <time>2024-03-14T17:06:53Z</time>
      </trkpt>
      <trkpt lat="48.64084" lon="1.95026">
        <ele>131.2</ele>
        <time>2024-03-14T17:06:54Z</time>
      </trkpt>
      <trkpt lat="48.64077" lon="1.95023">
        <ele>131.2</ele>
        <time>2024-03-14T17:06:55Z</time>
      </trkpt>
      <trkpt lat="48.64072" lon="1.95021">
        <ele>131.2</ele>
        <time>2024-03-14T17:06:56Z</time>
      </trkpt>
      <trkpt lat="48.64068" lon="1.95019">
        <ele>134.2</ele>
        <time>2024-03-14T17:06:57Z</time>
      </trkpt>
      <trkpt lat="48.64067" lon="1.95018">
        <ele>134.2</ele>
        <time>2024-03-14T17:06:58Z</time>
      </trkpt>
      <trkpt lat="48.64066" lon="1.95019">
        <ele>134.2</ele>
        <time>2024-03-14T17:06:59Z</time>
      </trkpt>
      <trkpt lat="48.64066" lon="1.95021">
        <ele>134.6</ele>
        <time>2024-03-14T17:07:00Z</time>
      </trkpt>
      <trkpt lat="48.64067" lon="1.95022">
        <ele>134.8</ele>
        <time>2024-03-14T17:07:01Z</time>
      </trkpt>
      <trkpt lat="48.64069" lon="1.95023">
        <ele>134.8</ele>
        <time>2024-03-14T17:07:02Z</time>
      </trkpt>
      <trkpt lat="48.64071" lon="1.95023">
        <ele>134.8</ele>
        <time>2024-03-14T17:07:03Z</time>
      </trkpt>
      <trkpt lat="48.64074" lon="1.95023">
        <ele>134.8</ele>
        <time>2024-03-14T17:07:04Z</time>
      </trkpt>
      <trkpt lat="48.64076" lon="1.95024">
        <ele>135</ele>
        <time>2024-03-14T17:07:05Z</time>
      </trkpt>
      <trkpt lat="48.64078" lon="1.95025">
        <ele>135</ele>
        <time>2024-03-14T17:07:06Z</time>
      </trkpt>
      <trkpt lat="48.64079" lon="1.95026">
        <ele>135</ele>
        <time>2024-03-14T17:07:07Z</time>
      </trkpt>
      <trkpt lat="48.64081" lon="1.95027">
        <ele>135</ele>
        <time>2024-03-14T17:07:08Z</time>
      </trkpt>
      <trkpt lat="48.64083" lon="1.95028">
        <ele>135.2</ele>
        <time>2024-03-14T17:07:09Z</time>
      </trkpt>
      <trkpt lat="48.64083" lon="1.95028">
        <ele>135.2</ele>
        <time>2024-03-14T17:07:10Z</time>
      </trkpt>
      <trkpt lat="48.64083" lon="1.95027">
        <ele>135.2</ele>
        <time>2024-03-14T17:07:11Z</time>
      </trkpt>
      <trkpt lat="48.64083" lon="1.95027">
        <ele>135.4</ele>
        <time>2024-03-14T17:07:12Z</time>
      </trkpt>
      <trkpt lat="48.64083" lon="1.95027">
        <ele>135.2</ele>
        <time>2024-03-14T17:07:13Z</time>
      </trkpt>
      <trkpt lat="48.64083" lon="1.95026">
        <ele>135</ele>
        <time>2024-03-14T17:08:22Z</time>
      </trkpt>
      <trkpt lat="48.64084" lon="1.95026">
        <ele>135</ele>
        <time>2024-03-14T17:08:23Z</time>
      </trkpt>
      <trkpt lat="48.6408" lon="1.95024">
        <ele>134.2</ele>
        <time>2024-03-14T17:08:24Z</time>
      </trkpt>
      <trkpt lat="48.64076" lon="1.95023">
        <ele>134</ele>
        <time>2024-03-14T17:08:25Z</time>
      </trkpt>
      <trkpt lat="48.64072" lon="1.95021">
        <ele>134</ele>
        <time>2024-03-14T17:08:26Z</time>
      </trkpt>
      <trkpt lat="48.64068" lon="1.95018">
        <ele>134</ele>
        <time>2024-03-14T17:08:27Z</time>
      </trkpt>
      <trkpt lat="48.64063" lon="1.95015">
        <ele>133.4</ele>
        <time>2024-03-14T17:08:28Z</time>
      </trkpt>
      <trkpt lat="48.64058" lon="1.95013">
        <ele>133.4</ele>
        <time>2024-03-14T17:08:29Z</time>
      </trkpt>
      <trkpt lat="48.64053" lon="1.95012">
        <ele>133.4</ele>
        <time>2024-03-14T17:08:30Z</time>
      </trkpt>
      <trkpt lat="48.64047" lon="1.9501">
        <ele>133.4</ele>
        <time>2024-03-14T17:08:31Z</time>
      </trkpt>
      <trkpt lat="48.64042" lon="1.95009">
        <ele>132.8</ele>
        <time>2024-03-14T17:08:32Z</time>
      </trkpt>
      <trkpt lat="48.64037" lon="1.95008">
        <ele>132.6</ele>
        <time>2024-03-14T17:08:33Z</time>
      </trkpt>
      <trkpt lat="48.64031" lon="1.95008">
        <ele>132.6</ele>
        <time>2024-03-14T17:08:34Z</time>
      </trkpt>
      <trkpt lat="48.64026" lon="1.95008">
        <ele>132.6</ele>
        <time>2024-03-14T17:08:35Z</time>
      </trkpt>
      <trkpt lat="48.64021" lon="1.95007">
        <ele>132.6</ele>
        <time>2024-03-14T17:08:36Z</time>
      </trkpt>
      <trkpt lat="48.64016" lon="1.95007">
        <ele>133</ele>
        <time>2024-03-14T17:08:37Z</time>
      </trkpt>
      <trkpt lat="48.64011" lon="1.95008">
        <ele>133</ele>
        <time>2024-03-14T17:08:38Z</time>
      </trkpt>
      <trkpt lat="48.64006" lon="1.95009">
        <ele>133</ele>
        <time>2024-03-14T17:08:39Z</time>
      </trkpt>
      <trkpt lat="48.64001" lon="1.95011">
        <ele>134</ele>
        <time>2024-03-14T17:08:40Z</time>
      </trkpt>
      <trkpt lat="48.63996" lon="1.95014">
        <ele>133.6</ele>
        <time>2024-03-14T17:08:41Z</time>
      </trkpt>
      <trkpt lat="48.63991" lon="1.95016">
        <ele>133.6</ele>
        <time>2024-03-14T17:08:42Z</time>
      </trkpt>
      <trkpt lat="48.63986" lon="1.95019">
        <ele>133.6</ele>
        <time>2024-03-14T17:08:43Z</time>
      </trkpt>
      <trkpt lat="48.6398" lon="1.95022">
        <ele>132.6</ele>
        <time>2024-03-14T17:08:44Z</time>
      </trkpt>
      <trkpt lat="48.63975" lon="1.95025">
        <ele>133.6</ele>
        <time>2024-03-14T17:08:45Z</time>
      </trkpt>
      <trkpt lat="48.63969" lon="1.95028">
        <ele>133.6</ele>
        <time>2024-03-14T17:08:46Z</time>
      </trkpt>
      <trkpt lat="48.63963" lon="1.95031">
        <ele>133.6</ele>
        <time>2024-03-14T17:08:47Z</time>
      </trkpt>
      <trkpt lat="48.63958" lon="1.95034">
        <ele>133.2</ele>
        <time>2024-03-14T17:08:48Z</time>
      </trkpt>
      <trkpt lat="48.63952" lon="1.95036">
        <ele>133.2</ele>
        <time>2024-03-14T17:08:49Z</time>
      </trkpt>
      <trkpt lat="48.63947" lon="1.9504">
        <ele>133.2</ele>
        <time>2024-03-14T17:08:50Z</time>
      </trkpt>
      <trkpt lat="48.63942" lon="1.95043">
        <ele>133.2</ele>
        <time>2024-03-14T17:08:51Z</time>
      </trkpt>
      <trkpt lat="48.63937" lon="1.95046">
        <ele>133.2</ele>
        <time>2024-03-14T17:08:52Z</time>
      </trkpt>
      <trkpt lat="48.63932" lon="1.95048">
        <ele>132.6</ele>
        <time>2024-03-14T17:08:53Z</time>
      </trkpt>
      <trkpt lat="48.63926" lon="1.95051">
        <ele>132.6</ele>
        <time>2024-03-14T17:08:54Z</time>
      </trkpt>
      <trkpt lat="48.63921" lon="1.95054">
        <ele>132.6</ele>
        <time>2024-03-14T17:08:55Z</time>
      </trkpt>
      <trkpt lat="48.63916" lon="1.95058">
        <ele>133</ele>
        <time>2024-03-14T17:08:56Z</time>
      </trkpt>
      <trkpt lat="48.63911" lon="1.95061">
        <ele>132.8</ele>
        <time>2024-03-14T17:08:57Z</time>
      </trkpt>
      <trkpt lat="48.63905" lon="1.95065">
        <ele>132.8</ele>
        <time>2024-03-14T17:08:58Z</time>
      </trkpt>
      <trkpt lat="48.639" lon="1.95067">
        <ele>132.8</ele>
        <time>2024-03-14T17:08:59Z</time>
      </trkpt>
      <trkpt lat="48.63895" lon="1.95069">
        <ele>132.8</ele>
        <time>2024-03-14T17:09:00Z</time>
      </trkpt>
      <trkpt lat="48.6389" lon="1.95072">
        <ele>133</ele>
        <time>2024-03-14T17:09:01Z</time>
      </trkpt>
      <trkpt lat="48.63886" lon="1.95075">
        <ele>133</ele>
        <time>2024-03-14T17:09:02Z</time>
      </trkpt>
      <trkpt lat="48.6388" lon="1.9508">
        <ele>133</ele>
        <time>2024-03-14T17:09:03Z</time>
      </trkpt>
      <trkpt lat="48.63875" lon="1.95084">
        <ele>132.8</ele>
        <time>2024-03-14T17:09:04Z</time>
      </trkpt>
      <trkpt lat="48.63871" lon="1.95089">
        <ele>132.8</ele>
        <time>2024-03-14T17:09:05Z</time>
      </trkpt>
      <trkpt lat="48.63866" lon="1.95094">
        <ele>132.8</ele>
        <time>2024-03-14T17:09:06Z</time>
      </trkpt>
      <trkpt lat="48.63861" lon="1.951">
        <ele>132.8</ele>
        <time>2024-03-14T17:09:07Z</time>
      </trkpt>
      <trkpt lat="48.63856" lon="1.95106">
        <ele>132.6</ele>
        <time>2024-03-14T17:09:08Z</time>
      </trkpt>
      <trkpt lat="48.63851" lon="1.95113">
        <ele>132.4</ele>
        <time>2024-03-14T17:09:09Z</time>
      </trkpt>
      <trkpt lat="48.63845" lon="1.95119">
        <ele>132.4</ele>
        <time>2024-03-14T17:09:10Z</time>
      </trkpt>
      <trkpt lat="48.63841" lon="1.95126">
        <ele>132.4</ele>
        <time>2024-03-14T17:09:11Z</time>
      </trkpt>
      <trkpt lat="48.63836" lon="1.95132">
        <ele>132.6</ele>
        <time>2024-03-14T17:09:12Z</time>
      </trkpt>
      <trkpt lat="48.63832" lon="1.95139">
        <ele>132.6</ele>
        <time>2024-03-14T17:09:13Z</time>
      </trkpt>
      <trkpt lat="48.63828" lon="1.95146">
        <ele>132.6</ele>
        <time>2024-03-14T17:09:14Z</time>
      </trkpt>
      <trkpt lat="48.63825" lon="1.95154">
        <ele>132.6</ele>
        <time>2024-03-14T17:09:15Z</time>
      </trkpt>
      <trkpt lat="48.63823" lon="1.95161">
        <ele>133.4</ele>
        <time>2024-03-14T17:09:16Z</time>
      </trkpt>
      <trkpt lat="48.6382" lon="1.95168">
        <ele>134.2</ele>
        <time>2024-03-14T17:09:17Z</time>
      </trkpt>
      <trkpt lat="48.63818" lon="1.95174">
        <ele>134.2</ele>
        <time>2024-03-14T17:09:18Z</time>
      </trkpt>
      <trkpt lat="48.63816" lon="1.95181">
        <ele>134.2</ele>
        <time>2024-03-14T17:09:19Z</time>
      </trkpt>
      <trkpt lat="48.63814" lon="1.95188">
        <ele>134.2</ele>
        <time>2024-03-14T17:09:20Z</time>
      </trkpt>
      <trkpt lat="48.63812" lon="1.95196">
        <ele>134.6</ele>
        <time>2024-03-14T17:09:21Z</time>
      </trkpt>
      <trkpt lat="48.63809" lon="1.95204">
        <ele>134.6</ele>
        <time>2024-03-14T17:09:22Z</time>
      </trkpt>
      <trkpt lat="48.63807" lon="1.95212">
        <ele>134.6</ele>
        <time>2024-03-14T17:09:23Z</time>
      </trkpt>
      <trkpt lat="48.63805" lon="1.9522">
        <ele>134</ele>
        <time>2024-03-14T17:09:24Z</time>
      </trkpt>
      <trkpt lat="48.63802" lon="1.95229">
        <ele>134.2</ele>
        <time>2024-03-14T17:09:25Z</time>
      </trkpt>
      <trkpt lat="48.638" lon="1.95237">
        <ele>134.2</ele>
        <time>2024-03-14T17:09:26Z</time>
      </trkpt>
      <trkpt lat="48.63798" lon="1.95245">
        <ele>134.2</ele>
        <time>2024-03-14T17:09:27Z</time>
      </trkpt>
      <trkpt lat="48.63795" lon="1.95254">
        <ele>134.2</ele>
        <time>2024-03-14T17:09:28Z</time>
      </trkpt>
      <trkpt lat="48.63792" lon="1.95262">
        <ele>134.2</ele>
        <time>2024-03-14T17:09:29Z</time>
      </trkpt>
      <trkpt lat="48.63789" lon="1.9527">
        <ele>134.2</ele>
        <time>2024-03-14T17:09:30Z</time>
      </trkpt>
      <trkpt lat="48.63786" lon="1.95278">
        <ele>134.2</ele>
        <time>2024-03-14T17:09:31Z</time>
      </trkpt>
      <trkpt lat="48.63783" lon="1.95287">
        <ele>134.2</ele>
        <time>2024-03-14T17:09:32Z</time>
      </trkpt>
      <trkpt lat="48.6378" lon="1.95295">
        <ele>134.2</ele>
        <time>2024-03-14T17:09:33Z</time>
      </trkpt>
      <trkpt lat="48.63777" lon="1.95303">
        <ele>134.2</ele>
        <time>2024-03-14T17:09:34Z</time>
      </trkpt>
      <trkpt lat="48.63774" lon="1.95312">
        <ele>134.2</ele>
        <time>2024-03-14T17:09:35Z</time>
      </trkpt>
      <trkpt lat="48.63771" lon="1.9532">
        <ele>134.2</ele>
        <time>2024-03-14T17:09:36Z</time>
      </trkpt>
      <trkpt lat="48.63767" lon="1.95328">
        <ele>134</ele>
        <time>2024-03-14T17:09:37Z</time>
      </trkpt>
      <trkpt lat="48.63764" lon="1.95336">
        <ele>134</ele>
        <time>2024-03-14T17:09:38Z</time>
      </trkpt>
      <trkpt lat="48.63761" lon="1.95344">
        <ele>134</ele>
        <time>2024-03-14T17:09:39Z</time>
      </trkpt>
      <trkpt lat="48.63758" lon="1.95353">
        <ele>133</ele>
        <time>2024-03-14T17:09:40Z</time>
      </trkpt>
      <trkpt lat="48.63755" lon="1.95362">
        <ele>133</ele>
        <time>2024-03-14T17:09:41Z</time>
      </trkpt>
      <trkpt lat="48.63752" lon="1.9537">
        <ele>133</ele>
        <time>2024-03-14T17:09:42Z</time>
      </trkpt>
      <trkpt lat="48.63748" lon="1.95379">
        <ele>133</ele>
        <time>2024-03-14T17:09:43Z</time>
      </trkpt>
      <trkpt lat="48.63744" lon="1.95386">
        <ele>132</ele>
        <time>2024-03-14T17:09:44Z</time>
      </trkpt>
      <trkpt lat="48.63741" lon="1.95395">
        <ele>131.6</ele>
        <time>2024-03-14T17:09:45Z</time>
      </trkpt>
      <trkpt lat="48.63736" lon="1.95403">
        <ele>131.6</ele>
        <time>2024-03-14T17:09:46Z</time>
      </trkpt>
      <trkpt lat="48.6373" lon="1.95411">
        <ele>131.6</ele>
        <time>2024-03-14T17:09:47Z</time>
      </trkpt>
      <trkpt lat="48.63723" lon="1.95417">
        <ele>130.6</ele>
        <time>2024-03-14T17:09:48Z</time>
      </trkpt>
      <trkpt lat="48.63716" lon="1.95421">
        <ele>129.2</ele>
        <time>2024-03-14T17:09:49Z</time>
      </trkpt>
      <trkpt lat="48.63708" lon="1.95423">
        <ele>129.2</ele>
        <time>2024-03-14T17:09:50Z</time>
      </trkpt>
      <trkpt lat="48.63699" lon="1.95424">
        <ele>129.2</ele>
        <time>2024-03-14T17:09:51Z</time>
      </trkpt>
      <trkpt lat="48.63691" lon="1.95422">
        <ele>128.2</ele>
        <time>2024-03-14T17:09:52Z</time>
      </trkpt>
      <trkpt lat="48.63683" lon="1.9542">
        <ele>127.8</ele>
        <time>2024-03-14T17:09:53Z</time>
      </trkpt>
      <trkpt lat="48.63674" lon="1.95418">
        <ele>127.8</ele>
        <time>2024-03-14T17:09:54Z</time>
      </trkpt>
      <trkpt lat="48.63666" lon="1.95415">
        <ele>127.8</ele>
        <time>2024-03-14T17:09:55Z</time>
      </trkpt>
      <trkpt lat="48.63658" lon="1.95413">
        <ele>127.4</ele>
        <time>2024-03-14T17:09:56Z</time>
      </trkpt>
      <trkpt lat="48.6365" lon="1.9541">
        <ele>127.2</ele>
        <time>2024-03-14T17:09:57Z</time>
      </trkpt>
      <trkpt lat="48.63642" lon="1.95408">
        <ele>127.2</ele>
        <time>2024-03-14T17:09:58Z</time>
      </trkpt>
      <trkpt lat="48.63634" lon="1.95405">
        <ele>127.2</ele>
        <time>2024-03-14T17:09:59Z</time>
      </trkpt>
      <trkpt lat="48.63626" lon="1.95403">
        <ele>127.2</ele>
        <time>2024-03-14T17:10:00Z</time>
      </trkpt>
      <trkpt lat="48.63619" lon="1.954">
        <ele>128.4</ele>
        <time>2024-03-14T17:10:01Z</time>
      </trkpt>
      <trkpt lat="48.63612" lon="1.95397">
        <ele>128.4</ele>
        <time>2024-03-14T17:10:02Z</time>
      </trkpt>
      <trkpt lat="48.63605" lon="1.95395">
        <ele>128.4</ele>
        <time>2024-03-14T17:10:03Z</time>
      </trkpt>
      <trkpt lat="48.63598" lon="1.95392">
        <ele>128.4</ele>
        <time>2024-03-14T17:10:04Z</time>
      </trkpt>
      <trkpt lat="48.63591" lon="1.95389">
        <ele>128.8</ele>
        <time>2024-03-14T17:10:05Z</time>
      </trkpt>
      <trkpt lat="48.63584" lon="1.95387">
        <ele>128.8</ele>
        <time>2024-03-14T17:10:06Z</time>
      </trkpt>
      <trkpt lat="48.63577" lon="1.95384">
        <ele>128.8</ele>
        <time>2024-03-14T17:10:07Z</time>
      </trkpt>
      <trkpt lat="48.63571" lon="1.95383">
        <ele>128.8</ele>
        <time>2024-03-14T17:10:08Z</time>
      </trkpt>
      <trkpt lat="48.63564" lon="1.95382">
        <ele>129</ele>
        <time>2024-03-14T17:10:09Z</time>
      </trkpt>
      <trkpt lat="48.63558" lon="1.95382">
        <ele>129</ele>
        <time>2024-03-14T17:10:10Z</time>
      </trkpt>
      <trkpt lat="48.63552" lon="1.95383">
        <ele>129</ele>
        <time>2024-03-14T17:10:11Z</time>
      </trkpt>
      <trkpt lat="48.63546" lon="1.95384">
        <ele>130</ele>
        <time>2024-03-14T17:10:12Z</time>
      </trkpt>
      <trkpt lat="48.6354" lon="1.95386">
        <ele>130.4</ele>
        <time>2024-03-14T17:10:13Z</time>
      </trkpt>
      <trkpt lat="48.63534" lon="1.95389">
        <ele>130.4</ele>
        <time>2024-03-14T17:10:14Z</time>
      </trkpt>
      <trkpt lat="48.63529" lon="1.95392">
        <ele>130.4</ele>
        <time>2024-03-14T17:10:15Z</time>
      </trkpt>
      <trkpt lat="48.63523" lon="1.95394">
        <ele>131</ele>
        <time>2024-03-14T17:10:16Z</time>
      </trkpt>
      <trkpt lat="48.63518" lon="1.95397">
        <ele>131.4</ele>
        <time>2024-03-14T17:10:17Z</time>
      </trkpt>
      <trkpt lat="48.63513" lon="1.95399">
        <ele>131.4</ele>
        <time>2024-03-14T17:10:18Z</time>
      </trkpt>
      <trkpt lat="48.63507" lon="1.954">
        <ele>131.4</ele>
        <time>2024-03-14T17:10:19Z</time>
      </trkpt>
      <trkpt lat="48.63503" lon="1.95403">
        <ele>132.4</ele>
        <time>2024-03-14T17:10:20Z</time>
      </trkpt>
      <trkpt lat="48.63498" lon="1.95405">
        <ele>132.6</ele>
        <time>2024-03-14T17:10:21Z</time>
      </trkpt>
      <trkpt lat="48.63493" lon="1.95408">
        <ele>132.6</ele>
        <time>2024-03-14T17:10:22Z</time>
      </trkpt>
      <trkpt lat="48.63488" lon="1.95411">
        <ele>132.6</ele>
        <time>2024-03-14T17:10:23Z</time>
      </trkpt>
      <trkpt lat="48.63484" lon="1.95414">
        <ele>132.6</ele>
        <time>2024-03-14T17:10:24Z</time>
      </trkpt>
      <trkpt lat="48.63479" lon="1.95418">
        <ele>132.6</ele>
        <time>2024-03-14T17:10:25Z</time>
      </trkpt>
      <trkpt lat="48.63475" lon="1.95421">
        <ele>132.6</ele>
        <time>2024-03-14T17:10:26Z</time>
      </trkpt>
      <trkpt lat="48.63471" lon="1.95424">
        <ele>132.6</ele>
        <time>2024-03-14T17:10:27Z</time>
      </trkpt>
      <trkpt lat="48.63467" lon="1.95428">
        <ele>133.6</ele>
        <time>2024-03-14T17:10:28Z</time>
      </trkpt>
      <trkpt lat="48.63462" lon="1.95432">
        <ele>133</ele>
        <time>2024-03-14T17:10:29Z</time>
      </trkpt>
      <trkpt lat="48.63458" lon="1.95437">
        <ele>133</ele>
        <time>2024-03-14T17:10:30Z</time>
      </trkpt>
      <trkpt lat="48.63454" lon="1.95441">
        <ele>133</ele>
        <time>2024-03-14T17:10:31Z</time>
      </trkpt>
      <trkpt lat="48.63451" lon="1.95447">
        <ele>133.8</ele>
        <time>2024-03-14T17:10:32Z</time>
      </trkpt>
      <trkpt lat="48.63447" lon="1.95452">
        <ele>133.8</ele>
        <time>2024-03-14T17:10:33Z</time>
      </trkpt>
      <trkpt lat="48.63443" lon="1.95457">
        <ele>133.8</ele>
        <time>2024-03-14T17:10:34Z</time>
      </trkpt>
      <trkpt lat="48.63439" lon="1.95463">
        <ele>133.8</ele>
        <time>2024-03-14T17:10:35Z</time>
      </trkpt>
      <trkpt lat="48.63436" lon="1.95469">
        <ele>133.8</ele>
        <time>2024-03-14T17:10:36Z</time>
      </trkpt>
      <trkpt lat="48.63433" lon="1.95475">
        <ele>134.2</ele>
        <time>2024-03-14T17:10:37Z</time>
      </trkpt>
      <trkpt lat="48.63429" lon="1.95481">
        <ele>134.2</ele>
        <time>2024-03-14T17:10:38Z</time>
      </trkpt>
      <trkpt lat="48.63426" lon="1.95487">
        <ele>134.2</ele>
        <time>2024-03-14T17:10:39Z</time>
      </trkpt>
      <trkpt lat="48.63422" lon="1.95492">
        <ele>134.4</ele>
        <time>2024-03-14T17:10:40Z</time>
      </trkpt>
      <trkpt lat="48.63419" lon="1.95498">
        <ele>134.4</ele>
        <time>2024-03-14T17:10:41Z</time>
      </trkpt>
      <trkpt lat="48.63416" lon="1.95504">
        <ele>134.4</ele>
        <time>2024-03-14T17:10:42Z</time>
      </trkpt>
      <trkpt lat="48.63413" lon="1.9551">
        <ele>134.4</ele>
        <time>2024-03-14T17:10:43Z</time>
      </trkpt>
      <trkpt lat="48.6341" lon="1.95516">
        <ele>134.4</ele>
        <time>2024-03-14T17:10:44Z</time>
      </trkpt>
      <trkpt lat="48.63406" lon="1.95521">
        <ele>134.8</ele>
        <time>2024-03-14T17:10:45Z</time>
      </trkpt>
      <trkpt lat="48.63403" lon="1.95527">
        <ele>134.8</ele>
        <time>2024-03-14T17:10:46Z</time>
      </trkpt>
      <trkpt lat="48.634" lon="1.95532">
        <ele>134.8</ele>
        <time>2024-03-14T17:10:47Z</time>
      </trkpt>
      <trkpt lat="48.63396" lon="1.95538">
        <ele>134.4</ele>
        <time>2024-03-14T17:10:48Z</time>
      </trkpt>
      <trkpt lat="48.63392" lon="1.95543">
        <ele>134.8</ele>
        <time>2024-03-14T17:10:49Z</time>
      </trkpt>
      <trkpt lat="48.63389" lon="1.95549">
        <ele>134.8</ele>
        <time>2024-03-14T17:10:50Z</time>
      </trkpt>
      <trkpt lat="48.63385" lon="1.95554">
        <ele>134.8</ele>
        <time>2024-03-14T17:10:51Z</time>
      </trkpt>
      <trkpt lat="48.63381" lon="1.9556">
        <ele>135</ele>
        <time>2024-03-14T17:10:52Z</time>
      </trkpt>
      <trkpt lat="48.63378" lon="1.95566">
        <ele>134.8</ele>
        <time>2024-03-14T17:10:53Z</time>
      </trkpt>
      <trkpt lat="48.63374" lon="1.95572">
        <ele>134.8</ele>
        <time>2024-03-14T17:10:54Z</time>
      </trkpt>
      <trkpt lat="48.6337" lon="1.95578">
        <ele>134.8</ele>
        <time>2024-03-14T17:10:55Z</time>
      </trkpt>
      <trkpt lat="48.63366" lon="1.95584">
        <ele>134.8</ele>
        <time>2024-03-14T17:10:56Z</time>
      </trkpt>
      <trkpt lat="48.63362" lon="1.9559">
        <ele>134.8</ele>
        <time>2024-03-14T17:10:57Z</time>
      </trkpt>
      <trkpt lat="48.63358" lon="1.95597">
        <ele>134.8</ele>
        <time>2024-03-14T17:10:58Z</time>
      </trkpt>
      <trkpt lat="48.63354" lon="1.95603">
        <ele>134.8</ele>
        <time>2024-03-14T17:10:59Z</time>
      </trkpt>
      <trkpt lat="48.63349" lon="1.9561">
        <ele>134.8</ele>
        <time>2024-03-14T17:11:00Z</time>
      </trkpt>
      <trkpt lat="48.63345" lon="1.95616">
        <ele>135</ele>
        <time>2024-03-14T17:11:01Z</time>
      </trkpt>
      <trkpt lat="48.63341" lon="1.95622">
        <ele>135</ele>
        <time>2024-03-14T17:11:02Z</time>
      </trkpt>
      <trkpt lat="48.63337" lon="1.95629">
        <ele>135</ele>
        <time>2024-03-14T17:11:03Z</time>
      </trkpt>
      <trkpt lat="48.63332" lon="1.95636">
        <ele>135</ele>
        <time>2024-03-14T17:11:04Z</time>
      </trkpt>
      <trkpt lat="48.63328" lon="1.95642">
        <ele>135.2</ele>
        <time>2024-03-14T17:11:05Z</time>
      </trkpt>
      <trkpt lat="48.63324" lon="1.95648">
        <ele>135.2</ele>
        <time>2024-03-14T17:11:06Z</time>
      </trkpt>
      <trkpt lat="48.63319" lon="1.95654">
        <ele>135.2</ele>
        <time>2024-03-14T17:11:07Z</time>
      </trkpt>
      <trkpt lat="48.63315" lon="1.95661">
        <ele>135.2</ele>
        <time>2024-03-14T17:11:08Z</time>
      </trkpt>
      <trkpt lat="48.63311" lon="1.95667">
        <ele>135.4</ele>
        <time>2024-03-14T17:11:09Z</time>
      </trkpt>
      <trkpt lat="48.63306" lon="1.95674">
        <ele>135.4</ele>
        <time>2024-03-14T17:11:10Z</time>
      </trkpt>
      <trkpt lat="48.63302" lon="1.9568">
        <ele>135.4</ele>
        <time>2024-03-14T17:11:11Z</time>
      </trkpt>
      <trkpt lat="48.63298" lon="1.95686">
        <ele>135.8</ele>
        <time>2024-03-14T17:11:12Z</time>
      </trkpt>
      <trkpt lat="48.63294" lon="1.95692">
        <ele>136</ele>
        <time>2024-03-14T17:11:13Z</time>
      </trkpt>
      <trkpt lat="48.6329" lon="1.95699">
        <ele>136</ele>
        <time>2024-03-14T17:11:14Z</time>
      </trkpt>
      <trkpt lat="48.63286" lon="1.95705">
        <ele>136</ele>
        <time>2024-03-14T17:11:15Z</time>
      </trkpt>
      <trkpt lat="48.63282" lon="1.95711">
        <ele>136</ele>
        <time>2024-03-14T17:11:16Z</time>
      </trkpt>
      <trkpt lat="48.63278" lon="1.95717">
        <ele>136.8</ele>
        <time>2024-03-14T17:11:17Z</time>
      </trkpt>
      <trkpt lat="48.63274" lon="1.95723">
        <ele>136.8</ele>
        <time>2024-03-14T17:11:18Z</time>
      </trkpt>
      <trkpt lat="48.6327" lon="1.95729">
        <ele>136.8</ele>
        <time>2024-03-14T17:11:19Z</time>
      </trkpt>
      <trkpt lat="48.63266" lon="1.95734">
        <ele>136.8</ele>
        <time>2024-03-14T17:11:20Z</time>
      </trkpt>
      <trkpt lat="48.63262" lon="1.9574">
        <ele>136.8</ele>
        <time>2024-03-14T17:11:21Z</time>
      </trkpt>
      <trkpt lat="48.63258" lon="1.95746">
        <ele>136.8</ele>
        <time>2024-03-14T17:11:22Z</time>
      </trkpt>
      <trkpt lat="48.63254" lon="1.95752">
        <ele>136.8</ele>
        <time>2024-03-14T17:11:23Z</time>
      </trkpt>
      <trkpt lat="48.6325" lon="1.95758">
        <ele>137.4</ele>
        <time>2024-03-14T17:11:24Z</time>
      </trkpt>
      <trkpt lat="48.63245" lon="1.95764">
        <ele>137.6</ele>
        <time>2024-03-14T17:11:25Z</time>
      </trkpt>
      <trkpt lat="48.63241" lon="1.9577">
        <ele>137.6</ele>
        <time>2024-03-14T17:11:26Z</time>
      </trkpt>
      <trkpt lat="48.63237" lon="1.95777">
        <ele>137.6</ele>
        <time>2024-03-14T17:11:27Z</time>
      </trkpt>
      <trkpt lat="48.63233" lon="1.95784">
        <ele>136.8</ele>
        <time>2024-03-14T17:11:28Z</time>
      </trkpt>
      <trkpt lat="48.63228" lon="1.9579">
        <ele>136.2</ele>
        <time>2024-03-14T17:11:29Z</time>
      </trkpt>
      <trkpt lat="48.63224" lon="1.95797">
        <ele>136.2</ele>
        <time>2024-03-14T17:11:30Z</time>
      </trkpt>
      <trkpt lat="48.63219" lon="1.95804">
        <ele>136.2</ele>
        <time>2024-03-14T17:11:31Z</time>
      </trkpt>
      <trkpt lat="48.63214" lon="1.95811">
        <ele>136.2</ele>
        <time>2024-03-14T17:11:32Z</time>
      </trkpt>
      <trkpt lat="48.6321" lon="1.95818">
        <ele>135.8</ele>
        <time>2024-03-14T17:11:33Z</time>
      </trkpt>
      <trkpt lat="48.63205" lon="1.95825">
        <ele>135.8</ele>
        <time>2024-03-14T17:11:34Z</time>
      </trkpt>
      <trkpt lat="48.63201" lon="1.95832">
        <ele>135.8</ele>
        <time>2024-03-14T17:11:35Z</time>
      </trkpt>
      <trkpt lat="48.63197" lon="1.9584">
        <ele>135.6</ele>
        <time>2024-03-14T17:11:36Z</time>
      </trkpt>
      <trkpt lat="48.63193" lon="1.95847">
        <ele>135.8</ele>
        <time>2024-03-14T17:11:37Z</time>
      </trkpt>
      <trkpt lat="48.63189" lon="1.95855">
        <ele>135.8</ele>
        <time>2024-03-14T17:11:38Z</time>
      </trkpt>
      <trkpt lat="48.63185" lon="1.95863">
        <ele>135.8</ele>
        <time>2024-03-14T17:11:39Z</time>
      </trkpt>
      <trkpt lat="48.63183" lon="1.95871">
        <ele>136.4</ele>
        <time>2024-03-14T17:11:40Z</time>
      </trkpt>
      <trkpt lat="48.6318" lon="1.95879">
        <ele>136.6</ele>
        <time>2024-03-14T17:11:41Z</time>
      </trkpt>
      <trkpt lat="48.63178" lon="1.95888">
        <ele>136.6</ele>
        <time>2024-03-14T17:11:42Z</time>
      </trkpt>
      <trkpt lat="48.63175" lon="1.95896">
        <ele>136.6</ele>
        <time>2024-03-14T17:11:43Z</time>
      </trkpt>
      <trkpt lat="48.63173" lon="1.95903">
        <ele>136.6</ele>
        <time>2024-03-14T17:11:44Z</time>
      </trkpt>
      <trkpt lat="48.63171" lon="1.95911">
        <ele>137.4</ele>
        <time>2024-03-14T17:11:45Z</time>
      </trkpt>
      <trkpt lat="48.63169" lon="1.95919">
        <ele>137.4</ele>
        <time>2024-03-14T17:11:46Z</time>
      </trkpt>
      <trkpt lat="48.63167" lon="1.95927">
        <ele>137.4</ele>
        <time>2024-03-14T17:11:47Z</time>
      </trkpt>
      <trkpt lat="48.63166" lon="1.95935">
        <ele>138.4</ele>
        <time>2024-03-14T17:11:48Z</time>
      </trkpt>
      <trkpt lat="48.63164" lon="1.95942">
        <ele>138.4</ele>
        <time>2024-03-14T17:11:49Z</time>
      </trkpt>
      <trkpt lat="48.63162" lon="1.9595">
        <ele>138.4</ele>
        <time>2024-03-14T17:11:50Z</time>
      </trkpt>
      <trkpt lat="48.6316" lon="1.95957">
        <ele>138.4</ele>
        <time>2024-03-14T17:11:51Z</time>
      </trkpt>
      <trkpt lat="48.63158" lon="1.95965">
        <ele>138.4</ele>
        <time>2024-03-14T17:11:52Z</time>
      </trkpt>
      <trkpt lat="48.63156" lon="1.95972">
        <ele>139</ele>
        <time>2024-03-14T17:11:53Z</time>
      </trkpt>
      <trkpt lat="48.63154" lon="1.95979">
        <ele>139</ele>
        <time>2024-03-14T17:11:54Z</time>
      </trkpt>
      <trkpt lat="48.63152" lon="1.95986">
        <ele>139</ele>
        <time>2024-03-14T17:11:55Z</time>
      </trkpt>
      <trkpt lat="48.6315" lon="1.95993">
        <ele>139.6</ele>
        <time>2024-03-14T17:11:56Z</time>
      </trkpt>
      <trkpt lat="48.63148" lon="1.96001">
        <ele>140</ele>
        <time>2024-03-14T17:11:57Z</time>
      </trkpt>
      <trkpt lat="48.63146" lon="1.96008">
        <ele>140</ele>
        <time>2024-03-14T17:11:58Z</time>
      </trkpt>
      <trkpt lat="48.63143" lon="1.96014">
        <ele>140</ele>
        <time>2024-03-14T17:11:59Z</time>
      </trkpt>
      <trkpt lat="48.63142" lon="1.96021">
        <ele>140.8</ele>
        <time>2024-03-14T17:12:00Z</time>
      </trkpt>
      <trkpt lat="48.6314" lon="1.96028">
        <ele>140.6</ele>
        <time>2024-03-14T17:12:01Z</time>
      </trkpt>
      <trkpt lat="48.63138" lon="1.96036">
        <ele>140.6</ele>
        <time>2024-03-14T17:12:02Z</time>
      </trkpt>
      <trkpt lat="48.63136" lon="1.96043">
        <ele>140.6</ele>
        <time>2024-03-14T17:12:03Z</time>
      </trkpt>
      <trkpt lat="48.63135" lon="1.9605">
        <ele>141</ele>
        <time>2024-03-14T17:12:04Z</time>
      </trkpt>
      <trkpt lat="48.63132" lon="1.96057">
        <ele>140.8</ele>
        <time>2024-03-14T17:12:05Z</time>
      </trkpt>
      <trkpt lat="48.6313" lon="1.96064">
        <ele>140.8</ele>
        <time>2024-03-14T17:12:06Z</time>
      </trkpt>
      <trkpt lat="48.63129" lon="1.9607">
        <ele>140.8</ele>
        <time>2024-03-14T17:12:07Z</time>
      </trkpt>
      <trkpt lat="48.63127" lon="1.96076">
        <ele>141.8</ele>
        <time>2024-03-14T17:12:08Z</time>
      </trkpt>
      <trkpt lat="48.63125" lon="1.96082">
        <ele>141.6</ele>
        <time>2024-03-14T17:12:09Z</time>
      </trkpt>
      <trkpt lat="48.63123" lon="1.96089">
        <ele>141.6</ele>
        <time>2024-03-14T17:12:10Z</time>
      </trkpt>
      <trkpt lat="48.63121" lon="1.96096">
        <ele>141.6</ele>
        <time>2024-03-14T17:12:11Z</time>
      </trkpt>
      <trkpt lat="48.63119" lon="1.96103">
        <ele>141.8</ele>
        <time>2024-03-14T17:12:12Z</time>
      </trkpt>
      <trkpt lat="48.63116" lon="1.9611">
        <ele>142</ele>
        <time>2024-03-14T17:12:13Z</time>
      </trkpt>
      <trkpt lat="48.63113" lon="1.96117">
        <ele>142</ele>
        <time>2024-03-14T17:12:14Z</time>
      </trkpt>
      <trkpt lat="48.63112" lon="1.96122">
        <ele>142</ele>
        <time>2024-03-14T17:12:15Z</time>
      </trkpt>
      <trkpt lat="48.6311" lon="1.96128">
        <ele>142</ele>
        <time>2024-03-14T17:12:16Z</time>
      </trkpt>
      <trkpt lat="48.63108" lon="1.96135">
        <ele>142.2</ele>
        <time>2024-03-14T17:12:17Z</time>
      </trkpt>
      <trkpt lat="48.63105" lon="1.96141">
        <ele>142.2</ele>
        <time>2024-03-14T17:12:18Z</time>
      </trkpt>
      <trkpt lat="48.63102" lon="1.96149">
        <ele>142.2</ele>
        <time>2024-03-14T17:12:19Z</time>
      </trkpt>
      <trkpt lat="48.631" lon="1.96157">
        <ele>142.2</ele>
        <time>2024-03-14T17:12:20Z</time>
      </trkpt>
      <trkpt lat="48.63098" lon="1.96165">
        <ele>142.4</ele>
        <time>2024-03-14T17:12:21Z</time>
      </trkpt>
      <trkpt lat="48.63097" lon="1.96173">
        <ele>142.4</ele>
        <time>2024-03-14T17:12:22Z</time>
      </trkpt>
      <trkpt lat="48.63095" lon="1.96181">
        <ele>142.4</ele>
        <time>2024-03-14T17:12:23Z</time>
      </trkpt>
      <trkpt lat="48.63092" lon="1.96189">
        <ele>142.4</ele>
        <time>2024-03-14T17:12:24Z</time>
      </trkpt>
      <trkpt lat="48.63089" lon="1.96197">
        <ele>142.2</ele>
        <time>2024-03-14T17:12:25Z</time>
      </trkpt>
      <trkpt lat="48.63086" lon="1.96203">
        <ele>142.2</ele>
        <time>2024-03-14T17:12:26Z</time>
      </trkpt>
      <trkpt lat="48.63083" lon="1.96209">
        <ele>142.2</ele>
        <time>2024-03-14T17:12:27Z</time>
      </trkpt>
      <trkpt lat="48.63082" lon="1.96215">
        <ele>142.2</ele>
        <time>2024-03-14T17:12:28Z</time>
      </trkpt>
      <trkpt lat="48.6308" lon="1.96222">
        <ele>142.2</ele>
        <time>2024-03-14T17:12:29Z</time>
      </trkpt>
      <trkpt lat="48.63077" lon="1.9623">
        <ele>142.2</ele>
        <time>2024-03-14T17:12:30Z</time>
      </trkpt>
      <trkpt lat="48.63073" lon="1.96237">
        <ele>142.2</ele>
        <time>2024-03-14T17:12:31Z</time>
      </trkpt>
      <trkpt lat="48.63071" lon="1.96245">
        <ele>141.6</ele>
        <time>2024-03-14T17:12:32Z</time>
      </trkpt>
      <trkpt lat="48.63068" lon="1.96253">
        <ele>141</ele>
        <time>2024-03-14T17:12:33Z</time>
      </trkpt>
      <trkpt lat="48.63064" lon="1.96263">
        <ele>141</ele>
        <time>2024-03-14T17:12:34Z</time>
      </trkpt>
      <trkpt lat="48.6306" lon="1.96272">
        <ele>141</ele>
        <time>2024-03-14T17:12:35Z</time>
      </trkpt>
      <trkpt lat="48.63056" lon="1.96279">
        <ele>141</ele>
        <time>2024-03-14T17:12:36Z</time>
      </trkpt>
      <trkpt lat="48.63052" lon="1.96288">
        <ele>140</ele>
        <time>2024-03-14T17:12:37Z</time>
      </trkpt>
      <trkpt lat="48.63048" lon="1.96298">
        <ele>140</ele>
        <time>2024-03-14T17:12:38Z</time>
      </trkpt>
      <trkpt lat="48.63044" lon="1.96307">
        <ele>140</ele>
        <time>2024-03-14T17:12:39Z</time>
      </trkpt>
      <trkpt lat="48.6304" lon="1.96317">
        <ele>139</ele>
        <time>2024-03-14T17:12:40Z</time>
      </trkpt>
      <trkpt lat="48.63036" lon="1.96327">
        <ele>138.4</ele>
        <time>2024-03-14T17:12:41Z</time>
      </trkpt>
      <trkpt lat="48.63032" lon="1.96337">
        <ele>138.4</ele>
        <time>2024-03-14T17:12:42Z</time>
      </trkpt>
      <trkpt lat="48.63027" lon="1.96347">
        <ele>138.4</ele>
        <time>2024-03-14T17:12:43Z</time>
      </trkpt>
      <trkpt lat="48.63023" lon="1.96357">
        <ele>137.6</ele>
        <time>2024-03-14T17:12:44Z</time>
      </trkpt>
      <trkpt lat="48.63019" lon="1.96367">
        <ele>137.8</ele>
        <time>2024-03-14T17:12:45Z</time>
      </trkpt>
      <trkpt lat="48.63015" lon="1.96376">
        <ele>137.8</ele>
        <time>2024-03-14T17:12:46Z</time>
      </trkpt>
      <trkpt lat="48.63011" lon="1.96386">
        <ele>137.8</ele>
        <time>2024-03-14T17:12:47Z</time>
      </trkpt>
      <trkpt lat="48.63006" lon="1.96394">
        <ele>137.8</ele>
        <time>2024-03-14T17:12:48Z</time>
      </trkpt>
      <trkpt lat="48.63003" lon="1.96404">
        <ele>138.8</ele>
        <time>2024-03-14T17:12:49Z</time>
      </trkpt>
      <trkpt lat="48.62998" lon="1.96412">
        <ele>138.8</ele>
        <time>2024-03-14T17:12:50Z</time>
      </trkpt>
      <trkpt lat="48.62994" lon="1.9642">
        <ele>138.8</ele>
        <time>2024-03-14T17:12:51Z</time>
      </trkpt>
      <trkpt lat="48.6299" lon="1.96428">
        <ele>139.4</ele>
        <time>2024-03-14T17:12:52Z</time>
      </trkpt>
      <trkpt lat="48.62986" lon="1.96435">
        <ele>139.8</ele>
        <time>2024-03-14T17:12:53Z</time>
      </trkpt>
      <trkpt lat="48.62982" lon="1.96442">
        <ele>139.8</ele>
        <time>2024-03-14T17:12:54Z</time>
      </trkpt>
      <trkpt lat="48.62979" lon="1.96449">
        <ele>139.8</ele>
        <time>2024-03-14T17:12:55Z</time>
      </trkpt>
      <trkpt lat="48.62975" lon="1.96456">
        <ele>140.8</ele>
        <time>2024-03-14T17:12:56Z</time>
      </trkpt>
      <trkpt lat="48.62971" lon="1.96462">
        <ele>141.6</ele>
        <time>2024-03-14T17:12:57Z</time>
      </trkpt>
      <trkpt lat="48.62968" lon="1.96468">
        <ele>141.6</ele>
        <time>2024-03-14T17:12:58Z</time>
      </trkpt>
      <trkpt lat="48.62965" lon="1.96474">
        <ele>141.6</ele>
        <time>2024-03-14T17:12:59Z</time>
      </trkpt>
      <trkpt lat="48.62961" lon="1.9648">
        <ele>141.6</ele>
        <time>2024-03-14T17:13:00Z</time>
      </trkpt>
      <trkpt lat="48.62958" lon="1.96486">
        <ele>142.4</ele>
        <time>2024-03-14T17:13:01Z</time>
      </trkpt>
      <trkpt lat="48.62953" lon="1.96493">
        <ele>142.4</ele>
        <time>2024-03-14T17:13:02Z</time>
      </trkpt>
      <trkpt lat="48.62951" lon="1.96499">
        <ele>142.4</ele>
        <time>2024-03-14T17:13:03Z</time>
      </trkpt>
      <trkpt lat="48.62948" lon="1.96506">
        <ele>142.4</ele>
        <time>2024-03-14T17:13:04Z</time>
      </trkpt>
      <trkpt lat="48.62945" lon="1.96512">
        <ele>142.8</ele>
        <time>2024-03-14T17:13:05Z</time>
      </trkpt>
      <trkpt lat="48.62941" lon="1.96517">
        <ele>142.8</ele>
        <time>2024-03-14T17:13:06Z</time>
      </trkpt>
      <trkpt lat="48.62938" lon="1.96522">
        <ele>142.8</ele>
        <time>2024-03-14T17:13:07Z</time>
      </trkpt>
      <trkpt lat="48.62934" lon="1.96527">
        <ele>143.2</ele>
        <time>2024-03-14T17:13:08Z</time>
      </trkpt>
      <trkpt lat="48.62931" lon="1.96532">
        <ele>143.4</ele>
        <time>2024-03-14T17:13:09Z</time>
      </trkpt>
      <trkpt lat="48.62927" lon="1.96537">
        <ele>143.4</ele>
        <time>2024-03-14T17:13:10Z</time>
      </trkpt>
      <trkpt lat="48.62923" lon="1.96544">
        <ele>143.4</ele>
        <time>2024-03-14T17:13:11Z</time>
      </trkpt>
      <trkpt lat="48.62919" lon="1.9655">
        <ele>143.4</ele>
        <time>2024-03-14T17:13:12Z</time>
      </trkpt>
      <trkpt lat="48.62916" lon="1.96556">
        <ele>143.8</ele>
        <time>2024-03-14T17:13:13Z</time>
      </trkpt>
      <trkpt lat="48.62912" lon="1.96562">
        <ele>143.8</ele>
        <time>2024-03-14T17:13:14Z</time>
      </trkpt>
      <trkpt lat="48.62908" lon="1.96568">
        <ele>143.8</ele>
        <time>2024-03-14T17:13:15Z</time>
      </trkpt>
      <trkpt lat="48.62904" lon="1.96575">
        <ele>143.8</ele>
        <time>2024-03-14T17:13:16Z</time>
      </trkpt>
      <trkpt lat="48.62901" lon="1.96582">
        <ele>144</ele>
        <time>2024-03-14T17:13:17Z</time>
      </trkpt>
      <trkpt lat="48.62897" lon="1.96588">
        <ele>144</ele>
        <time>2024-03-14T17:13:18Z</time>
      </trkpt>
      <trkpt lat="48.62893" lon="1.96595">
        <ele>144</ele>
        <time>2024-03-14T17:13:19Z</time>
      </trkpt>
      <trkpt lat="48.62889" lon="1.96601">
        <ele>144</ele>
        <time>2024-03-14T17:13:20Z</time>
      </trkpt>
      <trkpt lat="48.62886" lon="1.96608">
        <ele>144.4</ele>
        <time>2024-03-14T17:13:21Z</time>
      </trkpt>
      <trkpt lat="48.62882" lon="1.96615">
        <ele>144.4</ele>
        <time>2024-03-14T17:13:22Z</time>
      </trkpt>
      <trkpt lat="48.62878" lon="1.96622">
        <ele>144.4</ele>
        <time>2024-03-14T17:13:23Z</time>
      </trkpt>
      <trkpt lat="48.62874" lon="1.96629">
        <ele>144.4</ele>
        <time>2024-03-14T17:13:24Z</time>
      </trkpt>
      <trkpt lat="48.62871" lon="1.96637">
        <ele>144.2</ele>
        <time>2024-03-14T17:13:25Z</time>
      </trkpt>
      <trkpt lat="48.62867" lon="1.96644">
        <ele>144.2</ele>
        <time>2024-03-14T17:13:26Z</time>
      </trkpt>
      <trkpt lat="48.62864" lon="1.96652">
        <ele>144.2</ele>
        <time>2024-03-14T17:13:27Z</time>
      </trkpt>
      <trkpt lat="48.6286" lon="1.9666">
        <ele>144.8</ele>
        <time>2024-03-14T17:13:28Z</time>
      </trkpt>
      <trkpt lat="48.62857" lon="1.96667">
        <ele>144.6</ele>
        <time>2024-03-14T17:13:29Z</time>
      </trkpt>
      <trkpt lat="48.62853" lon="1.96675">
        <ele>144.6</ele>
        <time>2024-03-14T17:13:30Z</time>
      </trkpt>
      <trkpt lat="48.62849" lon="1.96683">
        <ele>144.6</ele>
        <time>2024-03-14T17:13:31Z</time>
      </trkpt>
      <trkpt lat="48.62845" lon="1.96691">
        <ele>145</ele>
        <time>2024-03-14T17:13:32Z</time>
      </trkpt>
      <trkpt lat="48.62842" lon="1.96699">
        <ele>144.6</ele>
        <time>2024-03-14T17:13:33Z</time>
      </trkpt>
      <trkpt lat="48.62838" lon="1.96707">
        <ele>144.6</ele>
        <time>2024-03-14T17:13:34Z</time>
      </trkpt>
      <trkpt lat="48.62835" lon="1.96715">
        <ele>144.6</ele>
        <time>2024-03-14T17:13:35Z</time>
      </trkpt>
      <trkpt lat="48.62831" lon="1.96722">
        <ele>144.4</ele>
        <time>2024-03-14T17:13:36Z</time>
      </trkpt>
      <trkpt lat="48.62827" lon="1.9673">
        <ele>144.4</ele>
        <time>2024-03-14T17:13:37Z</time>
      </trkpt>
      <trkpt lat="48.62824" lon="1.96737">
        <ele>144.4</ele>
        <time>2024-03-14T17:13:38Z</time>
      </trkpt>
      <trkpt lat="48.6282" lon="1.96745">
        <ele>144.4</ele>
        <time>2024-03-14T17:13:39Z</time>
      </trkpt>
      <trkpt lat="48.62816" lon="1.96752">
        <ele>144.4</ele>
        <time>2024-03-14T17:13:40Z</time>
      </trkpt>
      <trkpt lat="48.62813" lon="1.9676">
        <ele>145.6</ele>
        <time>2024-03-14T17:13:41Z</time>
      </trkpt>
      <trkpt lat="48.62809" lon="1.96767">
        <ele>145.6</ele>
        <time>2024-03-14T17:13:42Z</time>
      </trkpt>
      <trkpt lat="48.62805" lon="1.96775">
        <ele>145.6</ele>
        <time>2024-03-14T17:13:43Z</time>
      </trkpt>
      <trkpt lat="48.62801" lon="1.96783">
        <ele>145.6</ele>
        <time>2024-03-14T17:13:44Z</time>
      </trkpt>
      <trkpt lat="48.62796" lon="1.96791">
        <ele>144.4</ele>
        <time>2024-03-14T17:13:45Z</time>
      </trkpt>
      <trkpt lat="48.62792" lon="1.968">
        <ele>144.4</ele>
        <time>2024-03-14T17:13:46Z</time>
      </trkpt>
      <trkpt lat="48.62788" lon="1.96808">
        <ele>144.4</ele>
        <time>2024-03-14T17:13:47Z</time>
      </trkpt>
      <trkpt lat="48.62783" lon="1.96816">
        <ele>144.6</ele>
        <time>2024-03-14T17:13:48Z</time>
      </trkpt>
      <trkpt lat="48.62779" lon="1.96824">
        <ele>143.8</ele>
        <time>2024-03-14T17:13:49Z</time>
      </trkpt>
      <trkpt lat="48.62774" lon="1.96832">
        <ele>143.8</ele>
        <time>2024-03-14T17:13:50Z</time>
      </trkpt>
      <trkpt lat="48.6277" lon="1.9684">
        <ele>143.8</ele>
        <time>2024-03-14T17:13:51Z</time>
      </trkpt>
      <trkpt lat="48.62765" lon="1.96848">
        <ele>143.4</ele>
        <time>2024-03-14T17:13:52Z</time>
      </trkpt>
      <trkpt lat="48.6276" lon="1.96856">
        <ele>143.2</ele>
        <time>2024-03-14T17:13:53Z</time>
      </trkpt>
      <trkpt lat="48.62756" lon="1.96864">
        <ele>143.2</ele>
        <time>2024-03-14T17:13:54Z</time>
      </trkpt>
      <trkpt lat="48.62751" lon="1.96873">
        <ele>143.2</ele>
        <time>2024-03-14T17:13:55Z</time>
      </trkpt>
      <trkpt lat="48.62746" lon="1.9688">
        <ele>143.2</ele>
        <time>2024-03-14T17:13:56Z</time>
      </trkpt>
      <trkpt lat="48.62741" lon="1.96888">
        <ele>143.4</ele>
        <time>2024-03-14T17:13:57Z</time>
      </trkpt>
      <trkpt lat="48.62737" lon="1.96896">
        <ele>143.4</ele>
        <time>2024-03-14T17:13:58Z</time>
      </trkpt>
      <trkpt lat="48.62732" lon="1.96904">
        <ele>143.4</ele>
        <time>2024-03-14T17:13:59Z</time>
      </trkpt>
      <trkpt lat="48.62728" lon="1.96912">
        <ele>143.4</ele>
        <time>2024-03-14T17:14:00Z</time>
      </trkpt>
      <trkpt lat="48.62723" lon="1.96919">
        <ele>143.8</ele>
        <time>2024-03-14T17:14:01Z</time>
      </trkpt>
      <trkpt lat="48.62718" lon="1.96927">
        <ele>143.8</ele>
        <time>2024-03-14T17:14:02Z</time>
      </trkpt>
      <trkpt lat="48.62714" lon="1.96934">
        <ele>143.8</ele>
        <time>2024-03-14T17:14:03Z</time>
      </trkpt>
      <trkpt lat="48.6271" lon="1.96941">
        <ele>144</ele>
        <time>2024-03-14T17:14:04Z</time>
      </trkpt>
      <trkpt lat="48.62705" lon="1.96948">
        <ele>144.6</ele>
        <time>2024-03-14T17:14:05Z</time>
      </trkpt>
      <trkpt lat="48.62701" lon="1.96956">
        <ele>144.6</ele>
        <time>2024-03-14T17:14:06Z</time>
      </trkpt>
      <trkpt lat="48.62698" lon="1.96963">
        <ele>144.6</ele>
        <time>2024-03-14T17:14:07Z</time>
      </trkpt>
      <trkpt lat="48.62695" lon="1.9697">
        <ele>145.6</ele>
        <time>2024-03-14T17:14:08Z</time>
      </trkpt>
      <trkpt lat="48.62693" lon="1.96977">
        <ele>145.6</ele>
        <time>2024-03-14T17:14:09Z</time>
      </trkpt>
      <trkpt lat="48.62691" lon="1.96984">
        <ele>145.6</ele>
        <time>2024-03-14T17:14:10Z</time>
      </trkpt>
      <trkpt lat="48.6269" lon="1.9699">
        <ele>145.6</ele>
        <time>2024-03-14T17:14:11Z</time>
      </trkpt>
      <trkpt lat="48.62688" lon="1.96997">
        <ele>146.6</ele>
        <time>2024-03-14T17:14:12Z</time>
      </trkpt>
      <trkpt lat="48.62687" lon="1.97004">
        <ele>147</ele>
        <time>2024-03-14T17:14:13Z</time>
      </trkpt>
      <trkpt lat="48.62686" lon="1.9701">
        <ele>147</ele>
        <time>2024-03-14T17:14:14Z</time>
      </trkpt>
      <trkpt lat="48.62684" lon="1.97017">
        <ele>147</ele>
        <time>2024-03-14T17:14:15Z</time>
      </trkpt>
      <trkpt lat="48.62684" lon="1.97024">
        <ele>147.6</ele>
        <time>2024-03-14T17:14:16Z</time>
      </trkpt>
      <trkpt lat="48.62683" lon="1.97031">
        <ele>147.6</ele>
        <time>2024-03-14T17:14:17Z</time>
      </trkpt>
      <trkpt lat="48.62682" lon="1.97037">
        <ele>147.6</ele>
        <time>2024-03-14T17:14:18Z</time>
      </trkpt>
      <trkpt lat="48.62681" lon="1.97043">
        <ele>147.6</ele>
        <time>2024-03-14T17:14:19Z</time>
      </trkpt>
      <trkpt lat="48.6268" lon="1.9705">
        <ele>148.6</ele>
        <time>2024-03-14T17:14:20Z</time>
      </trkpt>
      <trkpt lat="48.62679" lon="1.97056">
        <ele>149.2</ele>
        <time>2024-03-14T17:14:21Z</time>
      </trkpt>
      <trkpt lat="48.62678" lon="1.97063">
        <ele>149.2</ele>
        <time>2024-03-14T17:14:22Z</time>
      </trkpt>
      <trkpt lat="48.62677" lon="1.9707">
        <ele>149.2</ele>
        <time>2024-03-14T17:14:23Z</time>
      </trkpt>
      <trkpt lat="48.62676" lon="1.97077">
        <ele>149.8</ele>
        <time>2024-03-14T17:14:24Z</time>
      </trkpt>
      <trkpt lat="48.62675" lon="1.97085">
        <ele>149.8</ele>
        <time>2024-03-14T17:14:25Z</time>
      </trkpt>
      <trkpt lat="48.62674" lon="1.97091">
        <ele>149.8</ele>
        <time>2024-03-14T17:14:26Z</time>
      </trkpt>
      <trkpt lat="48.62673" lon="1.97099">
        <ele>149.8</ele>
        <time>2024-03-14T17:14:27Z</time>
      </trkpt>
      <trkpt lat="48.62673" lon="1.97106">
        <ele>150.8</ele>
        <time>2024-03-14T17:14:28Z</time>
      </trkpt>
      <trkpt lat="48.62672" lon="1.97114">
        <ele>151.2</ele>
        <time>2024-03-14T17:14:29Z</time>
      </trkpt>
      <trkpt lat="48.62671" lon="1.97121">
        <ele>151.2</ele>
        <time>2024-03-14T17:14:30Z</time>
      </trkpt>
      <trkpt lat="48.6267" lon="1.97127">
        <ele>151.2</ele>
        <time>2024-03-14T17:14:31Z</time>
      </trkpt>
      <trkpt lat="48.62669" lon="1.97134">
        <ele>151.4</ele>
        <time>2024-03-14T17:14:32Z</time>
      </trkpt>
      <trkpt lat="48.62668" lon="1.97141">
        <ele>151.8</ele>
        <time>2024-03-14T17:14:33Z</time>
      </trkpt>
      <trkpt lat="48.62667" lon="1.97148">
        <ele>151.8</ele>
        <time>2024-03-14T17:14:34Z</time>
      </trkpt>
      <trkpt lat="48.62666" lon="1.97156">
        <ele>151.8</ele>
        <time>2024-03-14T17:14:35Z</time>
      </trkpt>
      <trkpt lat="48.62665" lon="1.97163">
        <ele>151.8</ele>
        <time>2024-03-14T17:14:36Z</time>
      </trkpt>
      <trkpt lat="48.62665" lon="1.97171">
        <ele>152</ele>
        <time>2024-03-14T17:14:37Z</time>
      </trkpt>
      <trkpt lat="48.62664" lon="1.97179">
        <ele>152</ele>
        <time>2024-03-14T17:14:38Z</time>
      </trkpt>
      <trkpt lat="48.62663" lon="1.97187">
        <ele>152</ele>
        <time>2024-03-14T17:14:39Z</time>
      </trkpt>
      <trkpt lat="48.62662" lon="1.97196">
        <ele>151</ele>
        <time>2024-03-14T17:14:40Z</time>
      </trkpt>
      <trkpt lat="48.62661" lon="1.97205">
        <ele>150.2</ele>
        <time>2024-03-14T17:14:41Z</time>
      </trkpt>
      <trkpt lat="48.62661" lon="1.97215">
        <ele>150.2</ele>
        <time>2024-03-14T17:14:42Z</time>
      </trkpt>
      <trkpt lat="48.6266" lon="1.97225">
        <ele>150.2</ele>
        <time>2024-03-14T17:14:43Z</time>
      </trkpt>
      <trkpt lat="48.62659" lon="1.97236">
        <ele>149.2</ele>
        <time>2024-03-14T17:14:44Z</time>
      </trkpt>
      <trkpt lat="48.62658" lon="1.97246">
        <ele>148.8</ele>
        <time>2024-03-14T17:14:45Z</time>
      </trkpt>
      <trkpt lat="48.62656" lon="1.97257">
        <ele>148.8</ele>
        <time>2024-03-14T17:14:46Z</time>
      </trkpt>
      <trkpt lat="48.62655" lon="1.97268">
        <ele>148.8</ele>
        <time>2024-03-14T17:14:47Z</time>
      </trkpt>
      <trkpt lat="48.62654" lon="1.9728">
        <ele>147.8</ele>
        <time>2024-03-14T17:14:48Z</time>
      </trkpt>
      <trkpt lat="48.62653" lon="1.97292">
        <ele>146.8</ele>
        <time>2024-03-14T17:14:49Z</time>
      </trkpt>
      <trkpt lat="48.62652" lon="1.97304">
        <ele>146.8</ele>
        <time>2024-03-14T17:14:50Z</time>
      </trkpt>
      <trkpt lat="48.62652" lon="1.97317">
        <ele>146.8</ele>
        <time>2024-03-14T17:14:51Z</time>
      </trkpt>
      <trkpt lat="48.62652" lon="1.97331">
        <ele>145.8</ele>
        <time>2024-03-14T17:14:52Z</time>
      </trkpt>
      <trkpt lat="48.62651" lon="1.97345">
        <ele>143.8</ele>
        <time>2024-03-14T17:14:53Z</time>
      </trkpt>
      <trkpt lat="48.62651" lon="1.9736">
        <ele>143.8</ele>
        <time>2024-03-14T17:14:54Z</time>
      </trkpt>
      <trkpt lat="48.62651" lon="1.97376">
        <ele>143.8</ele>
        <time>2024-03-14T17:14:55Z</time>
      </trkpt>
      <trkpt lat="48.6265" lon="1.97391">
        <ele>142.8</ele>
        <time>2024-03-14T17:14:56Z</time>
      </trkpt>
      <trkpt lat="48.6265" lon="1.97407">
        <ele>141.4</ele>
        <time>2024-03-14T17:14:57Z</time>
      </trkpt>
      <trkpt lat="48.62649" lon="1.97422">
        <ele>141.4</ele>
        <time>2024-03-14T17:14:58Z</time>
      </trkpt>
      <trkpt lat="48.62649" lon="1.97438">
        <ele>141.4</ele>
        <time>2024-03-14T17:14:59Z</time>
      </trkpt>
      <trkpt lat="48.62648" lon="1.97454">
        <ele>140.4</ele>
        <time>2024-03-14T17:15:00Z</time>
      </trkpt>
      <trkpt lat="48.62647" lon="1.9747">
        <ele>138.4</ele>
        <time>2024-03-14T17:15:01Z</time>
      </trkpt>
      <trkpt lat="48.62647" lon="1.97486">
        <ele>138.4</ele>
        <time>2024-03-14T17:15:02Z</time>
      </trkpt>
      <trkpt lat="48.62646" lon="1.97502">
        <ele>138.4</ele>
        <time>2024-03-14T17:15:03Z</time>
      </trkpt>
      <trkpt lat="48.62645" lon="1.97518">
        <ele>137.4</ele>
        <time>2024-03-14T17:15:04Z</time>
      </trkpt>
      <trkpt lat="48.62645" lon="1.97534">
        <ele>137.4</ele>
        <time>2024-03-14T17:15:05Z</time>
      </trkpt>
      <trkpt lat="48.62644" lon="1.9755">
        <ele>137.4</ele>
        <time>2024-03-14T17:15:06Z</time>
      </trkpt>
      <trkpt lat="48.62643" lon="1.97565">
        <ele>137.4</ele>
        <time>2024-03-14T17:15:07Z</time>
      </trkpt>
      <trkpt lat="48.62643" lon="1.97581">
        <ele>136.4</ele>
        <time>2024-03-14T17:15:08Z</time>
      </trkpt>
      <trkpt lat="48.62642" lon="1.97596">
        <ele>135.2</ele>
        <time>2024-03-14T17:15:09Z</time>
      </trkpt>
      <trkpt lat="48.62641" lon="1.97611">
        <ele>135.2</ele>
        <time>2024-03-14T17:15:10Z</time>
      </trkpt>
      <trkpt lat="48.62641" lon="1.97626">
        <ele>135.2</ele>
        <time>2024-03-14T17:15:11Z</time>
      </trkpt>
      <trkpt lat="48.6264" lon="1.97641">
        <ele>135.2</ele>
        <time>2024-03-14T17:15:12Z</time>
      </trkpt>
      <trkpt lat="48.62639" lon="1.97655">
        <ele>135.2</ele>
        <time>2024-03-14T17:15:13Z</time>
      </trkpt>
      <trkpt lat="48.62639" lon="1.9767">
        <ele>135.2</ele>
        <time>2024-03-14T17:15:14Z</time>
      </trkpt>
      <trkpt lat="48.62638" lon="1.97684">
        <ele>135.2</ele>
        <time>2024-03-14T17:15:15Z</time>
      </trkpt>
      <trkpt lat="48.62638" lon="1.97698">
        <ele>134.8</ele>
        <time>2024-03-14T17:15:16Z</time>
      </trkpt>
      <trkpt lat="48.62637" lon="1.97712">
        <ele>134.2</ele>
        <time>2024-03-14T17:15:17Z</time>
      </trkpt>
      <trkpt lat="48.62636" lon="1.97726">
        <ele>134.2</ele>
        <time>2024-03-14T17:15:18Z</time>
      </trkpt>
      <trkpt lat="48.62636" lon="1.9774">
        <ele>134.2</ele>
        <time>2024-03-14T17:15:19Z</time>
      </trkpt>
      <trkpt lat="48.62635" lon="1.97754">
        <ele>133.2</ele>
        <time>2024-03-14T17:15:20Z</time>
      </trkpt>
      <trkpt lat="48.62634" lon="1.97768">
        <ele>133.4</ele>
        <time>2024-03-14T17:15:21Z</time>
      </trkpt>
      <trkpt lat="48.62634" lon="1.97782">
        <ele>133.4</ele>
        <time>2024-03-14T17:15:22Z</time>
      </trkpt>
      <trkpt lat="48.62633" lon="1.97797">
        <ele>133.4</ele>
        <time>2024-03-14T17:15:23Z</time>
      </trkpt>
      <trkpt lat="48.62633" lon="1.97811">
        <ele>133.2</ele>
        <time>2024-03-14T17:15:24Z</time>
      </trkpt>
      <trkpt lat="48.62632" lon="1.97825">
        <ele>132.2</ele>
        <time>2024-03-14T17:15:25Z</time>
      </trkpt>
      <trkpt lat="48.62631" lon="1.97839">
        <ele>132.2</ele>
        <time>2024-03-14T17:15:26Z</time>
      </trkpt>
      <trkpt lat="48.62631" lon="1.97853">
        <ele>132.2</ele>
        <time>2024-03-14T17:15:27Z</time>
      </trkpt>
      <trkpt lat="48.6263" lon="1.97867">
        <ele>132.4</ele>
        <time>2024-03-14T17:15:28Z</time>
      </trkpt>
      <trkpt lat="48.62629" lon="1.97881">
        <ele>132.2</ele>
        <time>2024-03-14T17:15:29Z</time>
      </trkpt>
      <trkpt lat="48.62628" lon="1.97895">
        <ele>132.2</ele>
        <time>2024-03-14T17:15:30Z</time>
      </trkpt>
      <trkpt lat="48.62627" lon="1.9791">
        <ele>132.2</ele>
        <time>2024-03-14T17:15:31Z</time>
      </trkpt>
      <trkpt lat="48.62626" lon="1.97924">
        <ele>131.2</ele>
        <time>2024-03-14T17:15:32Z</time>
      </trkpt>
      <trkpt lat="48.62624" lon="1.97938">
        <ele>130.6</ele>
        <time>2024-03-14T17:15:33Z</time>
      </trkpt>
      <trkpt lat="48.62622" lon="1.97952">
        <ele>130.6</ele>
        <time>2024-03-14T17:15:34Z</time>
      </trkpt>
      <trkpt lat="48.6262" lon="1.97966">
        <ele>130.6</ele>
        <time>2024-03-14T17:15:35Z</time>
      </trkpt>
      <trkpt lat="48.62617" lon="1.9798">
        <ele>129.6</ele>
        <time>2024-03-14T17:15:36Z</time>
      </trkpt>
      <trkpt lat="48.62613" lon="1.97993">
        <ele>129.4</ele>
        <time>2024-03-14T17:15:37Z</time>
      </trkpt>
      <trkpt lat="48.6261" lon="1.98006">
        <ele>129.4</ele>
        <time>2024-03-14T17:15:38Z</time>
      </trkpt>
      <trkpt lat="48.62606" lon="1.98019">
        <ele>129.4</ele>
        <time>2024-03-14T17:15:39Z</time>
      </trkpt>
      <trkpt lat="48.62602" lon="1.98033">
        <ele>128.4</ele>
        <time>2024-03-14T17:15:40Z</time>
      </trkpt>
      <trkpt lat="48.62598" lon="1.98046">
        <ele>127.2</ele>
        <time>2024-03-14T17:15:41Z</time>
      </trkpt>
      <trkpt lat="48.62594" lon="1.98059">
        <ele>127.2</ele>
        <time>2024-03-14T17:15:42Z</time>
      </trkpt>
      <trkpt lat="48.62591" lon="1.98073">
        <ele>127.2</ele>
        <time>2024-03-14T17:15:43Z</time>
      </trkpt>
      <trkpt lat="48.62587" lon="1.98086">
        <ele>126.2</ele>
        <time>2024-03-14T17:15:44Z</time>
      </trkpt>
      <trkpt lat="48.62583" lon="1.981">
        <ele>125.4</ele>
        <time>2024-03-14T17:15:45Z</time>
      </trkpt>
      <trkpt lat="48.62579" lon="1.98114">
        <ele>125.4</ele>
        <time>2024-03-14T17:15:46Z</time>
      </trkpt>
      <trkpt lat="48.62575" lon="1.98127">
        <ele>125.4</ele>
        <time>2024-03-14T17:15:47Z</time>
      </trkpt>
      <trkpt lat="48.62571" lon="1.98141">
        <ele>125.4</ele>
        <time>2024-03-14T17:15:48Z</time>
      </trkpt>
      <trkpt lat="48.62567" lon="1.98155">
        <ele>124.8</ele>
        <time>2024-03-14T17:15:49Z</time>
      </trkpt>
      <trkpt lat="48.62562" lon="1.9817">
        <ele>124.8</ele>
        <time>2024-03-14T17:15:50Z</time>
      </trkpt>
      <trkpt lat="48.62559" lon="1.98184">
        <ele>124.8</ele>
        <time>2024-03-14T17:15:51Z</time>
      </trkpt>
      <trkpt lat="48.62555" lon="1.98198">
        <ele>123.8</ele>
        <time>2024-03-14T17:15:52Z</time>
      </trkpt>
      <trkpt lat="48.6255" lon="1.98212">
        <ele>123.4</ele>
        <time>2024-03-14T17:15:53Z</time>
      </trkpt>
      <trkpt lat="48.62546" lon="1.98226">
        <ele>123.4</ele>
        <time>2024-03-14T17:15:54Z</time>
      </trkpt>
      <trkpt lat="48.62542" lon="1.9824">
        <ele>123.4</ele>
        <time>2024-03-14T17:15:55Z</time>
      </trkpt>
      <trkpt lat="48.62539" lon="1.98254">
        <ele>123</ele>
        <time>2024-03-14T17:15:56Z</time>
      </trkpt>
      <trkpt lat="48.62535" lon="1.98267">
        <ele>122.6</ele>
        <time>2024-03-14T17:15:57Z</time>
      </trkpt>
      <trkpt lat="48.62531" lon="1.98281">
        <ele>122.6</ele>
        <time>2024-03-14T17:15:58Z</time>
      </trkpt>
      <trkpt lat="48.62527" lon="1.98294">
        <ele>122.6</ele>
        <time>2024-03-14T17:15:59Z</time>
      </trkpt>
      <trkpt lat="48.62523" lon="1.98307">
        <ele>122.2</ele>
        <time>2024-03-14T17:16:00Z</time>
      </trkpt>
      <trkpt lat="48.62519" lon="1.98321">
        <ele>122</ele>
        <time>2024-03-14T17:16:01Z</time>
      </trkpt>
      <trkpt lat="48.62515" lon="1.98334">
        <ele>122</ele>
        <time>2024-03-14T17:16:02Z</time>
      </trkpt>
      <trkpt lat="48.62512" lon="1.98347">
        <ele>122</ele>
        <time>2024-03-14T17:16:03Z</time>
      </trkpt>
      <trkpt lat="48.62508" lon="1.9836">
        <ele>121.6</ele>
        <time>2024-03-14T17:16:04Z</time>
      </trkpt>
      <trkpt lat="48.62504" lon="1.98374">
        <ele>120.8</ele>
        <time>2024-03-14T17:16:05Z</time>
      </trkpt>
      <trkpt lat="48.625" lon="1.98387">
        <ele>120.8</ele>
        <time>2024-03-14T17:16:06Z</time>
      </trkpt>
      <trkpt lat="48.62497" lon="1.984">
        <ele>120.8</ele>
        <time>2024-03-14T17:16:07Z</time>
      </trkpt>
      <trkpt lat="48.62493" lon="1.98413">
        <ele>120</ele>
        <time>2024-03-14T17:16:08Z</time>
      </trkpt>
      <trkpt lat="48.62489" lon="1.98426">
        <ele>120</ele>
        <time>2024-03-14T17:16:09Z</time>
      </trkpt>
      <trkpt lat="48.62485" lon="1.98439">
        <ele>120</ele>
        <time>2024-03-14T17:16:10Z</time>
      </trkpt>
      <trkpt lat="48.62481" lon="1.98452">
        <ele>120</ele>
        <time>2024-03-14T17:16:11Z</time>
      </trkpt>
      <trkpt lat="48.62477" lon="1.98465">
        <ele>119.8</ele>
        <time>2024-03-14T17:16:12Z</time>
      </trkpt>
      <trkpt lat="48.62474" lon="1.98478">
        <ele>119.4</ele>
        <time>2024-03-14T17:16:13Z</time>
      </trkpt>
      <trkpt lat="48.6247" lon="1.98491">
        <ele>119.4</ele>
        <time>2024-03-14T17:16:14Z</time>
      </trkpt>
      <trkpt lat="48.62466" lon="1.98504">
        <ele>119.4</ele>
        <time>2024-03-14T17:16:15Z</time>
      </trkpt>
      <trkpt lat="48.62462" lon="1.98517">
        <ele>119.4</ele>
        <time>2024-03-14T17:16:16Z</time>
      </trkpt>
      <trkpt lat="48.62459" lon="1.9853">
        <ele>118.6</ele>
        <time>2024-03-14T17:16:17Z</time>
      </trkpt>
      <trkpt lat="48.62455" lon="1.98543">
        <ele>118.6</ele>
        <time>2024-03-14T17:16:18Z</time>
      </trkpt>
      <trkpt lat="48.62451" lon="1.98556">
        <ele>118.6</ele>
        <time>2024-03-14T17:16:19Z</time>
      </trkpt>
      <trkpt lat="48.62447" lon="1.98569">
        <ele>117.6</ele>
        <time>2024-03-14T17:16:20Z</time>
      </trkpt>
      <trkpt lat="48.62444" lon="1.98582">
        <ele>117</ele>
        <time>2024-03-14T17:16:21Z</time>
      </trkpt>
      <trkpt lat="48.6244" lon="1.98596">
        <ele>117</ele>
        <time>2024-03-14T17:16:22Z</time>
      </trkpt>
      <trkpt lat="48.62436" lon="1.98609">
        <ele>117</ele>
        <time>2024-03-14T17:16:23Z</time>
      </trkpt>
      <trkpt lat="48.62432" lon="1.98622">
        <ele>117</ele>
        <time>2024-03-14T17:16:24Z</time>
      </trkpt>
      <trkpt lat="48.62428" lon="1.98636">
        <ele>115.6</ele>
        <time>2024-03-14T17:16:25Z</time>
      </trkpt>
      <trkpt lat="48.62424" lon="1.98649">
        <ele>115.6</ele>
        <time>2024-03-14T17:16:26Z</time>
      </trkpt>
      <trkpt lat="48.62421" lon="1.98662">
        <ele>115.6</ele>
        <time>2024-03-14T17:16:27Z</time>
      </trkpt>
      <trkpt lat="48.62417" lon="1.98676">
        <ele>114.6</ele>
        <time>2024-03-14T17:16:28Z</time>
      </trkpt>
      <trkpt lat="48.62413" lon="1.98689">
        <ele>115</ele>
        <time>2024-03-14T17:16:29Z</time>
      </trkpt>
      <trkpt lat="48.62409" lon="1.98703">
        <ele>115</ele>
        <time>2024-03-14T17:16:30Z</time>
      </trkpt>
      <trkpt lat="48.62405" lon="1.98717">
        <ele>115</ele>
        <time>2024-03-14T17:16:31Z</time>
      </trkpt>
      <trkpt lat="48.62401" lon="1.9873">
        <ele>114</ele>
        <time>2024-03-14T17:16:32Z</time>
      </trkpt>
      <trkpt lat="48.62396" lon="1.98743">
        <ele>114.2</ele>
        <time>2024-03-14T17:16:33Z</time>
      </trkpt>
      <trkpt lat="48.62391" lon="1.98755">
        <ele>114.2</ele>
        <time>2024-03-14T17:16:34Z</time>
      </trkpt>
      <trkpt lat="48.62385" lon="1.98767">
        <ele>114.2</ele>
        <time>2024-03-14T17:16:35Z</time>
      </trkpt>
      <trkpt lat="48.62379" lon="1.98779">
        <ele>113.2</ele>
        <time>2024-03-14T17:16:36Z</time>
      </trkpt>
      <trkpt lat="48.62373" lon="1.98791">
        <ele>112.8</ele>
        <time>2024-03-14T17:16:37Z</time>
      </trkpt>
      <trkpt lat="48.62367" lon="1.98802">
        <ele>112.8</ele>
        <time>2024-03-14T17:16:38Z</time>
      </trkpt>
      <trkpt lat="48.62361" lon="1.98814">
        <ele>112.8</ele>
        <time>2024-03-14T17:16:39Z</time>
      </trkpt>
      <trkpt lat="48.62356" lon="1.98826">
        <ele>112.8</ele>
        <time>2024-03-14T17:16:40Z</time>
      </trkpt>
      <trkpt lat="48.62351" lon="1.98838">
        <ele>112.8</ele>
        <time>2024-03-14T17:16:41Z</time>
      </trkpt>
      <trkpt lat="48.62346" lon="1.9885">
        <ele>112.8</ele>
        <time>2024-03-14T17:16:42Z</time>
      </trkpt>
      <trkpt lat="48.62342" lon="1.98863">
        <ele>112.8</ele>
        <time>2024-03-14T17:16:43Z</time>
      </trkpt>
      <trkpt lat="48.62338" lon="1.98876">
        <ele>112.4</ele>
        <time>2024-03-14T17:16:44Z</time>
      </trkpt>
      <trkpt lat="48.62334" lon="1.98889">
        <ele>112.8</ele>
        <time>2024-03-14T17:16:45Z</time>
      </trkpt>
      <trkpt lat="48.62332" lon="1.98902">
        <ele>112.8</ele>
        <time>2024-03-14T17:16:46Z</time>
      </trkpt>
      <trkpt lat="48.62331" lon="1.98916">
        <ele>112.8</ele>
        <time>2024-03-14T17:16:47Z</time>
      </trkpt>
      <trkpt lat="48.62331" lon="1.9893">
        <ele>112.8</ele>
        <time>2024-03-14T17:16:48Z</time>
      </trkpt>
      <trkpt lat="48.62332" lon="1.98943">
        <ele>111.8</ele>
        <time>2024-03-14T17:16:49Z</time>
      </trkpt>
      <trkpt lat="48.62335" lon="1.98956">
        <ele>111.8</ele>
        <time>2024-03-14T17:16:50Z</time>
      </trkpt>
      <trkpt lat="48.62337" lon="1.98968">
        <ele>111.8</ele>
        <time>2024-03-14T17:16:51Z</time>
      </trkpt>
      <trkpt lat="48.6234" lon="1.9898">
        <ele>112.4</ele>
        <time>2024-03-14T17:16:52Z</time>
      </trkpt>
      <trkpt lat="48.62341" lon="1.98993">
        <ele>112.2</ele>
        <time>2024-03-14T17:16:53Z</time>
      </trkpt>
      <trkpt lat="48.6234" lon="1.99005">
        <ele>112.2</ele>
        <time>2024-03-14T17:16:54Z</time>
      </trkpt>
      <trkpt lat="48.62338" lon="1.99017">
        <ele>112.2</ele>
        <time>2024-03-14T17:16:55Z</time>
      </trkpt>
      <trkpt lat="48.62334" lon="1.99028">
        <ele>111.2</ele>
        <time>2024-03-14T17:16:56Z</time>
      </trkpt>
      <trkpt lat="48.62329" lon="1.99038">
        <ele>111</ele>
        <time>2024-03-14T17:16:57Z</time>
      </trkpt>
      <trkpt lat="48.62324" lon="1.99047">
        <ele>111</ele>
        <time>2024-03-14T17:16:58Z</time>
      </trkpt>
      <trkpt lat="48.62318" lon="1.99056">
        <ele>111</ele>
        <time>2024-03-14T17:16:59Z</time>
      </trkpt>
      <trkpt lat="48.62312" lon="1.99064">
        <ele>111</ele>
        <time>2024-03-14T17:17:00Z</time>
      </trkpt>
      <trkpt lat="48.62306" lon="1.99073">
        <ele>109.8</ele>
        <time>2024-03-14T17:17:01Z</time>
      </trkpt>
      <trkpt lat="48.623" lon="1.99081">
        <ele>109.8</ele>
        <time>2024-03-14T17:17:02Z</time>
      </trkpt>
      <trkpt lat="48.62294" lon="1.99089">
        <ele>109.8</ele>
        <time>2024-03-14T17:17:03Z</time>
      </trkpt>
      <trkpt lat="48.62287" lon="1.99096">
        <ele>110</ele>
        <time>2024-03-14T17:17:04Z</time>
      </trkpt>
      <trkpt lat="48.62281" lon="1.99103">
        <ele>110.2</ele>
        <time>2024-03-14T17:17:05Z</time>
      </trkpt>
      <trkpt lat="48.62275" lon="1.9911">
        <ele>110.2</ele>
        <time>2024-03-14T17:17:06Z</time>
      </trkpt>
      <trkpt lat="48.62268" lon="1.99117">
        <ele>110.2</ele>
        <time>2024-03-14T17:17:07Z</time>
      </trkpt>
      <trkpt lat="48.62262" lon="1.99123">
        <ele>110.2</ele>
        <time>2024-03-14T17:17:08Z</time>
      </trkpt>
      <trkpt lat="48.62256" lon="1.9913">
        <ele>110.2</ele>
        <time>2024-03-14T17:17:09Z</time>
      </trkpt>
      <trkpt lat="48.6225" lon="1.99137">
        <ele>110.2</ele>
        <time>2024-03-14T17:17:10Z</time>
      </trkpt>
      <trkpt lat="48.62243" lon="1.99144">
        <ele>110.2</ele>
        <time>2024-03-14T17:17:11Z</time>
      </trkpt>
      <trkpt lat="48.62237" lon="1.9915">
        <ele>111</ele>
        <time>2024-03-14T17:17:12Z</time>
      </trkpt>
      <trkpt lat="48.62231" lon="1.99157">
        <ele>110.8</ele>
        <time>2024-03-14T17:17:13Z</time>
      </trkpt>
      <trkpt lat="48.62225" lon="1.99164">
        <ele>110.8</ele>
        <time>2024-03-14T17:17:14Z</time>
      </trkpt>
      <trkpt lat="48.62219" lon="1.9917">
        <ele>110.8</ele>
        <time>2024-03-14T17:17:15Z</time>
      </trkpt>
      <trkpt lat="48.62213" lon="1.99177">
        <ele>110.8</ele>
        <time>2024-03-14T17:17:16Z</time>
      </trkpt>
      <trkpt lat="48.62208" lon="1.99184">
        <ele>111</ele>
        <time>2024-03-14T17:17:17Z</time>
      </trkpt>
      <trkpt lat="48.62202" lon="1.99189">
        <ele>111</ele>
        <time>2024-03-14T17:17:18Z</time>
      </trkpt>
      <trkpt lat="48.62197" lon="1.99194">
        <ele>111</ele>
        <time>2024-03-14T17:17:19Z</time>
      </trkpt>
      <trkpt lat="48.62193" lon="1.992">
        <ele>111</ele>
        <time>2024-03-14T17:17:20Z</time>
      </trkpt>
      <trkpt lat="48.62189" lon="1.99205">
        <ele>112.2</ele>
        <time>2024-03-14T17:17:21Z</time>
      </trkpt>
      <trkpt lat="48.62185" lon="1.99209">
        <ele>112.2</ele>
        <time>2024-03-14T17:17:22Z</time>
      </trkpt>
      <trkpt lat="48.62183" lon="1.99211">
        <ele>112.2</ele>
        <time>2024-03-14T17:17:23Z</time>
      </trkpt>
      <trkpt lat="48.62182" lon="1.99212">
        <ele>113.2</ele>
        <time>2024-03-14T17:17:24Z</time>
      </trkpt>
      <trkpt lat="48.6218" lon="1.99213">
        <ele>113.4</ele>
        <time>2024-03-14T17:17:25Z</time>
      </trkpt>
      <trkpt lat="48.62179" lon="1.99215">
        <ele>113.4</ele>
        <time>2024-03-14T17:17:26Z</time>
      </trkpt>
      <trkpt lat="48.62178" lon="1.99218">
        <ele>113.4</ele>
        <time>2024-03-14T17:17:27Z</time>
      </trkpt>
      <trkpt lat="48.62178" lon="1.99221">
        <ele>113.4</ele>
        <time>2024-03-14T17:17:28Z</time>
      </trkpt>
      <trkpt lat="48.62178" lon="1.99225">
        <ele>113.8</ele>
        <time>2024-03-14T17:17:29Z</time>
      </trkpt>
      <trkpt lat="48.62179" lon="1.9923">
        <ele>113.8</ele>
        <time>2024-03-14T17:17:30Z</time>
      </trkpt>
      <trkpt lat="48.6218" lon="1.99236">
        <ele>113.8</ele>
        <time>2024-03-14T17:17:31Z</time>
      </trkpt>
      <trkpt lat="48.62181" lon="1.99242">
        <ele>113.2</ele>
        <time>2024-03-14T17:17:32Z</time>
      </trkpt>
      <trkpt lat="48.62184" lon="1.99249">
        <ele>112.6</ele>
        <time>2024-03-14T17:17:33Z</time>
      </trkpt>
      <trkpt lat="48.62186" lon="1.99257">
        <ele>112.6</ele>
        <time>2024-03-14T17:17:34Z</time>
      </trkpt>
      <trkpt lat="48.62188" lon="1.99264">
        <ele>112.6</ele>
        <time>2024-03-14T17:17:35Z</time>
      </trkpt>
      <trkpt lat="48.6219" lon="1.99273">
        <ele>112.6</ele>
        <time>2024-03-14T17:17:36Z</time>
      </trkpt>
      <trkpt lat="48.62193" lon="1.99281">
        <ele>111.8</ele>
        <time>2024-03-14T17:17:37Z</time>
      </trkpt>
      <trkpt lat="48.62195" lon="1.99289">
        <ele>111.8</ele>
        <time>2024-03-14T17:17:38Z</time>
      </trkpt>
      <trkpt lat="48.62197" lon="1.99298">
        <ele>111.8</ele>
        <time>2024-03-14T17:17:39Z</time>
      </trkpt>
      <trkpt lat="48.62199" lon="1.99307">
        <ele>112.4</ele>
        <time>2024-03-14T17:17:40Z</time>
      </trkpt>
      <trkpt lat="48.622" lon="1.99316">
        <ele>112.6</ele>
        <time>2024-03-14T17:17:41Z</time>
      </trkpt>
      <trkpt lat="48.62202" lon="1.99325">
        <ele>112.6</ele>
        <time>2024-03-14T17:17:42Z</time>
      </trkpt>
      <trkpt lat="48.62203" lon="1.99334">
        <ele>112.6</ele>
        <time>2024-03-14T17:17:43Z</time>
      </trkpt>
      <trkpt lat="48.62204" lon="1.99344">
        <ele>112.4</ele>
        <time>2024-03-14T17:17:44Z</time>
      </trkpt>
      <trkpt lat="48.62205" lon="1.99353">
        <ele>112.4</ele>
        <time>2024-03-14T17:17:45Z</time>
      </trkpt>
      <trkpt lat="48.62205" lon="1.99362">
        <ele>112.4</ele>
        <time>2024-03-14T17:17:46Z</time>
      </trkpt>
      <trkpt lat="48.62206" lon="1.99372">
        <ele>112.4</ele>
        <time>2024-03-14T17:17:47Z</time>
      </trkpt>
      <trkpt lat="48.62206" lon="1.99381">
        <ele>112.4</ele>
        <time>2024-03-14T17:17:48Z</time>
      </trkpt>
      <trkpt lat="48.62207" lon="1.9939">
        <ele>113.2</ele>
        <time>2024-03-14T17:17:49Z</time>
      </trkpt>
      <trkpt lat="48.62207" lon="1.99399">
        <ele>113.2</ele>
        <time>2024-03-14T17:17:50Z</time>
      </trkpt>
      <trkpt lat="48.62208" lon="1.99408">
        <ele>113.2</ele>
        <time>2024-03-14T17:17:51Z</time>
      </trkpt>
      <trkpt lat="48.62208" lon="1.99417">
        <ele>113.2</ele>
        <time>2024-03-14T17:17:52Z</time>
      </trkpt>
      <trkpt lat="48.62208" lon="1.99425">
        <ele>113.6</ele>
        <time>2024-03-14T17:17:53Z</time>
      </trkpt>
      <trkpt lat="48.62209" lon="1.99434">
        <ele>113.6</ele>
        <time>2024-03-14T17:17:54Z</time>
      </trkpt>
      <trkpt lat="48.62208" lon="1.99443">
        <ele>113.6</ele>
        <time>2024-03-14T17:17:55Z</time>
      </trkpt>
      <trkpt lat="48.62208" lon="1.99451">
        <ele>114</ele>
        <time>2024-03-14T17:17:56Z</time>
      </trkpt>
      <trkpt lat="48.62208" lon="1.9946">
        <ele>114.2</ele>
        <time>2024-03-14T17:17:57Z</time>
      </trkpt>
      <trkpt lat="48.62208" lon="1.99468">
        <ele>114.2</ele>
        <time>2024-03-14T17:17:58Z</time>
      </trkpt>
      <trkpt lat="48.62208" lon="1.99476">
        <ele>114.2</ele>
        <time>2024-03-14T17:17:59Z</time>
      </trkpt>
      <trkpt lat="48.62209" lon="1.99484">
        <ele>115</ele>
        <time>2024-03-14T17:18:00Z</time>
      </trkpt>
      <trkpt lat="48.62208" lon="1.99491">
        <ele>115.4</ele>
        <time>2024-03-14T17:18:01Z</time>
      </trkpt>
      <trkpt lat="48.62209" lon="1.99498">
        <ele>115.4</ele>
        <time>2024-03-14T17:18:02Z</time>
      </trkpt>
      <trkpt lat="48.62209" lon="1.99505">
        <ele>115.4</ele>
        <time>2024-03-14T17:18:03Z</time>
      </trkpt>
      <trkpt lat="48.62209" lon="1.99513">
        <ele>116</ele>
        <time>2024-03-14T17:18:04Z</time>
      </trkpt>
      <trkpt lat="48.6221" lon="1.99519">
        <ele>116.4</ele>
        <time>2024-03-14T17:18:05Z</time>
      </trkpt>
      <trkpt lat="48.6221" lon="1.99526">
        <ele>116.4</ele>
        <time>2024-03-14T17:18:06Z</time>
      </trkpt>
      <trkpt lat="48.6221" lon="1.99533">
        <ele>116.4</ele>
        <time>2024-03-14T17:18:07Z</time>
      </trkpt>
      <trkpt lat="48.6221" lon="1.99539">
        <ele>117.2</ele>
        <time>2024-03-14T17:18:08Z</time>
      </trkpt>
      <trkpt lat="48.6221" lon="1.99546">
        <ele>117</ele>
        <time>2024-03-14T17:18:09Z</time>
      </trkpt>
      <trkpt lat="48.6221" lon="1.99553">
        <ele>117</ele>
        <time>2024-03-14T17:18:10Z</time>
      </trkpt>
      <trkpt lat="48.6221" lon="1.99559">
        <ele>117</ele>
        <time>2024-03-14T17:18:11Z</time>
      </trkpt>
      <trkpt lat="48.6221" lon="1.99566">
        <ele>117.8</ele>
        <time>2024-03-14T17:18:12Z</time>
      </trkpt>
      <trkpt lat="48.62209" lon="1.99572">
        <ele>118.2</ele>
        <time>2024-03-14T17:18:13Z</time>
      </trkpt>
      <trkpt lat="48.62209" lon="1.99578">
        <ele>118.2</ele>
        <time>2024-03-14T17:18:14Z</time>
      </trkpt>
      <trkpt lat="48.62208" lon="1.99584">
        <ele>118.2</ele>
        <time>2024-03-14T17:18:15Z</time>
      </trkpt>
      <trkpt lat="48.62208" lon="1.9959">
        <ele>119.2</ele>
        <time>2024-03-14T17:18:16Z</time>
      </trkpt>
      <trkpt lat="48.62208" lon="1.99596">
        <ele>119.2</ele>
        <time>2024-03-14T17:18:17Z</time>
      </trkpt>
      <trkpt lat="48.62207" lon="1.99602">
        <ele>119.2</ele>
        <time>2024-03-14T17:18:18Z</time>
      </trkpt>
      <trkpt lat="48.62207" lon="1.99609">
        <ele>119.2</ele>
        <time>2024-03-14T17:18:19Z</time>
      </trkpt>
      <trkpt lat="48.62206" lon="1.99615">
        <ele>119.4</ele>
        <time>2024-03-14T17:18:20Z</time>
      </trkpt>
      <trkpt lat="48.62205" lon="1.99622">
        <ele>119.8</ele>
        <time>2024-03-14T17:18:21Z</time>
      </trkpt>
      <trkpt lat="48.62205" lon="1.99629">
        <ele>119.8</ele>
        <time>2024-03-14T17:18:22Z</time>
      </trkpt>
      <trkpt lat="48.62204" lon="1.99635">
        <ele>119.8</ele>
        <time>2024-03-14T17:18:23Z</time>
      </trkpt>
      <trkpt lat="48.62204" lon="1.99642">
        <ele>119.8</ele>
        <time>2024-03-14T17:18:24Z</time>
      </trkpt>
      <trkpt lat="48.62203" lon="1.99648">
        <ele>121.2</ele>
        <time>2024-03-14T17:18:25Z</time>
      </trkpt>
      <trkpt lat="48.62203" lon="1.99655">
        <ele>121.2</ele>
        <time>2024-03-14T17:18:26Z</time>
      </trkpt>
      <trkpt lat="48.62202" lon="1.99661">
        <ele>121.2</ele>
        <time>2024-03-14T17:18:27Z</time>
      </trkpt>
      <trkpt lat="48.62201" lon="1.99667">
        <ele>121.2</ele>
        <time>2024-03-14T17:18:28Z</time>
      </trkpt>
      <trkpt lat="48.622" lon="1.99674">
        <ele>121.4</ele>
        <time>2024-03-14T17:18:29Z</time>
      </trkpt>
      <trkpt lat="48.622" lon="1.99681">
        <ele>121.4</ele>
        <time>2024-03-14T17:18:30Z</time>
      </trkpt>
      <trkpt lat="48.622" lon="1.99687">
        <ele>121.4</ele>
        <time>2024-03-14T17:18:31Z</time>
      </trkpt>
      <trkpt lat="48.622" lon="1.99693">
        <ele>121.6</ele>
        <time>2024-03-14T17:18:32Z</time>
      </trkpt>
      <trkpt lat="48.622" lon="1.997">
        <ele>121.6</ele>
        <time>2024-03-14T17:18:33Z</time>
      </trkpt>
      <trkpt lat="48.622" lon="1.99707">
        <ele>121.6</ele>
        <time>2024-03-14T17:18:34Z</time>
      </trkpt>
      <trkpt lat="48.622" lon="1.99713">
        <ele>121.6</ele>
        <time>2024-03-14T17:18:35Z</time>
      </trkpt>
      <trkpt lat="48.622" lon="1.9972">
        <ele>122.2</ele>
        <time>2024-03-14T17:18:36Z</time>
      </trkpt>
      <trkpt lat="48.622" lon="1.99727">
        <ele>122.6</ele>
        <time>2024-03-14T17:18:37Z</time>
      </trkpt>
      <trkpt lat="48.622" lon="1.99734">
        <ele>122.6</ele>
        <time>2024-03-14T17:18:38Z</time>
      </trkpt>
      <trkpt lat="48.62199" lon="1.9974">
        <ele>122.6</ele>
        <time>2024-03-14T17:18:39Z</time>
      </trkpt>
      <trkpt lat="48.62197" lon="1.99747">
        <ele>122.6</ele>
        <time>2024-03-14T17:18:40Z</time>
      </trkpt>
      <trkpt lat="48.62194" lon="1.99752">
        <ele>122.4</ele>
        <time>2024-03-14T17:18:41Z</time>
      </trkpt>
      <trkpt lat="48.62191" lon="1.99758">
        <ele>122.4</ele>
        <time>2024-03-14T17:18:42Z</time>
      </trkpt>
      <trkpt lat="48.62188" lon="1.99763">
        <ele>122.4</ele>
        <time>2024-03-14T17:18:43Z</time>
      </trkpt>
      <trkpt lat="48.62185" lon="1.99769">
        <ele>122.4</ele>
        <time>2024-03-14T17:18:44Z</time>
      </trkpt>
      <trkpt lat="48.62182" lon="1.99774">
        <ele>122</ele>
        <time>2024-03-14T17:18:45Z</time>
      </trkpt>
      <trkpt lat="48.62178" lon="1.99779">
        <ele>122</ele>
        <time>2024-03-14T17:18:46Z</time>
      </trkpt>
      <trkpt lat="48.62174" lon="1.99785">
        <ele>122</ele>
        <time>2024-03-14T17:18:47Z</time>
      </trkpt>
      <trkpt lat="48.6217" lon="1.9979">
        <ele>121</ele>
        <time>2024-03-14T17:18:48Z</time>
      </trkpt>
      <trkpt lat="48.62166" lon="1.99794">
        <ele>120.4</ele>
        <time>2024-03-14T17:18:49Z</time>
      </trkpt>
      <trkpt lat="48.62162" lon="1.998">
        <ele>120.4</ele>
        <time>2024-03-14T17:18:50Z</time>
      </trkpt>
      <trkpt lat="48.62158" lon="1.99805">
        <ele>120.4</ele>
        <time>2024-03-14T17:18:51Z</time>
      </trkpt>
      <trkpt lat="48.62153" lon="1.9981">
        <ele>120.4</ele>
        <time>2024-03-14T17:18:52Z</time>
      </trkpt>
      <trkpt lat="48.62148" lon="1.99815">
        <ele>119.8</ele>
        <time>2024-03-14T17:18:53Z</time>
      </trkpt>
      <trkpt lat="48.62143" lon="1.99819">
        <ele>119.8</ele>
        <time>2024-03-14T17:18:54Z</time>
      </trkpt>
      <trkpt lat="48.62137" lon="1.99823">
        <ele>119.8</ele>
        <time>2024-03-14T17:18:55Z</time>
      </trkpt>
      <trkpt lat="48.62131" lon="1.99828">
        <ele>119</ele>
        <time>2024-03-14T17:18:56Z</time>
      </trkpt>
      <trkpt lat="48.62126" lon="1.99833">
        <ele>118.8</ele>
        <time>2024-03-14T17:18:57Z</time>
      </trkpt>
      <trkpt lat="48.6212" lon="1.99838">
        <ele>118.8</ele>
        <time>2024-03-14T17:18:58Z</time>
      </trkpt>
      <trkpt lat="48.62114" lon="1.99843">
        <ele>118.8</ele>
        <time>2024-03-14T17:18:59Z</time>
      </trkpt>
      <trkpt lat="48.62108" lon="1.99848">
        <ele>118.6</ele>
        <time>2024-03-14T17:19:00Z</time>
      </trkpt>
      <trkpt lat="48.62102" lon="1.99853">
        <ele>118.4</ele>
        <time>2024-03-14T17:19:01Z</time>
      </trkpt>
      <trkpt lat="48.62096" lon="1.99857">
        <ele>118.4</ele>
        <time>2024-03-14T17:19:02Z</time>
      </trkpt>
      <trkpt lat="48.6209" lon="1.99862">
        <ele>118.4</ele>
        <time>2024-03-14T17:19:03Z</time>
      </trkpt>
      <trkpt lat="48.62084" lon="1.99867">
        <ele>118.4</ele>
        <time>2024-03-14T17:19:04Z</time>
      </trkpt>
      <trkpt lat="48.62078" lon="1.99871">
        <ele>117.2</ele>
        <time>2024-03-14T17:19:05Z</time>
      </trkpt>
      <trkpt lat="48.62071" lon="1.99876">
        <ele>117.2</ele>
        <time>2024-03-14T17:19:06Z</time>
      </trkpt>
      <trkpt lat="48.62066" lon="1.99881">
        <ele>117.2</ele>
        <time>2024-03-14T17:19:07Z</time>
      </trkpt>
      <trkpt lat="48.62061" lon="1.99887">
        <ele>117.6</ele>
        <time>2024-03-14T17:19:08Z</time>
      </trkpt>
      <trkpt lat="48.62057" lon="1.99895">
        <ele>117.4</ele>
        <time>2024-03-14T17:19:09Z</time>
      </trkpt>
      <trkpt lat="48.62056" lon="1.99905">
        <ele>117.4</ele>
        <time>2024-03-14T17:19:10Z</time>
      </trkpt>
      <trkpt lat="48.62056" lon="1.99915">
        <ele>117.4</ele>
        <time>2024-03-14T17:19:11Z</time>
      </trkpt>
      <trkpt lat="48.62057" lon="1.99926">
        <ele>117.4</ele>
        <time>2024-03-14T17:19:12Z</time>
      </trkpt>
      <trkpt lat="48.62058" lon="1.99936">
        <ele>117</ele>
        <time>2024-03-14T17:19:13Z</time>
      </trkpt>
      <trkpt lat="48.6206" lon="1.99946">
        <ele>117</ele>
        <time>2024-03-14T17:19:14Z</time>
      </trkpt>
      <trkpt lat="48.62061" lon="1.99956">
        <ele>117</ele>
        <time>2024-03-14T17:19:15Z</time>
      </trkpt>
      <trkpt lat="48.62062" lon="1.99967">
        <ele>117</ele>
        <time>2024-03-14T17:19:16Z</time>
      </trkpt>
      <trkpt lat="48.62063" lon="1.99977">
        <ele>116.6</ele>
        <time>2024-03-14T17:19:17Z</time>
      </trkpt>
      <trkpt lat="48.62064" lon="1.99986">
        <ele>116.6</ele>
        <time>2024-03-14T17:19:18Z</time>
      </trkpt>
      <trkpt lat="48.62065" lon="1.99996">
        <ele>116.6</ele>
        <time>2024-03-14T17:19:19Z</time>
      </trkpt>
      <trkpt lat="48.62066" lon="2.00006">
        <ele>117.4</ele>
        <time>2024-03-14T17:19:20Z</time>
      </trkpt>
      <trkpt lat="48.62067" lon="2.00016">
        <ele>117.6</ele>
        <time>2024-03-14T17:19:21Z</time>
      </trkpt>
      <trkpt lat="48.62069" lon="2.00025">
        <ele>117.6</ele>
        <time>2024-03-14T17:19:22Z</time>
      </trkpt>
      <trkpt lat="48.62071" lon="2.00035">
        <ele>117.6</ele>
        <time>2024-03-14T17:19:23Z</time>
      </trkpt>
      <trkpt lat="48.62073" lon="2.00044">
        <ele>117.6</ele>
        <time>2024-03-14T17:19:24Z</time>
      </trkpt>
      <trkpt lat="48.62076" lon="2.00053">
        <ele>118.2</ele>
        <time>2024-03-14T17:19:25Z</time>
      </trkpt>
      <trkpt lat="48.62079" lon="2.00061">
        <ele>118.2</ele>
        <time>2024-03-14T17:19:26Z</time>
      </trkpt>
      <trkpt lat="48.62081" lon="2.0007">
        <ele>118.2</ele>
        <time>2024-03-14T17:19:27Z</time>
      </trkpt>
      <trkpt lat="48.62083" lon="2.00078">
        <ele>118.2</ele>
        <time>2024-03-14T17:19:28Z</time>
      </trkpt>
      <trkpt lat="48.62086" lon="2.00086">
        <ele>118.2</ele>
        <time>2024-03-14T17:19:29Z</time>
      </trkpt>
      <trkpt lat="48.62088" lon="2.00094">
        <ele>118.2</ele>
        <time>2024-03-14T17:19:30Z</time>
      </trkpt>
      <trkpt lat="48.62091" lon="2.00102">
        <ele>118.2</ele>
        <time>2024-03-14T17:19:31Z</time>
      </trkpt>
      <trkpt lat="48.62094" lon="2.00109">
        <ele>118.8</ele>
        <time>2024-03-14T17:19:32Z</time>
      </trkpt>
      <trkpt lat="48.62096" lon="2.00117">
        <ele>118.6</ele>
        <time>2024-03-14T17:19:33Z</time>
      </trkpt>
      <trkpt lat="48.62098" lon="2.00124">
        <ele>118.6</ele>
        <time>2024-03-14T17:19:34Z</time>
      </trkpt>
      <trkpt lat="48.621" lon="2.00132">
        <ele>118.6</ele>
        <time>2024-03-14T17:19:35Z</time>
      </trkpt>
      <trkpt lat="48.62103" lon="2.00139">
        <ele>119.4</ele>
        <time>2024-03-14T17:19:36Z</time>
      </trkpt>
      <trkpt lat="48.62105" lon="2.00147">
        <ele>119.6</ele>
        <time>2024-03-14T17:19:37Z</time>
      </trkpt>
      <trkpt lat="48.62108" lon="2.00154">
        <ele>119.6</ele>
        <time>2024-03-14T17:19:38Z</time>
      </trkpt>
      <trkpt lat="48.6211" lon="2.00161">
        <ele>119.6</ele>
        <time>2024-03-14T17:19:39Z</time>
      </trkpt>
      <trkpt lat="48.62113" lon="2.00168">
        <ele>120.6</ele>
        <time>2024-03-14T17:19:40Z</time>
      </trkpt>
      <trkpt lat="48.62116" lon="2.00175">
        <ele>121.6</ele>
        <time>2024-03-14T17:19:41Z</time>
      </trkpt>
      <trkpt lat="48.62118" lon="2.00182">
        <ele>121.6</ele>
        <time>2024-03-14T17:19:42Z</time>
      </trkpt>
      <trkpt lat="48.6212" lon="2.00189">
        <ele>121.6</ele>
        <time>2024-03-14T17:19:43Z</time>
      </trkpt>
      <trkpt lat="48.62122" lon="2.00196">
        <ele>121.6</ele>
        <time>2024-03-14T17:19:44Z</time>
      </trkpt>
      <trkpt lat="48.62124" lon="2.00203">
        <ele>121.6</ele>
        <time>2024-03-14T17:19:45Z</time>
      </trkpt>
      <trkpt lat="48.62127" lon="2.00211">
        <ele>121.6</ele>
        <time>2024-03-14T17:19:46Z</time>
      </trkpt>
      <trkpt lat="48.62128" lon="2.00218">
        <ele>121.6</ele>
        <time>2024-03-14T17:19:47Z</time>
      </trkpt>
      <trkpt lat="48.6213" lon="2.00225">
        <ele>121.6</ele>
        <time>2024-03-14T17:19:48Z</time>
      </trkpt>
      <trkpt lat="48.62131" lon="2.00233">
        <ele>122</ele>
        <time>2024-03-14T17:19:49Z</time>
      </trkpt>
      <trkpt lat="48.62131" lon="2.00241">
        <ele>122</ele>
        <time>2024-03-14T17:19:50Z</time>
      </trkpt>
      <trkpt lat="48.62131" lon="2.00248">
        <ele>122</ele>
        <time>2024-03-14T17:19:51Z</time>
      </trkpt>
      <trkpt lat="48.62132" lon="2.00256">
        <ele>122.4</ele>
        <time>2024-03-14T17:19:52Z</time>
      </trkpt>
      <trkpt lat="48.62134" lon="2.00264">
        <ele>122.4</ele>
        <time>2024-03-14T17:19:53Z</time>
      </trkpt>
      <trkpt lat="48.62137" lon="2.00271">
        <ele>122.4</ele>
        <time>2024-03-14T17:19:54Z</time>
      </trkpt>
      <trkpt lat="48.62139" lon="2.00278">
        <ele>122.4</ele>
        <time>2024-03-14T17:19:55Z</time>
      </trkpt>
      <trkpt lat="48.62143" lon="2.00286">
        <ele>122.4</ele>
        <time>2024-03-14T17:19:56Z</time>
      </trkpt>
      <trkpt lat="48.62146" lon="2.00294">
        <ele>121.8</ele>
        <time>2024-03-14T17:19:57Z</time>
      </trkpt>
      <trkpt lat="48.62148" lon="2.00302">
        <ele>121.8</ele>
        <time>2024-03-14T17:19:58Z</time>
      </trkpt>
      <trkpt lat="48.6215" lon="2.0031">
        <ele>121.8</ele>
        <time>2024-03-14T17:19:59Z</time>
      </trkpt>
      <trkpt lat="48.62152" lon="2.00319">
        <ele>121.8</ele>
        <time>2024-03-14T17:20:00Z</time>
      </trkpt>
      <trkpt lat="48.62154" lon="2.00328">
        <ele>121.4</ele>
        <time>2024-03-14T17:20:01Z</time>
      </trkpt>
      <trkpt lat="48.62155" lon="2.00336">
        <ele>121.4</ele>
        <time>2024-03-14T17:20:02Z</time>
      </trkpt>
      <trkpt lat="48.62156" lon="2.00345">
        <ele>121.4</ele>
        <time>2024-03-14T17:20:03Z</time>
      </trkpt>
      <trkpt lat="48.62157" lon="2.00354">
        <ele>122.2</ele>
        <time>2024-03-14T17:20:04Z</time>
      </trkpt>
      <trkpt lat="48.62158" lon="2.00362">
        <ele>121.6</ele>
        <time>2024-03-14T17:20:05Z</time>
      </trkpt>
      <trkpt lat="48.62159" lon="2.00371">
        <ele>121.6</ele>
        <time>2024-03-14T17:20:06Z</time>
      </trkpt>
      <trkpt lat="48.6216" lon="2.0038">
        <ele>121.6</ele>
        <time>2024-03-14T17:20:07Z</time>
      </trkpt>
      <trkpt lat="48.62161" lon="2.00388">
        <ele>122</ele>
        <time>2024-03-14T17:20:08Z</time>
      </trkpt>
      <trkpt lat="48.62162" lon="2.00397">
        <ele>122.2</ele>
        <time>2024-03-14T17:20:09Z</time>
      </trkpt>
      <trkpt lat="48.62163" lon="2.00405">
        <ele>122.2</ele>
        <time>2024-03-14T17:20:10Z</time>
      </trkpt>
      <trkpt lat="48.62164" lon="2.00413">
        <ele>122.2</ele>
        <time>2024-03-14T17:20:11Z</time>
      </trkpt>
      <trkpt lat="48.62165" lon="2.00422">
        <ele>123</ele>
        <time>2024-03-14T17:20:12Z</time>
      </trkpt>
      <trkpt lat="48.62166" lon="2.0043">
        <ele>122.4</ele>
        <time>2024-03-14T17:20:13Z</time>
      </trkpt>
      <trkpt lat="48.62167" lon="2.00438">
        <ele>122.4</ele>
        <time>2024-03-14T17:20:14Z</time>
      </trkpt>
      <trkpt lat="48.62168" lon="2.00447">
        <ele>122.4</ele>
        <time>2024-03-14T17:20:15Z</time>
      </trkpt>
      <trkpt lat="48.62169" lon="2.00455">
        <ele>122.6</ele>
        <time>2024-03-14T17:20:16Z</time>
      </trkpt>
      <trkpt lat="48.6217" lon="2.00463">
        <ele>122.8</ele>
        <time>2024-03-14T17:20:17Z</time>
      </trkpt>
      <trkpt lat="48.62171" lon="2.00472">
        <ele>122.8</ele>
        <time>2024-03-14T17:20:18Z</time>
      </trkpt>
      <trkpt lat="48.62172" lon="2.0048">
        <ele>122.8</ele>
        <time>2024-03-14T17:20:19Z</time>
      </trkpt>
      <trkpt lat="48.62173" lon="2.00489">
        <ele>122.8</ele>
        <time>2024-03-14T17:20:20Z</time>
      </trkpt>
      <trkpt lat="48.62174" lon="2.00497">
        <ele>122.6</ele>
        <time>2024-03-14T17:20:21Z</time>
      </trkpt>
      <trkpt lat="48.62175" lon="2.00506">
        <ele>122.6</ele>
        <time>2024-03-14T17:20:22Z</time>
      </trkpt>
      <trkpt lat="48.62176" lon="2.00514">
        <ele>122.6</ele>
        <time>2024-03-14T17:20:23Z</time>
      </trkpt>
      <trkpt lat="48.62177" lon="2.00523">
        <ele>122.8</ele>
        <time>2024-03-14T17:20:24Z</time>
      </trkpt>
      <trkpt lat="48.62178" lon="2.00531">
        <ele>122.8</ele>
        <time>2024-03-14T17:20:25Z</time>
      </trkpt>
      <trkpt lat="48.62179" lon="2.00539">
        <ele>122.8</ele>
        <time>2024-03-14T17:20:26Z</time>
      </trkpt>
      <trkpt lat="48.62181" lon="2.00548">
        <ele>122.8</ele>
        <time>2024-03-14T17:20:27Z</time>
      </trkpt>
      <trkpt lat="48.62181" lon="2.00556">
        <ele>123</ele>
        <time>2024-03-14T17:20:28Z</time>
      </trkpt>
      <trkpt lat="48.62182" lon="2.00565">
        <ele>122.6</ele>
        <time>2024-03-14T17:20:29Z</time>
      </trkpt>
      <trkpt lat="48.62184" lon="2.00573">
        <ele>122.6</ele>
        <time>2024-03-14T17:20:30Z</time>
      </trkpt>
      <trkpt lat="48.62185" lon="2.00582">
        <ele>122.6</ele>
        <time>2024-03-14T17:20:31Z</time>
      </trkpt>
      <trkpt lat="48.62186" lon="2.00591">
        <ele>123</ele>
        <time>2024-03-14T17:20:32Z</time>
      </trkpt>
      <trkpt lat="48.62187" lon="2.006">
        <ele>122.6</ele>
        <time>2024-03-14T17:20:33Z</time>
      </trkpt>
      <trkpt lat="48.62189" lon="2.00609">
        <ele>122.6</ele>
        <time>2024-03-14T17:20:34Z</time>
      </trkpt>
      <trkpt lat="48.6219" lon="2.00618">
        <ele>122.6</ele>
        <time>2024-03-14T17:20:35Z</time>
      </trkpt>
      <trkpt lat="48.62191" lon="2.00627">
        <ele>123.4</ele>
        <time>2024-03-14T17:20:36Z</time>
      </trkpt>
      <trkpt lat="48.62192" lon="2.00636">
        <ele>123.4</ele>
        <time>2024-03-14T17:20:37Z</time>
      </trkpt>
      <trkpt lat="48.62194" lon="2.00644">
        <ele>123.4</ele>
        <time>2024-03-14T17:20:38Z</time>
      </trkpt>
      <trkpt lat="48.62195" lon="2.00654">
        <ele>123.4</ele>
        <time>2024-03-14T17:20:39Z</time>
      </trkpt>
      <trkpt lat="48.62196" lon="2.00663">
        <ele>123.4</ele>
        <time>2024-03-14T17:20:40Z</time>
      </trkpt>
      <trkpt lat="48.62197" lon="2.00672">
        <ele>123.6</ele>
        <time>2024-03-14T17:20:41Z</time>
      </trkpt>
      <trkpt lat="48.62198" lon="2.00683">
        <ele>123.6</ele>
        <time>2024-03-14T17:20:42Z</time>
      </trkpt>
      <trkpt lat="48.622" lon="2.00692">
        <ele>123.6</ele>
        <time>2024-03-14T17:20:43Z</time>
      </trkpt>
      <trkpt lat="48.62201" lon="2.00701">
        <ele>123.6</ele>
        <time>2024-03-14T17:20:44Z</time>
      </trkpt>
      <trkpt lat="48.62202" lon="2.0071">
        <ele>124</ele>
        <time>2024-03-14T17:20:45Z</time>
      </trkpt>
      <trkpt lat="48.62203" lon="2.00719">
        <ele>124</ele>
        <time>2024-03-14T17:20:46Z</time>
      </trkpt>
      <trkpt lat="48.62204" lon="2.00729">
        <ele>124</ele>
        <time>2024-03-14T17:20:47Z</time>
      </trkpt>
      <trkpt lat="48.62204" lon="2.00738">
        <ele>124.8</ele>
        <time>2024-03-14T17:20:48Z</time>
      </trkpt>
      <trkpt lat="48.62205" lon="2.00746">
        <ele>124.6</ele>
        <time>2024-03-14T17:20:49Z</time>
      </trkpt>
      <trkpt lat="48.62205" lon="2.00755">
        <ele>124.6</ele>
        <time>2024-03-14T17:20:50Z</time>
      </trkpt>
      <trkpt lat="48.62206" lon="2.00764">
        <ele>124.6</ele>
        <time>2024-03-14T17:20:51Z</time>
      </trkpt>
      <trkpt lat="48.62206" lon="2.00772">
        <ele>125.6</ele>
        <time>2024-03-14T17:20:52Z</time>
      </trkpt>
      <trkpt lat="48.62207" lon="2.0078">
        <ele>126.2</ele>
        <time>2024-03-14T17:20:53Z</time>
      </trkpt>
      <trkpt lat="48.62208" lon="2.00788">
        <ele>126.2</ele>
        <time>2024-03-14T17:20:54Z</time>
      </trkpt>
      <trkpt lat="48.62209" lon="2.00795">
        <ele>126.2</ele>
        <time>2024-03-14T17:20:55Z</time>
      </trkpt>
      <trkpt lat="48.6221" lon="2.00803">
        <ele>127.2</ele>
        <time>2024-03-14T17:20:56Z</time>
      </trkpt>
      <trkpt lat="48.62211" lon="2.00811">
        <ele>127.2</ele>
        <time>2024-03-14T17:20:57Z</time>
      </trkpt>
      <trkpt lat="48.62212" lon="2.00818">
        <ele>127.2</ele>
        <time>2024-03-14T17:20:58Z</time>
      </trkpt>
      <trkpt lat="48.62213" lon="2.00826">
        <ele>127.2</ele>
        <time>2024-03-14T17:20:59Z</time>
      </trkpt>
      <trkpt lat="48.62213" lon="2.00833">
        <ele>128.2</ele>
        <time>2024-03-14T17:21:00Z</time>
      </trkpt>
      <trkpt lat="48.62214" lon="2.00839">
        <ele>128.6</ele>
        <time>2024-03-14T17:21:01Z</time>
      </trkpt>
      <trkpt lat="48.62214" lon="2.00846">
        <ele>128.6</ele>
        <time>2024-03-14T17:21:02Z</time>
      </trkpt>
      <trkpt lat="48.62214" lon="2.00852">
        <ele>128.6</ele>
        <time>2024-03-14T17:21:03Z</time>
      </trkpt>
      <trkpt lat="48.62215" lon="2.00859">
        <ele>129.4</ele>
        <time>2024-03-14T17:21:04Z</time>
      </trkpt>
      <trkpt lat="48.62216" lon="2.00865">
        <ele>129.8</ele>
        <time>2024-03-14T17:21:05Z</time>
      </trkpt>
      <trkpt lat="48.62217" lon="2.00871">
        <ele>129.8</ele>
        <time>2024-03-14T17:21:06Z</time>
      </trkpt>
      <trkpt lat="48.62217" lon="2.00877">
        <ele>129.8</ele>
        <time>2024-03-14T17:21:07Z</time>
      </trkpt>
      <trkpt lat="48.62218" lon="2.00884">
        <ele>129.8</ele>
        <time>2024-03-14T17:21:08Z</time>
      </trkpt>
      <trkpt lat="48.6222" lon="2.0089">
        <ele>130.4</ele>
        <time>2024-03-14T17:21:09Z</time>
      </trkpt>
      <trkpt lat="48.6222" lon="2.00896">
        <ele>130.4</ele>
        <time>2024-03-14T17:21:10Z</time>
      </trkpt>
      <trkpt lat="48.62222" lon="2.00903">
        <ele>130.4</ele>
        <time>2024-03-14T17:21:11Z</time>
      </trkpt>
      <trkpt lat="48.62222" lon="2.00908">
        <ele>130.4</ele>
        <time>2024-03-14T17:21:12Z</time>
      </trkpt>
      <trkpt lat="48.62222" lon="2.00914">
        <ele>131.4</ele>
        <time>2024-03-14T17:21:13Z</time>
      </trkpt>
      <trkpt lat="48.62222" lon="2.0092">
        <ele>131.4</ele>
        <time>2024-03-14T17:21:14Z</time>
      </trkpt>
      <trkpt lat="48.62222" lon="2.00926">
        <ele>131.4</ele>
        <time>2024-03-14T17:21:15Z</time>
      </trkpt>
      <trkpt lat="48.62221" lon="2.00932">
        <ele>131.6</ele>
        <time>2024-03-14T17:21:16Z</time>
      </trkpt>
      <trkpt lat="48.62221" lon="2.00938">
        <ele>132.2</ele>
        <time>2024-03-14T17:21:17Z</time>
      </trkpt>
      <trkpt lat="48.62222" lon="2.00944">
        <ele>132.2</ele>
        <time>2024-03-14T17:21:18Z</time>
      </trkpt>
      <trkpt lat="48.62223" lon="2.0095">
        <ele>132.2</ele>
        <time>2024-03-14T17:21:19Z</time>
      </trkpt>
      <trkpt lat="48.62223" lon="2.00955">
        <ele>133.2</ele>
        <time>2024-03-14T17:21:20Z</time>
      </trkpt>
      <trkpt lat="48.62224" lon="2.00961">
        <ele>133.6</ele>
        <time>2024-03-14T17:21:21Z</time>
      </trkpt>
      <trkpt lat="48.62225" lon="2.00967">
        <ele>133.6</ele>
        <time>2024-03-14T17:21:22Z</time>
      </trkpt>
      <trkpt lat="48.62226" lon="2.00973">
        <ele>133.6</ele>
        <time>2024-03-14T17:21:23Z</time>
      </trkpt>
      <trkpt lat="48.62227" lon="2.00979">
        <ele>134.6</ele>
        <time>2024-03-14T17:21:24Z</time>
      </trkpt>
      <trkpt lat="48.62227" lon="2.00985">
        <ele>134.6</ele>
        <time>2024-03-14T17:21:25Z</time>
      </trkpt>
      <trkpt lat="48.62228" lon="2.00991">
        <ele>134.6</ele>
        <time>2024-03-14T17:21:26Z</time>
      </trkpt>
      <trkpt lat="48.62229" lon="2.00997">
        <ele>134.6</ele>
        <time>2024-03-14T17:21:27Z</time>
      </trkpt>
      <trkpt lat="48.62229" lon="2.01004">
        <ele>135.6</ele>
        <time>2024-03-14T17:21:28Z</time>
      </trkpt>
      <trkpt lat="48.6223" lon="2.0101">
        <ele>135.6</ele>
        <time>2024-03-14T17:21:29Z</time>
      </trkpt>
      <trkpt lat="48.6223" lon="2.01016">
        <ele>135.6</ele>
        <time>2024-03-14T17:21:30Z</time>
      </trkpt>
      <trkpt lat="48.6223" lon="2.01022">
        <ele>135.6</ele>
        <time>2024-03-14T17:21:31Z</time>
      </trkpt>
      <trkpt lat="48.62231" lon="2.01029">
        <ele>136.4</ele>
        <time>2024-03-14T17:21:32Z</time>
      </trkpt>
      <trkpt lat="48.62232" lon="2.01034">
        <ele>136.8</ele>
        <time>2024-03-14T17:21:33Z</time>
      </trkpt>
      <trkpt lat="48.62232" lon="2.01041">
        <ele>136.8</ele>
        <time>2024-03-14T17:21:34Z</time>
      </trkpt>
      <trkpt lat="48.62233" lon="2.01047">
        <ele>136.8</ele>
        <time>2024-03-14T17:21:35Z</time>
      </trkpt>
      <trkpt lat="48.62234" lon="2.01053">
        <ele>136.8</ele>
        <time>2024-03-14T17:21:36Z</time>
      </trkpt>
      <trkpt lat="48.62235" lon="2.0106">
        <ele>136.6</ele>
        <time>2024-03-14T17:21:37Z</time>
      </trkpt>
      <trkpt lat="48.62235" lon="2.01067">
        <ele>136.6</ele>
        <time>2024-03-14T17:21:38Z</time>
      </trkpt>
      <trkpt lat="48.62236" lon="2.01075">
        <ele>136.6</ele>
        <time>2024-03-14T17:21:39Z</time>
      </trkpt>
      <trkpt lat="48.62237" lon="2.01081">
        <ele>137.6</ele>
        <time>2024-03-14T17:21:40Z</time>
      </trkpt>
      <trkpt lat="48.62238" lon="2.01088">
        <ele>138</ele>
        <time>2024-03-14T17:21:41Z</time>
      </trkpt>
      <trkpt lat="48.6224" lon="2.01095">
        <ele>138</ele>
        <time>2024-03-14T17:21:42Z</time>
      </trkpt>
      <trkpt lat="48.6224" lon="2.01102">
        <ele>138</ele>
        <time>2024-03-14T17:21:43Z</time>
      </trkpt>
      <trkpt lat="48.62241" lon="2.0111">
        <ele>138</ele>
        <time>2024-03-14T17:21:44Z</time>
      </trkpt>
      <trkpt lat="48.62243" lon="2.01118">
        <ele>138.8</ele>
        <time>2024-03-14T17:21:45Z</time>
      </trkpt>
      <trkpt lat="48.62245" lon="2.01126">
        <ele>138.8</ele>
        <time>2024-03-14T17:21:46Z</time>
      </trkpt>
      <trkpt lat="48.62246" lon="2.01134">
        <ele>138.8</ele>
        <time>2024-03-14T17:21:47Z</time>
      </trkpt>
      <trkpt lat="48.62247" lon="2.01142">
        <ele>138.8</ele>
        <time>2024-03-14T17:21:48Z</time>
      </trkpt>
      <trkpt lat="48.62247" lon="2.01151">
        <ele>138.8</ele>
        <time>2024-03-14T17:21:49Z</time>
      </trkpt>
      <trkpt lat="48.62247" lon="2.0116">
        <ele>138.8</ele>
        <time>2024-03-14T17:21:50Z</time>
      </trkpt>
      <trkpt lat="48.62248" lon="2.01168">
        <ele>138.8</ele>
        <time>2024-03-14T17:21:51Z</time>
      </trkpt>
      <trkpt lat="48.62248" lon="2.01177">
        <ele>138.6</ele>
        <time>2024-03-14T17:21:52Z</time>
      </trkpt>
      <trkpt lat="48.62249" lon="2.01186">
        <ele>138.2</ele>
        <time>2024-03-14T17:21:53Z</time>
      </trkpt>
      <trkpt lat="48.62249" lon="2.01195">
        <ele>138.2</ele>
        <time>2024-03-14T17:21:54Z</time>
      </trkpt>
      <trkpt lat="48.62249" lon="2.01204">
        <ele>138.2</ele>
        <time>2024-03-14T17:21:55Z</time>
      </trkpt>
      <trkpt lat="48.62249" lon="2.01214">
        <ele>137.4</ele>
        <time>2024-03-14T17:21:56Z</time>
      </trkpt>
      <trkpt lat="48.62249" lon="2.01225">
        <ele>136.8</ele>
        <time>2024-03-14T17:21:57Z</time>
      </trkpt>
      <trkpt lat="48.62249" lon="2.01236">
        <ele>136.8</ele>
        <time>2024-03-14T17:21:58Z</time>
      </trkpt>
      <trkpt lat="48.62249" lon="2.01247">
        <ele>136.8</ele>
        <time>2024-03-14T17:21:59Z</time>
      </trkpt>
      <trkpt lat="48.62249" lon="2.01258">
        <ele>135.8</ele>
        <time>2024-03-14T17:22:00Z</time>
      </trkpt>
      <trkpt lat="48.62249" lon="2.0127">
        <ele>135</ele>
        <time>2024-03-14T17:22:01Z</time>
      </trkpt>
      <trkpt lat="48.62249" lon="2.01281">
        <ele>135</ele>
        <time>2024-03-14T17:22:02Z</time>
      </trkpt>
      <trkpt lat="48.62248" lon="2.01293">
        <ele>135</ele>
        <time>2024-03-14T17:22:03Z</time>
      </trkpt>
      <trkpt lat="48.62248" lon="2.01305">
        <ele>135</ele>
        <time>2024-03-14T17:22:04Z</time>
      </trkpt>
      <trkpt lat="48.62248" lon="2.01317">
        <ele>133.4</ele>
        <time>2024-03-14T17:22:05Z</time>
      </trkpt>
      <trkpt lat="48.62248" lon="2.01329">
        <ele>133.4</ele>
        <time>2024-03-14T17:22:06Z</time>
      </trkpt>
      <trkpt lat="48.62248" lon="2.01342">
        <ele>133.4</ele>
        <time>2024-03-14T17:22:07Z</time>
      </trkpt>
      <trkpt lat="48.62248" lon="2.01355">
        <ele>133.4</ele>
        <time>2024-03-14T17:22:08Z</time>
      </trkpt>
      <trkpt lat="48.62248" lon="2.01367">
        <ele>132.6</ele>
        <time>2024-03-14T17:22:09Z</time>
      </trkpt>
      <trkpt lat="48.62248" lon="2.0138">
        <ele>132.6</ele>
        <time>2024-03-14T17:22:10Z</time>
      </trkpt>
      <trkpt lat="48.62248" lon="2.01393">
        <ele>132.6</ele>
        <time>2024-03-14T17:22:11Z</time>
      </trkpt>
      <trkpt lat="48.62247" lon="2.01406">
        <ele>132.6</ele>
        <time>2024-03-14T17:22:12Z</time>
      </trkpt>
      <trkpt lat="48.62247" lon="2.01419">
        <ele>131.4</ele>
        <time>2024-03-14T17:22:13Z</time>
      </trkpt>
      <trkpt lat="48.62247" lon="2.01432">
        <ele>131.4</ele>
        <time>2024-03-14T17:22:14Z</time>
      </trkpt>
      <trkpt lat="48.62247" lon="2.01444">
        <ele>131.4</ele>
        <time>2024-03-14T17:22:15Z</time>
      </trkpt>
      <trkpt lat="48.62247" lon="2.01457">
        <ele>131.4</ele>
        <time>2024-03-14T17:22:16Z</time>
      </trkpt>
      <trkpt lat="48.62247" lon="2.0147">
        <ele>131.4</ele>
        <time>2024-03-14T17:22:17Z</time>
      </trkpt>
      <trkpt lat="48.62247" lon="2.01482">
        <ele>131.4</ele>
        <time>2024-03-14T17:22:18Z</time>
      </trkpt>
      <trkpt lat="48.62246" lon="2.01495">
        <ele>131.4</ele>
        <time>2024-03-14T17:22:19Z</time>
      </trkpt>
      <trkpt lat="48.62246" lon="2.01507">
        <ele>131.2</ele>
        <time>2024-03-14T17:22:20Z</time>
      </trkpt>
      <trkpt lat="48.62246" lon="2.0152">
        <ele>131.4</ele>
        <time>2024-03-14T17:22:21Z</time>
      </trkpt>
      <trkpt lat="48.62246" lon="2.01532">
        <ele>131.4</ele>
        <time>2024-03-14T17:22:22Z</time>
      </trkpt>
      <trkpt lat="48.62246" lon="2.01544">
        <ele>131.4</ele>
        <time>2024-03-14T17:22:23Z</time>
      </trkpt>
      <trkpt lat="48.62246" lon="2.01557">
        <ele>131.4</ele>
        <time>2024-03-14T17:22:24Z</time>
      </trkpt>
      <trkpt lat="48.62246" lon="2.01569">
        <ele>131.4</ele>
        <time>2024-03-14T17:22:25Z</time>
      </trkpt>
      <trkpt lat="48.62247" lon="2.01581">
        <ele>131.4</ele>
        <time>2024-03-14T17:22:26Z</time>
      </trkpt>
      <trkpt lat="48.62247" lon="2.01593">
        <ele>131.4</ele>
        <time>2024-03-14T17:22:27Z</time>
      </trkpt>
      <trkpt lat="48.62247" lon="2.01605">
        <ele>130.8</ele>
        <time>2024-03-14T17:22:28Z</time>
      </trkpt>
      <trkpt lat="48.62247" lon="2.01617">
        <ele>130.6</ele>
        <time>2024-03-14T17:22:29Z</time>
      </trkpt>
      <trkpt lat="48.62247" lon="2.01629">
        <ele>130.6</ele>
        <time>2024-03-14T17:22:30Z</time>
      </trkpt>
      <trkpt lat="48.62246" lon="2.01641">
        <ele>130.6</ele>
        <time>2024-03-14T17:22:31Z</time>
      </trkpt>
      <trkpt lat="48.62246" lon="2.01652">
        <ele>129.8</ele>
        <time>2024-03-14T17:22:32Z</time>
      </trkpt>
      <trkpt lat="48.62246" lon="2.01664">
        <ele>129.8</ele>
        <time>2024-03-14T17:22:33Z</time>
      </trkpt>
      <trkpt lat="48.62244" lon="2.01675">
        <ele>129.8</ele>
        <time>2024-03-14T17:22:34Z</time>
      </trkpt>
      <trkpt lat="48.62242" lon="2.01685">
        <ele>129.8</ele>
        <time>2024-03-14T17:22:35Z</time>
      </trkpt>
      <trkpt lat="48.62241" lon="2.01697">
        <ele>130.4</ele>
        <time>2024-03-14T17:22:36Z</time>
      </trkpt>
      <trkpt lat="48.62241" lon="2.01707">
        <ele>130</ele>
        <time>2024-03-14T17:22:37Z</time>
      </trkpt>
      <trkpt lat="48.62239" lon="2.01718">
        <ele>130</ele>
        <time>2024-03-14T17:22:38Z</time>
      </trkpt>
      <trkpt lat="48.62238" lon="2.01729">
        <ele>130</ele>
        <time>2024-03-14T17:22:39Z</time>
      </trkpt>
      <trkpt lat="48.62238" lon="2.0174">
        <ele>130</ele>
        <time>2024-03-14T17:22:40Z</time>
      </trkpt>
      <trkpt lat="48.62236" lon="2.0175">
        <ele>129.8</ele>
        <time>2024-03-14T17:22:41Z</time>
      </trkpt>
      <trkpt lat="48.62235" lon="2.01761">
        <ele>129.8</ele>
        <time>2024-03-14T17:22:42Z</time>
      </trkpt>
      <trkpt lat="48.62233" lon="2.01772">
        <ele>129.8</ele>
        <time>2024-03-14T17:22:43Z</time>
      </trkpt>
      <trkpt lat="48.62232" lon="2.01783">
        <ele>129.8</ele>
        <time>2024-03-14T17:22:44Z</time>
      </trkpt>
      <trkpt lat="48.62231" lon="2.01795">
        <ele>129.8</ele>
        <time>2024-03-14T17:22:45Z</time>
      </trkpt>
      <trkpt lat="48.62231" lon="2.01807">
        <ele>129.8</ele>
        <time>2024-03-14T17:22:46Z</time>
      </trkpt>
      <trkpt lat="48.6223" lon="2.01819">
        <ele>129.8</ele>
        <time>2024-03-14T17:22:47Z</time>
      </trkpt>
      <trkpt lat="48.62229" lon="2.01831">
        <ele>129.8</ele>
        <time>2024-03-14T17:22:48Z</time>
      </trkpt>
      <trkpt lat="48.62228" lon="2.01844">
        <ele>129.4</ele>
        <time>2024-03-14T17:22:49Z</time>
      </trkpt>
      <trkpt lat="48.62226" lon="2.01856">
        <ele>129.4</ele>
        <time>2024-03-14T17:22:50Z</time>
      </trkpt>
      <trkpt lat="48.62223" lon="2.01868">
        <ele>129.4</ele>
        <time>2024-03-14T17:22:51Z</time>
      </trkpt>
      <trkpt lat="48.62221" lon="2.01879">
        <ele>128.6</ele>
        <time>2024-03-14T17:22:52Z</time>
      </trkpt>
      <trkpt lat="48.62219" lon="2.01891">
        <ele>128.6</ele>
        <time>2024-03-14T17:22:53Z</time>
      </trkpt>
      <trkpt lat="48.62218" lon="2.01903">
        <ele>128.6</ele>
        <time>2024-03-14T17:22:54Z</time>
      </trkpt>
      <trkpt lat="48.62216" lon="2.01915">
        <ele>128.6</ele>
        <time>2024-03-14T17:22:55Z</time>
      </trkpt>
      <trkpt lat="48.62215" lon="2.01927">
        <ele>128</ele>
        <time>2024-03-14T17:22:56Z</time>
      </trkpt>
      <trkpt lat="48.62213" lon="2.01939">
        <ele>128.4</ele>
        <time>2024-03-14T17:22:57Z</time>
      </trkpt>
      <trkpt lat="48.62212" lon="2.01951">
        <ele>128.4</ele>
        <time>2024-03-14T17:22:58Z</time>
      </trkpt>
      <trkpt lat="48.62211" lon="2.01963">
        <ele>128.4</ele>
        <time>2024-03-14T17:22:59Z</time>
      </trkpt>
      <trkpt lat="48.62209" lon="2.01975">
        <ele>128.4</ele>
        <time>2024-03-14T17:23:00Z</time>
      </trkpt>
      <trkpt lat="48.62208" lon="2.01987">
        <ele>128.6</ele>
        <time>2024-03-14T17:23:01Z</time>
      </trkpt>
      <trkpt lat="48.62207" lon="2.01999">
        <ele>128.6</ele>
        <time>2024-03-14T17:23:02Z</time>
      </trkpt>
      <trkpt lat="48.62205" lon="2.02012">
        <ele>128.6</ele>
        <time>2024-03-14T17:23:03Z</time>
      </trkpt>
      <trkpt lat="48.62204" lon="2.02024">
        <ele>127.6</ele>
        <time>2024-03-14T17:23:04Z</time>
      </trkpt>
      <trkpt lat="48.62203" lon="2.02036">
        <ele>128</ele>
        <time>2024-03-14T17:23:05Z</time>
      </trkpt>
      <trkpt lat="48.62202" lon="2.02048">
        <ele>128</ele>
        <time>2024-03-14T17:23:06Z</time>
      </trkpt>
      <trkpt lat="48.62201" lon="2.02061">
        <ele>128</ele>
        <time>2024-03-14T17:23:07Z</time>
      </trkpt>
      <trkpt lat="48.62199" lon="2.02073">
        <ele>128</ele>
        <time>2024-03-14T17:23:08Z</time>
      </trkpt>
      <trkpt lat="48.62198" lon="2.02085">
        <ele>128.4</ele>
        <time>2024-03-14T17:23:09Z</time>
      </trkpt>
      <trkpt lat="48.62197" lon="2.02098">
        <ele>128.4</ele>
        <time>2024-03-14T17:23:10Z</time>
      </trkpt>
      <trkpt lat="48.62196" lon="2.0211">
        <ele>128.4</ele>
        <time>2024-03-14T17:23:11Z</time>
      </trkpt>
      <trkpt lat="48.62195" lon="2.02122">
        <ele>128.4</ele>
        <time>2024-03-14T17:23:12Z</time>
      </trkpt>
      <trkpt lat="48.62194" lon="2.02134">
        <ele>128.6</ele>
        <time>2024-03-14T17:23:13Z</time>
      </trkpt>
      <trkpt lat="48.62192" lon="2.02145">
        <ele>128.6</ele>
        <time>2024-03-14T17:23:14Z</time>
      </trkpt>
      <trkpt lat="48.62191" lon="2.02157">
        <ele>128.6</ele>
        <time>2024-03-14T17:23:15Z</time>
      </trkpt>
      <trkpt lat="48.6219" lon="2.02168">
        <ele>128.8</ele>
        <time>2024-03-14T17:23:16Z</time>
      </trkpt>
      <trkpt lat="48.62189" lon="2.0218">
        <ele>128.8</ele>
        <time>2024-03-14T17:23:17Z</time>
      </trkpt>
      <trkpt lat="48.62188" lon="2.02191">
        <ele>128.8</ele>
        <time>2024-03-14T17:23:18Z</time>
      </trkpt>
      <trkpt lat="48.62189" lon="2.02202">
        <ele>128.8</ele>
        <time>2024-03-14T17:23:19Z</time>
      </trkpt>
      <trkpt lat="48.6219" lon="2.02214">
        <ele>128.8</ele>
        <time>2024-03-14T17:23:20Z</time>
      </trkpt>
      <trkpt lat="48.6219" lon="2.02226">
        <ele>128.8</ele>
        <time>2024-03-14T17:23:21Z</time>
      </trkpt>
      <trkpt lat="48.62191" lon="2.02237">
        <ele>128.8</ele>
        <time>2024-03-14T17:23:22Z</time>
      </trkpt>
      <trkpt lat="48.62192" lon="2.02249">
        <ele>128.8</ele>
        <time>2024-03-14T17:23:23Z</time>
      </trkpt>
      <trkpt lat="48.62193" lon="2.02261">
        <ele>128</ele>
        <time>2024-03-14T17:23:24Z</time>
      </trkpt>
      <trkpt lat="48.62194" lon="2.02272">
        <ele>128</ele>
        <time>2024-03-14T17:23:25Z</time>
      </trkpt>
      <trkpt lat="48.62194" lon="2.02284">
        <ele>128</ele>
        <time>2024-03-14T17:23:26Z</time>
      </trkpt>
      <trkpt lat="48.62195" lon="2.02296">
        <ele>128</ele>
        <time>2024-03-14T17:23:27Z</time>
      </trkpt>
      <trkpt lat="48.62196" lon="2.02308">
        <ele>128</ele>
        <time>2024-03-14T17:23:28Z</time>
      </trkpt>
      <trkpt lat="48.62197" lon="2.0232">
        <ele>128.2</ele>
        <time>2024-03-14T17:23:29Z</time>
      </trkpt>
      <trkpt lat="48.62199" lon="2.02331">
        <ele>128.2</ele>
        <time>2024-03-14T17:23:30Z</time>
      </trkpt>
      <trkpt lat="48.62201" lon="2.02343">
        <ele>128.2</ele>
        <time>2024-03-14T17:23:31Z</time>
      </trkpt>
      <trkpt lat="48.62202" lon="2.02354">
        <ele>128.8</ele>
        <time>2024-03-14T17:23:32Z</time>
      </trkpt>
      <trkpt lat="48.62202" lon="2.02366">
        <ele>128.8</ele>
        <time>2024-03-14T17:23:33Z</time>
      </trkpt>
      <trkpt lat="48.62201" lon="2.02377">
        <ele>128.8</ele>
        <time>2024-03-14T17:23:34Z</time>
      </trkpt>
      <trkpt lat="48.62198" lon="2.02387">
        <ele>128.8</ele>
        <time>2024-03-14T17:23:35Z</time>
      </trkpt>
      <trkpt lat="48.62193" lon="2.02396">
        <ele>128.8</ele>
        <time>2024-03-14T17:23:36Z</time>
      </trkpt>
      <trkpt lat="48.62187" lon="2.02405">
        <ele>126.6</ele>
        <time>2024-03-14T17:23:37Z</time>
      </trkpt>
      <trkpt lat="48.62182" lon="2.02414">
        <ele>126.6</ele>
        <time>2024-03-14T17:23:38Z</time>
      </trkpt>
      <trkpt lat="48.62176" lon="2.02423">
        <ele>126.6</ele>
        <time>2024-03-14T17:23:39Z</time>
      </trkpt>
      <trkpt lat="48.6217" lon="2.02431">
        <ele>127.2</ele>
        <time>2024-03-14T17:23:40Z</time>
      </trkpt>
      <trkpt lat="48.62164" lon="2.02439">
        <ele>127.2</ele>
        <time>2024-03-14T17:23:41Z</time>
      </trkpt>
      <trkpt lat="48.62159" lon="2.02447">
        <ele>127.2</ele>
        <time>2024-03-14T17:23:42Z</time>
      </trkpt>
      <trkpt lat="48.62152" lon="2.02455">
        <ele>127.2</ele>
        <time>2024-03-14T17:23:43Z</time>
      </trkpt>
      <trkpt lat="48.62146" lon="2.02462">
        <ele>126.8</ele>
        <time>2024-03-14T17:23:44Z</time>
      </trkpt>
      <trkpt lat="48.6214" lon="2.0247">
        <ele>127.6</ele>
        <time>2024-03-14T17:23:45Z</time>
      </trkpt>
      <trkpt lat="48.62134" lon="2.02477">
        <ele>127.6</ele>
        <time>2024-03-14T17:23:46Z</time>
      </trkpt>
      <trkpt lat="48.62128" lon="2.02485">
        <ele>127.6</ele>
        <time>2024-03-14T17:23:47Z</time>
      </trkpt>
      <trkpt lat="48.62121" lon="2.02491">
        <ele>126.6</ele>
        <time>2024-03-14T17:23:48Z</time>
      </trkpt>
      <trkpt lat="48.62114" lon="2.02498">
        <ele>126.6</ele>
        <time>2024-03-14T17:23:49Z</time>
      </trkpt>
      <trkpt lat="48.62107" lon="2.02504">
        <ele>126.6</ele>
        <time>2024-03-14T17:23:50Z</time>
      </trkpt>
      <trkpt lat="48.62099" lon="2.02507">
        <ele>126.6</ele>
        <time>2024-03-14T17:23:51Z</time>
      </trkpt>
      <trkpt lat="48.62091" lon="2.02508">
        <ele>126.6</ele>
        <time>2024-03-14T17:23:52Z</time>
      </trkpt>
      <trkpt lat="48.62083" lon="2.02506">
        <ele>126</ele>
        <time>2024-03-14T17:23:53Z</time>
      </trkpt>
      <trkpt lat="48.62075" lon="2.02505">
        <ele>126</ele>
        <time>2024-03-14T17:23:54Z</time>
      </trkpt>
      <trkpt lat="48.62067" lon="2.02504">
        <ele>126</ele>
        <time>2024-03-14T17:23:55Z</time>
      </trkpt>
      <trkpt lat="48.62059" lon="2.02504">
        <ele>126</ele>
        <time>2024-03-14T17:23:56Z</time>
      </trkpt>
      <trkpt lat="48.62051" lon="2.02506">
        <ele>125.2</ele>
        <time>2024-03-14T17:23:57Z</time>
      </trkpt>
      <trkpt lat="48.62044" lon="2.02509">
        <ele>125.2</ele>
        <time>2024-03-14T17:23:58Z</time>
      </trkpt>
      <trkpt lat="48.62036" lon="2.02514">
        <ele>125.2</ele>
        <time>2024-03-14T17:23:59Z</time>
      </trkpt>
      <trkpt lat="48.62029" lon="2.02518">
        <ele>126.2</ele>
        <time>2024-03-14T17:24:00Z</time>
      </trkpt>
      <trkpt lat="48.62022" lon="2.02522">
        <ele>126.6</ele>
        <time>2024-03-14T17:24:01Z</time>
      </trkpt>
      <trkpt lat="48.62015" lon="2.02526">
        <ele>126.6</ele>
        <time>2024-03-14T17:24:02Z</time>
      </trkpt>
      <trkpt lat="48.62008" lon="2.02531">
        <ele>126.6</ele>
        <time>2024-03-14T17:24:03Z</time>
      </trkpt>
      <trkpt lat="48.62001" lon="2.02535">
        <ele>126.6</ele>
        <time>2024-03-14T17:24:04Z</time>
      </trkpt>
      <trkpt lat="48.61994" lon="2.02538">
        <ele>127.8</ele>
        <time>2024-03-14T17:24:05Z</time>
      </trkpt>
      <trkpt lat="48.61987" lon="2.02542">
        <ele>127.8</ele>
        <time>2024-03-14T17:24:06Z</time>
      </trkpt>
      <trkpt lat="48.61981" lon="2.02546">
        <ele>127.8</ele>
        <time>2024-03-14T17:24:07Z</time>
      </trkpt>
      <trkpt lat="48.61975" lon="2.02549">
        <ele>127.8</ele>
        <time>2024-03-14T17:24:08Z</time>
      </trkpt>
      <trkpt lat="48.61971" lon="2.02553">
        <ele>129.8</ele>
        <time>2024-03-14T17:24:09Z</time>
      </trkpt>
      <trkpt lat="48.61968" lon="2.02556">
        <ele>129.8</ele>
        <time>2024-03-14T17:24:10Z</time>
      </trkpt>
      <trkpt lat="48.61965" lon="2.02559">
        <ele>129.8</ele>
        <time>2024-03-14T17:24:11Z</time>
      </trkpt>
      <trkpt lat="48.61962" lon="2.02564">
        <ele>129.8</ele>
        <time>2024-03-14T17:24:12Z</time>
      </trkpt>
      <trkpt lat="48.6196" lon="2.02569">
        <ele>130.2</ele>
        <time>2024-03-14T17:24:13Z</time>
      </trkpt>
      <trkpt lat="48.61957" lon="2.02574">
        <ele>130.2</ele>
        <time>2024-03-14T17:24:14Z</time>
      </trkpt>
      <trkpt lat="48.61954" lon="2.0258">
        <ele>130.2</ele>
        <time>2024-03-14T17:24:15Z</time>
      </trkpt>
      <trkpt lat="48.61951" lon="2.02586">
        <ele>130.2</ele>
        <time>2024-03-14T17:24:16Z</time>
      </trkpt>
      <trkpt lat="48.61948" lon="2.02592">
        <ele>130.2</ele>
        <time>2024-03-14T17:24:17Z</time>
      </trkpt>
      <trkpt lat="48.61945" lon="2.02599">
        <ele>130.2</ele>
        <time>2024-03-14T17:24:18Z</time>
      </trkpt>
      <trkpt lat="48.61942" lon="2.02605">
        <ele>130.2</ele>
        <time>2024-03-14T17:24:19Z</time>
      </trkpt>
      <trkpt lat="48.61938" lon="2.02612">
        <ele>130.2</ele>
        <time>2024-03-14T17:24:20Z</time>
      </trkpt>
      <trkpt lat="48.61934" lon="2.02618">
        <ele>129.4</ele>
        <time>2024-03-14T17:24:21Z</time>
      </trkpt>
      <trkpt lat="48.6193" lon="2.02624">
        <ele>129.4</ele>
        <time>2024-03-14T17:24:22Z</time>
      </trkpt>
      <trkpt lat="48.61926" lon="2.0263">
        <ele>129.4</ele>
        <time>2024-03-14T17:24:23Z</time>
      </trkpt>
      <trkpt lat="48.61921" lon="2.02636">
        <ele>129.4</ele>
        <time>2024-03-14T17:24:24Z</time>
      </trkpt>
      <trkpt lat="48.61916" lon="2.02642">
        <ele>129.2</ele>
        <time>2024-03-14T17:24:25Z</time>
      </trkpt>
      <trkpt lat="48.61912" lon="2.02649">
        <ele>129.2</ele>
        <time>2024-03-14T17:24:26Z</time>
      </trkpt>
      <trkpt lat="48.61907" lon="2.02656">
        <ele>129.2</ele>
        <time>2024-03-14T17:24:27Z</time>
      </trkpt>
      <trkpt lat="48.61903" lon="2.02663">
        <ele>128.2</ele>
        <time>2024-03-14T17:24:28Z</time>
      </trkpt>
      <trkpt lat="48.61897" lon="2.02669">
        <ele>128.2</ele>
        <time>2024-03-14T17:24:29Z</time>
      </trkpt>
      <trkpt lat="48.61894" lon="2.02677">
        <ele>128.2</ele>
        <time>2024-03-14T17:24:30Z</time>
      </trkpt>
      <trkpt lat="48.61889" lon="2.02683">
        <ele>128.2</ele>
        <time>2024-03-14T17:24:31Z</time>
      </trkpt>
      <trkpt lat="48.61884" lon="2.0269">
        <ele>128.2</ele>
        <time>2024-03-14T17:24:32Z</time>
      </trkpt>
      <trkpt lat="48.61879" lon="2.02697">
        <ele>127.6</ele>
        <time>2024-03-14T17:24:33Z</time>
      </trkpt>
      <trkpt lat="48.61874" lon="2.02704">
        <ele>127.6</ele>
        <time>2024-03-14T17:24:34Z</time>
      </trkpt>
      <trkpt lat="48.61869" lon="2.02712">
        <ele>127.6</ele>
        <time>2024-03-14T17:24:35Z</time>
      </trkpt>
      <trkpt lat="48.61864" lon="2.02719">
        <ele>127.6</ele>
        <time>2024-03-14T17:24:36Z</time>
      </trkpt>
      <trkpt lat="48.61859" lon="2.02727">
        <ele>127.2</ele>
        <time>2024-03-14T17:24:37Z</time>
      </trkpt>
      <trkpt lat="48.61853" lon="2.02734">
        <ele>127.2</ele>
        <time>2024-03-14T17:24:38Z</time>
      </trkpt>
      <trkpt lat="48.61849" lon="2.02741">
        <ele>127.2</ele>
        <time>2024-03-14T17:24:39Z</time>
      </trkpt>
      <trkpt lat="48.61843" lon="2.02748">
        <ele>127.2</ele>
        <time>2024-03-14T17:24:40Z</time>
      </trkpt>
      <trkpt lat="48.61838" lon="2.02755">
        <ele>126.4</ele>
        <time>2024-03-14T17:24:41Z</time>
      </trkpt>
      <trkpt lat="48.61833" lon="2.02763">
        <ele>126.4</ele>
        <time>2024-03-14T17:24:42Z</time>
      </trkpt>
      <trkpt lat="48.61828" lon="2.02769">
        <ele>126.4</ele>
        <time>2024-03-14T17:24:43Z</time>
      </trkpt>
      <trkpt lat="48.61823" lon="2.02775">
        <ele>126.4</ele>
        <time>2024-03-14T17:24:44Z</time>
      </trkpt>
      <trkpt lat="48.61818" lon="2.02782">
        <ele>127.2</ele>
        <time>2024-03-14T17:24:45Z</time>
      </trkpt>
      <trkpt lat="48.61813" lon="2.02787">
        <ele>127.2</ele>
        <time>2024-03-14T17:24:46Z</time>
      </trkpt>
      <trkpt lat="48.61809" lon="2.02792">
        <ele>127.2</ele>
        <time>2024-03-14T17:24:47Z</time>
      </trkpt>
      <trkpt lat="48.61805" lon="2.02797">
        <ele>127.2</ele>
        <time>2024-03-14T17:24:48Z</time>
      </trkpt>
      <trkpt lat="48.61802" lon="2.028">
        <ele>128.2</ele>
        <time>2024-03-14T17:24:49Z</time>
      </trkpt>
      <trkpt lat="48.61799" lon="2.02802">
        <ele>128.2</ele>
        <time>2024-03-14T17:24:50Z</time>
      </trkpt>
      <trkpt lat="48.61797" lon="2.02804">
        <ele>128.2</ele>
        <time>2024-03-14T17:24:51Z</time>
      </trkpt>
      <trkpt lat="48.61796" lon="2.02807">
        <ele>128.2</ele>
        <time>2024-03-14T17:24:52Z</time>
      </trkpt>
      <trkpt lat="48.61796" lon="2.02809">
        <ele>128</ele>
        <time>2024-03-14T17:24:53Z</time>
      </trkpt>
      <trkpt lat="48.61797" lon="2.0281">
        <ele>128</ele>
        <time>2024-03-14T17:24:54Z</time>
      </trkpt>
      <trkpt lat="48.61798" lon="2.02809">
        <ele>128</ele>
        <time>2024-03-14T17:24:55Z</time>
      </trkpt>
      <trkpt lat="48.61799" lon="2.02807">
        <ele>128</ele>
        <time>2024-03-14T17:24:56Z</time>
      </trkpt>
      <trkpt lat="48.618" lon="2.02804">
        <ele>128.2</ele>
        <time>2024-03-14T17:24:57Z</time>
      </trkpt>
      <trkpt lat="48.61802" lon="2.02801">
        <ele>128.2</ele>
        <time>2024-03-14T17:24:58Z</time>
      </trkpt>
      <trkpt lat="48.61805" lon="2.02798">
        <ele>128.2</ele>
        <time>2024-03-14T17:24:59Z</time>
      </trkpt>
      <trkpt lat="48.61808" lon="2.02794">
        <ele>127.6</ele>
        <time>2024-03-14T17:25:00Z</time>
      </trkpt>
      <trkpt lat="48.61812" lon="2.02789">
        <ele>127.2</ele>
        <time>2024-03-14T17:25:01Z</time>
      </trkpt>
      <trkpt lat="48.61815" lon="2.02784">
        <ele>127.2</ele>
        <time>2024-03-14T17:25:02Z</time>
      </trkpt>
      <trkpt lat="48.61819" lon="2.02779">
        <ele>127.2</ele>
        <time>2024-03-14T17:25:03Z</time>
      </trkpt>
      <trkpt lat="48.61823" lon="2.02773">
        <ele>127</ele>
        <time>2024-03-14T17:25:04Z</time>
      </trkpt>
      <trkpt lat="48.61827" lon="2.02767">
        <ele>127.4</ele>
        <time>2024-03-14T17:25:05Z</time>
      </trkpt>
      <trkpt lat="48.61832" lon="2.02761">
        <ele>127.4</ele>
        <time>2024-03-14T17:25:06Z</time>
      </trkpt>
      <trkpt lat="48.61836" lon="2.02755">
        <ele>127.4</ele>
        <time>2024-03-14T17:25:07Z</time>
      </trkpt>
      <trkpt lat="48.6184" lon="2.02749">
        <ele>127.8</ele>
        <time>2024-03-14T17:25:08Z</time>
      </trkpt>
      <trkpt lat="48.61844" lon="2.02743">
        <ele>127.4</ele>
        <time>2024-03-14T17:25:09Z</time>
      </trkpt>
      <trkpt lat="48.61849" lon="2.02738">
        <ele>127.4</ele>
        <time>2024-03-14T17:25:10Z</time>
      </trkpt>
      <trkpt lat="48.61853" lon="2.02733">
        <ele>127.4</ele>
        <time>2024-03-14T17:25:11Z</time>
      </trkpt>
      <trkpt lat="48.61858" lon="2.02727">
        <ele>127.4</ele>
        <time>2024-03-14T17:25:12Z</time>
      </trkpt>
      <trkpt lat="48.61862" lon="2.02721">
        <ele>128.6</ele>
        <time>2024-03-14T17:25:13Z</time>
      </trkpt>
      <trkpt lat="48.61867" lon="2.02714">
        <ele>128.6</ele>
        <time>2024-03-14T17:25:14Z</time>
      </trkpt>
      <trkpt lat="48.61872" lon="2.02708">
        <ele>128.6</ele>
        <time>2024-03-14T17:25:15Z</time>
      </trkpt>
      <trkpt lat="48.61876" lon="2.02702">
        <ele>128.6</ele>
        <time>2024-03-14T17:25:16Z</time>
      </trkpt>
      <trkpt lat="48.61881" lon="2.02696">
        <ele>128.4</ele>
        <time>2024-03-14T17:25:17Z</time>
      </trkpt>
      <trkpt lat="48.61886" lon="2.0269">
        <ele>128.4</ele>
        <time>2024-03-14T17:25:18Z</time>
      </trkpt>
      <trkpt lat="48.6189" lon="2.02684">
        <ele>128.4</ele>
        <time>2024-03-14T17:25:19Z</time>
      </trkpt>
      <trkpt lat="48.61894" lon="2.02678">
        <ele>128.4</ele>
        <time>2024-03-14T17:25:20Z</time>
      </trkpt>
      <trkpt lat="48.61899" lon="2.02671">
        <ele>128.6</ele>
        <time>2024-03-14T17:25:21Z</time>
      </trkpt>
      <trkpt lat="48.61903" lon="2.02665">
        <ele>128.6</ele>
        <time>2024-03-14T17:25:22Z</time>
      </trkpt>
      <trkpt lat="48.61907" lon="2.02658">
        <ele>128.6</ele>
        <time>2024-03-14T17:25:23Z</time>
      </trkpt>
      <trkpt lat="48.61912" lon="2.02652">
        <ele>128.8</ele>
        <time>2024-03-14T17:25:24Z</time>
      </trkpt>
      <trkpt lat="48.61916" lon="2.02646">
        <ele>129.6</ele>
        <time>2024-03-14T17:25:25Z</time>
      </trkpt>
      <trkpt lat="48.6192" lon="2.0264">
        <ele>129.6</ele>
        <time>2024-03-14T17:25:26Z</time>
      </trkpt>
      <trkpt lat="48.61925" lon="2.02635">
        <ele>129.6</ele>
        <time>2024-03-14T17:25:27Z</time>
      </trkpt>
      <trkpt lat="48.6193" lon="2.02629">
        <ele>129.8</ele>
        <time>2024-03-14T17:25:28Z</time>
      </trkpt>
      <trkpt lat="48.61934" lon="2.02623">
        <ele>130.2</ele>
        <time>2024-03-14T17:25:29Z</time>
      </trkpt>
      <trkpt lat="48.61936" lon="2.02616">
        <ele>130.2</ele>
        <time>2024-03-14T17:25:30Z</time>
      </trkpt>
      <trkpt lat="48.61938" lon="2.02609">
        <ele>130.2</ele>
        <time>2024-03-14T17:25:31Z</time>
      </trkpt>
      <trkpt lat="48.61939" lon="2.02601">
        <ele>130.2</ele>
        <time>2024-03-14T17:25:32Z</time>
      </trkpt>
      <trkpt lat="48.61941" lon="2.02594">
        <ele>129.8</ele>
        <time>2024-03-14T17:25:33Z</time>
      </trkpt>
      <trkpt lat="48.61944" lon="2.02587">
        <ele>129.8</ele>
        <time>2024-03-14T17:25:34Z</time>
      </trkpt>
      <trkpt lat="48.61947" lon="2.02581">
        <ele>129.8</ele>
        <time>2024-03-14T17:25:35Z</time>
      </trkpt>
      <trkpt lat="48.61951" lon="2.02575">
        <ele>129.8</ele>
        <time>2024-03-14T17:25:36Z</time>
      </trkpt>
      <trkpt lat="48.61954" lon="2.02569">
        <ele>130.6</ele>
        <time>2024-03-14T17:25:37Z</time>
      </trkpt>
      <trkpt lat="48.61959" lon="2.02563">
        <ele>130.6</ele>
        <time>2024-03-14T17:25:38Z</time>
      </trkpt>
      <trkpt lat="48.61963" lon="2.02558">
        <ele>130.6</ele>
        <time>2024-03-14T17:25:39Z</time>
      </trkpt>
      <trkpt lat="48.61968" lon="2.02555">
        <ele>129.6</ele>
        <time>2024-03-14T17:25:40Z</time>
      </trkpt>
      <trkpt lat="48.61973" lon="2.02551">
        <ele>129.2</ele>
        <time>2024-03-14T17:25:41Z</time>
      </trkpt>
      <trkpt lat="48.61979" lon="2.02548">
        <ele>129.2</ele>
        <time>2024-03-14T17:25:42Z</time>
      </trkpt>
      <trkpt lat="48.61984" lon="2.02545">
        <ele>129.2</ele>
        <time>2024-03-14T17:25:43Z</time>
      </trkpt>
      <trkpt lat="48.6199" lon="2.02541">
        <ele>129.2</ele>
        <time>2024-03-14T17:25:44Z</time>
      </trkpt>
      <trkpt lat="48.61996" lon="2.02537">
        <ele>128.2</ele>
        <time>2024-03-14T17:25:45Z</time>
      </trkpt>
      <trkpt lat="48.62002" lon="2.02534">
        <ele>128.2</ele>
        <time>2024-03-14T17:25:46Z</time>
      </trkpt>
      <trkpt lat="48.62009" lon="2.0253">
        <ele>128.2</ele>
        <time>2024-03-14T17:25:47Z</time>
      </trkpt>
      <trkpt lat="48.62015" lon="2.02526">
        <ele>128.6</ele>
        <time>2024-03-14T17:25:48Z</time>
      </trkpt>
      <trkpt lat="48.62022" lon="2.02522">
        <ele>128.4</ele>
        <time>2024-03-14T17:25:49Z</time>
      </trkpt>
      <trkpt lat="48.62029" lon="2.02518">
        <ele>128.4</ele>
        <time>2024-03-14T17:25:50Z</time>
      </trkpt>
      <trkpt lat="48.62035" lon="2.02515">
        <ele>128.4</ele>
        <time>2024-03-14T17:25:51Z</time>
      </trkpt>
      <trkpt lat="48.62042" lon="2.02511">
        <ele>128.4</ele>
        <time>2024-03-14T17:25:52Z</time>
      </trkpt>
      <trkpt lat="48.62048" lon="2.02507">
        <ele>127.6</ele>
        <time>2024-03-14T17:25:53Z</time>
      </trkpt>
      <trkpt lat="48.62055" lon="2.02505">
        <ele>127.6</ele>
        <time>2024-03-14T17:25:54Z</time>
      </trkpt>
      <trkpt lat="48.62062" lon="2.02505">
        <ele>127.6</ele>
        <time>2024-03-14T17:25:55Z</time>
      </trkpt>
      <trkpt lat="48.62068" lon="2.02506">
        <ele>128</ele>
        <time>2024-03-14T17:25:56Z</time>
      </trkpt>
      <trkpt lat="48.62074" lon="2.02507">
        <ele>128.2</ele>
        <time>2024-03-14T17:25:57Z</time>
      </trkpt>
      <trkpt lat="48.6208" lon="2.02508">
        <ele>128.2</ele>
        <time>2024-03-14T17:25:58Z</time>
      </trkpt>
      <trkpt lat="48.62086" lon="2.02509">
        <ele>128.2</ele>
        <time>2024-03-14T17:25:59Z</time>
      </trkpt>
      <trkpt lat="48.62092" lon="2.0251">
        <ele>128.2</ele>
        <time>2024-03-14T17:26:00Z</time>
      </trkpt>
      <trkpt lat="48.62098" lon="2.02511">
        <ele>128.6</ele>
        <time>2024-03-14T17:26:01Z</time>
      </trkpt>
      <trkpt lat="48.62103" lon="2.02509">
        <ele>128.6</ele>
        <time>2024-03-14T17:26:02Z</time>
      </trkpt>
      <trkpt lat="48.62108" lon="2.02505">
        <ele>128.6</ele>
        <time>2024-03-14T17:26:03Z</time>
      </trkpt>
      <trkpt lat="48.62114" lon="2.02501">
        <ele>128.2</ele>
        <time>2024-03-14T17:26:04Z</time>
      </trkpt>
      <trkpt lat="48.62119" lon="2.02496">
        <ele>128</ele>
        <time>2024-03-14T17:26:05Z</time>
      </trkpt>
      <trkpt lat="48.62124" lon="2.02491">
        <ele>128</ele>
        <time>2024-03-14T17:26:06Z</time>
      </trkpt>
      <trkpt lat="48.6213" lon="2.02486">
        <ele>128</ele>
        <time>2024-03-14T17:26:07Z</time>
      </trkpt>
      <trkpt lat="48.62136" lon="2.02481">
        <ele>127.8</ele>
        <time>2024-03-14T17:26:08Z</time>
      </trkpt>
      <trkpt lat="48.62141" lon="2.02475">
        <ele>127.6</ele>
        <time>2024-03-14T17:26:09Z</time>
      </trkpt>
      <trkpt lat="48.62146" lon="2.02468">
        <ele>127.6</ele>
        <time>2024-03-14T17:26:10Z</time>
      </trkpt>
      <trkpt lat="48.62151" lon="2.02461">
        <ele>127.6</ele>
        <time>2024-03-14T17:26:11Z</time>
      </trkpt>
      <trkpt lat="48.62156" lon="2.02455">
        <ele>128.2</ele>
        <time>2024-03-14T17:26:12Z</time>
      </trkpt>
      <trkpt lat="48.62161" lon="2.02448">
        <ele>128.6</ele>
        <time>2024-03-14T17:26:13Z</time>
      </trkpt>
      <trkpt lat="48.62167" lon="2.02442">
        <ele>128.6</ele>
        <time>2024-03-14T17:26:14Z</time>
      </trkpt>
      <trkpt lat="48.62172" lon="2.02436">
        <ele>128.6</ele>
        <time>2024-03-14T17:26:15Z</time>
      </trkpt>
      <trkpt lat="48.62177" lon="2.02429">
        <ele>128</ele>
        <time>2024-03-14T17:26:16Z</time>
      </trkpt>
      <trkpt lat="48.62183" lon="2.02421">
        <ele>128.6</ele>
        <time>2024-03-14T17:26:17Z</time>
      </trkpt>
      <trkpt lat="48.62187" lon="2.02413">
        <ele>128.6</ele>
        <time>2024-03-14T17:26:18Z</time>
      </trkpt>
      <trkpt lat="48.6219" lon="2.02404">
        <ele>128.6</ele>
        <time>2024-03-14T17:26:19Z</time>
      </trkpt>
      <trkpt lat="48.62192" lon="2.02394">
        <ele>127.8</ele>
        <time>2024-03-14T17:26:20Z</time>
      </trkpt>
      <trkpt lat="48.62193" lon="2.02385">
        <ele>127.8</ele>
        <time>2024-03-14T17:26:21Z</time>
      </trkpt>
      <trkpt lat="48.62195" lon="2.02375">
        <ele>127.8</ele>
        <time>2024-03-14T17:26:22Z</time>
      </trkpt>
      <trkpt lat="48.62196" lon="2.02366">
        <ele>127.8</ele>
        <time>2024-03-14T17:26:23Z</time>
      </trkpt>
      <trkpt lat="48.62196" lon="2.02357">
        <ele>127.8</ele>
        <time>2024-03-14T17:26:24Z</time>
      </trkpt>
      <trkpt lat="48.62197" lon="2.02349">
        <ele>129.2</ele>
        <time>2024-03-14T17:26:25Z</time>
      </trkpt>
      <trkpt lat="48.62198" lon="2.02343">
        <ele>129.2</ele>
        <time>2024-03-14T17:26:26Z</time>
      </trkpt>
      <trkpt lat="48.62198" lon="2.0234">
        <ele>129.2</ele>
        <time>2024-03-14T17:26:27Z</time>
      </trkpt>
      <trkpt lat="48.62198" lon="2.02337">
        <ele>130.2</ele>
        <time>2024-03-14T17:26:28Z</time>
      </trkpt>
      <trkpt lat="48.62198" lon="2.02335">
        <ele>131</ele>
        <time>2024-03-14T17:26:29Z</time>
      </trkpt>
      <trkpt lat="48.62198" lon="2.02332">
        <ele>131</ele>
        <time>2024-03-14T17:26:30Z</time>
      </trkpt>
      <trkpt lat="48.62198" lon="2.02328">
        <ele>131</ele>
        <time>2024-03-14T17:26:31Z</time>
      </trkpt>
      <trkpt lat="48.62198" lon="2.02324">
        <ele>130.2</ele>
        <time>2024-03-14T17:26:32Z</time>
      </trkpt>
      <trkpt lat="48.622" lon="2.02319">
        <ele>130.4</ele>
        <time>2024-03-14T17:26:33Z</time>
      </trkpt>
      <trkpt lat="48.62201" lon="2.02313">
        <ele>130.4</ele>
        <time>2024-03-14T17:26:34Z</time>
      </trkpt>
      <trkpt lat="48.62201" lon="2.02306">
        <ele>130.4</ele>
        <time>2024-03-14T17:26:35Z</time>
      </trkpt>
      <trkpt lat="48.62201" lon="2.02297">
        <ele>129.4</ele>
        <time>2024-03-14T17:26:36Z</time>
      </trkpt>
      <trkpt lat="48.62201" lon="2.02287">
        <ele>129.2</ele>
        <time>2024-03-14T17:26:37Z</time>
      </trkpt>
      <trkpt lat="48.622" lon="2.02277">
        <ele>129.2</ele>
        <time>2024-03-14T17:26:38Z</time>
      </trkpt>
      <trkpt lat="48.622" lon="2.02267">
        <ele>129.2</ele>
        <time>2024-03-14T17:26:39Z</time>
      </trkpt>
      <trkpt lat="48.622" lon="2.02256">
        <ele>128.4</ele>
        <time>2024-03-14T17:26:40Z</time>
      </trkpt>
      <trkpt lat="48.622" lon="2.02244">
        <ele>128.4</ele>
        <time>2024-03-14T17:26:41Z</time>
      </trkpt>
      <trkpt lat="48.622" lon="2.02232">
        <ele>128.4</ele>
        <time>2024-03-14T17:26:42Z</time>
      </trkpt>
      <trkpt lat="48.622" lon="2.02221">
        <ele>128.4</ele>
        <time>2024-03-14T17:26:43Z</time>
      </trkpt>
      <trkpt lat="48.622" lon="2.02209">
        <ele>128.4</ele>
        <time>2024-03-14T17:26:44Z</time>
      </trkpt>
      <trkpt lat="48.62201" lon="2.02198">
        <ele>128.6</ele>
        <time>2024-03-14T17:26:45Z</time>
      </trkpt>
      <trkpt lat="48.62202" lon="2.02187">
        <ele>128.6</ele>
        <time>2024-03-14T17:26:46Z</time>
      </trkpt>
      <trkpt lat="48.62203" lon="2.02175">
        <ele>128.6</ele>
        <time>2024-03-14T17:26:47Z</time>
      </trkpt>
      <trkpt lat="48.62204" lon="2.02163">
        <ele>128</ele>
        <time>2024-03-14T17:26:48Z</time>
      </trkpt>
      <trkpt lat="48.62204" lon="2.0215">
        <ele>128.2</ele>
        <time>2024-03-14T17:26:49Z</time>
      </trkpt>
      <trkpt lat="48.62205" lon="2.02138">
        <ele>128.2</ele>
        <time>2024-03-14T17:26:50Z</time>
      </trkpt>
      <trkpt lat="48.62206" lon="2.02126">
        <ele>128.2</ele>
        <time>2024-03-14T17:26:51Z</time>
      </trkpt>
      <trkpt lat="48.62207" lon="2.02114">
        <ele>128.2</ele>
        <time>2024-03-14T17:26:52Z</time>
      </trkpt>
      <trkpt lat="48.62208" lon="2.02102">
        <ele>128.6</ele>
        <time>2024-03-14T17:26:53Z</time>
      </trkpt>
      <trkpt lat="48.62209" lon="2.0209">
        <ele>128.6</ele>
        <time>2024-03-14T17:26:54Z</time>
      </trkpt>
      <trkpt lat="48.62211" lon="2.02078">
        <ele>128.6</ele>
        <time>2024-03-14T17:26:55Z</time>
      </trkpt>
      <trkpt lat="48.62212" lon="2.02066">
        <ele>128.2</ele>
        <time>2024-03-14T17:26:56Z</time>
      </trkpt>
      <trkpt lat="48.62213" lon="2.02054">
        <ele>128</ele>
        <time>2024-03-14T17:26:57Z</time>
      </trkpt>
      <trkpt lat="48.62214" lon="2.02042">
        <ele>128</ele>
        <time>2024-03-14T17:26:58Z</time>
      </trkpt>
      <trkpt lat="48.62215" lon="2.02031">
        <ele>128</ele>
        <time>2024-03-14T17:26:59Z</time>
      </trkpt>
      <trkpt lat="48.62216" lon="2.02019">
        <ele>128.8</ele>
        <time>2024-03-14T17:27:00Z</time>
      </trkpt>
      <trkpt lat="48.62217" lon="2.02008">
        <ele>128.8</ele>
        <time>2024-03-14T17:27:01Z</time>
      </trkpt>
      <trkpt lat="48.62218" lon="2.01997">
        <ele>128.8</ele>
        <time>2024-03-14T17:27:02Z</time>
      </trkpt>
      <trkpt lat="48.62219" lon="2.01985">
        <ele>128.8</ele>
        <time>2024-03-14T17:27:03Z</time>
      </trkpt>
      <trkpt lat="48.6222" lon="2.01974">
        <ele>128.8</ele>
        <time>2024-03-14T17:27:04Z</time>
      </trkpt>
      <trkpt lat="48.62221" lon="2.01962">
        <ele>129</ele>
        <time>2024-03-14T17:27:05Z</time>
      </trkpt>
      <trkpt lat="48.62222" lon="2.01952">
        <ele>129</ele>
        <time>2024-03-14T17:27:06Z</time>
      </trkpt>
      <trkpt lat="48.62223" lon="2.01941">
        <ele>129</ele>
        <time>2024-03-14T17:27:07Z</time>
      </trkpt>
      <trkpt lat="48.62223" lon="2.01931">
        <ele>129.2</ele>
        <time>2024-03-14T17:27:08Z</time>
      </trkpt>
      <trkpt lat="48.62224" lon="2.01923">
        <ele>129.4</ele>
        <time>2024-03-14T17:27:09Z</time>
      </trkpt>
      <trkpt lat="48.62226" lon="2.01914">
        <ele>129.4</ele>
        <time>2024-03-14T17:27:10Z</time>
      </trkpt>
      <trkpt lat="48.62229" lon="2.01906">
        <ele>129.4</ele>
        <time>2024-03-14T17:27:11Z</time>
      </trkpt>
      <trkpt lat="48.62232" lon="2.01901">
        <ele>130.4</ele>
        <time>2024-03-14T17:27:12Z</time>
      </trkpt>
      <trkpt lat="48.62236" lon="2.01897">
        <ele>130.6</ele>
        <time>2024-03-14T17:27:13Z</time>
      </trkpt>
      <trkpt lat="48.62241" lon="2.01893">
        <ele>130.6</ele>
        <time>2024-03-14T17:27:14Z</time>
      </trkpt>
      <trkpt lat="48.62245" lon="2.0189">
        <ele>130.6</ele>
        <time>2024-03-14T17:27:15Z</time>
      </trkpt>
      <trkpt lat="48.62247" lon="2.01883">
        <ele>131</ele>
        <time>2024-03-14T17:27:16Z</time>
      </trkpt>
      <trkpt lat="48.62247" lon="2.01877">
        <ele>131.2</ele>
        <time>2024-03-14T17:27:17Z</time>
      </trkpt>
      <trkpt lat="48.62246" lon="2.0187">
        <ele>131.2</ele>
        <time>2024-03-14T17:27:18Z</time>
      </trkpt>
      <trkpt lat="48.62244" lon="2.01864">
        <ele>131.2</ele>
        <time>2024-03-14T17:27:19Z</time>
      </trkpt>
      <trkpt lat="48.62245" lon="2.01858">
        <ele>131.4</ele>
        <time>2024-03-14T17:27:20Z</time>
      </trkpt>
      <trkpt lat="48.62247" lon="2.01853">
        <ele>131.2</ele>
        <time>2024-03-14T17:27:21Z</time>
      </trkpt>
      <trkpt lat="48.62251" lon="2.01848">
        <ele>131.2</ele>
        <time>2024-03-14T17:27:22Z</time>
      </trkpt>
      <trkpt lat="48.62254" lon="2.01845">
        <ele>131.2</ele>
        <time>2024-03-14T17:27:23Z</time>
      </trkpt>
      <trkpt lat="48.62257" lon="2.01842">
        <ele>131.2</ele>
        <time>2024-03-14T17:27:24Z</time>
      </trkpt>
      <trkpt lat="48.62259" lon="2.01838">
        <ele>132.8</ele>
        <time>2024-03-14T17:27:25Z</time>
      </trkpt>
      <trkpt lat="48.62259" lon="2.01834">
        <ele>132.8</ele>
        <time>2024-03-14T17:27:26Z</time>
      </trkpt>
      <trkpt lat="48.6226" lon="2.01833">
        <ele>132.8</ele>
        <time>2024-03-14T17:27:27Z</time>
      </trkpt>
      <trkpt lat="48.6226" lon="2.01831">
        <ele>132.4</ele>
        <time>2024-03-14T17:27:28Z</time>
      </trkpt>
      <trkpt lat="48.6226" lon="2.01831">
        <ele>132.4</ele>
        <time>2024-03-14T17:27:29Z</time>
      </trkpt>
      <trkpt lat="48.6226" lon="2.01831">
        <ele>132.4</ele>
        <time>2024-03-14T17:27:30Z</time>
      </trkpt>
    </trkseg>
  </trk>
</gpx>